<?xml version='1.0' encoding='UTF-8'?><gpx version="1.1" creator="JPX - https://github.com/jenetics/jpx" xmlns="http://www.topografix.com/GPX/1/1"><trk><trkseg><trkpt lat="43.7866668" lon="10.9883634"><ele>424.4</ele><time>2026-04-04T07:16:28.117Z</time></trkpt><trkpt lat="43.7866741" lon="10.9882389"><ele>423.8</ele><time>2026-04-04T07:16:29.118Z</time></trkpt><trkpt lat="43.7867065" lon="10.9881251"><ele>423.20000000000005</ele><time>2026-04-04T07:16:30.118Z</time></trkpt><trkpt lat="43.7867545" lon="10.9880079"><ele>422.6</ele><time>2026-04-04T07:16:31.118Z</time></trkpt><trkpt lat="43.7868066" lon="10.9878885"><ele>422.0</ele><time>2026-04-04T07:16:32.117Z</time></trkpt><trkpt lat="43.7868501" lon="10.987769"><ele>423.40000000000003</ele><time>2026-04-04T07:16:33.117Z</time></trkpt><trkpt lat="43.786855" lon="10.9876617"><ele>424.8</ele><time>2026-04-04T07:16:34.118Z</time></trkpt><trkpt lat="43.786848" lon="10.9875676"><ele>426.2</ele><time>2026-04-04T07:16:35.117Z</time></trkpt><trkpt lat="43.7867897" lon="10.9874045"><ele>427.6</ele><time>2026-04-04T07:16:36.118Z</time></trkpt><trkpt lat="43.7867266" lon="10.9873267"><ele>429.0</ele><time>2026-04-04T07:16:37.119Z</time></trkpt><trkpt lat="43.7865881" lon="10.9873536"><ele>429.0</ele><time>2026-04-04T07:16:38.118Z</time></trkpt><trkpt lat="43.7865017" lon="10.9873369"><ele>429.0</ele><time>2026-04-04T07:16:39.118Z</time></trkpt><trkpt lat="43.786406" lon="10.9873317"><ele>429.0</ele><time>2026-04-04T07:16:40.118Z</time></trkpt><trkpt lat="43.7863046" lon="10.987347"><ele>429.0</ele><time>2026-04-04T07:16:41.118Z</time></trkpt><trkpt lat="43.7861901" lon="10.9873756"><ele>429.0</ele><time>2026-04-04T07:16:42.118Z</time></trkpt><trkpt lat="43.7860469" lon="10.9874146"><ele>426.75</ele><time>2026-04-04T07:16:43.118Z</time></trkpt><trkpt lat="43.7859068" lon="10.9874588"><ele>424.5</ele><time>2026-04-04T07:16:44.118Z</time></trkpt><trkpt lat="43.7857724" lon="10.9874742"><ele>422.25</ele><time>2026-04-04T07:16:45.117Z</time></trkpt><trkpt lat="43.7856458" lon="10.987399"><ele>420.0</ele><time>2026-04-04T07:16:46.119Z</time></trkpt><trkpt lat="43.7855202" lon="10.9873401"><ele>420.0</ele><time>2026-04-04T07:16:47.118Z</time></trkpt><trkpt lat="43.7854162" lon="10.9872604"><ele>420.0</ele><time>2026-04-04T07:16:48.118Z</time></trkpt><trkpt lat="43.7853209" lon="10.9871378"><ele>420.0</ele><time>2026-04-04T07:16:49.118Z</time></trkpt><trkpt lat="43.7852399" lon="10.9869831"><ele>420.0</ele><time>2026-04-04T07:16:50.118Z</time></trkpt><trkpt lat="43.7851704" lon="10.9868225"><ele>420.2</ele><time>2026-04-04T07:16:51.117Z</time></trkpt><trkpt lat="43.7851112" lon="10.9866783"><ele>420.4</ele><time>2026-04-04T07:16:52.117Z</time></trkpt><trkpt lat="43.7850591" lon="10.9865319"><ele>420.6</ele><time>2026-04-04T07:16:53.118Z</time></trkpt><trkpt lat="43.7850201" lon="10.9864061"><ele>420.8</ele><time>2026-04-04T07:16:54.118Z</time></trkpt><trkpt lat="43.7849937" lon="10.9862839"><ele>421.0</ele><time>2026-04-04T07:16:55.118Z</time></trkpt><trkpt lat="43.7849791" lon="10.9861677"><ele>421.00000000000006</ele><time>2026-04-04T07:16:56.118Z</time></trkpt><trkpt lat="43.7849865" lon="10.9860488"><ele>421.0</ele><time>2026-04-04T07:16:57.118Z</time></trkpt><trkpt lat="43.7850074" lon="10.985938"><ele>421.0</ele><time>2026-04-04T07:16:58.118Z</time></trkpt><trkpt lat="43.7850392" lon="10.985844"><ele>421.0</ele><time>2026-04-04T07:16:59.118Z</time></trkpt><trkpt lat="43.7850709" lon="10.9857682"><ele>421.00000000000006</ele><time>2026-04-04T07:17:00.118Z</time></trkpt><trkpt lat="43.7851341" lon="10.9856441"><ele>421.0</ele><time>2026-04-04T07:17:02.118Z</time></trkpt><trkpt lat="43.7852408" lon="10.9856208"><ele>423.1666666666667</ele><time>2026-04-04T07:17:04.118Z</time></trkpt><trkpt lat="43.7853074" lon="10.9856248"><ele>425.33333333333337</ele><time>2026-04-04T07:17:05.119Z</time></trkpt><trkpt lat="43.785376" lon="10.9856033"><ele>427.5</ele><time>2026-04-04T07:17:06.117Z</time></trkpt><trkpt lat="43.7854594" lon="10.9855698"><ele>429.66666666666663</ele><time>2026-04-04T07:17:07.118Z</time></trkpt><trkpt lat="43.7854887" lon="10.9854355"><ele>431.8333333333333</ele><time>2026-04-04T07:17:08.118Z</time></trkpt><trkpt lat="43.7855489" lon="10.9853493"><ele>434.0</ele><time>2026-04-04T07:17:09.119Z</time></trkpt><trkpt lat="43.7856008" lon="10.9852469"><ele>433.99999999999994</ele><time>2026-04-04T07:17:10.118Z</time></trkpt><trkpt lat="43.785645" lon="10.9851533"><ele>434.0</ele><time>2026-04-04T07:17:11.117Z</time></trkpt><trkpt lat="43.7856967" lon="10.9850542"><ele>434.0</ele><time>2026-04-04T07:17:12.118Z</time></trkpt><trkpt lat="43.7857429" lon="10.9849541"><ele>434.0</ele><time>2026-04-04T07:17:13.118Z</time></trkpt><trkpt lat="43.785783" lon="10.9848516"><ele>433.99999999999994</ele><time>2026-04-04T07:17:14.118Z</time></trkpt><trkpt lat="43.7858188" lon="10.9847389"><ele>434.0</ele><time>2026-04-04T07:17:15.117Z</time></trkpt><trkpt lat="43.7858417" lon="10.9846128"><ele>434.5</ele><time>2026-04-04T07:17:16.118Z</time></trkpt><trkpt lat="43.7858583" lon="10.9844754"><ele>435.0</ele><time>2026-04-04T07:17:17.118Z</time></trkpt><trkpt lat="43.7858611" lon="10.9843298"><ele>435.5</ele><time>2026-04-04T07:17:18.118Z</time></trkpt><trkpt lat="43.7858619" lon="10.9841636"><ele>436.0</ele><time>2026-04-04T07:17:19.118Z</time></trkpt><trkpt lat="43.7858694" lon="10.9839835"><ele>436.5</ele><time>2026-04-04T07:17:20.118Z</time></trkpt><trkpt lat="43.7859024" lon="10.9838181"><ele>437.0</ele><time>2026-04-04T07:17:21.118Z</time></trkpt><trkpt lat="43.7859419" lon="10.983648"><ele>437.5</ele><time>2026-04-04T07:17:22.118Z</time></trkpt><trkpt lat="43.7859662" lon="10.9835054"><ele>438.0</ele><time>2026-04-04T07:17:23.118Z</time></trkpt><trkpt lat="43.7859919" lon="10.9833529"><ele>439.79999999999995</ele><time>2026-04-04T07:17:24.118Z</time></trkpt><trkpt lat="43.7859356" lon="10.9832202"><ele>441.59999999999997</ele><time>2026-04-04T07:17:25.118Z</time></trkpt><trkpt lat="43.7859139" lon="10.9830904"><ele>443.40000000000003</ele><time>2026-04-04T07:17:26.117Z</time></trkpt><trkpt lat="43.7858996" lon="10.982982"><ele>445.20000000000005</ele><time>2026-04-04T07:17:27.117Z</time></trkpt><trkpt lat="43.7859389" lon="10.9828388"><ele>447.0</ele><time>2026-04-04T07:17:29.118Z</time></trkpt><trkpt lat="43.7860513" lon="10.9828569"><ele>450.40000000000003</ele><time>2026-04-04T07:17:31.117Z</time></trkpt><trkpt lat="43.7861369" lon="10.9829165"><ele>453.80000000000007</ele><time>2026-04-04T07:17:32.118Z</time></trkpt><trkpt lat="43.7862215" lon="10.9829885"><ele>457.2</ele><time>2026-04-04T07:17:33.118Z</time></trkpt><trkpt lat="43.7863139" lon="10.9830913"><ele>460.6</ele><time>2026-04-04T07:17:34.118Z</time></trkpt><trkpt lat="43.786396" lon="10.9832166"><ele>464.0</ele><time>2026-04-04T07:17:35.118Z</time></trkpt><trkpt lat="43.7864785" lon="10.9833667"><ele>464.0</ele><time>2026-04-04T07:17:36.117Z</time></trkpt><trkpt lat="43.786551" lon="10.9835401"><ele>464.0</ele><time>2026-04-04T07:17:37.117Z</time></trkpt><trkpt lat="43.7866378" lon="10.9837101"><ele>464.0</ele><time>2026-04-04T07:17:38.117Z</time></trkpt><trkpt lat="43.7867234" lon="10.9838888"><ele>464.0</ele><time>2026-04-04T07:17:39.117Z</time></trkpt><trkpt lat="43.7868255" lon="10.9840918"><ele>464.0</ele><time>2026-04-04T07:17:40.118Z</time></trkpt><trkpt lat="43.7869249" lon="10.9842897"><ele>464.0</ele><time>2026-04-04T07:17:41.119Z</time></trkpt><trkpt lat="43.7870181" lon="10.9844865"><ele>466.0</ele><time>2026-04-04T07:17:42.118Z</time></trkpt><trkpt lat="43.7871099" lon="10.9846832"><ele>468.0</ele><time>2026-04-04T07:17:43.118Z</time></trkpt><trkpt lat="43.7872099" lon="10.9848812"><ele>470.0</ele><time>2026-04-04T07:17:44.118Z</time></trkpt><trkpt lat="43.7873044" lon="10.9850695"><ele>470.0</ele><time>2026-04-04T07:17:45.118Z</time></trkpt><trkpt lat="43.787404" lon="10.9852531"><ele>470.0</ele><time>2026-04-04T07:17:46.117Z</time></trkpt><trkpt lat="43.7875013" lon="10.9854197"><ele>470.0</ele><time>2026-04-04T07:17:47.118Z</time></trkpt><trkpt lat="43.7875974" lon="10.9855776"><ele>469.75</ele><time>2026-04-04T07:17:48.117Z</time></trkpt><trkpt lat="43.7876939" lon="10.9857285"><ele>469.5</ele><time>2026-04-04T07:17:49.118Z</time></trkpt><trkpt lat="43.7877894" lon="10.9858546"><ele>469.25</ele><time>2026-04-04T07:17:50.118Z</time></trkpt><trkpt lat="43.7878821" lon="10.985963"><ele>469.0</ele><time>2026-04-04T07:17:51.118Z</time></trkpt><trkpt lat="43.7879747" lon="10.9860313"><ele>469.0</ele><time>2026-04-04T07:17:52.117Z</time></trkpt><trkpt lat="43.7880748" lon="10.9860641"><ele>469.0</ele><time>2026-04-04T07:17:53.117Z</time></trkpt><trkpt lat="43.788193" lon="10.9860644"><ele>469.0</ele><time>2026-04-04T07:17:54.117Z</time></trkpt><trkpt lat="43.7882996" lon="10.986032"><ele>469.0</ele><time>2026-04-04T07:17:55.117Z</time></trkpt><trkpt lat="43.788404" lon="10.9859814"><ele>469.0</ele><time>2026-04-04T07:17:56.118Z</time></trkpt><trkpt lat="43.7884957" lon="10.9859225"><ele>468.1666666666667</ele><time>2026-04-04T07:17:57.117Z</time></trkpt><trkpt lat="43.7885739" lon="10.9858557"><ele>467.33333333333337</ele><time>2026-04-04T07:17:58.117Z</time></trkpt><trkpt lat="43.7886416" lon="10.9857909"><ele>466.5</ele><time>2026-04-04T07:17:59.118Z</time></trkpt><trkpt lat="43.7887043" lon="10.985723"><ele>465.66666666666663</ele><time>2026-04-04T07:18:00.119Z</time></trkpt><trkpt lat="43.7887522" lon="10.9856615"><ele>464.8333333333333</ele><time>2026-04-04T07:18:01.117Z</time></trkpt><trkpt lat="43.7888009" lon="10.9855908"><ele>464.0</ele><time>2026-04-04T07:18:02.118Z</time></trkpt><trkpt lat="43.7888328" lon="10.9855001"><ele>467.4</ele><time>2026-04-04T07:18:03.118Z</time></trkpt><trkpt lat="43.78887" lon="10.9853992"><ele>470.79999999999995</ele><time>2026-04-04T07:18:04.117Z</time></trkpt><trkpt lat="43.7889156" lon="10.9852946"><ele>474.20000000000005</ele><time>2026-04-04T07:18:05.117Z</time></trkpt><trkpt lat="43.7889629" lon="10.9851743"><ele>477.6</ele><time>2026-04-04T07:18:06.118Z</time></trkpt><trkpt lat="43.7890157" lon="10.9850537"><ele>481.0</ele><time>2026-04-04T07:18:07.118Z</time></trkpt><trkpt lat="43.7890692" lon="10.9849353"><ele>482.6</ele><time>2026-04-04T07:18:08.118Z</time></trkpt><trkpt lat="43.7891294" lon="10.9848139"><ele>484.20000000000005</ele><time>2026-04-04T07:18:09.118Z</time></trkpt><trkpt lat="43.7892009" lon="10.9846995"><ele>485.79999999999995</ele><time>2026-04-04T07:18:10.119Z</time></trkpt><trkpt lat="43.7892756" lon="10.9845973"><ele>487.4</ele><time>2026-04-04T07:18:11.118Z</time></trkpt><trkpt lat="43.7893553" lon="10.9844952"><ele>489.0</ele><time>2026-04-04T07:18:12.117Z</time></trkpt><trkpt lat="43.7894308" lon="10.9843907"><ele>489.0</ele><time>2026-04-04T07:18:13.117Z</time></trkpt><trkpt lat="43.7895076" lon="10.9842858"><ele>489.0</ele><time>2026-04-04T07:18:14.118Z</time></trkpt><trkpt lat="43.7895807" lon="10.9841773"><ele>489.0</ele><time>2026-04-04T07:18:15.118Z</time></trkpt><trkpt lat="43.7896425" lon="10.9840534"><ele>489.0</ele><time>2026-04-04T07:18:16.117Z</time></trkpt><trkpt lat="43.789714" lon="10.9839277"><ele>489.0</ele><time>2026-04-04T07:18:17.117Z</time></trkpt><trkpt lat="43.7897307" lon="10.9837795"><ele>492.4</ele><time>2026-04-04T07:18:18.118Z</time></trkpt><trkpt lat="43.7897853" lon="10.9836514"><ele>495.79999999999995</ele><time>2026-04-04T07:18:19.117Z</time></trkpt><trkpt lat="43.7898458" lon="10.9835396"><ele>499.20000000000005</ele><time>2026-04-04T07:18:20.117Z</time></trkpt><trkpt lat="43.789903" lon="10.9834233"><ele>502.6</ele><time>2026-04-04T07:18:21.117Z</time></trkpt><trkpt lat="43.7899955" lon="10.9834344"><ele>506.0</ele><time>2026-04-04T07:18:22.118Z</time></trkpt><trkpt lat="43.790066" lon="10.9833918"><ele>506.0</ele><time>2026-04-04T07:18:23.119Z</time></trkpt><trkpt lat="43.7901602" lon="10.9834169"><ele>506.0</ele><time>2026-04-04T07:18:24.118Z</time></trkpt><trkpt lat="43.790275" lon="10.9834729"><ele>506.0</ele><time>2026-04-04T07:18:25.117Z</time></trkpt><trkpt lat="43.7903651" lon="10.9834856"><ele>506.0</ele><time>2026-04-04T07:18:26.118Z</time></trkpt><trkpt lat="43.7904692" lon="10.9834745"><ele>506.0</ele><time>2026-04-04T07:18:27.117Z</time></trkpt><trkpt lat="43.7905578" lon="10.9834582"><ele>506.75</ele><time>2026-04-04T07:18:28.118Z</time></trkpt><trkpt lat="43.790628" lon="10.9833787"><ele>507.5</ele><time>2026-04-04T07:18:29.118Z</time></trkpt><trkpt lat="43.7907244" lon="10.9833059"><ele>508.25</ele><time>2026-04-04T07:18:30.118Z</time></trkpt><trkpt lat="43.7908137" lon="10.983216"><ele>509.0</ele><time>2026-04-04T07:18:31.118Z</time></trkpt><trkpt lat="43.7909419" lon="10.9831096"><ele>512.25</ele><time>2026-04-04T07:18:32.117Z</time></trkpt><trkpt lat="43.7910768" lon="10.9829969"><ele>515.5</ele><time>2026-04-04T07:18:33.117Z</time></trkpt><trkpt lat="43.7912108" lon="10.9828899"><ele>518.75</ele><time>2026-04-04T07:18:34.118Z</time></trkpt><trkpt lat="43.7913211" lon="10.9827883"><ele>522.0</ele><time>2026-04-04T07:18:35.118Z</time></trkpt><trkpt lat="43.7914319" lon="10.9826678"><ele>522.0</ele><time>2026-04-04T07:18:36.117Z</time></trkpt><trkpt lat="43.7915387" lon="10.9825766"><ele>522.0</ele><time>2026-04-04T07:18:37.117Z</time></trkpt><trkpt lat="43.7916438" lon="10.9824608"><ele>522.0</ele><time>2026-04-04T07:18:38.118Z</time></trkpt><trkpt lat="43.7917233" lon="10.9823491"><ele>522.0</ele><time>2026-04-04T07:18:39.118Z</time></trkpt><trkpt lat="43.7918199" lon="10.9822339"><ele>526.25</ele><time>2026-04-04T07:18:40.118Z</time></trkpt><trkpt lat="43.7919187" lon="10.982108"><ele>530.5</ele><time>2026-04-04T07:18:41.118Z</time></trkpt><trkpt lat="43.7920238" lon="10.9820089"><ele>534.75</ele><time>2026-04-04T07:18:42.118Z</time></trkpt><trkpt lat="43.7921203" lon="10.9819021"><ele>539.0</ele><time>2026-04-04T07:18:43.118Z</time></trkpt><trkpt lat="43.7921983" lon="10.9818"><ele>539.0</ele><time>2026-04-04T07:18:44.118Z</time></trkpt><trkpt lat="43.7922615" lon="10.9817005"><ele>539.0</ele><time>2026-04-04T07:18:45.118Z</time></trkpt><trkpt lat="43.7923247" lon="10.9816015"><ele>539.0</ele><time>2026-04-04T07:18:46.118Z</time></trkpt><trkpt lat="43.7923915" lon="10.9815097"><ele>539.0</ele><time>2026-04-04T07:18:47.118Z</time></trkpt><trkpt lat="43.7924618" lon="10.9813902"><ele>539.0</ele><time>2026-04-04T07:18:48.118Z</time></trkpt><trkpt lat="43.7925418" lon="10.9812757"><ele>535.25</ele><time>2026-04-04T07:18:49.118Z</time></trkpt><trkpt lat="43.7926338" lon="10.9811646"><ele>531.5</ele><time>2026-04-04T07:18:50.118Z</time></trkpt><trkpt lat="43.7927268" lon="10.9810684"><ele>527.75</ele><time>2026-04-04T07:18:51.119Z</time></trkpt><trkpt lat="43.7928309" lon="10.9809822"><ele>524.0</ele><time>2026-04-04T07:18:52.117Z</time></trkpt><trkpt lat="43.7929316" lon="10.9808953"><ele>531.0</ele><time>2026-04-04T07:18:53.117Z</time></trkpt><trkpt lat="43.7930316" lon="10.9808052"><ele>538.0</ele><time>2026-04-04T07:18:54.119Z</time></trkpt><trkpt lat="43.793148" lon="10.9807608"><ele>545.0</ele><time>2026-04-04T07:18:55.118Z</time></trkpt><trkpt lat="43.7932869" lon="10.9807305"><ele>552.0</ele><time>2026-04-04T07:18:56.118Z</time></trkpt><trkpt lat="43.7934062" lon="10.9806779"><ele>548.0</ele><time>2026-04-04T07:18:57.118Z</time></trkpt><trkpt lat="43.7935124" lon="10.9805931"><ele>544.0</ele><time>2026-04-04T07:18:58.118Z</time></trkpt><trkpt lat="43.7936273" lon="10.9805175"><ele>540.0</ele><time>2026-04-04T07:18:59.118Z</time></trkpt><trkpt lat="43.7937383" lon="10.9804351"><ele>536.0</ele><time>2026-04-04T07:19:00.117Z</time></trkpt><trkpt lat="43.7938447" lon="10.9803535"><ele>536.0</ele><time>2026-04-04T07:19:01.119Z</time></trkpt><trkpt lat="43.7939356" lon="10.9802747"><ele>536.0</ele><time>2026-04-04T07:19:02.117Z</time></trkpt><trkpt lat="43.7940014" lon="10.9802192"><ele>536.0</ele><time>2026-04-04T07:19:03.119Z</time></trkpt><trkpt lat="43.7940714" lon="10.9801581"><ele>536.0</ele><time>2026-04-04T07:19:04.118Z</time></trkpt><trkpt lat="43.7941423" lon="10.9800933"><ele>536.0</ele><time>2026-04-04T07:19:05.117Z</time></trkpt><trkpt lat="43.7942054" lon="10.980036"><ele>536.0</ele><time>2026-04-04T07:19:06.118Z</time></trkpt><trkpt lat="43.7942657" lon="10.9799818"><ele>538.0</ele><time>2026-04-04T07:19:07.118Z</time></trkpt><trkpt lat="43.7943413" lon="10.9799123"><ele>540.0</ele><time>2026-04-04T07:19:08.118Z</time></trkpt><trkpt lat="43.794415" lon="10.9798344"><ele>542.0</ele><time>2026-04-04T07:19:09.118Z</time></trkpt><trkpt lat="43.7945016" lon="10.9797504"><ele>544.0</ele><time>2026-04-04T07:19:10.117Z</time></trkpt><trkpt lat="43.7945823" lon="10.9796567"><ele>546.0</ele><time>2026-04-04T07:19:11.117Z</time></trkpt><trkpt lat="43.7946591" lon="10.9795682"><ele>546.0</ele><time>2026-04-04T07:19:12.117Z</time></trkpt><trkpt lat="43.7947438" lon="10.9794706"><ele>546.0</ele><time>2026-04-04T07:19:13.118Z</time></trkpt><trkpt lat="43.794825" lon="10.9793736"><ele>546.0</ele><time>2026-04-04T07:19:14.118Z</time></trkpt><trkpt lat="43.7949106" lon="10.9792827"><ele>546.0</ele><time>2026-04-04T07:19:15.118Z</time></trkpt><trkpt lat="43.7950011" lon="10.9791872"><ele>546.0</ele><time>2026-04-04T07:19:16.118Z</time></trkpt><trkpt lat="43.7950827" lon="10.9790955"><ele>545.8</ele><time>2026-04-04T07:19:17.118Z</time></trkpt><trkpt lat="43.7951613" lon="10.9790026"><ele>545.6</ele><time>2026-04-04T07:19:18.118Z</time></trkpt><trkpt lat="43.7952437" lon="10.9789079"><ele>545.4</ele><time>2026-04-04T07:19:19.118Z</time></trkpt><trkpt lat="43.7953317" lon="10.9788141"><ele>545.2</ele><time>2026-04-04T07:19:20.118Z</time></trkpt><trkpt lat="43.7954244" lon="10.9787249"><ele>545.0</ele><time>2026-04-04T07:19:21.118Z</time></trkpt><trkpt lat="43.7955228" lon="10.978635"><ele>545.2</ele><time>2026-04-04T07:19:22.117Z</time></trkpt><trkpt lat="43.7956245" lon="10.9785519"><ele>545.4</ele><time>2026-04-04T07:19:23.118Z</time></trkpt><trkpt lat="43.7957262" lon="10.9784775"><ele>545.6</ele><time>2026-04-04T07:19:24.118Z</time></trkpt><trkpt lat="43.7958254" lon="10.9784129"><ele>545.8</ele><time>2026-04-04T07:19:25.119Z</time></trkpt><trkpt lat="43.7959063" lon="10.9783609"><ele>546.0</ele><time>2026-04-04T07:19:26.118Z</time></trkpt><trkpt lat="43.7959842" lon="10.9783072"><ele>547.6666666666666</ele><time>2026-04-04T07:19:27.118Z</time></trkpt><trkpt lat="43.7960557" lon="10.9782566"><ele>549.3333333333334</ele><time>2026-04-04T07:19:28.118Z</time></trkpt><trkpt lat="43.7961242" lon="10.9782038"><ele>551.0</ele><time>2026-04-04T07:19:29.117Z</time></trkpt><trkpt lat="43.7961899" lon="10.9781504"><ele>552.6666666666667</ele><time>2026-04-04T07:19:30.118Z</time></trkpt><trkpt lat="43.796261" lon="10.9780894"><ele>554.3333333333334</ele><time>2026-04-04T07:19:31.117Z</time></trkpt><trkpt lat="43.7963471" lon="10.9780196"><ele>556.0</ele><time>2026-04-04T07:19:32.118Z</time></trkpt><trkpt lat="43.7964279" lon="10.9779519"><ele>556.0</ele><time>2026-04-04T07:19:33.118Z</time></trkpt><trkpt lat="43.7965117" lon="10.9778772"><ele>556.0</ele><time>2026-04-04T07:19:34.119Z</time></trkpt><trkpt lat="43.7966085" lon="10.9777935"><ele>556.0</ele><time>2026-04-04T07:19:35.118Z</time></trkpt><trkpt lat="43.7967042" lon="10.9777126"><ele>556.0</ele><time>2026-04-04T07:19:36.118Z</time></trkpt><trkpt lat="43.7968046" lon="10.9776308"><ele>556.0</ele><time>2026-04-04T07:19:37.118Z</time></trkpt><trkpt lat="43.7968915" lon="10.9775647"><ele>559.5</ele><time>2026-04-04T07:19:38.118Z</time></trkpt><trkpt lat="43.7969899" lon="10.9775016"><ele>563.0</ele><time>2026-04-04T07:19:39.118Z</time></trkpt><trkpt lat="43.7970818" lon="10.9774197"><ele>566.5</ele><time>2026-04-04T07:19:40.118Z</time></trkpt><trkpt lat="43.7971837" lon="10.9773337"><ele>570.0</ele><time>2026-04-04T07:19:41.118Z</time></trkpt><trkpt lat="43.7972906" lon="10.9772547"><ele>570.0</ele><time>2026-04-04T07:19:42.117Z</time></trkpt><trkpt lat="43.7973947" lon="10.9771772"><ele>570.0</ele><time>2026-04-04T07:19:43.118Z</time></trkpt><trkpt lat="43.7974965" lon="10.9771007"><ele>570.0</ele><time>2026-04-04T07:19:44.117Z</time></trkpt><trkpt lat="43.7975964" lon="10.9770337"><ele>570.0</ele><time>2026-04-04T07:19:45.118Z</time></trkpt><trkpt lat="43.7977067" lon="10.9769694"><ele>573.8</ele><time>2026-04-04T07:19:46.117Z</time></trkpt><trkpt lat="43.7978018" lon="10.9769045"><ele>577.6</ele><time>2026-04-04T07:19:47.117Z</time></trkpt><trkpt lat="43.7978946" lon="10.9768446"><ele>581.4</ele><time>2026-04-04T07:19:48.118Z</time></trkpt><trkpt lat="43.7979905" lon="10.9767928"><ele>585.2</ele><time>2026-04-04T07:19:49.118Z</time></trkpt><trkpt lat="43.7980828" lon="10.9766893"><ele>589.0</ele><time>2026-04-04T07:19:50.118Z</time></trkpt><trkpt lat="43.7981755" lon="10.9766157"><ele>589.0</ele><time>2026-04-04T07:19:51.117Z</time></trkpt><trkpt lat="43.7982618" lon="10.9765375"><ele>589.0</ele><time>2026-04-04T07:19:52.118Z</time></trkpt><trkpt lat="43.7983542" lon="10.9764637"><ele>589.0</ele><time>2026-04-04T07:19:53.117Z</time></trkpt><trkpt lat="43.7983936" lon="10.9763196"><ele>589.0</ele><time>2026-04-04T07:19:54.118Z</time></trkpt><trkpt lat="43.7984632" lon="10.9762242"><ele>589.0</ele><time>2026-04-04T07:19:55.118Z</time></trkpt><trkpt lat="43.7985369" lon="10.9761252"><ele>590.4</ele><time>2026-04-04T07:19:56.118Z</time></trkpt><trkpt lat="43.7986115" lon="10.9760312"><ele>591.8</ele><time>2026-04-04T07:19:57.117Z</time></trkpt><trkpt lat="43.7986855" lon="10.9759515"><ele>593.2</ele><time>2026-04-04T07:19:58.118Z</time></trkpt><trkpt lat="43.7987573" lon="10.9758878"><ele>594.6</ele><time>2026-04-04T07:19:59.117Z</time></trkpt><trkpt lat="43.7988339" lon="10.9758404"><ele>596.0</ele><time>2026-04-04T07:20:00.117Z</time></trkpt><trkpt lat="43.7989188" lon="10.9757842"><ele>596.6</ele><time>2026-04-04T07:20:01.118Z</time></trkpt><trkpt lat="43.7990017" lon="10.975724"><ele>597.2</ele><time>2026-04-04T07:20:02.118Z</time></trkpt><trkpt lat="43.7990826" lon="10.9756566"><ele>597.8</ele><time>2026-04-04T07:20:03.119Z</time></trkpt><trkpt lat="43.7991639" lon="10.9755933"><ele>598.4</ele><time>2026-04-04T07:20:04.118Z</time></trkpt><trkpt lat="43.7992717" lon="10.9755089"><ele>599.0</ele><time>2026-04-04T07:20:05.117Z</time></trkpt><trkpt lat="43.7993631" lon="10.9754259"><ele>599.2</ele><time>2026-04-04T07:20:06.118Z</time></trkpt><trkpt lat="43.7994564" lon="10.9753506"><ele>599.4</ele><time>2026-04-04T07:20:07.118Z</time></trkpt><trkpt lat="43.7995542" lon="10.9752787"><ele>599.6</ele><time>2026-04-04T07:20:08.118Z</time></trkpt><trkpt lat="43.7996525" lon="10.9752259"><ele>599.8</ele><time>2026-04-04T07:20:09.118Z</time></trkpt><trkpt lat="43.7997457" lon="10.9752"><ele>600.0</ele><time>2026-04-04T07:20:10.117Z</time></trkpt><trkpt lat="43.7998407" lon="10.9752094"><ele>600.0</ele><time>2026-04-04T07:20:11.117Z</time></trkpt><trkpt lat="43.7999316" lon="10.9752293"><ele>600.0</ele><time>2026-04-04T07:20:12.118Z</time></trkpt><trkpt lat="43.800029" lon="10.9752535"><ele>600.0</ele><time>2026-04-04T07:20:13.118Z</time></trkpt><trkpt lat="43.8001208" lon="10.9752663"><ele>600.0</ele><time>2026-04-04T07:20:14.118Z</time></trkpt><trkpt lat="43.8002166" lon="10.9752522"><ele>600.0</ele><time>2026-04-04T07:20:15.119Z</time></trkpt><trkpt lat="43.8003179" lon="10.9752295"><ele>600.0</ele><time>2026-04-04T07:20:16.118Z</time></trkpt><trkpt lat="43.8004239" lon="10.9751297"><ele>600.0</ele><time>2026-04-04T07:20:17.117Z</time></trkpt><trkpt lat="43.8005142" lon="10.9750281"><ele>600.0</ele><time>2026-04-04T07:20:18.117Z</time></trkpt><trkpt lat="43.8006019" lon="10.9749153"><ele>600.0</ele><time>2026-04-04T07:20:19.118Z</time></trkpt><trkpt lat="43.8006832" lon="10.9747777"><ele>600.0</ele><time>2026-04-04T07:20:20.118Z</time></trkpt><trkpt lat="43.8007798" lon="10.9746743"><ele>600.0</ele><time>2026-04-04T07:20:21.118Z</time></trkpt><trkpt lat="43.8008826" lon="10.9745644"><ele>600.0</ele><time>2026-04-04T07:20:22.118Z</time></trkpt><trkpt lat="43.8009943" lon="10.9744525"><ele>600.0</ele><time>2026-04-04T07:20:23.118Z</time></trkpt><trkpt lat="43.8010947" lon="10.9743472"><ele>598.25</ele><time>2026-04-04T07:20:24.118Z</time></trkpt><trkpt lat="43.8011983" lon="10.9742424"><ele>596.5</ele><time>2026-04-04T07:20:25.118Z</time></trkpt><trkpt lat="43.8013038" lon="10.9741232"><ele>594.75</ele><time>2026-04-04T07:20:26.117Z</time></trkpt><trkpt lat="43.8014089" lon="10.9740017"><ele>593.0</ele><time>2026-04-04T07:20:27.118Z</time></trkpt><trkpt lat="43.8015107" lon="10.9738944"><ele>593.0</ele><time>2026-04-04T07:20:28.118Z</time></trkpt><trkpt lat="43.8016172" lon="10.9737945"><ele>593.0</ele><time>2026-04-04T07:20:29.118Z</time></trkpt><trkpt lat="43.8017262" lon="10.9737037"><ele>593.0</ele><time>2026-04-04T07:20:30.117Z</time></trkpt><trkpt lat="43.8018361" lon="10.9736105"><ele>593.0</ele><time>2026-04-04T07:20:31.119Z</time></trkpt><trkpt lat="43.8019468" lon="10.9735108"><ele>591.75</ele><time>2026-04-04T07:20:32.118Z</time></trkpt><trkpt lat="43.8020518" lon="10.973402"><ele>590.5</ele><time>2026-04-04T07:20:33.117Z</time></trkpt><trkpt lat="43.8021528" lon="10.9732921"><ele>589.25</ele><time>2026-04-04T07:20:34.118Z</time></trkpt><trkpt lat="43.8022452" lon="10.9731936"><ele>588.0</ele><time>2026-04-04T07:20:35.118Z</time></trkpt><trkpt lat="43.8023392" lon="10.9730913"><ele>589.0</ele><time>2026-04-04T07:20:36.117Z</time></trkpt><trkpt lat="43.8024235" lon="10.9729851"><ele>590.0</ele><time>2026-04-04T07:20:37.118Z</time></trkpt><trkpt lat="43.8025014" lon="10.9728725"><ele>591.0</ele><time>2026-04-04T07:20:38.117Z</time></trkpt><trkpt lat="43.8025763" lon="10.9727673"><ele>592.0</ele><time>2026-04-04T07:20:39.118Z</time></trkpt><trkpt lat="43.8026362" lon="10.9726581"><ele>593.0</ele><time>2026-04-04T07:20:40.118Z</time></trkpt><trkpt lat="43.8027009" lon="10.9725152"><ele>593.0</ele><time>2026-04-04T07:20:41.118Z</time></trkpt><trkpt lat="43.8027514" lon="10.9723884"><ele>593.0</ele><time>2026-04-04T07:20:42.118Z</time></trkpt><trkpt lat="43.8028018" lon="10.9722526"><ele>593.0</ele><time>2026-04-04T07:20:43.117Z</time></trkpt><trkpt lat="43.802858" lon="10.9720883"><ele>593.0</ele><time>2026-04-04T07:20:44.118Z</time></trkpt><trkpt lat="43.8029215" lon="10.9719284"><ele>593.0</ele><time>2026-04-04T07:20:45.118Z</time></trkpt><trkpt lat="43.8029835" lon="10.9717812"><ele>593.0</ele><time>2026-04-04T07:20:46.118Z</time></trkpt><trkpt lat="43.8030308" lon="10.9716191"><ele>593.0</ele><time>2026-04-04T07:20:47.118Z</time></trkpt><trkpt lat="43.8030778" lon="10.971501"><ele>593.0</ele><time>2026-04-04T07:20:48.117Z</time></trkpt><trkpt lat="43.8031122" lon="10.9713596"><ele>596.25</ele><time>2026-04-04T07:20:49.117Z</time></trkpt><trkpt lat="43.803161" lon="10.9712046"><ele>599.5</ele><time>2026-04-04T07:20:50.117Z</time></trkpt><trkpt lat="43.8031974" lon="10.9710376"><ele>602.75</ele><time>2026-04-04T07:20:51.118Z</time></trkpt><trkpt lat="43.8032351" lon="10.9708883"><ele>606.0</ele><time>2026-04-04T07:20:52.119Z</time></trkpt><trkpt lat="43.8032784" lon="10.9707398"><ele>607.75</ele><time>2026-04-04T07:20:53.117Z</time></trkpt><trkpt lat="43.8033709" lon="10.9705978"><ele>609.5</ele><time>2026-04-04T07:20:54.118Z</time></trkpt><trkpt lat="43.803454" lon="10.970456"><ele>611.25</ele><time>2026-04-04T07:20:55.117Z</time></trkpt><trkpt lat="43.803537" lon="10.9702974"><ele>613.0</ele><time>2026-04-04T07:20:56.117Z</time></trkpt><trkpt lat="43.8036148" lon="10.9701232"><ele>610.3333333333334</ele><time>2026-04-04T07:20:57.118Z</time></trkpt><trkpt lat="43.8037024" lon="10.9699262"><ele>607.6666666666666</ele><time>2026-04-04T07:20:58.118Z</time></trkpt><trkpt lat="43.8037738" lon="10.969748"><ele>605.0</ele><time>2026-04-04T07:20:59.118Z</time></trkpt><trkpt lat="43.8038466" lon="10.969589"><ele>605.0</ele><time>2026-04-04T07:21:00.118Z</time></trkpt><trkpt lat="43.8039145" lon="10.9694659"><ele>605.0</ele><time>2026-04-04T07:21:01.117Z</time></trkpt><trkpt lat="43.8040076" lon="10.9693242"><ele>605.0</ele><time>2026-04-04T07:21:02.118Z</time></trkpt><trkpt lat="43.8041126" lon="10.9692092"><ele>605.0</ele><time>2026-04-04T07:21:03.118Z</time></trkpt><trkpt lat="43.804222" lon="10.9691121"><ele>604.0</ele><time>2026-04-04T07:21:04.118Z</time></trkpt><trkpt lat="43.8043373" lon="10.9690272"><ele>603.0</ele><time>2026-04-04T07:21:05.118Z</time></trkpt><trkpt lat="43.8044372" lon="10.9689371"><ele>602.0</ele><time>2026-04-04T07:21:06.118Z</time></trkpt><trkpt lat="43.8045299" lon="10.9688464"><ele>601.0</ele><time>2026-04-04T07:21:07.119Z</time></trkpt><trkpt lat="43.8046176" lon="10.9687475"><ele>601.0</ele><time>2026-04-04T07:21:08.118Z</time></trkpt><trkpt lat="43.8047182" lon="10.9686483"><ele>601.0</ele><time>2026-04-04T07:21:09.118Z</time></trkpt><trkpt lat="43.8048281" lon="10.9685584"><ele>601.0</ele><time>2026-04-04T07:21:10.118Z</time></trkpt><trkpt lat="43.8049744" lon="10.9684821"><ele>601.0</ele><time>2026-04-04T07:21:11.117Z</time></trkpt><trkpt lat="43.805106" lon="10.9684169"><ele>603.25</ele><time>2026-04-04T07:21:12.118Z</time></trkpt><trkpt lat="43.805227" lon="10.9683336"><ele>605.5</ele><time>2026-04-04T07:21:13.118Z</time></trkpt><trkpt lat="43.8053635" lon="10.9682382"><ele>607.75</ele><time>2026-04-04T07:21:14.117Z</time></trkpt><trkpt lat="43.8054967" lon="10.9681645"><ele>610.0</ele><time>2026-04-04T07:21:15.119Z</time></trkpt><trkpt lat="43.8056305" lon="10.9681213"><ele>610.0</ele><time>2026-04-04T07:21:16.119Z</time></trkpt><trkpt lat="43.8057569" lon="10.9680718"><ele>610.0</ele><time>2026-04-04T07:21:17.118Z</time></trkpt><trkpt lat="43.8058765" lon="10.9680248"><ele>610.0</ele><time>2026-04-04T07:21:18.118Z</time></trkpt><trkpt lat="43.8059644" lon="10.9679963"><ele>610.0</ele><time>2026-04-04T07:21:19.118Z</time></trkpt><trkpt lat="43.8060562" lon="10.9678851"><ele>607.0</ele><time>2026-04-04T07:21:21.118Z</time></trkpt><trkpt lat="43.8061362" lon="10.9678335"><ele>604.0</ele><time>2026-04-04T07:21:23.118Z</time></trkpt><trkpt lat="43.8061959" lon="10.9678033"><ele>601.0</ele><time>2026-04-04T07:21:25.118Z</time></trkpt><trkpt lat="43.8063005" lon="10.9677506"><ele>598.0</ele><time>2026-04-04T07:21:31.118Z</time></trkpt><trkpt lat="43.8064133" lon="10.9677151"><ele>595.0</ele><time>2026-04-04T07:21:33.118Z</time></trkpt><trkpt lat="43.806495" lon="10.9676877"><ele>595.0</ele><time>2026-04-04T07:21:34.118Z</time></trkpt><trkpt lat="43.8065863" lon="10.9676582"><ele>595.0</ele><time>2026-04-04T07:21:35.118Z</time></trkpt><trkpt lat="43.8066684" lon="10.9676582"><ele>595.0</ele><time>2026-04-04T07:21:36.118Z</time></trkpt><trkpt lat="43.8067591" lon="10.9676515"><ele>595.0</ele><time>2026-04-04T07:21:37.117Z</time></trkpt><trkpt lat="43.806869" lon="10.9676647"><ele>595.0</ele><time>2026-04-04T07:21:39.118Z</time></trkpt><trkpt lat="43.806939" lon="10.9676689"><ele>595.0</ele><time>2026-04-04T07:21:40.118Z</time></trkpt><trkpt lat="43.8070666" lon="10.9676701"><ele>590.6</ele><time>2026-04-04T07:21:42.118Z</time></trkpt><trkpt lat="43.8071813" lon="10.9676783"><ele>586.2</ele><time>2026-04-04T07:21:43.117Z</time></trkpt><trkpt lat="43.8072728" lon="10.9676961"><ele>581.8</ele><time>2026-04-04T07:21:44.118Z</time></trkpt><trkpt lat="43.8073834" lon="10.9677153"><ele>577.4</ele><time>2026-04-04T07:21:45.117Z</time></trkpt><trkpt lat="43.8074799" lon="10.9677427"><ele>573.0</ele><time>2026-04-04T07:21:46.118Z</time></trkpt><trkpt lat="43.8075807" lon="10.9677643"><ele>574.3333333333334</ele><time>2026-04-04T07:21:47.118Z</time></trkpt><trkpt lat="43.8076606" lon="10.9677814"><ele>575.6666666666666</ele><time>2026-04-04T07:21:48.119Z</time></trkpt><trkpt lat="43.8077462" lon="10.9678105"><ele>577.0</ele><time>2026-04-04T07:21:49.118Z</time></trkpt><trkpt lat="43.8078351" lon="10.9678417"><ele>578.3333333333333</ele><time>2026-04-04T07:21:50.118Z</time></trkpt><trkpt lat="43.8079253" lon="10.9678784"><ele>579.6666666666666</ele><time>2026-04-04T07:21:51.118Z</time></trkpt><trkpt lat="43.8080138" lon="10.9679175"><ele>581.0</ele><time>2026-04-04T07:21:52.118Z</time></trkpt><trkpt lat="43.808133" lon="10.9679755"><ele>581.0</ele><time>2026-04-04T07:21:53.118Z</time></trkpt><trkpt lat="43.808236" lon="10.9680162"><ele>581.0</ele><time>2026-04-04T07:21:54.117Z</time></trkpt><trkpt lat="43.8083301" lon="10.9680465"><ele>581.0</ele><time>2026-04-04T07:21:55.117Z</time></trkpt><trkpt lat="43.808409" lon="10.9680591"><ele>581.0</ele><time>2026-04-04T07:21:56.117Z</time></trkpt><trkpt lat="43.8084937" lon="10.9680632"><ele>581.0</ele><time>2026-04-04T07:21:57.117Z</time></trkpt><trkpt lat="43.8085929" lon="10.9680744"><ele>581.2</ele><time>2026-04-04T07:21:58.117Z</time></trkpt><trkpt lat="43.8086844" lon="10.9680922"><ele>581.4000000000001</ele><time>2026-04-04T07:21:59.118Z</time></trkpt><trkpt lat="43.8087704" lon="10.9681241"><ele>581.6</ele><time>2026-04-04T07:22:00.117Z</time></trkpt><trkpt lat="43.8088754" lon="10.968138"><ele>581.8000000000001</ele><time>2026-04-04T07:22:01.117Z</time></trkpt><trkpt lat="43.8089647" lon="10.9681836"><ele>582.0</ele><time>2026-04-04T07:22:02.118Z</time></trkpt><trkpt lat="43.8090436" lon="10.9682401"><ele>582.0</ele><time>2026-04-04T07:22:03.118Z</time></trkpt><trkpt lat="43.8091183" lon="10.9682482"><ele>582.0</ele><time>2026-04-04T07:22:04.118Z</time></trkpt><trkpt lat="43.8091963" lon="10.9682851"><ele>582.0</ele><time>2026-04-04T07:22:05.118Z</time></trkpt><trkpt lat="43.8092666" lon="10.9682586"><ele>582.0</ele><time>2026-04-04T07:22:06.118Z</time></trkpt><trkpt lat="43.8093429" lon="10.9682811"><ele>582.0</ele><time>2026-04-04T07:22:07.118Z</time></trkpt><trkpt lat="43.8094153" lon="10.9683156"><ele>582.0</ele><time>2026-04-04T07:22:08.118Z</time></trkpt><trkpt lat="43.8095012" lon="10.9684138"><ele>577.0</ele><time>2026-04-04T07:22:09.118Z</time></trkpt><trkpt lat="43.8095334" lon="10.9685127"><ele>572.0</ele><time>2026-04-04T07:22:10.118Z</time></trkpt><trkpt lat="43.8095822" lon="10.9686028"><ele>567.0</ele><time>2026-04-04T07:22:11.118Z</time></trkpt><trkpt lat="43.8096327" lon="10.9686965"><ele>562.0</ele><time>2026-04-04T07:22:12.118Z</time></trkpt><trkpt lat="43.8096769" lon="10.9687706"><ele>557.0</ele><time>2026-04-04T07:22:13.118Z</time></trkpt><trkpt lat="43.8097867" lon="10.9687587"><ele>552.0</ele><time>2026-04-04T07:22:15.118Z</time></trkpt><trkpt lat="43.8098525" lon="10.9687709"><ele>552.0</ele><time>2026-04-04T07:22:16.117Z</time></trkpt><trkpt lat="43.8099428" lon="10.9687965"><ele>552.0</ele><time>2026-04-04T07:22:17.118Z</time></trkpt><trkpt lat="43.8100155" lon="10.9688201"><ele>552.0</ele><time>2026-04-04T07:22:18.117Z</time></trkpt><trkpt lat="43.8100936" lon="10.9688335"><ele>552.0</ele><time>2026-04-04T07:22:19.117Z</time></trkpt><trkpt lat="43.8101726" lon="10.9688367"><ele>552.0</ele><time>2026-04-04T07:22:20.117Z</time></trkpt><trkpt lat="43.8102519" lon="10.9687962"><ele>552.0</ele><time>2026-04-04T07:22:21.118Z</time></trkpt><trkpt lat="43.8103192" lon="10.9686504"><ele>550.4</ele><time>2026-04-04T07:22:22.117Z</time></trkpt><trkpt lat="43.8103687" lon="10.9685765"><ele>548.8000000000001</ele><time>2026-04-04T07:22:23.118Z</time></trkpt><trkpt lat="43.8104187" lon="10.9684935"><ele>547.2</ele><time>2026-04-04T07:22:24.118Z</time></trkpt><trkpt lat="43.8104816" lon="10.9683881"><ele>545.6</ele><time>2026-04-04T07:22:25.117Z</time></trkpt><trkpt lat="43.8105244" lon="10.9682525"><ele>544.0</ele><time>2026-04-04T07:22:26.117Z</time></trkpt><trkpt lat="43.8106087" lon="10.9681227"><ele>544.0</ele><time>2026-04-04T07:22:27.117Z</time></trkpt><trkpt lat="43.8106801" lon="10.9680274"><ele>544.0</ele><time>2026-04-04T07:22:28.119Z</time></trkpt><trkpt lat="43.8107693" lon="10.9679566"><ele>544.0</ele><time>2026-04-04T07:22:29.117Z</time></trkpt><trkpt lat="43.8108678" lon="10.9678888"><ele>544.0</ele><time>2026-04-04T07:22:30.119Z</time></trkpt><trkpt lat="43.8109529" lon="10.9678449"><ele>544.0</ele><time>2026-04-04T07:22:31.118Z</time></trkpt><trkpt lat="43.8110167" lon="10.9677863"><ele>539.8</ele><time>2026-04-04T07:22:32.118Z</time></trkpt><trkpt lat="43.8110282" lon="10.9676891"><ele>535.5999999999999</ele><time>2026-04-04T07:22:33.119Z</time></trkpt><trkpt lat="43.8110691" lon="10.9675822"><ele>531.4</ele><time>2026-04-04T07:22:34.117Z</time></trkpt><trkpt lat="43.8111086" lon="10.9674663"><ele>527.1999999999999</ele><time>2026-04-04T07:22:35.118Z</time></trkpt><trkpt lat="43.8111418" lon="10.9673426"><ele>523.0</ele><time>2026-04-04T07:22:36.119Z</time></trkpt><trkpt lat="43.81115" lon="10.9671926"><ele>523.0</ele><time>2026-04-04T07:22:37.118Z</time></trkpt><trkpt lat="43.8111816" lon="10.9669769"><ele>523.0</ele><time>2026-04-04T07:22:38.119Z</time></trkpt><trkpt lat="43.8112074" lon="10.9667864"><ele>523.0</ele><time>2026-04-04T07:22:39.117Z</time></trkpt><trkpt lat="43.8112445" lon="10.9665989"><ele>523.0</ele><time>2026-04-04T07:22:40.117Z</time></trkpt><trkpt lat="43.8112819" lon="10.9664399"><ele>525.8</ele><time>2026-04-04T07:22:41.118Z</time></trkpt><trkpt lat="43.8113194" lon="10.9663213"><ele>528.5999999999999</ele><time>2026-04-04T07:22:42.117Z</time></trkpt><trkpt lat="43.8113746" lon="10.9662114"><ele>531.4000000000001</ele><time>2026-04-04T07:22:43.118Z</time></trkpt><trkpt lat="43.8114477" lon="10.9660987"><ele>534.2</ele><time>2026-04-04T07:22:44.118Z</time></trkpt><trkpt lat="43.811508" lon="10.9659961"><ele>537.0</ele><time>2026-04-04T07:22:45.118Z</time></trkpt><trkpt lat="43.8115989" lon="10.9658804"><ele>536.3333333333334</ele><time>2026-04-04T07:22:46.118Z</time></trkpt><trkpt lat="43.8116677" lon="10.9657828"><ele>535.6666666666666</ele><time>2026-04-04T07:22:47.117Z</time></trkpt><trkpt lat="43.8117353" lon="10.965709"><ele>535.0</ele><time>2026-04-04T07:22:48.118Z</time></trkpt><trkpt lat="43.8117986" lon="10.9656352"><ele>534.3333333333333</ele><time>2026-04-04T07:22:49.117Z</time></trkpt><trkpt lat="43.8118598" lon="10.9655605"><ele>533.6666666666666</ele><time>2026-04-04T07:22:50.117Z</time></trkpt><trkpt lat="43.8119266" lon="10.9654671"><ele>533.0</ele><time>2026-04-04T07:22:51.118Z</time></trkpt><trkpt lat="43.81199" lon="10.9653763"><ele>533.0</ele><time>2026-04-04T07:22:52.118Z</time></trkpt><trkpt lat="43.8120541" lon="10.965295"><ele>533.0</ele><time>2026-04-04T07:22:53.119Z</time></trkpt><trkpt lat="43.8121293" lon="10.9652057"><ele>533.0</ele><time>2026-04-04T07:22:54.117Z</time></trkpt><trkpt lat="43.8122035" lon="10.9651262"><ele>533.0</ele><time>2026-04-04T07:22:55.118Z</time></trkpt><trkpt lat="43.8122828" lon="10.9650454"><ele>533.0</ele><time>2026-04-04T07:22:56.118Z</time></trkpt><trkpt lat="43.8123531" lon="10.9649704"><ele>533.0</ele><time>2026-04-04T07:22:57.118Z</time></trkpt><trkpt lat="43.8124108" lon="10.9648962"><ele>533.0</ele><time>2026-04-04T07:22:58.118Z</time></trkpt><trkpt lat="43.8124535" lon="10.9648256"><ele>533.0</ele><time>2026-04-04T07:22:59.118Z</time></trkpt><trkpt lat="43.81248" lon="10.964736"><ele>533.0</ele><time>2026-04-04T07:23:00.118Z</time></trkpt><trkpt lat="43.8124987" lon="10.964629"><ele>533.0</ele><time>2026-04-04T07:23:01.118Z</time></trkpt><trkpt lat="43.812519" lon="10.9645215"><ele>533.0</ele><time>2026-04-04T07:23:02.118Z</time></trkpt><trkpt lat="43.8125408" lon="10.9644013"><ele>533.0</ele><time>2026-04-04T07:23:03.118Z</time></trkpt><trkpt lat="43.8125384" lon="10.964279"><ele>533.0</ele><time>2026-04-04T07:23:04.117Z</time></trkpt><trkpt lat="43.8125424" lon="10.9641669"><ele>533.0</ele><time>2026-04-04T07:23:05.117Z</time></trkpt><trkpt lat="43.8125257" lon="10.9640401"><ele>533.0</ele><time>2026-04-04T07:23:06.118Z</time></trkpt><trkpt lat="43.8125051" lon="10.9639287"><ele>533.0</ele><time>2026-04-04T07:23:07.118Z</time></trkpt><trkpt lat="43.8125116" lon="10.9638369"><ele>533.0</ele><time>2026-04-04T07:23:08.119Z</time></trkpt><trkpt lat="43.812544" lon="10.9637191"><ele>533.0</ele><time>2026-04-04T07:23:10.118Z</time></trkpt><trkpt lat="43.8125986" lon="10.9636687"><ele>533.0</ele><time>2026-04-04T07:23:11.118Z</time></trkpt><trkpt lat="43.812676" lon="10.9636267"><ele>533.0</ele><time>2026-04-04T07:23:12.118Z</time></trkpt><trkpt lat="43.8127625" lon="10.9635707"><ele>533.0</ele><time>2026-04-04T07:23:13.118Z</time></trkpt><trkpt lat="43.8128299" lon="10.9634997"><ele>533.0</ele><time>2026-04-04T07:23:14.117Z</time></trkpt><trkpt lat="43.8128779" lon="10.9634357"><ele>533.0</ele><time>2026-04-04T07:23:15.118Z</time></trkpt><trkpt lat="43.8129242" lon="10.9633375"><ele>533.0</ele><time>2026-04-04T07:23:17.119Z</time></trkpt><trkpt lat="43.8129576" lon="10.9632447"><ele>533.0</ele><time>2026-04-04T07:23:19.117Z</time></trkpt><trkpt lat="43.8129905" lon="10.9631397"><ele>533.0</ele><time>2026-04-04T07:24:01.118Z</time></trkpt><trkpt lat="43.8130038" lon="10.9630015"><ele>533.0</ele><time>2026-04-04T07:24:03.118Z</time></trkpt><trkpt lat="43.8130474" lon="10.9628808"><ele>533.0</ele><time>2026-04-04T07:24:04.118Z</time></trkpt><trkpt lat="43.8130764" lon="10.962792"><ele>533.0</ele><time>2026-04-04T07:24:05.118Z</time></trkpt><trkpt lat="43.8131273" lon="10.9626898"><ele>533.0</ele><time>2026-04-04T07:24:06.118Z</time></trkpt><trkpt lat="43.8132068" lon="10.9626012"><ele>533.0</ele><time>2026-04-04T07:24:07.117Z</time></trkpt><trkpt lat="43.8132766" lon="10.9625342"><ele>533.0</ele><time>2026-04-04T07:24:08.118Z</time></trkpt><trkpt lat="43.8133575" lon="10.9625063"><ele>533.0</ele><time>2026-04-04T07:24:09.117Z</time></trkpt><trkpt lat="43.8135013" lon="10.9624523"><ele>533.0</ele><time>2026-04-04T07:24:10.117Z</time></trkpt><trkpt lat="43.8136164" lon="10.962382"><ele>533.4</ele><time>2026-04-04T07:24:11.118Z</time></trkpt><trkpt lat="43.8137289" lon="10.9623236"><ele>533.8</ele><time>2026-04-04T07:24:12.118Z</time></trkpt><trkpt lat="43.8138319" lon="10.9622955"><ele>534.2</ele><time>2026-04-04T07:24:13.118Z</time></trkpt><trkpt lat="43.8139226" lon="10.9622489"><ele>534.6</ele><time>2026-04-04T07:24:14.118Z</time></trkpt><trkpt lat="43.8139903" lon="10.9621963"><ele>535.0</ele><time>2026-04-04T07:24:15.118Z</time></trkpt><trkpt lat="43.8140548" lon="10.9621289"><ele>535.0</ele><time>2026-04-04T07:24:16.118Z</time></trkpt><trkpt lat="43.8141102" lon="10.9620546"><ele>535.0</ele><time>2026-04-04T07:24:17.117Z</time></trkpt><trkpt lat="43.8141419" lon="10.9619643"><ele>535.0</ele><time>2026-04-04T07:24:18.118Z</time></trkpt><trkpt lat="43.8141813" lon="10.9618695"><ele>535.0</ele><time>2026-04-04T07:24:19.117Z</time></trkpt><trkpt lat="43.814238" lon="10.961781"><ele>535.0</ele><time>2026-04-04T07:24:20.117Z</time></trkpt><trkpt lat="43.8143079" lon="10.9616684"><ele>535.0</ele><time>2026-04-04T07:24:21.118Z</time></trkpt><trkpt lat="43.8143802" lon="10.9615539"><ele>533.0</ele><time>2026-04-04T07:24:22.118Z</time></trkpt><trkpt lat="43.8144589" lon="10.9614646"><ele>531.0</ele><time>2026-04-04T07:24:23.117Z</time></trkpt><trkpt lat="43.8145346" lon="10.9613803"><ele>529.0</ele><time>2026-04-04T07:24:24.117Z</time></trkpt><trkpt lat="43.814612" lon="10.9613032"><ele>527.0</ele><time>2026-04-04T07:24:25.118Z</time></trkpt><trkpt lat="43.8147155" lon="10.9612584"><ele>525.0</ele><time>2026-04-04T07:24:26.117Z</time></trkpt><trkpt lat="43.8148079" lon="10.9611884"><ele>525.0</ele><time>2026-04-04T07:24:27.118Z</time></trkpt><trkpt lat="43.8149104" lon="10.9610913"><ele>525.0</ele><time>2026-04-04T07:24:28.118Z</time></trkpt><trkpt lat="43.8150166" lon="10.9609927"><ele>525.0</ele><time>2026-04-04T07:24:29.117Z</time></trkpt><trkpt lat="43.8151185" lon="10.9608957"><ele>525.0</ele><time>2026-04-04T07:24:30.118Z</time></trkpt><trkpt lat="43.8151795" lon="10.9608629"><ele>525.0</ele><time>2026-04-04T07:24:31.118Z</time></trkpt><trkpt lat="43.8152557" lon="10.9607982"><ele>525.6</ele><time>2026-04-04T07:24:32.118Z</time></trkpt><trkpt lat="43.815351" lon="10.9607319"><ele>526.2</ele><time>2026-04-04T07:24:33.118Z</time></trkpt><trkpt lat="43.8154297" lon="10.9606864"><ele>526.8</ele><time>2026-04-04T07:24:34.117Z</time></trkpt><trkpt lat="43.8155114" lon="10.960614"><ele>527.4</ele><time>2026-04-04T07:24:35.117Z</time></trkpt><trkpt lat="43.8155626" lon="10.9605058"><ele>528.0</ele><time>2026-04-04T07:24:36.119Z</time></trkpt><trkpt lat="43.8156378" lon="10.9604188"><ele>528.0</ele><time>2026-04-04T07:24:37.118Z</time></trkpt><trkpt lat="43.8157267" lon="10.9602836"><ele>528.0</ele><time>2026-04-04T07:24:38.118Z</time></trkpt><trkpt lat="43.815805" lon="10.9601714"><ele>528.0</ele><time>2026-04-04T07:24:39.117Z</time></trkpt><trkpt lat="43.8158624" lon="10.9600722"><ele>528.0</ele><time>2026-04-04T07:24:40.118Z</time></trkpt><trkpt lat="43.8159407" lon="10.9599514"><ele>531.0</ele><time>2026-04-04T07:24:41.118Z</time></trkpt><trkpt lat="43.8160095" lon="10.9598248"><ele>534.0</ele><time>2026-04-04T07:24:42.117Z</time></trkpt><trkpt lat="43.8160403" lon="10.9596346"><ele>537.0</ele><time>2026-04-04T07:24:43.118Z</time></trkpt><trkpt lat="43.8160208" lon="10.9594731"><ele>540.0</ele><time>2026-04-04T07:24:44.118Z</time></trkpt><trkpt lat="43.8160545" lon="10.9593216"><ele>539.2</ele><time>2026-04-04T07:24:45.117Z</time></trkpt><trkpt lat="43.8160976" lon="10.9591626"><ele>538.4</ele><time>2026-04-04T07:24:46.118Z</time></trkpt><trkpt lat="43.8161463" lon="10.9590388"><ele>537.6</ele><time>2026-04-04T07:24:47.117Z</time></trkpt><trkpt lat="43.8161852" lon="10.9589097"><ele>536.8</ele><time>2026-04-04T07:24:48.118Z</time></trkpt><trkpt lat="43.8162522" lon="10.958795"><ele>536.0</ele><time>2026-04-04T07:24:50.118Z</time></trkpt><trkpt lat="43.8163002" lon="10.9587169"><ele>536.0</ele><time>2026-04-04T07:24:52.117Z</time></trkpt><trkpt lat="43.8163553" lon="10.958628"><ele>536.0</ele><time>2026-04-04T07:24:54.118Z</time></trkpt><trkpt lat="43.8164404" lon="10.9585284"><ele>536.0</ele><time>2026-04-04T07:24:56.117Z</time></trkpt><trkpt lat="43.816496" lon="10.9584716"><ele>536.0</ele><time>2026-04-04T07:24:57.117Z</time></trkpt><trkpt lat="43.8165603" lon="10.9584279"><ele>536.0</ele><time>2026-04-04T07:24:58.117Z</time></trkpt><trkpt lat="43.8166238" lon="10.9583946"><ele>536.0</ele><time>2026-04-04T07:24:59.117Z</time></trkpt><trkpt lat="43.8167004" lon="10.9583723"><ele>536.0</ele><time>2026-04-04T07:25:00.118Z</time></trkpt><trkpt lat="43.8167766" lon="10.9583806"><ele>536.0</ele><time>2026-04-04T07:25:01.118Z</time></trkpt><trkpt lat="43.8168487" lon="10.9583748"><ele>536.0</ele><time>2026-04-04T07:25:02.119Z</time></trkpt><trkpt lat="43.816921" lon="10.9583903"><ele>536.0</ele><time>2026-04-04T07:25:03.118Z</time></trkpt><trkpt lat="43.8170048" lon="10.9583674"><ele>536.0</ele><time>2026-04-04T07:25:04.118Z</time></trkpt><trkpt lat="43.8170825" lon="10.9583668"><ele>536.0</ele><time>2026-04-04T07:25:05.118Z</time></trkpt><trkpt lat="43.8171556" lon="10.9583611"><ele>530.3333333333333</ele><time>2026-04-04T07:25:06.118Z</time></trkpt><trkpt lat="43.8172315" lon="10.9583542"><ele>524.6666666666666</ele><time>2026-04-04T07:25:07.118Z</time></trkpt><trkpt lat="43.8173627" lon="10.9583393"><ele>519.0</ele><time>2026-04-04T07:25:09.118Z</time></trkpt><trkpt lat="43.8174309" lon="10.958342"><ele>513.3333333333334</ele><time>2026-04-04T07:25:10.118Z</time></trkpt><trkpt lat="43.8175025" lon="10.9583546"><ele>507.6666666666667</ele><time>2026-04-04T07:25:11.118Z</time></trkpt><trkpt lat="43.8175717" lon="10.9583551"><ele>502.0</ele><time>2026-04-04T07:25:12.118Z</time></trkpt><trkpt lat="43.8176557" lon="10.9583389"><ele>500.6666666666667</ele><time>2026-04-04T07:25:13.117Z</time></trkpt><trkpt lat="43.8177849" lon="10.958308"><ele>499.33333333333337</ele><time>2026-04-04T07:25:15.118Z</time></trkpt><trkpt lat="43.81786" lon="10.958269"><ele>498.0</ele><time>2026-04-04T07:25:16.118Z</time></trkpt><trkpt lat="43.8195781" lon="10.9562274"><ele>494.4</ele><time>2026-04-04T07:25:40.038Z</time></trkpt><trkpt lat="43.8196443" lon="10.9560934"><ele>490.79999999999995</ele><time>2026-04-04T07:25:41.444Z</time></trkpt><trkpt lat="43.8196681" lon="10.9559612"><ele>487.2</ele><time>2026-04-04T07:25:42.443Z</time></trkpt><trkpt lat="43.8196855" lon="10.9558227"><ele>483.6</ele><time>2026-04-04T07:25:43.444Z</time></trkpt><trkpt lat="43.8196825" lon="10.9557303"><ele>480.0</ele><time>2026-04-04T07:25:44.444Z</time></trkpt><trkpt lat="43.8196861" lon="10.9555008"><ele>479.0</ele><time>2026-04-04T07:25:46.117Z</time></trkpt><trkpt lat="43.819693" lon="10.9553831"><ele>478.0</ele><time>2026-04-04T07:25:47.118Z</time></trkpt><trkpt lat="43.8196679" lon="10.9552929"><ele>477.0</ele><time>2026-04-04T07:25:48.118Z</time></trkpt><trkpt lat="43.8196478" lon="10.9551956"><ele>476.0</ele><time>2026-04-04T07:25:49.118Z</time></trkpt><trkpt lat="43.8196236" lon="10.9551034"><ele>475.0</ele><time>2026-04-04T07:25:50.118Z</time></trkpt><trkpt lat="43.8196022" lon="10.9550003"><ele>474.0</ele><time>2026-04-04T07:25:51.118Z</time></trkpt><trkpt lat="43.8196159" lon="10.9548918"><ele>472.4</ele><time>2026-04-04T07:25:52.118Z</time></trkpt><trkpt lat="43.819633" lon="10.954782"><ele>470.79999999999995</ele><time>2026-04-04T07:25:53.117Z</time></trkpt><trkpt lat="43.8197182" lon="10.9547265"><ele>469.20000000000005</ele><time>2026-04-04T07:25:54.118Z</time></trkpt><trkpt lat="43.8197965" lon="10.9546691"><ele>467.6</ele><time>2026-04-04T07:25:55.118Z</time></trkpt><trkpt lat="43.8198872" lon="10.9545598"><ele>466.0</ele><time>2026-04-04T07:25:57.117Z</time></trkpt><trkpt lat="43.8198634" lon="10.9543818"><ele>466.0</ele><time>2026-04-04T07:25:59.117Z</time></trkpt><trkpt lat="43.8198072" lon="10.9542899"><ele>466.0</ele><time>2026-04-04T07:26:00.118Z</time></trkpt><trkpt lat="43.8197309" lon="10.9542146"><ele>466.0</ele><time>2026-04-04T07:26:01.118Z</time></trkpt><trkpt lat="43.8196201" lon="10.9541408"><ele>466.0</ele><time>2026-04-04T07:26:02.118Z</time></trkpt><trkpt lat="43.8195199" lon="10.9540635"><ele>466.0</ele><time>2026-04-04T07:26:03.117Z</time></trkpt><trkpt lat="43.8194225" lon="10.9539859"><ele>464.83333333333337</ele><time>2026-04-04T07:26:04.118Z</time></trkpt><trkpt lat="43.8193508" lon="10.9538612"><ele>463.6666666666667</ele><time>2026-04-04T07:26:05.118Z</time></trkpt><trkpt lat="43.8192993" lon="10.9537677"><ele>462.5</ele><time>2026-04-04T07:26:06.118Z</time></trkpt><trkpt lat="43.8192867" lon="10.9536686"><ele>461.33333333333337</ele><time>2026-04-04T07:26:07.118Z</time></trkpt><trkpt lat="43.8192914" lon="10.9535736"><ele>460.1666666666667</ele><time>2026-04-04T07:26:08.118Z</time></trkpt><trkpt lat="43.8192652" lon="10.9534896"><ele>459.0</ele><time>2026-04-04T07:26:09.117Z</time></trkpt><trkpt lat="43.8192464" lon="10.9533932"><ele>458.5</ele><time>2026-04-04T07:26:10.118Z</time></trkpt><trkpt lat="43.8192628" lon="10.9532947"><ele>458.0</ele><time>2026-04-04T07:26:11.118Z</time></trkpt><trkpt lat="43.8192775" lon="10.9531877"><ele>457.5</ele><time>2026-04-04T07:26:12.118Z</time></trkpt><trkpt lat="43.8193085" lon="10.9530903"><ele>457.0</ele><time>2026-04-04T07:26:13.117Z</time></trkpt><trkpt lat="43.8193745" lon="10.9529535"><ele>456.5</ele><time>2026-04-04T07:26:14.118Z</time></trkpt><trkpt lat="43.8194276" lon="10.952851"><ele>456.0</ele><time>2026-04-04T07:26:15.118Z</time></trkpt><trkpt lat="43.8194438" lon="10.9527522"><ele>456.0</ele><time>2026-04-04T07:26:16.117Z</time></trkpt><trkpt lat="43.8194964" lon="10.9526047"><ele>456.0</ele><time>2026-04-04T07:26:18.117Z</time></trkpt><trkpt lat="43.8195402" lon="10.9525006"><ele>456.0</ele><time>2026-04-04T07:26:20.117Z</time></trkpt><trkpt lat="43.8195848" lon="10.9523965"><ele>456.0</ele><time>2026-04-04T07:26:22.117Z</time></trkpt><trkpt lat="43.8196437" lon="10.9522947"><ele>456.0</ele><time>2026-04-04T07:26:24.117Z</time></trkpt><trkpt lat="43.8197168" lon="10.952185"><ele>457.3333333333333</ele><time>2026-04-04T07:26:26.119Z</time></trkpt><trkpt lat="43.8197608" lon="10.9521214"><ele>458.66666666666663</ele><time>2026-04-04T07:26:27.117Z</time></trkpt><trkpt lat="43.8198069" lon="10.9520562"><ele>460.0</ele><time>2026-04-04T07:26:28.118Z</time></trkpt><trkpt lat="43.819876" lon="10.9519255"><ele>461.3333333333333</ele><time>2026-04-04T07:26:30.118Z</time></trkpt><trkpt lat="43.8199061" lon="10.9518321"><ele>462.66666666666663</ele><time>2026-04-04T07:26:31.118Z</time></trkpt><trkpt lat="43.81989" lon="10.951661"><ele>464.0</ele><time>2026-04-04T07:26:33.118Z</time></trkpt><trkpt lat="43.8198452" lon="10.9515881"><ele>465.8333333333333</ele><time>2026-04-04T07:26:34.117Z</time></trkpt><trkpt lat="43.819767" lon="10.9515295"><ele>467.66666666666663</ele><time>2026-04-04T07:26:35.118Z</time></trkpt><trkpt lat="43.8196852" lon="10.9514792"><ele>469.5</ele><time>2026-04-04T07:26:36.118Z</time></trkpt><trkpt lat="43.8196094" lon="10.951438"><ele>471.33333333333337</ele><time>2026-04-04T07:26:37.118Z</time></trkpt><trkpt lat="43.8195466" lon="10.9513907"><ele>473.1666666666667</ele><time>2026-04-04T07:26:38.118Z</time></trkpt><trkpt lat="43.8194886" lon="10.9513428"><ele>475.0</ele><time>2026-04-04T07:26:39.118Z</time></trkpt><trkpt lat="43.8194222" lon="10.9512367"><ele>475.0</ele><time>2026-04-04T07:26:41.117Z</time></trkpt><trkpt lat="43.8194172" lon="10.9510779"><ele>475.0</ele><time>2026-04-04T07:26:43.117Z</time></trkpt><trkpt lat="43.8194248" lon="10.9509052"><ele>475.0</ele><time>2026-04-04T07:26:45.118Z</time></trkpt><trkpt lat="43.8193964" lon="10.9508063"><ele>475.0</ele><time>2026-04-04T07:26:46.118Z</time></trkpt><trkpt lat="43.8193699" lon="10.9506954"><ele>475.0</ele><time>2026-04-04T07:26:47.117Z</time></trkpt><trkpt lat="43.8193373" lon="10.9505863"><ele>474.6</ele><time>2026-04-04T07:26:48.119Z</time></trkpt><trkpt lat="43.8192964" lon="10.9504375"><ele>474.2</ele><time>2026-04-04T07:26:49.117Z</time></trkpt><trkpt lat="43.8192666" lon="10.9502992"><ele>473.79999999999995</ele><time>2026-04-04T07:26:50.118Z</time></trkpt><trkpt lat="43.819242" lon="10.9501725"><ele>473.4</ele><time>2026-04-04T07:26:51.117Z</time></trkpt><trkpt lat="43.8192249" lon="10.9500563"><ele>473.0</ele><time>2026-04-04T07:26:52.118Z</time></trkpt><trkpt lat="43.8192281" lon="10.9499509"><ele>472.99999999999994</ele><time>2026-04-04T07:26:53.118Z</time></trkpt><trkpt lat="43.8192525" lon="10.9498456"><ele>473.0</ele><time>2026-04-04T07:26:54.118Z</time></trkpt><trkpt lat="43.819301" lon="10.9497395"><ele>473.0</ele><time>2026-04-04T07:26:55.117Z</time></trkpt><trkpt lat="43.8193568" lon="10.9496569"><ele>473.0</ele><time>2026-04-04T07:26:56.117Z</time></trkpt><trkpt lat="43.8194111" lon="10.9496038"><ele>472.99999999999994</ele><time>2026-04-04T07:26:57.118Z</time></trkpt><trkpt lat="43.8195094" lon="10.9495675"><ele>473.0</ele><time>2026-04-04T07:26:59.118Z</time></trkpt><trkpt lat="43.8195971" lon="10.9495919"><ele>475.79999999999995</ele><time>2026-04-04T07:27:01.118Z</time></trkpt><trkpt lat="43.8196939" lon="10.9496517"><ele>478.59999999999997</ele><time>2026-04-04T07:27:03.118Z</time></trkpt><trkpt lat="43.8198147" lon="10.9497296"><ele>481.40000000000003</ele><time>2026-04-04T07:27:05.118Z</time></trkpt><trkpt lat="43.8198949" lon="10.9497776"><ele>484.20000000000005</ele><time>2026-04-04T07:27:06.118Z</time></trkpt><trkpt lat="43.8199668" lon="10.9498337"><ele>487.0</ele><time>2026-04-04T07:27:07.118Z</time></trkpt><trkpt lat="43.8200403" lon="10.9499115"><ele>487.00000000000006</ele><time>2026-04-04T07:27:08.118Z</time></trkpt><trkpt lat="43.8201091" lon="10.949975"><ele>487.0</ele><time>2026-04-04T07:27:09.118Z</time></trkpt><trkpt lat="43.8201679" lon="10.9500092"><ele>487.0</ele><time>2026-04-04T07:27:10.117Z</time></trkpt><trkpt lat="43.820249" lon="10.9499575"><ele>487.0</ele><time>2026-04-04T07:27:12.118Z</time></trkpt><trkpt lat="43.8202609" lon="10.9498573"><ele>487.00000000000006</ele><time>2026-04-04T07:27:13.118Z</time></trkpt><trkpt lat="43.8202659" lon="10.949719"><ele>487.0</ele><time>2026-04-04T07:27:14.117Z</time></trkpt><trkpt lat="43.820275" lon="10.9495725"><ele>488.8</ele><time>2026-04-04T07:27:15.119Z</time></trkpt><trkpt lat="43.8202832" lon="10.9494399"><ele>490.6</ele><time>2026-04-04T07:27:16.117Z</time></trkpt><trkpt lat="43.8202955" lon="10.949306"><ele>492.40000000000003</ele><time>2026-04-04T07:27:17.118Z</time></trkpt><trkpt lat="43.8203661" lon="10.949172"><ele>494.20000000000005</ele><time>2026-04-04T07:27:19.118Z</time></trkpt><trkpt lat="43.8204233" lon="10.9491177"><ele>496.0</ele><time>2026-04-04T07:27:20.118Z</time></trkpt><trkpt lat="43.8204739" lon="10.9490503"><ele>496.20000000000005</ele><time>2026-04-04T07:27:21.117Z</time></trkpt><trkpt lat="43.820514" lon="10.9489752"><ele>496.40000000000003</ele><time>2026-04-04T07:27:22.118Z</time></trkpt><trkpt lat="43.8205406" lon="10.9488692"><ele>496.6</ele><time>2026-04-04T07:27:23.118Z</time></trkpt><trkpt lat="43.8205178" lon="10.9486502"><ele>496.8</ele><time>2026-04-04T07:27:25.118Z</time></trkpt><trkpt lat="43.8205102" lon="10.9485355"><ele>497.0</ele><time>2026-04-04T07:27:26.117Z</time></trkpt><trkpt lat="43.8205164" lon="10.9484179"><ele>498.0</ele><time>2026-04-04T07:27:27.118Z</time></trkpt><trkpt lat="43.8205902" lon="10.9482638"><ele>499.0</ele><time>2026-04-04T07:27:28.118Z</time></trkpt><trkpt lat="43.8206342" lon="10.9481294"><ele>500.0</ele><time>2026-04-04T07:27:29.118Z</time></trkpt><trkpt lat="43.8207016" lon="10.9479841"><ele>501.0</ele><time>2026-04-04T07:27:30.117Z</time></trkpt><trkpt lat="43.8207738" lon="10.9478116"><ele>501.0</ele><time>2026-04-04T07:27:31.118Z</time></trkpt><trkpt lat="43.8208544" lon="10.9476541"><ele>501.0</ele><time>2026-04-04T07:27:32.117Z</time></trkpt><trkpt lat="43.8209424" lon="10.9475204"><ele>501.0</ele><time>2026-04-04T07:27:33.119Z</time></trkpt><trkpt lat="43.8210217" lon="10.9474084"><ele>501.0</ele><time>2026-04-04T07:27:34.118Z</time></trkpt><trkpt lat="43.821099" lon="10.9473015"><ele>503.0</ele><time>2026-04-04T07:27:35.118Z</time></trkpt><trkpt lat="43.8211594" lon="10.9472038"><ele>505.0</ele><time>2026-04-04T07:27:36.118Z</time></trkpt><trkpt lat="43.8212249" lon="10.9470876"><ele>507.0</ele><time>2026-04-04T07:27:37.119Z</time></trkpt><trkpt lat="43.8212962" lon="10.947003"><ele>509.0</ele><time>2026-04-04T07:27:38.117Z</time></trkpt><trkpt lat="43.8213589" lon="10.9469037"><ele>511.0</ele><time>2026-04-04T07:27:39.118Z</time></trkpt><trkpt lat="43.8213949" lon="10.9467909"><ele>511.75</ele><time>2026-04-04T07:27:40.117Z</time></trkpt><trkpt lat="43.8214159" lon="10.946656"><ele>512.5</ele><time>2026-04-04T07:27:41.118Z</time></trkpt><trkpt lat="43.8214135" lon="10.946514"><ele>513.25</ele><time>2026-04-04T07:27:42.118Z</time></trkpt><trkpt lat="43.8213989" lon="10.9463388"><ele>514.0</ele><time>2026-04-04T07:27:43.118Z</time></trkpt><trkpt lat="43.8213961" lon="10.9461664"><ele>514.0</ele><time>2026-04-04T07:27:44.118Z</time></trkpt><trkpt lat="43.8214128" lon="10.9459737"><ele>514.0</ele><time>2026-04-04T07:27:45.118Z</time></trkpt><trkpt lat="43.8214236" lon="10.9457959"><ele>514.0</ele><time>2026-04-04T07:27:46.118Z</time></trkpt><trkpt lat="43.8214395" lon="10.9456556"><ele>514.0</ele><time>2026-04-04T07:27:47.118Z</time></trkpt><trkpt lat="43.8214749" lon="10.9455269"><ele>513.75</ele><time>2026-04-04T07:27:48.117Z</time></trkpt><trkpt lat="43.8215348" lon="10.9453916"><ele>513.5</ele><time>2026-04-04T07:27:49.118Z</time></trkpt><trkpt lat="43.8216083" lon="10.9452577"><ele>513.25</ele><time>2026-04-04T07:27:50.118Z</time></trkpt><trkpt lat="43.8216809" lon="10.9451068"><ele>513.0</ele><time>2026-04-04T07:27:51.117Z</time></trkpt><trkpt lat="43.8217356" lon="10.9449979"><ele>513.1666666666666</ele><time>2026-04-04T07:27:52.118Z</time></trkpt><trkpt lat="43.8217915" lon="10.9449086"><ele>513.3333333333334</ele><time>2026-04-04T07:27:53.119Z</time></trkpt><trkpt lat="43.8218421" lon="10.9448304"><ele>513.5</ele><time>2026-04-04T07:27:54.119Z</time></trkpt><trkpt lat="43.8218988" lon="10.9447462"><ele>513.6666666666667</ele><time>2026-04-04T07:27:55.117Z</time></trkpt><trkpt lat="43.821955" lon="10.9446731"><ele>513.8333333333334</ele><time>2026-04-04T07:27:56.119Z</time></trkpt><trkpt lat="43.8220151" lon="10.9445925"><ele>514.0</ele><time>2026-04-04T07:27:57.118Z</time></trkpt><trkpt lat="43.8220716" lon="10.9445228"><ele>514.0</ele><time>2026-04-04T07:27:58.118Z</time></trkpt><trkpt lat="43.8221309" lon="10.9444504"><ele>514.0</ele><time>2026-04-04T07:27:59.119Z</time></trkpt><trkpt lat="43.8221874" lon="10.944369"><ele>514.0</ele><time>2026-04-04T07:28:00.118Z</time></trkpt><trkpt lat="43.8222481" lon="10.9442789"><ele>514.0</ele><time>2026-04-04T07:28:01.118Z</time></trkpt><trkpt lat="43.8222996" lon="10.9441768"><ele>514.0</ele><time>2026-04-04T07:28:02.118Z</time></trkpt><trkpt lat="43.8223509" lon="10.9440638"><ele>514.0</ele><time>2026-04-04T07:28:03.118Z</time></trkpt><trkpt lat="43.8224055" lon="10.9439439"><ele>513.0</ele><time>2026-04-04T07:28:04.119Z</time></trkpt><trkpt lat="43.8224654" lon="10.9438145"><ele>512.0</ele><time>2026-04-04T07:28:05.117Z</time></trkpt><trkpt lat="43.8225257" lon="10.9436674"><ele>511.0</ele><time>2026-04-04T07:28:06.118Z</time></trkpt><trkpt lat="43.8225838" lon="10.9435448"><ele>510.0</ele><time>2026-04-04T07:28:07.118Z</time></trkpt><trkpt lat="43.8226186" lon="10.9433877"><ele>507.75</ele><time>2026-04-04T07:28:08.118Z</time></trkpt><trkpt lat="43.8226685" lon="10.9432503"><ele>505.5</ele><time>2026-04-04T07:28:09.118Z</time></trkpt><trkpt lat="43.8227269" lon="10.9431249"><ele>503.25</ele><time>2026-04-04T07:28:10.118Z</time></trkpt><trkpt lat="43.8228083" lon="10.9430099"><ele>501.0</ele><time>2026-04-04T07:28:11.118Z</time></trkpt><trkpt lat="43.8229036" lon="10.9428986"><ele>501.0</ele><time>2026-04-04T07:28:12.118Z</time></trkpt><trkpt lat="43.8230103" lon="10.9427949"><ele>501.0</ele><time>2026-04-04T07:28:13.119Z</time></trkpt><trkpt lat="43.8231118" lon="10.9426987"><ele>501.0</ele><time>2026-04-04T07:28:14.118Z</time></trkpt><trkpt lat="43.8232011" lon="10.9426337"><ele>501.0</ele><time>2026-04-04T07:28:15.119Z</time></trkpt><trkpt lat="43.8232706" lon="10.9425436"><ele>501.0</ele><time>2026-04-04T07:28:16.117Z</time></trkpt><trkpt lat="43.8233264" lon="10.9424181"><ele>500.0</ele><time>2026-04-04T07:28:17.118Z</time></trkpt><trkpt lat="43.8233907" lon="10.9423018"><ele>499.0</ele><time>2026-04-04T07:28:18.118Z</time></trkpt><trkpt lat="43.8234298" lon="10.9421079"><ele>498.0</ele><time>2026-04-04T07:28:19.118Z</time></trkpt><trkpt lat="43.8234809" lon="10.9419563"><ele>497.0</ele><time>2026-04-04T07:28:20.118Z</time></trkpt><trkpt lat="43.8235341" lon="10.9418122"><ele>499.40000000000003</ele><time>2026-04-04T07:28:21.118Z</time></trkpt><trkpt lat="43.8235934" lon="10.9416881"><ele>501.80000000000007</ele><time>2026-04-04T07:28:22.118Z</time></trkpt><trkpt lat="43.8236641" lon="10.941602"><ele>504.2</ele><time>2026-04-04T07:28:23.118Z</time></trkpt><trkpt lat="43.8237305" lon="10.9415074"><ele>506.6</ele><time>2026-04-04T07:28:24.118Z</time></trkpt><trkpt lat="43.8238122" lon="10.9414617"><ele>509.0</ele><time>2026-04-04T07:28:25.118Z</time></trkpt><trkpt lat="43.8239399" lon="10.941388"><ele>509.0</ele><time>2026-04-04T07:28:26.118Z</time></trkpt><trkpt lat="43.8240465" lon="10.9413294"><ele>509.0</ele><time>2026-04-04T07:28:27.118Z</time></trkpt><trkpt lat="43.8241539" lon="10.9412494"><ele>509.0</ele><time>2026-04-04T07:28:28.119Z</time></trkpt><trkpt lat="43.8242753" lon="10.9411679"><ele>509.0</ele><time>2026-04-04T07:28:29.118Z</time></trkpt><trkpt lat="43.8243935" lon="10.9411082"><ele>510.0</ele><time>2026-04-04T07:28:30.118Z</time></trkpt><trkpt lat="43.8245041" lon="10.9410652"><ele>511.0</ele><time>2026-04-04T07:28:31.117Z</time></trkpt><trkpt lat="43.8246209" lon="10.9410182"><ele>512.0</ele><time>2026-04-04T07:28:32.118Z</time></trkpt><trkpt lat="43.8247191" lon="10.940979"><ele>513.0</ele><time>2026-04-04T07:28:33.118Z</time></trkpt><trkpt lat="43.8247924" lon="10.9408825"><ele>514.0</ele><time>2026-04-04T07:28:34.119Z</time></trkpt><trkpt lat="43.8248787" lon="10.940783"><ele>514.5</ele><time>2026-04-04T07:28:35.118Z</time></trkpt><trkpt lat="43.8249665" lon="10.9406557"><ele>515.0</ele><time>2026-04-04T07:28:36.118Z</time></trkpt><trkpt lat="43.8250532" lon="10.9405316"><ele>515.5</ele><time>2026-04-04T07:28:37.118Z</time></trkpt><trkpt lat="43.8251227" lon="10.9404051"><ele>516.0</ele><time>2026-04-04T07:28:38.118Z</time></trkpt><trkpt lat="43.8251907" lon="10.9403032"><ele>516.0</ele><time>2026-04-04T07:28:39.118Z</time></trkpt><trkpt lat="43.825285" lon="10.9401993"><ele>516.0</ele><time>2026-04-04T07:28:40.117Z</time></trkpt><trkpt lat="43.8253784" lon="10.9400891"><ele>516.0</ele><time>2026-04-04T07:28:41.118Z</time></trkpt><trkpt lat="43.8254844" lon="10.93999"><ele>516.0</ele><time>2026-04-04T07:28:42.118Z</time></trkpt><trkpt lat="43.8255745" lon="10.9399015"><ele>515.1666666666666</ele><time>2026-04-04T07:28:43.118Z</time></trkpt><trkpt lat="43.8256501" lon="10.9398152"><ele>514.3333333333334</ele><time>2026-04-04T07:28:44.118Z</time></trkpt><trkpt lat="43.8257164" lon="10.9397553"><ele>513.5</ele><time>2026-04-04T07:28:45.118Z</time></trkpt><trkpt lat="43.8257901" lon="10.9397334"><ele>512.6666666666667</ele><time>2026-04-04T07:28:46.118Z</time></trkpt><trkpt lat="43.8258745" lon="10.9397202"><ele>511.83333333333337</ele><time>2026-04-04T07:28:47.118Z</time></trkpt><trkpt lat="43.8259593" lon="10.9397048"><ele>511.0</ele><time>2026-04-04T07:28:48.119Z</time></trkpt><trkpt lat="43.826079" lon="10.9397003"><ele>508.0</ele><time>2026-04-04T07:28:49.118Z</time></trkpt><trkpt lat="43.8261995" lon="10.9396781"><ele>505.0</ele><time>2026-04-04T07:28:50.118Z</time></trkpt><trkpt lat="43.8262791" lon="10.9396395"><ele>502.0</ele><time>2026-04-04T07:28:51.117Z</time></trkpt><trkpt lat="43.8263661" lon="10.9395874"><ele>499.0</ele><time>2026-04-04T07:28:52.118Z</time></trkpt><trkpt lat="43.8264521" lon="10.9395096"><ele>496.0</ele><time>2026-04-04T07:28:53.117Z</time></trkpt><trkpt lat="43.8265281" lon="10.9394264"><ele>496.0</ele><time>2026-04-04T07:28:54.117Z</time></trkpt><trkpt lat="43.8266122" lon="10.9393334"><ele>496.0</ele><time>2026-04-04T07:28:55.118Z</time></trkpt><trkpt lat="43.8267146" lon="10.9392589"><ele>496.0</ele><time>2026-04-04T07:28:56.118Z</time></trkpt><trkpt lat="43.8268148" lon="10.9391843"><ele>496.0</ele><time>2026-04-04T07:28:57.118Z</time></trkpt><trkpt lat="43.826915" lon="10.9391348"><ele>496.0</ele><time>2026-04-04T07:28:58.118Z</time></trkpt><trkpt lat="43.8270197" lon="10.9391288"><ele>494.5714285714286</ele><time>2026-04-04T07:28:59.117Z</time></trkpt><trkpt lat="43.827106" lon="10.9391022"><ele>493.1428571428572</ele><time>2026-04-04T07:29:00.117Z</time></trkpt><trkpt lat="43.8271754" lon="10.9390991"><ele>491.7142857142857</ele><time>2026-04-04T07:29:01.118Z</time></trkpt><trkpt lat="43.8272421" lon="10.9391312"><ele>490.28571428571433</ele><time>2026-04-04T07:29:02.118Z</time></trkpt><trkpt lat="43.8273051" lon="10.9391582"><ele>488.8571428571429</ele><time>2026-04-04T07:29:03.118Z</time></trkpt><trkpt lat="43.8273735" lon="10.9391526"><ele>487.42857142857144</ele><time>2026-04-04T07:29:04.117Z</time></trkpt><trkpt lat="43.8274488" lon="10.9391511"><ele>486.0</ele><time>2026-04-04T07:29:05.118Z</time></trkpt><trkpt lat="43.8275273" lon="10.9390858"><ele>486.0</ele><time>2026-04-04T07:29:06.118Z</time></trkpt><trkpt lat="43.8276073" lon="10.9390634"><ele>486.0</ele><time>2026-04-04T07:29:07.118Z</time></trkpt><trkpt lat="43.8276639" lon="10.9390234"><ele>486.0</ele><time>2026-04-04T07:29:08.117Z</time></trkpt><trkpt lat="43.827728" lon="10.9388686"><ele>486.0</ele><time>2026-04-04T07:29:10.118Z</time></trkpt><trkpt lat="43.8277566" lon="10.9387315"><ele>486.0</ele><time>2026-04-04T07:29:11.117Z</time></trkpt><trkpt lat="43.8277706" lon="10.9386177"><ele>485.5</ele><time>2026-04-04T07:29:12.118Z</time></trkpt><trkpt lat="43.8278018" lon="10.9385149"><ele>485.0</ele><time>2026-04-04T07:29:13.118Z</time></trkpt><trkpt lat="43.8278526" lon="10.9384319"><ele>484.5</ele><time>2026-04-04T07:29:14.118Z</time></trkpt><trkpt lat="43.8278929" lon="10.93836"><ele>484.0</ele><time>2026-04-04T07:29:15.118Z</time></trkpt><trkpt lat="43.8279581" lon="10.938302"><ele>483.5</ele><time>2026-04-04T07:29:16.118Z</time></trkpt><trkpt lat="43.8280218" lon="10.9382329"><ele>483.0</ele><time>2026-04-04T07:29:17.117Z</time></trkpt><trkpt lat="43.8281014" lon="10.9381671"><ele>483.0</ele><time>2026-04-04T07:29:18.118Z</time></trkpt><trkpt lat="43.8281773" lon="10.9381199"><ele>482.99999999999994</ele><time>2026-04-04T07:29:19.118Z</time></trkpt><trkpt lat="43.8282638" lon="10.9380712"><ele>482.99999999999994</ele><time>2026-04-04T07:29:20.118Z</time></trkpt><trkpt lat="43.8283488" lon="10.93805"><ele>483.0</ele><time>2026-04-04T07:29:21.118Z</time></trkpt><trkpt lat="43.8284375" lon="10.9380174"><ele>483.0</ele><time>2026-04-04T07:29:22.118Z</time></trkpt><trkpt lat="43.8285419" lon="10.9380039"><ele>481.0</ele><time>2026-04-04T07:29:23.118Z</time></trkpt><trkpt lat="43.8286426" lon="10.9380409"><ele>478.99999999999994</ele><time>2026-04-04T07:29:24.117Z</time></trkpt><trkpt lat="43.8287513" lon="10.9380515"><ele>476.99999999999994</ele><time>2026-04-04T07:29:25.117Z</time></trkpt><trkpt lat="43.8288213" lon="10.9380939"><ele>475.0</ele><time>2026-04-04T07:29:26.118Z</time></trkpt><trkpt lat="43.8289204" lon="10.9381295"><ele>473.0</ele><time>2026-04-04T07:29:27.118Z</time></trkpt><trkpt lat="43.829005" lon="10.9381933"><ele>473.0</ele><time>2026-04-04T07:29:28.118Z</time></trkpt><trkpt lat="43.8290983" lon="10.9382546"><ele>472.99999999999994</ele><time>2026-04-04T07:29:29.117Z</time></trkpt><trkpt lat="43.8291775" lon="10.9383278"><ele>472.99999999999994</ele><time>2026-04-04T07:29:30.118Z</time></trkpt><trkpt lat="43.8292718" lon="10.938416"><ele>473.0</ele><time>2026-04-04T07:29:31.117Z</time></trkpt><trkpt lat="43.8293558" lon="10.9385095"><ele>473.0</ele><time>2026-04-04T07:29:32.117Z</time></trkpt><trkpt lat="43.8294087" lon="10.9386059"><ele>474.4</ele><time>2026-04-04T07:29:33.117Z</time></trkpt><trkpt lat="43.8294601" lon="10.9386795"><ele>475.79999999999995</ele><time>2026-04-04T07:29:34.117Z</time></trkpt><trkpt lat="43.8295768" lon="10.9387224"><ele>477.2</ele><time>2026-04-04T07:29:36.118Z</time></trkpt><trkpt lat="43.8296404" lon="10.9386532"><ele>478.6</ele><time>2026-04-04T07:29:37.117Z</time></trkpt><trkpt lat="43.829715" lon="10.9385884"><ele>480.0</ele><time>2026-04-04T07:29:38.118Z</time></trkpt><trkpt lat="43.8298028" lon="10.9385089"><ele>480.0</ele><time>2026-04-04T07:29:39.117Z</time></trkpt><trkpt lat="43.8298785" lon="10.9384217"><ele>480.0</ele><time>2026-04-04T07:29:40.118Z</time></trkpt><trkpt lat="43.829956" lon="10.938322"><ele>480.0</ele><time>2026-04-04T07:29:41.118Z</time></trkpt><trkpt lat="43.8300477" lon="10.9382017"><ele>480.0</ele><time>2026-04-04T07:29:42.118Z</time></trkpt><trkpt lat="43.8301495" lon="10.9380939"><ele>482.8</ele><time>2026-04-04T07:29:43.118Z</time></trkpt><trkpt lat="43.8302323" lon="10.938026"><ele>485.6</ele><time>2026-04-04T07:29:44.118Z</time></trkpt><trkpt lat="43.8303286" lon="10.9379374"><ele>488.4</ele><time>2026-04-04T07:29:45.118Z</time></trkpt><trkpt lat="43.8303881" lon="10.9378201"><ele>491.2</ele><time>2026-04-04T07:29:46.118Z</time></trkpt><trkpt lat="43.8304429" lon="10.9377082"><ele>494.0</ele><time>2026-04-04T07:29:47.118Z</time></trkpt><trkpt lat="43.8304661" lon="10.9375989"><ele>492.49999999999994</ele><time>2026-04-04T07:29:48.118Z</time></trkpt><trkpt lat="43.8305189" lon="10.9374678"><ele>491.0</ele><time>2026-04-04T07:29:49.117Z</time></trkpt><trkpt lat="43.830566" lon="10.9373754"><ele>489.5</ele><time>2026-04-04T07:29:50.118Z</time></trkpt><trkpt lat="43.8306376" lon="10.9373982"><ele>488.0</ele><time>2026-04-04T07:29:51.118Z</time></trkpt><trkpt lat="43.8307056" lon="10.9373335"><ele>486.49999999999994</ele><time>2026-04-04T07:29:52.118Z</time></trkpt><trkpt lat="43.8307953" lon="10.937284"><ele>485.0</ele><time>2026-04-04T07:29:53.119Z</time></trkpt><trkpt lat="43.8309366" lon="10.9372909"><ele>483.6</ele><time>2026-04-04T07:29:54.117Z</time></trkpt><trkpt lat="43.83103" lon="10.9372628"><ele>482.2</ele><time>2026-04-04T07:29:55.118Z</time></trkpt><trkpt lat="43.8311219" lon="10.9372233"><ele>480.79999999999995</ele><time>2026-04-04T07:29:56.118Z</time></trkpt><trkpt lat="43.8312055" lon="10.9371586"><ele>479.4</ele><time>2026-04-04T07:29:57.118Z</time></trkpt><trkpt lat="43.8312757" lon="10.9370851"><ele>478.0</ele><time>2026-04-04T07:29:58.117Z</time></trkpt><trkpt lat="43.8313428" lon="10.937022"><ele>478.0</ele><time>2026-04-04T07:29:59.118Z</time></trkpt><trkpt lat="43.8314086" lon="10.9369769"><ele>477.99999999999994</ele><time>2026-04-04T07:30:00.118Z</time></trkpt><trkpt lat="43.8314935" lon="10.9369569"><ele>477.99999999999994</ele><time>2026-04-04T07:30:01.118Z</time></trkpt><trkpt lat="43.8315796" lon="10.9369643"><ele>478.0</ele><time>2026-04-04T07:30:02.119Z</time></trkpt><trkpt lat="43.8316821" lon="10.936982"><ele>478.0</ele><time>2026-04-04T07:30:03.118Z</time></trkpt><trkpt lat="43.8317964" lon="10.9370219"><ele>474.4</ele><time>2026-04-04T07:30:04.118Z</time></trkpt><trkpt lat="43.8318972" lon="10.9370504"><ele>470.79999999999995</ele><time>2026-04-04T07:30:05.117Z</time></trkpt><trkpt lat="43.832008" lon="10.9370805"><ele>467.2</ele><time>2026-04-04T07:30:06.119Z</time></trkpt><trkpt lat="43.8321096" lon="10.9371254"><ele>463.6</ele><time>2026-04-04T07:30:07.117Z</time></trkpt><trkpt lat="43.8321761" lon="10.937179"><ele>460.0</ele><time>2026-04-04T07:30:08.118Z</time></trkpt><trkpt lat="43.8322604" lon="10.9372176"><ele>459.99999999999994</ele><time>2026-04-04T07:30:09.118Z</time></trkpt><trkpt lat="43.8323334" lon="10.937234"><ele>460.0</ele><time>2026-04-04T07:30:10.117Z</time></trkpt><trkpt lat="43.8323971" lon="10.9371954"><ele>459.99999999999994</ele><time>2026-04-04T07:30:11.118Z</time></trkpt><trkpt lat="43.8324725" lon="10.93719"><ele>459.99999999999994</ele><time>2026-04-04T07:30:12.119Z</time></trkpt><trkpt lat="43.8325406" lon="10.9371881"><ele>460.0</ele><time>2026-04-04T07:30:13.117Z</time></trkpt><trkpt lat="43.8326201" lon="10.9371705"><ele>459.99999999999994</ele><time>2026-04-04T07:30:14.118Z</time></trkpt><trkpt lat="43.8326836" lon="10.9371194"><ele>459.99999999999994</ele><time>2026-04-04T07:30:15.118Z</time></trkpt><trkpt lat="43.8327537" lon="10.9370778"><ele>457.8</ele><time>2026-04-04T07:30:16.118Z</time></trkpt><trkpt lat="43.8328808" lon="10.9369898"><ele>455.6</ele><time>2026-04-04T07:30:17.118Z</time></trkpt><trkpt lat="43.8329699" lon="10.9369297"><ele>453.4</ele><time>2026-04-04T07:30:18.117Z</time></trkpt><trkpt lat="43.8330478" lon="10.9368455"><ele>451.2</ele><time>2026-04-04T07:30:19.117Z</time></trkpt><trkpt lat="43.8331174" lon="10.9367814"><ele>449.0</ele><time>2026-04-04T07:30:20.118Z</time></trkpt><trkpt lat="43.8331581" lon="10.9367111"><ele>448.99999999999994</ele><time>2026-04-04T07:30:21.118Z</time></trkpt><trkpt lat="43.8331521" lon="10.9365897"><ele>449.0</ele><time>2026-04-04T07:30:23.118Z</time></trkpt><trkpt lat="43.8330893" lon="10.9364436"><ele>449.0</ele><time>2026-04-04T07:30:25.117Z</time></trkpt><trkpt lat="43.8330505" lon="10.9363572"><ele>449.0</ele><time>2026-04-04T07:30:26.117Z</time></trkpt><trkpt lat="43.8330114" lon="10.936275"><ele>448.99999999999994</ele><time>2026-04-04T07:30:27.118Z</time></trkpt><trkpt lat="43.8329676" lon="10.9361607"><ele>449.0</ele><time>2026-04-04T07:30:28.119Z</time></trkpt><trkpt lat="43.8329191" lon="10.9360537"><ele>448.99999999999994</ele><time>2026-04-04T07:30:29.119Z</time></trkpt><trkpt lat="43.832869" lon="10.9359449"><ele>449.0</ele><time>2026-04-04T07:30:30.117Z</time></trkpt><trkpt lat="43.8328252" lon="10.9358386"><ele>449.0</ele><time>2026-04-04T07:30:31.118Z</time></trkpt><trkpt lat="43.8327826" lon="10.9357381"><ele>449.0</ele><time>2026-04-04T07:30:32.118Z</time></trkpt><trkpt lat="43.8327449" lon="10.9356387"><ele>448.99999999999994</ele><time>2026-04-04T07:30:33.118Z</time></trkpt><trkpt lat="43.8327138" lon="10.9355381"><ele>449.0</ele><time>2026-04-04T07:30:34.117Z</time></trkpt><trkpt lat="43.8326897" lon="10.9354365"><ele>449.79999999999995</ele><time>2026-04-04T07:30:35.118Z</time></trkpt><trkpt lat="43.8326671" lon="10.9353292"><ele>450.59999999999997</ele><time>2026-04-04T07:30:36.118Z</time></trkpt><trkpt lat="43.8326436" lon="10.9352111"><ele>451.4</ele><time>2026-04-04T07:30:37.118Z</time></trkpt><trkpt lat="43.83262" lon="10.9350827"><ele>452.2</ele><time>2026-04-04T07:30:38.117Z</time></trkpt><trkpt lat="43.8325912" lon="10.934948"><ele>453.0</ele><time>2026-04-04T07:30:39.118Z</time></trkpt><trkpt lat="43.8325653" lon="10.9348031"><ele>448.75</ele><time>2026-04-04T07:30:40.118Z</time></trkpt><trkpt lat="43.8325361" lon="10.9346478"><ele>444.5</ele><time>2026-04-04T07:30:41.118Z</time></trkpt><trkpt lat="43.8325061" lon="10.9344791"><ele>440.25</ele><time>2026-04-04T07:30:42.117Z</time></trkpt><trkpt lat="43.8324718" lon="10.9342823"><ele>436.0</ele><time>2026-04-04T07:30:43.118Z</time></trkpt><trkpt lat="43.8324242" lon="10.9340407"><ele>432.33333333333337</ele><time>2026-04-04T07:30:44.118Z</time></trkpt><trkpt lat="43.8323789" lon="10.9337902"><ele>428.66666666666663</ele><time>2026-04-04T07:30:45.117Z</time></trkpt><trkpt lat="43.8323344" lon="10.9335654"><ele>425.0</ele><time>2026-04-04T07:30:46.118Z</time></trkpt><trkpt lat="43.8322966" lon="10.9333516"><ele>422.3333333333333</ele><time>2026-04-04T07:30:47.117Z</time></trkpt><trkpt lat="43.8322583" lon="10.9331353"><ele>419.66666666666663</ele><time>2026-04-04T07:30:48.117Z</time></trkpt><trkpt lat="43.8322226" lon="10.932915"><ele>417.0</ele><time>2026-04-04T07:30:49.118Z</time></trkpt><trkpt lat="43.8321975" lon="10.9326922"><ele>413.66666666666663</ele><time>2026-04-04T07:30:50.117Z</time></trkpt><trkpt lat="43.8321839" lon="10.9324648"><ele>410.3333333333333</ele><time>2026-04-04T07:30:51.118Z</time></trkpt><trkpt lat="43.8321808" lon="10.9322427"><ele>407.0</ele><time>2026-04-04T07:30:52.117Z</time></trkpt><trkpt lat="43.8321776" lon="10.9320227"><ele>407.0</ele><time>2026-04-04T07:30:53.118Z</time></trkpt><trkpt lat="43.832176" lon="10.9318037"><ele>407.0</ele><time>2026-04-04T07:30:54.117Z</time></trkpt><trkpt lat="43.8321745" lon="10.9315845"><ele>407.0</ele><time>2026-04-04T07:30:55.118Z</time></trkpt><trkpt lat="43.832174" lon="10.9313629"><ele>405.75</ele><time>2026-04-04T07:30:56.118Z</time></trkpt><trkpt lat="43.8321721" lon="10.9311418"><ele>404.5</ele><time>2026-04-04T07:30:57.117Z</time></trkpt><trkpt lat="43.8321721" lon="10.9309362"><ele>403.25</ele><time>2026-04-04T07:30:58.118Z</time></trkpt><trkpt lat="43.8321731" lon="10.930753"><ele>402.0</ele><time>2026-04-04T07:30:59.118Z</time></trkpt><trkpt lat="43.8321727" lon="10.9305946"><ele>399.75</ele><time>2026-04-04T07:31:00.119Z</time></trkpt><trkpt lat="43.8321796" lon="10.9304366"><ele>397.5</ele><time>2026-04-04T07:31:01.117Z</time></trkpt><trkpt lat="43.8321141" lon="10.9302424"><ele>395.25</ele><time>2026-04-04T07:31:03.117Z</time></trkpt><trkpt lat="43.8320464" lon="10.9301333"><ele>393.0</ele><time>2026-04-04T07:31:04.118Z</time></trkpt><trkpt lat="43.8319568" lon="10.930022"><ele>392.0</ele><time>2026-04-04T07:31:05.118Z</time></trkpt><trkpt lat="43.8318511" lon="10.9299038"><ele>391.0</ele><time>2026-04-04T07:31:06.117Z</time></trkpt><trkpt lat="43.8317417" lon="10.9298087"><ele>390.0</ele><time>2026-04-04T07:31:07.118Z</time></trkpt><trkpt lat="43.8316386" lon="10.9297195"><ele>389.0</ele><time>2026-04-04T07:31:08.118Z</time></trkpt><trkpt lat="43.831544" lon="10.9296162"><ele>389.0</ele><time>2026-04-04T07:31:09.118Z</time></trkpt><trkpt lat="43.8314649" lon="10.9295"><ele>389.0</ele><time>2026-04-04T07:31:10.118Z</time></trkpt><trkpt lat="43.8313921" lon="10.9293597"><ele>389.0</ele><time>2026-04-04T07:31:11.119Z</time></trkpt><trkpt lat="43.8313208" lon="10.9292037"><ele>389.0</ele><time>2026-04-04T07:31:12.118Z</time></trkpt><trkpt lat="43.8312577" lon="10.9290445"><ele>386.25</ele><time>2026-04-04T07:31:13.118Z</time></trkpt><trkpt lat="43.8311956" lon="10.9288735"><ele>383.5</ele><time>2026-04-04T07:31:14.118Z</time></trkpt><trkpt lat="43.831128" lon="10.9287184"><ele>380.75</ele><time>2026-04-04T07:31:15.117Z</time></trkpt><trkpt lat="43.831067" lon="10.9285874"><ele>378.0</ele><time>2026-04-04T07:31:16.118Z</time></trkpt><trkpt lat="43.8310093" lon="10.9284778"><ele>378.0</ele><time>2026-04-04T07:31:17.117Z</time></trkpt><trkpt lat="43.8309514" lon="10.9283784"><ele>378.0</ele><time>2026-04-04T07:31:18.118Z</time></trkpt><trkpt lat="43.8309405" lon="10.9282625"><ele>378.0</ele><time>2026-04-04T07:31:20.117Z</time></trkpt><trkpt lat="43.8310106" lon="10.9282409"><ele>378.0</ele><time>2026-04-04T07:31:22.118Z</time></trkpt><trkpt lat="43.8311452" lon="10.9283347"><ele>378.0</ele><time>2026-04-04T07:31:24.118Z</time></trkpt><trkpt lat="43.8312303" lon="10.9283914"><ele>378.0</ele><time>2026-04-04T07:31:25.118Z</time></trkpt><trkpt lat="43.8313103" lon="10.9284567"><ele>378.0</ele><time>2026-04-04T07:31:26.119Z</time></trkpt><trkpt lat="43.8313711" lon="10.9285244"><ele>378.0</ele><time>2026-04-04T07:31:27.118Z</time></trkpt><trkpt lat="43.8314366" lon="10.9285618"><ele>378.0</ele><time>2026-04-04T07:31:28.118Z</time></trkpt><trkpt lat="43.8315148" lon="10.9285279"><ele>378.0</ele><time>2026-04-04T07:31:30.118Z</time></trkpt><trkpt lat="43.8314876" lon="10.9283877"><ele>378.0</ele><time>2026-04-04T07:31:32.117Z</time></trkpt><trkpt lat="43.8314364" lon="10.9282662"><ele>374.59999999999997</ele><time>2026-04-04T07:31:33.117Z</time></trkpt><trkpt lat="43.8313628" lon="10.9281293"><ele>371.2</ele><time>2026-04-04T07:31:34.118Z</time></trkpt><trkpt lat="43.8312949" lon="10.9280251"><ele>367.8</ele><time>2026-04-04T07:31:35.118Z</time></trkpt><trkpt lat="43.83123" lon="10.9279457"><ele>364.4</ele><time>2026-04-04T07:31:36.117Z</time></trkpt><trkpt lat="43.8311896" lon="10.9278766"><ele>361.0</ele><time>2026-04-04T07:31:37.118Z</time></trkpt><trkpt lat="43.8312009" lon="10.9277728"><ele>361.0</ele><time>2026-04-04T07:31:39.118Z</time></trkpt><trkpt lat="43.8313368" lon="10.9277818"><ele>361.0</ele><time>2026-04-04T07:31:41.118Z</time></trkpt><trkpt lat="43.8314115" lon="10.9277905"><ele>361.0</ele><time>2026-04-04T07:31:42.118Z</time></trkpt><trkpt lat="43.8315235" lon="10.9278383"><ele>361.0</ele><time>2026-04-04T07:31:43.117Z</time></trkpt><trkpt lat="43.8316356" lon="10.9279057"><ele>361.0</ele><time>2026-04-04T07:31:44.117Z</time></trkpt><trkpt lat="43.8317313" lon="10.927985"><ele>361.0</ele><time>2026-04-04T07:31:45.117Z</time></trkpt><trkpt lat="43.8318203" lon="10.9280648"><ele>361.0</ele><time>2026-04-04T07:31:46.119Z</time></trkpt><trkpt lat="43.8319003" lon="10.9281344"><ele>361.0</ele><time>2026-04-04T07:31:47.118Z</time></trkpt><trkpt lat="43.8319729" lon="10.9281977"><ele>361.0</ele><time>2026-04-04T07:31:48.118Z</time></trkpt><trkpt lat="43.832053" lon="10.9282518"><ele>361.8</ele><time>2026-04-04T07:31:49.118Z</time></trkpt><trkpt lat="43.832114" lon="10.9283003"><ele>362.6</ele><time>2026-04-04T07:31:50.118Z</time></trkpt><trkpt lat="43.8321921" lon="10.9283151"><ele>363.4</ele><time>2026-04-04T07:31:51.117Z</time></trkpt><trkpt lat="43.8322725" lon="10.9283577"><ele>364.2</ele><time>2026-04-04T07:31:52.118Z</time></trkpt><trkpt lat="43.8323676" lon="10.928423"><ele>365.0</ele><time>2026-04-04T07:31:53.118Z</time></trkpt><trkpt lat="43.8324703" lon="10.9284976"><ele>365.0</ele><time>2026-04-04T07:31:54.118Z</time></trkpt><trkpt lat="43.8325779" lon="10.9285747"><ele>365.0</ele><time>2026-04-04T07:31:55.118Z</time></trkpt><trkpt lat="43.8326883" lon="10.9286619"><ele>365.0</ele><time>2026-04-04T07:31:56.118Z</time></trkpt><trkpt lat="43.8327987" lon="10.9287625"><ele>365.0</ele><time>2026-04-04T07:31:57.118Z</time></trkpt><trkpt lat="43.8328938" lon="10.928871"><ele>363.25</ele><time>2026-04-04T07:31:58.118Z</time></trkpt><trkpt lat="43.8329776" lon="10.9290017"><ele>361.5</ele><time>2026-04-04T07:31:59.117Z</time></trkpt><trkpt lat="43.833052" lon="10.9291499"><ele>359.75</ele><time>2026-04-04T07:32:00.118Z</time></trkpt><trkpt lat="43.8331182" lon="10.929305"><ele>358.0</ele><time>2026-04-04T07:32:01.118Z</time></trkpt><trkpt lat="43.8331795" lon="10.9294661"><ele>358.0</ele><time>2026-04-04T07:32:02.118Z</time></trkpt><trkpt lat="43.8332282" lon="10.9296211"><ele>358.0</ele><time>2026-04-04T07:32:03.118Z</time></trkpt><trkpt lat="43.8332613" lon="10.9297781"><ele>358.0</ele><time>2026-04-04T07:32:04.118Z</time></trkpt><trkpt lat="43.8332798" lon="10.9299187"><ele>358.0</ele><time>2026-04-04T07:32:05.117Z</time></trkpt><trkpt lat="43.8333055" lon="10.9300407"><ele>358.0</ele><time>2026-04-04T07:32:06.117Z</time></trkpt><trkpt lat="43.8333477" lon="10.9301396"><ele>359.66666666666663</ele><time>2026-04-04T07:32:07.119Z</time></trkpt><trkpt lat="43.8334069" lon="10.9302093"><ele>361.3333333333333</ele><time>2026-04-04T07:32:08.118Z</time></trkpt><trkpt lat="43.8334838" lon="10.93024"><ele>363.0</ele><time>2026-04-04T07:32:09.118Z</time></trkpt><trkpt lat="43.833558" lon="10.930216"><ele>364.6666666666667</ele><time>2026-04-04T07:32:10.118Z</time></trkpt><trkpt lat="43.8336284" lon="10.9301481"><ele>366.33333333333337</ele><time>2026-04-04T07:32:11.118Z</time></trkpt><trkpt lat="43.8336852" lon="10.9300201"><ele>368.0</ele><time>2026-04-04T07:32:12.118Z</time></trkpt><trkpt lat="43.8337518" lon="10.9298658"><ele>368.0</ele><time>2026-04-04T07:32:13.117Z</time></trkpt><trkpt lat="43.8338167" lon="10.929761"><ele>368.0</ele><time>2026-04-04T07:32:14.118Z</time></trkpt><trkpt lat="43.8338914" lon="10.9296889"><ele>368.0</ele><time>2026-04-04T07:32:15.118Z</time></trkpt><trkpt lat="43.8339863" lon="10.9296479"><ele>368.0</ele><time>2026-04-04T07:32:16.118Z</time></trkpt><trkpt lat="43.8341016" lon="10.929629"><ele>368.0</ele><time>2026-04-04T07:32:17.119Z</time></trkpt><trkpt lat="43.8341995" lon="10.9295853"><ele>368.0</ele><time>2026-04-04T07:32:18.117Z</time></trkpt><trkpt lat="43.8342816" lon="10.9295066"><ele>368.0</ele><time>2026-04-04T07:32:19.118Z</time></trkpt><trkpt lat="43.8343379" lon="10.9293924"><ele>368.0</ele><time>2026-04-04T07:32:20.118Z</time></trkpt><trkpt lat="43.8343603" lon="10.9292523"><ele>368.0</ele><time>2026-04-04T07:32:21.117Z</time></trkpt><trkpt lat="43.8343599" lon="10.9290804"><ele>368.0</ele><time>2026-04-04T07:32:22.118Z</time></trkpt><trkpt lat="43.834356" lon="10.928895"><ele>371.0</ele><time>2026-04-04T07:32:23.117Z</time></trkpt><trkpt lat="43.8343504" lon="10.9286909"><ele>374.0</ele><time>2026-04-04T07:32:24.117Z</time></trkpt><trkpt lat="43.8343444" lon="10.9284796"><ele>377.0</ele><time>2026-04-04T07:32:25.118Z</time></trkpt><trkpt lat="43.8343417" lon="10.9282727"><ele>380.0</ele><time>2026-04-04T07:32:26.117Z</time></trkpt><trkpt lat="43.8343394" lon="10.9280711"><ele>380.5</ele><time>2026-04-04T07:32:27.118Z</time></trkpt><trkpt lat="43.83433" lon="10.9278697"><ele>381.0</ele><time>2026-04-04T07:32:28.117Z</time></trkpt><trkpt lat="43.8343107" lon="10.9276774"><ele>381.5</ele><time>2026-04-04T07:32:29.118Z</time></trkpt><trkpt lat="43.8342648" lon="10.9274994"><ele>382.0</ele><time>2026-04-04T07:32:30.118Z</time></trkpt><trkpt lat="43.8342082" lon="10.9273331"><ele>374.8</ele><time>2026-04-04T07:32:31.118Z</time></trkpt><trkpt lat="43.8341471" lon="10.9271855"><ele>367.6</ele><time>2026-04-04T07:32:32.118Z</time></trkpt><trkpt lat="43.834093" lon="10.9270513"><ele>360.40000000000003</ele><time>2026-04-04T07:32:33.117Z</time></trkpt><trkpt lat="43.8340529" lon="10.9269267"><ele>353.20000000000005</ele><time>2026-04-04T07:32:34.118Z</time></trkpt><trkpt lat="43.8340498" lon="10.9268083"><ele>346.0</ele><time>2026-04-04T07:32:35.118Z</time></trkpt><trkpt lat="43.8340827" lon="10.9267142"><ele>345.20000000000005</ele><time>2026-04-04T07:32:36.119Z</time></trkpt><trkpt lat="43.834144" lon="10.9266414"><ele>344.40000000000003</ele><time>2026-04-04T07:32:37.118Z</time></trkpt><trkpt lat="43.8342297" lon="10.9265915"><ele>343.6</ele><time>2026-04-04T07:32:38.118Z</time></trkpt><trkpt lat="43.8343338" lon="10.9265527"><ele>342.8</ele><time>2026-04-04T07:32:39.119Z</time></trkpt><trkpt lat="43.8344512" lon="10.9265189"><ele>342.0</ele><time>2026-04-04T07:32:40.118Z</time></trkpt><trkpt lat="43.8345762" lon="10.9264869"><ele>345.25</ele><time>2026-04-04T07:32:41.118Z</time></trkpt><trkpt lat="43.8347001" lon="10.9264735"><ele>348.5</ele><time>2026-04-04T07:32:42.118Z</time></trkpt><trkpt lat="43.8348261" lon="10.9264827"><ele>351.75</ele><time>2026-04-04T07:32:43.118Z</time></trkpt><trkpt lat="43.8349568" lon="10.9265086"><ele>355.0</ele><time>2026-04-04T07:32:44.117Z</time></trkpt><trkpt lat="43.8350915" lon="10.9265406"><ele>352.75</ele><time>2026-04-04T07:32:45.118Z</time></trkpt><trkpt lat="43.8352233" lon="10.926572"><ele>350.5</ele><time>2026-04-04T07:32:46.118Z</time></trkpt><trkpt lat="43.8353398" lon="10.9266076"><ele>348.25</ele><time>2026-04-04T07:32:47.117Z</time></trkpt><trkpt lat="43.8354501" lon="10.9266572"><ele>346.0</ele><time>2026-04-04T07:32:48.118Z</time></trkpt><trkpt lat="43.835549" lon="10.9267271"><ele>353.25</ele><time>2026-04-04T07:32:49.118Z</time></trkpt><trkpt lat="43.83564" lon="10.9268251"><ele>360.5</ele><time>2026-04-04T07:32:50.117Z</time></trkpt><trkpt lat="43.8357307" lon="10.9269391"><ele>367.75</ele><time>2026-04-04T07:32:51.117Z</time></trkpt><trkpt lat="43.8358218" lon="10.9270577"><ele>375.0</ele><time>2026-04-04T07:32:52.119Z</time></trkpt><trkpt lat="43.8359043" lon="10.9271694"><ele>375.0</ele><time>2026-04-04T07:32:53.118Z</time></trkpt><trkpt lat="43.8359755" lon="10.9272541"><ele>375.0</ele><time>2026-04-04T07:32:54.117Z</time></trkpt><trkpt lat="43.8360497" lon="10.9273157"><ele>375.0</ele><time>2026-04-04T07:32:55.117Z</time></trkpt><trkpt lat="43.8361238" lon="10.9273357"><ele>375.0</ele><time>2026-04-04T07:32:56.117Z</time></trkpt><trkpt lat="43.8361924" lon="10.9273109"><ele>375.0</ele><time>2026-04-04T07:32:57.118Z</time></trkpt><trkpt lat="43.8362554" lon="10.9272479"><ele>375.0</ele><time>2026-04-04T07:32:58.117Z</time></trkpt><trkpt lat="43.8363165" lon="10.9271315"><ele>375.0</ele><time>2026-04-04T07:32:59.118Z</time></trkpt><trkpt lat="43.836393" lon="10.9270021"><ele>375.0</ele><time>2026-04-04T07:33:00.117Z</time></trkpt><trkpt lat="43.8364953" lon="10.9268844"><ele>375.0</ele><time>2026-04-04T07:33:01.118Z</time></trkpt><trkpt lat="43.8366227" lon="10.9267605"><ele>375.0</ele><time>2026-04-04T07:33:02.118Z</time></trkpt><trkpt lat="43.8367388" lon="10.9266536"><ele>375.0</ele><time>2026-04-04T07:33:03.117Z</time></trkpt><trkpt lat="43.8368481" lon="10.9265532"><ele>375.0</ele><time>2026-04-04T07:33:04.118Z</time></trkpt><trkpt lat="43.8369534" lon="10.9264634"><ele>375.0</ele><time>2026-04-04T07:33:05.118Z</time></trkpt><trkpt lat="43.83703" lon="10.9263655"><ele>375.0</ele><time>2026-04-04T07:33:06.118Z</time></trkpt><trkpt lat="43.8370923" lon="10.9262647"><ele>375.0</ele><time>2026-04-04T07:33:07.118Z</time></trkpt><trkpt lat="43.8371522" lon="10.9261506"><ele>375.0</ele><time>2026-04-04T07:33:08.118Z</time></trkpt><trkpt lat="43.8370624" lon="10.9259974"><ele>375.0</ele><time>2026-04-04T07:33:09.118Z</time></trkpt><trkpt lat="43.8370135" lon="10.9258687"><ele>375.0</ele><time>2026-04-04T07:33:10.118Z</time></trkpt><trkpt lat="43.836942" lon="10.9257265"><ele>371.75</ele><time>2026-04-04T07:33:11.118Z</time></trkpt><trkpt lat="43.8368634" lon="10.9255724"><ele>368.5</ele><time>2026-04-04T07:33:12.117Z</time></trkpt><trkpt lat="43.8367907" lon="10.925421"><ele>365.25</ele><time>2026-04-04T07:33:13.118Z</time></trkpt><trkpt lat="43.8367309" lon="10.9252756"><ele>362.0</ele><time>2026-04-04T07:33:14.117Z</time></trkpt><trkpt lat="43.8366981" lon="10.9251297"><ele>358.75</ele><time>2026-04-04T07:33:15.118Z</time></trkpt><trkpt lat="43.8366863" lon="10.9249786"><ele>355.5</ele><time>2026-04-04T07:33:16.118Z</time></trkpt><trkpt lat="43.8366922" lon="10.9248237"><ele>352.25</ele><time>2026-04-04T07:33:17.117Z</time></trkpt><trkpt lat="43.8367112" lon="10.9246659"><ele>349.0</ele><time>2026-04-04T07:33:18.118Z</time></trkpt><trkpt lat="43.8367349" lon="10.9245057"><ele>349.0</ele><time>2026-04-04T07:33:19.118Z</time></trkpt><trkpt lat="43.8367597" lon="10.9243515"><ele>349.0</ele><time>2026-04-04T07:33:20.118Z</time></trkpt><trkpt lat="43.8367652" lon="10.9241891"><ele>349.0</ele><time>2026-04-04T07:33:21.118Z</time></trkpt><trkpt lat="43.8367323" lon="10.9240549"><ele>349.0</ele><time>2026-04-04T07:33:22.118Z</time></trkpt><trkpt lat="43.8367077" lon="10.9239041"><ele>349.0</ele><time>2026-04-04T07:33:23.117Z</time></trkpt><trkpt lat="43.8366649" lon="10.9237816"><ele>351.0</ele><time>2026-04-04T07:33:24.118Z</time></trkpt><trkpt lat="43.836537" lon="10.9237312"><ele>353.0</ele><time>2026-04-04T07:33:25.117Z</time></trkpt><trkpt lat="43.8363831" lon="10.923644"><ele>355.0</ele><time>2026-04-04T07:33:26.118Z</time></trkpt><trkpt lat="43.8361908" lon="10.9235741"><ele>355.0</ele><time>2026-04-04T07:33:27.118Z</time></trkpt><trkpt lat="43.836045" lon="10.9234966"><ele>355.0</ele><time>2026-04-04T07:33:28.117Z</time></trkpt><trkpt lat="43.8358962" lon="10.9234181"><ele>355.0</ele><time>2026-04-04T07:33:29.118Z</time></trkpt><trkpt lat="43.8357628" lon="10.9233274"><ele>354.75</ele><time>2026-04-04T07:33:30.117Z</time></trkpt><trkpt lat="43.8356514" lon="10.9232165"><ele>354.5</ele><time>2026-04-04T07:33:31.118Z</time></trkpt><trkpt lat="43.8355654" lon="10.9230871"><ele>354.25</ele><time>2026-04-04T07:33:32.118Z</time></trkpt><trkpt lat="43.8354962" lon="10.9229314"><ele>354.0</ele><time>2026-04-04T07:33:33.118Z</time></trkpt><trkpt lat="43.8354592" lon="10.9227412"><ele>356.3333333333333</ele><time>2026-04-04T07:33:34.118Z</time></trkpt><trkpt lat="43.83543" lon="10.9225402"><ele>358.66666666666663</ele><time>2026-04-04T07:33:35.117Z</time></trkpt><trkpt lat="43.8353935" lon="10.9223336"><ele>361.0</ele><time>2026-04-04T07:33:36.118Z</time></trkpt><trkpt lat="43.835336" lon="10.9221392"><ele>361.0</ele><time>2026-04-04T07:33:37.118Z</time></trkpt><trkpt lat="43.8352638" lon="10.9219527"><ele>361.0</ele><time>2026-04-04T07:33:38.117Z</time></trkpt><trkpt lat="43.8351802" lon="10.9217663"><ele>361.0</ele><time>2026-04-04T07:33:39.118Z</time></trkpt><trkpt lat="43.835093" lon="10.9215933"><ele>357.0</ele><time>2026-04-04T07:33:40.118Z</time></trkpt><trkpt lat="43.8350031" lon="10.9214189"><ele>353.0</ele><time>2026-04-04T07:33:41.118Z</time></trkpt><trkpt lat="43.83491" lon="10.9212428"><ele>349.0</ele><time>2026-04-04T07:33:42.117Z</time></trkpt><trkpt lat="43.834819" lon="10.9210697"><ele>351.5</ele><time>2026-04-04T07:33:43.118Z</time></trkpt><trkpt lat="43.8347299" lon="10.9208954"><ele>354.0</ele><time>2026-04-04T07:33:44.117Z</time></trkpt><trkpt lat="43.8346417" lon="10.9207295"><ele>356.5</ele><time>2026-04-04T07:33:45.118Z</time></trkpt><trkpt lat="43.8345627" lon="10.9205749"><ele>359.0</ele><time>2026-04-04T07:33:46.118Z</time></trkpt><trkpt lat="43.8344931" lon="10.9204371"><ele>359.0</ele><time>2026-04-04T07:33:47.117Z</time></trkpt><trkpt lat="43.8344383" lon="10.920302"><ele>359.0</ele><time>2026-04-04T07:33:48.118Z</time></trkpt><trkpt lat="43.8343985" lon="10.9201614"><ele>359.0</ele><time>2026-04-04T07:33:49.119Z</time></trkpt><trkpt lat="43.8343823" lon="10.9200206"><ele>359.0</ele><time>2026-04-04T07:33:50.118Z</time></trkpt><trkpt lat="43.834388" lon="10.9198733"><ele>359.0</ele><time>2026-04-04T07:33:51.118Z</time></trkpt><trkpt lat="43.8344138" lon="10.9197202"><ele>360.2</ele><time>2026-04-04T07:33:52.118Z</time></trkpt><trkpt lat="43.8344506" lon="10.9195821"><ele>361.4</ele><time>2026-04-04T07:33:53.118Z</time></trkpt><trkpt lat="43.8345056" lon="10.919457"><ele>362.6</ele><time>2026-04-04T07:33:54.119Z</time></trkpt><trkpt lat="43.8345737" lon="10.9193524"><ele>363.8</ele><time>2026-04-04T07:33:55.118Z</time></trkpt><trkpt lat="43.8346616" lon="10.9192621"><ele>365.0</ele><time>2026-04-04T07:33:56.117Z</time></trkpt><trkpt lat="43.8347575" lon="10.9191853"><ele>362.6</ele><time>2026-04-04T07:33:57.118Z</time></trkpt><trkpt lat="43.8348583" lon="10.9191136"><ele>360.2</ele><time>2026-04-04T07:33:58.117Z</time></trkpt><trkpt lat="43.8349577" lon="10.919045"><ele>357.79999999999995</ele><time>2026-04-04T07:33:59.119Z</time></trkpt><trkpt lat="43.8350577" lon="10.9189754"><ele>355.4</ele><time>2026-04-04T07:34:00.118Z</time></trkpt><trkpt lat="43.8351463" lon="10.9189123"><ele>353.0</ele><time>2026-04-04T07:34:01.118Z</time></trkpt><trkpt lat="43.8352296" lon="10.9188595"><ele>353.0</ele><time>2026-04-04T07:34:02.117Z</time></trkpt><trkpt lat="43.8353049" lon="10.9188137"><ele>353.0</ele><time>2026-04-04T07:34:03.117Z</time></trkpt><trkpt lat="43.8353693" lon="10.9187807"><ele>353.0</ele><time>2026-04-04T07:34:04.118Z</time></trkpt><trkpt lat="43.835432" lon="10.9187646"><ele>353.0</ele><time>2026-04-04T07:34:05.117Z</time></trkpt><trkpt lat="43.8355052" lon="10.9187683"><ele>353.0</ele><time>2026-04-04T07:34:06.117Z</time></trkpt><trkpt lat="43.8355854" lon="10.9187947"><ele>353.0</ele><time>2026-04-04T07:34:07.117Z</time></trkpt><trkpt lat="43.8356715" lon="10.9188401"><ele>353.0</ele><time>2026-04-04T07:34:08.118Z</time></trkpt><trkpt lat="43.8357616" lon="10.9189103"><ele>353.0</ele><time>2026-04-04T07:34:09.119Z</time></trkpt><trkpt lat="43.8358594" lon="10.9189845"><ele>353.0</ele><time>2026-04-04T07:34:10.118Z</time></trkpt><trkpt lat="43.8359605" lon="10.9190448"><ele>353.0</ele><time>2026-04-04T07:34:11.118Z</time></trkpt><trkpt lat="43.8360735" lon="10.9191049"><ele>353.0</ele><time>2026-04-04T07:34:12.118Z</time></trkpt><trkpt lat="43.8362308" lon="10.9190524"><ele>351.25</ele><time>2026-04-04T07:34:13.118Z</time></trkpt><trkpt lat="43.8363573" lon="10.9190613"><ele>349.5</ele><time>2026-04-04T07:34:14.118Z</time></trkpt><trkpt lat="43.8364795" lon="10.919078"><ele>347.75</ele><time>2026-04-04T07:34:15.119Z</time></trkpt><trkpt lat="43.8365922" lon="10.9191258"><ele>346.0</ele><time>2026-04-04T07:34:16.118Z</time></trkpt><trkpt lat="43.836697" lon="10.9191945"><ele>345.8</ele><time>2026-04-04T07:34:17.117Z</time></trkpt><trkpt lat="43.8367967" lon="10.9192582"><ele>345.6</ele><time>2026-04-04T07:34:18.118Z</time></trkpt><trkpt lat="43.8368968" lon="10.919288"><ele>345.4</ele><time>2026-04-04T07:34:19.118Z</time></trkpt><trkpt lat="43.8369949" lon="10.9192752"><ele>345.2</ele><time>2026-04-04T07:34:20.118Z</time></trkpt><trkpt lat="43.8370905" lon="10.9192294"><ele>345.0</ele><time>2026-04-04T07:34:21.119Z</time></trkpt><trkpt lat="43.8371899" lon="10.9191778"><ele>345.0</ele><time>2026-04-04T07:34:22.119Z</time></trkpt><trkpt lat="43.8372998" lon="10.9191402"><ele>345.0</ele><time>2026-04-04T07:34:23.117Z</time></trkpt><trkpt lat="43.8374215" lon="10.9191392"><ele>345.0</ele><time>2026-04-04T07:34:24.117Z</time></trkpt><trkpt lat="43.8375497" lon="10.9191626"><ele>345.0</ele><time>2026-04-04T07:34:25.118Z</time></trkpt><trkpt lat="43.8376958" lon="10.9192058"><ele>352.0</ele><time>2026-04-04T07:34:26.117Z</time></trkpt><trkpt lat="43.8378572" lon="10.9192603"><ele>359.0</ele><time>2026-04-04T07:34:27.117Z</time></trkpt><trkpt lat="43.8380494" lon="10.919311"><ele>366.0</ele><time>2026-04-04T07:34:28.118Z</time></trkpt><trkpt lat="43.8382353" lon="10.9193729"><ele>366.0</ele><time>2026-04-04T07:34:29.118Z</time></trkpt><trkpt lat="43.8384115" lon="10.9194296"><ele>366.0</ele><time>2026-04-04T07:34:30.117Z</time></trkpt><trkpt lat="43.8385797" lon="10.9194862"><ele>366.0</ele><time>2026-04-04T07:34:31.118Z</time></trkpt><trkpt lat="43.8387401" lon="10.9195347"><ele>363.25</ele><time>2026-04-04T07:34:32.118Z</time></trkpt><trkpt lat="43.8388929" lon="10.9195657"><ele>360.5</ele><time>2026-04-04T07:34:33.117Z</time></trkpt><trkpt lat="43.8390389" lon="10.9196179"><ele>357.75</ele><time>2026-04-04T07:34:34.118Z</time></trkpt><trkpt lat="43.8391646" lon="10.9196499"><ele>355.0</ele><time>2026-04-04T07:34:35.118Z</time></trkpt><trkpt lat="43.839283" lon="10.9196725"><ele>351.0</ele><time>2026-04-04T07:34:36.118Z</time></trkpt><trkpt lat="43.839384" lon="10.9196217"><ele>347.0</ele><time>2026-04-04T07:34:37.118Z</time></trkpt><trkpt lat="43.8394755" lon="10.9195973"><ele>343.0</ele><time>2026-04-04T07:34:38.118Z</time></trkpt><trkpt lat="43.8395739" lon="10.9195624"><ele>339.0</ele><time>2026-04-04T07:34:39.119Z</time></trkpt><trkpt lat="43.8396768" lon="10.919523"><ele>335.0</ele><time>2026-04-04T07:34:40.118Z</time></trkpt><trkpt lat="43.8396434" lon="10.9194356"><ele>335.0</ele><time>2026-04-04T07:34:41.118Z</time></trkpt><trkpt lat="43.8397065" lon="10.9193396"><ele>335.0</ele><time>2026-04-04T07:34:43.117Z</time></trkpt><trkpt lat="43.8396798" lon="10.9192142"><ele>335.0</ele><time>2026-04-04T07:34:46.117Z</time></trkpt><trkpt lat="43.8396619" lon="10.9190634"><ele>335.0</ele><time>2026-04-04T07:34:48.118Z</time></trkpt><trkpt lat="43.8396463" lon="10.9189727"><ele>335.0</ele><time>2026-04-04T07:34:49.119Z</time></trkpt><trkpt lat="43.8396345" lon="10.9188637"><ele>335.0</ele><time>2026-04-04T07:34:50.118Z</time></trkpt><trkpt lat="43.8396328" lon="10.9187336"><ele>334.0</ele><time>2026-04-04T07:34:51.117Z</time></trkpt><trkpt lat="43.8396235" lon="10.9185895"><ele>333.0</ele><time>2026-04-04T07:34:52.118Z</time></trkpt><trkpt lat="43.8396187" lon="10.9183521"><ele>332.0</ele><time>2026-04-04T07:34:53.117Z</time></trkpt><trkpt lat="43.8396197" lon="10.9181837"><ele>331.0</ele><time>2026-04-04T07:34:54.118Z</time></trkpt><trkpt lat="43.839629" lon="10.9180278"><ele>332.66666666666663</ele><time>2026-04-04T07:34:55.118Z</time></trkpt><trkpt lat="43.8396396" lon="10.9178937"><ele>334.3333333333333</ele><time>2026-04-04T07:34:56.118Z</time></trkpt><trkpt lat="43.8396628" lon="10.9177823"><ele>336.0</ele><time>2026-04-04T07:34:57.118Z</time></trkpt><trkpt lat="43.8396865" lon="10.9176895"><ele>337.6666666666667</ele><time>2026-04-04T07:34:58.118Z</time></trkpt><trkpt lat="43.8397236" lon="10.9176009"><ele>339.33333333333337</ele><time>2026-04-04T07:34:59.118Z</time></trkpt><trkpt lat="43.8397587" lon="10.9175172"><ele>341.0</ele><time>2026-04-04T07:35:00.118Z</time></trkpt><trkpt lat="43.8398084" lon="10.9174356"><ele>344.25</ele><time>2026-04-04T07:35:01.117Z</time></trkpt><trkpt lat="43.8399429" lon="10.9173576"><ele>347.5</ele><time>2026-04-04T07:35:02.118Z</time></trkpt><trkpt lat="43.8400232" lon="10.9172849"><ele>350.75</ele><time>2026-04-04T07:35:03.118Z</time></trkpt><trkpt lat="43.8401204" lon="10.9172147"><ele>354.0</ele><time>2026-04-04T07:35:04.117Z</time></trkpt><trkpt lat="43.8402151" lon="10.9171443"><ele>355.25</ele><time>2026-04-04T07:35:05.118Z</time></trkpt><trkpt lat="43.84031" lon="10.9170766"><ele>356.5</ele><time>2026-04-04T07:35:06.119Z</time></trkpt><trkpt lat="43.8404049" lon="10.917002"><ele>357.75</ele><time>2026-04-04T07:35:07.118Z</time></trkpt><trkpt lat="43.8405036" lon="10.9169035"><ele>359.0</ele><time>2026-04-04T07:35:08.118Z</time></trkpt><trkpt lat="43.8406152" lon="10.9168121"><ele>361.0</ele><time>2026-04-04T07:35:09.117Z</time></trkpt><trkpt lat="43.8407201" lon="10.916695"><ele>363.0</ele><time>2026-04-04T07:35:10.119Z</time></trkpt><trkpt lat="43.8408306" lon="10.9166156"><ele>365.0</ele><time>2026-04-04T07:35:11.118Z</time></trkpt><trkpt lat="43.8409484" lon="10.9165607"><ele>367.0</ele><time>2026-04-04T07:35:12.118Z</time></trkpt><trkpt lat="43.8410722" lon="10.9165384"><ele>367.0</ele><time>2026-04-04T07:35:13.117Z</time></trkpt><trkpt lat="43.8412114" lon="10.9165325"><ele>367.0</ele><time>2026-04-04T07:35:14.118Z</time></trkpt><trkpt lat="43.8413441" lon="10.9165117"><ele>367.0</ele><time>2026-04-04T07:35:15.119Z</time></trkpt><trkpt lat="43.8414733" lon="10.9164837"><ele>367.0</ele><time>2026-04-04T07:35:16.118Z</time></trkpt><trkpt lat="43.8416103" lon="10.9164507"><ele>367.0</ele><time>2026-04-04T07:35:17.118Z</time></trkpt><trkpt lat="43.8417457" lon="10.9164112"><ele>367.0</ele><time>2026-04-04T07:35:18.118Z</time></trkpt><trkpt lat="43.8418764" lon="10.9163602"><ele>367.0</ele><time>2026-04-04T07:35:19.117Z</time></trkpt><trkpt lat="43.8419995" lon="10.9162914"><ele>367.0</ele><time>2026-04-04T07:35:20.117Z</time></trkpt><trkpt lat="43.8420921" lon="10.9161977"><ele>366.0</ele><time>2026-04-04T07:35:21.118Z</time></trkpt><trkpt lat="43.8421639" lon="10.9160888"><ele>365.0</ele><time>2026-04-04T07:35:22.119Z</time></trkpt><trkpt lat="43.8422084" lon="10.9159561"><ele>364.0</ele><time>2026-04-04T07:35:23.118Z</time></trkpt><trkpt lat="43.8422337" lon="10.9158012"><ele>363.0</ele><time>2026-04-04T07:35:24.117Z</time></trkpt><trkpt lat="43.8422352" lon="10.9156285"><ele>363.0</ele><time>2026-04-04T07:35:25.117Z</time></trkpt><trkpt lat="43.8422286" lon="10.9154353"><ele>363.0</ele><time>2026-04-04T07:35:26.118Z</time></trkpt><trkpt lat="43.8421984" lon="10.9152425"><ele>363.0</ele><time>2026-04-04T07:35:27.118Z</time></trkpt><trkpt lat="43.8421746" lon="10.9150441"><ele>363.0</ele><time>2026-04-04T07:35:28.118Z</time></trkpt><trkpt lat="43.8421429" lon="10.914852"><ele>362.75</ele><time>2026-04-04T07:35:29.118Z</time></trkpt><trkpt lat="43.8421075" lon="10.914666"><ele>362.5</ele><time>2026-04-04T07:35:30.118Z</time></trkpt><trkpt lat="43.8420747" lon="10.9144919"><ele>362.25</ele><time>2026-04-04T07:35:31.117Z</time></trkpt><trkpt lat="43.8420666" lon="10.9143305"><ele>362.0</ele><time>2026-04-04T07:35:32.118Z</time></trkpt><trkpt lat="43.8420785" lon="10.9141862"><ele>361.75</ele><time>2026-04-04T07:35:33.118Z</time></trkpt><trkpt lat="43.8421239" lon="10.9140616"><ele>361.5</ele><time>2026-04-04T07:35:34.118Z</time></trkpt><trkpt lat="43.8421615" lon="10.913913"><ele>361.25</ele><time>2026-04-04T07:35:35.117Z</time></trkpt><trkpt lat="43.842189" lon="10.9137517"><ele>361.0</ele><time>2026-04-04T07:35:36.117Z</time></trkpt><trkpt lat="43.8421928" lon="10.9135569"><ele>362.66666666666663</ele><time>2026-04-04T07:35:37.118Z</time></trkpt><trkpt lat="43.8422006" lon="10.9133412"><ele>364.3333333333333</ele><time>2026-04-04T07:35:38.118Z</time></trkpt><trkpt lat="43.8422082" lon="10.9131089"><ele>366.0</ele><time>2026-04-04T07:35:39.118Z</time></trkpt><trkpt lat="43.8422139" lon="10.9128674"><ele>366.0</ele><time>2026-04-04T07:35:40.118Z</time></trkpt><trkpt lat="43.8422171" lon="10.9126216"><ele>366.0</ele><time>2026-04-04T07:35:41.118Z</time></trkpt><trkpt lat="43.8422226" lon="10.9123752"><ele>366.0</ele><time>2026-04-04T07:35:42.118Z</time></trkpt><trkpt lat="43.8422302" lon="10.9121313"><ele>368.6666666666667</ele><time>2026-04-04T07:35:43.118Z</time></trkpt><trkpt lat="43.8422394" lon="10.9119002"><ele>371.33333333333337</ele><time>2026-04-04T07:35:44.118Z</time></trkpt><trkpt lat="43.8422467" lon="10.9116807"><ele>374.0</ele><time>2026-04-04T07:35:45.118Z</time></trkpt><trkpt lat="43.842246" lon="10.9114599"><ele>376.0</ele><time>2026-04-04T07:35:46.119Z</time></trkpt><trkpt lat="43.8422388" lon="10.9112439"><ele>378.0</ele><time>2026-04-04T07:35:47.117Z</time></trkpt><trkpt lat="43.8422208" lon="10.9110308"><ele>380.0</ele><time>2026-04-04T07:35:48.118Z</time></trkpt><trkpt lat="43.8421963" lon="10.9108185"><ele>380.2</ele><time>2026-04-04T07:35:49.118Z</time></trkpt><trkpt lat="43.8421729" lon="10.9106299"><ele>380.4</ele><time>2026-04-04T07:35:50.118Z</time></trkpt><trkpt lat="43.8421546" lon="10.910466"><ele>380.6</ele><time>2026-04-04T07:35:51.118Z</time></trkpt><trkpt lat="43.8421522" lon="10.9103307"><ele>380.8</ele><time>2026-04-04T07:35:52.117Z</time></trkpt><trkpt lat="43.8421748" lon="10.9102069"><ele>381.0</ele><time>2026-04-04T07:35:53.118Z</time></trkpt><trkpt lat="43.8422161" lon="10.9100684"><ele>381.5</ele><time>2026-04-04T07:35:54.119Z</time></trkpt><trkpt lat="43.842266" lon="10.9099234"><ele>382.0</ele><time>2026-04-04T07:35:55.117Z</time></trkpt><trkpt lat="43.8423341" lon="10.909779"><ele>382.5</ele><time>2026-04-04T07:35:56.119Z</time></trkpt><trkpt lat="43.8424214" lon="10.9096378"><ele>383.0</ele><time>2026-04-04T07:35:57.119Z</time></trkpt><trkpt lat="43.8425182" lon="10.9094983"><ele>383.0</ele><time>2026-04-04T07:35:58.118Z</time></trkpt><trkpt lat="43.8426156" lon="10.9093497"><ele>383.0</ele><time>2026-04-04T07:35:59.118Z</time></trkpt><trkpt lat="43.8427073" lon="10.9091867"><ele>383.0</ele><time>2026-04-04T07:36:00.118Z</time></trkpt><trkpt lat="43.8427818" lon="10.9090072"><ele>383.0</ele><time>2026-04-04T07:36:01.118Z</time></trkpt><trkpt lat="43.8428347" lon="10.9088176"><ele>384.0</ele><time>2026-04-04T07:36:02.117Z</time></trkpt><trkpt lat="43.842861" lon="10.908617"><ele>385.0</ele><time>2026-04-04T07:36:03.118Z</time></trkpt><trkpt lat="43.8428574" lon="10.9084186"><ele>386.0</ele><time>2026-04-04T07:36:04.118Z</time></trkpt><trkpt lat="43.842834" lon="10.9082548"><ele>387.0</ele><time>2026-04-04T07:36:05.118Z</time></trkpt><trkpt lat="43.8428159" lon="10.9081235"><ele>388.20000000000005</ele><time>2026-04-04T07:36:06.118Z</time></trkpt><trkpt lat="43.8428203" lon="10.9080111"><ele>389.4</ele><time>2026-04-04T07:36:07.118Z</time></trkpt><trkpt lat="43.8428572" lon="10.9079272"><ele>390.6</ele><time>2026-04-04T07:36:08.118Z</time></trkpt><trkpt lat="43.8429169" lon="10.9078428"><ele>391.79999999999995</ele><time>2026-04-04T07:36:09.118Z</time></trkpt><trkpt lat="43.8429877" lon="10.9077496"><ele>393.0</ele><time>2026-04-04T07:36:10.117Z</time></trkpt><trkpt lat="43.8430666" lon="10.9076331"><ele>394.5</ele><time>2026-04-04T07:36:11.118Z</time></trkpt><trkpt lat="43.8431594" lon="10.9074991"><ele>396.0</ele><time>2026-04-04T07:36:12.117Z</time></trkpt><trkpt lat="43.8432547" lon="10.907365"><ele>397.5</ele><time>2026-04-04T07:36:13.118Z</time></trkpt><trkpt lat="43.8433607" lon="10.9072054"><ele>399.0</ele><time>2026-04-04T07:36:14.117Z</time></trkpt><trkpt lat="43.8434614" lon="10.9070348"><ele>404.0</ele><time>2026-04-04T07:36:15.119Z</time></trkpt><trkpt lat="43.8435675" lon="10.9068523"><ele>409.0</ele><time>2026-04-04T07:36:16.118Z</time></trkpt><trkpt lat="43.8436749" lon="10.9066401"><ele>414.0</ele><time>2026-04-04T07:36:17.117Z</time></trkpt><trkpt lat="43.8437937" lon="10.9063976"><ele>414.0</ele><time>2026-04-04T07:36:18.118Z</time></trkpt><trkpt lat="43.8439083" lon="10.906188"><ele>414.0</ele><time>2026-04-04T07:36:19.119Z</time></trkpt><trkpt lat="43.8440061" lon="10.9059991"><ele>414.0</ele><time>2026-04-04T07:36:20.118Z</time></trkpt><trkpt lat="43.844083" lon="10.9058353"><ele>414.75</ele><time>2026-04-04T07:36:21.118Z</time></trkpt><trkpt lat="43.8441488" lon="10.9057048"><ele>415.5</ele><time>2026-04-04T07:36:22.118Z</time></trkpt><trkpt lat="43.8442302" lon="10.9056015"><ele>416.25</ele><time>2026-04-04T07:36:23.118Z</time></trkpt><trkpt lat="43.844329" lon="10.9055189"><ele>417.0</ele><time>2026-04-04T07:36:24.117Z</time></trkpt><trkpt lat="43.8444431" lon="10.9054549"><ele>417.0</ele><time>2026-04-04T07:36:25.117Z</time></trkpt><trkpt lat="43.8445375" lon="10.905412"><ele>417.0</ele><time>2026-04-04T07:36:26.117Z</time></trkpt><trkpt lat="43.8446142" lon="10.905383"><ele>417.0</ele><time>2026-04-04T07:36:27.118Z</time></trkpt><trkpt lat="43.8447298" lon="10.9053679"><ele>417.0</ele><time>2026-04-04T07:36:29.118Z</time></trkpt><trkpt lat="43.8448112" lon="10.9053543"><ele>417.0</ele><time>2026-04-04T07:36:31.117Z</time></trkpt><trkpt lat="43.8448791" lon="10.9053339"><ele>417.0</ele><time>2026-04-04T07:36:33.118Z</time></trkpt><trkpt lat="43.8449689" lon="10.9052866"><ele>417.0</ele><time>2026-04-04T07:36:35.118Z</time></trkpt><trkpt lat="43.8450754" lon="10.9052486"><ele>417.0</ele><time>2026-04-04T07:36:37.117Z</time></trkpt><trkpt lat="43.8452076" lon="10.9052368"><ele>417.0</ele><time>2026-04-04T07:36:39.118Z</time></trkpt><trkpt lat="43.8452766" lon="10.9052506"><ele>417.0</ele><time>2026-04-04T07:36:40.118Z</time></trkpt><trkpt lat="43.8453556" lon="10.9052732"><ele>417.0</ele><time>2026-04-04T07:36:41.118Z</time></trkpt><trkpt lat="43.8454392" lon="10.905285"><ele>417.1666666666667</ele><time>2026-04-04T07:36:42.118Z</time></trkpt><trkpt lat="43.845523" lon="10.9052781"><ele>417.33333333333337</ele><time>2026-04-04T07:36:43.118Z</time></trkpt><trkpt lat="43.8456071" lon="10.9052643"><ele>417.5</ele><time>2026-04-04T07:36:44.119Z</time></trkpt><trkpt lat="43.8456913" lon="10.9052397"><ele>417.6666666666667</ele><time>2026-04-04T07:36:45.119Z</time></trkpt><trkpt lat="43.8457715" lon="10.9052115"><ele>417.83333333333337</ele><time>2026-04-04T07:36:46.118Z</time></trkpt><trkpt lat="43.8458526" lon="10.9051652"><ele>418.0</ele><time>2026-04-04T07:36:47.117Z</time></trkpt><trkpt lat="43.8459314" lon="10.9050995"><ele>416.79999999999995</ele><time>2026-04-04T07:36:48.118Z</time></trkpt><trkpt lat="43.8459928" lon="10.9050165"><ele>415.6</ele><time>2026-04-04T07:36:49.117Z</time></trkpt><trkpt lat="43.8460354" lon="10.9049137"><ele>414.4</ele><time>2026-04-04T07:36:50.118Z</time></trkpt><trkpt lat="43.8460531" lon="10.9047928"><ele>413.20000000000005</ele><time>2026-04-04T07:36:51.118Z</time></trkpt><trkpt lat="43.8460521" lon="10.9046557"><ele>412.0</ele><time>2026-04-04T07:36:52.118Z</time></trkpt><trkpt lat="43.8460362" lon="10.9045129"><ele>412.0</ele><time>2026-04-04T07:36:53.118Z</time></trkpt><trkpt lat="43.8460127" lon="10.9043622"><ele>412.0</ele><time>2026-04-04T07:36:54.118Z</time></trkpt><trkpt lat="43.8459836" lon="10.9042086"><ele>412.0</ele><time>2026-04-04T07:36:55.118Z</time></trkpt><trkpt lat="43.8459536" lon="10.9040489"><ele>412.0</ele><time>2026-04-04T07:36:56.118Z</time></trkpt><trkpt lat="43.8459309" lon="10.9038909"><ele>408.8</ele><time>2026-04-04T07:36:57.118Z</time></trkpt><trkpt lat="43.845913" lon="10.9037361"><ele>405.6</ele><time>2026-04-04T07:36:58.117Z</time></trkpt><trkpt lat="43.8458945" lon="10.9035856"><ele>402.40000000000003</ele><time>2026-04-04T07:36:59.118Z</time></trkpt><trkpt lat="43.845879" lon="10.9034451"><ele>399.20000000000005</ele><time>2026-04-04T07:37:00.117Z</time></trkpt><trkpt lat="43.8458711" lon="10.9033122"><ele>396.0</ele><time>2026-04-04T07:37:01.117Z</time></trkpt><trkpt lat="43.8458826" lon="10.9031887"><ele>396.0</ele><time>2026-04-04T07:37:02.117Z</time></trkpt><trkpt lat="43.8458999" lon="10.9030744"><ele>396.0</ele><time>2026-04-04T07:37:03.118Z</time></trkpt><trkpt lat="43.8459336" lon="10.9029654"><ele>396.0</ele><time>2026-04-04T07:37:04.118Z</time></trkpt><trkpt lat="43.8459818" lon="10.9028575"><ele>396.0</ele><time>2026-04-04T07:37:05.118Z</time></trkpt><trkpt lat="43.8460393" lon="10.902754"><ele>396.0</ele><time>2026-04-04T07:37:06.118Z</time></trkpt><trkpt lat="43.8461126" lon="10.9026564"><ele>398.8</ele><time>2026-04-04T07:37:07.118Z</time></trkpt><trkpt lat="43.8461909" lon="10.9025591"><ele>401.6</ele><time>2026-04-04T07:37:08.118Z</time></trkpt><trkpt lat="43.8462718" lon="10.9024613"><ele>404.4</ele><time>2026-04-04T07:37:09.118Z</time></trkpt><trkpt lat="43.8463563" lon="10.9023631"><ele>407.2</ele><time>2026-04-04T07:37:10.118Z</time></trkpt><trkpt lat="43.8464389" lon="10.9022631"><ele>410.0</ele><time>2026-04-04T07:37:11.117Z</time></trkpt><trkpt lat="43.8465168" lon="10.9021652"><ele>409.99999999999994</ele><time>2026-04-04T07:37:12.119Z</time></trkpt><trkpt lat="43.8465871" lon="10.9020682"><ele>410.0</ele><time>2026-04-04T07:37:13.118Z</time></trkpt><trkpt lat="43.8466462" lon="10.9019796"><ele>410.0</ele><time>2026-04-04T07:37:14.118Z</time></trkpt><trkpt lat="43.8466918" lon="10.9019017"><ele>410.0</ele><time>2026-04-04T07:37:15.118Z</time></trkpt><trkpt lat="43.8467355" lon="10.9018294"><ele>409.99999999999994</ele><time>2026-04-04T07:37:16.118Z</time></trkpt><trkpt lat="43.8467787" lon="10.9017624"><ele>410.0</ele><time>2026-04-04T07:37:17.117Z</time></trkpt><trkpt lat="43.8468252" lon="10.9016894"><ele>407.8</ele><time>2026-04-04T07:37:18.117Z</time></trkpt><trkpt lat="43.8468776" lon="10.9016237"><ele>405.6</ele><time>2026-04-04T07:37:19.118Z</time></trkpt><trkpt lat="43.8469516" lon="10.9015569"><ele>403.4</ele><time>2026-04-04T07:37:20.118Z</time></trkpt><trkpt lat="43.8470408" lon="10.9014849"><ele>401.2</ele><time>2026-04-04T07:37:21.118Z</time></trkpt><trkpt lat="43.847142" lon="10.901403"><ele>399.0</ele><time>2026-04-04T07:37:22.117Z</time></trkpt><trkpt lat="43.8472454" lon="10.9013086"><ele>399.0</ele><time>2026-04-04T07:37:23.117Z</time></trkpt><trkpt lat="43.8473483" lon="10.9012112"><ele>399.0</ele><time>2026-04-04T07:37:24.118Z</time></trkpt><trkpt lat="43.8474439" lon="10.9011125"><ele>399.0</ele><time>2026-04-04T07:37:25.117Z</time></trkpt><trkpt lat="43.8475436" lon="10.9010134"><ele>399.0</ele><time>2026-04-04T07:37:26.118Z</time></trkpt><trkpt lat="43.8476581" lon="10.9009263"><ele>398.0</ele><time>2026-04-04T07:37:27.118Z</time></trkpt><trkpt lat="43.8477869" lon="10.9008511"><ele>397.0</ele><time>2026-04-04T07:37:28.117Z</time></trkpt><trkpt lat="43.8479311" lon="10.9007921"><ele>396.0</ele><time>2026-04-04T07:37:29.117Z</time></trkpt><trkpt lat="43.848085" lon="10.9007248"><ele>396.0</ele><time>2026-04-04T07:37:30.118Z</time></trkpt><trkpt lat="43.8482631" lon="10.9006473"><ele>396.0</ele><time>2026-04-04T07:37:31.118Z</time></trkpt><trkpt lat="43.8484391" lon="10.9005707"><ele>396.0</ele><time>2026-04-04T07:37:32.119Z</time></trkpt><trkpt lat="43.8486105" lon="10.9005066"><ele>395.33333333333337</ele><time>2026-04-04T07:37:33.118Z</time></trkpt><trkpt lat="43.848771" lon="10.9004578"><ele>394.6666666666667</ele><time>2026-04-04T07:37:34.117Z</time></trkpt><trkpt lat="43.8489136" lon="10.9004397"><ele>394.0</ele><time>2026-04-04T07:37:35.117Z</time></trkpt><trkpt lat="43.8490574" lon="10.9004382"><ele>394.0</ele><time>2026-04-04T07:37:36.118Z</time></trkpt><trkpt lat="43.8491961" lon="10.9004229"><ele>394.0</ele><time>2026-04-04T07:37:37.117Z</time></trkpt><trkpt lat="43.8493391" lon="10.900385"><ele>394.0</ele><time>2026-04-04T07:37:38.118Z</time></trkpt><trkpt lat="43.8494718" lon="10.9003464"><ele>394.0</ele><time>2026-04-04T07:37:39.118Z</time></trkpt><trkpt lat="43.8495934" lon="10.900305"><ele>393.75</ele><time>2026-04-04T07:37:40.118Z</time></trkpt><trkpt lat="43.8497036" lon="10.9002002"><ele>393.5</ele><time>2026-04-04T07:37:41.118Z</time></trkpt><trkpt lat="43.8498029" lon="10.9001043"><ele>393.25</ele><time>2026-04-04T07:37:42.118Z</time></trkpt><trkpt lat="43.8499177" lon="10.9000278"><ele>393.0</ele><time>2026-04-04T07:37:43.117Z</time></trkpt><trkpt lat="43.8500234" lon="10.8999561"><ele>394.0</ele><time>2026-04-04T07:37:44.119Z</time></trkpt><trkpt lat="43.8501465" lon="10.8998726"><ele>395.0</ele><time>2026-04-04T07:37:45.118Z</time></trkpt><trkpt lat="43.8502568" lon="10.8998048"><ele>396.0</ele><time>2026-04-04T07:37:46.117Z</time></trkpt><trkpt lat="43.8503586" lon="10.899707"><ele>397.0</ele><time>2026-04-04T07:37:47.118Z</time></trkpt><trkpt lat="43.8504618" lon="10.899624"><ele>397.0</ele><time>2026-04-04T07:37:48.118Z</time></trkpt><trkpt lat="43.8505566" lon="10.8995314"><ele>397.0</ele><time>2026-04-04T07:37:49.118Z</time></trkpt><trkpt lat="43.8505604" lon="10.8993384"><ele>397.0</ele><time>2026-04-04T07:37:50.118Z</time></trkpt><trkpt lat="43.8506111" lon="10.8992197"><ele>397.0</ele><time>2026-04-04T07:37:51.118Z</time></trkpt><trkpt lat="43.8506663" lon="10.8991222"><ele>397.0</ele><time>2026-04-04T07:37:52.118Z</time></trkpt><trkpt lat="43.8507186" lon="10.8990381"><ele>398.0</ele><time>2026-04-04T07:37:53.117Z</time></trkpt><trkpt lat="43.8507734" lon="10.8989712"><ele>399.0</ele><time>2026-04-04T07:37:54.118Z</time></trkpt><trkpt lat="43.8508325" lon="10.898911"><ele>400.0</ele><time>2026-04-04T07:37:55.118Z</time></trkpt><trkpt lat="43.850906" lon="10.898891"><ele>401.0</ele><time>2026-04-04T07:37:56.118Z</time></trkpt><trkpt lat="43.8509793" lon="10.8988545"><ele>402.0</ele><time>2026-04-04T07:37:57.117Z</time></trkpt><trkpt lat="43.8510406" lon="10.8989052"><ele>403.0</ele><time>2026-04-04T07:37:58.118Z</time></trkpt><trkpt lat="43.8511135" lon="10.8989225"><ele>404.0</ele><time>2026-04-04T07:37:59.118Z</time></trkpt><trkpt lat="43.8511684" lon="10.899013"><ele>403.99999999999994</ele><time>2026-04-04T07:38:00.118Z</time></trkpt><trkpt lat="43.8512307" lon="10.8990841"><ele>404.0</ele><time>2026-04-04T07:38:01.118Z</time></trkpt><trkpt lat="43.851295" lon="10.8991373"><ele>404.0</ele><time>2026-04-04T07:38:02.119Z</time></trkpt><trkpt lat="43.851381" lon="10.899162"><ele>404.0</ele><time>2026-04-04T07:38:03.118Z</time></trkpt><trkpt lat="43.8514666" lon="10.8991789"><ele>403.99999999999994</ele><time>2026-04-04T07:38:04.118Z</time></trkpt><trkpt lat="43.8515519" lon="10.899199"><ele>404.0</ele><time>2026-04-04T07:38:05.118Z</time></trkpt><trkpt lat="43.8516268" lon="10.8992079"><ele>404.0</ele><time>2026-04-04T07:38:06.117Z</time></trkpt><trkpt lat="43.8517133" lon="10.8992088"><ele>404.0</ele><time>2026-04-04T07:38:07.118Z</time></trkpt><trkpt lat="43.8518108" lon="10.8991724"><ele>404.0</ele><time>2026-04-04T07:38:08.117Z</time></trkpt><trkpt lat="43.8519131" lon="10.8991442"><ele>404.0</ele><time>2026-04-04T07:38:09.118Z</time></trkpt><trkpt lat="43.8520112" lon="10.8991168"><ele>404.0</ele><time>2026-04-04T07:38:10.118Z</time></trkpt><trkpt lat="43.8520919" lon="10.8991057"><ele>403.66666666666663</ele><time>2026-04-04T07:38:11.118Z</time></trkpt><trkpt lat="43.8521696" lon="10.8991134"><ele>403.3333333333333</ele><time>2026-04-04T07:38:12.118Z</time></trkpt><trkpt lat="43.8522321" lon="10.8990889"><ele>403.0</ele><time>2026-04-04T07:38:13.118Z</time></trkpt><trkpt lat="43.8523096" lon="10.8990493"><ele>402.66666666666663</ele><time>2026-04-04T07:38:14.117Z</time></trkpt><trkpt lat="43.8523952" lon="10.8990045"><ele>402.3333333333333</ele><time>2026-04-04T07:38:15.119Z</time></trkpt><trkpt lat="43.8524798" lon="10.8989791"><ele>402.0</ele><time>2026-04-04T07:38:16.118Z</time></trkpt><trkpt lat="43.852547" lon="10.8989699"><ele>401.8</ele><time>2026-04-04T07:38:17.117Z</time></trkpt><trkpt lat="43.8526328" lon="10.8989414"><ele>401.6</ele><time>2026-04-04T07:38:18.118Z</time></trkpt><trkpt lat="43.8527284" lon="10.8989013"><ele>401.40000000000003</ele><time>2026-04-04T07:38:20.118Z</time></trkpt><trkpt lat="43.8528012" lon="10.8989627"><ele>401.20000000000005</ele><time>2026-04-04T07:38:22.118Z</time></trkpt><trkpt lat="43.852868" lon="10.8990693"><ele>401.0</ele><time>2026-04-04T07:38:25.118Z</time></trkpt><trkpt lat="43.8529667" lon="10.899115"><ele>401.0</ele><time>2026-04-04T07:38:26.117Z</time></trkpt><trkpt lat="43.8530306" lon="10.8991735"><ele>401.0</ele><time>2026-04-04T07:38:27.118Z</time></trkpt><trkpt lat="43.8530927" lon="10.8992207"><ele>401.0</ele><time>2026-04-04T07:38:28.118Z</time></trkpt><trkpt lat="43.8531581" lon="10.8992738"><ele>401.0</ele><time>2026-04-04T07:38:29.117Z</time></trkpt><trkpt lat="43.8532101" lon="10.8993371"><ele>401.0</ele><time>2026-04-04T07:38:30.118Z</time></trkpt><trkpt lat="43.853272" lon="10.8993654"><ele>401.0</ele><time>2026-04-04T07:38:31.118Z</time></trkpt><trkpt lat="43.8533342" lon="10.8993901"><ele>401.0</ele><time>2026-04-04T07:38:32.118Z</time></trkpt><trkpt lat="43.8533998" lon="10.899419"><ele>397.0</ele><time>2026-04-04T07:38:33.118Z</time></trkpt><trkpt lat="43.8534667" lon="10.899478"><ele>393.0</ele><time>2026-04-04T07:38:35.117Z</time></trkpt><trkpt lat="43.8535466" lon="10.8995312"><ele>389.0</ele><time>2026-04-04T07:38:37.118Z</time></trkpt><trkpt lat="43.8536366" lon="10.8995418"><ele>385.0</ele><time>2026-04-04T07:38:39.117Z</time></trkpt><trkpt lat="43.8537377" lon="10.8995476"><ele>381.0</ele><time>2026-04-04T07:38:41.117Z</time></trkpt><trkpt lat="43.8538783" lon="10.8995245"><ele>381.0</ele><time>2026-04-04T07:38:43.118Z</time></trkpt><trkpt lat="43.8539603" lon="10.8994416"><ele>381.0</ele><time>2026-04-04T07:38:45.118Z</time></trkpt><trkpt lat="43.8540012" lon="10.8993735"><ele>381.0</ele><time>2026-04-04T07:38:46.118Z</time></trkpt><trkpt lat="43.8540418" lon="10.8992381"><ele>381.0</ele><time>2026-04-04T07:38:48.117Z</time></trkpt><trkpt lat="43.8541154" lon="10.8991942"><ele>381.0</ele><time>2026-04-04T07:38:50.117Z</time></trkpt><trkpt lat="43.8541678" lon="10.8993023"><ele>381.0</ele><time>2026-04-04T07:38:53.119Z</time></trkpt><trkpt lat="43.854216" lon="10.8994073"><ele>381.0</ele><time>2026-04-04T07:38:55.117Z</time></trkpt><trkpt lat="43.8542769" lon="10.8994948"><ele>381.0</ele><time>2026-04-04T07:38:57.117Z</time></trkpt><trkpt lat="43.8543619" lon="10.8995812"><ele>381.0</ele><time>2026-04-04T07:38:59.117Z</time></trkpt><trkpt lat="43.8544777" lon="10.8996724"><ele>381.0</ele><time>2026-04-04T07:39:01.118Z</time></trkpt><trkpt lat="43.854544" lon="10.8997278"><ele>381.0</ele><time>2026-04-04T07:39:02.117Z</time></trkpt><trkpt lat="43.8546005" lon="10.8997721"><ele>378.20000000000005</ele><time>2026-04-04T07:39:03.119Z</time></trkpt><trkpt lat="43.8546645" lon="10.8998182"><ele>375.40000000000003</ele><time>2026-04-04T07:39:04.118Z</time></trkpt><trkpt lat="43.8547654" lon="10.8998773"><ele>372.6</ele><time>2026-04-04T07:39:06.118Z</time></trkpt><trkpt lat="43.8547962" lon="10.8997453"><ele>369.8</ele><time>2026-04-04T07:39:09.119Z</time></trkpt><trkpt lat="43.8547541" lon="10.8996428"><ele>367.0</ele><time>2026-04-04T07:39:11.118Z</time></trkpt><trkpt lat="43.8548085" lon="10.8995314"><ele>367.0</ele><time>2026-04-04T07:39:14.117Z</time></trkpt><trkpt lat="43.8548994" lon="10.8995066"><ele>367.0</ele><time>2026-04-04T07:39:15.118Z</time></trkpt><trkpt lat="43.8549667" lon="10.899468"><ele>367.0</ele><time>2026-04-04T07:39:16.119Z</time></trkpt><trkpt lat="43.8550407" lon="10.8994497"><ele>367.0</ele><time>2026-04-04T07:39:17.118Z</time></trkpt><trkpt lat="43.8551331" lon="10.8994252"><ele>367.0</ele><time>2026-04-04T07:39:18.117Z</time></trkpt><trkpt lat="43.855198" lon="10.8993766"><ele>367.0</ele><time>2026-04-04T07:39:19.118Z</time></trkpt><trkpt lat="43.8552658" lon="10.8993314"><ele>365.20000000000005</ele><time>2026-04-04T07:39:20.118Z</time></trkpt><trkpt lat="43.8553327" lon="10.8992924"><ele>363.4</ele><time>2026-04-04T07:39:21.118Z</time></trkpt><trkpt lat="43.8554495" lon="10.8993381"><ele>361.6</ele><time>2026-04-04T07:39:23.117Z</time></trkpt><trkpt lat="43.855534" lon="10.8993205"><ele>359.79999999999995</ele><time>2026-04-04T07:39:25.118Z</time></trkpt><trkpt lat="43.8555655" lon="10.8991701"><ele>358.0</ele><time>2026-04-04T07:39:27.118Z</time></trkpt><trkpt lat="43.8555722" lon="10.8990445"><ele>357.79999999999995</ele><time>2026-04-04T07:39:28.118Z</time></trkpt><trkpt lat="43.8555839" lon="10.8989017"><ele>357.6</ele><time>2026-04-04T07:39:29.118Z</time></trkpt><trkpt lat="43.8556006" lon="10.8987691"><ele>357.4</ele><time>2026-04-04T07:39:30.118Z</time></trkpt><trkpt lat="43.8556105" lon="10.898618"><ele>357.20000000000005</ele><time>2026-04-04T07:39:31.118Z</time></trkpt><trkpt lat="43.8556257" lon="10.8984706"><ele>357.0</ele><time>2026-04-04T07:39:32.118Z</time></trkpt><trkpt lat="43.8556361" lon="10.8983442"><ele>357.40000000000003</ele><time>2026-04-04T07:39:33.118Z</time></trkpt><trkpt lat="43.8556759" lon="10.8982726"><ele>357.8</ele><time>2026-04-04T07:39:34.118Z</time></trkpt><trkpt lat="43.8557354" lon="10.8981994"><ele>358.2</ele><time>2026-04-04T07:39:36.118Z</time></trkpt><trkpt lat="43.8558634" lon="10.8982072"><ele>358.6</ele><time>2026-04-04T07:39:37.117Z</time></trkpt><trkpt lat="43.8559587" lon="10.8981889"><ele>359.0</ele><time>2026-04-04T07:39:38.118Z</time></trkpt><trkpt lat="43.8561208" lon="10.8982083"><ele>355.5</ele><time>2026-04-04T07:39:39.119Z</time></trkpt><trkpt lat="43.8562347" lon="10.8982127"><ele>352.0</ele><time>2026-04-04T07:39:40.118Z</time></trkpt><trkpt lat="43.8563536" lon="10.8982203"><ele>348.5</ele><time>2026-04-04T07:39:41.118Z</time></trkpt><trkpt lat="43.8564755" lon="10.898205"><ele>345.0</ele><time>2026-04-04T07:39:42.118Z</time></trkpt><trkpt lat="43.8565652" lon="10.8981653"><ele>345.0</ele><time>2026-04-04T07:39:43.118Z</time></trkpt><trkpt lat="43.8566578" lon="10.8981283"><ele>345.0</ele><time>2026-04-04T07:39:44.118Z</time></trkpt><trkpt lat="43.8565844" lon="10.8979403"><ele>345.0</ele><time>2026-04-04T07:39:45.119Z</time></trkpt><trkpt lat="43.8565915" lon="10.8977736"><ele>345.0</ele><time>2026-04-04T07:39:46.118Z</time></trkpt><trkpt lat="43.856623" lon="10.897636"><ele>347.25</ele><time>2026-04-04T07:39:47.117Z</time></trkpt><trkpt lat="43.8566411" lon="10.8974718"><ele>349.5</ele><time>2026-04-04T07:39:48.117Z</time></trkpt><trkpt lat="43.8566627" lon="10.8973116"><ele>351.75</ele><time>2026-04-04T07:39:49.117Z</time></trkpt><trkpt lat="43.8566812" lon="10.8971534"><ele>354.0</ele><time>2026-04-04T07:39:50.118Z</time></trkpt><trkpt lat="43.8566868" lon="10.8969814"><ele>354.0</ele><time>2026-04-04T07:39:51.118Z</time></trkpt><trkpt lat="43.8566882" lon="10.8968287"><ele>354.0</ele><time>2026-04-04T07:39:52.118Z</time></trkpt><trkpt lat="43.8566839" lon="10.8966844"><ele>354.0</ele><time>2026-04-04T07:39:53.117Z</time></trkpt><trkpt lat="43.8566971" lon="10.8965719"><ele>354.0</ele><time>2026-04-04T07:39:54.119Z</time></trkpt><trkpt lat="43.8567293" lon="10.896487"><ele>354.0</ele><time>2026-04-04T07:39:55.118Z</time></trkpt><trkpt lat="43.8567861" lon="10.8964065"><ele>354.0</ele><time>2026-04-04T07:39:56.118Z</time></trkpt><trkpt lat="43.8568697" lon="10.8963237"><ele>351.79999999999995</ele><time>2026-04-04T07:39:57.118Z</time></trkpt><trkpt lat="43.8569675" lon="10.8962457"><ele>349.59999999999997</ele><time>2026-04-04T07:39:58.118Z</time></trkpt><trkpt lat="43.8570532" lon="10.8961798"><ele>347.4</ele><time>2026-04-04T07:39:59.118Z</time></trkpt><trkpt lat="43.8571053" lon="10.8961186"><ele>345.2</ele><time>2026-04-04T07:40:00.118Z</time></trkpt><trkpt lat="43.857127" lon="10.8960285"><ele>343.0</ele><time>2026-04-04T07:40:01.118Z</time></trkpt><trkpt lat="43.8571314" lon="10.8958566"><ele>342.0</ele><time>2026-04-04T07:40:03.119Z</time></trkpt><trkpt lat="43.8571194" lon="10.8957445"><ele>341.0</ele><time>2026-04-04T07:40:04.118Z</time></trkpt><trkpt lat="43.8570441" lon="10.8956049"><ele>340.0</ele><time>2026-04-04T07:40:05.118Z</time></trkpt><trkpt lat="43.8569831" lon="10.8953977"><ele>339.0</ele><time>2026-04-04T07:40:06.117Z</time></trkpt><trkpt lat="43.8568754" lon="10.8951988"><ele>339.25</ele><time>2026-04-04T07:40:07.118Z</time></trkpt><trkpt lat="43.8568018" lon="10.8950284"><ele>339.5</ele><time>2026-04-04T07:40:08.118Z</time></trkpt><trkpt lat="43.856725" lon="10.8948521"><ele>339.75</ele><time>2026-04-04T07:40:09.117Z</time></trkpt><trkpt lat="43.8566671" lon="10.8946853"><ele>340.0</ele><time>2026-04-04T07:40:10.118Z</time></trkpt><trkpt lat="43.8566171" lon="10.8945222"><ele>340.0</ele><time>2026-04-04T07:40:11.118Z</time></trkpt><trkpt lat="43.8565226" lon="10.8944043"><ele>340.0</ele><time>2026-04-04T07:40:12.118Z</time></trkpt><trkpt lat="43.8564306" lon="10.8942965"><ele>340.0</ele><time>2026-04-04T07:40:13.118Z</time></trkpt><trkpt lat="43.8563576" lon="10.8941818"><ele>340.0</ele><time>2026-04-04T07:40:14.117Z</time></trkpt><trkpt lat="43.8562866" lon="10.8940418"><ele>338.6</ele><time>2026-04-04T07:40:15.119Z</time></trkpt><trkpt lat="43.8562179" lon="10.8939002"><ele>337.2</ele><time>2026-04-04T07:40:16.118Z</time></trkpt><trkpt lat="43.8561587" lon="10.8937838"><ele>335.79999999999995</ele><time>2026-04-04T07:40:17.118Z</time></trkpt><trkpt lat="43.8561012" lon="10.8936866"><ele>334.4</ele><time>2026-04-04T07:40:18.118Z</time></trkpt><trkpt lat="43.8560557" lon="10.8936212"><ele>333.0</ele><time>2026-04-04T07:40:19.118Z</time></trkpt><trkpt lat="43.8559988" lon="10.8934804"><ele>331.0</ele><time>2026-04-04T07:40:21.118Z</time></trkpt><trkpt lat="43.8559907" lon="10.8933708"><ele>329.0</ele><time>2026-04-04T07:40:22.118Z</time></trkpt><trkpt lat="43.8559976" lon="10.8932352"><ele>327.0</ele><time>2026-04-04T07:40:23.118Z</time></trkpt><trkpt lat="43.8560256" lon="10.8930673"><ele>325.0</ele><time>2026-04-04T07:40:24.117Z</time></trkpt><trkpt lat="43.8560667" lon="10.8928947"><ele>323.0</ele><time>2026-04-04T07:40:25.118Z</time></trkpt><trkpt lat="43.8561202" lon="10.8927145"><ele>320.6666666666667</ele><time>2026-04-04T07:40:26.119Z</time></trkpt><trkpt lat="43.8561911" lon="10.8925261"><ele>318.3333333333333</ele><time>2026-04-04T07:40:27.118Z</time></trkpt><trkpt lat="43.8562782" lon="10.8923523"><ele>316.0</ele><time>2026-04-04T07:40:28.118Z</time></trkpt><trkpt lat="43.8563681" lon="10.8921913"><ele>316.0</ele><time>2026-04-04T07:40:29.119Z</time></trkpt><trkpt lat="43.8564578" lon="10.8920428"><ele>316.0</ele><time>2026-04-04T07:40:30.118Z</time></trkpt><trkpt lat="43.8565409" lon="10.8919026"><ele>316.0</ele><time>2026-04-04T07:40:31.118Z</time></trkpt><trkpt lat="43.8566077" lon="10.891762"><ele>316.0</ele><time>2026-04-04T07:40:32.117Z</time></trkpt><trkpt lat="43.8566536" lon="10.8916146"><ele>315.40000000000003</ele><time>2026-04-04T07:40:33.117Z</time></trkpt><trkpt lat="43.8566783" lon="10.8914622"><ele>314.8</ele><time>2026-04-04T07:40:34.118Z</time></trkpt><trkpt lat="43.856695" lon="10.8913089"><ele>314.20000000000005</ele><time>2026-04-04T07:40:35.117Z</time></trkpt><trkpt lat="43.8567265" lon="10.8911674"><ele>313.6</ele><time>2026-04-04T07:40:36.118Z</time></trkpt><trkpt lat="43.8567709" lon="10.8910536"><ele>313.0</ele><time>2026-04-04T07:40:37.117Z</time></trkpt><trkpt lat="43.8568329" lon="10.8909374"><ele>311.25</ele><time>2026-04-04T07:40:38.118Z</time></trkpt><trkpt lat="43.856926" lon="10.890817"><ele>309.5</ele><time>2026-04-04T07:40:39.117Z</time></trkpt><trkpt lat="43.8570282" lon="10.890688"><ele>307.75</ele><time>2026-04-04T07:40:40.118Z</time></trkpt><trkpt lat="43.8571247" lon="10.8905486"><ele>306.0</ele><time>2026-04-04T07:40:41.118Z</time></trkpt><trkpt lat="43.8572187" lon="10.890422"><ele>306.0</ele><time>2026-04-04T07:40:42.118Z</time></trkpt><trkpt lat="43.8573157" lon="10.8902885"><ele>306.0</ele><time>2026-04-04T07:40:43.117Z</time></trkpt><trkpt lat="43.857412" lon="10.8901594"><ele>306.0</ele><time>2026-04-04T07:40:44.118Z</time></trkpt><trkpt lat="43.8575066" lon="10.8900282"><ele>306.0</ele><time>2026-04-04T07:40:45.118Z</time></trkpt><trkpt lat="43.8576054" lon="10.889891"><ele>304.5</ele><time>2026-04-04T07:40:46.117Z</time></trkpt><trkpt lat="43.8577049" lon="10.8897451"><ele>303.0</ele><time>2026-04-04T07:40:47.118Z</time></trkpt><trkpt lat="43.8578054" lon="10.8895974"><ele>301.5</ele><time>2026-04-04T07:40:48.118Z</time></trkpt><trkpt lat="43.857896" lon="10.8894476"><ele>300.0</ele><time>2026-04-04T07:40:49.118Z</time></trkpt><trkpt lat="43.8579844" lon="10.8892952"><ele>299.8</ele><time>2026-04-04T07:40:50.118Z</time></trkpt><trkpt lat="43.8580657" lon="10.8891466"><ele>299.6</ele><time>2026-04-04T07:40:51.118Z</time></trkpt><trkpt lat="43.8581405" lon="10.8890129"><ele>299.4</ele><time>2026-04-04T07:40:52.117Z</time></trkpt><trkpt lat="43.858202" lon="10.8889068"><ele>299.2</ele><time>2026-04-04T07:40:53.117Z</time></trkpt><trkpt lat="43.8582576" lon="10.8888046"><ele>299.0</ele><time>2026-04-04T07:40:54.118Z</time></trkpt><trkpt lat="43.8583075" lon="10.8886996"><ele>299.0</ele><time>2026-04-04T07:40:55.118Z</time></trkpt><trkpt lat="43.8583614" lon="10.8886014"><ele>299.0</ele><time>2026-04-04T07:40:56.117Z</time></trkpt><trkpt lat="43.858415" lon="10.8885152"><ele>299.0</ele><time>2026-04-04T07:40:57.118Z</time></trkpt><trkpt lat="43.8584757" lon="10.8884334"><ele>299.0</ele><time>2026-04-04T07:40:58.117Z</time></trkpt><trkpt lat="43.8585356" lon="10.8883668"><ele>299.0</ele><time>2026-04-04T07:40:59.118Z</time></trkpt><trkpt lat="43.858599" lon="10.8883027"><ele>299.0</ele><time>2026-04-04T07:41:00.117Z</time></trkpt><trkpt lat="43.8586657" lon="10.8882444"><ele>301.1666666666667</ele><time>2026-04-04T07:41:01.118Z</time></trkpt><trkpt lat="43.8587391" lon="10.8881947"><ele>303.33333333333337</ele><time>2026-04-04T07:41:02.117Z</time></trkpt><trkpt lat="43.8588117" lon="10.8881442"><ele>305.5</ele><time>2026-04-04T07:41:03.118Z</time></trkpt><trkpt lat="43.8588798" lon="10.88812"><ele>307.6666666666667</ele><time>2026-04-04T07:41:04.118Z</time></trkpt><trkpt lat="43.8589497" lon="10.8881102"><ele>309.8333333333333</ele><time>2026-04-04T07:41:05.118Z</time></trkpt><trkpt lat="43.859025" lon="10.8881076"><ele>312.0</ele><time>2026-04-04T07:41:06.117Z</time></trkpt><trkpt lat="43.8591044" lon="10.8881067"><ele>312.0</ele><time>2026-04-04T07:41:07.118Z</time></trkpt><trkpt lat="43.8591839" lon="10.8881035"><ele>312.0</ele><time>2026-04-04T07:41:08.118Z</time></trkpt><trkpt lat="43.8592654" lon="10.8881058"><ele>312.0</ele><time>2026-04-04T07:41:09.118Z</time></trkpt><trkpt lat="43.859326" lon="10.8881407"><ele>312.0</ele><time>2026-04-04T07:41:10.118Z</time></trkpt><trkpt lat="43.8594013" lon="10.8881612"><ele>312.0</ele><time>2026-04-04T07:41:11.118Z</time></trkpt><trkpt lat="43.8594782" lon="10.8881854"><ele>312.0</ele><time>2026-04-04T07:41:12.117Z</time></trkpt><trkpt lat="43.859588" lon="10.8881387"><ele>312.8</ele><time>2026-04-04T07:41:14.117Z</time></trkpt><trkpt lat="43.859687" lon="10.8880329"><ele>313.6</ele><time>2026-04-04T07:41:16.118Z</time></trkpt><trkpt lat="43.8597287" lon="10.8879661"><ele>314.40000000000003</ele><time>2026-04-04T07:41:17.118Z</time></trkpt><trkpt lat="43.8597458" lon="10.8878514"><ele>315.2</ele><time>2026-04-04T07:41:18.119Z</time></trkpt><trkpt lat="43.8597884" lon="10.8877329"><ele>316.0</ele><time>2026-04-04T07:41:19.118Z</time></trkpt><trkpt lat="43.8598314" lon="10.8876196"><ele>315.8333333333333</ele><time>2026-04-04T07:41:20.117Z</time></trkpt><trkpt lat="43.8598768" lon="10.8875107"><ele>315.66666666666663</ele><time>2026-04-04T07:41:21.118Z</time></trkpt><trkpt lat="43.8598987" lon="10.8874144"><ele>315.5</ele><time>2026-04-04T07:41:22.118Z</time></trkpt><trkpt lat="43.8599016" lon="10.8873221"><ele>315.3333333333333</ele><time>2026-04-04T07:41:23.118Z</time></trkpt><trkpt lat="43.859884" lon="10.8872202"><ele>315.1666666666667</ele><time>2026-04-04T07:41:24.118Z</time></trkpt><trkpt lat="43.8598477" lon="10.8871045"><ele>315.0</ele><time>2026-04-04T07:41:25.119Z</time></trkpt><trkpt lat="43.8598143" lon="10.8870023"><ele>315.0</ele><time>2026-04-04T07:41:26.118Z</time></trkpt><trkpt lat="43.8597939" lon="10.8868945"><ele>315.0</ele><time>2026-04-04T07:41:27.118Z</time></trkpt><trkpt lat="43.8597949" lon="10.8867803"><ele>315.0</ele><time>2026-04-04T07:41:28.119Z</time></trkpt><trkpt lat="43.85982" lon="10.8866649"><ele>315.0</ele><time>2026-04-04T07:41:29.118Z</time></trkpt><trkpt lat="43.8598502" lon="10.8865488"><ele>315.0</ele><time>2026-04-04T07:41:30.118Z</time></trkpt><trkpt lat="43.859888" lon="10.8864394"><ele>315.0</ele><time>2026-04-04T07:41:31.118Z</time></trkpt><trkpt lat="43.8599279" lon="10.8863237"><ele>315.0</ele><time>2026-04-04T07:41:32.118Z</time></trkpt><trkpt lat="43.8599695" lon="10.8861946"><ele>315.0</ele><time>2026-04-04T07:41:33.117Z</time></trkpt><trkpt lat="43.8600055" lon="10.8860659"><ele>315.0</ele><time>2026-04-04T07:41:34.118Z</time></trkpt><trkpt lat="43.8600395" lon="10.8859461"><ele>315.0</ele><time>2026-04-04T07:41:35.117Z</time></trkpt><trkpt lat="43.8600774" lon="10.8858398"><ele>315.0</ele><time>2026-04-04T07:41:36.118Z</time></trkpt><trkpt lat="43.8601157" lon="10.8857444"><ele>314.2857142857143</ele><time>2026-04-04T07:41:37.117Z</time></trkpt><trkpt lat="43.8601573" lon="10.8856533"><ele>313.57142857142856</ele><time>2026-04-04T07:41:38.118Z</time></trkpt><trkpt lat="43.8602029" lon="10.8855613"><ele>312.8571428571429</ele><time>2026-04-04T07:41:39.118Z</time></trkpt><trkpt lat="43.8602545" lon="10.885491"><ele>312.1428571428571</ele><time>2026-04-04T07:41:40.118Z</time></trkpt><trkpt lat="43.8603215" lon="10.8854319"><ele>311.42857142857144</ele><time>2026-04-04T07:41:41.117Z</time></trkpt><trkpt lat="43.8603829" lon="10.8853994"><ele>310.7142857142857</ele><time>2026-04-04T07:41:42.117Z</time></trkpt><trkpt lat="43.8604475" lon="10.8853595"><ele>310.0</ele><time>2026-04-04T07:41:43.118Z</time></trkpt><trkpt lat="43.8605027" lon="10.885314"><ele>310.0</ele><time>2026-04-04T07:41:46.118Z</time></trkpt><trkpt lat="43.8605651" lon="10.8852532"><ele>310.0</ele><time>2026-04-04T07:41:50.118Z</time></trkpt><trkpt lat="43.8606167" lon="10.8851328"><ele>310.0</ele><time>2026-04-04T07:41:52.117Z</time></trkpt><trkpt lat="43.8606653" lon="10.8850692"><ele>310.0</ele><time>2026-04-04T07:41:53.118Z</time></trkpt><trkpt lat="43.8607237" lon="10.8849983"><ele>310.0</ele><time>2026-04-04T07:41:54.119Z</time></trkpt><trkpt lat="43.8607903" lon="10.8849145"><ele>310.0</ele><time>2026-04-04T07:41:55.118Z</time></trkpt><trkpt lat="43.8608576" lon="10.8848229"><ele>309.8</ele><time>2026-04-04T07:41:56.117Z</time></trkpt><trkpt lat="43.8609112" lon="10.8847184"><ele>309.6</ele><time>2026-04-04T07:41:57.117Z</time></trkpt><trkpt lat="43.8609651" lon="10.8846026"><ele>309.4</ele><time>2026-04-04T07:41:58.118Z</time></trkpt><trkpt lat="43.8610148" lon="10.8844796"><ele>309.2</ele><time>2026-04-04T07:41:59.118Z</time></trkpt><trkpt lat="43.8610583" lon="10.8843489"><ele>309.0</ele><time>2026-04-04T07:42:00.118Z</time></trkpt><trkpt lat="43.8610951" lon="10.8842117"><ele>308.59999999999997</ele><time>2026-04-04T07:42:01.117Z</time></trkpt><trkpt lat="43.8611251" lon="10.8840759"><ele>308.2</ele><time>2026-04-04T07:42:02.117Z</time></trkpt><trkpt lat="43.8611544" lon="10.8839362"><ele>307.79999999999995</ele><time>2026-04-04T07:42:03.118Z</time></trkpt><trkpt lat="43.8611873" lon="10.8837948"><ele>307.4</ele><time>2026-04-04T07:42:04.118Z</time></trkpt><trkpt lat="43.8612264" lon="10.8836573"><ele>307.0</ele><time>2026-04-04T07:42:05.119Z</time></trkpt><trkpt lat="43.8612728" lon="10.8835238"><ele>308.6</ele><time>2026-04-04T07:42:06.118Z</time></trkpt><trkpt lat="43.8613177" lon="10.8833855"><ele>310.2</ele><time>2026-04-04T07:42:07.118Z</time></trkpt><trkpt lat="43.8613581" lon="10.8832431"><ele>311.8</ele><time>2026-04-04T07:42:08.118Z</time></trkpt><trkpt lat="43.8614027" lon="10.8830964"><ele>313.4</ele><time>2026-04-04T07:42:09.118Z</time></trkpt><trkpt lat="43.8614554" lon="10.8829559"><ele>315.0</ele><time>2026-04-04T07:42:10.117Z</time></trkpt><trkpt lat="43.861508" lon="10.8828099"><ele>315.0</ele><time>2026-04-04T07:42:11.117Z</time></trkpt><trkpt lat="43.8615625" lon="10.8826761"><ele>315.0</ele><time>2026-04-04T07:42:12.117Z</time></trkpt><trkpt lat="43.8616128" lon="10.8825675"><ele>315.0</ele><time>2026-04-04T07:42:13.118Z</time></trkpt><trkpt lat="43.8616587" lon="10.882469"><ele>315.0</ele><time>2026-04-04T07:42:14.118Z</time></trkpt><trkpt lat="43.8617055" lon="10.8823497"><ele>315.0</ele><time>2026-04-04T07:42:16.118Z</time></trkpt><trkpt lat="43.8616391" lon="10.8822224"><ele>316.4</ele><time>2026-04-04T07:42:19.118Z</time></trkpt><trkpt lat="43.8615578" lon="10.88208"><ele>317.8</ele><time>2026-04-04T07:42:21.119Z</time></trkpt><trkpt lat="43.8615162" lon="10.8820053"><ele>319.20000000000005</ele><time>2026-04-04T07:42:22.117Z</time></trkpt><trkpt lat="43.8614696" lon="10.8819332"><ele>320.6</ele><time>2026-04-04T07:42:23.118Z</time></trkpt><trkpt lat="43.8613756" lon="10.8818718"><ele>322.0</ele><time>2026-04-04T07:42:25.118Z</time></trkpt><trkpt lat="43.8613826" lon="10.8817647"><ele>322.3333333333333</ele><time>2026-04-04T07:42:27.118Z</time></trkpt><trkpt lat="43.8614427" lon="10.8816046"><ele>322.66666666666663</ele><time>2026-04-04T07:42:29.118Z</time></trkpt><trkpt lat="43.8614857" lon="10.8815299"><ele>323.0</ele><time>2026-04-04T07:42:30.117Z</time></trkpt><trkpt lat="43.8614922" lon="10.8814121"><ele>323.3333333333333</ele><time>2026-04-04T07:42:31.117Z</time></trkpt><trkpt lat="43.8615146" lon="10.8813132"><ele>323.6666666666667</ele><time>2026-04-04T07:42:32.119Z</time></trkpt><trkpt lat="43.8615431" lon="10.8812186"><ele>324.0</ele><time>2026-04-04T07:42:33.118Z</time></trkpt><trkpt lat="43.8615876" lon="10.8811285"><ele>324.0</ele><time>2026-04-04T07:42:34.117Z</time></trkpt><trkpt lat="43.8616325" lon="10.8810591"><ele>324.0</ele><time>2026-04-04T07:42:35.117Z</time></trkpt><trkpt lat="43.8616854" lon="10.880982"><ele>324.0</ele><time>2026-04-04T07:42:36.118Z</time></trkpt><trkpt lat="43.8617499" lon="10.8808955"><ele>324.0</ele><time>2026-04-04T07:42:37.118Z</time></trkpt><trkpt lat="43.8618007" lon="10.8808207"><ele>324.0</ele><time>2026-04-04T07:42:38.118Z</time></trkpt><trkpt lat="43.8618482" lon="10.8807575"><ele>324.0</ele><time>2026-04-04T07:42:39.118Z</time></trkpt><trkpt lat="43.8619079" lon="10.8806798"><ele>326.4</ele><time>2026-04-04T07:42:40.117Z</time></trkpt><trkpt lat="43.8619941" lon="10.8805492"><ele>328.79999999999995</ele><time>2026-04-04T07:42:42.118Z</time></trkpt><trkpt lat="43.8620002" lon="10.8803723"><ele>331.20000000000005</ele><time>2026-04-04T07:42:44.118Z</time></trkpt><trkpt lat="43.8619566" lon="10.8802329"><ele>333.6</ele><time>2026-04-04T07:42:46.118Z</time></trkpt><trkpt lat="43.8619411" lon="10.880147"><ele>336.0</ele><time>2026-04-04T07:42:47.118Z</time></trkpt><trkpt lat="43.8618993" lon="10.8800532"><ele>338.0</ele><time>2026-04-04T07:42:48.117Z</time></trkpt><trkpt lat="43.8618728" lon="10.8799585"><ele>340.0</ele><time>2026-04-04T07:42:49.119Z</time></trkpt><trkpt lat="43.8618511" lon="10.879873"><ele>342.0</ele><time>2026-04-04T07:42:50.117Z</time></trkpt><trkpt lat="43.8617877" lon="10.8798106"><ele>344.0</ele><time>2026-04-04T07:42:51.117Z</time></trkpt><trkpt lat="43.8617321" lon="10.8797057"><ele>346.0</ele><time>2026-04-04T07:42:53.118Z</time></trkpt><trkpt lat="43.8617113" lon="10.8795272"><ele>348.0</ele><time>2026-04-04T07:42:55.118Z</time></trkpt><trkpt lat="43.8617317" lon="10.8794192"><ele>343.0</ele><time>2026-04-04T07:42:56.118Z</time></trkpt><trkpt lat="43.8616711" lon="10.8793268"><ele>338.0</ele><time>2026-04-04T07:42:57.117Z</time></trkpt><trkpt lat="43.8615964" lon="10.8792038"><ele>333.0</ele><time>2026-04-04T07:42:59.118Z</time></trkpt><trkpt lat="43.861537" lon="10.8791404"><ele>328.0</ele><time>2026-04-04T07:43:00.118Z</time></trkpt><trkpt lat="43.8614093" lon="10.8791581"><ele>323.0</ele><time>2026-04-04T07:43:01.118Z</time></trkpt><trkpt lat="43.8613329" lon="10.8791238"><ele>323.0</ele><time>2026-04-04T07:43:02.118Z</time></trkpt><trkpt lat="43.8612778" lon="10.8790624"><ele>323.0</ele><time>2026-04-04T07:43:03.118Z</time></trkpt><trkpt lat="43.8612157" lon="10.879006"><ele>323.0</ele><time>2026-04-04T07:43:04.118Z</time></trkpt><trkpt lat="43.8611975" lon="10.8788937"><ele>323.0</ele><time>2026-04-04T07:43:05.117Z</time></trkpt><trkpt lat="43.861156" lon="10.8788023"><ele>323.0</ele><time>2026-04-04T07:43:06.118Z</time></trkpt><trkpt lat="43.861086" lon="10.8787155"><ele>323.0</ele><time>2026-04-04T07:43:07.117Z</time></trkpt><trkpt lat="43.8610258" lon="10.8786543"><ele>317.0</ele><time>2026-04-04T07:43:08.117Z</time></trkpt><trkpt lat="43.8609191" lon="10.8786749"><ele>311.0</ele><time>2026-04-04T07:43:09.117Z</time></trkpt><trkpt lat="43.8608388" lon="10.8786573"><ele>305.0</ele><time>2026-04-04T07:43:10.118Z</time></trkpt><trkpt lat="43.8607449" lon="10.8786414"><ele>299.0</ele><time>2026-04-04T07:43:11.118Z</time></trkpt><trkpt lat="43.8606718" lon="10.8785637"><ele>293.0</ele><time>2026-04-04T07:43:12.119Z</time></trkpt><trkpt lat="43.8605981" lon="10.8785458"><ele>293.0</ele><time>2026-04-04T07:43:13.118Z</time></trkpt><trkpt lat="43.860546" lon="10.8784699"><ele>293.0</ele><time>2026-04-04T07:43:14.119Z</time></trkpt><trkpt lat="43.8605095" lon="10.8783303"><ele>293.0</ele><time>2026-04-04T07:43:15.118Z</time></trkpt><trkpt lat="43.8604397" lon="10.8782094"><ele>293.0</ele><time>2026-04-04T07:43:17.118Z</time></trkpt><trkpt lat="43.8604251" lon="10.8783849"><ele>293.0</ele><time>2026-04-04T07:43:20.118Z</time></trkpt><trkpt lat="43.8604135" lon="10.8785367"><ele>293.0</ele><time>2026-04-04T07:43:22.118Z</time></trkpt><trkpt lat="43.8603215" lon="10.8785125"><ele>293.0</ele><time>2026-04-04T07:43:25.118Z</time></trkpt><trkpt lat="43.8602521" lon="10.8784043"><ele>293.0</ele><time>2026-04-04T07:43:26.118Z</time></trkpt><trkpt lat="43.8601926" lon="10.8783473"><ele>293.0</ele><time>2026-04-04T07:43:27.118Z</time></trkpt><trkpt lat="43.8601812" lon="10.8782159"><ele>293.0</ele><time>2026-04-04T07:43:30.117Z</time></trkpt><trkpt lat="43.8602431" lon="10.8781303"><ele>296.4</ele><time>2026-04-04T07:43:33.118Z</time></trkpt><trkpt lat="43.8602945" lon="10.8780713"><ele>299.8</ele><time>2026-04-04T07:43:36.117Z</time></trkpt><trkpt lat="43.8603528" lon="10.8779566"><ele>303.2</ele><time>2026-04-04T07:43:39.118Z</time></trkpt><trkpt lat="43.8604091" lon="10.8778564"><ele>306.6</ele><time>2026-04-04T07:43:40.118Z</time></trkpt><trkpt lat="43.8604697" lon="10.8776898"><ele>310.0</ele><time>2026-04-04T07:43:42.117Z</time></trkpt><trkpt lat="43.8605075" lon="10.8775935"><ele>310.0</ele><time>2026-04-04T07:43:43.117Z</time></trkpt><trkpt lat="43.860523" lon="10.87748"><ele>310.0</ele><time>2026-04-04T07:43:44.117Z</time></trkpt><trkpt lat="43.8605488" lon="10.8773488"><ele>310.0</ele><time>2026-04-04T07:43:45.117Z</time></trkpt><trkpt lat="43.8605716" lon="10.877235"><ele>310.0</ele><time>2026-04-04T07:43:46.117Z</time></trkpt><trkpt lat="43.8605991" lon="10.8771364"><ele>310.0</ele><time>2026-04-04T07:43:47.118Z</time></trkpt><trkpt lat="43.8606488" lon="10.8770526"><ele>310.0</ele><time>2026-04-04T07:43:48.118Z</time></trkpt><trkpt lat="43.8607212" lon="10.8769647"><ele>310.0</ele><time>2026-04-04T07:43:49.118Z</time></trkpt><trkpt lat="43.8607907" lon="10.8768426"><ele>310.0</ele><time>2026-04-04T07:43:50.117Z</time></trkpt><trkpt lat="43.8608589" lon="10.8767085"><ele>310.0</ele><time>2026-04-04T07:43:51.118Z</time></trkpt><trkpt lat="43.8609202" lon="10.8765974"><ele>310.0</ele><time>2026-04-04T07:43:52.118Z</time></trkpt><trkpt lat="43.8609552" lon="10.876474"><ele>310.0</ele><time>2026-04-04T07:43:53.118Z</time></trkpt><trkpt lat="43.8609948" lon="10.8763847"><ele>311.8</ele><time>2026-04-04T07:43:54.117Z</time></trkpt><trkpt lat="43.8610384" lon="10.8763047"><ele>313.6</ele><time>2026-04-04T07:43:55.117Z</time></trkpt><trkpt lat="43.8610974" lon="10.8762148"><ele>315.4</ele><time>2026-04-04T07:43:56.117Z</time></trkpt><trkpt lat="43.8612137" lon="10.8761212"><ele>317.2</ele><time>2026-04-04T07:43:58.119Z</time></trkpt><trkpt lat="43.8613294" lon="10.8761733"><ele>319.0</ele><time>2026-04-04T07:44:00.118Z</time></trkpt><trkpt lat="43.8614135" lon="10.8762212"><ele>319.0</ele><time>2026-04-04T07:44:01.118Z</time></trkpt><trkpt lat="43.8614861" lon="10.876244"><ele>319.0</ele><time>2026-04-04T07:44:02.118Z</time></trkpt><trkpt lat="43.8615703" lon="10.8762639"><ele>319.0</ele><time>2026-04-04T07:44:03.118Z</time></trkpt><trkpt lat="43.8616393" lon="10.8762695"><ele>319.0</ele><time>2026-04-04T07:44:04.117Z</time></trkpt><trkpt lat="43.8617159" lon="10.8762744"><ele>319.0</ele><time>2026-04-04T07:44:05.118Z</time></trkpt><trkpt lat="43.8617838" lon="10.876201"><ele>319.0</ele><time>2026-04-04T07:44:06.118Z</time></trkpt><trkpt lat="43.8618525" lon="10.8761629"><ele>317.0</ele><time>2026-04-04T07:44:07.117Z</time></trkpt><trkpt lat="43.8619098" lon="10.876104"><ele>315.0</ele><time>2026-04-04T07:44:08.117Z</time></trkpt><trkpt lat="43.8619536" lon="10.8759978"><ele>313.0</ele><time>2026-04-04T07:44:09.118Z</time></trkpt><trkpt lat="43.8620039" lon="10.87594"><ele>311.0</ele><time>2026-04-04T07:44:10.117Z</time></trkpt><trkpt lat="43.8620461" lon="10.8758643"><ele>309.0</ele><time>2026-04-04T07:44:11.117Z</time></trkpt><trkpt lat="43.8621559" lon="10.8758059"><ele>307.0</ele><time>2026-04-04T07:44:13.118Z</time></trkpt><trkpt lat="43.8623429" lon="10.8758457"><ele>307.0</ele><time>2026-04-04T07:44:15.118Z</time></trkpt><trkpt lat="43.8624359" lon="10.8758734"><ele>307.0</ele><time>2026-04-04T07:44:16.118Z</time></trkpt><trkpt lat="43.8625312" lon="10.8759242"><ele>307.0</ele><time>2026-04-04T07:44:17.117Z</time></trkpt><trkpt lat="43.862631" lon="10.8759727"><ele>307.0</ele><time>2026-04-04T07:44:18.118Z</time></trkpt><trkpt lat="43.8627716" lon="10.8760715"><ele>314.6</ele><time>2026-04-04T07:44:20.118Z</time></trkpt><trkpt lat="43.86285" lon="10.8761571"><ele>322.2</ele><time>2026-04-04T07:44:21.118Z</time></trkpt><trkpt lat="43.8629264" lon="10.876223"><ele>329.8</ele><time>2026-04-04T07:44:22.118Z</time></trkpt><trkpt lat="43.8630376" lon="10.8762225"><ele>337.4</ele><time>2026-04-04T07:44:24.117Z</time></trkpt><trkpt lat="43.8630611" lon="10.8761024"><ele>345.0</ele><time>2026-04-04T07:44:25.118Z</time></trkpt><trkpt lat="43.8630963" lon="10.8760262"><ele>345.0</ele><time>2026-04-04T07:44:26.118Z</time></trkpt><trkpt lat="43.8631369" lon="10.875951"><ele>345.0</ele><time>2026-04-04T07:44:27.118Z</time></trkpt><trkpt lat="43.8632225" lon="10.8758716"><ele>345.0</ele><time>2026-04-04T07:44:28.118Z</time></trkpt><trkpt lat="43.8632668" lon="10.8757848"><ele>345.0</ele><time>2026-04-04T07:44:29.117Z</time></trkpt><trkpt lat="43.8633125" lon="10.8757056"><ele>345.0</ele><time>2026-04-04T07:44:30.117Z</time></trkpt><trkpt lat="43.8633311" lon="10.8756156"><ele>345.0</ele><time>2026-04-04T07:44:31.118Z</time></trkpt><trkpt lat="43.8633686" lon="10.8755285"><ele>343.6666666666667</ele><time>2026-04-04T07:44:32.118Z</time></trkpt><trkpt lat="43.8634411" lon="10.875537"><ele>342.3333333333333</ele><time>2026-04-04T07:44:33.118Z</time></trkpt><trkpt lat="43.8635187" lon="10.8754844"><ele>341.0</ele><time>2026-04-04T07:44:34.118Z</time></trkpt><trkpt lat="43.8635924" lon="10.8754472"><ele>339.66666666666663</ele><time>2026-04-04T07:44:35.118Z</time></trkpt><trkpt lat="43.8636506" lon="10.8753647"><ele>338.3333333333333</ele><time>2026-04-04T07:44:36.117Z</time></trkpt><trkpt lat="43.8637188" lon="10.8753121"><ele>337.0</ele><time>2026-04-04T07:44:37.117Z</time></trkpt><trkpt lat="43.8637668" lon="10.8751851"><ele>334.66666666666663</ele><time>2026-04-04T07:44:39.118Z</time></trkpt><trkpt lat="43.8636766" lon="10.8750791"><ele>332.3333333333333</ele><time>2026-04-04T07:44:41.118Z</time></trkpt><trkpt lat="43.8636033" lon="10.8750237"><ele>330.0</ele><time>2026-04-04T07:44:42.117Z</time></trkpt><trkpt lat="43.8635487" lon="10.8749676"><ele>327.6666666666667</ele><time>2026-04-04T07:44:43.118Z</time></trkpt><trkpt lat="43.8634848" lon="10.874908"><ele>325.33333333333337</ele><time>2026-04-04T07:44:44.118Z</time></trkpt><trkpt lat="43.8634716" lon="10.8747946"><ele>323.0</ele><time>2026-04-04T07:44:45.118Z</time></trkpt><trkpt lat="43.8634603" lon="10.8746361"><ele>319.1666666666667</ele><time>2026-04-04T07:44:46.117Z</time></trkpt><trkpt lat="43.8634126" lon="10.8745746"><ele>315.33333333333337</ele><time>2026-04-04T07:44:47.117Z</time></trkpt><trkpt lat="43.8633037" lon="10.8745179"><ele>311.5</ele><time>2026-04-04T07:44:49.118Z</time></trkpt><trkpt lat="43.8632391" lon="10.8744939"><ele>307.6666666666667</ele><time>2026-04-04T07:44:50.118Z</time></trkpt><trkpt lat="43.863136" lon="10.8744565"><ele>303.8333333333333</ele><time>2026-04-04T07:44:52.117Z</time></trkpt><trkpt lat="43.8630776" lon="10.8743672"><ele>300.0</ele><time>2026-04-04T07:44:54.117Z</time></trkpt><trkpt lat="43.8629517" lon="10.8742426"><ele>300.0</ele><time>2026-04-04T07:44:56.118Z</time></trkpt><trkpt lat="43.8628972" lon="10.8741763"><ele>300.0</ele><time>2026-04-04T07:44:57.118Z</time></trkpt><trkpt lat="43.8628273" lon="10.8741539"><ele>300.0</ele><time>2026-04-04T07:44:58.117Z</time></trkpt><trkpt lat="43.8627682" lon="10.8741005"><ele>300.0</ele><time>2026-04-04T07:44:59.117Z</time></trkpt><trkpt lat="43.8626973" lon="10.8740623"><ele>300.0</ele><time>2026-04-04T07:45:00.118Z</time></trkpt><trkpt lat="43.8626753" lon="10.8739185"><ele>300.0</ele><time>2026-04-04T07:45:02.119Z</time></trkpt><trkpt lat="43.8627082" lon="10.8737803"><ele>300.0</ele><time>2026-04-04T07:45:04.118Z</time></trkpt><trkpt lat="43.8627063" lon="10.8736907"><ele>300.0</ele><time>2026-04-04T07:45:05.117Z</time></trkpt><trkpt lat="43.8626004" lon="10.8735641"><ele>300.0</ele><time>2026-04-04T07:45:07.117Z</time></trkpt><trkpt lat="43.8625462" lon="10.8735089"><ele>300.0</ele><time>2026-04-04T07:45:08.118Z</time></trkpt><trkpt lat="43.8624698" lon="10.8734489"><ele>300.0</ele><time>2026-04-04T07:45:09.118Z</time></trkpt><trkpt lat="43.8623866" lon="10.8734045"><ele>300.0</ele><time>2026-04-04T07:45:10.118Z</time></trkpt><trkpt lat="43.8622791" lon="10.8733538"><ele>296.8333333333333</ele><time>2026-04-04T07:45:11.119Z</time></trkpt><trkpt lat="43.8621873" lon="10.8733104"><ele>293.6666666666667</ele><time>2026-04-04T07:45:12.118Z</time></trkpt><trkpt lat="43.8621148" lon="10.8732018"><ele>290.5</ele><time>2026-04-04T07:45:13.118Z</time></trkpt><trkpt lat="43.8620198" lon="10.8731336"><ele>287.33333333333337</ele><time>2026-04-04T07:45:14.118Z</time></trkpt><trkpt lat="43.8619591" lon="10.8730871"><ele>284.1666666666667</ele><time>2026-04-04T07:45:15.118Z</time></trkpt><trkpt lat="43.8619048" lon="10.8730332"><ele>281.0</ele><time>2026-04-04T07:45:16.119Z</time></trkpt><trkpt lat="43.8618849" lon="10.8728459"><ele>281.0</ele><time>2026-04-04T07:45:18.118Z</time></trkpt><trkpt lat="43.8618648" lon="10.8727517"><ele>281.0</ele><time>2026-04-04T07:45:19.118Z</time></trkpt><trkpt lat="43.8618485" lon="10.872635"><ele>281.0</ele><time>2026-04-04T07:45:20.117Z</time></trkpt><trkpt lat="43.8617865" lon="10.8725572"><ele>281.0</ele><time>2026-04-04T07:45:21.118Z</time></trkpt><trkpt lat="43.8617103" lon="10.8725188"><ele>281.0</ele><time>2026-04-04T07:45:22.117Z</time></trkpt><trkpt lat="43.8616343" lon="10.872466"><ele>281.0</ele><time>2026-04-04T07:45:23.118Z</time></trkpt><trkpt lat="43.8615642" lon="10.8724328"><ele>278.2</ele><time>2026-04-04T07:45:24.118Z</time></trkpt><trkpt lat="43.8614491" lon="10.8723684"><ele>275.40000000000003</ele><time>2026-04-04T07:45:25.117Z</time></trkpt><trkpt lat="43.8613552" lon="10.8723009"><ele>272.6</ele><time>2026-04-04T07:45:26.118Z</time></trkpt><trkpt lat="43.8613097" lon="10.8722231"><ele>269.8</ele><time>2026-04-04T07:45:27.118Z</time></trkpt><trkpt lat="43.8612447" lon="10.8721539"><ele>267.0</ele><time>2026-04-04T07:45:28.118Z</time></trkpt><trkpt lat="43.8611935" lon="10.8720684"><ele>267.0</ele><time>2026-04-04T07:45:29.118Z</time></trkpt><trkpt lat="43.8612119" lon="10.8719368"><ele>267.0</ele><time>2026-04-04T07:45:30.117Z</time></trkpt><trkpt lat="43.8612193" lon="10.8718121"><ele>267.0</ele><time>2026-04-04T07:45:32.118Z</time></trkpt><trkpt lat="43.861283" lon="10.8717866"><ele>267.0</ele><time>2026-04-04T07:45:34.118Z</time></trkpt><trkpt lat="43.8613945" lon="10.8717571"><ele>267.0</ele><time>2026-04-04T07:45:36.118Z</time></trkpt><trkpt lat="43.861499" lon="10.8716654"><ele>267.8571428571429</ele><time>2026-04-04T07:45:38.117Z</time></trkpt><trkpt lat="43.8615444" lon="10.8715905"><ele>268.7142857142857</ele><time>2026-04-04T07:45:39.118Z</time></trkpt><trkpt lat="43.8615965" lon="10.8715143"><ele>269.57142857142856</ele><time>2026-04-04T07:45:40.118Z</time></trkpt><trkpt lat="43.8616455" lon="10.8714576"><ele>270.42857142857144</ele><time>2026-04-04T07:45:41.118Z</time></trkpt><trkpt lat="43.861699" lon="10.8713958"><ele>271.2857142857143</ele><time>2026-04-04T07:45:42.117Z</time></trkpt><trkpt lat="43.8617464" lon="10.8713317"><ele>272.14285714285717</ele><time>2026-04-04T07:45:43.117Z</time></trkpt><trkpt lat="43.8617896" lon="10.8712647"><ele>273.0</ele><time>2026-04-04T07:45:44.119Z</time></trkpt><trkpt lat="43.8618374" lon="10.8711951"><ele>274.7142857142857</ele><time>2026-04-04T07:45:45.118Z</time></trkpt><trkpt lat="43.8618913" lon="10.8711361"><ele>276.42857142857144</ele><time>2026-04-04T07:45:46.118Z</time></trkpt><trkpt lat="43.8619521" lon="10.8710841"><ele>278.1428571428571</ele><time>2026-04-04T07:45:47.119Z</time></trkpt><trkpt lat="43.8620173" lon="10.8710354"><ele>279.8571428571429</ele><time>2026-04-04T07:45:48.118Z</time></trkpt><trkpt lat="43.862083" lon="10.8709827"><ele>281.57142857142856</ele><time>2026-04-04T07:45:49.117Z</time></trkpt><trkpt lat="43.8621487" lon="10.8709228"><ele>283.2857142857143</ele><time>2026-04-04T07:45:50.117Z</time></trkpt><trkpt lat="43.8622025" lon="10.8708518"><ele>285.0</ele><time>2026-04-04T07:45:51.118Z</time></trkpt><trkpt lat="43.8622365" lon="10.8707728"><ele>285.0</ele><time>2026-04-04T07:45:52.118Z</time></trkpt><trkpt lat="43.8622555" lon="10.8706784"><ele>285.0</ele><time>2026-04-04T07:45:53.119Z</time></trkpt><trkpt lat="43.8622626" lon="10.8705829"><ele>285.0</ele><time>2026-04-04T07:45:54.117Z</time></trkpt><trkpt lat="43.8622701" lon="10.8704686"><ele>285.0</ele><time>2026-04-04T07:45:55.118Z</time></trkpt><trkpt lat="43.8622811" lon="10.8703627"><ele>285.0</ele><time>2026-04-04T07:45:56.118Z</time></trkpt><trkpt lat="43.8623041" lon="10.8702789"><ele>285.0</ele><time>2026-04-04T07:45:57.117Z</time></trkpt><trkpt lat="43.8623912" lon="10.8702116"><ele>285.0</ele><time>2026-04-04T07:45:59.118Z</time></trkpt><trkpt lat="43.8624826" lon="10.8702793"><ele>285.0</ele><time>2026-04-04T07:46:01.117Z</time></trkpt><trkpt lat="43.8625027" lon="10.870368"><ele>285.0</ele><time>2026-04-04T07:46:02.117Z</time></trkpt><trkpt lat="43.8625002" lon="10.8704696"><ele>285.0</ele><time>2026-04-04T07:46:03.118Z</time></trkpt><trkpt lat="43.8624963" lon="10.8705839"><ele>285.0</ele><time>2026-04-04T07:46:04.118Z</time></trkpt><trkpt lat="43.8625287" lon="10.8708142"><ele>288.4</ele><time>2026-04-04T07:46:05.117Z</time></trkpt><trkpt lat="43.8625398" lon="10.8709571"><ele>291.8</ele><time>2026-04-04T07:46:06.117Z</time></trkpt><trkpt lat="43.862536" lon="10.8710878"><ele>295.2</ele><time>2026-04-04T07:46:07.117Z</time></trkpt><trkpt lat="43.8625259" lon="10.8711771"><ele>298.6</ele><time>2026-04-04T07:46:08.118Z</time></trkpt><trkpt lat="43.8625502" lon="10.8712824"><ele>302.0</ele><time>2026-04-04T07:46:10.118Z</time></trkpt><trkpt lat="43.862651" lon="10.8712067"><ele>305.4</ele><time>2026-04-04T07:46:13.117Z</time></trkpt><trkpt lat="43.8626991" lon="10.8711353"><ele>308.79999999999995</ele><time>2026-04-04T07:46:14.118Z</time></trkpt><trkpt lat="43.8627519" lon="10.8710553"><ele>312.2</ele><time>2026-04-04T07:46:15.119Z</time></trkpt><trkpt lat="43.8628437" lon="10.8710043"><ele>315.59999999999997</ele><time>2026-04-04T07:46:17.119Z</time></trkpt><trkpt lat="43.8629629" lon="10.8710195"><ele>319.0</ele><time>2026-04-04T07:46:19.118Z</time></trkpt><trkpt lat="43.8630466" lon="10.8711402"><ele>319.0</ele><time>2026-04-04T07:46:20.117Z</time></trkpt><trkpt lat="43.8631222" lon="10.8712437"><ele>319.0</ele><time>2026-04-04T07:46:21.117Z</time></trkpt><trkpt lat="43.863204" lon="10.871358"><ele>319.0</ele><time>2026-04-04T07:46:22.117Z</time></trkpt><trkpt lat="43.8632738" lon="10.871438"><ele>319.0</ele><time>2026-04-04T07:46:23.117Z</time></trkpt><trkpt lat="43.8633427" lon="10.8714679"><ele>319.0</ele><time>2026-04-04T07:46:24.118Z</time></trkpt><trkpt lat="43.8634396" lon="10.871457"><ele>318.4</ele><time>2026-04-04T07:46:25.118Z</time></trkpt><trkpt lat="43.8635314" lon="10.8714535"><ele>317.79999999999995</ele><time>2026-04-04T07:46:26.118Z</time></trkpt><trkpt lat="43.8636329" lon="10.8714432"><ele>317.20000000000005</ele><time>2026-04-04T07:46:27.117Z</time></trkpt><trkpt lat="43.8637784" lon="10.871425"><ele>316.6</ele><time>2026-04-04T07:46:28.118Z</time></trkpt><trkpt lat="43.8638765" lon="10.8714021"><ele>316.0</ele><time>2026-04-04T07:46:29.118Z</time></trkpt><trkpt lat="43.8639893" lon="10.8713972"><ele>316.0</ele><time>2026-04-04T07:46:30.118Z</time></trkpt><trkpt lat="43.8640864" lon="10.8713758"><ele>316.0</ele><time>2026-04-04T07:46:31.117Z</time></trkpt><trkpt lat="43.8641906" lon="10.8713962"><ele>316.0</ele><time>2026-04-04T07:46:32.118Z</time></trkpt><trkpt lat="43.8642932" lon="10.871438"><ele>316.0</ele><time>2026-04-04T07:46:33.118Z</time></trkpt><trkpt lat="43.8643932" lon="10.8714486"><ele>316.0</ele><time>2026-04-04T07:46:34.117Z</time></trkpt><trkpt lat="43.8644859" lon="10.8715398"><ele>314.6</ele><time>2026-04-04T07:46:35.118Z</time></trkpt><trkpt lat="43.8645665" lon="10.8714954"><ele>313.20000000000005</ele><time>2026-04-04T07:46:36.119Z</time></trkpt><trkpt lat="43.8646612" lon="10.871445"><ele>311.79999999999995</ele><time>2026-04-04T07:46:37.117Z</time></trkpt><trkpt lat="43.8647542" lon="10.8713962"><ele>310.4</ele><time>2026-04-04T07:46:38.118Z</time></trkpt><trkpt lat="43.8648571" lon="10.8713858"><ele>309.0</ele><time>2026-04-04T07:46:39.118Z</time></trkpt><trkpt lat="43.8649792" lon="10.8713822"><ele>309.0</ele><time>2026-04-04T07:46:40.118Z</time></trkpt><trkpt lat="43.8651047" lon="10.871425"><ele>309.0</ele><time>2026-04-04T07:46:41.117Z</time></trkpt><trkpt lat="43.8652263" lon="10.8714624"><ele>309.0</ele><time>2026-04-04T07:46:42.118Z</time></trkpt><trkpt lat="43.8653429" lon="10.8715391"><ele>309.0</ele><time>2026-04-04T07:46:43.118Z</time></trkpt><trkpt lat="43.8654666" lon="10.8716044"><ele>307.1666666666667</ele><time>2026-04-04T07:46:44.118Z</time></trkpt><trkpt lat="43.8655786" lon="10.8716686"><ele>305.3333333333333</ele><time>2026-04-04T07:46:45.117Z</time></trkpt><trkpt lat="43.8656374" lon="10.8717193"><ele>303.5</ele><time>2026-04-04T07:46:46.117Z</time></trkpt><trkpt lat="43.8657133" lon="10.8717605"><ele>301.66666666666663</ele><time>2026-04-04T07:46:47.117Z</time></trkpt><trkpt lat="43.8657836" lon="10.8717828"><ele>299.8333333333333</ele><time>2026-04-04T07:46:48.118Z</time></trkpt><trkpt lat="43.8658571" lon="10.8717434"><ele>298.0</ele><time>2026-04-04T07:46:49.118Z</time></trkpt><trkpt lat="43.8659266" lon="10.871673"><ele>299.4</ele><time>2026-04-04T07:46:50.117Z</time></trkpt><trkpt lat="43.8660031" lon="10.8715771"><ele>300.8</ele><time>2026-04-04T07:46:51.118Z</time></trkpt><trkpt lat="43.8660739" lon="10.8714868"><ele>302.2</ele><time>2026-04-04T07:46:52.118Z</time></trkpt><trkpt lat="43.8661176" lon="10.8714"><ele>303.6</ele><time>2026-04-04T07:46:53.118Z</time></trkpt><trkpt lat="43.8661477" lon="10.8712891"><ele>305.0</ele><time>2026-04-04T07:46:54.118Z</time></trkpt><trkpt lat="43.866162" lon="10.8711657"><ele>305.0</ele><time>2026-04-04T07:46:55.118Z</time></trkpt><trkpt lat="43.8661652" lon="10.8710502"><ele>305.0</ele><time>2026-04-04T07:46:56.118Z</time></trkpt><trkpt lat="43.8661455" lon="10.8709009"><ele>305.0</ele><time>2026-04-04T07:46:57.119Z</time></trkpt><trkpt lat="43.8661477" lon="10.870784"><ele>305.0</ele><time>2026-04-04T07:46:58.118Z</time></trkpt><trkpt lat="43.8661389" lon="10.8706926"><ele>305.0</ele><time>2026-04-04T07:46:59.117Z</time></trkpt><trkpt lat="43.8661395" lon="10.8705934"><ele>305.0</ele><time>2026-04-04T07:47:00.118Z</time></trkpt><trkpt lat="43.8661388" lon="10.8705008"><ele>304.14285714285717</ele><time>2026-04-04T07:47:01.118Z</time></trkpt><trkpt lat="43.8661444" lon="10.8703985"><ele>303.2857142857143</ele><time>2026-04-04T07:47:02.117Z</time></trkpt><trkpt lat="43.8661546" lon="10.8703022"><ele>302.42857142857144</ele><time>2026-04-04T07:47:03.118Z</time></trkpt><trkpt lat="43.8661744" lon="10.8702108"><ele>301.57142857142856</ele><time>2026-04-04T07:47:04.118Z</time></trkpt><trkpt lat="43.8662125" lon="10.8701257"><ele>300.7142857142857</ele><time>2026-04-04T07:47:05.117Z</time></trkpt><trkpt lat="43.866259" lon="10.8700444"><ele>299.85714285714283</ele><time>2026-04-04T07:47:06.118Z</time></trkpt><trkpt lat="43.8663269" lon="10.8699873"><ele>299.0</ele><time>2026-04-04T07:47:07.118Z</time></trkpt><trkpt lat="43.8664126" lon="10.869956"><ele>297.0</ele><time>2026-04-04T07:47:08.118Z</time></trkpt><trkpt lat="43.8665067" lon="10.8699411"><ele>295.0</ele><time>2026-04-04T07:47:09.118Z</time></trkpt><trkpt lat="43.8666031" lon="10.8699401"><ele>293.0</ele><time>2026-04-04T07:47:10.118Z</time></trkpt><trkpt lat="43.8666931" lon="10.8699439"><ele>291.0</ele><time>2026-04-04T07:47:11.118Z</time></trkpt><trkpt lat="43.8667813" lon="10.8699518"><ele>289.0</ele><time>2026-04-04T07:47:12.117Z</time></trkpt><trkpt lat="43.8668643" lon="10.8699815"><ele>289.66666666666663</ele><time>2026-04-04T07:47:13.117Z</time></trkpt><trkpt lat="43.8669392" lon="10.8700281"><ele>290.3333333333333</ele><time>2026-04-04T07:47:14.118Z</time></trkpt><trkpt lat="43.8670168" lon="10.8700871"><ele>291.0</ele><time>2026-04-04T07:47:15.118Z</time></trkpt><trkpt lat="43.8670918" lon="10.8701514"><ele>291.6666666666667</ele><time>2026-04-04T07:47:16.118Z</time></trkpt><trkpt lat="43.8671686" lon="10.8702148"><ele>292.33333333333337</ele><time>2026-04-04T07:47:17.118Z</time></trkpt><trkpt lat="43.8672515" lon="10.8702777"><ele>293.0</ele><time>2026-04-04T07:47:18.118Z</time></trkpt><trkpt lat="43.867334" lon="10.8703352"><ele>293.0</ele><time>2026-04-04T07:47:19.118Z</time></trkpt><trkpt lat="43.8674108" lon="10.8703895"><ele>293.0</ele><time>2026-04-04T07:47:20.118Z</time></trkpt><trkpt lat="43.8674783" lon="10.8704362"><ele>293.0</ele><time>2026-04-04T07:47:21.118Z</time></trkpt><trkpt lat="43.8675365" lon="10.8704727"><ele>293.0</ele><time>2026-04-04T07:47:22.119Z</time></trkpt><trkpt lat="43.8676316" lon="10.8705047"><ele>293.0</ele><time>2026-04-04T07:47:24.118Z</time></trkpt><trkpt lat="43.8677029" lon="10.8704275"><ele>293.0</ele><time>2026-04-04T07:47:28.117Z</time></trkpt><trkpt lat="43.8677863" lon="10.8702656"><ele>290.25</ele><time>2026-04-04T07:47:30.118Z</time></trkpt><trkpt lat="43.8678486" lon="10.8701375"><ele>287.5</ele><time>2026-04-04T07:47:31.117Z</time></trkpt><trkpt lat="43.8679287" lon="10.8699861"><ele>284.75</ele><time>2026-04-04T07:47:32.118Z</time></trkpt><trkpt lat="43.8680148" lon="10.8698242"><ele>282.0</ele><time>2026-04-04T07:47:33.118Z</time></trkpt><trkpt lat="43.8681111" lon="10.8696538"><ele>282.0</ele><time>2026-04-04T07:47:34.117Z</time></trkpt><trkpt lat="43.8682059" lon="10.8694924"><ele>282.0</ele><time>2026-04-04T07:47:35.118Z</time></trkpt><trkpt lat="43.8683054" lon="10.8693267"><ele>282.0</ele><time>2026-04-04T07:47:36.118Z</time></trkpt><trkpt lat="43.868402" lon="10.8691552"><ele>282.0</ele><time>2026-04-04T07:47:37.118Z</time></trkpt><trkpt lat="43.868491" lon="10.8689844"><ele>282.0</ele><time>2026-04-04T07:47:38.118Z</time></trkpt><trkpt lat="43.8685738" lon="10.8688052"><ele>282.0</ele><time>2026-04-04T07:47:39.119Z</time></trkpt><trkpt lat="43.868654" lon="10.8686108"><ele>282.0</ele><time>2026-04-04T07:47:40.118Z</time></trkpt><trkpt lat="43.8687345" lon="10.8684105"><ele>282.0</ele><time>2026-04-04T07:47:41.118Z</time></trkpt><trkpt lat="43.8688168" lon="10.8682043"><ele>282.0</ele><time>2026-04-04T07:47:42.118Z</time></trkpt><trkpt lat="43.8689088" lon="10.867992"><ele>282.0</ele><time>2026-04-04T07:47:43.117Z</time></trkpt><trkpt lat="43.8690081" lon="10.8677816"><ele>282.0</ele><time>2026-04-04T07:47:44.118Z</time></trkpt><trkpt lat="43.8691147" lon="10.8675811"><ele>282.0</ele><time>2026-04-04T07:47:45.118Z</time></trkpt><trkpt lat="43.8692246" lon="10.8673908"><ele>280.6666666666667</ele><time>2026-04-04T07:47:46.118Z</time></trkpt><trkpt lat="43.8693211" lon="10.8672091"><ele>279.33333333333337</ele><time>2026-04-04T07:47:47.118Z</time></trkpt><trkpt lat="43.8693953" lon="10.8670275"><ele>278.0</ele><time>2026-04-04T07:47:48.117Z</time></trkpt><trkpt lat="43.869463" lon="10.8668477"><ele>277.5</ele><time>2026-04-04T07:47:49.118Z</time></trkpt><trkpt lat="43.8695381" lon="10.8666796"><ele>277.0</ele><time>2026-04-04T07:47:50.117Z</time></trkpt><trkpt lat="43.869625" lon="10.8665394"><ele>276.5</ele><time>2026-04-04T07:47:51.118Z</time></trkpt><trkpt lat="43.8697279" lon="10.8664258"><ele>276.0</ele><time>2026-04-04T07:47:52.118Z</time></trkpt><trkpt lat="43.8698447" lon="10.8663526"><ele>276.0</ele><time>2026-04-04T07:47:53.117Z</time></trkpt><trkpt lat="43.8699758" lon="10.8663015"><ele>276.0</ele><time>2026-04-04T07:47:54.118Z</time></trkpt><trkpt lat="43.8701154" lon="10.866251"><ele>276.0</ele><time>2026-04-04T07:47:55.117Z</time></trkpt><trkpt lat="43.8702518" lon="10.8661821"><ele>276.0</ele><time>2026-04-04T07:47:56.118Z</time></trkpt><trkpt lat="43.8703747" lon="10.8660937"><ele>275.2</ele><time>2026-04-04T07:47:57.118Z</time></trkpt><trkpt lat="43.8704743" lon="10.8659846"><ele>274.40000000000003</ele><time>2026-04-04T07:47:58.117Z</time></trkpt><trkpt lat="43.8705547" lon="10.8658635"><ele>273.6</ele><time>2026-04-04T07:47:59.117Z</time></trkpt><trkpt lat="43.8706134" lon="10.865738"><ele>272.8</ele><time>2026-04-04T07:48:00.118Z</time></trkpt><trkpt lat="43.8706488" lon="10.8656185"><ele>272.0</ele><time>2026-04-04T07:48:01.118Z</time></trkpt><trkpt lat="43.8706703" lon="10.8655227"><ele>272.0</ele><time>2026-04-04T07:48:02.118Z</time></trkpt><trkpt lat="43.8707334" lon="10.8654096"><ele>272.0</ele><time>2026-04-04T07:48:04.118Z</time></trkpt><trkpt lat="43.8708371" lon="10.865388"><ele>272.0</ele><time>2026-04-04T07:48:06.118Z</time></trkpt><trkpt lat="43.8709014" lon="10.8654049"><ele>272.0</ele><time>2026-04-04T07:48:07.119Z</time></trkpt><trkpt lat="43.8709715" lon="10.8654205"><ele>272.0</ele><time>2026-04-04T07:48:08.117Z</time></trkpt><trkpt lat="43.8710367" lon="10.8654399"><ele>272.0</ele><time>2026-04-04T07:48:09.117Z</time></trkpt><trkpt lat="43.8710989" lon="10.8654575"><ele>268.0</ele><time>2026-04-04T07:48:10.118Z</time></trkpt><trkpt lat="43.8712237" lon="10.8654445"><ele>264.0</ele><time>2026-04-04T07:48:12.118Z</time></trkpt><trkpt lat="43.8712938" lon="10.8654356"><ele>260.0</ele><time>2026-04-04T07:48:13.118Z</time></trkpt><trkpt lat="43.8713743" lon="10.86541"><ele>256.0</ele><time>2026-04-04T07:48:14.117Z</time></trkpt><trkpt lat="43.8714523" lon="10.8653077"><ele>252.0</ele><time>2026-04-04T07:48:15.118Z</time></trkpt><trkpt lat="43.8714898" lon="10.8652148"><ele>254.6</ele><time>2026-04-04T07:48:16.117Z</time></trkpt><trkpt lat="43.8715275" lon="10.8650871"><ele>257.2</ele><time>2026-04-04T07:48:17.118Z</time></trkpt><trkpt lat="43.8715716" lon="10.8649948"><ele>259.8</ele><time>2026-04-04T07:48:18.118Z</time></trkpt><trkpt lat="43.87165" lon="10.8649103"><ele>262.4</ele><time>2026-04-04T07:48:19.118Z</time></trkpt><trkpt lat="43.8717624" lon="10.8648444"><ele>265.0</ele><time>2026-04-04T07:48:20.118Z</time></trkpt><trkpt lat="43.8718869" lon="10.8647729"><ele>266.8</ele><time>2026-04-04T07:48:21.118Z</time></trkpt><trkpt lat="43.8719754" lon="10.864712"><ele>268.6</ele><time>2026-04-04T07:48:22.117Z</time></trkpt><trkpt lat="43.872069" lon="10.864684"><ele>270.4</ele><time>2026-04-04T07:48:23.118Z</time></trkpt><trkpt lat="43.8721695" lon="10.8647075"><ele>272.2</ele><time>2026-04-04T07:48:25.118Z</time></trkpt><trkpt lat="43.8722161" lon="10.8648551"><ele>274.0</ele><time>2026-04-04T07:48:27.117Z</time></trkpt><trkpt lat="43.8721973" lon="10.8649444"><ele>274.0</ele><time>2026-04-04T07:48:28.118Z</time></trkpt><trkpt lat="43.8721626" lon="10.8650363"><ele>274.0</ele><time>2026-04-04T07:48:29.117Z</time></trkpt><trkpt lat="43.8721262" lon="10.8651305"><ele>274.0</ele><time>2026-04-04T07:48:30.117Z</time></trkpt><trkpt lat="43.8721069" lon="10.8652419"><ele>274.0</ele><time>2026-04-04T07:48:31.118Z</time></trkpt><trkpt lat="43.8721055" lon="10.8653533"><ele>274.0</ele><time>2026-04-04T07:48:32.118Z</time></trkpt><trkpt lat="43.8721332" lon="10.8654949"><ele>274.0</ele><time>2026-04-04T07:48:33.118Z</time></trkpt><trkpt lat="43.8721525" lon="10.8656564"><ele>272.3333333333333</ele><time>2026-04-04T07:48:34.117Z</time></trkpt><trkpt lat="43.8722244" lon="10.8658524"><ele>270.6666666666667</ele><time>2026-04-04T07:48:35.119Z</time></trkpt><trkpt lat="43.8722898" lon="10.8660548"><ele>269.0</ele><time>2026-04-04T07:48:36.117Z</time></trkpt><trkpt lat="43.8723465" lon="10.8662262"><ele>272.25</ele><time>2026-04-04T07:48:37.118Z</time></trkpt><trkpt lat="43.8724036" lon="10.8663736"><ele>275.5</ele><time>2026-04-04T07:48:38.118Z</time></trkpt><trkpt lat="43.8724778" lon="10.8665153"><ele>278.75</ele><time>2026-04-04T07:48:39.118Z</time></trkpt><trkpt lat="43.8725586" lon="10.8666491"><ele>282.0</ele><time>2026-04-04T07:48:40.118Z</time></trkpt><trkpt lat="43.8726283" lon="10.8667688"><ele>282.0</ele><time>2026-04-04T07:48:41.118Z</time></trkpt><trkpt lat="43.8726871" lon="10.8668299"><ele>282.0</ele><time>2026-04-04T07:48:42.118Z</time></trkpt><trkpt lat="43.8727376" lon="10.8668831"><ele>282.0</ele><time>2026-04-04T07:48:43.118Z</time></trkpt><trkpt lat="43.8728096" lon="10.866907"><ele>282.0</ele><time>2026-04-04T07:48:44.118Z</time></trkpt><trkpt lat="43.8728289" lon="10.8668108"><ele>282.0</ele><time>2026-04-04T07:48:45.117Z</time></trkpt><trkpt lat="43.8728833" lon="10.8667247"><ele>282.0</ele><time>2026-04-04T07:48:46.118Z</time></trkpt><trkpt lat="43.8729808" lon="10.8667332"><ele>279.4</ele><time>2026-04-04T07:48:48.118Z</time></trkpt><trkpt lat="43.8730327" lon="10.86681"><ele>276.79999999999995</ele><time>2026-04-04T07:48:49.118Z</time></trkpt><trkpt lat="43.8730694" lon="10.8669383"><ele>274.2</ele><time>2026-04-04T07:48:50.118Z</time></trkpt><trkpt lat="43.8730938" lon="10.8671075"><ele>271.59999999999997</ele><time>2026-04-04T07:48:51.117Z</time></trkpt><trkpt lat="43.8731263" lon="10.8672665"><ele>269.0</ele><time>2026-04-04T07:48:52.117Z</time></trkpt><trkpt lat="43.8731491" lon="10.8673974"><ele>269.0</ele><time>2026-04-04T07:48:53.118Z</time></trkpt><trkpt lat="43.8732281" lon="10.8675086"><ele>269.0</ele><time>2026-04-04T07:48:54.118Z</time></trkpt><trkpt lat="43.8732834" lon="10.8676247"><ele>269.0</ele><time>2026-04-04T07:48:55.119Z</time></trkpt><trkpt lat="43.8733383" lon="10.8677296"><ele>269.0</ele><time>2026-04-04T07:48:56.119Z</time></trkpt><trkpt lat="43.8733899" lon="10.8678412"><ele>269.0</ele><time>2026-04-04T07:48:57.118Z</time></trkpt><trkpt lat="43.8734296" lon="10.8679518"><ele>267.57142857142856</ele><time>2026-04-04T07:48:58.117Z</time></trkpt><trkpt lat="43.8734944" lon="10.8679627"><ele>266.14285714285717</ele><time>2026-04-04T07:48:59.117Z</time></trkpt><trkpt lat="43.8735591" lon="10.8679927"><ele>264.7142857142857</ele><time>2026-04-04T07:49:00.118Z</time></trkpt><trkpt lat="43.8736757" lon="10.8679738"><ele>263.2857142857143</ele><time>2026-04-04T07:49:02.118Z</time></trkpt><trkpt lat="43.8737396" lon="10.8679491"><ele>261.8571428571429</ele><time>2026-04-04T07:49:04.117Z</time></trkpt><trkpt lat="43.8737364" lon="10.8678598"><ele>260.42857142857144</ele><time>2026-04-04T07:49:06.118Z</time></trkpt><trkpt lat="43.873699" lon="10.8677886"><ele>259.0</ele><time>2026-04-04T07:49:08.117Z</time></trkpt><trkpt lat="43.8736596" lon="10.867665"><ele>262.8</ele><time>2026-04-04T07:49:10.118Z</time></trkpt><trkpt lat="43.8736395" lon="10.8675078"><ele>266.59999999999997</ele><time>2026-04-04T07:49:12.117Z</time></trkpt><trkpt lat="43.8736128" lon="10.8673499"><ele>270.4</ele><time>2026-04-04T07:49:14.118Z</time></trkpt><trkpt lat="43.873594" lon="10.8672232"><ele>274.2</ele><time>2026-04-04T07:49:16.118Z</time></trkpt><trkpt lat="43.873653" lon="10.8671373"><ele>278.0</ele><time>2026-04-04T07:49:18.117Z</time></trkpt><trkpt lat="43.8737531" lon="10.86714"><ele>278.0</ele><time>2026-04-04T07:49:20.118Z</time></trkpt><trkpt lat="43.8738486" lon="10.8671258"><ele>278.0</ele><time>2026-04-04T07:49:22.118Z</time></trkpt><trkpt lat="43.8739097" lon="10.8671018"><ele>278.0</ele><time>2026-04-04T07:49:23.119Z</time></trkpt><trkpt lat="43.873991" lon="10.8670062"><ele>278.0</ele><time>2026-04-04T07:49:25.118Z</time></trkpt><trkpt lat="43.8739622" lon="10.8669101"><ele>278.0</ele><time>2026-04-04T07:49:27.118Z</time></trkpt><trkpt lat="43.8738676" lon="10.8668194"><ele>282.0</ele><time>2026-04-04T07:49:29.117Z</time></trkpt><trkpt lat="43.873802" lon="10.8667544"><ele>286.0</ele><time>2026-04-04T07:49:30.118Z</time></trkpt><trkpt lat="43.8737484" lon="10.866708"><ele>290.0</ele><time>2026-04-04T07:49:31.118Z</time></trkpt><trkpt lat="43.8736958" lon="10.8665717"><ele>294.0</ele><time>2026-04-04T07:49:33.118Z</time></trkpt><trkpt lat="43.8736818" lon="10.8664797"><ele>298.0</ele><time>2026-04-04T07:49:34.119Z</time></trkpt><trkpt lat="43.8736858" lon="10.8663879"><ele>302.0</ele><time>2026-04-04T07:49:35.118Z</time></trkpt><trkpt lat="43.8736906" lon="10.8662989"><ele>302.0</ele><time>2026-04-04T07:49:36.118Z</time></trkpt><trkpt lat="43.8736985" lon="10.8662078"><ele>302.0</ele><time>2026-04-04T07:49:37.118Z</time></trkpt><trkpt lat="43.8737444" lon="10.8661405"><ele>302.0</ele><time>2026-04-04T07:49:39.118Z</time></trkpt><trkpt lat="43.8738223" lon="10.8661498"><ele>302.0</ele><time>2026-04-04T07:49:41.118Z</time></trkpt><trkpt lat="43.8738675" lon="10.866218"><ele>302.0</ele><time>2026-04-04T07:49:42.117Z</time></trkpt><trkpt lat="43.8740147" lon="10.8663133"><ele>302.0</ele><time>2026-04-04T07:49:44.117Z</time></trkpt><trkpt lat="43.8740824" lon="10.8663721"><ele>302.0</ele><time>2026-04-04T07:49:45.118Z</time></trkpt><trkpt lat="43.8742106" lon="10.8664027"><ele>302.0</ele><time>2026-04-04T07:49:47.118Z</time></trkpt><trkpt lat="43.8742792" lon="10.8663807"><ele>302.0</ele><time>2026-04-04T07:49:48.118Z</time></trkpt><trkpt lat="43.8743695" lon="10.8663393"><ele>302.0</ele><time>2026-04-04T07:49:49.118Z</time></trkpt><trkpt lat="43.874488" lon="10.8663164"><ele>302.0</ele><time>2026-04-04T07:49:50.118Z</time></trkpt><trkpt lat="43.8745971" lon="10.8663211"><ele>304.2</ele><time>2026-04-04T07:49:51.118Z</time></trkpt><trkpt lat="43.8747009" lon="10.8663224"><ele>306.4</ele><time>2026-04-04T07:49:52.119Z</time></trkpt><trkpt lat="43.8748049" lon="10.8662977"><ele>308.6</ele><time>2026-04-04T07:49:53.117Z</time></trkpt><trkpt lat="43.8749162" lon="10.8662729"><ele>310.8</ele><time>2026-04-04T07:49:54.117Z</time></trkpt><trkpt lat="43.8750138" lon="10.8662297"><ele>313.0</ele><time>2026-04-04T07:49:55.118Z</time></trkpt><trkpt lat="43.8751049" lon="10.8662152"><ele>317.4</ele><time>2026-04-04T07:49:56.117Z</time></trkpt><trkpt lat="43.8751719" lon="10.8662006"><ele>321.8</ele><time>2026-04-04T07:49:57.118Z</time></trkpt><trkpt lat="43.8752594" lon="10.8662978"><ele>326.2</ele><time>2026-04-04T07:49:59.117Z</time></trkpt><trkpt lat="43.8752806" lon="10.8664866"><ele>330.6</ele><time>2026-04-04T07:50:01.118Z</time></trkpt><trkpt lat="43.8752795" lon="10.8666553"><ele>335.0</ele><time>2026-04-04T07:50:02.117Z</time></trkpt><trkpt lat="43.8752997" lon="10.8668656"><ele>335.0</ele><time>2026-04-04T07:50:03.118Z</time></trkpt><trkpt lat="43.8753248" lon="10.8669958"><ele>335.0</ele><time>2026-04-04T07:50:04.118Z</time></trkpt><trkpt lat="43.875389" lon="10.8671066"><ele>335.0</ele><time>2026-04-04T07:50:05.118Z</time></trkpt><trkpt lat="43.8754417" lon="10.867224"><ele>335.0</ele><time>2026-04-04T07:50:06.118Z</time></trkpt><trkpt lat="43.8755386" lon="10.8673071"><ele>335.0</ele><time>2026-04-04T07:50:07.118Z</time></trkpt><trkpt lat="43.8756115" lon="10.8673972"><ele>335.0</ele><time>2026-04-04T07:50:08.118Z</time></trkpt><trkpt lat="43.8756805" lon="10.8674947"><ele>335.0</ele><time>2026-04-04T07:50:09.118Z</time></trkpt><trkpt lat="43.8757299" lon="10.86761"><ele>335.0</ele><time>2026-04-04T07:50:10.118Z</time></trkpt><trkpt lat="43.8757669" lon="10.8677456"><ele>335.0</ele><time>2026-04-04T07:50:11.118Z</time></trkpt><trkpt lat="43.875801" lon="10.8678729"><ele>335.0</ele><time>2026-04-04T07:50:12.118Z</time></trkpt><trkpt lat="43.8757609" lon="10.8680505"><ele>332.5</ele><time>2026-04-04T07:50:13.118Z</time></trkpt><trkpt lat="43.8757587" lon="10.8681947"><ele>330.0</ele><time>2026-04-04T07:50:14.118Z</time></trkpt><trkpt lat="43.875747" lon="10.8683573"><ele>327.5</ele><time>2026-04-04T07:50:15.118Z</time></trkpt><trkpt lat="43.8757593" lon="10.8685668"><ele>325.0</ele><time>2026-04-04T07:50:16.118Z</time></trkpt><trkpt lat="43.8757525" lon="10.8687246"><ele>324.0</ele><time>2026-04-04T07:50:17.118Z</time></trkpt><trkpt lat="43.8757747" lon="10.8688637"><ele>323.0</ele><time>2026-04-04T07:50:18.119Z</time></trkpt><trkpt lat="43.8757853" lon="10.8689876"><ele>322.0</ele><time>2026-04-04T07:50:19.118Z</time></trkpt><trkpt lat="43.8757982" lon="10.8690957"><ele>321.0</ele><time>2026-04-04T07:50:20.118Z</time></trkpt><trkpt lat="43.8758057" lon="10.869187"><ele>320.0</ele><time>2026-04-04T07:50:21.118Z</time></trkpt><trkpt lat="43.8758271" lon="10.8693162"><ele>319.0</ele><time>2026-04-04T07:50:23.118Z</time></trkpt><trkpt lat="43.8758715" lon="10.8693813"><ele>318.8</ele><time>2026-04-04T07:50:25.118Z</time></trkpt><trkpt lat="43.8759695" lon="10.8693504"><ele>318.59999999999997</ele><time>2026-04-04T07:50:27.117Z</time></trkpt><trkpt lat="43.8760841" lon="10.8693173"><ele>318.4</ele><time>2026-04-04T07:50:29.118Z</time></trkpt><trkpt lat="43.8761939" lon="10.8693597"><ele>318.2</ele><time>2026-04-04T07:50:31.117Z</time></trkpt><trkpt lat="43.8762561" lon="10.8693779"><ele>318.0</ele><time>2026-04-04T07:50:32.117Z</time></trkpt><trkpt lat="43.8763529" lon="10.8693792"><ele>318.0</ele><time>2026-04-04T07:50:34.116Z</time></trkpt><trkpt lat="43.8764353" lon="10.8692937"><ele>318.0</ele><time>2026-04-04T07:50:36.116Z</time></trkpt><trkpt lat="43.8765156" lon="10.8692364"><ele>318.0</ele><time>2026-04-04T07:50:38.117Z</time></trkpt><trkpt lat="43.8765656" lon="10.8690886"><ele>318.0</ele><time>2026-04-04T07:50:40.116Z</time></trkpt><trkpt lat="43.8766108" lon="10.8690265"><ele>318.0</ele><time>2026-04-04T07:50:41.117Z</time></trkpt><trkpt lat="43.8766408" lon="10.8689131"><ele>317.8333333333333</ele><time>2026-04-04T07:50:42.117Z</time></trkpt><trkpt lat="43.876701" lon="10.8688019"><ele>317.6666666666667</ele><time>2026-04-04T07:50:43.117Z</time></trkpt><trkpt lat="43.8767247" lon="10.868678"><ele>317.5</ele><time>2026-04-04T07:50:44.116Z</time></trkpt><trkpt lat="43.876757" lon="10.8685914"><ele>317.33333333333337</ele><time>2026-04-04T07:50:45.118Z</time></trkpt><trkpt lat="43.8768094" lon="10.8684747"><ele>317.1666666666667</ele><time>2026-04-04T07:50:46.116Z</time></trkpt><trkpt lat="43.8768718" lon="10.8684011"><ele>317.0</ele><time>2026-04-04T07:50:47.117Z</time></trkpt><trkpt lat="43.8769225" lon="10.8683151"><ele>322.6</ele><time>2026-04-04T07:50:48.117Z</time></trkpt><trkpt lat="43.8769909" lon="10.8682057"><ele>328.2</ele><time>2026-04-04T07:50:49.117Z</time></trkpt><trkpt lat="43.8770641" lon="10.8681101"><ele>333.8</ele><time>2026-04-04T07:50:50.117Z</time></trkpt><trkpt lat="43.8771336" lon="10.8680045"><ele>339.4</ele><time>2026-04-04T07:50:51.118Z</time></trkpt><trkpt lat="43.8772164" lon="10.8678903"><ele>345.0</ele><time>2026-04-04T07:50:52.116Z</time></trkpt><trkpt lat="43.877313" lon="10.8677848"><ele>345.0</ele><time>2026-04-04T07:50:53.117Z</time></trkpt><trkpt lat="43.8773889" lon="10.86772"><ele>345.0</ele><time>2026-04-04T07:50:54.117Z</time></trkpt><trkpt lat="43.8774829" lon="10.8676604"><ele>345.0</ele><time>2026-04-04T07:50:55.116Z</time></trkpt><trkpt lat="43.8775628" lon="10.8676179"><ele>345.0</ele><time>2026-04-04T07:50:56.117Z</time></trkpt><trkpt lat="43.8776351" lon="10.8675852"><ele>345.0</ele><time>2026-04-04T07:50:57.117Z</time></trkpt><trkpt lat="43.8776718" lon="10.8674916"><ele>345.0</ele><time>2026-04-04T07:50:58.117Z</time></trkpt><trkpt lat="43.8777108" lon="10.8674104"><ele>343.3333333333333</ele><time>2026-04-04T07:50:59.117Z</time></trkpt><trkpt lat="43.8777471" lon="10.8673233"><ele>341.6666666666667</ele><time>2026-04-04T07:51:00.116Z</time></trkpt><trkpt lat="43.8777557" lon="10.867159"><ele>340.0</ele><time>2026-04-04T07:51:02.117Z</time></trkpt><trkpt lat="43.8777755" lon="10.867073"><ele>338.33333333333337</ele><time>2026-04-04T07:51:03.117Z</time></trkpt><trkpt lat="43.877807" lon="10.8669872"><ele>336.6666666666667</ele><time>2026-04-04T07:51:04.117Z</time></trkpt><trkpt lat="43.8778686" lon="10.8669185"><ele>335.0</ele><time>2026-04-04T07:51:05.116Z</time></trkpt><trkpt lat="43.8779409" lon="10.8668562"><ele>335.0</ele><time>2026-04-04T07:51:06.116Z</time></trkpt><trkpt lat="43.8780011" lon="10.8668219"><ele>335.0</ele><time>2026-04-04T07:51:07.116Z</time></trkpt><trkpt lat="43.8780723" lon="10.8667937"><ele>335.0</ele><time>2026-04-04T07:51:08.116Z</time></trkpt><trkpt lat="43.8781612" lon="10.8667542"><ele>335.0</ele><time>2026-04-04T07:51:09.117Z</time></trkpt><trkpt lat="43.8782531" lon="10.8667207"><ele>335.0</ele><time>2026-04-04T07:51:10.117Z</time></trkpt><trkpt lat="43.8783332" lon="10.866698"><ele>335.0</ele><time>2026-04-04T07:51:11.117Z</time></trkpt><trkpt lat="43.8784377" lon="10.8665973"><ele>333.2</ele><time>2026-04-04T07:51:13.117Z</time></trkpt><trkpt lat="43.8784866" lon="10.8665286"><ele>331.4</ele><time>2026-04-04T07:51:14.117Z</time></trkpt><trkpt lat="43.8785191" lon="10.866407"><ele>329.6</ele><time>2026-04-04T07:51:15.117Z</time></trkpt><trkpt lat="43.8785548" lon="10.866281"><ele>327.8</ele><time>2026-04-04T07:51:16.117Z</time></trkpt><trkpt lat="43.8785873" lon="10.866129"><ele>326.0</ele><time>2026-04-04T07:51:17.117Z</time></trkpt><trkpt lat="43.8786174" lon="10.8659828"><ele>327.6666666666667</ele><time>2026-04-04T07:51:18.117Z</time></trkpt><trkpt lat="43.8786837" lon="10.8658785"><ele>329.33333333333337</ele><time>2026-04-04T07:51:19.117Z</time></trkpt><trkpt lat="43.8787424" lon="10.8657852"><ele>331.0</ele><time>2026-04-04T07:51:20.117Z</time></trkpt><trkpt lat="43.8787826" lon="10.8656916"><ele>332.6666666666667</ele><time>2026-04-04T07:51:21.117Z</time></trkpt><trkpt lat="43.8788194" lon="10.8655825"><ele>334.3333333333333</ele><time>2026-04-04T07:51:22.117Z</time></trkpt><trkpt lat="43.8788369" lon="10.8654591"><ele>336.0</ele><time>2026-04-04T07:51:23.117Z</time></trkpt><trkpt lat="43.8788316" lon="10.8653108"><ele>336.0</ele><time>2026-04-04T07:51:24.117Z</time></trkpt><trkpt lat="43.8788371" lon="10.8651625"><ele>336.0</ele><time>2026-04-04T07:51:25.117Z</time></trkpt><trkpt lat="43.878843" lon="10.8650353"><ele>336.0</ele><time>2026-04-04T07:51:26.116Z</time></trkpt><trkpt lat="43.8788388" lon="10.8649273"><ele>336.0</ele><time>2026-04-04T07:51:27.117Z</time></trkpt><trkpt lat="43.878811" lon="10.8648333"><ele>336.0</ele><time>2026-04-04T07:51:28.117Z</time></trkpt><trkpt lat="43.8787718" lon="10.864732"><ele>336.0</ele><time>2026-04-04T07:51:29.116Z</time></trkpt><trkpt lat="43.87873" lon="10.8646098"><ele>336.6666666666667</ele><time>2026-04-04T07:51:30.118Z</time></trkpt><trkpt lat="43.8787101" lon="10.8645067"><ele>337.3333333333333</ele><time>2026-04-04T07:51:31.117Z</time></trkpt><trkpt lat="43.8786821" lon="10.8644029"><ele>338.0</ele><time>2026-04-04T07:51:32.116Z</time></trkpt><trkpt lat="43.8786428" lon="10.8642954"><ele>338.66666666666663</ele><time>2026-04-04T07:51:33.117Z</time></trkpt><trkpt lat="43.878577" lon="10.8643108"><ele>339.3333333333333</ele><time>2026-04-04T07:51:34.118Z</time></trkpt><trkpt lat="43.8785029" lon="10.8642253"><ele>340.0</ele><time>2026-04-04T07:51:37.117Z</time></trkpt><trkpt lat="43.8785474" lon="10.8641257"><ele>341.75</ele><time>2026-04-04T07:51:39.117Z</time></trkpt><trkpt lat="43.8786017" lon="10.8640075"><ele>343.5</ele><time>2026-04-04T07:51:41.117Z</time></trkpt><trkpt lat="43.8786463" lon="10.8638716"><ele>345.25</ele><time>2026-04-04T07:51:43.116Z</time></trkpt><trkpt lat="43.8787135" lon="10.863687"><ele>347.0</ele><time>2026-04-04T07:51:45.117Z</time></trkpt><trkpt lat="43.8787109" lon="10.86355"><ele>350.33333333333337</ele><time>2026-04-04T07:51:46.116Z</time></trkpt><trkpt lat="43.878739" lon="10.8634241"><ele>353.6666666666667</ele><time>2026-04-04T07:51:47.117Z</time></trkpt><trkpt lat="43.8787503" lon="10.8633108"><ele>357.0</ele><time>2026-04-04T07:51:48.117Z</time></trkpt><trkpt lat="43.8787564" lon="10.8631953"><ele>360.3333333333333</ele><time>2026-04-04T07:51:49.117Z</time></trkpt><trkpt lat="43.8787787" lon="10.8630699"><ele>363.66666666666663</ele><time>2026-04-04T07:51:50.116Z</time></trkpt><trkpt lat="43.8788185" lon="10.8629681"><ele>367.0</ele><time>2026-04-04T07:51:51.117Z</time></trkpt><trkpt lat="43.8788579" lon="10.8628911"><ele>367.0</ele><time>2026-04-04T07:51:52.117Z</time></trkpt><trkpt lat="43.8789312" lon="10.8627832"><ele>367.0</ele><time>2026-04-04T07:51:53.116Z</time></trkpt><trkpt lat="43.8789607" lon="10.8626977"><ele>367.0</ele><time>2026-04-04T07:51:54.117Z</time></trkpt><trkpt lat="43.8789668" lon="10.8625897"><ele>367.0</ele><time>2026-04-04T07:51:56.116Z</time></trkpt><trkpt lat="43.8789332" lon="10.8625041"><ele>367.0</ele><time>2026-04-04T07:51:59.117Z</time></trkpt><trkpt lat="43.8789589" lon="10.8623976"><ele>367.0</ele><time>2026-04-04T07:52:02.116Z</time></trkpt><trkpt lat="43.8790661" lon="10.8623274"><ele>365.8</ele><time>2026-04-04T07:52:05.117Z</time></trkpt><trkpt lat="43.879143" lon="10.8623332"><ele>364.6</ele><time>2026-04-04T07:52:06.117Z</time></trkpt><trkpt lat="43.8792417" lon="10.8622643"><ele>363.40000000000003</ele><time>2026-04-04T07:52:08.117Z</time></trkpt><trkpt lat="43.8793169" lon="10.862206"><ele>362.20000000000005</ele><time>2026-04-04T07:52:09.116Z</time></trkpt><trkpt lat="43.8794068" lon="10.862147"><ele>361.0</ele><time>2026-04-04T07:52:10.117Z</time></trkpt><trkpt lat="43.8795006" lon="10.8620904"><ele>361.0</ele><time>2026-04-04T07:52:11.117Z</time></trkpt><trkpt lat="43.8795996" lon="10.8620476"><ele>361.0</ele><time>2026-04-04T07:52:12.116Z</time></trkpt><trkpt lat="43.879717" lon="10.861986"><ele>361.0</ele><time>2026-04-04T07:52:14.117Z</time></trkpt><trkpt lat="43.87978" lon="10.8619391"><ele>361.0</ele><time>2026-04-04T07:52:15.116Z</time></trkpt><trkpt lat="43.8798313" lon="10.8618771"><ele>361.0</ele><time>2026-04-04T07:52:16.117Z</time></trkpt><trkpt lat="43.8798822" lon="10.8618179"><ele>361.0</ele><time>2026-04-04T07:52:17.117Z</time></trkpt><trkpt lat="43.8799312" lon="10.8616863"><ele>365.0</ele><time>2026-04-04T07:52:18.117Z</time></trkpt><trkpt lat="43.879963" lon="10.8615368"><ele>369.0</ele><time>2026-04-04T07:52:19.117Z</time></trkpt><trkpt lat="43.8800022" lon="10.8613884"><ele>373.0</ele><time>2026-04-04T07:52:20.117Z</time></trkpt><trkpt lat="43.8800272" lon="10.8612494"><ele>377.0</ele><time>2026-04-04T07:52:21.117Z</time></trkpt><trkpt lat="43.880015" lon="10.8611543"><ele>381.0</ele><time>2026-04-04T07:52:22.118Z</time></trkpt><trkpt lat="43.8800093" lon="10.861055"><ele>382.20000000000005</ele><time>2026-04-04T07:52:23.118Z</time></trkpt><trkpt lat="43.8800094" lon="10.8609144"><ele>383.40000000000003</ele><time>2026-04-04T07:52:25.117Z</time></trkpt><trkpt lat="43.8801357" lon="10.8609233"><ele>384.6</ele><time>2026-04-04T07:52:27.116Z</time></trkpt><trkpt lat="43.8802126" lon="10.8609483"><ele>385.8</ele><time>2026-04-04T07:52:28.117Z</time></trkpt><trkpt lat="43.8802824" lon="10.8609091"><ele>387.0</ele><time>2026-04-04T07:52:29.117Z</time></trkpt><trkpt lat="43.8803625" lon="10.8608931"><ele>387.0</ele><time>2026-04-04T07:52:30.117Z</time></trkpt><trkpt lat="43.8804435" lon="10.8608346"><ele>387.0</ele><time>2026-04-04T07:52:32.117Z</time></trkpt><trkpt lat="43.880427" lon="10.8607335"><ele>387.0</ele><time>2026-04-04T07:52:36.117Z</time></trkpt><trkpt lat="43.8803634" lon="10.8606913"><ele>387.0</ele><time>2026-04-04T07:52:38.117Z</time></trkpt><trkpt lat="43.8802661" lon="10.8606868"><ele>387.0</ele><time>2026-04-04T07:52:40.116Z</time></trkpt><trkpt lat="43.8801825" lon="10.8605952"><ele>387.0</ele><time>2026-04-04T07:52:42.118Z</time></trkpt><trkpt lat="43.8801433" lon="10.8605241"><ele>389.8</ele><time>2026-04-04T07:52:43.117Z</time></trkpt><trkpt lat="43.8800611" lon="10.8604156"><ele>392.6</ele><time>2026-04-04T07:52:45.117Z</time></trkpt><trkpt lat="43.8800067" lon="10.8603639"><ele>395.40000000000003</ele><time>2026-04-04T07:52:47.117Z</time></trkpt><trkpt lat="43.8799286" lon="10.8603114"><ele>398.20000000000005</ele><time>2026-04-04T07:52:49.116Z</time></trkpt><trkpt lat="43.8798188" lon="10.8602817"><ele>401.0</ele><time>2026-04-04T07:52:51.117Z</time></trkpt><trkpt lat="43.8797068" lon="10.8602374"><ele>400.99999999999994</ele><time>2026-04-04T07:52:53.117Z</time></trkpt><trkpt lat="43.8796371" lon="10.8602334"><ele>401.0</ele><time>2026-04-04T07:52:54.117Z</time></trkpt><trkpt lat="43.8795432" lon="10.8602496"><ele>401.0</ele><time>2026-04-04T07:52:55.117Z</time></trkpt><trkpt lat="43.8794598" lon="10.8602756"><ele>401.0</ele><time>2026-04-04T07:52:56.117Z</time></trkpt><trkpt lat="43.8793846" lon="10.8602987"><ele>400.99999999999994</ele><time>2026-04-04T07:52:57.117Z</time></trkpt><trkpt lat="43.8793154" lon="10.8603672"><ele>401.0</ele><time>2026-04-04T07:52:58.117Z</time></trkpt><trkpt lat="43.8793022" lon="10.8605374"><ele>400.99999999999994</ele><time>2026-04-04T07:53:00.117Z</time></trkpt><trkpt lat="43.8792919" lon="10.8606368"><ele>401.0</ele><time>2026-04-04T07:53:01.117Z</time></trkpt><trkpt lat="43.8793157" lon="10.8607525"><ele>401.0</ele><time>2026-04-04T07:53:02.117Z</time></trkpt><trkpt lat="43.8792986" lon="10.8608773"><ele>401.0</ele><time>2026-04-04T07:53:04.116Z</time></trkpt><trkpt lat="43.8792683" lon="10.8609662"><ele>400.99999999999994</ele><time>2026-04-04T07:53:05.117Z</time></trkpt><trkpt lat="43.8791745" lon="10.861054"><ele>401.0</ele><time>2026-04-04T07:53:07.117Z</time></trkpt><trkpt lat="43.8791042" lon="10.8610433"><ele>400.8</ele><time>2026-04-04T07:53:08.118Z</time></trkpt><trkpt lat="43.8790295" lon="10.8610226"><ele>400.6</ele><time>2026-04-04T07:53:09.117Z</time></trkpt><trkpt lat="43.8789501" lon="10.8610006"><ele>400.4</ele><time>2026-04-04T07:53:10.117Z</time></trkpt><trkpt lat="43.8788544" lon="10.8609115"><ele>400.2</ele><time>2026-04-04T07:53:11.117Z</time></trkpt><trkpt lat="43.8787661" lon="10.8608466"><ele>400.0</ele><time>2026-04-04T07:53:12.117Z</time></trkpt><trkpt lat="43.8786871" lon="10.86081"><ele>403.6666666666667</ele><time>2026-04-04T07:53:13.118Z</time></trkpt><trkpt lat="43.8786229" lon="10.8607704"><ele>407.33333333333337</ele><time>2026-04-04T07:53:14.116Z</time></trkpt><trkpt lat="43.8785614" lon="10.8607293"><ele>411.0</ele><time>2026-04-04T07:53:15.117Z</time></trkpt><trkpt lat="43.8784812" lon="10.8607377"><ele>414.66666666666663</ele><time>2026-04-04T07:53:16.117Z</time></trkpt><trkpt lat="43.8783862" lon="10.8607481"><ele>418.3333333333333</ele><time>2026-04-04T07:53:17.116Z</time></trkpt><trkpt lat="43.8782675" lon="10.8607985"><ele>422.0</ele><time>2026-04-04T07:53:18.116Z</time></trkpt><trkpt lat="43.8781704" lon="10.860829"><ele>421.20000000000005</ele><time>2026-04-04T07:53:19.117Z</time></trkpt><trkpt lat="43.8780713" lon="10.8608522"><ele>420.4</ele><time>2026-04-04T07:53:20.116Z</time></trkpt><trkpt lat="43.8779777" lon="10.8608751"><ele>419.6</ele><time>2026-04-04T07:53:21.118Z</time></trkpt><trkpt lat="43.8779007" lon="10.8608679"><ele>418.79999999999995</ele><time>2026-04-04T07:53:22.116Z</time></trkpt><trkpt lat="43.8778685" lon="10.8610247"><ele>418.0</ele><time>2026-04-04T07:53:26.117Z</time></trkpt><trkpt lat="43.8778746" lon="10.8611539"><ele>418.0</ele><time>2026-04-04T07:53:27.116Z</time></trkpt><trkpt lat="43.8778755" lon="10.8612588"><ele>418.0</ele><time>2026-04-04T07:53:28.117Z</time></trkpt><trkpt lat="43.8778582" lon="10.8613539"><ele>418.0</ele><time>2026-04-04T07:53:29.117Z</time></trkpt><trkpt lat="43.8778214" lon="10.8614485"><ele>418.0</ele><time>2026-04-04T07:53:30.116Z</time></trkpt><trkpt lat="43.8777492" lon="10.8615031"><ele>418.0</ele><time>2026-04-04T07:53:31.117Z</time></trkpt><trkpt lat="43.8776097" lon="10.8614495"><ele>420.33333333333337</ele><time>2026-04-04T07:53:32.117Z</time></trkpt><trkpt lat="43.8775204" lon="10.8614979"><ele>422.6666666666667</ele><time>2026-04-04T07:53:33.116Z</time></trkpt><trkpt lat="43.877422" lon="10.8615148"><ele>425.0</ele><time>2026-04-04T07:53:34.117Z</time></trkpt><trkpt lat="43.8773351" lon="10.8615468"><ele>427.33333333333337</ele><time>2026-04-04T07:53:35.116Z</time></trkpt><trkpt lat="43.877269" lon="10.8615389"><ele>429.6666666666667</ele><time>2026-04-04T07:53:36.117Z</time></trkpt><trkpt lat="43.8771981" lon="10.861535"><ele>432.0</ele><time>2026-04-04T07:53:37.117Z</time></trkpt><trkpt lat="43.8771264" lon="10.8615358"><ele>432.0</ele><time>2026-04-04T07:53:38.117Z</time></trkpt><trkpt lat="43.8770456" lon="10.8615115"><ele>432.0</ele><time>2026-04-04T07:53:39.116Z</time></trkpt><trkpt lat="43.8770124" lon="10.8613804"><ele>432.0</ele><time>2026-04-04T07:53:41.117Z</time></trkpt><trkpt lat="43.8770024" lon="10.8612514"><ele>432.0</ele><time>2026-04-04T07:53:43.118Z</time></trkpt><trkpt lat="43.8769973" lon="10.8611231"><ele>432.0</ele><time>2026-04-04T07:53:46.117Z</time></trkpt><trkpt lat="43.876997" lon="10.8610173"><ele>432.0</ele><time>2026-04-04T07:53:48.116Z</time></trkpt><trkpt lat="43.8769685" lon="10.8608883"><ele>434.20000000000005</ele><time>2026-04-04T07:53:50.117Z</time></trkpt><trkpt lat="43.8769648" lon="10.8607639"><ele>436.40000000000003</ele><time>2026-04-04T07:53:52.117Z</time></trkpt><trkpt lat="43.8769733" lon="10.860654"><ele>438.59999999999997</ele><time>2026-04-04T07:53:54.117Z</time></trkpt><trkpt lat="43.8770493" lon="10.8606313"><ele>440.79999999999995</ele><time>2026-04-04T07:53:55.117Z</time></trkpt><trkpt lat="43.8771383" lon="10.8605004"><ele>443.0</ele><time>2026-04-04T07:53:57.117Z</time></trkpt><trkpt lat="43.8772289" lon="10.860391"><ele>443.0</ele><time>2026-04-04T07:53:59.116Z</time></trkpt><trkpt lat="43.8773139" lon="10.8602674"><ele>442.99999999999994</ele><time>2026-04-04T07:54:01.117Z</time></trkpt><trkpt lat="43.8772981" lon="10.8601764"><ele>442.99999999999994</ele><time>2026-04-04T07:54:02.117Z</time></trkpt><trkpt lat="43.8772542" lon="10.8600239"><ele>443.0</ele><time>2026-04-04T07:54:04.118Z</time></trkpt><trkpt lat="43.8772399" lon="10.8599244"><ele>443.0</ele><time>2026-04-04T07:54:06.117Z</time></trkpt><trkpt lat="43.8772615" lon="10.8598355"><ele>445.49999999999994</ele><time>2026-04-04T07:54:08.117Z</time></trkpt><trkpt lat="43.8773383" lon="10.8597394"><ele>448.0</ele><time>2026-04-04T07:54:11.117Z</time></trkpt><trkpt lat="43.8774048" lon="10.8596991"><ele>450.5</ele><time>2026-04-04T07:54:13.116Z</time></trkpt><trkpt lat="43.877523" lon="10.8596505"><ele>453.0</ele><time>2026-04-04T07:54:15.116Z</time></trkpt><trkpt lat="43.8775883" lon="10.8596409"><ele>455.49999999999994</ele><time>2026-04-04T07:54:16.117Z</time></trkpt><trkpt lat="43.8776631" lon="10.8596542"><ele>458.0</ele><time>2026-04-04T07:54:17.116Z</time></trkpt><trkpt lat="43.8777406" lon="10.8596642"><ele>458.16666666666663</ele><time>2026-04-04T07:54:18.117Z</time></trkpt><trkpt lat="43.8778109" lon="10.8596586"><ele>458.3333333333333</ele><time>2026-04-04T07:54:19.116Z</time></trkpt><trkpt lat="43.8778702" lon="10.8596281"><ele>458.5</ele><time>2026-04-04T07:54:20.117Z</time></trkpt><trkpt lat="43.8779634" lon="10.8595648"><ele>458.66666666666663</ele><time>2026-04-04T07:54:22.117Z</time></trkpt><trkpt lat="43.8780252" lon="10.8595315"><ele>458.8333333333333</ele><time>2026-04-04T07:54:23.117Z</time></trkpt><trkpt lat="43.8780874" lon="10.8594872"><ele>459.0</ele><time>2026-04-04T07:54:24.117Z</time></trkpt><trkpt lat="43.8781675" lon="10.8594318"><ele>459.0</ele><time>2026-04-04T07:54:25.117Z</time></trkpt><trkpt lat="43.8782335" lon="10.8593646"><ele>459.0</ele><time>2026-04-04T07:54:26.117Z</time></trkpt><trkpt lat="43.8783025" lon="10.8593126"><ele>459.0</ele><time>2026-04-04T07:54:27.117Z</time></trkpt><trkpt lat="43.8783697" lon="10.8592288"><ele>459.0</ele><time>2026-04-04T07:54:28.116Z</time></trkpt><trkpt lat="43.8784469" lon="10.8591178"><ele>459.0</ele><time>2026-04-04T07:54:29.117Z</time></trkpt><trkpt lat="43.8785258" lon="10.8590443"><ele>459.0</ele><time>2026-04-04T07:54:30.117Z</time></trkpt><trkpt lat="43.8786708" lon="10.85887"><ele>459.0</ele><time>2026-04-04T07:54:31.117Z</time></trkpt><trkpt lat="43.8787744" lon="10.8587107"><ele>459.0</ele><time>2026-04-04T07:54:33.117Z</time></trkpt><trkpt lat="43.8788136" lon="10.8586285"><ele>459.0</ele><time>2026-04-04T07:54:34.117Z</time></trkpt><trkpt lat="43.8788479" lon="10.858533"><ele>459.0</ele><time>2026-04-04T07:54:36.116Z</time></trkpt><trkpt lat="43.8787732" lon="10.8584745"><ele>459.0</ele><time>2026-04-04T07:54:39.116Z</time></trkpt><trkpt lat="43.8786387" lon="10.8584476"><ele>459.0</ele><time>2026-04-04T07:54:41.117Z</time></trkpt><trkpt lat="43.8785768" lon="10.8584192"><ele>459.0</ele><time>2026-04-04T07:54:42.117Z</time></trkpt><trkpt lat="43.8785004" lon="10.8583667"><ele>459.0</ele><time>2026-04-04T07:54:43.117Z</time></trkpt><trkpt lat="43.8784366" lon="10.8582955"><ele>460.0</ele><time>2026-04-04T07:54:44.118Z</time></trkpt><trkpt lat="43.8784061" lon="10.858219"><ele>461.0</ele><time>2026-04-04T07:54:45.117Z</time></trkpt><trkpt lat="43.8783822" lon="10.8580528"><ele>462.0</ele><time>2026-04-04T07:54:47.116Z</time></trkpt><trkpt lat="43.878414" lon="10.8579741"><ele>463.0</ele><time>2026-04-04T07:54:48.117Z</time></trkpt><trkpt lat="43.878427" lon="10.8578795"><ele>464.0</ele><time>2026-04-04T07:54:49.117Z</time></trkpt><trkpt lat="43.8784525" lon="10.8577837"><ele>465.0</ele><time>2026-04-04T07:54:50.117Z</time></trkpt><trkpt lat="43.878479" lon="10.8576802"><ele>465.2</ele><time>2026-04-04T07:54:51.117Z</time></trkpt><trkpt lat="43.8784794" lon="10.857579"><ele>465.4</ele><time>2026-04-04T07:54:52.117Z</time></trkpt><trkpt lat="43.8784835" lon="10.8574482"><ele>465.6</ele><time>2026-04-04T07:54:53.116Z</time></trkpt><trkpt lat="43.8784339" lon="10.8573168"><ele>465.8</ele><time>2026-04-04T07:54:54.116Z</time></trkpt><trkpt lat="43.8784165" lon="10.8572023"><ele>466.0</ele><time>2026-04-04T07:54:55.117Z</time></trkpt><trkpt lat="43.8783735" lon="10.85707"><ele>465.6</ele><time>2026-04-04T07:54:56.117Z</time></trkpt><trkpt lat="43.878356" lon="10.8569277"><ele>465.20000000000005</ele><time>2026-04-04T07:54:57.116Z</time></trkpt><trkpt lat="43.8783272" lon="10.8567775"><ele>464.79999999999995</ele><time>2026-04-04T07:54:58.117Z</time></trkpt><trkpt lat="43.8782988" lon="10.8566371"><ele>464.4</ele><time>2026-04-04T07:54:59.117Z</time></trkpt><trkpt lat="43.8782448" lon="10.856505"><ele>464.0</ele><time>2026-04-04T07:55:00.117Z</time></trkpt><trkpt lat="43.8782084" lon="10.8563905"><ele>464.0</ele><time>2026-04-04T07:55:01.117Z</time></trkpt><trkpt lat="43.8781057" lon="10.8562881"><ele>464.0</ele><time>2026-04-04T07:55:03.116Z</time></trkpt><trkpt lat="43.8780825" lon="10.8561873"><ele>464.0</ele><time>2026-04-04T07:55:06.117Z</time></trkpt><trkpt lat="43.8781892" lon="10.8561997"><ele>464.0</ele><time>2026-04-04T07:55:09.117Z</time></trkpt><trkpt lat="43.8782452" lon="10.8562483"><ele>464.0</ele><time>2026-04-04T07:55:10.116Z</time></trkpt><trkpt lat="43.8783233" lon="10.8562421"><ele>464.0</ele><time>2026-04-04T07:55:11.117Z</time></trkpt><trkpt lat="43.878407" lon="10.8562252"><ele>464.0</ele><time>2026-04-04T07:55:12.117Z</time></trkpt><trkpt lat="43.878479" lon="10.8561923"><ele>464.0</ele><time>2026-04-04T07:55:13.116Z</time></trkpt><trkpt lat="43.8785694" lon="10.8561402"><ele>464.0</ele><time>2026-04-04T07:55:14.116Z</time></trkpt><trkpt lat="43.8786586" lon="10.8560351"><ele>464.0</ele><time>2026-04-04T07:55:15.116Z</time></trkpt><trkpt lat="43.8787236" lon="10.8559349"><ele>464.75</ele><time>2026-04-04T07:55:16.117Z</time></trkpt><trkpt lat="43.878785" lon="10.8558058"><ele>465.5</ele><time>2026-04-04T07:55:17.117Z</time></trkpt><trkpt lat="43.8788065" lon="10.8556535"><ele>466.25</ele><time>2026-04-04T07:55:18.117Z</time></trkpt><trkpt lat="43.8787814" lon="10.8555085"><ele>467.0</ele><time>2026-04-04T07:55:19.117Z</time></trkpt><trkpt lat="43.8787701" lon="10.8553356"><ele>467.0</ele><time>2026-04-04T07:55:20.116Z</time></trkpt><trkpt lat="43.8787765" lon="10.8551801"><ele>467.0</ele><time>2026-04-04T07:55:21.117Z</time></trkpt><trkpt lat="43.878706" lon="10.8550502"><ele>467.0</ele><time>2026-04-04T07:55:22.117Z</time></trkpt><trkpt lat="43.8786815" lon="10.8548958"><ele>467.0</ele><time>2026-04-04T07:55:23.116Z</time></trkpt><trkpt lat="43.8786597" lon="10.8547356"><ele>469.25</ele><time>2026-04-04T07:55:24.117Z</time></trkpt><trkpt lat="43.8786269" lon="10.8545688"><ele>471.5</ele><time>2026-04-04T07:55:25.117Z</time></trkpt><trkpt lat="43.8785973" lon="10.8544057"><ele>473.75</ele><time>2026-04-04T07:55:26.117Z</time></trkpt><trkpt lat="43.8785724" lon="10.8542522"><ele>476.0</ele><time>2026-04-04T07:55:27.117Z</time></trkpt><trkpt lat="43.8785303" lon="10.8540746"><ele>476.6</ele><time>2026-04-04T07:55:28.116Z</time></trkpt><trkpt lat="43.8784976" lon="10.8539055"><ele>477.20000000000005</ele><time>2026-04-04T07:55:29.117Z</time></trkpt><trkpt lat="43.8784541" lon="10.8537793"><ele>477.79999999999995</ele><time>2026-04-04T07:55:30.117Z</time></trkpt><trkpt lat="43.8784322" lon="10.853665"><ele>478.4</ele><time>2026-04-04T07:55:31.117Z</time></trkpt><trkpt lat="43.8784131" lon="10.8535501"><ele>479.0</ele><time>2026-04-04T07:55:32.117Z</time></trkpt><trkpt lat="43.8784092" lon="10.8534151"><ele>476.49999999999994</ele><time>2026-04-04T07:55:33.117Z</time></trkpt><trkpt lat="43.8783925" lon="10.8532828"><ele>474.0</ele><time>2026-04-04T07:55:34.117Z</time></trkpt><trkpt lat="43.8783683" lon="10.8531736"><ele>471.5</ele><time>2026-04-04T07:55:35.117Z</time></trkpt><trkpt lat="43.8783119" lon="10.8530878"><ele>469.0</ele><time>2026-04-04T07:55:36.117Z</time></trkpt><trkpt lat="43.8782573" lon="10.8529931"><ele>466.49999999999994</ele><time>2026-04-04T07:55:37.117Z</time></trkpt><trkpt lat="43.8781887" lon="10.8529217"><ele>464.0</ele><time>2026-04-04T07:55:38.117Z</time></trkpt><trkpt lat="43.8781283" lon="10.8528155"><ele>463.99999999999994</ele><time>2026-04-04T07:55:39.117Z</time></trkpt><trkpt lat="43.87805" lon="10.8527267"><ele>464.0</ele><time>2026-04-04T07:55:40.116Z</time></trkpt><trkpt lat="43.8779888" lon="10.8526333"><ele>464.0</ele><time>2026-04-04T07:55:41.116Z</time></trkpt><trkpt lat="43.8779496" lon="10.8525297"><ele>464.0</ele><time>2026-04-04T07:55:42.117Z</time></trkpt><trkpt lat="43.8779085" lon="10.8524365"><ele>463.99999999999994</ele><time>2026-04-04T07:55:43.117Z</time></trkpt><trkpt lat="43.877965" lon="10.8523387"><ele>464.0</ele><time>2026-04-04T07:55:46.116Z</time></trkpt><trkpt lat="43.878043" lon="10.8523681"><ele>463.75</ele><time>2026-04-04T07:55:48.116Z</time></trkpt><trkpt lat="43.8781263" lon="10.852442"><ele>463.5</ele><time>2026-04-04T07:55:50.117Z</time></trkpt><trkpt lat="43.8782233" lon="10.8525188"><ele>463.25</ele><time>2026-04-04T07:55:52.117Z</time></trkpt><trkpt lat="43.8783239" lon="10.852612"><ele>463.0</ele><time>2026-04-04T07:55:54.117Z</time></trkpt><trkpt lat="43.8784409" lon="10.8527023"><ele>464.83333333333337</ele><time>2026-04-04T07:55:56.117Z</time></trkpt><trkpt lat="43.8784977" lon="10.85275"><ele>466.6666666666667</ele><time>2026-04-04T07:55:57.117Z</time></trkpt><trkpt lat="43.8785686" lon="10.8528103"><ele>468.5</ele><time>2026-04-04T07:55:58.116Z</time></trkpt><trkpt lat="43.878627" lon="10.8528654"><ele>470.33333333333337</ele><time>2026-04-04T07:55:59.117Z</time></trkpt><trkpt lat="43.8787154" lon="10.8529153"><ele>472.1666666666667</ele><time>2026-04-04T07:56:00.116Z</time></trkpt><trkpt lat="43.8788066" lon="10.8529736"><ele>474.0</ele><time>2026-04-04T07:56:01.117Z</time></trkpt><trkpt lat="43.8789088" lon="10.8530046"><ele>474.0</ele><time>2026-04-04T07:56:02.117Z</time></trkpt><trkpt lat="43.8790115" lon="10.8530384"><ele>474.0</ele><time>2026-04-04T07:56:03.116Z</time></trkpt><trkpt lat="43.8791063" lon="10.8530658"><ele>474.0</ele><time>2026-04-04T07:56:04.117Z</time></trkpt><trkpt lat="43.8792599" lon="10.853108"><ele>474.0</ele><time>2026-04-04T07:56:05.118Z</time></trkpt><trkpt lat="43.8793629" lon="10.8531388"><ele>471.6</ele><time>2026-04-04T07:56:06.116Z</time></trkpt><trkpt lat="43.8794644" lon="10.8531643"><ele>469.2</ele><time>2026-04-04T07:56:07.117Z</time></trkpt><trkpt lat="43.8795598" lon="10.8532051"><ele>466.80000000000007</ele><time>2026-04-04T07:56:08.117Z</time></trkpt><trkpt lat="43.8796761" lon="10.8532624"><ele>464.40000000000003</ele><time>2026-04-04T07:56:09.116Z</time></trkpt><trkpt lat="43.8797772" lon="10.853339"><ele>462.0</ele><time>2026-04-04T07:56:10.117Z</time></trkpt><trkpt lat="43.8798752" lon="10.8533963"><ele>462.0</ele><time>2026-04-04T07:56:11.117Z</time></trkpt><trkpt lat="43.8800116" lon="10.8533967"><ele>462.0</ele><time>2026-04-04T07:56:12.117Z</time></trkpt><trkpt lat="43.8801275" lon="10.85343"><ele>462.0</ele><time>2026-04-04T07:56:13.116Z</time></trkpt><trkpt lat="43.8802702" lon="10.8534297"><ele>462.0</ele><time>2026-04-04T07:56:14.118Z</time></trkpt><trkpt lat="43.8803908" lon="10.8534481"><ele>459.25</ele><time>2026-04-04T07:56:15.117Z</time></trkpt><trkpt lat="43.8804939" lon="10.8535015"><ele>456.5</ele><time>2026-04-04T07:56:16.117Z</time></trkpt><trkpt lat="43.8806079" lon="10.8535459"><ele>453.75</ele><time>2026-04-04T07:56:17.117Z</time></trkpt><trkpt lat="43.8807521" lon="10.8535814"><ele>451.0</ele><time>2026-04-04T07:56:18.117Z</time></trkpt><trkpt lat="43.880866" lon="10.8536245"><ele>449.20000000000005</ele><time>2026-04-04T07:56:19.116Z</time></trkpt><trkpt lat="43.8809696" lon="10.8536424"><ele>447.40000000000003</ele><time>2026-04-04T07:56:20.116Z</time></trkpt><trkpt lat="43.881048" lon="10.8536336"><ele>445.6</ele><time>2026-04-04T07:56:21.116Z</time></trkpt><trkpt lat="43.8811441" lon="10.8536097"><ele>443.8</ele><time>2026-04-04T07:56:22.117Z</time></trkpt><trkpt lat="43.8812231" lon="10.8535665"><ele>442.0</ele><time>2026-04-04T07:56:23.116Z</time></trkpt><trkpt lat="43.8813111" lon="10.8534943"><ele>444.6</ele><time>2026-04-04T07:56:24.117Z</time></trkpt><trkpt lat="43.8814032" lon="10.8534251"><ele>447.20000000000005</ele><time>2026-04-04T07:56:25.116Z</time></trkpt><trkpt lat="43.8814581" lon="10.8533272"><ele>449.8</ele><time>2026-04-04T07:56:26.117Z</time></trkpt><trkpt lat="43.8815299" lon="10.8532176"><ele>452.4</ele><time>2026-04-04T07:56:27.117Z</time></trkpt><trkpt lat="43.8815655" lon="10.8530906"><ele>455.0</ele><time>2026-04-04T07:56:28.116Z</time></trkpt><trkpt lat="43.8815822" lon="10.8529221"><ele>455.0</ele><time>2026-04-04T07:56:29.118Z</time></trkpt><trkpt lat="43.8816207" lon="10.8527644"><ele>455.0</ele><time>2026-04-04T07:56:30.116Z</time></trkpt><trkpt lat="43.8816663" lon="10.8526236"><ele>455.0</ele><time>2026-04-04T07:56:31.117Z</time></trkpt><trkpt lat="43.8817364" lon="10.8524746"><ele>455.0</ele><time>2026-04-04T07:56:32.117Z</time></trkpt><trkpt lat="43.8817818" lon="10.8523592"><ele>453.0</ele><time>2026-04-04T07:56:33.116Z</time></trkpt><trkpt lat="43.8819118" lon="10.8523174"><ele>451.0</ele><time>2026-04-04T07:56:34.117Z</time></trkpt><trkpt lat="43.8819947" lon="10.8522782"><ele>449.0</ele><time>2026-04-04T07:56:35.117Z</time></trkpt><trkpt lat="43.8820797" lon="10.8522883"><ele>447.0</ele><time>2026-04-04T07:56:36.117Z</time></trkpt><trkpt lat="43.8821742" lon="10.8523004"><ele>445.0</ele><time>2026-04-04T07:56:37.117Z</time></trkpt><trkpt lat="43.8822549" lon="10.8523206"><ele>445.00000000000006</ele><time>2026-04-04T07:56:38.117Z</time></trkpt><trkpt lat="43.8823277" lon="10.8523848"><ele>445.0</ele><time>2026-04-04T07:56:39.116Z</time></trkpt><trkpt lat="43.8823849" lon="10.8524589"><ele>445.0</ele><time>2026-04-04T07:56:40.116Z</time></trkpt><trkpt lat="43.882446" lon="10.8525003"><ele>445.0</ele><time>2026-04-04T07:56:41.117Z</time></trkpt><trkpt lat="43.8825324" lon="10.8525294"><ele>445.00000000000006</ele><time>2026-04-04T07:56:42.117Z</time></trkpt><trkpt lat="43.8826053" lon="10.852561"><ele>445.0</ele><time>2026-04-04T07:56:43.116Z</time></trkpt><trkpt lat="43.8826976" lon="10.8525358"><ele>444.0</ele><time>2026-04-04T07:56:44.117Z</time></trkpt><trkpt lat="43.8827937" lon="10.8524613"><ele>443.0</ele><time>2026-04-04T07:56:45.118Z</time></trkpt><trkpt lat="43.8828645" lon="10.8523256"><ele>442.0</ele><time>2026-04-04T07:56:46.117Z</time></trkpt><trkpt lat="43.882962" lon="10.8522378"><ele>441.0</ele><time>2026-04-04T07:56:47.116Z</time></trkpt><trkpt lat="43.8830825" lon="10.8522184"><ele>441.0</ele><time>2026-04-04T07:56:48.116Z</time></trkpt><trkpt lat="43.8831797" lon="10.8521705"><ele>441.0</ele><time>2026-04-04T07:56:49.118Z</time></trkpt><trkpt lat="43.8832484" lon="10.8521037"><ele>441.0</ele><time>2026-04-04T07:56:50.116Z</time></trkpt><trkpt lat="43.8832971" lon="10.8520029"><ele>441.0</ele><time>2026-04-04T07:56:51.117Z</time></trkpt><trkpt lat="43.8833238" lon="10.8518832"><ele>441.0</ele><time>2026-04-04T07:56:52.116Z</time></trkpt><trkpt lat="43.8833498" lon="10.851753"><ele>440.8</ele><time>2026-04-04T07:56:53.117Z</time></trkpt><trkpt lat="43.8833209" lon="10.8515886"><ele>440.6</ele><time>2026-04-04T07:56:54.117Z</time></trkpt><trkpt lat="43.8833241" lon="10.8514734"><ele>440.4</ele><time>2026-04-04T07:56:55.116Z</time></trkpt><trkpt lat="43.8833354" lon="10.8513675"><ele>440.2</ele><time>2026-04-04T07:56:56.117Z</time></trkpt><trkpt lat="43.8833637" lon="10.8512419"><ele>440.0</ele><time>2026-04-04T07:56:57.116Z</time></trkpt><trkpt lat="43.8834001" lon="10.8511215"><ele>440.4</ele><time>2026-04-04T07:56:58.117Z</time></trkpt><trkpt lat="43.8834517" lon="10.8510076"><ele>440.8</ele><time>2026-04-04T07:56:59.116Z</time></trkpt><trkpt lat="43.8835052" lon="10.8508888"><ele>441.20000000000005</ele><time>2026-04-04T07:57:00.117Z</time></trkpt><trkpt lat="43.8835661" lon="10.8507885"><ele>441.6</ele><time>2026-04-04T07:57:01.116Z</time></trkpt><trkpt lat="43.883623" lon="10.8506941"><ele>442.0</ele><time>2026-04-04T07:57:02.116Z</time></trkpt><trkpt lat="43.8836926" lon="10.8506457"><ele>442.00000000000006</ele><time>2026-04-04T07:57:03.116Z</time></trkpt><trkpt lat="43.8837683" lon="10.850601"><ele>442.0</ele><time>2026-04-04T07:57:04.117Z</time></trkpt><trkpt lat="43.8838316" lon="10.8505681"><ele>442.0</ele><time>2026-04-04T07:57:05.118Z</time></trkpt><trkpt lat="43.8839353" lon="10.8505781"><ele>442.0</ele><time>2026-04-04T07:57:06.117Z</time></trkpt><trkpt lat="43.8840146" lon="10.8505595"><ele>442.00000000000006</ele><time>2026-04-04T07:57:07.117Z</time></trkpt><trkpt lat="43.8840893" lon="10.8505447"><ele>442.0</ele><time>2026-04-04T07:57:08.117Z</time></trkpt><trkpt lat="43.8841629" lon="10.8505424"><ele>442.00000000000006</ele><time>2026-04-04T07:57:09.117Z</time></trkpt><trkpt lat="43.8842436" lon="10.8505302"><ele>442.0</ele><time>2026-04-04T07:57:10.117Z</time></trkpt><trkpt lat="43.8843328" lon="10.850488"><ele>442.0</ele><time>2026-04-04T07:57:11.117Z</time></trkpt><trkpt lat="43.8844241" lon="10.850451"><ele>442.0</ele><time>2026-04-04T07:57:12.117Z</time></trkpt><trkpt lat="43.884519" lon="10.8504359"><ele>442.00000000000006</ele><time>2026-04-04T07:57:13.117Z</time></trkpt><trkpt lat="43.8846005" lon="10.8504318"><ele>442.0</ele><time>2026-04-04T07:57:14.117Z</time></trkpt><trkpt lat="43.8846659" lon="10.8503405"><ele>441.6666666666667</ele><time>2026-04-04T07:57:16.118Z</time></trkpt><trkpt lat="43.884698" lon="10.8502223"><ele>441.33333333333337</ele><time>2026-04-04T07:57:17.116Z</time></trkpt><trkpt lat="43.8847159" lon="10.8501243"><ele>441.0</ele><time>2026-04-04T07:57:18.118Z</time></trkpt><trkpt lat="43.8847003" lon="10.8499603"><ele>440.66666666666663</ele><time>2026-04-04T07:57:20.117Z</time></trkpt><trkpt lat="43.8846729" lon="10.8498396"><ele>440.3333333333333</ele><time>2026-04-04T07:57:21.117Z</time></trkpt><trkpt lat="43.8846595" lon="10.8497503"><ele>440.0</ele><time>2026-04-04T07:57:22.116Z</time></trkpt><trkpt lat="43.8847189" lon="10.8496719"><ele>440.0</ele><time>2026-04-04T07:57:24.117Z</time></trkpt><trkpt lat="43.8848233" lon="10.8496435"><ele>440.0</ele><time>2026-04-04T07:57:26.116Z</time></trkpt><trkpt lat="43.8849042" lon="10.8496617"><ele>440.0</ele><time>2026-04-04T07:57:27.117Z</time></trkpt><trkpt lat="43.8849786" lon="10.8496853"><ele>440.0</ele><time>2026-04-04T07:57:28.117Z</time></trkpt><trkpt lat="43.8850618" lon="10.8497256"><ele>440.0</ele><time>2026-04-04T07:57:29.116Z</time></trkpt><trkpt lat="43.8851867" lon="10.8497161"><ele>440.6</ele><time>2026-04-04T07:57:30.118Z</time></trkpt><trkpt lat="43.8852893" lon="10.8496941"><ele>441.2</ele><time>2026-04-04T07:57:31.117Z</time></trkpt><trkpt lat="43.8853794" lon="10.8496455"><ele>441.79999999999995</ele><time>2026-04-04T07:57:32.116Z</time></trkpt><trkpt lat="43.8854625" lon="10.8495937"><ele>442.4</ele><time>2026-04-04T07:57:33.116Z</time></trkpt><trkpt lat="43.8854986" lon="10.8495091"><ele>443.0</ele><time>2026-04-04T07:57:34.117Z</time></trkpt><trkpt lat="43.8855704" lon="10.84942"><ele>443.0</ele><time>2026-04-04T07:57:35.116Z</time></trkpt><trkpt lat="43.8856516" lon="10.8493109"><ele>442.99999999999994</ele><time>2026-04-04T07:57:37.117Z</time></trkpt><trkpt lat="43.8857866" lon="10.8492786"><ele>442.99999999999994</ele><time>2026-04-04T07:57:39.117Z</time></trkpt><trkpt lat="43.8858651" lon="10.8492316"><ele>443.0</ele><time>2026-04-04T07:57:40.117Z</time></trkpt><trkpt lat="43.8859425" lon="10.8492097"><ele>443.0</ele><time>2026-04-04T07:57:41.117Z</time></trkpt><trkpt lat="43.8860233" lon="10.8491861"><ele>439.2</ele><time>2026-04-04T07:57:42.116Z</time></trkpt><trkpt lat="43.886128" lon="10.8491886"><ele>435.4</ele><time>2026-04-04T07:57:43.117Z</time></trkpt><trkpt lat="43.8862226" lon="10.8491884"><ele>431.59999999999997</ele><time>2026-04-04T07:57:44.117Z</time></trkpt><trkpt lat="43.8863023" lon="10.8491578"><ele>427.79999999999995</ele><time>2026-04-04T07:57:45.117Z</time></trkpt><trkpt lat="43.8864022" lon="10.8490945"><ele>424.0</ele><time>2026-04-04T07:57:46.118Z</time></trkpt><trkpt lat="43.8864807" lon="10.8490304"><ele>424.00000000000006</ele><time>2026-04-04T07:57:47.117Z</time></trkpt><trkpt lat="43.8865408" lon="10.8489424"><ele>424.0</ele><time>2026-04-04T07:57:48.116Z</time></trkpt><trkpt lat="43.8866063" lon="10.8488963"><ele>424.0</ele><time>2026-04-04T07:57:49.117Z</time></trkpt><trkpt lat="43.8866995" lon="10.8488242"><ele>424.0</ele><time>2026-04-04T07:57:50.117Z</time></trkpt><trkpt lat="43.8867606" lon="10.8487588"><ele>424.00000000000006</ele><time>2026-04-04T07:57:51.116Z</time></trkpt><trkpt lat="43.8867814" lon="10.8486452"><ele>424.0</ele><time>2026-04-04T07:57:52.116Z</time></trkpt><trkpt lat="43.8868315" lon="10.8485477"><ele>423.1666666666667</ele><time>2026-04-04T07:57:53.116Z</time></trkpt><trkpt lat="43.8868478" lon="10.848449"><ele>422.33333333333337</ele><time>2026-04-04T07:57:54.117Z</time></trkpt><trkpt lat="43.8868713" lon="10.8483474"><ele>421.5</ele><time>2026-04-04T07:57:55.117Z</time></trkpt><trkpt lat="43.8869505" lon="10.84825"><ele>420.66666666666663</ele><time>2026-04-04T07:57:57.116Z</time></trkpt><trkpt lat="43.8870099" lon="10.84817"><ele>419.8333333333333</ele><time>2026-04-04T07:57:58.116Z</time></trkpt><trkpt lat="43.88708" lon="10.8480936"><ele>419.0</ele><time>2026-04-04T07:57:59.116Z</time></trkpt><trkpt lat="43.8871939" lon="10.84801"><ele>419.0</ele><time>2026-04-04T07:58:00.118Z</time></trkpt><trkpt lat="43.887269" lon="10.8479312"><ele>419.0</ele><time>2026-04-04T07:58:01.118Z</time></trkpt><trkpt lat="43.8873408" lon="10.8478546"><ele>419.0</ele><time>2026-04-04T07:58:02.117Z</time></trkpt><trkpt lat="43.8874497" lon="10.8478875"><ele>419.0</ele><time>2026-04-04T07:58:04.116Z</time></trkpt><trkpt lat="43.8875182" lon="10.8479471"><ele>419.0</ele><time>2026-04-04T07:58:05.117Z</time></trkpt><trkpt lat="43.8876319" lon="10.8479421"><ele>417.99999999999994</ele><time>2026-04-04T07:58:07.117Z</time></trkpt><trkpt lat="43.8877574" lon="10.8478817"><ele>417.0</ele><time>2026-04-04T07:58:09.117Z</time></trkpt><trkpt lat="43.887841" lon="10.8479032"><ele>416.0</ele><time>2026-04-04T07:58:10.116Z</time></trkpt><trkpt lat="43.8879185" lon="10.8479133"><ele>415.0</ele><time>2026-04-04T07:58:11.117Z</time></trkpt><trkpt lat="43.8879965" lon="10.8479377"><ele>413.99999999999994</ele><time>2026-04-04T07:58:12.117Z</time></trkpt><trkpt lat="43.8880582" lon="10.8479915"><ele>413.0</ele><time>2026-04-04T07:58:13.117Z</time></trkpt><trkpt lat="43.888147" lon="10.8480626"><ele>412.99999999999994</ele><time>2026-04-04T07:58:14.116Z</time></trkpt><trkpt lat="43.8882259" lon="10.848111"><ele>413.0</ele><time>2026-04-04T07:58:15.118Z</time></trkpt><trkpt lat="43.8882892" lon="10.8481325"><ele>413.0</ele><time>2026-04-04T07:58:16.116Z</time></trkpt><trkpt lat="43.8883563" lon="10.8481451"><ele>413.0</ele><time>2026-04-04T07:58:17.116Z</time></trkpt><trkpt lat="43.888437" lon="10.8480573"><ele>412.99999999999994</ele><time>2026-04-04T07:58:19.117Z</time></trkpt><trkpt lat="43.8884736" lon="10.8479433"><ele>413.0</ele><time>2026-04-04T07:58:21.117Z</time></trkpt><trkpt lat="43.8885264" lon="10.8477736"><ele>410.79999999999995</ele><time>2026-04-04T07:58:23.117Z</time></trkpt><trkpt lat="43.8885673" lon="10.8476677"><ele>408.6</ele><time>2026-04-04T07:58:24.116Z</time></trkpt><trkpt lat="43.8886117" lon="10.8475411"><ele>406.4</ele><time>2026-04-04T07:58:25.116Z</time></trkpt><trkpt lat="43.8886717" lon="10.8474073"><ele>404.20000000000005</ele><time>2026-04-04T07:58:26.117Z</time></trkpt><trkpt lat="43.8887306" lon="10.8472811"><ele>402.0</ele><time>2026-04-04T07:58:27.116Z</time></trkpt><trkpt lat="43.8887838" lon="10.8471586"><ele>402.0</ele><time>2026-04-04T07:58:28.116Z</time></trkpt><trkpt lat="43.8888326" lon="10.8470362"><ele>402.0</ele><time>2026-04-04T07:58:29.117Z</time></trkpt><trkpt lat="43.8888795" lon="10.8469099"><ele>402.0</ele><time>2026-04-04T07:58:30.117Z</time></trkpt><trkpt lat="43.8889337" lon="10.8467843"><ele>402.0</ele><time>2026-04-04T07:58:31.118Z</time></trkpt><trkpt lat="43.8889885" lon="10.8466409"><ele>402.0</ele><time>2026-04-04T07:58:32.117Z</time></trkpt><trkpt lat="43.889059" lon="10.8465059"><ele>400.6</ele><time>2026-04-04T07:58:33.117Z</time></trkpt><trkpt lat="43.8891241" lon="10.8463852"><ele>399.20000000000005</ele><time>2026-04-04T07:58:34.117Z</time></trkpt><trkpt lat="43.8891846" lon="10.846291"><ele>397.8</ele><time>2026-04-04T07:58:35.117Z</time></trkpt><trkpt lat="43.889254" lon="10.8462207"><ele>396.4</ele><time>2026-04-04T07:58:36.116Z</time></trkpt><trkpt lat="43.8893422" lon="10.8461683"><ele>395.0</ele><time>2026-04-04T07:58:37.117Z</time></trkpt><trkpt lat="43.8894459" lon="10.8461326"><ele>394.4</ele><time>2026-04-04T07:58:38.117Z</time></trkpt><trkpt lat="43.8895476" lon="10.8461295"><ele>393.8</ele><time>2026-04-04T07:58:39.117Z</time></trkpt><trkpt lat="43.8896448" lon="10.8461427"><ele>393.20000000000005</ele><time>2026-04-04T07:58:40.117Z</time></trkpt><trkpt lat="43.8897063" lon="10.8461616"><ele>392.6</ele><time>2026-04-04T07:58:41.117Z</time></trkpt><trkpt lat="43.8898333" lon="10.8461654"><ele>392.0</ele><time>2026-04-04T07:58:43.117Z</time></trkpt><trkpt lat="43.8899178" lon="10.8460645"><ele>391.99999999999994</ele><time>2026-04-04T07:58:45.117Z</time></trkpt><trkpt lat="43.890011" lon="10.8459886"><ele>392.0</ele><time>2026-04-04T07:58:47.116Z</time></trkpt><trkpt lat="43.8900746" lon="10.8459598"><ele>392.0</ele><time>2026-04-04T07:58:48.116Z</time></trkpt><trkpt lat="43.8901387" lon="10.845933"><ele>392.0</ele><time>2026-04-04T07:58:49.117Z</time></trkpt><trkpt lat="43.8902396" lon="10.845886"><ele>391.99999999999994</ele><time>2026-04-04T07:58:51.117Z</time></trkpt><trkpt lat="43.8902965" lon="10.8459288"><ele>392.0</ele><time>2026-04-04T07:58:52.117Z</time></trkpt><trkpt lat="43.8903676" lon="10.8459181"><ele>390.66666666666663</ele><time>2026-04-04T07:58:54.117Z</time></trkpt><trkpt lat="43.8904427" lon="10.8459369"><ele>389.3333333333333</ele><time>2026-04-04T07:58:56.117Z</time></trkpt><trkpt lat="43.8905289" lon="10.8459522"><ele>388.0</ele><time>2026-04-04T07:58:59.116Z</time></trkpt><trkpt lat="43.8906014" lon="10.8459263"><ele>386.66666666666663</ele><time>2026-04-04T07:59:01.117Z</time></trkpt><trkpt lat="43.8906731" lon="10.8458799"><ele>385.3333333333333</ele><time>2026-04-04T07:59:03.117Z</time></trkpt><trkpt lat="43.8907655" lon="10.8457958"><ele>384.0</ele><time>2026-04-04T07:59:05.117Z</time></trkpt><trkpt lat="43.8908249" lon="10.8457548"><ele>384.0</ele><time>2026-04-04T07:59:06.117Z</time></trkpt><trkpt lat="43.8908981" lon="10.8456673"><ele>384.0</ele><time>2026-04-04T07:59:08.116Z</time></trkpt><trkpt lat="43.8909654" lon="10.8455701"><ele>384.0</ele><time>2026-04-04T07:59:10.117Z</time></trkpt><trkpt lat="43.8910138" lon="10.8454853"><ele>384.0</ele><time>2026-04-04T07:59:13.116Z</time></trkpt><trkpt lat="43.8910459" lon="10.8453694"><ele>384.0</ele><time>2026-04-04T07:59:15.117Z</time></trkpt><trkpt lat="43.8910793" lon="10.8452034"><ele>382.5</ele><time>2026-04-04T07:59:17.117Z</time></trkpt><trkpt lat="43.8910985" lon="10.8450984"><ele>381.0</ele><time>2026-04-04T07:59:18.117Z</time></trkpt><trkpt lat="43.8911213" lon="10.8449914"><ele>379.5</ele><time>2026-04-04T07:59:19.117Z</time></trkpt><trkpt lat="43.8911499" lon="10.84489"><ele>378.0</ele><time>2026-04-04T07:59:20.116Z</time></trkpt><trkpt lat="43.8911909" lon="10.8447957"><ele>376.5</ele><time>2026-04-04T07:59:21.118Z</time></trkpt><trkpt lat="43.8912425" lon="10.8447149"><ele>375.0</ele><time>2026-04-04T07:59:22.117Z</time></trkpt><trkpt lat="43.8913069" lon="10.8446596"><ele>375.0</ele><time>2026-04-04T07:59:23.117Z</time></trkpt><trkpt lat="43.8913863" lon="10.8446199"><ele>375.0</ele><time>2026-04-04T07:59:24.116Z</time></trkpt><trkpt lat="43.8914624" lon="10.8445742"><ele>375.0</ele><time>2026-04-04T07:59:25.117Z</time></trkpt><trkpt lat="43.8915349" lon="10.8445175"><ele>375.0</ele><time>2026-04-04T07:59:26.117Z</time></trkpt><trkpt lat="43.8915896" lon="10.8444358"><ele>375.0</ele><time>2026-04-04T07:59:27.116Z</time></trkpt><trkpt lat="43.8916539" lon="10.8443221"><ele>375.0</ele><time>2026-04-04T07:59:28.117Z</time></trkpt><trkpt lat="43.8917087" lon="10.8442243"><ele>372.1666666666667</ele><time>2026-04-04T07:59:29.117Z</time></trkpt><trkpt lat="43.8917594" lon="10.8441237"><ele>369.3333333333333</ele><time>2026-04-04T07:59:30.117Z</time></trkpt><trkpt lat="43.8917946" lon="10.8440164"><ele>366.5</ele><time>2026-04-04T07:59:31.117Z</time></trkpt><trkpt lat="43.8918133" lon="10.8439107"><ele>363.66666666666663</ele><time>2026-04-04T07:59:32.117Z</time></trkpt><trkpt lat="43.8918223" lon="10.8437826"><ele>360.8333333333333</ele><time>2026-04-04T07:59:33.117Z</time></trkpt><trkpt lat="43.891825" lon="10.8436382"><ele>358.0</ele><time>2026-04-04T07:59:34.117Z</time></trkpt><trkpt lat="43.89183" lon="10.8435005"><ele>357.0</ele><time>2026-04-04T07:59:35.116Z</time></trkpt><trkpt lat="43.8918352" lon="10.8433682"><ele>356.0</ele><time>2026-04-04T07:59:36.117Z</time></trkpt><trkpt lat="43.891842" lon="10.843233"><ele>355.0</ele><time>2026-04-04T07:59:37.117Z</time></trkpt><trkpt lat="43.8918775" lon="10.843099"><ele>354.0</ele><time>2026-04-04T07:59:38.116Z</time></trkpt><trkpt lat="43.8919026" lon="10.8429677"><ele>353.0</ele><time>2026-04-04T07:59:39.117Z</time></trkpt><trkpt lat="43.8919261" lon="10.8428412"><ele>353.0</ele><time>2026-04-04T07:59:40.117Z</time></trkpt><trkpt lat="43.8919436" lon="10.8427294"><ele>353.0</ele><time>2026-04-04T07:59:41.117Z</time></trkpt><trkpt lat="43.8919414" lon="10.8426215"><ele>353.0</ele><time>2026-04-04T07:59:42.116Z</time></trkpt><trkpt lat="43.8919458" lon="10.8425281"><ele>353.0</ele><time>2026-04-04T07:59:43.117Z</time></trkpt><trkpt lat="43.8919686" lon="10.8424359"><ele>353.0</ele><time>2026-04-04T07:59:44.117Z</time></trkpt><trkpt lat="43.8920121" lon="10.8423633"><ele>353.0</ele><time>2026-04-04T07:59:45.117Z</time></trkpt><trkpt lat="43.8920658" lon="10.8422969"><ele>353.0</ele><time>2026-04-04T07:59:46.117Z</time></trkpt><trkpt lat="43.8921186" lon="10.842245"><ele>352.2</ele><time>2026-04-04T07:59:47.116Z</time></trkpt><trkpt lat="43.8922044" lon="10.8422353"><ele>351.4</ele><time>2026-04-04T07:59:48.117Z</time></trkpt><trkpt lat="43.8922819" lon="10.8422142"><ele>350.59999999999997</ele><time>2026-04-04T07:59:49.117Z</time></trkpt><trkpt lat="43.892385" lon="10.8422147"><ele>349.79999999999995</ele><time>2026-04-04T07:59:50.117Z</time></trkpt><trkpt lat="43.8924743" lon="10.8422272"><ele>349.0</ele><time>2026-04-04T07:59:51.117Z</time></trkpt><trkpt lat="43.892568" lon="10.8422421"><ele>346.0</ele><time>2026-04-04T07:59:52.117Z</time></trkpt><trkpt lat="43.8926409" lon="10.8422865"><ele>343.0</ele><time>2026-04-04T07:59:53.117Z</time></trkpt><trkpt lat="43.8927183" lon="10.8423357"><ele>340.0</ele><time>2026-04-04T07:59:54.117Z</time></trkpt><trkpt lat="43.8928005" lon="10.8423856"><ele>337.0</ele><time>2026-04-04T07:59:55.117Z</time></trkpt><trkpt lat="43.8928892" lon="10.8424272"><ele>334.0</ele><time>2026-04-04T07:59:56.117Z</time></trkpt><trkpt lat="43.8929671" lon="10.8424691"><ele>331.0</ele><time>2026-04-04T07:59:57.117Z</time></trkpt><trkpt lat="43.8930393" lon="10.842505"><ele>331.0</ele><time>2026-04-04T07:59:58.116Z</time></trkpt><trkpt lat="43.8931136" lon="10.8425061"><ele>331.0</ele><time>2026-04-04T07:59:59.116Z</time></trkpt><trkpt lat="43.8932046" lon="10.8424791"><ele>331.0</ele><time>2026-04-04T08:00:00.117Z</time></trkpt><trkpt lat="43.8932978" lon="10.8423448"><ele>331.0</ele><time>2026-04-04T08:00:01.117Z</time></trkpt><trkpt lat="43.8933984" lon="10.8422616"><ele>331.0</ele><time>2026-04-04T08:00:02.116Z</time></trkpt><trkpt lat="43.8935056" lon="10.8421482"><ele>329.25</ele><time>2026-04-04T08:00:03.118Z</time></trkpt><trkpt lat="43.893612" lon="10.842043"><ele>327.5</ele><time>2026-04-04T08:00:04.117Z</time></trkpt><trkpt lat="43.8937173" lon="10.8419301"><ele>325.75</ele><time>2026-04-04T08:00:05.116Z</time></trkpt><trkpt lat="43.8938239" lon="10.8418232"><ele>324.0</ele><time>2026-04-04T08:00:06.117Z</time></trkpt><trkpt lat="43.893924" lon="10.8417338"><ele>324.0</ele><time>2026-04-04T08:00:07.116Z</time></trkpt><trkpt lat="43.8940295" lon="10.8416514"><ele>324.0</ele><time>2026-04-04T08:00:08.116Z</time></trkpt><trkpt lat="43.8941011" lon="10.8416"><ele>324.0</ele><time>2026-04-04T08:00:09.117Z</time></trkpt><trkpt lat="43.8941843" lon="10.8415337"><ele>324.0</ele><time>2026-04-04T08:00:11.117Z</time></trkpt><trkpt lat="43.8942817" lon="10.8415177"><ele>324.0</ele><time>2026-04-04T08:00:13.117Z</time></trkpt><trkpt lat="43.8943589" lon="10.8413933"><ele>321.8333333333333</ele><time>2026-04-04T08:00:15.117Z</time></trkpt><trkpt lat="43.8944349" lon="10.8412817"><ele>319.6666666666667</ele><time>2026-04-04T08:00:17.117Z</time></trkpt><trkpt lat="43.8944416" lon="10.8411568"><ele>317.5</ele><time>2026-04-04T08:00:18.118Z</time></trkpt><trkpt lat="43.8944503" lon="10.8410363"><ele>315.33333333333337</ele><time>2026-04-04T08:00:19.118Z</time></trkpt><trkpt lat="43.8944596" lon="10.8409187"><ele>313.1666666666667</ele><time>2026-04-04T08:00:20.116Z</time></trkpt><trkpt lat="43.8944529" lon="10.8408195"><ele>311.0</ele><time>2026-04-04T08:00:21.117Z</time></trkpt><trkpt lat="43.8944566" lon="10.8406669"><ele>311.0</ele><time>2026-04-04T08:00:23.117Z</time></trkpt><trkpt lat="43.8944598" lon="10.8405549"><ele>311.0</ele><time>2026-04-04T08:00:25.117Z</time></trkpt><trkpt lat="43.8945028" lon="10.8404825"><ele>311.0</ele><time>2026-04-04T08:00:27.117Z</time></trkpt><trkpt lat="43.8945801" lon="10.8403993"><ele>311.0</ele><time>2026-04-04T08:00:29.117Z</time></trkpt><trkpt lat="43.8946329" lon="10.8403387"><ele>311.0</ele><time>2026-04-04T08:00:30.117Z</time></trkpt><trkpt lat="43.894685" lon="10.8402739"><ele>311.0</ele><time>2026-04-04T08:00:31.116Z</time></trkpt><trkpt lat="43.8947412" lon="10.8402044"><ele>311.0</ele><time>2026-04-04T08:00:32.117Z</time></trkpt><trkpt lat="43.8947983" lon="10.8401372"><ele>311.0</ele><time>2026-04-04T08:00:33.117Z</time></trkpt><trkpt lat="43.8948533" lon="10.8400739"><ele>311.0</ele><time>2026-04-04T08:00:34.118Z</time></trkpt><trkpt lat="43.8949043" lon="10.8400143"><ele>311.0</ele><time>2026-04-04T08:00:35.117Z</time></trkpt><trkpt lat="43.8949987" lon="10.8398999"><ele>311.0</ele><time>2026-04-04T08:00:37.117Z</time></trkpt><trkpt lat="43.8950561" lon="10.8398341"><ele>311.0</ele><time>2026-04-04T08:00:38.117Z</time></trkpt><trkpt lat="43.8951103" lon="10.8397672"><ele>309.2857142857143</ele><time>2026-04-04T08:00:39.116Z</time></trkpt><trkpt lat="43.8951692" lon="10.8397129"><ele>307.5714285714286</ele><time>2026-04-04T08:00:40.117Z</time></trkpt><trkpt lat="43.8952248" lon="10.8396543"><ele>305.8571428571429</ele><time>2026-04-04T08:00:41.116Z</time></trkpt><trkpt lat="43.8952821" lon="10.839606"><ele>304.1428571428571</ele><time>2026-04-04T08:00:42.117Z</time></trkpt><trkpt lat="43.8953316" lon="10.8395432"><ele>302.42857142857144</ele><time>2026-04-04T08:00:43.116Z</time></trkpt><trkpt lat="43.8953824" lon="10.8394864"><ele>300.7142857142857</ele><time>2026-04-04T08:00:44.117Z</time></trkpt><trkpt lat="43.8954407" lon="10.8394101"><ele>299.0</ele><time>2026-04-04T08:00:45.118Z</time></trkpt><trkpt lat="43.8954841" lon="10.8393417"><ele>298.8</ele><time>2026-04-04T08:00:46.116Z</time></trkpt><trkpt lat="43.8955291" lon="10.8392757"><ele>298.59999999999997</ele><time>2026-04-04T08:00:47.117Z</time></trkpt><trkpt lat="43.8955974" lon="10.8391397"><ele>298.4</ele><time>2026-04-04T08:00:49.117Z</time></trkpt><trkpt lat="43.8956527" lon="10.8390285"><ele>298.2</ele><time>2026-04-04T08:00:51.117Z</time></trkpt><trkpt lat="43.8957437" lon="10.8388982"><ele>298.0</ele><time>2026-04-04T08:00:53.118Z</time></trkpt><trkpt lat="43.895791" lon="10.8388316"><ele>298.0</ele><time>2026-04-04T08:00:54.116Z</time></trkpt><trkpt lat="43.8958759" lon="10.8386909"><ele>298.0</ele><time>2026-04-04T08:00:56.117Z</time></trkpt><trkpt lat="43.8959199" lon="10.8386156"><ele>298.0</ele><time>2026-04-04T08:00:57.117Z</time></trkpt><trkpt lat="43.8959575" lon="10.8385381"><ele>298.0</ele><time>2026-04-04T08:00:58.117Z</time></trkpt><trkpt lat="43.8960104" lon="10.8384014"><ele>298.0</ele><time>2026-04-04T08:01:00.117Z</time></trkpt><trkpt lat="43.8960807" lon="10.8382966"><ele>296.0</ele><time>2026-04-04T08:01:02.118Z</time></trkpt><trkpt lat="43.8961944" lon="10.8382354"><ele>294.0</ele><time>2026-04-04T08:01:04.118Z</time></trkpt><trkpt lat="43.8963078" lon="10.8382023"><ele>292.0</ele><time>2026-04-04T08:01:06.117Z</time></trkpt><trkpt lat="43.8963707" lon="10.8382077"><ele>290.0</ele><time>2026-04-04T08:01:07.117Z</time></trkpt><trkpt lat="43.8965029" lon="10.8381866"><ele>288.0</ele><time>2026-04-04T08:01:09.117Z</time></trkpt><trkpt lat="43.8965737" lon="10.8381769"><ele>288.0</ele><time>2026-04-04T08:01:10.117Z</time></trkpt><trkpt lat="43.8966382" lon="10.8381552"><ele>288.0</ele><time>2026-04-04T08:01:11.116Z</time></trkpt><trkpt lat="43.896708" lon="10.8381466"><ele>288.0</ele><time>2026-04-04T08:01:12.116Z</time></trkpt><trkpt lat="43.8968209" lon="10.8381248"><ele>288.0</ele><time>2026-04-04T08:01:14.117Z</time></trkpt><trkpt lat="43.8968994" lon="10.8381231"><ele>288.0</ele><time>2026-04-04T08:01:15.117Z</time></trkpt><trkpt lat="43.8969776" lon="10.8380972"><ele>288.0</ele><time>2026-04-04T08:01:16.117Z</time></trkpt><trkpt lat="43.8970553" lon="10.8380812"><ele>286.2</ele><time>2026-04-04T08:01:17.117Z</time></trkpt><trkpt lat="43.8971449" lon="10.8380666"><ele>284.4</ele><time>2026-04-04T08:01:18.118Z</time></trkpt><trkpt lat="43.8972529" lon="10.8380361"><ele>282.59999999999997</ele><time>2026-04-04T08:01:19.117Z</time></trkpt><trkpt lat="43.8973447" lon="10.8380098"><ele>280.8</ele><time>2026-04-04T08:01:20.116Z</time></trkpt><trkpt lat="43.8974177" lon="10.837966"><ele>279.0</ele><time>2026-04-04T08:01:21.116Z</time></trkpt><trkpt lat="43.897507" lon="10.8379315"><ele>277.8333333333333</ele><time>2026-04-04T08:01:22.117Z</time></trkpt><trkpt lat="43.8975922" lon="10.8379048"><ele>276.6666666666667</ele><time>2026-04-04T08:01:23.117Z</time></trkpt><trkpt lat="43.8976768" lon="10.8378739"><ele>275.5</ele><time>2026-04-04T08:01:24.117Z</time></trkpt><trkpt lat="43.8977546" lon="10.8378694"><ele>274.33333333333337</ele><time>2026-04-04T08:01:25.116Z</time></trkpt><trkpt lat="43.8978366" lon="10.8378538"><ele>273.1666666666667</ele><time>2026-04-04T08:01:26.117Z</time></trkpt><trkpt lat="43.8979122" lon="10.8378406"><ele>272.0</ele><time>2026-04-04T08:01:27.118Z</time></trkpt><trkpt lat="43.8979784" lon="10.8377879"><ele>272.0</ele><time>2026-04-04T08:01:28.116Z</time></trkpt><trkpt lat="43.8980422" lon="10.8377433"><ele>272.0</ele><time>2026-04-04T08:01:29.117Z</time></trkpt><trkpt lat="43.8981299" lon="10.8376656"><ele>272.0</ele><time>2026-04-04T08:01:31.117Z</time></trkpt><trkpt lat="43.8981174" lon="10.8375532"><ele>272.0</ele><time>2026-04-04T08:01:33.116Z</time></trkpt><trkpt lat="43.8980751" lon="10.837404"><ele>272.0</ele><time>2026-04-04T08:01:35.116Z</time></trkpt><trkpt lat="43.8980658" lon="10.8373168"><ele>272.0</ele><time>2026-04-04T08:01:36.116Z</time></trkpt><trkpt lat="43.8980699" lon="10.8372203"><ele>273.0</ele><time>2026-04-04T08:01:37.117Z</time></trkpt><trkpt lat="43.8980882" lon="10.8371016"><ele>274.0</ele><time>2026-04-04T08:01:38.118Z</time></trkpt><trkpt lat="43.8981294" lon="10.8369814"><ele>275.0</ele><time>2026-04-04T08:01:39.117Z</time></trkpt><trkpt lat="43.8981483" lon="10.8368639"><ele>276.0</ele><time>2026-04-04T08:01:40.117Z</time></trkpt><trkpt lat="43.8981636" lon="10.8367437"><ele>277.0</ele><time>2026-04-04T08:01:41.117Z</time></trkpt><trkpt lat="43.898176" lon="10.8366159"><ele>277.0</ele><time>2026-04-04T08:01:42.116Z</time></trkpt><trkpt lat="43.8981884" lon="10.836501"><ele>277.0</ele><time>2026-04-04T08:01:43.116Z</time></trkpt><trkpt lat="43.8982192" lon="10.8364028"><ele>277.0</ele><time>2026-04-04T08:01:44.117Z</time></trkpt><trkpt lat="43.8982732" lon="10.8363213"><ele>277.0</ele><time>2026-04-04T08:01:45.117Z</time></trkpt><trkpt lat="43.8983487" lon="10.836248"><ele>277.0</ele><time>2026-04-04T08:01:46.117Z</time></trkpt><trkpt lat="43.8984406" lon="10.836191"><ele>277.0</ele><time>2026-04-04T08:01:47.117Z</time></trkpt><trkpt lat="43.8985428" lon="10.8361558"><ele>275.2</ele><time>2026-04-04T08:01:48.117Z</time></trkpt><trkpt lat="43.8986462" lon="10.8361394"><ele>273.4</ele><time>2026-04-04T08:01:49.116Z</time></trkpt><trkpt lat="43.8987458" lon="10.8361277"><ele>271.6</ele><time>2026-04-04T08:01:50.117Z</time></trkpt><trkpt lat="43.8988402" lon="10.8361037"><ele>269.8</ele><time>2026-04-04T08:01:51.117Z</time></trkpt><trkpt lat="43.8989309" lon="10.8360662"><ele>268.0</ele><time>2026-04-04T08:01:52.117Z</time></trkpt><trkpt lat="43.8990165" lon="10.8360169"><ele>267.0</ele><time>2026-04-04T08:01:53.117Z</time></trkpt><trkpt lat="43.8990982" lon="10.8359629"><ele>266.0</ele><time>2026-04-04T08:01:54.117Z</time></trkpt><trkpt lat="43.8991707" lon="10.8359109"><ele>265.0</ele><time>2026-04-04T08:01:55.117Z</time></trkpt><trkpt lat="43.8992456" lon="10.8358664"><ele>264.0</ele><time>2026-04-04T08:01:56.117Z</time></trkpt><trkpt lat="43.8993251" lon="10.8358241"><ele>263.0</ele><time>2026-04-04T08:01:57.117Z</time></trkpt><trkpt lat="43.8994133" lon="10.835796"><ele>262.0</ele><time>2026-04-04T08:01:58.117Z</time></trkpt><trkpt lat="43.8995059" lon="10.8357787"><ele>259.0</ele><time>2026-04-04T08:01:59.118Z</time></trkpt><trkpt lat="43.8996131" lon="10.8357708"><ele>256.0</ele><time>2026-04-04T08:02:00.117Z</time></trkpt><trkpt lat="43.8997283" lon="10.8357675"><ele>253.0</ele><time>2026-04-04T08:02:01.116Z</time></trkpt><trkpt lat="43.899835" lon="10.8357703"><ele>250.0</ele><time>2026-04-04T08:02:02.117Z</time></trkpt><trkpt lat="43.8999328" lon="10.835781"><ele>247.0</ele><time>2026-04-04T08:02:03.117Z</time></trkpt><trkpt lat="43.9000203" lon="10.8358081"><ele>243.0</ele><time>2026-04-04T08:02:04.118Z</time></trkpt><trkpt lat="43.9000977" lon="10.8358498"><ele>239.0</ele><time>2026-04-04T08:02:05.117Z</time></trkpt><trkpt lat="43.9001695" lon="10.8359201"><ele>235.0</ele><time>2026-04-04T08:02:06.116Z</time></trkpt><trkpt lat="43.9002378" lon="10.8360057"><ele>231.0</ele><time>2026-04-04T08:02:07.116Z</time></trkpt><trkpt lat="43.9003011" lon="10.8361158"><ele>227.0</ele><time>2026-04-04T08:02:08.117Z</time></trkpt><trkpt lat="43.9003535" lon="10.8362591"><ele>227.0</ele><time>2026-04-04T08:02:09.117Z</time></trkpt><trkpt lat="43.9004028" lon="10.8363853"><ele>227.0</ele><time>2026-04-04T08:02:10.116Z</time></trkpt><trkpt lat="43.9004729" lon="10.8364948"><ele>227.0</ele><time>2026-04-04T08:02:11.117Z</time></trkpt><trkpt lat="43.9005591" lon="10.8365978"><ele>227.0</ele><time>2026-04-04T08:02:12.116Z</time></trkpt><trkpt lat="43.9006356" lon="10.836684"><ele>227.0</ele><time>2026-04-04T08:02:13.117Z</time></trkpt><trkpt lat="43.9006963" lon="10.8367597"><ele>227.0</ele><time>2026-04-04T08:02:14.116Z</time></trkpt><trkpt lat="43.9007415" lon="10.8368398"><ele>227.0</ele><time>2026-04-04T08:02:15.117Z</time></trkpt><trkpt lat="43.900777" lon="10.8369338"><ele>227.0</ele><time>2026-04-04T08:02:16.117Z</time></trkpt><trkpt lat="43.9008126" lon="10.8370093"><ele>227.0</ele><time>2026-04-04T08:02:17.117Z</time></trkpt><trkpt lat="43.9009075" lon="10.8371131"><ele>227.0</ele><time>2026-04-04T08:02:19.117Z</time></trkpt><trkpt lat="43.9010171" lon="10.8371569"><ele>224.50000000000003</ele><time>2026-04-04T08:02:21.117Z</time></trkpt><trkpt lat="43.9010901" lon="10.8371462"><ele>222.0</ele><time>2026-04-04T08:02:22.116Z</time></trkpt><trkpt lat="43.9011816" lon="10.837134"><ele>219.5</ele><time>2026-04-04T08:02:23.117Z</time></trkpt><trkpt lat="43.9012826" lon="10.8371145"><ele>217.0</ele><time>2026-04-04T08:02:24.116Z</time></trkpt><trkpt lat="43.9013751" lon="10.8370915"><ele>214.50000000000003</ele><time>2026-04-04T08:02:25.116Z</time></trkpt><trkpt lat="43.9014548" lon="10.8370755"><ele>212.0</ele><time>2026-04-04T08:02:26.117Z</time></trkpt><trkpt lat="43.9015636" lon="10.8370917"><ele>212.00000000000003</ele><time>2026-04-04T08:02:28.117Z</time></trkpt><trkpt lat="43.9015772" lon="10.8372034"><ele>212.0</ele><time>2026-04-04T08:02:30.117Z</time></trkpt><trkpt lat="43.9015076" lon="10.8372614"><ele>212.0</ele><time>2026-04-04T08:02:31.118Z</time></trkpt><trkpt lat="43.9014073" lon="10.8373518"><ele>212.0</ele><time>2026-04-04T08:02:32.116Z</time></trkpt><trkpt lat="43.9013783" lon="10.8374716"><ele>212.00000000000003</ele><time>2026-04-04T08:02:33.117Z</time></trkpt><trkpt lat="43.9013573" lon="10.8375728"><ele>212.0</ele><time>2026-04-04T08:02:34.117Z</time></trkpt><trkpt lat="43.9013636" lon="10.8376739"><ele>211.39999999999998</ele><time>2026-04-04T08:02:35.117Z</time></trkpt><trkpt lat="43.9014027" lon="10.8377556"><ele>210.79999999999998</ele><time>2026-04-04T08:02:36.118Z</time></trkpt><trkpt lat="43.9014678" lon="10.8378476"><ele>210.2</ele><time>2026-04-04T08:02:37.117Z</time></trkpt><trkpt lat="43.9015445" lon="10.8379546"><ele>209.6</ele><time>2026-04-04T08:02:38.117Z</time></trkpt><trkpt lat="43.901621" lon="10.8380515"><ele>209.0</ele><time>2026-04-04T08:02:39.117Z</time></trkpt><trkpt lat="43.9016966" lon="10.8381107"><ele>205.83333333333334</ele><time>2026-04-04T08:02:40.116Z</time></trkpt><trkpt lat="43.901775" lon="10.8381667"><ele>202.66666666666669</ele><time>2026-04-04T08:02:41.117Z</time></trkpt><trkpt lat="43.9018373" lon="10.8381974"><ele>199.5</ele><time>2026-04-04T08:02:42.117Z</time></trkpt><trkpt lat="43.9019062" lon="10.8381415"><ele>196.33333333333334</ele><time>2026-04-04T08:02:44.116Z</time></trkpt><trkpt lat="43.9018526" lon="10.8380438"><ele>193.16666666666669</ele><time>2026-04-04T08:02:46.117Z</time></trkpt><trkpt lat="43.9017965" lon="10.8379772"><ele>190.0</ele><time>2026-04-04T08:02:47.117Z</time></trkpt><trkpt lat="43.9017664" lon="10.8378407"><ele>190.0</ele><time>2026-04-04T08:02:49.117Z</time></trkpt><trkpt lat="43.9018659" lon="10.8377814"><ele>190.0</ele><time>2026-04-04T08:02:51.116Z</time></trkpt><trkpt lat="43.9019563" lon="10.8377789"><ele>190.0</ele><time>2026-04-04T08:02:52.117Z</time></trkpt><trkpt lat="43.902072" lon="10.8377643"><ele>190.0</ele><time>2026-04-04T08:02:53.116Z</time></trkpt><trkpt lat="43.9022128" lon="10.8377345"><ele>190.0</ele><time>2026-04-04T08:02:54.117Z</time></trkpt><trkpt lat="43.9023653" lon="10.8377101"><ele>190.0</ele><time>2026-04-04T08:02:55.117Z</time></trkpt><trkpt lat="43.902516" lon="10.8376607"><ele>190.0</ele><time>2026-04-04T08:02:56.117Z</time></trkpt><trkpt lat="43.9026625" lon="10.8376181"><ele>185.33333333333334</ele><time>2026-04-04T08:02:57.117Z</time></trkpt><trkpt lat="43.9028115" lon="10.83756"><ele>180.66666666666666</ele><time>2026-04-04T08:02:58.118Z</time></trkpt><trkpt lat="43.9029471" lon="10.8374893"><ele>176.0</ele><time>2026-04-04T08:02:59.116Z</time></trkpt><trkpt lat="43.9030889" lon="10.8373863"><ele>176.0</ele><time>2026-04-04T08:03:00.117Z</time></trkpt><trkpt lat="43.903225" lon="10.8373137"><ele>176.0</ele><time>2026-04-04T08:03:01.117Z</time></trkpt><trkpt lat="43.9033473" lon="10.8372412"><ele>176.0</ele><time>2026-04-04T08:03:02.116Z</time></trkpt><trkpt lat="43.9034269" lon="10.8371881"><ele>176.0</ele><time>2026-04-04T08:03:03.117Z</time></trkpt><trkpt lat="43.9035197" lon="10.8371257"><ele>170.5</ele><time>2026-04-04T08:03:04.117Z</time></trkpt><trkpt lat="43.9035747" lon="10.8370273"><ele>165.0</ele><time>2026-04-04T08:03:05.116Z</time></trkpt><trkpt lat="43.9036117" lon="10.8369198"><ele>159.5</ele><time>2026-04-04T08:03:06.117Z</time></trkpt><trkpt lat="43.9036551" lon="10.8368406"><ele>154.0</ele><time>2026-04-04T08:03:07.117Z</time></trkpt><trkpt lat="43.9037478" lon="10.8368361"><ele>148.5</ele><time>2026-04-04T08:03:09.117Z</time></trkpt><trkpt lat="43.9037634" lon="10.8369586"><ele>143.0</ele><time>2026-04-04T08:03:11.117Z</time></trkpt><trkpt lat="43.9037308" lon="10.8370453"><ele>143.0</ele><time>2026-04-04T08:03:12.116Z</time></trkpt><trkpt lat="43.9037146" lon="10.837172"><ele>143.0</ele><time>2026-04-04T08:03:14.117Z</time></trkpt><trkpt lat="43.9037937" lon="10.8371864"><ele>143.0</ele><time>2026-04-04T08:03:16.117Z</time></trkpt><trkpt lat="43.9038174" lon="10.837091"><ele>143.0</ele><time>2026-04-04T08:03:17.117Z</time></trkpt><trkpt lat="43.9038574" lon="10.8369872"><ele>143.0</ele><time>2026-04-04T08:03:18.117Z</time></trkpt><trkpt lat="43.9039182" lon="10.8368745"><ele>143.0</ele><time>2026-04-04T08:03:19.117Z</time></trkpt><trkpt lat="43.9039939" lon="10.8367595"><ele>144.16666666666666</ele><time>2026-04-04T08:03:20.117Z</time></trkpt><trkpt lat="43.9040723" lon="10.836675"><ele>145.33333333333331</ele><time>2026-04-04T08:03:21.117Z</time></trkpt><trkpt lat="43.9041441" lon="10.8366132"><ele>146.5</ele><time>2026-04-04T08:03:22.117Z</time></trkpt><trkpt lat="43.9042121" lon="10.8365713"><ele>147.66666666666666</ele><time>2026-04-04T08:03:23.116Z</time></trkpt><trkpt lat="43.9043082" lon="10.8365096"><ele>148.83333333333334</ele><time>2026-04-04T08:03:25.117Z</time></trkpt><trkpt lat="43.9043524" lon="10.836417"><ele>150.0</ele><time>2026-04-04T08:03:27.117Z</time></trkpt><trkpt lat="43.9043358" lon="10.8362742"><ele>149.0</ele><time>2026-04-04T08:03:29.117Z</time></trkpt><trkpt lat="43.9043181" lon="10.8361625"><ele>148.0</ele><time>2026-04-04T08:03:30.118Z</time></trkpt><trkpt lat="43.9042981" lon="10.8360348"><ele>147.0</ele><time>2026-04-04T08:03:31.117Z</time></trkpt><trkpt lat="43.9042818" lon="10.8359095"><ele>146.0</ele><time>2026-04-04T08:03:32.117Z</time></trkpt><trkpt lat="43.9042618" lon="10.8357828"><ele>145.0</ele><time>2026-04-04T08:03:33.116Z</time></trkpt><trkpt lat="43.9042423" lon="10.8356565"><ele>145.0</ele><time>2026-04-04T08:03:34.118Z</time></trkpt><trkpt lat="43.9042176" lon="10.83553"><ele>145.0</ele><time>2026-04-04T08:03:35.116Z</time></trkpt><trkpt lat="43.9041861" lon="10.8354034"><ele>145.0</ele><time>2026-04-04T08:03:36.117Z</time></trkpt><trkpt lat="43.9041549" lon="10.8352855"><ele>145.0</ele><time>2026-04-04T08:03:37.117Z</time></trkpt><trkpt lat="43.9041184" lon="10.8351702"><ele>145.0</ele><time>2026-04-04T08:03:38.116Z</time></trkpt><trkpt lat="43.9040753" lon="10.8350617"><ele>143.66666666666669</ele><time>2026-04-04T08:03:39.117Z</time></trkpt><trkpt lat="43.9040206" lon="10.8349557"><ele>142.33333333333334</ele><time>2026-04-04T08:03:40.117Z</time></trkpt><trkpt lat="43.903972" lon="10.834858"><ele>141.0</ele><time>2026-04-04T08:03:41.116Z</time></trkpt><trkpt lat="43.9039284" lon="10.8347659"><ele>139.66666666666666</ele><time>2026-04-04T08:03:42.116Z</time></trkpt><trkpt lat="43.9038916" lon="10.8346814"><ele>138.33333333333331</ele><time>2026-04-04T08:03:43.117Z</time></trkpt><trkpt lat="43.903844" lon="10.834546"><ele>137.0</ele><time>2026-04-04T08:03:45.117Z</time></trkpt><trkpt lat="43.9038443" lon="10.8344459"><ele>137.0</ele><time>2026-04-04T08:03:47.117Z</time></trkpt><trkpt lat="43.9038899" lon="10.8343856"><ele>137.0</ele><time>2026-04-04T08:03:52.117Z</time></trkpt><trkpt lat="43.9039431" lon="10.8344453"><ele>137.0</ele><time>2026-04-04T08:03:54.117Z</time></trkpt><trkpt lat="43.9039938" lon="10.8345376"><ele>137.0</ele><time>2026-04-04T08:03:55.117Z</time></trkpt><trkpt lat="43.904053" lon="10.8346436"><ele>137.0</ele><time>2026-04-04T08:03:56.117Z</time></trkpt><trkpt lat="43.9041195" lon="10.8347575"><ele>137.0</ele><time>2026-04-04T08:03:57.116Z</time></trkpt><trkpt lat="43.9041926" lon="10.8348767"><ele>137.0</ele><time>2026-04-04T08:03:58.117Z</time></trkpt><trkpt lat="43.9042684" lon="10.8349986"><ele>137.0</ele><time>2026-04-04T08:03:59.117Z</time></trkpt><trkpt lat="43.9043485" lon="10.8351258"><ele>137.0</ele><time>2026-04-04T08:04:00.117Z</time></trkpt><trkpt lat="43.904431" lon="10.835267"><ele>137.0</ele><time>2026-04-04T08:04:01.117Z</time></trkpt><trkpt lat="43.9045177" lon="10.8354182"><ele>137.0</ele><time>2026-04-04T08:04:02.116Z</time></trkpt><trkpt lat="43.9046096" lon="10.8355722"><ele>137.0</ele><time>2026-04-04T08:04:03.116Z</time></trkpt><trkpt lat="43.904703" lon="10.8357253"><ele>137.0</ele><time>2026-04-04T08:04:04.117Z</time></trkpt><trkpt lat="43.904797" lon="10.8358736"><ele>137.0</ele><time>2026-04-04T08:04:05.117Z</time></trkpt><trkpt lat="43.9048903" lon="10.8360258"><ele>136.5</ele><time>2026-04-04T08:04:06.117Z</time></trkpt><trkpt lat="43.9049833" lon="10.8361817"><ele>136.0</ele><time>2026-04-04T08:04:07.117Z</time></trkpt><trkpt lat="43.905079" lon="10.8363394"><ele>135.5</ele><time>2026-04-04T08:04:08.117Z</time></trkpt><trkpt lat="43.9051795" lon="10.8365006"><ele>135.0</ele><time>2026-04-04T08:04:09.116Z</time></trkpt><trkpt lat="43.9052856" lon="10.8366667"><ele>129.33333333333334</ele><time>2026-04-04T08:04:10.116Z</time></trkpt><trkpt lat="43.9053993" lon="10.8368342"><ele>123.66666666666667</ele><time>2026-04-04T08:04:11.117Z</time></trkpt><trkpt lat="43.9055187" lon="10.8369983"><ele>118.0</ele><time>2026-04-04T08:04:12.117Z</time></trkpt><trkpt lat="43.9056406" lon="10.8371577"><ele>118.0</ele><time>2026-04-04T08:04:13.117Z</time></trkpt><trkpt lat="43.9057674" lon="10.8373127"><ele>118.0</ele><time>2026-04-04T08:04:14.117Z</time></trkpt><trkpt lat="43.9058956" lon="10.8374625"><ele>118.0</ele><time>2026-04-04T08:04:15.117Z</time></trkpt><trkpt lat="43.9060272" lon="10.8376098"><ele>115.0</ele><time>2026-04-04T08:04:16.117Z</time></trkpt><trkpt lat="43.9061638" lon="10.8377502"><ele>112.0</ele><time>2026-04-04T08:04:17.117Z</time></trkpt><trkpt lat="43.9062982" lon="10.8378878"><ele>109.0</ele><time>2026-04-04T08:04:18.117Z</time></trkpt><trkpt lat="43.9064353" lon="10.8380248"><ele>109.0</ele><time>2026-04-04T08:04:19.117Z</time></trkpt><trkpt lat="43.9065719" lon="10.83816"><ele>109.0</ele><time>2026-04-04T08:04:20.117Z</time></trkpt><trkpt lat="43.9067184" lon="10.8383065"><ele>109.0</ele><time>2026-04-04T08:04:21.117Z</time></trkpt><trkpt lat="43.9068693" lon="10.8384525"><ele>106.33333333333334</ele><time>2026-04-04T08:04:22.118Z</time></trkpt><trkpt lat="43.9070263" lon="10.8386094"><ele>103.66666666666666</ele><time>2026-04-04T08:04:23.116Z</time></trkpt><trkpt lat="43.9071807" lon="10.8387618"><ele>101.0</ele><time>2026-04-04T08:04:24.117Z</time></trkpt><trkpt lat="43.9073276" lon="10.8389059"><ele>101.0</ele><time>2026-04-04T08:04:25.117Z</time></trkpt><trkpt lat="43.907467" lon="10.8390498"><ele>101.0</ele><time>2026-04-04T08:04:26.117Z</time></trkpt><trkpt lat="43.9075999" lon="10.8391938"><ele>101.0</ele><time>2026-04-04T08:04:27.118Z</time></trkpt><trkpt lat="43.9077303" lon="10.8393565"><ele>97.66666666666666</ele><time>2026-04-04T08:04:28.116Z</time></trkpt><trkpt lat="43.9078491" lon="10.8395486"><ele>94.33333333333333</ele><time>2026-04-04T08:04:29.117Z</time></trkpt><trkpt lat="43.9079548" lon="10.8397645"><ele>91.0</ele><time>2026-04-04T08:04:30.116Z</time></trkpt><trkpt lat="43.9080432" lon="10.8399825"><ele>90.0</ele><time>2026-04-04T08:04:31.117Z</time></trkpt><trkpt lat="43.9081148" lon="10.8401993"><ele>89.0</ele><time>2026-04-04T08:04:32.118Z</time></trkpt><trkpt lat="43.9081683" lon="10.84041"><ele>88.0</ele><time>2026-04-04T08:04:33.116Z</time></trkpt><trkpt lat="43.9082068" lon="10.8406066"><ele>88.0</ele><time>2026-04-04T08:04:34.117Z</time></trkpt><trkpt lat="43.9082326" lon="10.8407931"><ele>88.0</ele><time>2026-04-04T08:04:35.116Z</time></trkpt><trkpt lat="43.9082478" lon="10.8409598"><ele>88.0</ele><time>2026-04-04T08:04:36.118Z</time></trkpt><trkpt lat="43.9082538" lon="10.841101"><ele>88.0</ele><time>2026-04-04T08:04:37.117Z</time></trkpt><trkpt lat="43.9082522" lon="10.8412261"><ele>88.16666666666666</ele><time>2026-04-04T08:04:38.117Z</time></trkpt><trkpt lat="43.9082483" lon="10.8413203"><ele>88.33333333333333</ele><time>2026-04-04T08:04:39.117Z</time></trkpt><trkpt lat="43.9082707" lon="10.8414129"><ele>88.5</ele><time>2026-04-04T08:04:41.117Z</time></trkpt><trkpt lat="43.9083381" lon="10.8414093"><ele>88.66666666666667</ele><time>2026-04-04T08:04:44.117Z</time></trkpt><trkpt lat="43.9084136" lon="10.8413803"><ele>88.83333333333334</ele><time>2026-04-04T08:04:47.116Z</time></trkpt><trkpt lat="43.908517" lon="10.8413605"><ele>89.0</ele><time>2026-04-04T08:04:49.116Z</time></trkpt><trkpt lat="43.9085866" lon="10.8413466"><ele>91.6</ele><time>2026-04-04T08:04:50.117Z</time></trkpt><trkpt lat="43.9086615" lon="10.8413315"><ele>94.2</ele><time>2026-04-04T08:04:51.117Z</time></trkpt><trkpt lat="43.9087438" lon="10.8413148"><ele>96.8</ele><time>2026-04-04T08:04:52.117Z</time></trkpt><trkpt lat="43.9088352" lon="10.8412975"><ele>99.39999999999999</ele><time>2026-04-04T08:04:53.116Z</time></trkpt><trkpt lat="43.9089323" lon="10.8412788"><ele>102.0</ele><time>2026-04-04T08:04:54.117Z</time></trkpt><trkpt lat="43.9090368" lon="10.841261"><ele>102.0</ele><time>2026-04-04T08:04:55.117Z</time></trkpt><trkpt lat="43.909145" lon="10.8412444"><ele>102.0</ele><time>2026-04-04T08:04:56.117Z</time></trkpt><trkpt lat="43.9092553" lon="10.8412252"><ele>102.0</ele><time>2026-04-04T08:04:57.116Z</time></trkpt><trkpt lat="43.9093652" lon="10.8412071"><ele>102.0</ele><time>2026-04-04T08:04:58.117Z</time></trkpt><trkpt lat="43.909476" lon="10.8411871"><ele>102.0</ele><time>2026-04-04T08:04:59.116Z</time></trkpt><trkpt lat="43.9095851" lon="10.8411665"><ele>102.8</ele><time>2026-04-04T08:05:00.117Z</time></trkpt><trkpt lat="43.9096918" lon="10.8411481"><ele>103.6</ele><time>2026-04-04T08:05:01.117Z</time></trkpt><trkpt lat="43.9097969" lon="10.8411263"><ele>104.39999999999999</ele><time>2026-04-04T08:05:02.116Z</time></trkpt><trkpt lat="43.9099001" lon="10.8411077"><ele>105.19999999999999</ele><time>2026-04-04T08:05:03.116Z</time></trkpt><trkpt lat="43.9099997" lon="10.841091"><ele>106.0</ele><time>2026-04-04T08:05:04.117Z</time></trkpt><trkpt lat="43.9101024" lon="10.8410732"><ele>108.75</ele><time>2026-04-04T08:05:05.117Z</time></trkpt><trkpt lat="43.9102117" lon="10.8410564"><ele>111.5</ele><time>2026-04-04T08:05:06.117Z</time></trkpt><trkpt lat="43.9103262" lon="10.8410362"><ele>114.25</ele><time>2026-04-04T08:05:07.118Z</time></trkpt><trkpt lat="43.9104477" lon="10.8410141"><ele>117.0</ele><time>2026-04-04T08:05:08.117Z</time></trkpt><trkpt lat="43.910577" lon="10.8409901"><ele>117.5</ele><time>2026-04-04T08:05:09.118Z</time></trkpt><trkpt lat="43.9107099" lon="10.8409654"><ele>118.0</ele><time>2026-04-04T08:05:10.117Z</time></trkpt><trkpt lat="43.9108389" lon="10.8409403"><ele>118.5</ele><time>2026-04-04T08:05:11.117Z</time></trkpt><trkpt lat="43.9109811" lon="10.8409109"><ele>119.0</ele><time>2026-04-04T08:05:12.117Z</time></trkpt><trkpt lat="43.9111294" lon="10.8408806"><ele>119.0</ele><time>2026-04-04T08:05:13.117Z</time></trkpt><trkpt lat="43.9112776" lon="10.8408511"><ele>119.0</ele><time>2026-04-04T08:05:14.117Z</time></trkpt><trkpt lat="43.9114256" lon="10.8408253"><ele>119.0</ele><time>2026-04-04T08:05:15.117Z</time></trkpt><trkpt lat="43.9115668" lon="10.8408048"><ele>119.0</ele><time>2026-04-04T08:05:16.118Z</time></trkpt><trkpt lat="43.9116924" lon="10.8407808"><ele>120.49999999999999</ele><time>2026-04-04T08:05:17.117Z</time></trkpt><trkpt lat="43.9117967" lon="10.8407525"><ele>122.0</ele><time>2026-04-04T08:05:18.117Z</time></trkpt><trkpt lat="43.9118844" lon="10.8407161"><ele>123.5</ele><time>2026-04-04T08:05:19.117Z</time></trkpt><trkpt lat="43.9119584" lon="10.8406641"><ele>125.0</ele><time>2026-04-04T08:05:20.116Z</time></trkpt><trkpt lat="43.9120123" lon="10.8405848"><ele>126.49999999999999</ele><time>2026-04-04T08:05:21.117Z</time></trkpt><trkpt lat="43.9120319" lon="10.8404893"><ele>128.0</ele><time>2026-04-04T08:05:22.116Z</time></trkpt><trkpt lat="43.9120211" lon="10.8403838"><ele>128.0</ele><time>2026-04-04T08:05:23.116Z</time></trkpt><trkpt lat="43.9119776" lon="10.8402897"><ele>128.0</ele><time>2026-04-04T08:05:24.118Z</time></trkpt><trkpt lat="43.9118972" lon="10.8402112"><ele>128.0</ele><time>2026-04-04T08:05:25.117Z</time></trkpt><trkpt lat="43.9117842" lon="10.8401597"><ele>128.0</ele><time>2026-04-04T08:05:26.118Z</time></trkpt><trkpt lat="43.9116461" lon="10.8401317"><ele>128.0</ele><time>2026-04-04T08:05:27.117Z</time></trkpt><trkpt lat="43.911503" lon="10.8401287"><ele>125.75</ele><time>2026-04-04T08:05:28.117Z</time></trkpt><trkpt lat="43.9113601" lon="10.8401392"><ele>123.5</ele><time>2026-04-04T08:05:29.117Z</time></trkpt><trkpt lat="43.9112164" lon="10.8401497"><ele>121.25</ele><time>2026-04-04T08:05:30.117Z</time></trkpt><trkpt lat="43.9110736" lon="10.8401498"><ele>119.0</ele><time>2026-04-04T08:05:31.116Z</time></trkpt><trkpt lat="43.9109348" lon="10.840136"><ele>120.25</ele><time>2026-04-04T08:05:32.116Z</time></trkpt><trkpt lat="43.9108062" lon="10.8401055"><ele>121.5</ele><time>2026-04-04T08:05:33.117Z</time></trkpt><trkpt lat="43.9106849" lon="10.8400522"><ele>122.75</ele><time>2026-04-04T08:05:34.117Z</time></trkpt><trkpt lat="43.9105767" lon="10.8399866"><ele>124.0</ele><time>2026-04-04T08:05:35.116Z</time></trkpt><trkpt lat="43.9104861" lon="10.8399333"><ele>124.00000000000001</ele><time>2026-04-04T08:05:36.117Z</time></trkpt><trkpt lat="43.9104382" lon="10.8398542"><ele>124.0</ele><time>2026-04-04T08:05:37.117Z</time></trkpt><trkpt lat="43.9104172" lon="10.8396918"><ele>124.0</ele><time>2026-04-04T08:05:39.117Z</time></trkpt><trkpt lat="43.9105094" lon="10.8396118"><ele>124.0</ele><time>2026-04-04T08:05:41.117Z</time></trkpt><trkpt lat="43.9105739" lon="10.8396444"><ele>124.00000000000001</ele><time>2026-04-04T08:05:42.117Z</time></trkpt><trkpt lat="43.9106317" lon="10.8397188"><ele>124.0</ele><time>2026-04-04T08:05:43.117Z</time></trkpt><trkpt lat="43.9106841" lon="10.8398047"><ele>124.0</ele><time>2026-04-04T08:05:44.118Z</time></trkpt><trkpt lat="43.9107408" lon="10.8398649"><ele>124.00000000000001</ele><time>2026-04-04T08:05:45.117Z</time></trkpt><trkpt lat="43.9108028" lon="10.8398938"><ele>124.0</ele><time>2026-04-04T08:05:46.117Z</time></trkpt><trkpt lat="43.9108658" lon="10.8398911"><ele>124.0</ele><time>2026-04-04T08:05:47.118Z</time></trkpt><trkpt lat="43.9109458" lon="10.839779"><ele>124.00000000000001</ele><time>2026-04-04T08:05:49.117Z</time></trkpt><trkpt lat="43.910951" lon="10.8396901"><ele>124.0</ele><time>2026-04-04T08:05:50.117Z</time></trkpt><trkpt lat="43.9109338" lon="10.8395995"><ele>124.0</ele><time>2026-04-04T08:05:51.116Z</time></trkpt><trkpt lat="43.9108906" lon="10.8395115"><ele>124.0</ele><time>2026-04-04T08:05:52.117Z</time></trkpt><trkpt lat="43.9108392" lon="10.8394219"><ele>124.0</ele><time>2026-04-04T08:05:53.117Z</time></trkpt><trkpt lat="43.9107803" lon="10.8393238"><ele>124.0</ele><time>2026-04-04T08:05:54.116Z</time></trkpt><trkpt lat="43.9107223" lon="10.8392133"><ele>124.0</ele><time>2026-04-04T08:05:55.117Z</time></trkpt><trkpt lat="43.9106548" lon="10.8390936"><ele>124.0</ele><time>2026-04-04T08:05:56.117Z</time></trkpt><trkpt lat="43.9105809" lon="10.838969"><ele>126.80000000000001</ele><time>2026-04-04T08:05:57.117Z</time></trkpt><trkpt lat="43.9105047" lon="10.8388375"><ele>129.60000000000002</ele><time>2026-04-04T08:05:58.116Z</time></trkpt><trkpt lat="43.9104268" lon="10.8387078"><ele>132.4</ele><time>2026-04-04T08:05:59.117Z</time></trkpt><trkpt lat="43.9103701" lon="10.8386039"><ele>135.20000000000002</ele><time>2026-04-04T08:06:00.117Z</time></trkpt><trkpt lat="43.9103424" lon="10.8385065"><ele>138.0</ele><time>2026-04-04T08:06:01.116Z</time></trkpt><trkpt lat="43.9103527" lon="10.8384176"><ele>138.0</ele><time>2026-04-04T08:06:02.118Z</time></trkpt><trkpt lat="43.9104478" lon="10.8383457"><ele>138.0</ele><time>2026-04-04T08:06:04.117Z</time></trkpt><trkpt lat="43.9105511" lon="10.8384609"><ele>138.0</ele><time>2026-04-04T08:06:06.117Z</time></trkpt><trkpt lat="43.9106058" lon="10.8385504"><ele>138.0</ele><time>2026-04-04T08:06:07.117Z</time></trkpt><trkpt lat="43.9106736" lon="10.8386383"><ele>138.0</ele><time>2026-04-04T08:06:08.117Z</time></trkpt><trkpt lat="43.9107533" lon="10.8387116"><ele>138.0</ele><time>2026-04-04T08:06:09.117Z</time></trkpt><trkpt lat="43.9108444" lon="10.8387651"><ele>138.0</ele><time>2026-04-04T08:06:10.117Z</time></trkpt><trkpt lat="43.9109387" lon="10.8387988"><ele>138.0</ele><time>2026-04-04T08:06:11.118Z</time></trkpt><trkpt lat="43.9110405" lon="10.8388079"><ele>138.0</ele><time>2026-04-04T08:06:12.117Z</time></trkpt><trkpt lat="43.9111426" lon="10.8388218"><ele>138.0</ele><time>2026-04-04T08:06:13.116Z</time></trkpt><trkpt lat="43.9112469" lon="10.8388251"><ele>139.83333333333334</ele><time>2026-04-04T08:06:14.117Z</time></trkpt><trkpt lat="43.9113424" lon="10.8388193"><ele>141.66666666666666</ele><time>2026-04-04T08:06:15.117Z</time></trkpt><trkpt lat="43.9114165" lon="10.8387932"><ele>143.5</ele><time>2026-04-04T08:06:16.117Z</time></trkpt><trkpt lat="43.9114744" lon="10.8387456"><ele>145.33333333333331</ele><time>2026-04-04T08:06:17.116Z</time></trkpt><trkpt lat="43.9114987" lon="10.8386515"><ele>147.16666666666666</ele><time>2026-04-04T08:06:18.116Z</time></trkpt><trkpt lat="43.9114818" lon="10.8385613"><ele>149.0</ele><time>2026-04-04T08:06:19.118Z</time></trkpt><trkpt lat="43.9113676" lon="10.8384463"><ele>151.8</ele><time>2026-04-04T08:06:21.116Z</time></trkpt><trkpt lat="43.9112841" lon="10.8384187"><ele>154.60000000000002</ele><time>2026-04-04T08:06:22.116Z</time></trkpt><trkpt lat="43.9112098" lon="10.8383639"><ele>157.4</ele><time>2026-04-04T08:06:23.117Z</time></trkpt><trkpt lat="43.9111588" lon="10.8382906"><ele>160.20000000000002</ele><time>2026-04-04T08:06:24.117Z</time></trkpt><trkpt lat="43.9111692" lon="10.8381381"><ele>163.0</ele><time>2026-04-04T08:06:26.118Z</time></trkpt><trkpt lat="43.9112859" lon="10.8381067"><ele>163.0</ele><time>2026-04-04T08:06:28.117Z</time></trkpt><trkpt lat="43.9113491" lon="10.8381448"><ele>163.0</ele><time>2026-04-04T08:06:29.117Z</time></trkpt><trkpt lat="43.9114146" lon="10.8382017"><ele>163.0</ele><time>2026-04-04T08:06:30.116Z</time></trkpt><trkpt lat="43.9114829" lon="10.8382745"><ele>163.0</ele><time>2026-04-04T08:06:31.117Z</time></trkpt><trkpt lat="43.9115528" lon="10.8383428"><ele>163.0</ele><time>2026-04-04T08:06:32.116Z</time></trkpt><trkpt lat="43.9116107" lon="10.8383897"><ele>163.0</ele><time>2026-04-04T08:06:33.116Z</time></trkpt><trkpt lat="43.9117073" lon="10.8384465"><ele>163.0</ele><time>2026-04-04T08:06:35.117Z</time></trkpt><trkpt lat="43.9117695" lon="10.8384711"><ele>163.0</ele><time>2026-04-04T08:06:37.117Z</time></trkpt><trkpt lat="43.9118503" lon="10.8385038"><ele>163.0</ele><time>2026-04-04T08:06:40.117Z</time></trkpt><trkpt lat="43.9119579" lon="10.8385351"><ele>163.0</ele><time>2026-04-04T08:06:42.117Z</time></trkpt><trkpt lat="43.9120211" lon="10.8385456"><ele>163.0</ele><time>2026-04-04T08:06:43.117Z</time></trkpt><trkpt lat="43.9120864" lon="10.8385619"><ele>163.0</ele><time>2026-04-04T08:06:44.117Z</time></trkpt><trkpt lat="43.9121564" lon="10.8385921"><ele>163.0</ele><time>2026-04-04T08:06:45.117Z</time></trkpt><trkpt lat="43.9122269" lon="10.838629"><ele>163.0</ele><time>2026-04-04T08:06:46.117Z</time></trkpt><trkpt lat="43.9123001" lon="10.8386746"><ele>163.0</ele><time>2026-04-04T08:06:47.117Z</time></trkpt><trkpt lat="43.9123888" lon="10.8387254"><ele>163.0</ele><time>2026-04-04T08:06:48.118Z</time></trkpt><trkpt lat="43.9125014" lon="10.8387768"><ele>163.0</ele><time>2026-04-04T08:06:49.116Z</time></trkpt><trkpt lat="43.912625" lon="10.8388027"><ele>167.0</ele><time>2026-04-04T08:06:50.117Z</time></trkpt><trkpt lat="43.9127465" lon="10.8388413"><ele>171.0</ele><time>2026-04-04T08:06:51.117Z</time></trkpt><trkpt lat="43.9130416" lon="10.8388645"><ele>175.0</ele><time>2026-04-04T08:06:53.116Z</time></trkpt><trkpt lat="43.913195" lon="10.8388939"><ele>175.0</ele><time>2026-04-04T08:06:54.116Z</time></trkpt><trkpt lat="43.9133438" lon="10.8389216"><ele>175.0</ele><time>2026-04-04T08:06:55.117Z</time></trkpt><trkpt lat="43.9135019" lon="10.8389215"><ele>175.0</ele><time>2026-04-04T08:06:56.117Z</time></trkpt><trkpt lat="43.9136649" lon="10.8388676"><ele>176.75</ele><time>2026-04-04T08:06:57.117Z</time></trkpt><trkpt lat="43.9138163" lon="10.8388482"><ele>178.5</ele><time>2026-04-04T08:06:58.117Z</time></trkpt><trkpt lat="43.9139539" lon="10.8388494"><ele>180.25</ele><time>2026-04-04T08:06:59.117Z</time></trkpt><trkpt lat="43.9140861" lon="10.8388941"><ele>182.0</ele><time>2026-04-04T08:07:00.116Z</time></trkpt><trkpt lat="43.9142065" lon="10.8389077"><ele>182.2</ele><time>2026-04-04T08:07:01.116Z</time></trkpt><trkpt lat="43.9143226" lon="10.8389317"><ele>182.39999999999998</ele><time>2026-04-04T08:07:02.117Z</time></trkpt><trkpt lat="43.9144449" lon="10.8388748"><ele>182.60000000000002</ele><time>2026-04-04T08:07:03.116Z</time></trkpt><trkpt lat="43.9145423" lon="10.8388525"><ele>182.8</ele><time>2026-04-04T08:07:04.117Z</time></trkpt><trkpt lat="43.9146266" lon="10.8388018"><ele>183.0</ele><time>2026-04-04T08:07:05.117Z</time></trkpt><trkpt lat="43.9147215" lon="10.838757"><ele>183.0</ele><time>2026-04-04T08:07:06.117Z</time></trkpt><trkpt lat="43.914715" lon="10.8386343"><ele>183.0</ele><time>2026-04-04T08:07:07.117Z</time></trkpt><trkpt lat="43.9147139" lon="10.8385362"><ele>183.0</ele><time>2026-04-04T08:07:08.116Z</time></trkpt><trkpt lat="43.9146626" lon="10.8384291"><ele>183.0</ele><time>2026-04-04T08:07:09.117Z</time></trkpt><trkpt lat="43.9145925" lon="10.8383077"><ele>183.0</ele><time>2026-04-04T08:07:10.116Z</time></trkpt><trkpt lat="43.9145078" lon="10.8381631"><ele>186.25</ele><time>2026-04-04T08:07:11.117Z</time></trkpt><trkpt lat="43.9144078" lon="10.8380005"><ele>189.5</ele><time>2026-04-04T08:07:12.117Z</time></trkpt><trkpt lat="43.9143131" lon="10.8378582"><ele>192.75</ele><time>2026-04-04T08:07:13.116Z</time></trkpt><trkpt lat="43.9142026" lon="10.8377414"><ele>196.0</ele><time>2026-04-04T08:07:14.117Z</time></trkpt><trkpt lat="43.9140704" lon="10.8376697"><ele>198.25</ele><time>2026-04-04T08:07:15.117Z</time></trkpt><trkpt lat="43.9139462" lon="10.8375891"><ele>200.5</ele><time>2026-04-04T08:07:16.117Z</time></trkpt><trkpt lat="43.913797" lon="10.8375372"><ele>202.75</ele><time>2026-04-04T08:07:17.117Z</time></trkpt><trkpt lat="43.9136879" lon="10.8374675"><ele>205.0</ele><time>2026-04-04T08:07:18.117Z</time></trkpt><trkpt lat="43.9136025" lon="10.8373863"><ele>204.99999999999997</ele><time>2026-04-04T08:07:19.116Z</time></trkpt><trkpt lat="43.9135519" lon="10.8372924"><ele>205.0</ele><time>2026-04-04T08:07:20.116Z</time></trkpt><trkpt lat="43.9135282" lon="10.8371737"><ele>205.0</ele><time>2026-04-04T08:07:21.116Z</time></trkpt><trkpt lat="43.9135218" lon="10.8370414"><ele>205.0</ele><time>2026-04-04T08:07:22.116Z</time></trkpt><trkpt lat="43.9135349" lon="10.8369243"><ele>204.99999999999997</ele><time>2026-04-04T08:07:23.117Z</time></trkpt><trkpt lat="43.9135437" lon="10.8368275"><ele>205.0</ele><time>2026-04-04T08:07:24.116Z</time></trkpt><trkpt lat="43.9135445" lon="10.8366733"><ele>206.83333333333331</ele><time>2026-04-04T08:07:26.116Z</time></trkpt><trkpt lat="43.9135356" lon="10.83658"><ele>208.66666666666666</ele><time>2026-04-04T08:07:27.117Z</time></trkpt><trkpt lat="43.913523" lon="10.8364805"><ele>210.5</ele><time>2026-04-04T08:07:28.117Z</time></trkpt><trkpt lat="43.9135101" lon="10.8363661"><ele>212.33333333333331</ele><time>2026-04-04T08:07:29.117Z</time></trkpt><trkpt lat="43.9134948" lon="10.8362398"><ele>214.16666666666666</ele><time>2026-04-04T08:07:30.116Z</time></trkpt><trkpt lat="43.9134758" lon="10.8361061"><ele>216.0</ele><time>2026-04-04T08:07:31.117Z</time></trkpt><trkpt lat="43.913457" lon="10.8359656"><ele>215.5</ele><time>2026-04-04T08:07:32.117Z</time></trkpt><trkpt lat="43.9134421" lon="10.8358389"><ele>215.0</ele><time>2026-04-04T08:07:33.117Z</time></trkpt><trkpt lat="43.913428" lon="10.8357078"><ele>214.5</ele><time>2026-04-04T08:07:34.116Z</time></trkpt><trkpt lat="43.9134144" lon="10.8355908"><ele>214.0</ele><time>2026-04-04T08:07:35.117Z</time></trkpt><trkpt lat="43.9134017" lon="10.8354852"><ele>213.5</ele><time>2026-04-04T08:07:36.116Z</time></trkpt><trkpt lat="43.9133901" lon="10.8353826"><ele>213.0</ele><time>2026-04-04T08:07:37.117Z</time></trkpt><trkpt lat="43.9133879" lon="10.8352817"><ele>213.0</ele><time>2026-04-04T08:07:38.117Z</time></trkpt><trkpt lat="43.9134015" lon="10.8351714"><ele>213.0</ele><time>2026-04-04T08:07:39.117Z</time></trkpt><trkpt lat="43.9134358" lon="10.8350598"><ele>213.0</ele><time>2026-04-04T08:07:40.117Z</time></trkpt><trkpt lat="43.9134947" lon="10.8349543"><ele>213.0</ele><time>2026-04-04T08:07:41.116Z</time></trkpt><trkpt lat="43.9135776" lon="10.8348494"><ele>213.0</ele><time>2026-04-04T08:07:42.116Z</time></trkpt><trkpt lat="43.9136755" lon="10.8347658"><ele>217.25</ele><time>2026-04-04T08:07:43.116Z</time></trkpt><trkpt lat="43.913796" lon="10.8347205"><ele>221.5</ele><time>2026-04-04T08:07:44.117Z</time></trkpt><trkpt lat="43.9139421" lon="10.8346972"><ele>225.75</ele><time>2026-04-04T08:07:45.116Z</time></trkpt><trkpt lat="43.9140928" lon="10.8346809"><ele>230.0</ele><time>2026-04-04T08:07:46.117Z</time></trkpt><trkpt lat="43.9142667" lon="10.8346705"><ele>234.66666666666669</ele><time>2026-04-04T08:07:47.117Z</time></trkpt><trkpt lat="43.9144278" lon="10.8346706"><ele>239.33333333333331</ele><time>2026-04-04T08:07:48.117Z</time></trkpt><trkpt lat="43.9145852" lon="10.834677"><ele>244.0</ele><time>2026-04-04T08:07:49.116Z</time></trkpt><trkpt lat="43.9147273" lon="10.8346806"><ele>244.0</ele><time>2026-04-04T08:07:50.118Z</time></trkpt><trkpt lat="43.9148639" lon="10.8346642"><ele>244.0</ele><time>2026-04-04T08:07:51.117Z</time></trkpt><trkpt lat="43.9149961" lon="10.8346434"><ele>244.0</ele><time>2026-04-04T08:07:52.117Z</time></trkpt><trkpt lat="43.9151198" lon="10.8346016"><ele>244.0</ele><time>2026-04-04T08:07:53.117Z</time></trkpt><trkpt lat="43.9152312" lon="10.8345285"><ele>247.25</ele><time>2026-04-04T08:07:54.117Z</time></trkpt><trkpt lat="43.915337" lon="10.8344419"><ele>250.5</ele><time>2026-04-04T08:07:55.116Z</time></trkpt><trkpt lat="43.9154477" lon="10.8343794"><ele>253.75</ele><time>2026-04-04T08:07:56.116Z</time></trkpt><trkpt lat="43.9155576" lon="10.8343569"><ele>257.0</ele><time>2026-04-04T08:07:57.117Z</time></trkpt><trkpt lat="43.9156643" lon="10.8343689"><ele>257.0</ele><time>2026-04-04T08:07:58.117Z</time></trkpt><trkpt lat="43.91575" lon="10.8344171"><ele>257.0</ele><time>2026-04-04T08:07:59.117Z</time></trkpt><trkpt lat="43.9158128" lon="10.8345051"><ele>257.0</ele><time>2026-04-04T08:08:00.117Z</time></trkpt><trkpt lat="43.9158368" lon="10.8346087"><ele>257.0</ele><time>2026-04-04T08:08:01.116Z</time></trkpt><trkpt lat="43.9158161" lon="10.8347171"><ele>257.0</ele><time>2026-04-04T08:08:02.117Z</time></trkpt><trkpt lat="43.9157559" lon="10.8347943"><ele>257.0</ele><time>2026-04-04T08:08:03.118Z</time></trkpt><trkpt lat="43.9156718" lon="10.8348196"><ele>257.0</ele><time>2026-04-04T08:08:04.116Z</time></trkpt><trkpt lat="43.9155786" lon="10.8347901"><ele>257.0</ele><time>2026-04-04T08:08:05.117Z</time></trkpt><trkpt lat="43.9154748" lon="10.8347802"><ele>257.0</ele><time>2026-04-04T08:08:06.117Z</time></trkpt><trkpt lat="43.9153782" lon="10.8348224"><ele>257.0</ele><time>2026-04-04T08:08:07.117Z</time></trkpt><trkpt lat="43.9152904" lon="10.8349147"><ele>257.0</ele><time>2026-04-04T08:08:08.116Z</time></trkpt><trkpt lat="43.9152318" lon="10.8350451"><ele>256.2</ele><time>2026-04-04T08:08:09.117Z</time></trkpt><trkpt lat="43.9152143" lon="10.835187"><ele>255.39999999999998</ele><time>2026-04-04T08:08:10.116Z</time></trkpt><trkpt lat="43.9152419" lon="10.8353265"><ele>254.60000000000002</ele><time>2026-04-04T08:08:11.117Z</time></trkpt><trkpt lat="43.9153036" lon="10.8354396"><ele>253.8</ele><time>2026-04-04T08:08:12.116Z</time></trkpt><trkpt lat="43.9153929" lon="10.8355117"><ele>253.0</ele><time>2026-04-04T08:08:13.117Z</time></trkpt><trkpt lat="43.9154931" lon="10.8355377"><ele>253.0</ele><time>2026-04-04T08:08:14.117Z</time></trkpt><trkpt lat="43.9155853" lon="10.8355009"><ele>253.0</ele><time>2026-04-04T08:08:15.117Z</time></trkpt><trkpt lat="43.9156801" lon="10.835415"><ele>253.0</ele><time>2026-04-04T08:08:16.117Z</time></trkpt><trkpt lat="43.9157823" lon="10.8353102"><ele>253.0</ele><time>2026-04-04T08:08:17.116Z</time></trkpt><trkpt lat="43.9158955" lon="10.8352338"><ele>258.25</ele><time>2026-04-04T08:08:18.116Z</time></trkpt><trkpt lat="43.9160173" lon="10.8351598"><ele>263.5</ele><time>2026-04-04T08:08:19.117Z</time></trkpt><trkpt lat="43.9161439" lon="10.8350815"><ele>268.75</ele><time>2026-04-04T08:08:20.116Z</time></trkpt><trkpt lat="43.9162729" lon="10.8350018"><ele>274.0</ele><time>2026-04-04T08:08:21.117Z</time></trkpt><trkpt lat="43.9163936" lon="10.8349303"><ele>274.0</ele><time>2026-04-04T08:08:22.116Z</time></trkpt><trkpt lat="43.9165" lon="10.8348612"><ele>274.0</ele><time>2026-04-04T08:08:23.117Z</time></trkpt><trkpt lat="43.9165882" lon="10.834781"><ele>274.0</ele><time>2026-04-04T08:08:24.117Z</time></trkpt><trkpt lat="43.9166531" lon="10.8346801"><ele>274.0</ele><time>2026-04-04T08:08:25.118Z</time></trkpt><trkpt lat="43.9167126" lon="10.8345605"><ele>274.0</ele><time>2026-04-04T08:08:26.118Z</time></trkpt><trkpt lat="43.9167531" lon="10.8344255"><ele>273.75</ele><time>2026-04-04T08:08:27.116Z</time></trkpt><trkpt lat="43.9167478" lon="10.8342756"><ele>273.5</ele><time>2026-04-04T08:08:28.117Z</time></trkpt><trkpt lat="43.9167007" lon="10.8341422"><ele>273.25</ele><time>2026-04-04T08:08:29.118Z</time></trkpt><trkpt lat="43.9166125" lon="10.8340488"><ele>273.0</ele><time>2026-04-04T08:08:30.117Z</time></trkpt><trkpt lat="43.9164974" lon="10.8339844"><ele>273.0</ele><time>2026-04-04T08:08:31.116Z</time></trkpt><trkpt lat="43.9163787" lon="10.8339189"><ele>273.0</ele><time>2026-04-04T08:08:32.117Z</time></trkpt><trkpt lat="43.9162721" lon="10.8338294"><ele>273.0</ele><time>2026-04-04T08:08:33.117Z</time></trkpt><trkpt lat="43.9161812" lon="10.8337135"><ele>273.0</ele><time>2026-04-04T08:08:34.116Z</time></trkpt><trkpt lat="43.91611" lon="10.8335688"><ele>276.25</ele><time>2026-04-04T08:08:35.117Z</time></trkpt><trkpt lat="43.9160511" lon="10.8334055"><ele>279.5</ele><time>2026-04-04T08:08:36.116Z</time></trkpt><trkpt lat="43.9160081" lon="10.8332248"><ele>282.75</ele><time>2026-04-04T08:08:37.117Z</time></trkpt><trkpt lat="43.915973" lon="10.8330292"><ele>286.0</ele><time>2026-04-04T08:08:38.116Z</time></trkpt><trkpt lat="43.9159216" lon="10.8328303"><ele>285.0</ele><time>2026-04-04T08:08:39.117Z</time></trkpt><trkpt lat="43.9158536" lon="10.8326424"><ele>284.0</ele><time>2026-04-04T08:08:40.117Z</time></trkpt><trkpt lat="43.9157792" lon="10.832456"><ele>283.0</ele><time>2026-04-04T08:08:41.117Z</time></trkpt><trkpt lat="43.9157032" lon="10.8322733"><ele>283.0</ele><time>2026-04-04T08:08:42.117Z</time></trkpt><trkpt lat="43.9156294" lon="10.8320914"><ele>283.0</ele><time>2026-04-04T08:08:43.117Z</time></trkpt><trkpt lat="43.9155564" lon="10.8319114"><ele>283.0</ele><time>2026-04-04T08:08:44.116Z</time></trkpt><trkpt lat="43.9154902" lon="10.8317391"><ele>283.0</ele><time>2026-04-04T08:08:45.116Z</time></trkpt><trkpt lat="43.9154371" lon="10.8315748"><ele>285.2</ele><time>2026-04-04T08:08:46.117Z</time></trkpt><trkpt lat="43.9154092" lon="10.8314224"><ele>287.4</ele><time>2026-04-04T08:08:47.117Z</time></trkpt><trkpt lat="43.9154151" lon="10.8312797"><ele>289.59999999999997</ele><time>2026-04-04T08:08:48.116Z</time></trkpt><trkpt lat="43.9154555" lon="10.8311457"><ele>291.8</ele><time>2026-04-04T08:08:49.117Z</time></trkpt><trkpt lat="43.9155157" lon="10.8310086"><ele>294.0</ele><time>2026-04-04T08:08:50.117Z</time></trkpt><trkpt lat="43.9155618" lon="10.8308482"><ele>294.59999999999997</ele><time>2026-04-04T08:08:51.116Z</time></trkpt><trkpt lat="43.9155732" lon="10.8306755"><ele>295.2</ele><time>2026-04-04T08:08:52.117Z</time></trkpt><trkpt lat="43.915597" lon="10.8305099"><ele>295.79999999999995</ele><time>2026-04-04T08:08:53.117Z</time></trkpt><trkpt lat="43.9156114" lon="10.8304012"><ele>296.4</ele><time>2026-04-04T08:08:54.117Z</time></trkpt><trkpt lat="43.9156626" lon="10.8303142"><ele>297.0</ele><time>2026-04-04T08:08:55.116Z</time></trkpt><trkpt lat="43.9157707" lon="10.8303292"><ele>297.0</ele><time>2026-04-04T08:08:57.117Z</time></trkpt><trkpt lat="43.9158069" lon="10.8304162"><ele>297.0</ele><time>2026-04-04T08:08:58.117Z</time></trkpt><trkpt lat="43.9158157" lon="10.830563"><ele>297.0</ele><time>2026-04-04T08:08:59.116Z</time></trkpt><trkpt lat="43.9158137" lon="10.8307473"><ele>297.0</ele><time>2026-04-04T08:09:00.117Z</time></trkpt><trkpt lat="43.9158159" lon="10.8309257"><ele>297.0</ele><time>2026-04-04T08:09:01.116Z</time></trkpt><trkpt lat="43.9158225" lon="10.8311074"><ele>296.25</ele><time>2026-04-04T08:09:02.117Z</time></trkpt><trkpt lat="43.9158417" lon="10.8312801"><ele>295.5</ele><time>2026-04-04T08:09:03.117Z</time></trkpt><trkpt lat="43.9158798" lon="10.8314428"><ele>294.75</ele><time>2026-04-04T08:09:04.117Z</time></trkpt><trkpt lat="43.9159425" lon="10.8315816"><ele>294.0</ele><time>2026-04-04T08:09:05.117Z</time></trkpt><trkpt lat="43.916029" lon="10.8317043"><ele>296.0</ele><time>2026-04-04T08:09:06.116Z</time></trkpt><trkpt lat="43.9161298" lon="10.8318109"><ele>298.0</ele><time>2026-04-04T08:09:07.117Z</time></trkpt><trkpt lat="43.9162364" lon="10.8319176"><ele>300.0</ele><time>2026-04-04T08:09:08.116Z</time></trkpt><trkpt lat="43.9163478" lon="10.8320312"><ele>302.0</ele><time>2026-04-04T08:09:09.117Z</time></trkpt><trkpt lat="43.9164575" lon="10.83214"><ele>302.0</ele><time>2026-04-04T08:09:10.118Z</time></trkpt><trkpt lat="43.9165765" lon="10.8322403"><ele>302.0</ele><time>2026-04-04T08:09:11.116Z</time></trkpt><trkpt lat="43.9167066" lon="10.8323167"><ele>302.0</ele><time>2026-04-04T08:09:12.116Z</time></trkpt><trkpt lat="43.9168381" lon="10.832363"><ele>302.0</ele><time>2026-04-04T08:09:13.117Z</time></trkpt><trkpt lat="43.9169722" lon="10.8323806"><ele>306.75</ele><time>2026-04-04T08:09:14.116Z</time></trkpt><trkpt lat="43.917103" lon="10.8323706"><ele>311.5</ele><time>2026-04-04T08:09:15.117Z</time></trkpt><trkpt lat="43.9172267" lon="10.8323418"><ele>316.25</ele><time>2026-04-04T08:09:16.117Z</time></trkpt><trkpt lat="43.9173369" lon="10.8323337"><ele>321.0</ele><time>2026-04-04T08:09:17.117Z</time></trkpt><trkpt lat="43.9174381" lon="10.8323735"><ele>321.0</ele><time>2026-04-04T08:09:18.116Z</time></trkpt><trkpt lat="43.9175302" lon="10.8324622"><ele>321.0</ele><time>2026-04-04T08:09:19.118Z</time></trkpt><trkpt lat="43.9176145" lon="10.8325896"><ele>321.0</ele><time>2026-04-04T08:09:20.117Z</time></trkpt><trkpt lat="43.9176981" lon="10.8327274"><ele>321.0</ele><time>2026-04-04T08:09:21.117Z</time></trkpt><trkpt lat="43.9177763" lon="10.832868"><ele>323.0</ele><time>2026-04-04T08:09:22.116Z</time></trkpt><trkpt lat="43.917853" lon="10.8330036"><ele>325.0</ele><time>2026-04-04T08:09:23.117Z</time></trkpt><trkpt lat="43.9179443" lon="10.8330921"><ele>327.0</ele><time>2026-04-04T08:09:24.116Z</time></trkpt><trkpt lat="43.9180428" lon="10.833172"><ele>329.0</ele><time>2026-04-04T08:09:25.118Z</time></trkpt><trkpt lat="43.9181738" lon="10.8332166"><ele>329.0</ele><time>2026-04-04T08:09:26.117Z</time></trkpt><trkpt lat="43.9182718" lon="10.8333129"><ele>329.0</ele><time>2026-04-04T08:09:27.118Z</time></trkpt><trkpt lat="43.9183465" lon="10.8334478"><ele>329.0</ele><time>2026-04-04T08:09:28.117Z</time></trkpt><trkpt lat="43.9183888" lon="10.8336098"><ele>329.0</ele><time>2026-04-04T08:09:29.117Z</time></trkpt><trkpt lat="43.9184246" lon="10.8337928"><ele>328.0</ele><time>2026-04-04T08:09:30.117Z</time></trkpt><trkpt lat="43.9184804" lon="10.8339742"><ele>327.0</ele><time>2026-04-04T08:09:31.117Z</time></trkpt><trkpt lat="43.9185494" lon="10.8341481"><ele>326.0</ele><time>2026-04-04T08:09:32.117Z</time></trkpt><trkpt lat="43.9186249" lon="10.8343134"><ele>325.0</ele><time>2026-04-04T08:09:33.117Z</time></trkpt><trkpt lat="43.9187018" lon="10.8344762"><ele>325.0</ele><time>2026-04-04T08:09:34.117Z</time></trkpt><trkpt lat="43.91878" lon="10.8346159"><ele>325.0</ele><time>2026-04-04T08:09:35.117Z</time></trkpt><trkpt lat="43.9188668" lon="10.8347228"><ele>325.0</ele><time>2026-04-04T08:09:36.118Z</time></trkpt><trkpt lat="43.9189747" lon="10.8347886"><ele>325.0</ele><time>2026-04-04T08:09:37.117Z</time></trkpt><trkpt lat="43.9190901" lon="10.8348064"><ele>325.0</ele><time>2026-04-04T08:09:38.116Z</time></trkpt><trkpt lat="43.9192131" lon="10.8347863"><ele>325.0</ele><time>2026-04-04T08:09:39.116Z</time></trkpt><trkpt lat="43.9193265" lon="10.8347313"><ele>325.0</ele><time>2026-04-04T08:09:40.117Z</time></trkpt><trkpt lat="43.9194137" lon="10.8346354"><ele>325.0</ele><time>2026-04-04T08:09:41.117Z</time></trkpt><trkpt lat="43.9194773" lon="10.8345146"><ele>325.25</ele><time>2026-04-04T08:09:42.116Z</time></trkpt><trkpt lat="43.9195281" lon="10.8343711"><ele>325.5</ele><time>2026-04-04T08:09:43.118Z</time></trkpt><trkpt lat="43.9195763" lon="10.8342356"><ele>325.75</ele><time>2026-04-04T08:09:44.117Z</time></trkpt><trkpt lat="43.9196321" lon="10.8340966"><ele>326.0</ele><time>2026-04-04T08:09:45.117Z</time></trkpt><trkpt lat="43.9196992" lon="10.8339633"><ele>330.0</ele><time>2026-04-04T08:09:46.118Z</time></trkpt><trkpt lat="43.9197749" lon="10.8338488"><ele>334.0</ele><time>2026-04-04T08:09:47.116Z</time></trkpt><trkpt lat="43.9198612" lon="10.8337484"><ele>338.0</ele><time>2026-04-04T08:09:48.117Z</time></trkpt><trkpt lat="43.9199497" lon="10.8336794"><ele>342.0</ele><time>2026-04-04T08:09:49.117Z</time></trkpt><trkpt lat="43.9200373" lon="10.8336452"><ele>346.0</ele><time>2026-04-04T08:09:50.117Z</time></trkpt><trkpt lat="43.9201303" lon="10.833659"><ele>354.20000000000005</ele><time>2026-04-04T08:09:51.117Z</time></trkpt><trkpt lat="43.9202092" lon="10.83372"><ele>362.40000000000003</ele><time>2026-04-04T08:09:52.116Z</time></trkpt><trkpt lat="43.9202727" lon="10.8338161"><ele>370.6</ele><time>2026-04-04T08:09:53.117Z</time></trkpt><trkpt lat="43.9203177" lon="10.8339418"><ele>378.8</ele><time>2026-04-04T08:09:54.117Z</time></trkpt><trkpt lat="43.9203537" lon="10.8340894"><ele>387.0</ele><time>2026-04-04T08:09:55.116Z</time></trkpt><trkpt lat="43.9203895" lon="10.83425"><ele>380.75</ele><time>2026-04-04T08:09:56.116Z</time></trkpt><trkpt lat="43.9204295" lon="10.8344066"><ele>374.5</ele><time>2026-04-04T08:09:57.116Z</time></trkpt><trkpt lat="43.920495" lon="10.8345591"><ele>368.25</ele><time>2026-04-04T08:09:58.116Z</time></trkpt><trkpt lat="43.9205696" lon="10.8347148"><ele>362.0</ele><time>2026-04-04T08:09:59.117Z</time></trkpt><trkpt lat="43.9206424" lon="10.8348825"><ele>362.0</ele><time>2026-04-04T08:10:00.117Z</time></trkpt><trkpt lat="43.9207147" lon="10.8350536"><ele>362.0</ele><time>2026-04-04T08:10:01.117Z</time></trkpt><trkpt lat="43.9207977" lon="10.8352015"><ele>362.0</ele><time>2026-04-04T08:10:02.117Z</time></trkpt><trkpt lat="43.9208984" lon="10.8353166"><ele>362.0</ele><time>2026-04-04T08:10:03.117Z</time></trkpt><trkpt lat="43.9210099" lon="10.8354198"><ele>361.5</ele><time>2026-04-04T08:10:04.116Z</time></trkpt><trkpt lat="43.9211132" lon="10.8355321"><ele>361.0</ele><time>2026-04-04T08:10:05.117Z</time></trkpt><trkpt lat="43.9211931" lon="10.8356703"><ele>360.5</ele><time>2026-04-04T08:10:06.116Z</time></trkpt><trkpt lat="43.9212499" lon="10.8358295"><ele>360.0</ele><time>2026-04-04T08:10:07.117Z</time></trkpt><trkpt lat="43.9213175" lon="10.8359864"><ele>360.0</ele><time>2026-04-04T08:10:08.116Z</time></trkpt><trkpt lat="43.9214082" lon="10.8361182"><ele>360.0</ele><time>2026-04-04T08:10:09.117Z</time></trkpt><trkpt lat="43.9215158" lon="10.8362175"><ele>360.0</ele><time>2026-04-04T08:10:10.117Z</time></trkpt><trkpt lat="43.921643" lon="10.8362773"><ele>360.0</ele><time>2026-04-04T08:10:11.117Z</time></trkpt><trkpt lat="43.92178" lon="10.8362961"><ele>366.5</ele><time>2026-04-04T08:10:12.117Z</time></trkpt><trkpt lat="43.9219153" lon="10.8362911"><ele>373.0</ele><time>2026-04-04T08:10:13.117Z</time></trkpt><trkpt lat="43.9220467" lon="10.836259"><ele>379.5</ele><time>2026-04-04T08:10:14.117Z</time></trkpt><trkpt lat="43.9221608" lon="10.8361913"><ele>386.0</ele><time>2026-04-04T08:10:15.118Z</time></trkpt><trkpt lat="43.922251" lon="10.83615"><ele>385.99999999999994</ele><time>2026-04-04T08:10:16.116Z</time></trkpt><trkpt lat="43.9223341" lon="10.8361511"><ele>386.0</ele><time>2026-04-04T08:10:17.117Z</time></trkpt><trkpt lat="43.9223954" lon="10.836201"><ele>386.0</ele><time>2026-04-04T08:10:18.117Z</time></trkpt><trkpt lat="43.9224249" lon="10.8362904"><ele>386.0</ele><time>2026-04-04T08:10:19.117Z</time></trkpt><trkpt lat="43.9224155" lon="10.8364179"><ele>385.99999999999994</ele><time>2026-04-04T08:10:20.117Z</time></trkpt><trkpt lat="43.922375" lon="10.836569"><ele>386.0</ele><time>2026-04-04T08:10:21.117Z</time></trkpt><trkpt lat="43.9223254" lon="10.8367235"><ele>385.4</ele><time>2026-04-04T08:10:22.117Z</time></trkpt><trkpt lat="43.9222825" lon="10.8368718"><ele>384.8</ele><time>2026-04-04T08:10:23.116Z</time></trkpt><trkpt lat="43.922238" lon="10.8370179"><ele>384.2</ele><time>2026-04-04T08:10:24.117Z</time></trkpt><trkpt lat="43.9221951" lon="10.8371507"><ele>383.59999999999997</ele><time>2026-04-04T08:10:25.116Z</time></trkpt><trkpt lat="43.9221553" lon="10.8372612"><ele>383.0</ele><time>2026-04-04T08:10:26.116Z</time></trkpt><trkpt lat="43.9221214" lon="10.8373577"><ele>383.0</ele><time>2026-04-04T08:10:27.117Z</time></trkpt><trkpt lat="43.9220906" lon="10.8375072"><ele>383.0</ele><time>2026-04-04T08:10:29.116Z</time></trkpt><trkpt lat="43.9221409" lon="10.8375836"><ele>383.0</ele><time>2026-04-04T08:10:31.116Z</time></trkpt><trkpt lat="43.9222107" lon="10.8375364"><ele>383.0</ele><time>2026-04-04T08:10:33.117Z</time></trkpt><trkpt lat="43.9223044" lon="10.8374389"><ele>383.0</ele><time>2026-04-04T08:10:35.117Z</time></trkpt><trkpt lat="43.922326" lon="10.8373531"><ele>383.0</ele><time>2026-04-04T08:10:36.116Z</time></trkpt><trkpt lat="43.9223458" lon="10.8372453"><ele>383.0</ele><time>2026-04-04T08:10:37.116Z</time></trkpt><trkpt lat="43.9223835" lon="10.8371278"><ele>383.0</ele><time>2026-04-04T08:10:38.117Z</time></trkpt><trkpt lat="43.9224364" lon="10.8370135"><ele>383.0</ele><time>2026-04-04T08:10:39.116Z</time></trkpt><trkpt lat="43.9225071" lon="10.8368885"><ele>383.0</ele><time>2026-04-04T08:10:40.116Z</time></trkpt><trkpt lat="43.9225875" lon="10.8367454"><ele>383.0</ele><time>2026-04-04T08:10:41.117Z</time></trkpt><trkpt lat="43.9226645" lon="10.8365789"><ele>392.5</ele><time>2026-04-04T08:10:42.118Z</time></trkpt><trkpt lat="43.9227291" lon="10.8364245"><ele>402.0</ele><time>2026-04-04T08:10:43.117Z</time></trkpt><trkpt lat="43.9227826" lon="10.8362879"><ele>411.5</ele><time>2026-04-04T08:10:44.117Z</time></trkpt><trkpt lat="43.9228373" lon="10.8361472"><ele>421.0</ele><time>2026-04-04T08:10:45.116Z</time></trkpt><trkpt lat="43.9228935" lon="10.8360046"><ele>422.4</ele><time>2026-04-04T08:10:46.116Z</time></trkpt><trkpt lat="43.9229547" lon="10.8358729"><ele>423.8</ele><time>2026-04-04T08:10:47.117Z</time></trkpt><trkpt lat="43.9230063" lon="10.8357423"><ele>425.19999999999993</ele><time>2026-04-04T08:10:48.117Z</time></trkpt><trkpt lat="43.9230374" lon="10.8356017"><ele>426.59999999999997</ele><time>2026-04-04T08:10:49.117Z</time></trkpt><trkpt lat="43.9230552" lon="10.8354539"><ele>428.0</ele><time>2026-04-04T08:10:50.117Z</time></trkpt><trkpt lat="43.9230562" lon="10.8353214"><ele>427.99999999999994</ele><time>2026-04-04T08:10:51.117Z</time></trkpt><trkpt lat="43.923036" lon="10.8352143"><ele>428.0</ele><time>2026-04-04T08:10:52.117Z</time></trkpt><trkpt lat="43.9229874" lon="10.8351481"><ele>428.0</ele><time>2026-04-04T08:10:53.116Z</time></trkpt><trkpt lat="43.9229146" lon="10.835109"><ele>428.0</ele><time>2026-04-04T08:10:54.117Z</time></trkpt><trkpt lat="43.9228385" lon="10.8350602"><ele>427.99999999999994</ele><time>2026-04-04T08:10:55.118Z</time></trkpt><trkpt lat="43.9227339" lon="10.8350429"><ele>428.0</ele><time>2026-04-04T08:10:56.117Z</time></trkpt><trkpt lat="43.9226577" lon="10.8349841"><ele>429.2</ele><time>2026-04-04T08:10:57.117Z</time></trkpt><trkpt lat="43.92261" lon="10.834913"><ele>430.4</ele><time>2026-04-04T08:10:58.117Z</time></trkpt><trkpt lat="43.9225592" lon="10.8348331"><ele>431.59999999999997</ele><time>2026-04-04T08:10:59.117Z</time></trkpt><trkpt lat="43.9225196" lon="10.8347567"><ele>432.79999999999995</ele><time>2026-04-04T08:11:00.117Z</time></trkpt><trkpt lat="43.9224304" lon="10.8347766"><ele>434.0</ele><time>2026-04-04T08:11:01.116Z</time></trkpt><trkpt lat="43.9221603" lon="10.8346643"><ele>434.5</ele><time>2026-04-04T08:11:04.117Z</time></trkpt><trkpt lat="43.9220734" lon="10.8345574"><ele>435.0</ele><time>2026-04-04T08:11:05.116Z</time></trkpt><trkpt lat="43.9219855" lon="10.8344398"><ele>435.5</ele><time>2026-04-04T08:11:06.116Z</time></trkpt><trkpt lat="43.9218961" lon="10.8343351"><ele>436.0</ele><time>2026-04-04T08:11:07.117Z</time></trkpt><trkpt lat="43.9218083" lon="10.8342247"><ele>432.75</ele><time>2026-04-04T08:11:08.117Z</time></trkpt><trkpt lat="43.9217301" lon="10.8341035"><ele>429.5</ele><time>2026-04-04T08:11:09.117Z</time></trkpt><trkpt lat="43.921661" lon="10.8339749"><ele>426.25</ele><time>2026-04-04T08:11:10.117Z</time></trkpt><trkpt lat="43.921603" lon="10.8338413"><ele>423.0</ele><time>2026-04-04T08:11:11.117Z</time></trkpt><trkpt lat="43.921551" lon="10.8336961"><ele>423.0</ele><time>2026-04-04T08:11:12.117Z</time></trkpt><trkpt lat="43.9215078" lon="10.8335494"><ele>423.0</ele><time>2026-04-04T08:11:13.117Z</time></trkpt><trkpt lat="43.9214736" lon="10.8333995"><ele>423.0</ele><time>2026-04-04T08:11:14.116Z</time></trkpt><trkpt lat="43.9214553" lon="10.8332375"><ele>423.0</ele><time>2026-04-04T08:11:15.117Z</time></trkpt><trkpt lat="43.9214435" lon="10.8330691"><ele>426.5</ele><time>2026-04-04T08:11:16.116Z</time></trkpt><trkpt lat="43.921434" lon="10.832899"><ele>430.0</ele><time>2026-04-04T08:11:17.117Z</time></trkpt><trkpt lat="43.9214225" lon="10.8327273"><ele>433.5</ele><time>2026-04-04T08:11:18.116Z</time></trkpt><trkpt lat="43.9214167" lon="10.8325662"><ele>437.0</ele><time>2026-04-04T08:11:19.117Z</time></trkpt><trkpt lat="43.9214158" lon="10.8324064"><ele>437.0</ele><time>2026-04-04T08:11:20.117Z</time></trkpt><trkpt lat="43.9214243" lon="10.8322599"><ele>437.00000000000006</ele><time>2026-04-04T08:11:21.116Z</time></trkpt><trkpt lat="43.9214448" lon="10.8321322"><ele>437.00000000000006</ele><time>2026-04-04T08:11:22.118Z</time></trkpt><trkpt lat="43.921485" lon="10.8320276"><ele>437.0</ele><time>2026-04-04T08:11:23.117Z</time></trkpt><trkpt lat="43.9215515" lon="10.8319554"><ele>437.0</ele><time>2026-04-04T08:11:24.117Z</time></trkpt><trkpt lat="43.9216283" lon="10.8319181"><ele>436.99999999999994</ele><time>2026-04-04T08:11:25.116Z</time></trkpt><trkpt lat="43.921709" lon="10.831928"><ele>437.0</ele><time>2026-04-04T08:11:26.117Z</time></trkpt><trkpt lat="43.9217863" lon="10.831974"><ele>437.0</ele><time>2026-04-04T08:11:27.117Z</time></trkpt><trkpt lat="43.9218627" lon="10.8320039"><ele>437.0</ele><time>2026-04-04T08:11:28.117Z</time></trkpt><trkpt lat="43.9219379" lon="10.8320267"><ele>436.99999999999994</ele><time>2026-04-04T08:11:29.117Z</time></trkpt><trkpt lat="43.9220114" lon="10.8320199"><ele>437.0</ele><time>2026-04-04T08:11:30.117Z</time></trkpt><trkpt lat="43.9221335" lon="10.8319106"><ele>439.3333333333333</ele><time>2026-04-04T08:11:32.116Z</time></trkpt><trkpt lat="43.922167" lon="10.8317882"><ele>441.66666666666663</ele><time>2026-04-04T08:11:33.117Z</time></trkpt><trkpt lat="43.9221984" lon="10.8316407"><ele>444.0</ele><time>2026-04-04T08:11:34.117Z</time></trkpt><trkpt lat="43.922234" lon="10.831535"><ele>446.33333333333337</ele><time>2026-04-04T08:11:35.117Z</time></trkpt><trkpt lat="43.9222406" lon="10.8314222"><ele>448.6666666666667</ele><time>2026-04-04T08:11:36.117Z</time></trkpt><trkpt lat="43.9222764" lon="10.8313392"><ele>451.0</ele><time>2026-04-04T08:11:37.117Z</time></trkpt><trkpt lat="43.92232" lon="10.8312743"><ele>451.00000000000006</ele><time>2026-04-04T08:11:38.117Z</time></trkpt><trkpt lat="43.9223654" lon="10.831209"><ele>451.0</ele><time>2026-04-04T08:11:39.117Z</time></trkpt><trkpt lat="43.922434" lon="10.8311164"><ele>451.0</ele><time>2026-04-04T08:11:40.117Z</time></trkpt><trkpt lat="43.9224933" lon="10.8310362"><ele>451.0</ele><time>2026-04-04T08:11:41.117Z</time></trkpt><trkpt lat="43.9225459" lon="10.830942"><ele>451.00000000000006</ele><time>2026-04-04T08:11:42.117Z</time></trkpt><trkpt lat="43.9225892" lon="10.830847"><ele>451.0</ele><time>2026-04-04T08:11:43.117Z</time></trkpt><trkpt lat="43.9226352" lon="10.8307542"><ele>453.20000000000005</ele><time>2026-04-04T08:11:44.117Z</time></trkpt><trkpt lat="43.9226832" lon="10.8306569"><ele>455.40000000000003</ele><time>2026-04-04T08:11:45.117Z</time></trkpt><trkpt lat="43.9227471" lon="10.830603"><ele>457.6</ele><time>2026-04-04T08:11:46.117Z</time></trkpt><trkpt lat="43.9228129" lon="10.8305894"><ele>459.8</ele><time>2026-04-04T08:11:47.116Z</time></trkpt><trkpt lat="43.9229391" lon="10.8305485"><ele>462.0</ele><time>2026-04-04T08:11:49.116Z</time></trkpt><trkpt lat="43.923044" lon="10.8305383"><ele>462.0</ele><time>2026-04-04T08:11:51.117Z</time></trkpt><trkpt lat="43.9231044" lon="10.8305857"><ele>462.00000000000006</ele><time>2026-04-04T08:11:53.117Z</time></trkpt><trkpt lat="43.923176" lon="10.8306972"><ele>462.00000000000006</ele><time>2026-04-04T08:11:55.116Z</time></trkpt><trkpt lat="43.9232304" lon="10.8307553"><ele>462.0</ele><time>2026-04-04T08:11:56.117Z</time></trkpt><trkpt lat="43.9233318" lon="10.830859"><ele>462.0</ele><time>2026-04-04T08:11:58.117Z</time></trkpt><trkpt lat="43.923424" lon="10.8309481"><ele>462.75</ele><time>2026-04-04T08:12:00.117Z</time></trkpt><trkpt lat="43.9234668" lon="10.8310842"><ele>463.5</ele><time>2026-04-04T08:12:02.117Z</time></trkpt><trkpt lat="43.9234913" lon="10.8312367"><ele>464.25</ele><time>2026-04-04T08:12:04.116Z</time></trkpt><trkpt lat="43.9233786" lon="10.8313469"><ele>465.0</ele><time>2026-04-04T08:12:05.118Z</time></trkpt><trkpt lat="43.9232905" lon="10.8314734"><ele>465.0</ele><time>2026-04-04T08:12:07.117Z</time></trkpt><trkpt lat="43.9232617" lon="10.8315535"><ele>465.0</ele><time>2026-04-04T08:12:08.117Z</time></trkpt><trkpt lat="43.9233351" lon="10.8317189"><ele>465.0</ele><time>2026-04-04T08:12:10.116Z</time></trkpt><trkpt lat="43.9234163" lon="10.8317163"><ele>465.0</ele><time>2026-04-04T08:12:11.117Z</time></trkpt><trkpt lat="43.9235169" lon="10.8317516"><ele>465.0</ele><time>2026-04-04T08:12:13.116Z</time></trkpt><trkpt lat="43.9236008" lon="10.8317449"><ele>467.8</ele><time>2026-04-04T08:12:15.117Z</time></trkpt><trkpt lat="43.9236589" lon="10.8317898"><ele>470.6</ele><time>2026-04-04T08:12:17.117Z</time></trkpt><trkpt lat="43.9237612" lon="10.8318502"><ele>473.4</ele><time>2026-04-04T08:12:19.117Z</time></trkpt><trkpt lat="43.9238129" lon="10.8319564"><ele>476.2</ele><time>2026-04-04T08:12:21.117Z</time></trkpt><trkpt lat="43.9238279" lon="10.8320744"><ele>479.0</ele><time>2026-04-04T08:12:23.117Z</time></trkpt><trkpt lat="43.9238845" lon="10.8321949"><ele>480.49999999999994</ele><time>2026-04-04T08:12:25.116Z</time></trkpt><trkpt lat="43.9239389" lon="10.8323348"><ele>482.0</ele><time>2026-04-04T08:12:27.116Z</time></trkpt><trkpt lat="43.924003" lon="10.8323958"><ele>483.5</ele><time>2026-04-04T08:12:29.117Z</time></trkpt><trkpt lat="43.9241079" lon="10.8323331"><ele>485.0</ele><time>2026-04-04T08:12:31.117Z</time></trkpt><trkpt lat="43.9241728" lon="10.8323539"><ele>486.49999999999994</ele><time>2026-04-04T08:12:32.116Z</time></trkpt><trkpt lat="43.9242238" lon="10.8324058"><ele>488.0</ele><time>2026-04-04T08:12:33.117Z</time></trkpt><trkpt lat="43.924277" lon="10.8324618"><ele>490.0</ele><time>2026-04-04T08:12:34.117Z</time></trkpt><trkpt lat="43.9243895" lon="10.8325306"><ele>491.99999999999994</ele><time>2026-04-04T08:12:36.116Z</time></trkpt><trkpt lat="43.924481" lon="10.8326205"><ele>493.99999999999994</ele><time>2026-04-04T08:12:38.116Z</time></trkpt><trkpt lat="43.9245116" lon="10.8326973"><ele>496.0</ele><time>2026-04-04T08:12:39.117Z</time></trkpt><trkpt lat="43.9246153" lon="10.8327736"><ele>498.0</ele><time>2026-04-04T08:12:41.117Z</time></trkpt><trkpt lat="43.9246966" lon="10.832776"><ele>499.0</ele><time>2026-04-04T08:12:42.117Z</time></trkpt><trkpt lat="43.9248209" lon="10.8327437"><ele>499.99999999999994</ele><time>2026-04-04T08:12:44.116Z</time></trkpt><trkpt lat="43.9248894" lon="10.8327052"><ele>500.99999999999994</ele><time>2026-04-04T08:12:45.117Z</time></trkpt><trkpt lat="43.9249745" lon="10.8326886"><ele>502.0</ele><time>2026-04-04T08:12:46.117Z</time></trkpt><trkpt lat="43.9250732" lon="10.8326864"><ele>503.0</ele><time>2026-04-04T08:12:47.116Z</time></trkpt><trkpt lat="43.9251782" lon="10.8326788"><ele>504.79999999999995</ele><time>2026-04-04T08:12:48.117Z</time></trkpt><trkpt lat="43.9252746" lon="10.8326797"><ele>506.59999999999997</ele><time>2026-04-04T08:12:49.116Z</time></trkpt><trkpt lat="43.9253637" lon="10.8326805"><ele>508.40000000000003</ele><time>2026-04-04T08:12:50.117Z</time></trkpt><trkpt lat="43.9254494" lon="10.832684"><ele>510.20000000000005</ele><time>2026-04-04T08:12:51.117Z</time></trkpt><trkpt lat="43.9255408" lon="10.8326332"><ele>512.0</ele><time>2026-04-04T08:12:53.117Z</time></trkpt><trkpt lat="43.9256504" lon="10.8326106"><ele>512.5</ele><time>2026-04-04T08:12:55.118Z</time></trkpt><trkpt lat="43.9257321" lon="10.8324569"><ele>513.0</ele><time>2026-04-04T08:12:57.117Z</time></trkpt><trkpt lat="43.9257927" lon="10.8323377"><ele>513.5</ele><time>2026-04-04T08:12:59.116Z</time></trkpt><trkpt lat="43.9258784" lon="10.8322456"><ele>514.0</ele><time>2026-04-04T08:13:01.117Z</time></trkpt><trkpt lat="43.9259361" lon="10.8321"><ele>516.0</ele><time>2026-04-04T08:13:03.117Z</time></trkpt><trkpt lat="43.9259373" lon="10.832009"><ele>518.0</ele><time>2026-04-04T08:13:04.118Z</time></trkpt><trkpt lat="43.9259391" lon="10.8318935"><ele>520.0</ele><time>2026-04-04T08:13:05.117Z</time></trkpt><trkpt lat="43.925949" lon="10.8317674"><ele>522.0</ele><time>2026-04-04T08:13:06.117Z</time></trkpt><trkpt lat="43.925959" lon="10.8316419"><ele>524.0</ele><time>2026-04-04T08:13:07.117Z</time></trkpt><trkpt lat="43.9259537" lon="10.83153"><ele>526.0</ele><time>2026-04-04T08:13:08.116Z</time></trkpt><trkpt lat="43.9259366" lon="10.8314127"><ele>526.6666666666667</ele><time>2026-04-04T08:13:09.117Z</time></trkpt><trkpt lat="43.9259184" lon="10.8312842"><ele>527.3333333333334</ele><time>2026-04-04T08:13:10.117Z</time></trkpt><trkpt lat="43.9259015" lon="10.8311594"><ele>528.0</ele><time>2026-04-04T08:13:11.117Z</time></trkpt><trkpt lat="43.9258927" lon="10.8310467"><ele>528.6666666666666</ele><time>2026-04-04T08:13:12.116Z</time></trkpt><trkpt lat="43.9258879" lon="10.8309297"><ele>529.3333333333333</ele><time>2026-04-04T08:13:13.117Z</time></trkpt><trkpt lat="43.9258863" lon="10.8308178"><ele>530.0</ele><time>2026-04-04T08:13:14.117Z</time></trkpt><trkpt lat="43.9258881" lon="10.8307047"><ele>531.1666666666666</ele><time>2026-04-04T08:13:15.117Z</time></trkpt><trkpt lat="43.9258895" lon="10.8306061"><ele>532.3333333333333</ele><time>2026-04-04T08:13:16.117Z</time></trkpt><trkpt lat="43.925881" lon="10.8304837"><ele>533.5</ele><time>2026-04-04T08:13:17.117Z</time></trkpt><trkpt lat="43.9258829" lon="10.8303635"><ele>534.6666666666666</ele><time>2026-04-04T08:13:18.117Z</time></trkpt><trkpt lat="43.9258917" lon="10.8302391"><ele>535.8333333333334</ele><time>2026-04-04T08:13:19.117Z</time></trkpt><trkpt lat="43.9259108" lon="10.8301146"><ele>537.0</ele><time>2026-04-04T08:13:20.116Z</time></trkpt><trkpt lat="43.9259712" lon="10.8300643"><ele>537.0</ele><time>2026-04-04T08:13:21.118Z</time></trkpt><trkpt lat="43.9260182" lon="10.8299939"><ele>537.0</ele><time>2026-04-04T08:13:22.116Z</time></trkpt><trkpt lat="43.9260723" lon="10.8299283"><ele>537.0</ele><time>2026-04-04T08:13:23.117Z</time></trkpt><trkpt lat="43.9261519" lon="10.8298558"><ele>537.0</ele><time>2026-04-04T08:13:25.117Z</time></trkpt><trkpt lat="43.9261818" lon="10.8297595"><ele>537.0</ele><time>2026-04-04T08:19:03.116Z</time></trkpt><trkpt lat="43.9262103" lon="10.8296696"><ele>537.0</ele><time>2026-04-04T08:19:07.115Z</time></trkpt><trkpt lat="43.9262454" lon="10.829587"><ele>537.0</ele><time>2026-04-04T08:19:09.116Z</time></trkpt><trkpt lat="43.9262934" lon="10.8294975"><ele>537.0</ele><time>2026-04-04T08:19:10.117Z</time></trkpt><trkpt lat="43.9263356" lon="10.8294305"><ele>537.0</ele><time>2026-04-04T08:19:11.116Z</time></trkpt><trkpt lat="43.926381" lon="10.8293404"><ele>537.0</ele><time>2026-04-04T08:19:12.116Z</time></trkpt><trkpt lat="43.9264396" lon="10.8292444"><ele>537.0</ele><time>2026-04-04T08:19:13.115Z</time></trkpt><trkpt lat="43.9264857" lon="10.8291472"><ele>537.0</ele><time>2026-04-04T08:19:14.116Z</time></trkpt><trkpt lat="43.9265374" lon="10.829044"><ele>536.4</ele><time>2026-04-04T08:19:15.116Z</time></trkpt><trkpt lat="43.9265657" lon="10.8289011"><ele>535.8000000000001</ele><time>2026-04-04T08:19:16.116Z</time></trkpt><trkpt lat="43.926577" lon="10.828768"><ele>535.2</ele><time>2026-04-04T08:19:17.116Z</time></trkpt><trkpt lat="43.9266223" lon="10.8286642"><ele>534.6</ele><time>2026-04-04T08:19:18.117Z</time></trkpt><trkpt lat="43.9267137" lon="10.8285468"><ele>534.0</ele><time>2026-04-04T08:19:19.116Z</time></trkpt><trkpt lat="43.9267775" lon="10.8284153"><ele>534.0</ele><time>2026-04-04T08:19:20.115Z</time></trkpt><trkpt lat="43.9268515" lon="10.8282529"><ele>534.0</ele><time>2026-04-04T08:19:21.116Z</time></trkpt><trkpt lat="43.9269009" lon="10.8281226"><ele>534.0</ele><time>2026-04-04T08:19:22.116Z</time></trkpt><trkpt lat="43.9269805" lon="10.8280029"><ele>534.0</ele><time>2026-04-04T08:19:23.115Z</time></trkpt><trkpt lat="43.9270605" lon="10.8279378"><ele>534.0</ele><time>2026-04-04T08:19:24.116Z</time></trkpt><trkpt lat="43.9271494" lon="10.8278503"><ele>534.0</ele><time>2026-04-04T08:19:25.116Z</time></trkpt><trkpt lat="43.927227" lon="10.8277509"><ele>534.0</ele><time>2026-04-04T08:19:26.116Z</time></trkpt><trkpt lat="43.9273042" lon="10.8276482"><ele>534.0</ele><time>2026-04-04T08:19:27.116Z</time></trkpt><trkpt lat="43.927358" lon="10.8275399"><ele>534.0</ele><time>2026-04-04T08:19:28.115Z</time></trkpt><trkpt lat="43.9274131" lon="10.8274054"><ele>531.75</ele><time>2026-04-04T08:19:29.116Z</time></trkpt><trkpt lat="43.9274631" lon="10.827262"><ele>529.5</ele><time>2026-04-04T08:19:30.117Z</time></trkpt><trkpt lat="43.9274947" lon="10.8271246"><ele>527.25</ele><time>2026-04-04T08:19:31.117Z</time></trkpt><trkpt lat="43.9275486" lon="10.826982"><ele>525.0</ele><time>2026-04-04T08:19:32.115Z</time></trkpt><trkpt lat="43.927603" lon="10.8268339"><ele>527.6</ele><time>2026-04-04T08:19:33.117Z</time></trkpt><trkpt lat="43.9276454" lon="10.8266788"><ele>530.2</ele><time>2026-04-04T08:19:34.116Z</time></trkpt><trkpt lat="43.9277006" lon="10.8265483"><ele>532.8</ele><time>2026-04-04T08:19:35.116Z</time></trkpt><trkpt lat="43.927757" lon="10.826421"><ele>535.4</ele><time>2026-04-04T08:19:36.116Z</time></trkpt><trkpt lat="43.9278127" lon="10.8262849"><ele>538.0</ele><time>2026-04-04T08:19:37.115Z</time></trkpt><trkpt lat="43.9278833" lon="10.8262239"><ele>538.0</ele><time>2026-04-04T08:19:38.115Z</time></trkpt><trkpt lat="43.9279522" lon="10.8260762"><ele>538.0</ele><time>2026-04-04T08:19:40.116Z</time></trkpt><trkpt lat="43.9278894" lon="10.8260074"><ele>538.0</ele><time>2026-04-04T08:19:41.116Z</time></trkpt><trkpt lat="43.9278646" lon="10.8259259"><ele>538.0</ele><time>2026-04-04T08:19:42.115Z</time></trkpt><trkpt lat="43.9278398" lon="10.8258177"><ele>538.0</ele><time>2026-04-04T08:19:43.116Z</time></trkpt><trkpt lat="43.9278217" lon="10.825708"><ele>538.0</ele><time>2026-04-04T08:19:44.115Z</time></trkpt><trkpt lat="43.9278232" lon="10.8255389"><ele>536.1999999999999</ele><time>2026-04-04T08:19:45.116Z</time></trkpt><trkpt lat="43.9278056" lon="10.8254142"><ele>534.4</ele><time>2026-04-04T08:19:46.116Z</time></trkpt><trkpt lat="43.9278068" lon="10.8253025"><ele>532.5999999999999</ele><time>2026-04-04T08:19:47.117Z</time></trkpt><trkpt lat="43.9278291" lon="10.8251915"><ele>530.8</ele><time>2026-04-04T08:19:48.115Z</time></trkpt><trkpt lat="43.9279952" lon="10.8251256"><ele>529.0</ele><time>2026-04-04T08:19:50.116Z</time></trkpt><trkpt lat="43.9280489" lon="10.8250588"><ele>528.6666666666667</ele><time>2026-04-04T08:19:51.116Z</time></trkpt><trkpt lat="43.9281291" lon="10.8249725"><ele>528.3333333333334</ele><time>2026-04-04T08:19:52.117Z</time></trkpt><trkpt lat="43.9281686" lon="10.8248808"><ele>528.0</ele><time>2026-04-04T08:19:53.116Z</time></trkpt><trkpt lat="43.9282296" lon="10.8248385"><ele>527.6666666666666</ele><time>2026-04-04T08:19:55.116Z</time></trkpt><trkpt lat="43.9282592" lon="10.8249667"><ele>527.3333333333333</ele><time>2026-04-04T08:20:01.116Z</time></trkpt><trkpt lat="43.9283091" lon="10.8250289"><ele>527.0</ele><time>2026-04-04T08:20:02.116Z</time></trkpt><trkpt lat="43.9284037" lon="10.8250042"><ele>528.6</ele><time>2026-04-04T08:20:03.117Z</time></trkpt><trkpt lat="43.9285251" lon="10.8249629"><ele>530.2</ele><time>2026-04-04T08:20:05.116Z</time></trkpt><trkpt lat="43.9286088" lon="10.8249173"><ele>531.8</ele><time>2026-04-04T08:20:06.116Z</time></trkpt><trkpt lat="43.9286981" lon="10.8248827"><ele>533.4</ele><time>2026-04-04T08:20:07.116Z</time></trkpt><trkpt lat="43.9287748" lon="10.8248697"><ele>535.0</ele><time>2026-04-04T08:20:08.116Z</time></trkpt><trkpt lat="43.928882" lon="10.8248029"><ele>535.0</ele><time>2026-04-04T08:20:09.115Z</time></trkpt><trkpt lat="43.9289654" lon="10.824764"><ele>535.0</ele><time>2026-04-04T08:20:10.116Z</time></trkpt><trkpt lat="43.9290562" lon="10.8246364"><ele>535.0</ele><time>2026-04-04T08:20:11.115Z</time></trkpt><trkpt lat="43.9291351" lon="10.8245691"><ele>535.0</ele><time>2026-04-04T08:20:12.115Z</time></trkpt><trkpt lat="43.9292144" lon="10.8244913"><ele>535.0</ele><time>2026-04-04T08:20:13.116Z</time></trkpt><trkpt lat="43.9292889" lon="10.8245086"><ele>536.0</ele><time>2026-04-04T08:20:14.116Z</time></trkpt><trkpt lat="43.9293857" lon="10.824485"><ele>537.0</ele><time>2026-04-04T08:20:15.116Z</time></trkpt><trkpt lat="43.9294686" lon="10.824473"><ele>538.0</ele><time>2026-04-04T08:20:16.115Z</time></trkpt><trkpt lat="43.9295479" lon="10.8244613"><ele>539.0</ele><time>2026-04-04T08:20:17.117Z</time></trkpt><trkpt lat="43.9296367" lon="10.8244286"><ele>540.0</ele><time>2026-04-04T08:20:18.116Z</time></trkpt><trkpt lat="43.9297111" lon="10.8243769"><ele>541.0</ele><time>2026-04-04T08:20:19.116Z</time></trkpt><trkpt lat="43.9297056" lon="10.8242055"><ele>541.0</ele><time>2026-04-04T08:20:20.117Z</time></trkpt><trkpt lat="43.929681" lon="10.824074"><ele>541.0</ele><time>2026-04-04T08:20:21.116Z</time></trkpt><trkpt lat="43.9297147" lon="10.8239584"><ele>541.0</ele><time>2026-04-04T08:20:22.116Z</time></trkpt><trkpt lat="43.9297651" lon="10.8238475"><ele>541.0</ele><time>2026-04-04T08:20:23.115Z</time></trkpt><trkpt lat="43.9298439" lon="10.8237695"><ele>541.0</ele><time>2026-04-04T08:20:24.116Z</time></trkpt><trkpt lat="43.9299137" lon="10.8237001"><ele>541.0</ele><time>2026-04-04T08:20:25.115Z</time></trkpt><trkpt lat="43.9299881" lon="10.8236261"><ele>541.0</ele><time>2026-04-04T08:20:26.115Z</time></trkpt><trkpt lat="43.9300801" lon="10.8235584"><ele>541.0</ele><time>2026-04-04T08:20:27.115Z</time></trkpt><trkpt lat="43.9301681" lon="10.8234859"><ele>541.0</ele><time>2026-04-04T08:20:28.116Z</time></trkpt><trkpt lat="43.9302701" lon="10.8234311"><ele>541.0</ele><time>2026-04-04T08:20:29.115Z</time></trkpt><trkpt lat="43.9303562" lon="10.8233746"><ele>541.1666666666667</ele><time>2026-04-04T08:20:30.116Z</time></trkpt><trkpt lat="43.930441" lon="10.8233454"><ele>541.3333333333334</ele><time>2026-04-04T08:20:31.116Z</time></trkpt><trkpt lat="43.9305417" lon="10.8233292"><ele>541.5</ele><time>2026-04-04T08:20:33.116Z</time></trkpt><trkpt lat="43.9306514" lon="10.8233455"><ele>541.6666666666666</ele><time>2026-04-04T08:20:35.116Z</time></trkpt><trkpt lat="43.9307055" lon="10.8233925"><ele>541.8333333333333</ele><time>2026-04-04T08:20:36.116Z</time></trkpt><trkpt lat="43.9307575" lon="10.8234771"><ele>542.0</ele><time>2026-04-04T08:20:37.116Z</time></trkpt><trkpt lat="43.9308035" lon="10.823587"><ele>543.5</ele><time>2026-04-04T08:20:38.116Z</time></trkpt><trkpt lat="43.9308567" lon="10.8236954"><ele>545.0</ele><time>2026-04-04T08:20:39.116Z</time></trkpt><trkpt lat="43.9309173" lon="10.8237772"><ele>546.5</ele><time>2026-04-04T08:20:40.117Z</time></trkpt><trkpt lat="43.9309812" lon="10.8238375"><ele>548.0</ele><time>2026-04-04T08:20:41.116Z</time></trkpt><trkpt lat="43.931052" lon="10.8238629"><ele>549.5</ele><time>2026-04-04T08:20:42.116Z</time></trkpt><trkpt lat="43.9311235" lon="10.8238501"><ele>551.0</ele><time>2026-04-04T08:20:43.115Z</time></trkpt><trkpt lat="43.9312425" lon="10.8238555"><ele>550.0</ele><time>2026-04-04T08:20:45.116Z</time></trkpt><trkpt lat="43.9313103" lon="10.8238605"><ele>549.0</ele><time>2026-04-04T08:20:46.117Z</time></trkpt><trkpt lat="43.9313854" lon="10.8238532"><ele>548.0</ele><time>2026-04-04T08:20:47.115Z</time></trkpt><trkpt lat="43.9314422" lon="10.8237252"><ele>547.0</ele><time>2026-04-04T08:20:48.116Z</time></trkpt><trkpt lat="43.9314931" lon="10.8236181"><ele>546.0</ele><time>2026-04-04T08:20:49.116Z</time></trkpt><trkpt lat="43.9315157" lon="10.8234767"><ele>545.0</ele><time>2026-04-04T08:20:50.116Z</time></trkpt><trkpt lat="43.9315663" lon="10.8233774"><ele>545.0</ele><time>2026-04-04T08:20:51.115Z</time></trkpt><trkpt lat="43.9316292" lon="10.8233258"><ele>545.0</ele><time>2026-04-04T08:20:52.116Z</time></trkpt><trkpt lat="43.9316915" lon="10.8233085"><ele>545.0</ele><time>2026-04-04T08:20:53.116Z</time></trkpt><trkpt lat="43.9317615" lon="10.8233048"><ele>545.0</ele><time>2026-04-04T08:20:54.116Z</time></trkpt><trkpt lat="43.9318443" lon="10.8232936"><ele>545.0</ele><time>2026-04-04T08:20:55.115Z</time></trkpt><trkpt lat="43.9319361" lon="10.8232549"><ele>545.0</ele><time>2026-04-04T08:20:56.116Z</time></trkpt><trkpt lat="43.932033" lon="10.8232117"><ele>545.8</ele><time>2026-04-04T08:20:57.117Z</time></trkpt><trkpt lat="43.9321385" lon="10.823187"><ele>546.6</ele><time>2026-04-04T08:20:58.116Z</time></trkpt><trkpt lat="43.9322404" lon="10.8231845"><ele>547.4</ele><time>2026-04-04T08:20:59.115Z</time></trkpt><trkpt lat="43.9323466" lon="10.823205"><ele>548.2</ele><time>2026-04-04T08:21:00.115Z</time></trkpt><trkpt lat="43.9324553" lon="10.8232311"><ele>549.0</ele><time>2026-04-04T08:21:01.115Z</time></trkpt><trkpt lat="43.9325679" lon="10.8232803"><ele>549.0</ele><time>2026-04-04T08:21:02.116Z</time></trkpt><trkpt lat="43.9326795" lon="10.8233204"><ele>549.0</ele><time>2026-04-04T08:21:03.116Z</time></trkpt><trkpt lat="43.9327922" lon="10.8233624"><ele>549.0</ele><time>2026-04-04T08:21:04.117Z</time></trkpt><trkpt lat="43.9329235" lon="10.8233698"><ele>549.0</ele><time>2026-04-04T08:21:05.115Z</time></trkpt><trkpt lat="43.9330352" lon="10.8233384"><ele>549.0</ele><time>2026-04-04T08:21:06.116Z</time></trkpt><trkpt lat="43.9331566" lon="10.8233145"><ele>549.0</ele><time>2026-04-04T08:21:07.116Z</time></trkpt><trkpt lat="43.9332507" lon="10.8232848"><ele>549.0</ele><time>2026-04-04T08:21:08.116Z</time></trkpt><trkpt lat="43.9333389" lon="10.8232732"><ele>549.0</ele><time>2026-04-04T08:21:09.115Z</time></trkpt><trkpt lat="43.9334373" lon="10.8233017"><ele>549.0</ele><time>2026-04-04T08:21:10.115Z</time></trkpt><trkpt lat="43.9335394" lon="10.8233447"><ele>548.25</ele><time>2026-04-04T08:21:11.116Z</time></trkpt><trkpt lat="43.9336486" lon="10.8233776"><ele>547.5</ele><time>2026-04-04T08:21:12.116Z</time></trkpt><trkpt lat="43.9337588" lon="10.8234104"><ele>546.75</ele><time>2026-04-04T08:21:13.116Z</time></trkpt><trkpt lat="43.9338763" lon="10.8234383"><ele>546.0</ele><time>2026-04-04T08:21:14.116Z</time></trkpt><trkpt lat="43.9339935" lon="10.8234532"><ele>546.0</ele><time>2026-04-04T08:21:15.116Z</time></trkpt><trkpt lat="43.9340929" lon="10.8234273"><ele>546.0</ele><time>2026-04-04T08:21:16.116Z</time></trkpt><trkpt lat="43.934173" lon="10.8234105"><ele>546.0</ele><time>2026-04-04T08:21:17.116Z</time></trkpt><trkpt lat="43.9342503" lon="10.8234024"><ele>546.0</ele><time>2026-04-04T08:21:18.115Z</time></trkpt><trkpt lat="43.9343341" lon="10.823419"><ele>546.0</ele><time>2026-04-04T08:21:19.116Z</time></trkpt><trkpt lat="43.934431" lon="10.8234599"><ele>546.0</ele><time>2026-04-04T08:21:20.116Z</time></trkpt><trkpt lat="43.9345401" lon="10.8235083"><ele>547.0</ele><time>2026-04-04T08:21:21.116Z</time></trkpt><trkpt lat="43.9346518" lon="10.8235515"><ele>548.0</ele><time>2026-04-04T08:21:22.116Z</time></trkpt><trkpt lat="43.9347633" lon="10.8235868"><ele>549.0</ele><time>2026-04-04T08:21:23.117Z</time></trkpt><trkpt lat="43.9348778" lon="10.823618"><ele>550.0</ele><time>2026-04-04T08:21:24.116Z</time></trkpt><trkpt lat="43.9349887" lon="10.8236439"><ele>550.1666666666667</ele><time>2026-04-04T08:21:25.116Z</time></trkpt><trkpt lat="43.9350883" lon="10.8236532"><ele>550.3333333333334</ele><time>2026-04-04T08:21:26.116Z</time></trkpt><trkpt lat="43.9351789" lon="10.8236463"><ele>550.5</ele><time>2026-04-04T08:21:27.116Z</time></trkpt><trkpt lat="43.9352597" lon="10.8236314"><ele>550.6666666666666</ele><time>2026-04-04T08:21:28.115Z</time></trkpt><trkpt lat="43.9353274" lon="10.8236127"><ele>550.8333333333333</ele><time>2026-04-04T08:21:29.116Z</time></trkpt><trkpt lat="43.935426" lon="10.823567"><ele>551.0</ele><time>2026-04-04T08:21:31.116Z</time></trkpt><trkpt lat="43.935456" lon="10.8234854"><ele>550.8</ele><time>2026-04-04T08:21:32.116Z</time></trkpt><trkpt lat="43.9354934" lon="10.8233875"><ele>550.6</ele><time>2026-04-04T08:21:33.116Z</time></trkpt><trkpt lat="43.9355368" lon="10.8232753"><ele>550.4</ele><time>2026-04-04T08:21:34.116Z</time></trkpt><trkpt lat="43.9355816" lon="10.8231518"><ele>550.2</ele><time>2026-04-04T08:21:35.116Z</time></trkpt><trkpt lat="43.935616" lon="10.8230139"><ele>550.0</ele><time>2026-04-04T08:21:36.116Z</time></trkpt><trkpt lat="43.9356461" lon="10.8228704"><ele>550.0</ele><time>2026-04-04T08:21:37.115Z</time></trkpt><trkpt lat="43.9356588" lon="10.8227123"><ele>550.0</ele><time>2026-04-04T08:21:38.116Z</time></trkpt><trkpt lat="43.9356677" lon="10.8225471"><ele>550.0</ele><time>2026-04-04T08:21:39.115Z</time></trkpt><trkpt lat="43.9356834" lon="10.8223883"><ele>550.0</ele><time>2026-04-04T08:21:40.115Z</time></trkpt><trkpt lat="43.9356933" lon="10.8222301"><ele>549.75</ele><time>2026-04-04T08:21:41.116Z</time></trkpt><trkpt lat="43.9357007" lon="10.8220628"><ele>549.5</ele><time>2026-04-04T08:21:42.116Z</time></trkpt><trkpt lat="43.9357135" lon="10.8218993"><ele>549.25</ele><time>2026-04-04T08:21:43.115Z</time></trkpt><trkpt lat="43.9357402" lon="10.8217409"><ele>549.0</ele><time>2026-04-04T08:21:44.117Z</time></trkpt><trkpt lat="43.9357749" lon="10.8215938"><ele>550.25</ele><time>2026-04-04T08:21:45.116Z</time></trkpt><trkpt lat="43.9358239" lon="10.8214623"><ele>551.5</ele><time>2026-04-04T08:21:46.116Z</time></trkpt><trkpt lat="43.9358935" lon="10.8213304"><ele>552.75</ele><time>2026-04-04T08:21:47.115Z</time></trkpt><trkpt lat="43.9359698" lon="10.821189"><ele>554.0</ele><time>2026-04-04T08:21:48.116Z</time></trkpt><trkpt lat="43.9360471" lon="10.8210364"><ele>556.5</ele><time>2026-04-04T08:21:49.116Z</time></trkpt><trkpt lat="43.9361243" lon="10.8209004"><ele>559.0</ele><time>2026-04-04T08:21:50.116Z</time></trkpt><trkpt lat="43.9361977" lon="10.8207695"><ele>561.5</ele><time>2026-04-04T08:21:51.116Z</time></trkpt><trkpt lat="43.9362588" lon="10.8206337"><ele>564.0</ele><time>2026-04-04T08:21:52.115Z</time></trkpt><trkpt lat="43.936319" lon="10.8205232"><ele>564.0</ele><time>2026-04-04T08:21:53.116Z</time></trkpt><trkpt lat="43.9363908" lon="10.8204145"><ele>564.0</ele><time>2026-04-04T08:21:54.116Z</time></trkpt><trkpt lat="43.9364762" lon="10.8203221"><ele>564.0</ele><time>2026-04-04T08:21:55.116Z</time></trkpt><trkpt lat="43.9365684" lon="10.8202413"><ele>564.0</ele><time>2026-04-04T08:21:56.116Z</time></trkpt><trkpt lat="43.9366706" lon="10.820166"><ele>564.0</ele><time>2026-04-04T08:21:57.116Z</time></trkpt><trkpt lat="43.9367761" lon="10.820088"><ele>564.25</ele><time>2026-04-04T08:21:58.116Z</time></trkpt><trkpt lat="43.9368827" lon="10.820009"><ele>564.5</ele><time>2026-04-04T08:21:59.117Z</time></trkpt><trkpt lat="43.936999" lon="10.8199168"><ele>564.75</ele><time>2026-04-04T08:22:00.116Z</time></trkpt><trkpt lat="43.9371095" lon="10.8198383"><ele>565.0</ele><time>2026-04-04T08:22:01.116Z</time></trkpt><trkpt lat="43.937226" lon="10.8197478"><ele>565.0</ele><time>2026-04-04T08:22:02.116Z</time></trkpt><trkpt lat="43.9373375" lon="10.8196708"><ele>565.0</ele><time>2026-04-04T08:22:03.116Z</time></trkpt><trkpt lat="43.9374395" lon="10.8195743"><ele>565.0</ele><time>2026-04-04T08:22:04.117Z</time></trkpt><trkpt lat="43.9375417" lon="10.8194762"><ele>565.0</ele><time>2026-04-04T08:22:05.115Z</time></trkpt><trkpt lat="43.9376344" lon="10.8193703"><ele>563.75</ele><time>2026-04-04T08:22:06.116Z</time></trkpt><trkpt lat="43.9377298" lon="10.8192632"><ele>562.5</ele><time>2026-04-04T08:22:07.116Z</time></trkpt><trkpt lat="43.9378182" lon="10.8191652"><ele>561.25</ele><time>2026-04-04T08:22:08.116Z</time></trkpt><trkpt lat="43.9379116" lon="10.8190697"><ele>560.0</ele><time>2026-04-04T08:22:09.116Z</time></trkpt><trkpt lat="43.9380142" lon="10.818981"><ele>560.0</ele><time>2026-04-04T08:22:10.116Z</time></trkpt><trkpt lat="43.9381169" lon="10.8188923"><ele>560.0</ele><time>2026-04-04T08:22:11.117Z</time></trkpt><trkpt lat="43.9382235" lon="10.8188124"><ele>560.0</ele><time>2026-04-04T08:22:12.116Z</time></trkpt><trkpt lat="43.9383255" lon="10.8187267"><ele>560.0</ele><time>2026-04-04T08:22:13.116Z</time></trkpt><trkpt lat="43.9384148" lon="10.8186228"><ele>560.2</ele><time>2026-04-04T08:22:14.115Z</time></trkpt><trkpt lat="43.9384926" lon="10.8185395"><ele>560.4</ele><time>2026-04-04T08:22:15.116Z</time></trkpt><trkpt lat="43.9385602" lon="10.8184781"><ele>560.6</ele><time>2026-04-04T08:22:16.117Z</time></trkpt><trkpt lat="43.9386607" lon="10.8184472"><ele>560.8</ele><time>2026-04-04T08:22:18.115Z</time></trkpt><trkpt lat="43.9387553" lon="10.8185274"><ele>561.0</ele><time>2026-04-04T08:22:20.116Z</time></trkpt><trkpt lat="43.9388077" lon="10.818613"><ele>561.0</ele><time>2026-04-04T08:22:22.116Z</time></trkpt><trkpt lat="43.9388178" lon="10.8187863"><ele>561.0</ele><time>2026-04-04T08:22:24.116Z</time></trkpt><trkpt lat="43.9388113" lon="10.8189107"><ele>561.0</ele><time>2026-04-04T08:22:25.115Z</time></trkpt><trkpt lat="43.9388125" lon="10.8190521"><ele>561.0</ele><time>2026-04-04T08:22:26.116Z</time></trkpt><trkpt lat="43.938817" lon="10.819212"><ele>561.0</ele><time>2026-04-04T08:22:27.117Z</time></trkpt><trkpt lat="43.9388198" lon="10.8193799"><ele>560.2</ele><time>2026-04-04T08:22:28.116Z</time></trkpt><trkpt lat="43.9388215" lon="10.8195406"><ele>559.4000000000001</ele><time>2026-04-04T08:22:29.116Z</time></trkpt><trkpt lat="43.9388269" lon="10.8196916"><ele>558.6</ele><time>2026-04-04T08:22:30.116Z</time></trkpt><trkpt lat="43.9388377" lon="10.8198398"><ele>557.8000000000001</ele><time>2026-04-04T08:22:31.116Z</time></trkpt><trkpt lat="43.9388645" lon="10.8199976"><ele>557.0</ele><time>2026-04-04T08:22:32.116Z</time></trkpt><trkpt lat="43.9388979" lon="10.8201422"><ele>556.8333333333333</ele><time>2026-04-04T08:22:33.116Z</time></trkpt><trkpt lat="43.9389388" lon="10.8202749"><ele>556.6666666666666</ele><time>2026-04-04T08:22:34.116Z</time></trkpt><trkpt lat="43.9389731" lon="10.820373"><ele>556.5</ele><time>2026-04-04T08:22:35.116Z</time></trkpt><trkpt lat="43.9390075" lon="10.8204491"><ele>556.3333333333334</ele><time>2026-04-04T08:22:36.115Z</time></trkpt><trkpt lat="43.9390698" lon="10.8205359"><ele>556.1666666666667</ele><time>2026-04-04T08:22:38.116Z</time></trkpt><trkpt lat="43.9391365" lon="10.8205253"><ele>556.0</ele><time>2026-04-04T08:22:40.117Z</time></trkpt><trkpt lat="43.9391337" lon="10.8203874"><ele>556.0</ele><time>2026-04-04T08:22:42.116Z</time></trkpt><trkpt lat="43.9391493" lon="10.8202515"><ele>556.0</ele><time>2026-04-04T08:22:44.116Z</time></trkpt><trkpt lat="43.9392345" lon="10.820255"><ele>556.0</ele><time>2026-04-04T08:22:47.116Z</time></trkpt><trkpt lat="43.9392931" lon="10.8203054"><ele>556.0</ele><time>2026-04-04T08:22:48.115Z</time></trkpt><trkpt lat="43.9393537" lon="10.8203711"><ele>556.0</ele><time>2026-04-04T08:22:50.116Z</time></trkpt><trkpt lat="43.9394043" lon="10.8204262"><ele>556.0</ele><time>2026-04-04T08:22:52.117Z</time></trkpt><trkpt lat="43.9394733" lon="10.8204828"><ele>554.1666666666667</ele><time>2026-04-04T08:22:54.115Z</time></trkpt><trkpt lat="43.9395414" lon="10.8205303"><ele>552.3333333333334</ele><time>2026-04-04T08:22:55.116Z</time></trkpt><trkpt lat="43.9396014" lon="10.8205735"><ele>550.5</ele><time>2026-04-04T08:22:56.116Z</time></trkpt><trkpt lat="43.9396584" lon="10.8206189"><ele>548.6666666666666</ele><time>2026-04-04T08:22:57.115Z</time></trkpt><trkpt lat="43.9397421" lon="10.8206561"><ele>546.8333333333333</ele><time>2026-04-04T08:22:58.116Z</time></trkpt><trkpt lat="43.9398185" lon="10.8207144"><ele>545.0</ele><time>2026-04-04T08:22:59.116Z</time></trkpt><trkpt lat="43.9399004" lon="10.8207924"><ele>545.0</ele><time>2026-04-04T08:23:00.116Z</time></trkpt><trkpt lat="43.9399679" lon="10.820828"><ele>545.0</ele><time>2026-04-04T08:23:01.115Z</time></trkpt><trkpt lat="43.9400378" lon="10.8208667"><ele>545.0</ele><time>2026-04-04T08:23:02.117Z</time></trkpt><trkpt lat="43.9401116" lon="10.8209042"><ele>545.0</ele><time>2026-04-04T08:23:03.116Z</time></trkpt><trkpt lat="43.9401883" lon="10.8209419"><ele>545.0</ele><time>2026-04-04T08:23:04.116Z</time></trkpt><trkpt lat="43.9402569" lon="10.8209851"><ele>545.0</ele><time>2026-04-04T08:23:05.116Z</time></trkpt><trkpt lat="43.9403161" lon="10.8210306"><ele>540.8333333333333</ele><time>2026-04-04T08:23:06.115Z</time></trkpt><trkpt lat="43.9404391" lon="10.8210673"><ele>536.6666666666666</ele><time>2026-04-04T08:23:08.116Z</time></trkpt><trkpt lat="43.9405151" lon="10.8210949"><ele>532.5</ele><time>2026-04-04T08:23:09.116Z</time></trkpt><trkpt lat="43.9406132" lon="10.8210783"><ele>528.3333333333334</ele><time>2026-04-04T08:23:10.115Z</time></trkpt><trkpt lat="43.9406861" lon="10.8210761"><ele>524.1666666666667</ele><time>2026-04-04T08:23:11.116Z</time></trkpt><trkpt lat="43.9407528" lon="10.8210889"><ele>520.0</ele><time>2026-04-04T08:23:12.117Z</time></trkpt><trkpt lat="43.9407961" lon="10.8211718"><ele>520.0000000000001</ele><time>2026-04-04T08:23:13.116Z</time></trkpt><trkpt lat="43.9408587" lon="10.8212234"><ele>520.0</ele><time>2026-04-04T08:23:14.116Z</time></trkpt><trkpt lat="43.9409304" lon="10.8212804"><ele>520.0</ele><time>2026-04-04T08:23:15.115Z</time></trkpt><trkpt lat="43.9409874" lon="10.8213275"><ele>520.0</ele><time>2026-04-04T08:23:16.115Z</time></trkpt><trkpt lat="43.941055" lon="10.8213357"><ele>520.0</ele><time>2026-04-04T08:23:17.115Z</time></trkpt><trkpt lat="43.9411185" lon="10.8213474"><ele>520.0000000000001</ele><time>2026-04-04T08:23:18.115Z</time></trkpt><trkpt lat="43.9412029" lon="10.8213077"><ele>520.0</ele><time>2026-04-04T08:23:19.116Z</time></trkpt><trkpt lat="43.9413179" lon="10.8212486"><ele>520.2</ele><time>2026-04-04T08:23:21.116Z</time></trkpt><trkpt lat="43.941397" lon="10.8211145"><ele>520.4</ele><time>2026-04-04T08:23:23.116Z</time></trkpt><trkpt lat="43.9414365" lon="10.8210451"><ele>520.6</ele><time>2026-04-04T08:23:24.116Z</time></trkpt><trkpt lat="43.9414674" lon="10.8209639"><ele>520.8</ele><time>2026-04-04T08:23:25.116Z</time></trkpt><trkpt lat="43.9415067" lon="10.8208409"><ele>521.0</ele><time>2026-04-04T08:23:27.115Z</time></trkpt><trkpt lat="43.9414666" lon="10.8207"><ele>521.0</ele><time>2026-04-04T08:23:29.115Z</time></trkpt><trkpt lat="43.9415117" lon="10.8205787"><ele>521.0</ele><time>2026-04-04T08:23:31.115Z</time></trkpt><trkpt lat="43.9415546" lon="10.8204381"><ele>521.0</ele><time>2026-04-04T08:23:33.116Z</time></trkpt><trkpt lat="43.9415865" lon="10.8203437"><ele>521.0</ele><time>2026-04-04T08:23:34.115Z</time></trkpt><trkpt lat="43.9416353" lon="10.8202745"><ele>521.0</ele><time>2026-04-04T08:23:36.115Z</time></trkpt><trkpt lat="43.9416858" lon="10.8203308"><ele>521.0</ele><time>2026-04-04T08:23:37.117Z</time></trkpt><trkpt lat="43.9417569" lon="10.8203886"><ele>521.2</ele><time>2026-04-04T08:23:39.116Z</time></trkpt><trkpt lat="43.9418607" lon="10.8204779"><ele>521.4000000000001</ele><time>2026-04-04T08:23:41.116Z</time></trkpt><trkpt lat="43.9419199" lon="10.8205488"><ele>521.6</ele><time>2026-04-04T08:23:42.116Z</time></trkpt><trkpt lat="43.9419766" lon="10.820609"><ele>521.8000000000001</ele><time>2026-04-04T08:23:43.116Z</time></trkpt><trkpt lat="43.9420288" lon="10.820732"><ele>522.0</ele><time>2026-04-04T08:23:44.116Z</time></trkpt><trkpt lat="43.9420881" lon="10.8208006"><ele>522.0</ele><time>2026-04-04T08:23:45.115Z</time></trkpt><trkpt lat="43.9421634" lon="10.8209086"><ele>522.0</ele><time>2026-04-04T08:23:46.116Z</time></trkpt><trkpt lat="43.9422216" lon="10.8209705"><ele>522.0</ele><time>2026-04-04T08:23:47.116Z</time></trkpt><trkpt lat="43.9423117" lon="10.8211034"><ele>522.0</ele><time>2026-04-04T08:23:49.116Z</time></trkpt><trkpt lat="43.9423581" lon="10.8211633"><ele>522.0</ele><time>2026-04-04T08:23:50.115Z</time></trkpt><trkpt lat="43.9424038" lon="10.8212381"><ele>522.0</ele><time>2026-04-04T08:23:51.115Z</time></trkpt><trkpt lat="43.942457" lon="10.8213041"><ele>518.1666666666666</ele><time>2026-04-04T08:23:52.116Z</time></trkpt><trkpt lat="43.9425002" lon="10.8214115"><ele>514.3333333333334</ele><time>2026-04-04T08:23:54.116Z</time></trkpt><trkpt lat="43.9425596" lon="10.8214706"><ele>510.5</ele><time>2026-04-04T08:23:56.116Z</time></trkpt><trkpt lat="43.942638" lon="10.8215044"><ele>506.6666666666667</ele><time>2026-04-04T08:23:58.116Z</time></trkpt><trkpt lat="43.9427337" lon="10.8215281"><ele>502.83333333333337</ele><time>2026-04-04T08:24:00.116Z</time></trkpt><trkpt lat="43.9428288" lon="10.8215284"><ele>499.0</ele><time>2026-04-04T08:24:02.115Z</time></trkpt><trkpt lat="43.9429277" lon="10.8215294"><ele>499.00000000000006</ele><time>2026-04-04T08:24:04.116Z</time></trkpt><trkpt lat="43.9430275" lon="10.8215341"><ele>499.0</ele><time>2026-04-04T08:24:06.116Z</time></trkpt><trkpt lat="43.9431" lon="10.821538"><ele>499.0</ele><time>2026-04-04T08:24:08.116Z</time></trkpt><trkpt lat="43.9431733" lon="10.8215623"><ele>499.0</ele><time>2026-04-04T08:24:10.116Z</time></trkpt><trkpt lat="43.9432369" lon="10.8215914"><ele>499.00000000000006</ele><time>2026-04-04T08:24:12.116Z</time></trkpt><trkpt lat="43.9433506" lon="10.8216452"><ele>499.0</ele><time>2026-04-04T08:24:23.116Z</time></trkpt><trkpt lat="43.943419" lon="10.8216388"><ele>498.4285714285715</ele><time>2026-04-04T08:24:55.116Z</time></trkpt><trkpt lat="43.9434853" lon="10.8216552"><ele>497.8571428571429</ele><time>2026-04-04T08:25:02.115Z</time></trkpt><trkpt lat="43.9434977" lon="10.8217426"><ele>497.2857142857143</ele><time>2026-04-04T08:25:08.116Z</time></trkpt><trkpt lat="43.9435306" lon="10.821826"><ele>496.7142857142857</ele><time>2026-04-04T08:25:15.116Z</time></trkpt><trkpt lat="43.9435341" lon="10.8219281"><ele>496.1428571428571</ele><time>2026-04-04T08:27:43.116Z</time></trkpt><trkpt lat="43.9435285" lon="10.8220211"><ele>495.5714285714285</ele><time>2026-04-04T08:27:44.115Z</time></trkpt><trkpt lat="43.943558" lon="10.8221185"><ele>494.99999999999994</ele><time>2026-04-04T08:27:47.115Z</time></trkpt><trkpt lat="43.9436145" lon="10.8221755"><ele>491.5</ele><time>2026-04-04T08:27:49.116Z</time></trkpt><trkpt lat="43.9436995" lon="10.822229"><ele>488.0</ele><time>2026-04-04T08:27:51.116Z</time></trkpt><trkpt lat="43.9437692" lon="10.8222591"><ele>484.5</ele><time>2026-04-04T08:27:52.115Z</time></trkpt><trkpt lat="43.9438399" lon="10.8223057"><ele>481.0</ele><time>2026-04-04T08:27:54.115Z</time></trkpt><trkpt lat="43.9439259" lon="10.8223696"><ele>477.5</ele><time>2026-04-04T08:27:56.116Z</time></trkpt><trkpt lat="43.9439964" lon="10.8224122"><ele>474.0</ele><time>2026-04-04T08:27:58.116Z</time></trkpt><trkpt lat="43.944071" lon="10.822446"><ele>474.0</ele><time>2026-04-04T08:28:00.116Z</time></trkpt><trkpt lat="43.9441409" lon="10.8225072"><ele>474.0</ele><time>2026-04-04T08:28:02.117Z</time></trkpt><trkpt lat="43.9442225" lon="10.8225702"><ele>474.0</ele><time>2026-04-04T08:28:04.115Z</time></trkpt><trkpt lat="43.9443488" lon="10.8225994"><ele>474.0</ele><time>2026-04-04T08:28:06.115Z</time></trkpt><trkpt lat="43.9444269" lon="10.822664"><ele>474.0</ele><time>2026-04-04T08:28:08.116Z</time></trkpt><trkpt lat="43.944541" lon="10.8227345"><ele>467.0</ele><time>2026-04-04T08:28:10.116Z</time></trkpt><trkpt lat="43.9446375" lon="10.8228112"><ele>460.0</ele><time>2026-04-04T08:28:12.116Z</time></trkpt><trkpt lat="43.9447027" lon="10.8229282"><ele>453.0</ele><time>2026-04-04T08:28:14.116Z</time></trkpt><trkpt lat="43.9448062" lon="10.8229729"><ele>446.0</ele><time>2026-04-04T08:28:16.116Z</time></trkpt><trkpt lat="43.9449064" lon="10.8230153"><ele>439.0</ele><time>2026-04-04T08:28:18.116Z</time></trkpt><trkpt lat="43.9448371" lon="10.8230777"><ele>439.00000000000006</ele><time>2026-04-04T08:28:20.117Z</time></trkpt><trkpt lat="43.9447693" lon="10.8230812"><ele>439.0</ele><time>2026-04-04T08:28:21.116Z</time></trkpt><trkpt lat="43.9446645" lon="10.8231191"><ele>439.0</ele><time>2026-04-04T08:28:23.116Z</time></trkpt><trkpt lat="43.9445838" lon="10.8231192"><ele>439.0</ele><time>2026-04-04T08:28:24.116Z</time></trkpt><trkpt lat="43.9445097" lon="10.8231381"><ele>439.00000000000006</ele><time>2026-04-04T08:28:25.116Z</time></trkpt><trkpt lat="43.9444311" lon="10.8231472"><ele>439.0</ele><time>2026-04-04T08:28:26.115Z</time></trkpt><trkpt lat="43.9443726" lon="10.8231845"><ele>439.0</ele><time>2026-04-04T08:28:27.116Z</time></trkpt><trkpt lat="43.9443107" lon="10.8232068"><ele>439.0</ele><time>2026-04-04T08:28:28.115Z</time></trkpt><trkpt lat="43.9442066" lon="10.8232879"><ele>439.0</ele><time>2026-04-04T08:28:30.116Z</time></trkpt><trkpt lat="43.9440826" lon="10.8233699"><ele>439.0</ele><time>2026-04-04T08:28:32.116Z</time></trkpt><trkpt lat="43.9440156" lon="10.8234234"><ele>439.0</ele><time>2026-04-04T08:28:33.116Z</time></trkpt><trkpt lat="43.9439347" lon="10.8235004"><ele>435.2</ele><time>2026-04-04T08:28:34.116Z</time></trkpt><trkpt lat="43.9438739" lon="10.8235563"><ele>431.4</ele><time>2026-04-04T08:28:35.117Z</time></trkpt><trkpt lat="43.9437663" lon="10.8236601"><ele>427.6</ele><time>2026-04-04T08:28:37.115Z</time></trkpt><trkpt lat="43.9437085" lon="10.8237185"><ele>423.8</ele><time>2026-04-04T08:28:38.115Z</time></trkpt><trkpt lat="43.9436311" lon="10.8238286"><ele>420.0</ele><time>2026-04-04T08:28:40.116Z</time></trkpt><trkpt lat="43.943578" lon="10.8239943"><ele>420.0</ele><time>2026-04-04T08:28:42.117Z</time></trkpt><trkpt lat="43.9436149" lon="10.8241042"><ele>420.0</ele><time>2026-04-04T08:28:43.116Z</time></trkpt><trkpt lat="43.9435718" lon="10.8242288"><ele>420.0</ele><time>2026-04-04T08:28:45.116Z</time></trkpt><trkpt lat="43.94352" lon="10.8243271"><ele>420.0</ele><time>2026-04-04T08:28:47.116Z</time></trkpt><trkpt lat="43.9435385" lon="10.8244476"><ele>420.0</ele><time>2026-04-04T08:28:49.116Z</time></trkpt><trkpt lat="43.9436432" lon="10.8245501"><ele>420.0</ele><time>2026-04-04T08:28:51.115Z</time></trkpt><trkpt lat="43.9437154" lon="10.8245503"><ele>420.0</ele><time>2026-04-04T08:28:52.116Z</time></trkpt><trkpt lat="43.9437914" lon="10.8245461"><ele>420.0</ele><time>2026-04-04T08:28:53.116Z</time></trkpt><trkpt lat="43.9438526" lon="10.8244772"><ele>420.0</ele><time>2026-04-04T08:28:55.115Z</time></trkpt><trkpt lat="43.9439376" lon="10.8243681"><ele>420.0</ele><time>2026-04-04T08:28:57.116Z</time></trkpt><trkpt lat="43.9439844" lon="10.824274"><ele>420.0</ele><time>2026-04-04T08:28:58.115Z</time></trkpt><trkpt lat="43.9440535" lon="10.8241971"><ele>420.0</ele><time>2026-04-04T08:28:59.116Z</time></trkpt><trkpt lat="43.9440893" lon="10.8241046"><ele>420.0</ele><time>2026-04-04T08:29:00.116Z</time></trkpt><trkpt lat="43.9441659" lon="10.8241592"><ele>420.0</ele><time>2026-04-04T08:29:01.115Z</time></trkpt><trkpt lat="43.944264" lon="10.82414"><ele>420.0</ele><time>2026-04-04T08:29:03.115Z</time></trkpt><trkpt lat="43.9443289" lon="10.8241705"><ele>420.0</ele><time>2026-04-04T08:29:04.116Z</time></trkpt><trkpt lat="43.944386" lon="10.8242757"><ele>420.0</ele><time>2026-04-04T08:29:06.116Z</time></trkpt><trkpt lat="43.944426" lon="10.8244145"><ele>414.6</ele><time>2026-04-04T08:29:08.116Z</time></trkpt><trkpt lat="43.9445533" lon="10.8244574"><ele>409.2</ele><time>2026-04-04T08:29:10.117Z</time></trkpt><trkpt lat="43.9446546" lon="10.8244728"><ele>403.79999999999995</ele><time>2026-04-04T08:29:11.116Z</time></trkpt><trkpt lat="43.944744" lon="10.8244929"><ele>398.4</ele><time>2026-04-04T08:29:12.116Z</time></trkpt><trkpt lat="43.944833" lon="10.8245358"><ele>393.0</ele><time>2026-04-04T08:29:13.116Z</time></trkpt><trkpt lat="43.9449162" lon="10.8245932"><ele>393.0</ele><time>2026-04-04T08:29:14.116Z</time></trkpt><trkpt lat="43.9450025" lon="10.8246494"><ele>393.0</ele><time>2026-04-04T08:29:15.116Z</time></trkpt><trkpt lat="43.9450879" lon="10.8247005"><ele>393.0</ele><time>2026-04-04T08:29:16.117Z</time></trkpt><trkpt lat="43.9451607" lon="10.8247559"><ele>393.0</ele><time>2026-04-04T08:29:17.116Z</time></trkpt><trkpt lat="43.9452301" lon="10.8248271"><ele>393.0</ele><time>2026-04-04T08:29:18.116Z</time></trkpt><trkpt lat="43.9452907" lon="10.8249198"><ele>393.0</ele><time>2026-04-04T08:29:19.115Z</time></trkpt><trkpt lat="43.9453501" lon="10.8250195"><ele>391.8333333333333</ele><time>2026-04-04T08:29:20.116Z</time></trkpt><trkpt lat="43.945406" lon="10.8251208"><ele>390.66666666666663</ele><time>2026-04-04T08:29:21.116Z</time></trkpt><trkpt lat="43.9454481" lon="10.8252329"><ele>389.5</ele><time>2026-04-04T08:29:22.115Z</time></trkpt><trkpt lat="43.9454694" lon="10.8253458"><ele>388.3333333333333</ele><time>2026-04-04T08:29:23.115Z</time></trkpt><trkpt lat="43.9454888" lon="10.8254485"><ele>387.16666666666663</ele><time>2026-04-04T08:29:24.116Z</time></trkpt><trkpt lat="43.9455278" lon="10.8255295"><ele>386.0</ele><time>2026-04-04T08:29:25.116Z</time></trkpt><trkpt lat="43.9456338" lon="10.8255758"><ele>384.6</ele><time>2026-04-04T08:29:27.116Z</time></trkpt><trkpt lat="43.9457324" lon="10.8254362"><ele>383.20000000000005</ele><time>2026-04-04T08:29:29.115Z</time></trkpt><trkpt lat="43.9457919" lon="10.8253382"><ele>381.79999999999995</ele><time>2026-04-04T08:29:30.116Z</time></trkpt><trkpt lat="43.9458704" lon="10.8252505"><ele>380.4</ele><time>2026-04-04T08:29:31.116Z</time></trkpt><trkpt lat="43.945957" lon="10.8251848"><ele>379.0</ele><time>2026-04-04T08:29:32.116Z</time></trkpt><trkpt lat="43.9460387" lon="10.8251367"><ele>379.0</ele><time>2026-04-04T08:29:33.117Z</time></trkpt><trkpt lat="43.9461119" lon="10.8251115"><ele>379.0</ele><time>2026-04-04T08:29:34.115Z</time></trkpt><trkpt lat="43.946181" lon="10.8251067"><ele>379.0</ele><time>2026-04-04T08:29:35.116Z</time></trkpt><trkpt lat="43.946274" lon="10.8251718"><ele>379.0</ele><time>2026-04-04T08:29:37.116Z</time></trkpt><trkpt lat="43.9462842" lon="10.8253032"><ele>379.0</ele><time>2026-04-04T08:29:39.116Z</time></trkpt><trkpt lat="43.9462577" lon="10.8253883"><ele>379.0</ele><time>2026-04-04T08:29:40.116Z</time></trkpt><trkpt lat="43.946215" lon="10.8254838"><ele>376.4</ele><time>2026-04-04T08:29:41.116Z</time></trkpt><trkpt lat="43.9461586" lon="10.8255935"><ele>373.79999999999995</ele><time>2026-04-04T08:29:42.116Z</time></trkpt><trkpt lat="43.9460958" lon="10.8257113"><ele>371.20000000000005</ele><time>2026-04-04T08:29:43.116Z</time></trkpt><trkpt lat="43.9460242" lon="10.8258333"><ele>368.6</ele><time>2026-04-04T08:29:44.116Z</time></trkpt><trkpt lat="43.9459488" lon="10.8259553"><ele>366.0</ele><time>2026-04-04T08:29:45.117Z</time></trkpt><trkpt lat="43.9458788" lon="10.8260751"><ele>366.20000000000005</ele><time>2026-04-04T08:29:46.117Z</time></trkpt><trkpt lat="43.9458242" lon="10.8261952"><ele>366.40000000000003</ele><time>2026-04-04T08:29:47.116Z</time></trkpt><trkpt lat="43.9457914" lon="10.8263307"><ele>366.6</ele><time>2026-04-04T08:29:48.115Z</time></trkpt><trkpt lat="43.9457776" lon="10.8264813"><ele>366.8</ele><time>2026-04-04T08:29:49.116Z</time></trkpt><trkpt lat="43.9457726" lon="10.8266256"><ele>367.0</ele><time>2026-04-04T08:29:50.116Z</time></trkpt><trkpt lat="43.9457644" lon="10.8267644"><ele>365.8</ele><time>2026-04-04T08:29:51.116Z</time></trkpt><trkpt lat="43.9457463" lon="10.8268937"><ele>364.6</ele><time>2026-04-04T08:29:52.116Z</time></trkpt><trkpt lat="43.9457104" lon="10.8269951"><ele>363.40000000000003</ele><time>2026-04-04T08:29:53.116Z</time></trkpt><trkpt lat="43.9456821" lon="10.8270928"><ele>362.20000000000005</ele><time>2026-04-04T08:29:54.115Z</time></trkpt><trkpt lat="43.9456085" lon="10.8271629"><ele>361.0</ele><time>2026-04-04T08:29:55.116Z</time></trkpt><trkpt lat="43.9454669" lon="10.8271473"><ele>361.0</ele><time>2026-04-04T08:29:56.115Z</time></trkpt><trkpt lat="43.9453672" lon="10.8271711"><ele>361.0</ele><time>2026-04-04T08:29:57.115Z</time></trkpt><trkpt lat="43.9452788" lon="10.8271952"><ele>361.0</ele><time>2026-04-04T08:29:58.115Z</time></trkpt><trkpt lat="43.9451925" lon="10.8272341"><ele>361.0</ele><time>2026-04-04T08:29:59.115Z</time></trkpt><trkpt lat="43.9451552" lon="10.8273299"><ele>361.0</ele><time>2026-04-04T08:30:00.115Z</time></trkpt><trkpt lat="43.9451152" lon="10.8274485"><ele>361.0</ele><time>2026-04-04T08:30:01.116Z</time></trkpt><trkpt lat="43.9450844" lon="10.8275874"><ele>361.0</ele><time>2026-04-04T08:30:02.115Z</time></trkpt><trkpt lat="43.9450636" lon="10.8277451"><ele>361.0</ele><time>2026-04-04T08:30:03.117Z</time></trkpt><trkpt lat="43.9450568" lon="10.8279167"><ele>361.0</ele><time>2026-04-04T08:30:04.116Z</time></trkpt><trkpt lat="43.9450559" lon="10.8280971"><ele>357.75</ele><time>2026-04-04T08:30:05.115Z</time></trkpt><trkpt lat="43.9450528" lon="10.8282712"><ele>354.5</ele><time>2026-04-04T08:30:06.116Z</time></trkpt><trkpt lat="43.9450593" lon="10.8284338"><ele>351.25</ele><time>2026-04-04T08:30:07.115Z</time></trkpt><trkpt lat="43.9450619" lon="10.8285913"><ele>348.0</ele><time>2026-04-04T08:30:08.116Z</time></trkpt><trkpt lat="43.9450648" lon="10.8287354"><ele>346.0</ele><time>2026-04-04T08:30:09.116Z</time></trkpt><trkpt lat="43.9450701" lon="10.8288708"><ele>344.0</ele><time>2026-04-04T08:30:10.116Z</time></trkpt><trkpt lat="43.9450792" lon="10.828997"><ele>342.0</ele><time>2026-04-04T08:30:11.116Z</time></trkpt><trkpt lat="43.9450828" lon="10.8291172"><ele>340.0</ele><time>2026-04-04T08:30:12.116Z</time></trkpt><trkpt lat="43.9450868" lon="10.8292202"><ele>338.0</ele><time>2026-04-04T08:30:13.116Z</time></trkpt><trkpt lat="43.9450897" lon="10.8293644"><ele>338.0</ele><time>2026-04-04T08:30:15.115Z</time></trkpt><trkpt lat="43.9451471" lon="10.8294021"><ele>338.0</ele><time>2026-04-04T08:30:17.115Z</time></trkpt><trkpt lat="43.9451845" lon="10.829317"><ele>338.0</ele><time>2026-04-04T08:30:19.116Z</time></trkpt><trkpt lat="43.9452313" lon="10.8291516"><ele>338.0</ele><time>2026-04-04T08:30:21.116Z</time></trkpt><trkpt lat="43.9452736" lon="10.8290791"><ele>338.0</ele><time>2026-04-04T08:30:22.116Z</time></trkpt><trkpt lat="43.945349" lon="10.8289972"><ele>338.0</ele><time>2026-04-04T08:30:24.114Z</time></trkpt><trkpt lat="43.9454004" lon="10.8289137"><ele>338.0</ele><time>2026-04-04T08:30:26.115Z</time></trkpt><trkpt lat="43.9453992" lon="10.8287606"><ele>338.0</ele><time>2026-04-04T08:30:28.116Z</time></trkpt><trkpt lat="43.9453767" lon="10.8286718"><ele>338.0</ele><time>2026-04-04T08:30:29.115Z</time></trkpt><trkpt lat="43.9453348" lon="10.8285864"><ele>338.0</ele><time>2026-04-04T08:30:30.114Z</time></trkpt><trkpt lat="43.9452956" lon="10.8284983"><ele>338.0</ele><time>2026-04-04T08:30:31.115Z</time></trkpt><trkpt lat="43.9452674" lon="10.8284128"><ele>338.0</ele><time>2026-04-04T08:30:32.115Z</time></trkpt><trkpt lat="43.9452813" lon="10.8282597"><ele>340.0</ele><time>2026-04-04T08:30:34.115Z</time></trkpt><trkpt lat="43.9453824" lon="10.8282429"><ele>342.0</ele><time>2026-04-04T08:30:36.115Z</time></trkpt><trkpt lat="43.9454719" lon="10.8282796"><ele>344.0</ele><time>2026-04-04T08:30:37.114Z</time></trkpt><trkpt lat="43.9455665" lon="10.8283155"><ele>346.0</ele><time>2026-04-04T08:30:38.114Z</time></trkpt><trkpt lat="43.945662" lon="10.8283713"><ele>348.0</ele><time>2026-04-04T08:30:39.115Z</time></trkpt><trkpt lat="43.9457403" lon="10.828445"><ele>346.0</ele><time>2026-04-04T08:30:40.115Z</time></trkpt><trkpt lat="43.945799" lon="10.8285407"><ele>344.0</ele><time>2026-04-04T08:30:41.116Z</time></trkpt><trkpt lat="43.9458542" lon="10.8286344"><ele>342.0</ele><time>2026-04-04T08:30:42.115Z</time></trkpt><trkpt lat="43.9459244" lon="10.828693"><ele>340.0</ele><time>2026-04-04T08:30:43.114Z</time></trkpt><trkpt lat="43.9460117" lon="10.8287353"><ele>338.0</ele><time>2026-04-04T08:30:44.114Z</time></trkpt><trkpt lat="43.9461101" lon="10.8287737"><ele>335.59999999999997</ele><time>2026-04-04T08:30:45.115Z</time></trkpt><trkpt lat="43.9462116" lon="10.8288166"><ele>333.2</ele><time>2026-04-04T08:30:46.115Z</time></trkpt><trkpt lat="43.9463166" lon="10.8288571"><ele>330.8</ele><time>2026-04-04T08:30:47.115Z</time></trkpt><trkpt lat="43.9464262" lon="10.8289151"><ele>328.4</ele><time>2026-04-04T08:30:48.115Z</time></trkpt><trkpt lat="43.9465321" lon="10.8289826"><ele>326.0</ele><time>2026-04-04T08:30:49.115Z</time></trkpt><trkpt lat="43.9466362" lon="10.8290371"><ele>325.6</ele><time>2026-04-04T08:30:50.114Z</time></trkpt><trkpt lat="43.9467429" lon="10.8290708"><ele>325.20000000000005</ele><time>2026-04-04T08:30:51.115Z</time></trkpt><trkpt lat="43.9468514" lon="10.8291011"><ele>324.79999999999995</ele><time>2026-04-04T08:30:52.114Z</time></trkpt><trkpt lat="43.9469596" lon="10.829117"><ele>324.4</ele><time>2026-04-04T08:30:53.114Z</time></trkpt><trkpt lat="43.9470632" lon="10.829129"><ele>324.0</ele><time>2026-04-04T08:30:54.114Z</time></trkpt><trkpt lat="43.9471667" lon="10.8291526"><ele>324.0</ele><time>2026-04-04T08:30:55.115Z</time></trkpt><trkpt lat="43.9472695" lon="10.8292061"><ele>324.0</ele><time>2026-04-04T08:30:56.115Z</time></trkpt><trkpt lat="43.947367" lon="10.8292652"><ele>324.0</ele><time>2026-04-04T08:30:57.115Z</time></trkpt><trkpt lat="43.9474483" lon="10.8293143"><ele>324.0</ele><time>2026-04-04T08:30:58.115Z</time></trkpt><trkpt lat="43.9475156" lon="10.8293592"><ele>324.0</ele><time>2026-04-04T08:30:59.115Z</time></trkpt><trkpt lat="43.947609" lon="10.8293741"><ele>324.0</ele><time>2026-04-04T08:31:01.115Z</time></trkpt><trkpt lat="43.9476183" lon="10.8292853"><ele>324.0</ele><time>2026-04-04T08:31:03.115Z</time></trkpt><trkpt lat="43.9475504" lon="10.8291201"><ele>324.0</ele><time>2026-04-04T08:31:05.115Z</time></trkpt><trkpt lat="43.9475294" lon="10.8289878"><ele>324.0</ele><time>2026-04-04T08:31:06.115Z</time></trkpt><trkpt lat="43.9475191" lon="10.8288385"><ele>324.0</ele><time>2026-04-04T08:31:07.114Z</time></trkpt><trkpt lat="43.9475126" lon="10.8286635"><ele>324.0</ele><time>2026-04-04T08:31:08.115Z</time></trkpt><trkpt lat="43.9475034" lon="10.8284714"><ele>324.0</ele><time>2026-04-04T08:31:09.115Z</time></trkpt><trkpt lat="43.9475048" lon="10.8282826"><ele>324.0</ele><time>2026-04-04T08:31:10.115Z</time></trkpt><trkpt lat="43.9474985" lon="10.8281007"><ele>324.0</ele><time>2026-04-04T08:31:11.114Z</time></trkpt><trkpt lat="43.9475128" lon="10.8279565"><ele>324.0</ele><time>2026-04-04T08:31:12.115Z</time></trkpt><trkpt lat="43.9475264" lon="10.8278201"><ele>324.0</ele><time>2026-04-04T08:31:13.115Z</time></trkpt><trkpt lat="43.9475534" lon="10.8277243"><ele>324.0</ele><time>2026-04-04T08:31:14.114Z</time></trkpt><trkpt lat="43.9475998" lon="10.8276626"><ele>324.0</ele><time>2026-04-04T08:31:15.115Z</time></trkpt><trkpt lat="43.947652" lon="10.8276058"><ele>324.0</ele><time>2026-04-04T08:31:16.116Z</time></trkpt><trkpt lat="43.9477297" lon="10.8277031"><ele>324.0</ele><time>2026-04-04T08:31:17.115Z</time></trkpt><trkpt lat="43.9478152" lon="10.8277781"><ele>322.0</ele><time>2026-04-04T08:31:18.115Z</time></trkpt><trkpt lat="43.9479036" lon="10.8278829"><ele>320.0</ele><time>2026-04-04T08:31:19.114Z</time></trkpt><trkpt lat="43.9479949" lon="10.8279956"><ele>318.0</ele><time>2026-04-04T08:31:20.115Z</time></trkpt><trkpt lat="43.9480938" lon="10.8281046"><ele>316.0</ele><time>2026-04-04T08:31:21.115Z</time></trkpt><trkpt lat="43.9482035" lon="10.8281976"><ele>316.0</ele><time>2026-04-04T08:31:22.115Z</time></trkpt><trkpt lat="43.9483169" lon="10.8282635"><ele>316.0</ele><time>2026-04-04T08:31:23.115Z</time></trkpt><trkpt lat="43.9484462" lon="10.8283188"><ele>316.0</ele><time>2026-04-04T08:31:24.115Z</time></trkpt><trkpt lat="43.9485821" lon="10.8283522"><ele>316.0</ele><time>2026-04-04T08:31:25.115Z</time></trkpt><trkpt lat="43.9487195" lon="10.8283738"><ele>314.0</ele><time>2026-04-04T08:31:26.114Z</time></trkpt><trkpt lat="43.9488527" lon="10.828394"><ele>312.0</ele><time>2026-04-04T08:31:27.115Z</time></trkpt><trkpt lat="43.9489743" lon="10.8284142"><ele>310.0</ele><time>2026-04-04T08:31:28.115Z</time></trkpt><trkpt lat="43.9490835" lon="10.8284423"><ele>308.0</ele><time>2026-04-04T08:31:29.114Z</time></trkpt><trkpt lat="43.9491804" lon="10.8284819"><ele>305.0</ele><time>2026-04-04T08:31:30.115Z</time></trkpt><trkpt lat="43.9492701" lon="10.8285317"><ele>302.0</ele><time>2026-04-04T08:31:31.115Z</time></trkpt><trkpt lat="43.9493379" lon="10.8286317"><ele>299.0</ele><time>2026-04-04T08:31:32.114Z</time></trkpt><trkpt lat="43.9493989" lon="10.8287456"><ele>296.0</ele><time>2026-04-04T08:31:33.115Z</time></trkpt><trkpt lat="43.9494562" lon="10.8288706"><ele>293.0</ele><time>2026-04-04T08:31:34.115Z</time></trkpt><trkpt lat="43.9495153" lon="10.8289687"><ele>293.0</ele><time>2026-04-04T08:31:35.115Z</time></trkpt><trkpt lat="43.9495828" lon="10.8290355"><ele>293.0</ele><time>2026-04-04T08:31:36.114Z</time></trkpt><trkpt lat="43.949657" lon="10.8290653"><ele>293.0</ele><time>2026-04-04T08:31:37.114Z</time></trkpt><trkpt lat="43.9497463" lon="10.8290601"><ele>293.0</ele><time>2026-04-04T08:31:38.115Z</time></trkpt><trkpt lat="43.9498452" lon="10.829021"><ele>293.0</ele><time>2026-04-04T08:31:39.114Z</time></trkpt><trkpt lat="43.949927" lon="10.8289782"><ele>293.0</ele><time>2026-04-04T08:31:40.114Z</time></trkpt><trkpt lat="43.9499899" lon="10.8289174"><ele>293.0</ele><time>2026-04-04T08:31:41.115Z</time></trkpt><trkpt lat="43.950057" lon="10.8288623"><ele>293.0</ele><time>2026-04-04T08:31:42.115Z</time></trkpt><trkpt lat="43.9500305" lon="10.8287476"><ele>293.0</ele><time>2026-04-04T08:31:43.115Z</time></trkpt><trkpt lat="43.9500308" lon="10.8286435"><ele>293.0</ele><time>2026-04-04T08:31:44.114Z</time></trkpt><trkpt lat="43.9500884" lon="10.8285118"><ele>293.0</ele><time>2026-04-04T08:31:46.115Z</time></trkpt><trkpt lat="43.9501867" lon="10.8285763"><ele>291.33333333333337</ele><time>2026-04-04T08:31:48.115Z</time></trkpt><trkpt lat="43.9502342" lon="10.8286686"><ele>289.6666666666667</ele><time>2026-04-04T08:31:49.115Z</time></trkpt><trkpt lat="43.9502869" lon="10.8287832"><ele>288.0</ele><time>2026-04-04T08:31:50.115Z</time></trkpt><trkpt lat="43.9503442" lon="10.8288903"><ele>286.3333333333333</ele><time>2026-04-04T08:31:51.114Z</time></trkpt><trkpt lat="43.9503991" lon="10.828967"><ele>284.66666666666663</ele><time>2026-04-04T08:31:52.114Z</time></trkpt><trkpt lat="43.9504625" lon="10.829022"><ele>283.0</ele><time>2026-04-04T08:31:53.115Z</time></trkpt><trkpt lat="43.9505378" lon="10.8290407"><ele>283.0</ele><time>2026-04-04T08:31:54.116Z</time></trkpt><trkpt lat="43.9506254" lon="10.8290221"><ele>283.0</ele><time>2026-04-04T08:31:55.115Z</time></trkpt><trkpt lat="43.9507232" lon="10.8289848"><ele>283.0</ele><time>2026-04-04T08:31:56.115Z</time></trkpt><trkpt lat="43.9508224" lon="10.8289342"><ele>283.0</ele><time>2026-04-04T08:31:57.114Z</time></trkpt><trkpt lat="43.9509154" lon="10.8288742"><ele>283.0</ele><time>2026-04-04T08:31:58.115Z</time></trkpt><trkpt lat="43.9510047" lon="10.8287911"><ele>282.0</ele><time>2026-04-04T08:31:59.115Z</time></trkpt><trkpt lat="43.9510844" lon="10.8287078"><ele>281.0</ele><time>2026-04-04T08:32:00.115Z</time></trkpt><trkpt lat="43.9511557" lon="10.828632"><ele>280.0</ele><time>2026-04-04T08:32:01.115Z</time></trkpt><trkpt lat="43.9512145" lon="10.8285376"><ele>279.0</ele><time>2026-04-04T08:32:02.114Z</time></trkpt><trkpt lat="43.9512554" lon="10.8284289"><ele>278.0</ele><time>2026-04-04T08:32:03.114Z</time></trkpt><trkpt lat="43.9513001" lon="10.8283254"><ele>278.0</ele><time>2026-04-04T08:32:04.115Z</time></trkpt><trkpt lat="43.9513585" lon="10.82823"><ele>278.0</ele><time>2026-04-04T08:32:05.115Z</time></trkpt><trkpt lat="43.9514343" lon="10.8281709"><ele>278.0</ele><time>2026-04-04T08:32:06.115Z</time></trkpt><trkpt lat="43.9515081" lon="10.8281542"><ele>278.0</ele><time>2026-04-04T08:32:07.114Z</time></trkpt><trkpt lat="43.9515724" lon="10.828158"><ele>278.0</ele><time>2026-04-04T08:32:08.114Z</time></trkpt><trkpt lat="43.9516238" lon="10.8282372"><ele>278.0</ele><time>2026-04-04T08:32:10.115Z</time></trkpt><trkpt lat="43.9515749" lon="10.8283863"><ele>275.4</ele><time>2026-04-04T08:32:12.116Z</time></trkpt><trkpt lat="43.9515216" lon="10.8284848"><ele>272.8</ele><time>2026-04-04T08:32:13.114Z</time></trkpt><trkpt lat="43.9514665" lon="10.8285767"><ele>270.2</ele><time>2026-04-04T08:32:14.115Z</time></trkpt><trkpt lat="43.951425" lon="10.8287102"><ele>267.6</ele><time>2026-04-04T08:32:16.115Z</time></trkpt><trkpt lat="43.9514901" lon="10.8287257"><ele>265.0</ele><time>2026-04-04T08:32:19.114Z</time></trkpt><trkpt lat="43.9515608" lon="10.8286033"><ele>265.0</ele><time>2026-04-04T08:32:21.115Z</time></trkpt><trkpt lat="43.9516117" lon="10.8285298"><ele>265.0</ele><time>2026-04-04T08:32:22.114Z</time></trkpt><trkpt lat="43.9516837" lon="10.8284637"><ele>265.0</ele><time>2026-04-04T08:32:23.115Z</time></trkpt><trkpt lat="43.9517738" lon="10.8284179"><ele>265.0</ele><time>2026-04-04T08:32:24.115Z</time></trkpt><trkpt lat="43.9518803" lon="10.828389"><ele>265.0</ele><time>2026-04-04T08:32:25.114Z</time></trkpt><trkpt lat="43.9519904" lon="10.8283738"><ele>267.0</ele><time>2026-04-04T08:32:26.115Z</time></trkpt><trkpt lat="43.9521125" lon="10.828366"><ele>269.0</ele><time>2026-04-04T08:32:27.115Z</time></trkpt><trkpt lat="43.9522338" lon="10.8283557"><ele>271.0</ele><time>2026-04-04T08:32:28.114Z</time></trkpt><trkpt lat="43.952352" lon="10.828346"><ele>273.0</ele><time>2026-04-04T08:32:29.115Z</time></trkpt><trkpt lat="43.9524622" lon="10.8283225"><ele>273.5</ele><time>2026-04-04T08:32:30.114Z</time></trkpt><trkpt lat="43.9525723" lon="10.8282741"><ele>274.0</ele><time>2026-04-04T08:32:31.114Z</time></trkpt><trkpt lat="43.9526784" lon="10.8282027"><ele>274.5</ele><time>2026-04-04T08:32:32.115Z</time></trkpt><trkpt lat="43.9527798" lon="10.8281185"><ele>275.0</ele><time>2026-04-04T08:32:33.115Z</time></trkpt><trkpt lat="43.9528799" lon="10.8280353"><ele>275.0</ele><time>2026-04-04T08:32:34.114Z</time></trkpt><trkpt lat="43.9529796" lon="10.8279702"><ele>275.0</ele><time>2026-04-04T08:32:35.115Z</time></trkpt><trkpt lat="43.9530821" lon="10.8279321"><ele>275.0</ele><time>2026-04-04T08:32:36.114Z</time></trkpt><trkpt lat="43.953191" lon="10.8279188"><ele>275.0</ele><time>2026-04-04T08:32:37.115Z</time></trkpt><trkpt lat="43.9533013" lon="10.8279229"><ele>275.0</ele><time>2026-04-04T08:32:38.114Z</time></trkpt><trkpt lat="43.9534049" lon="10.8279463"><ele>275.8</ele><time>2026-04-04T08:32:39.115Z</time></trkpt><trkpt lat="43.9534972" lon="10.8280002"><ele>276.6</ele><time>2026-04-04T08:32:40.115Z</time></trkpt><trkpt lat="43.9535599" lon="10.8280883"><ele>277.4</ele><time>2026-04-04T08:32:41.115Z</time></trkpt><trkpt lat="43.953606" lon="10.8282184"><ele>278.2</ele><time>2026-04-04T08:32:42.115Z</time></trkpt><trkpt lat="43.9536392" lon="10.8283813"><ele>279.0</ele><time>2026-04-04T08:32:43.114Z</time></trkpt><trkpt lat="43.9536611" lon="10.8285502"><ele>279.8</ele><time>2026-04-04T08:32:44.115Z</time></trkpt><trkpt lat="43.953671" lon="10.8287202"><ele>280.59999999999997</ele><time>2026-04-04T08:32:45.114Z</time></trkpt><trkpt lat="43.9536714" lon="10.8288784"><ele>281.4</ele><time>2026-04-04T08:32:46.115Z</time></trkpt><trkpt lat="43.9536701" lon="10.8290238"><ele>282.2</ele><time>2026-04-04T08:32:47.115Z</time></trkpt><trkpt lat="43.9536659" lon="10.8291572"><ele>283.0</ele><time>2026-04-04T08:32:48.115Z</time></trkpt><trkpt lat="43.95366" lon="10.8292857"><ele>285.2</ele><time>2026-04-04T08:32:49.114Z</time></trkpt><trkpt lat="43.9536416" lon="10.8294118"><ele>287.4</ele><time>2026-04-04T08:32:50.115Z</time></trkpt><trkpt lat="43.9536039" lon="10.8295426"><ele>289.59999999999997</ele><time>2026-04-04T08:32:51.115Z</time></trkpt><trkpt lat="43.9535481" lon="10.8296691"><ele>291.8</ele><time>2026-04-04T08:32:52.114Z</time></trkpt><trkpt lat="43.9534767" lon="10.8297852"><ele>294.0</ele><time>2026-04-04T08:32:53.115Z</time></trkpt><trkpt lat="43.9533904" lon="10.8298888"><ele>293.59999999999997</ele><time>2026-04-04T08:32:54.115Z</time></trkpt><trkpt lat="43.9532943" lon="10.8299697"><ele>293.2</ele><time>2026-04-04T08:32:55.115Z</time></trkpt><trkpt lat="43.9531925" lon="10.8300207"><ele>292.79999999999995</ele><time>2026-04-04T08:32:56.115Z</time></trkpt><trkpt lat="43.9530998" lon="10.8300642"><ele>292.4</ele><time>2026-04-04T08:32:57.115Z</time></trkpt><trkpt lat="43.9530172" lon="10.8301336"><ele>292.0</ele><time>2026-04-04T08:32:58.115Z</time></trkpt><trkpt lat="43.9529446" lon="10.8302329"><ele>292.0</ele><time>2026-04-04T08:32:59.114Z</time></trkpt><trkpt lat="43.952886" lon="10.8303648"><ele>292.0</ele><time>2026-04-04T08:33:00.114Z</time></trkpt><trkpt lat="43.9528363" lon="10.8305078"><ele>292.0</ele><time>2026-04-04T08:33:01.115Z</time></trkpt><trkpt lat="43.9527783" lon="10.8306519"><ele>292.0</ele><time>2026-04-04T08:33:02.114Z</time></trkpt><trkpt lat="43.9527085" lon="10.8307762"><ele>292.0</ele><time>2026-04-04T08:33:03.115Z</time></trkpt><trkpt lat="43.9526245" lon="10.8308815"><ele>292.0</ele><time>2026-04-04T08:33:04.114Z</time></trkpt><trkpt lat="43.9525266" lon="10.8309756"><ele>292.0</ele><time>2026-04-04T08:33:05.115Z</time></trkpt><trkpt lat="43.9524318" lon="10.8310746"><ele>292.0</ele><time>2026-04-04T08:33:06.114Z</time></trkpt><trkpt lat="43.9523444" lon="10.8311867"><ele>293.5</ele><time>2026-04-04T08:33:07.115Z</time></trkpt><trkpt lat="43.9522603" lon="10.8313048"><ele>295.0</ele><time>2026-04-04T08:33:08.115Z</time></trkpt><trkpt lat="43.9521793" lon="10.831426"><ele>296.5</ele><time>2026-04-04T08:33:09.114Z</time></trkpt><trkpt lat="43.9520965" lon="10.8315464"><ele>298.0</ele><time>2026-04-04T08:33:10.115Z</time></trkpt><trkpt lat="43.9520129" lon="10.8316689"><ele>298.0</ele><time>2026-04-04T08:33:11.115Z</time></trkpt><trkpt lat="43.9519355" lon="10.8317858"><ele>298.0</ele><time>2026-04-04T08:33:12.115Z</time></trkpt><trkpt lat="43.9518641" lon="10.831882"><ele>298.0</ele><time>2026-04-04T08:33:13.115Z</time></trkpt><trkpt lat="43.951814" lon="10.8319746"><ele>298.0</ele><time>2026-04-04T08:33:14.115Z</time></trkpt><trkpt lat="43.9517996" lon="10.8320732"><ele>298.0</ele><time>2026-04-04T08:33:15.115Z</time></trkpt><trkpt lat="43.9518122" lon="10.8321798"><ele>298.0</ele><time>2026-04-04T08:33:16.115Z</time></trkpt><trkpt lat="43.9518552" lon="10.8322765"><ele>301.16666666666663</ele><time>2026-04-04T08:33:17.115Z</time></trkpt><trkpt lat="43.9519235" lon="10.8323443"><ele>304.3333333333333</ele><time>2026-04-04T08:33:18.116Z</time></trkpt><trkpt lat="43.952022" lon="10.8324053"><ele>307.5</ele><time>2026-04-04T08:33:19.114Z</time></trkpt><trkpt lat="43.9520994" lon="10.8324706"><ele>310.6666666666667</ele><time>2026-04-04T08:33:20.116Z</time></trkpt><trkpt lat="43.9521439" lon="10.8325538"><ele>313.83333333333337</ele><time>2026-04-04T08:33:21.115Z</time></trkpt><trkpt lat="43.9521822" lon="10.8326458"><ele>317.0</ele><time>2026-04-04T08:33:22.116Z</time></trkpt><trkpt lat="43.9521132" lon="10.832713"><ele>313.8</ele><time>2026-04-04T08:33:23.116Z</time></trkpt><trkpt lat="43.95205" lon="10.83276"><ele>310.6</ele><time>2026-04-04T08:33:24.114Z</time></trkpt><trkpt lat="43.9519556" lon="10.8327827"><ele>307.40000000000003</ele><time>2026-04-04T08:33:25.115Z</time></trkpt><trkpt lat="43.9518487" lon="10.8328008"><ele>304.2</ele><time>2026-04-04T08:33:26.114Z</time></trkpt><trkpt lat="43.951751" lon="10.8328465"><ele>301.0</ele><time>2026-04-04T08:33:27.115Z</time></trkpt><trkpt lat="43.9516683" lon="10.8329251"><ele>301.0</ele><time>2026-04-04T08:33:28.115Z</time></trkpt><trkpt lat="43.951611" lon="10.8330278"><ele>301.0</ele><time>2026-04-04T08:33:29.115Z</time></trkpt><trkpt lat="43.9515815" lon="10.8331499"><ele>301.0</ele><time>2026-04-04T08:33:30.115Z</time></trkpt><trkpt lat="43.9515848" lon="10.8332806"><ele>301.0</ele><time>2026-04-04T08:33:31.114Z</time></trkpt><trkpt lat="43.9515988" lon="10.8334194"><ele>301.0</ele><time>2026-04-04T08:33:32.114Z</time></trkpt><trkpt lat="43.951597" lon="10.8335536"><ele>304.2</ele><time>2026-04-04T08:33:33.114Z</time></trkpt><trkpt lat="43.9515668" lon="10.8336782"><ele>307.40000000000003</ele><time>2026-04-04T08:33:34.115Z</time></trkpt><trkpt lat="43.9515159" lon="10.8337929"><ele>310.6</ele><time>2026-04-04T08:33:35.115Z</time></trkpt><trkpt lat="43.9514691" lon="10.8339118"><ele>313.8</ele><time>2026-04-04T08:33:36.114Z</time></trkpt><trkpt lat="43.9514508" lon="10.8340461"><ele>317.0</ele><time>2026-04-04T08:33:37.115Z</time></trkpt><trkpt lat="43.9514554" lon="10.8341912"><ele>317.0</ele><time>2026-04-04T08:33:38.115Z</time></trkpt><trkpt lat="43.9514565" lon="10.8343489"><ele>317.0</ele><time>2026-04-04T08:33:39.115Z</time></trkpt><trkpt lat="43.9514691" lon="10.8345166"><ele>317.0</ele><time>2026-04-04T08:33:40.115Z</time></trkpt><trkpt lat="43.9514796" lon="10.834673"><ele>317.0</ele><time>2026-04-04T08:33:41.115Z</time></trkpt><trkpt lat="43.9514925" lon="10.8348178"><ele>317.0</ele><time>2026-04-04T08:33:42.115Z</time></trkpt><trkpt lat="43.951544" lon="10.8349337"><ele>317.0</ele><time>2026-04-04T08:33:43.114Z</time></trkpt><trkpt lat="43.951662" lon="10.8349956"><ele>317.0</ele><time>2026-04-04T08:33:44.116Z</time></trkpt><trkpt lat="43.9517448" lon="10.8351085"><ele>317.0</ele><time>2026-04-04T08:33:45.114Z</time></trkpt><trkpt lat="43.9518084" lon="10.8352423"><ele>321.33333333333337</ele><time>2026-04-04T08:33:46.115Z</time></trkpt><trkpt lat="43.9518757" lon="10.8353663"><ele>325.6666666666667</ele><time>2026-04-04T08:33:47.115Z</time></trkpt><trkpt lat="43.9519374" lon="10.8354742"><ele>330.0</ele><time>2026-04-04T08:33:48.116Z</time></trkpt><trkpt lat="43.9519794" lon="10.8355756"><ele>334.3333333333333</ele><time>2026-04-04T08:33:49.115Z</time></trkpt><trkpt lat="43.9519906" lon="10.8356781"><ele>338.66666666666663</ele><time>2026-04-04T08:33:50.115Z</time></trkpt><trkpt lat="43.9519626" lon="10.8357598"><ele>343.0</ele><time>2026-04-04T08:33:51.114Z</time></trkpt><trkpt lat="43.9519279" lon="10.8358381"><ele>343.0</ele><time>2026-04-04T08:33:52.115Z</time></trkpt><trkpt lat="43.9518724" lon="10.8358997"><ele>343.0</ele><time>2026-04-04T08:33:53.114Z</time></trkpt><trkpt lat="43.9516601" lon="10.8357571"><ele>343.0</ele><time>2026-04-04T08:33:55.115Z</time></trkpt><trkpt lat="43.9515564" lon="10.835718"><ele>343.0</ele><time>2026-04-04T08:33:56.115Z</time></trkpt><trkpt lat="43.9514501" lon="10.8356702"><ele>339.66666666666663</ele><time>2026-04-04T08:33:57.114Z</time></trkpt><trkpt lat="43.951358" lon="10.8356333"><ele>336.3333333333333</ele><time>2026-04-04T08:33:58.115Z</time></trkpt><trkpt lat="43.9512747" lon="10.8356317"><ele>333.0</ele><time>2026-04-04T08:33:59.115Z</time></trkpt><trkpt lat="43.951203" lon="10.8356674"><ele>329.6666666666667</ele><time>2026-04-04T08:34:00.114Z</time></trkpt><trkpt lat="43.9511309" lon="10.8357412"><ele>326.33333333333337</ele><time>2026-04-04T08:34:01.115Z</time></trkpt><trkpt lat="43.9510544" lon="10.8358279"><ele>323.0</ele><time>2026-04-04T08:34:02.114Z</time></trkpt><trkpt lat="43.9509763" lon="10.8358933"><ele>323.0</ele><time>2026-04-04T08:34:03.115Z</time></trkpt><trkpt lat="43.9508914" lon="10.8359232"><ele>323.0</ele><time>2026-04-04T08:34:04.115Z</time></trkpt><trkpt lat="43.9507992" lon="10.8359236"><ele>323.0</ele><time>2026-04-04T08:34:05.115Z</time></trkpt><trkpt lat="43.9507054" lon="10.8358876"><ele>323.0</ele><time>2026-04-04T08:34:06.114Z</time></trkpt><trkpt lat="43.9506054" lon="10.8358404"><ele>323.0</ele><time>2026-04-04T08:34:07.115Z</time></trkpt><trkpt lat="43.950503" lon="10.8357986"><ele>322.79999999999995</ele><time>2026-04-04T08:34:08.115Z</time></trkpt><trkpt lat="43.9504047" lon="10.8357593"><ele>322.6</ele><time>2026-04-04T08:34:09.114Z</time></trkpt><trkpt lat="43.9503001" lon="10.83574"><ele>322.4</ele><time>2026-04-04T08:34:10.115Z</time></trkpt><trkpt lat="43.9502052" lon="10.8357403"><ele>322.20000000000005</ele><time>2026-04-04T08:34:11.115Z</time></trkpt><trkpt lat="43.9501228" lon="10.8357645"><ele>322.0</ele><time>2026-04-04T08:34:12.115Z</time></trkpt><trkpt lat="43.9500669" lon="10.8358397"><ele>322.0</ele><time>2026-04-04T08:34:13.115Z</time></trkpt><trkpt lat="43.950035" lon="10.8359367"><ele>322.0</ele><time>2026-04-04T08:34:14.115Z</time></trkpt><trkpt lat="43.9500157" lon="10.8360594"><ele>322.0</ele><time>2026-04-04T08:34:15.115Z</time></trkpt><trkpt lat="43.949995" lon="10.8361911"><ele>322.0</ele><time>2026-04-04T08:34:16.115Z</time></trkpt><trkpt lat="43.9499676" lon="10.8363293"><ele>322.0</ele><time>2026-04-04T08:34:17.114Z</time></trkpt><trkpt lat="43.9499464" lon="10.8364777"><ele>321.8</ele><time>2026-04-04T08:34:18.115Z</time></trkpt><trkpt lat="43.9499336" lon="10.8366225"><ele>321.6</ele><time>2026-04-04T08:34:19.115Z</time></trkpt><trkpt lat="43.949936" lon="10.8367589"><ele>321.40000000000003</ele><time>2026-04-04T08:34:20.115Z</time></trkpt><trkpt lat="43.9499592" lon="10.8368831"><ele>321.20000000000005</ele><time>2026-04-04T08:34:21.114Z</time></trkpt><trkpt lat="43.9500073" lon="10.8369922"><ele>321.0</ele><time>2026-04-04T08:34:22.115Z</time></trkpt><trkpt lat="43.9500773" lon="10.8370778"><ele>324.20000000000005</ele><time>2026-04-04T08:34:23.114Z</time></trkpt><trkpt lat="43.9501487" lon="10.8371676"><ele>327.40000000000003</ele><time>2026-04-04T08:34:24.114Z</time></trkpt><trkpt lat="43.9502405" lon="10.8371835"><ele>330.6</ele><time>2026-04-04T08:34:25.115Z</time></trkpt><trkpt lat="43.9503496" lon="10.8371488"><ele>333.8</ele><time>2026-04-04T08:34:26.115Z</time></trkpt><trkpt lat="43.9504479" lon="10.8371397"><ele>337.0</ele><time>2026-04-04T08:34:27.115Z</time></trkpt><trkpt lat="43.9505376" lon="10.837126"><ele>337.0</ele><time>2026-04-04T08:34:28.114Z</time></trkpt><trkpt lat="43.9506492" lon="10.8371129"><ele>337.0</ele><time>2026-04-04T08:34:29.114Z</time></trkpt><trkpt lat="43.9507496" lon="10.837113"><ele>337.0</ele><time>2026-04-04T08:34:30.115Z</time></trkpt><trkpt lat="43.9508486" lon="10.837116"><ele>337.0</ele><time>2026-04-04T08:34:31.115Z</time></trkpt><trkpt lat="43.9509465" lon="10.8371247"><ele>337.0</ele><time>2026-04-04T08:34:32.115Z</time></trkpt><trkpt lat="43.9510476" lon="10.8371357"><ele>343.6</ele><time>2026-04-04T08:34:33.115Z</time></trkpt><trkpt lat="43.951147" lon="10.8371339"><ele>350.20000000000005</ele><time>2026-04-04T08:34:34.114Z</time></trkpt><trkpt lat="43.9512422" lon="10.8370955"><ele>356.8</ele><time>2026-04-04T08:34:35.115Z</time></trkpt><trkpt lat="43.9513293" lon="10.8370213"><ele>363.4</ele><time>2026-04-04T08:34:36.116Z</time></trkpt><trkpt lat="43.9514193" lon="10.8369381"><ele>370.0</ele><time>2026-04-04T08:34:37.115Z</time></trkpt><trkpt lat="43.951507" lon="10.8368507"><ele>369.66666666666663</ele><time>2026-04-04T08:34:38.115Z</time></trkpt><trkpt lat="43.9515867" lon="10.8367676"><ele>369.3333333333333</ele><time>2026-04-04T08:34:39.114Z</time></trkpt><trkpt lat="43.951656" lon="10.8367057"><ele>369.0</ele><time>2026-04-04T08:34:40.115Z</time></trkpt><trkpt lat="43.9517234" lon="10.8366771"><ele>368.6666666666667</ele><time>2026-04-04T08:34:41.116Z</time></trkpt><trkpt lat="43.9517987" lon="10.8366832"><ele>368.33333333333337</ele><time>2026-04-04T08:34:42.115Z</time></trkpt><trkpt lat="43.951877" lon="10.8367188"><ele>368.0</ele><time>2026-04-04T08:34:43.115Z</time></trkpt><trkpt lat="43.9519615" lon="10.8367801"><ele>368.0</ele><time>2026-04-04T08:34:44.115Z</time></trkpt><trkpt lat="43.9520479" lon="10.8368401"><ele>368.0</ele><time>2026-04-04T08:34:45.114Z</time></trkpt><trkpt lat="43.952128" lon="10.8368529"><ele>368.0</ele><time>2026-04-04T08:34:46.115Z</time></trkpt><trkpt lat="43.9522128" lon="10.8368184"><ele>368.0</ele><time>2026-04-04T08:34:47.115Z</time></trkpt><trkpt lat="43.9522902" lon="10.8367502"><ele>368.0</ele><time>2026-04-04T08:34:48.114Z</time></trkpt><trkpt lat="43.9523774" lon="10.8366932"><ele>368.0</ele><time>2026-04-04T08:34:49.114Z</time></trkpt><trkpt lat="43.9524716" lon="10.8366624"><ele>368.0</ele><time>2026-04-04T08:34:50.114Z</time></trkpt><trkpt lat="43.9525735" lon="10.8366395"><ele>368.0</ele><time>2026-04-04T08:34:51.115Z</time></trkpt><trkpt lat="43.9526734" lon="10.8366271"><ele>368.0</ele><time>2026-04-04T08:34:52.115Z</time></trkpt><trkpt lat="43.9527653" lon="10.8366307"><ele>368.0</ele><time>2026-04-04T08:34:53.114Z</time></trkpt><trkpt lat="43.952858" lon="10.8366607"><ele>370.5</ele><time>2026-04-04T08:34:54.115Z</time></trkpt><trkpt lat="43.9529507" lon="10.8367034"><ele>373.0</ele><time>2026-04-04T08:34:55.115Z</time></trkpt><trkpt lat="43.953044" lon="10.8367423"><ele>375.5</ele><time>2026-04-04T08:34:56.114Z</time></trkpt><trkpt lat="43.9531307" lon="10.836765"><ele>378.0</ele><time>2026-04-04T08:34:57.115Z</time></trkpt><trkpt lat="43.9531965" lon="10.8367724"><ele>380.5</ele><time>2026-04-04T08:34:58.115Z</time></trkpt><trkpt lat="43.953291" lon="10.8367576"><ele>383.0</ele><time>2026-04-04T08:35:00.115Z</time></trkpt><trkpt lat="43.9533372" lon="10.8368274"><ele>389.33333333333337</ele><time>2026-04-04T08:36:01.115Z</time></trkpt><trkpt lat="43.9532992" lon="10.8369187"><ele>395.6666666666667</ele><time>2026-04-04T08:36:04.114Z</time></trkpt><trkpt lat="43.9532188" lon="10.8368969"><ele>402.0</ele><time>2026-04-04T08:36:05.115Z</time></trkpt><trkpt lat="43.9531328" lon="10.8368875"><ele>408.33333333333337</ele><time>2026-04-04T08:36:07.115Z</time></trkpt><trkpt lat="43.9530609" lon="10.8368883"><ele>414.6666666666667</ele><time>2026-04-04T08:36:09.116Z</time></trkpt><trkpt lat="43.9531553" lon="10.8369627"><ele>421.0</ele><time>2026-04-04T08:36:12.115Z</time></trkpt><trkpt lat="43.9532025" lon="10.8370277"><ele>421.0</ele><time>2026-04-04T08:36:14.114Z</time></trkpt><trkpt lat="43.9532859" lon="10.837129"><ele>421.0</ele><time>2026-04-04T08:36:16.115Z</time></trkpt><trkpt lat="43.9534103" lon="10.8370841"><ele>421.0</ele><time>2026-04-04T08:36:18.115Z</time></trkpt><trkpt lat="43.9535184" lon="10.8370631"><ele>421.0</ele><time>2026-04-04T08:36:20.114Z</time></trkpt><trkpt lat="43.953602" lon="10.8371102"><ele>421.0</ele><time>2026-04-04T08:36:22.115Z</time></trkpt><trkpt lat="43.9536835" lon="10.837145"><ele>420.6</ele><time>2026-04-04T08:36:24.115Z</time></trkpt><trkpt lat="43.9537936" lon="10.837198"><ele>420.20000000000005</ele><time>2026-04-04T08:36:26.115Z</time></trkpt><trkpt lat="43.953869" lon="10.8372524"><ele>419.79999999999995</ele><time>2026-04-04T08:36:27.115Z</time></trkpt><trkpt lat="43.9539349" lon="10.8372728"><ele>419.4</ele><time>2026-04-04T08:36:28.115Z</time></trkpt><trkpt lat="43.9540379" lon="10.8372887"><ele>419.0</ele><time>2026-04-04T08:36:30.115Z</time></trkpt><trkpt lat="43.9541521" lon="10.837345"><ele>420.8333333333333</ele><time>2026-04-04T08:36:32.115Z</time></trkpt><trkpt lat="43.9542443" lon="10.8373905"><ele>422.66666666666663</ele><time>2026-04-04T08:36:34.115Z</time></trkpt><trkpt lat="43.9543067" lon="10.837451"><ele>424.5</ele><time>2026-04-04T08:36:36.114Z</time></trkpt><trkpt lat="43.9543634" lon="10.8375024"><ele>426.33333333333337</ele><time>2026-04-04T08:36:37.115Z</time></trkpt><trkpt lat="43.9544404" lon="10.8375956"><ele>428.1666666666667</ele><time>2026-04-04T08:36:39.115Z</time></trkpt><trkpt lat="43.9545318" lon="10.8376312"><ele>430.0</ele><time>2026-04-04T08:36:41.116Z</time></trkpt><trkpt lat="43.9544887" lon="10.8377028"><ele>435.2</ele><time>2026-04-04T08:36:43.115Z</time></trkpt><trkpt lat="43.9543511" lon="10.8376966"><ele>440.4</ele><time>2026-04-04T08:36:45.115Z</time></trkpt><trkpt lat="43.954268" lon="10.8376829"><ele>445.6</ele><time>2026-04-04T08:36:46.114Z</time></trkpt><trkpt lat="43.9541898" lon="10.8376772"><ele>450.8</ele><time>2026-04-04T08:36:47.115Z</time></trkpt><trkpt lat="43.9541243" lon="10.8376773"><ele>456.0</ele><time>2026-04-04T08:36:48.116Z</time></trkpt><trkpt lat="43.9540315" lon="10.8377361"><ele>456.6</ele><time>2026-04-04T08:36:50.116Z</time></trkpt><trkpt lat="43.9539592" lon="10.837841"><ele>457.20000000000005</ele><time>2026-04-04T08:36:52.114Z</time></trkpt><trkpt lat="43.9538551" lon="10.8378878"><ele>457.79999999999995</ele><time>2026-04-04T08:36:54.114Z</time></trkpt><trkpt lat="43.9537794" lon="10.837926"><ele>458.4</ele><time>2026-04-04T08:36:56.114Z</time></trkpt><trkpt lat="43.9536846" lon="10.8379155"><ele>459.0</ele><time>2026-04-04T08:36:57.116Z</time></trkpt><trkpt lat="43.9535945" lon="10.8379895"><ele>459.0</ele><time>2026-04-04T08:36:59.115Z</time></trkpt><trkpt lat="43.9534744" lon="10.8380752"><ele>459.0</ele><time>2026-04-04T08:37:01.115Z</time></trkpt><trkpt lat="43.9534352" lon="10.8382081"><ele>459.0</ele><time>2026-04-04T08:37:03.115Z</time></trkpt><trkpt lat="43.9534144" lon="10.8383261"><ele>459.0</ele><time>2026-04-04T08:37:05.116Z</time></trkpt><trkpt lat="43.9533942" lon="10.838444"><ele>459.0</ele><time>2026-04-04T08:37:07.114Z</time></trkpt><trkpt lat="43.9534061" lon="10.8385376"><ele>463.0</ele><time>2026-04-04T08:37:09.114Z</time></trkpt><trkpt lat="43.9534816" lon="10.838546"><ele>467.0</ele><time>2026-04-04T08:37:12.114Z</time></trkpt><trkpt lat="43.9535688" lon="10.838588"><ele>471.0</ele><time>2026-04-04T08:37:14.114Z</time></trkpt><trkpt lat="43.953653" lon="10.8386151"><ele>475.0</ele><time>2026-04-04T08:37:16.114Z</time></trkpt><trkpt lat="43.9537139" lon="10.8386627"><ele>479.0</ele><time>2026-04-04T08:37:18.116Z</time></trkpt><trkpt lat="43.9536413" lon="10.8387761"><ele>483.0</ele><time>2026-04-04T08:37:20.116Z</time></trkpt><trkpt lat="43.953608" lon="10.8389145"><ele>483.0</ele><time>2026-04-04T08:37:22.114Z</time></trkpt><trkpt lat="43.9536184" lon="10.8390361"><ele>483.0</ele><time>2026-04-04T08:37:24.114Z</time></trkpt><trkpt lat="43.9536097" lon="10.8391668"><ele>483.0</ele><time>2026-04-04T08:37:26.114Z</time></trkpt><trkpt lat="43.9536042" lon="10.8392568"><ele>483.0</ele><time>2026-04-04T08:37:28.115Z</time></trkpt><trkpt lat="43.9535863" lon="10.8393422"><ele>483.0</ele><time>2026-04-04T08:37:31.115Z</time></trkpt><trkpt lat="43.9535811" lon="10.8394342"><ele>483.0</ele><time>2026-04-04T08:37:37.115Z</time></trkpt><trkpt lat="43.9536043" lon="10.8395591"><ele>485.2</ele><time>2026-04-04T08:37:39.114Z</time></trkpt><trkpt lat="43.95363" lon="10.8396664"><ele>487.4</ele><time>2026-04-04T08:37:41.115Z</time></trkpt><trkpt lat="43.9536868" lon="10.8397919"><ele>489.59999999999997</ele><time>2026-04-04T08:37:43.115Z</time></trkpt><trkpt lat="43.9537356" lon="10.8398864"><ele>491.79999999999995</ele><time>2026-04-04T08:37:44.115Z</time></trkpt><trkpt lat="43.953783" lon="10.8399993"><ele>494.0</ele><time>2026-04-04T08:37:45.114Z</time></trkpt><trkpt lat="43.9538142" lon="10.8401098"><ele>495.16666666666663</ele><time>2026-04-04T08:37:46.114Z</time></trkpt><trkpt lat="43.9538195" lon="10.8402086"><ele>496.3333333333333</ele><time>2026-04-04T08:37:47.115Z</time></trkpt><trkpt lat="43.9538479" lon="10.8402997"><ele>497.5</ele><time>2026-04-04T08:37:48.114Z</time></trkpt><trkpt lat="43.9538962" lon="10.840357"><ele>498.66666666666663</ele><time>2026-04-04T08:37:49.115Z</time></trkpt><trkpt lat="43.9539618" lon="10.8404453"><ele>499.8333333333333</ele><time>2026-04-04T08:37:51.115Z</time></trkpt><trkpt lat="43.9539755" lon="10.8405468"><ele>501.0</ele><time>2026-04-04T08:37:53.115Z</time></trkpt><trkpt lat="43.9539185" lon="10.8406389"><ele>501.0</ele><time>2026-04-04T08:37:55.115Z</time></trkpt><trkpt lat="43.953872" lon="10.8407921"><ele>501.0</ele><time>2026-04-04T08:37:57.115Z</time></trkpt><trkpt lat="43.9538175" lon="10.8408749"><ele>501.0</ele><time>2026-04-04T08:37:58.114Z</time></trkpt><trkpt lat="43.9537527" lon="10.8409978"><ele>501.0</ele><time>2026-04-04T08:38:00.114Z</time></trkpt><trkpt lat="43.9537086" lon="10.8411043"><ele>501.0</ele><time>2026-04-04T08:38:02.114Z</time></trkpt><trkpt lat="43.9536936" lon="10.8411997"><ele>500.8333333333333</ele><time>2026-04-04T08:38:03.114Z</time></trkpt><trkpt lat="43.9536747" lon="10.8413186"><ele>500.66666666666663</ele><time>2026-04-04T08:38:04.114Z</time></trkpt><trkpt lat="43.9536896" lon="10.8414189"><ele>500.5</ele><time>2026-04-04T08:38:05.115Z</time></trkpt><trkpt lat="43.9536991" lon="10.8415098"><ele>500.3333333333333</ele><time>2026-04-04T08:38:06.115Z</time></trkpt><trkpt lat="43.9536964" lon="10.8416242"><ele>500.16666666666663</ele><time>2026-04-04T08:38:07.115Z</time></trkpt><trkpt lat="43.9537002" lon="10.8417255"><ele>500.0</ele><time>2026-04-04T08:38:08.115Z</time></trkpt><trkpt lat="43.953705" lon="10.8418228"><ele>500.0</ele><time>2026-04-04T08:38:09.114Z</time></trkpt><trkpt lat="43.9536914" lon="10.8419415"><ele>500.0</ele><time>2026-04-04T08:38:11.115Z</time></trkpt><trkpt lat="43.9537156" lon="10.8420359"><ele>500.0</ele><time>2026-04-04T08:38:19.115Z</time></trkpt><trkpt lat="43.9537754" lon="10.8421261"><ele>500.0</ele><time>2026-04-04T08:38:21.115Z</time></trkpt><trkpt lat="43.9538646" lon="10.8422734"><ele>500.0</ele><time>2026-04-04T08:38:23.115Z</time></trkpt><trkpt lat="43.953921" lon="10.8423657"><ele>500.0</ele><time>2026-04-04T08:38:24.115Z</time></trkpt><trkpt lat="43.953982" lon="10.8424559"><ele>500.0</ele><time>2026-04-04T08:38:25.115Z</time></trkpt><trkpt lat="43.9540517" lon="10.8425561"><ele>500.0</ele><time>2026-04-04T08:38:26.115Z</time></trkpt><trkpt lat="43.9541127" lon="10.8426595"><ele>500.0</ele><time>2026-04-04T08:38:27.115Z</time></trkpt><trkpt lat="43.9542071" lon="10.8427511"><ele>500.0</ele><time>2026-04-04T08:38:29.115Z</time></trkpt><trkpt lat="43.9542745" lon="10.8427811"><ele>500.2</ele><time>2026-04-04T08:38:30.115Z</time></trkpt><trkpt lat="43.954362" lon="10.8427922"><ele>500.4</ele><time>2026-04-04T08:38:31.114Z</time></trkpt><trkpt lat="43.9544537" lon="10.8427968"><ele>500.6</ele><time>2026-04-04T08:38:32.114Z</time></trkpt><trkpt lat="43.9545725" lon="10.8428129"><ele>500.8</ele><time>2026-04-04T08:38:33.115Z</time></trkpt><trkpt lat="43.9547044" lon="10.8428322"><ele>501.0</ele><time>2026-04-04T08:38:34.116Z</time></trkpt><trkpt lat="43.9548287" lon="10.8428513"><ele>501.0</ele><time>2026-04-04T08:38:35.115Z</time></trkpt><trkpt lat="43.9549533" lon="10.8428578"><ele>501.0</ele><time>2026-04-04T08:38:36.115Z</time></trkpt><trkpt lat="43.955078" lon="10.8428667"><ele>501.0</ele><time>2026-04-04T08:38:37.115Z</time></trkpt><trkpt lat="43.95521" lon="10.8428729"><ele>501.0</ele><time>2026-04-04T08:38:38.114Z</time></trkpt><trkpt lat="43.9553268" lon="10.8428675"><ele>501.8</ele><time>2026-04-04T08:38:39.116Z</time></trkpt><trkpt lat="43.9554417" lon="10.8428614"><ele>502.6</ele><time>2026-04-04T08:38:40.115Z</time></trkpt><trkpt lat="43.9555595" lon="10.8428388"><ele>503.4</ele><time>2026-04-04T08:38:41.116Z</time></trkpt><trkpt lat="43.9556571" lon="10.8428175"><ele>504.2</ele><time>2026-04-04T08:38:42.115Z</time></trkpt><trkpt lat="43.9557556" lon="10.8428089"><ele>505.0</ele><time>2026-04-04T08:38:43.115Z</time></trkpt><trkpt lat="43.9558477" lon="10.842813"><ele>506.00000000000006</ele><time>2026-04-04T08:38:44.115Z</time></trkpt><trkpt lat="43.9559436" lon="10.8428345"><ele>507.0</ele><time>2026-04-04T08:38:45.115Z</time></trkpt><trkpt lat="43.95604" lon="10.8428649"><ele>508.0</ele><time>2026-04-04T08:38:46.115Z</time></trkpt><trkpt lat="43.95612" lon="10.8428829"><ele>509.0</ele><time>2026-04-04T08:38:47.114Z</time></trkpt><trkpt lat="43.9562011" lon="10.8429005"><ele>510.00000000000006</ele><time>2026-04-04T08:38:48.115Z</time></trkpt><trkpt lat="43.9562642" lon="10.8429041"><ele>511.0</ele><time>2026-04-04T08:38:49.115Z</time></trkpt><trkpt lat="43.9562374" lon="10.8427873"><ele>511.0</ele><time>2026-04-04T08:38:51.115Z</time></trkpt><trkpt lat="43.956193" lon="10.842706"><ele>511.0</ele><time>2026-04-04T08:38:52.115Z</time></trkpt><trkpt lat="43.9561029" lon="10.8425568"><ele>511.0</ele><time>2026-04-04T08:38:53.114Z</time></trkpt><trkpt lat="43.9559929" lon="10.8424661"><ele>511.0</ele><time>2026-04-04T08:38:54.116Z</time></trkpt><trkpt lat="43.9559096" lon="10.8423889"><ele>511.0</ele><time>2026-04-04T08:38:55.115Z</time></trkpt><trkpt lat="43.9558092" lon="10.8423012"><ele>513.4</ele><time>2026-04-04T08:38:56.115Z</time></trkpt><trkpt lat="43.9557128" lon="10.8423008"><ele>515.8</ele><time>2026-04-04T08:38:57.115Z</time></trkpt><trkpt lat="43.9556065" lon="10.8422749"><ele>518.1999999999999</ele><time>2026-04-04T08:38:58.114Z</time></trkpt><trkpt lat="43.9555086" lon="10.8422522"><ele>520.6</ele><time>2026-04-04T08:38:59.114Z</time></trkpt><trkpt lat="43.9554175" lon="10.8422164"><ele>523.0</ele><time>2026-04-04T08:39:00.114Z</time></trkpt><trkpt lat="43.9553057" lon="10.8422003"><ele>523.0</ele><time>2026-04-04T08:39:01.115Z</time></trkpt><trkpt lat="43.9552229" lon="10.8422201"><ele>523.0</ele><time>2026-04-04T08:39:02.116Z</time></trkpt><trkpt lat="43.9550985" lon="10.8421596"><ele>523.0</ele><time>2026-04-04T08:39:04.115Z</time></trkpt><trkpt lat="43.9550398" lon="10.8420931"><ele>523.0</ele><time>2026-04-04T08:39:05.114Z</time></trkpt><trkpt lat="43.9549902" lon="10.8420288"><ele>523.0</ele><time>2026-04-04T08:39:06.115Z</time></trkpt><trkpt lat="43.9550174" lon="10.8419026"><ele>524.4</ele><time>2026-04-04T08:39:07.115Z</time></trkpt><trkpt lat="43.9550187" lon="10.8417891"><ele>525.8</ele><time>2026-04-04T08:39:08.115Z</time></trkpt><trkpt lat="43.9550536" lon="10.8416327"><ele>527.2</ele><time>2026-04-04T08:39:09.115Z</time></trkpt><trkpt lat="43.9550906" lon="10.8414857"><ele>528.6</ele><time>2026-04-04T08:39:10.115Z</time></trkpt><trkpt lat="43.9551248" lon="10.8413537"><ele>530.0</ele><time>2026-04-04T08:39:11.115Z</time></trkpt><trkpt lat="43.9551737" lon="10.8412232"><ele>531.8333333333333</ele><time>2026-04-04T08:39:12.115Z</time></trkpt><trkpt lat="43.9552476" lon="10.8412574"><ele>533.6666666666666</ele><time>2026-04-04T08:39:13.115Z</time></trkpt><trkpt lat="43.9553184" lon="10.8412079"><ele>535.5</ele><time>2026-04-04T08:39:14.115Z</time></trkpt><trkpt lat="43.9553949" lon="10.8411603"><ele>537.3333333333334</ele><time>2026-04-04T08:39:15.115Z</time></trkpt><trkpt lat="43.9554739" lon="10.8411263"><ele>539.1666666666667</ele><time>2026-04-04T08:39:16.114Z</time></trkpt><trkpt lat="43.9555457" lon="10.8411275"><ele>541.0</ele><time>2026-04-04T08:39:17.115Z</time></trkpt><trkpt lat="43.9556213" lon="10.84112"><ele>541.0</ele><time>2026-04-04T08:39:18.115Z</time></trkpt><trkpt lat="43.9556874" lon="10.8411685"><ele>541.0</ele><time>2026-04-04T08:39:19.114Z</time></trkpt><trkpt lat="43.955733" lon="10.8412376"><ele>541.0</ele><time>2026-04-04T08:39:20.114Z</time></trkpt><trkpt lat="43.9557998" lon="10.8412973"><ele>541.0</ele><time>2026-04-04T08:39:21.115Z</time></trkpt><trkpt lat="43.9559539" lon="10.8412802"><ele>541.0</ele><time>2026-04-04T08:39:23.115Z</time></trkpt><trkpt lat="43.9560784" lon="10.8412658"><ele>541.5</ele><time>2026-04-04T08:39:24.115Z</time></trkpt><trkpt lat="43.9561942" lon="10.8412579"><ele>542.0</ele><time>2026-04-04T08:39:25.115Z</time></trkpt><trkpt lat="43.9563291" lon="10.841233"><ele>542.5</ele><time>2026-04-04T08:39:26.115Z</time></trkpt><trkpt lat="43.9564509" lon="10.8412165"><ele>543.0</ele><time>2026-04-04T08:39:27.115Z</time></trkpt><trkpt lat="43.9565252" lon="10.8411579"><ele>543.0</ele><time>2026-04-04T08:39:28.115Z</time></trkpt><trkpt lat="43.9566303" lon="10.8410989"><ele>543.0</ele><time>2026-04-04T08:39:29.114Z</time></trkpt><trkpt lat="43.9567235" lon="10.841026"><ele>543.0</ele><time>2026-04-04T08:39:30.116Z</time></trkpt><trkpt lat="43.9568119" lon="10.840965"><ele>543.0</ele><time>2026-04-04T08:39:31.115Z</time></trkpt><trkpt lat="43.9569005" lon="10.8409071"><ele>543.0</ele><time>2026-04-04T08:39:32.115Z</time></trkpt><trkpt lat="43.9569931" lon="10.8408469"><ele>546.25</ele><time>2026-04-04T08:39:33.114Z</time></trkpt><trkpt lat="43.9570928" lon="10.8407607"><ele>549.5</ele><time>2026-04-04T08:39:34.116Z</time></trkpt><trkpt lat="43.9571934" lon="10.8406637"><ele>552.75</ele><time>2026-04-04T08:39:35.116Z</time></trkpt><trkpt lat="43.9572949" lon="10.8405554"><ele>556.0</ele><time>2026-04-04T08:39:36.114Z</time></trkpt><trkpt lat="43.9573943" lon="10.8404405"><ele>556.0</ele><time>2026-04-04T08:39:37.115Z</time></trkpt><trkpt lat="43.9574587" lon="10.8403472"><ele>556.0</ele><time>2026-04-04T08:39:38.115Z</time></trkpt><trkpt lat="43.9575346" lon="10.8402596"><ele>556.0</ele><time>2026-04-04T08:39:39.114Z</time></trkpt><trkpt lat="43.9576014" lon="10.8401581"><ele>556.0</ele><time>2026-04-04T08:39:40.115Z</time></trkpt><trkpt lat="43.9576669" lon="10.8400582"><ele>556.0</ele><time>2026-04-04T08:39:41.115Z</time></trkpt><trkpt lat="43.9577354" lon="10.839962"><ele>558.25</ele><time>2026-04-04T08:39:42.115Z</time></trkpt><trkpt lat="43.9578155" lon="10.8398193"><ele>560.5</ele><time>2026-04-04T08:39:43.115Z</time></trkpt><trkpt lat="43.9578956" lon="10.8396908"><ele>562.75</ele><time>2026-04-04T08:39:44.115Z</time></trkpt><trkpt lat="43.9579628" lon="10.8395631"><ele>565.0</ele><time>2026-04-04T08:39:45.114Z</time></trkpt><trkpt lat="43.9580386" lon="10.8394477"><ele>565.0</ele><time>2026-04-04T08:39:46.115Z</time></trkpt><trkpt lat="43.9581175" lon="10.8393367"><ele>565.0</ele><time>2026-04-04T08:39:47.115Z</time></trkpt><trkpt lat="43.9581913" lon="10.8392276"><ele>565.0</ele><time>2026-04-04T08:39:48.115Z</time></trkpt><trkpt lat="43.9582628" lon="10.8391331"><ele>565.0</ele><time>2026-04-04T08:39:49.115Z</time></trkpt><trkpt lat="43.9583329" lon="10.8390418"><ele>565.0</ele><time>2026-04-04T08:39:50.114Z</time></trkpt><trkpt lat="43.9584242" lon="10.8389705"><ele>570.6</ele><time>2026-04-04T08:39:51.115Z</time></trkpt><trkpt lat="43.958515" lon="10.8388947"><ele>576.2</ele><time>2026-04-04T08:39:52.114Z</time></trkpt><trkpt lat="43.9585998" lon="10.8388191"><ele>581.8</ele><time>2026-04-04T08:39:53.115Z</time></trkpt><trkpt lat="43.9586733" lon="10.8387425"><ele>587.4</ele><time>2026-04-04T08:39:54.114Z</time></trkpt><trkpt lat="43.9587536" lon="10.8386714"><ele>593.0</ele><time>2026-04-04T08:39:55.114Z</time></trkpt><trkpt lat="43.9588354" lon="10.8386181"><ele>593.0</ele><time>2026-04-04T08:39:56.115Z</time></trkpt><trkpt lat="43.958922" lon="10.8385645"><ele>593.0</ele><time>2026-04-04T08:39:57.115Z</time></trkpt><trkpt lat="43.9590224" lon="10.8385064"><ele>593.0</ele><time>2026-04-04T08:39:58.115Z</time></trkpt><trkpt lat="43.9591328" lon="10.838462"><ele>593.0</ele><time>2026-04-04T08:39:59.115Z</time></trkpt><trkpt lat="43.9592616" lon="10.8384182"><ele>596.8</ele><time>2026-04-04T08:40:00.116Z</time></trkpt><trkpt lat="43.9593751" lon="10.8383773"><ele>600.5999999999999</ele><time>2026-04-04T08:40:01.115Z</time></trkpt><trkpt lat="43.9594654" lon="10.8383619"><ele>604.4000000000001</ele><time>2026-04-04T08:40:02.116Z</time></trkpt><trkpt lat="43.9595555" lon="10.8383481"><ele>608.2</ele><time>2026-04-04T08:40:03.115Z</time></trkpt><trkpt lat="43.9596515" lon="10.8383389"><ele>612.0</ele><time>2026-04-04T08:40:04.114Z</time></trkpt><trkpt lat="43.9597405" lon="10.838321"><ele>612.0</ele><time>2026-04-04T08:40:05.114Z</time></trkpt><trkpt lat="43.9598407" lon="10.8382975"><ele>612.0</ele><time>2026-04-04T08:40:06.115Z</time></trkpt><trkpt lat="43.9599127" lon="10.8382723"><ele>612.0</ele><time>2026-04-04T08:40:07.114Z</time></trkpt><trkpt lat="43.9599974" lon="10.8382082"><ele>612.0</ele><time>2026-04-04T08:40:08.115Z</time></trkpt><trkpt lat="43.9600872" lon="10.8381306"><ele>612.0</ele><time>2026-04-04T08:40:09.115Z</time></trkpt><trkpt lat="43.9601629" lon="10.8380579"><ele>612.5</ele><time>2026-04-04T08:40:10.115Z</time></trkpt><trkpt lat="43.9602276" lon="10.8379604"><ele>613.0</ele><time>2026-04-04T08:40:11.115Z</time></trkpt><trkpt lat="43.9602988" lon="10.8378793"><ele>613.5</ele><time>2026-04-04T08:40:12.115Z</time></trkpt><trkpt lat="43.9603483" lon="10.8377847"><ele>614.0</ele><time>2026-04-04T08:40:13.114Z</time></trkpt><trkpt lat="43.9603997" lon="10.8376926"><ele>614.5</ele><time>2026-04-04T08:40:14.114Z</time></trkpt><trkpt lat="43.9604558" lon="10.8376145"><ele>615.0</ele><time>2026-04-04T08:40:15.115Z</time></trkpt><trkpt lat="43.9604803" lon="10.8375078"><ele>618.5</ele><time>2026-04-04T08:40:16.114Z</time></trkpt><trkpt lat="43.9604959" lon="10.837392"><ele>622.0</ele><time>2026-04-04T08:40:17.115Z</time></trkpt><trkpt lat="43.9605093" lon="10.8372904"><ele>625.5</ele><time>2026-04-04T08:40:18.115Z</time></trkpt><trkpt lat="43.9605253" lon="10.8372021"><ele>629.0</ele><time>2026-04-04T08:40:19.115Z</time></trkpt><trkpt lat="43.9605451" lon="10.8370699"><ele>632.5</ele><time>2026-04-04T08:40:21.114Z</time></trkpt><trkpt lat="43.960638" lon="10.836983"><ele>636.0</ele><time>2026-04-04T08:40:23.115Z</time></trkpt><trkpt lat="43.960729" lon="10.8370198"><ele>636.0</ele><time>2026-04-04T08:40:24.115Z</time></trkpt><trkpt lat="43.9607948" lon="10.8371044"><ele>636.0</ele><time>2026-04-04T08:40:25.114Z</time></trkpt><trkpt lat="43.9608548" lon="10.837214"><ele>636.0</ele><time>2026-04-04T08:40:26.116Z</time></trkpt><trkpt lat="43.9609201" lon="10.8372832"><ele>636.0</ele><time>2026-04-04T08:40:27.115Z</time></trkpt><trkpt lat="43.960987" lon="10.8373079"><ele>636.0</ele><time>2026-04-04T08:40:28.114Z</time></trkpt><trkpt lat="43.9610679" lon="10.8373157"><ele>636.0</ele><time>2026-04-04T08:40:29.114Z</time></trkpt><trkpt lat="43.9611793" lon="10.8372761"><ele>637.4</ele><time>2026-04-04T08:40:30.114Z</time></trkpt><trkpt lat="43.9612829" lon="10.837225"><ele>638.8</ele><time>2026-04-04T08:40:31.114Z</time></trkpt><trkpt lat="43.9613746" lon="10.8371754"><ele>640.1999999999999</ele><time>2026-04-04T08:40:32.115Z</time></trkpt><trkpt lat="43.9614585" lon="10.8371176"><ele>641.6</ele><time>2026-04-04T08:40:33.114Z</time></trkpt><trkpt lat="43.9615522" lon="10.8370569"><ele>643.0</ele><time>2026-04-04T08:40:34.115Z</time></trkpt><trkpt lat="43.9616522" lon="10.8370036"><ele>644.4</ele><time>2026-04-04T08:40:35.115Z</time></trkpt><trkpt lat="43.9617401" lon="10.8369441"><ele>645.8</ele><time>2026-04-04T08:40:36.115Z</time></trkpt><trkpt lat="43.9618442" lon="10.8369063"><ele>647.2</ele><time>2026-04-04T08:40:37.115Z</time></trkpt><trkpt lat="43.9619346" lon="10.8369074"><ele>648.6</ele><time>2026-04-04T08:40:38.115Z</time></trkpt><trkpt lat="43.9620318" lon="10.8369315"><ele>650.0</ele><time>2026-04-04T08:40:39.115Z</time></trkpt><trkpt lat="43.9621296" lon="10.8369546"><ele>650.0</ele><time>2026-04-04T08:40:40.116Z</time></trkpt><trkpt lat="43.962225" lon="10.8369862"><ele>650.0</ele><time>2026-04-04T08:40:41.115Z</time></trkpt><trkpt lat="43.9623389" lon="10.8370283"><ele>650.0</ele><time>2026-04-04T08:40:42.115Z</time></trkpt><trkpt lat="43.9624384" lon="10.8370762"><ele>650.0</ele><time>2026-04-04T08:40:43.115Z</time></trkpt><trkpt lat="43.9625367" lon="10.8371232"><ele>650.0</ele><time>2026-04-04T08:40:44.115Z</time></trkpt><trkpt lat="43.9626331" lon="10.8371678"><ele>651.1666666666666</ele><time>2026-04-04T08:40:45.114Z</time></trkpt><trkpt lat="43.9627255" lon="10.8372124"><ele>652.3333333333333</ele><time>2026-04-04T08:40:46.114Z</time></trkpt><trkpt lat="43.9628161" lon="10.8372539"><ele>653.5</ele><time>2026-04-04T08:40:47.114Z</time></trkpt><trkpt lat="43.9629007" lon="10.8372995"><ele>654.6666666666666</ele><time>2026-04-04T08:40:48.115Z</time></trkpt><trkpt lat="43.9629665" lon="10.8373538"><ele>655.8333333333334</ele><time>2026-04-04T08:40:49.115Z</time></trkpt><trkpt lat="43.9629487" lon="10.8374617"><ele>657.0</ele><time>2026-04-04T08:40:50.115Z</time></trkpt><trkpt lat="43.9629744" lon="10.8375848"><ele>656.25</ele><time>2026-04-04T08:40:52.114Z</time></trkpt><trkpt lat="43.9630295" lon="10.8376797"><ele>655.5</ele><time>2026-04-04T08:40:59.115Z</time></trkpt><trkpt lat="43.9632063" lon="10.8378228"><ele>654.75</ele><time>2026-04-04T08:41:01.115Z</time></trkpt><trkpt lat="43.9632961" lon="10.837886"><ele>654.0</ele><time>2026-04-04T08:41:02.114Z</time></trkpt><trkpt lat="43.9634209" lon="10.8379739"><ele>658.75</ele><time>2026-04-04T08:41:03.114Z</time></trkpt><trkpt lat="43.9635279" lon="10.8380632"><ele>663.5</ele><time>2026-04-04T08:41:04.115Z</time></trkpt><trkpt lat="43.9636394" lon="10.8381587"><ele>668.25</ele><time>2026-04-04T08:41:05.115Z</time></trkpt><trkpt lat="43.9637414" lon="10.8382248"><ele>673.0</ele><time>2026-04-04T08:41:06.115Z</time></trkpt><trkpt lat="43.9638411" lon="10.8382846"><ele>673.0</ele><time>2026-04-04T08:41:07.115Z</time></trkpt><trkpt lat="43.9639195" lon="10.8383482"><ele>673.0</ele><time>2026-04-04T08:41:08.115Z</time></trkpt><trkpt lat="43.9639745" lon="10.8384385"><ele>673.0</ele><time>2026-04-04T08:41:09.115Z</time></trkpt><trkpt lat="43.9640583" lon="10.8385212"><ele>673.0</ele><time>2026-04-04T08:41:10.114Z</time></trkpt><trkpt lat="43.9641172" lon="10.8385759"><ele>673.0</ele><time>2026-04-04T08:41:11.114Z</time></trkpt><trkpt lat="43.9641344" lon="10.8384523"><ele>673.0</ele><time>2026-04-04T08:41:12.115Z</time></trkpt><trkpt lat="43.9641999" lon="10.838274"><ele>676.8</ele><time>2026-04-04T08:41:14.114Z</time></trkpt><trkpt lat="43.9643001" lon="10.8381659"><ele>680.5999999999999</ele><time>2026-04-04T08:41:16.115Z</time></trkpt><trkpt lat="43.9644012" lon="10.8382245"><ele>684.4000000000001</ele><time>2026-04-04T08:41:17.114Z</time></trkpt><trkpt lat="43.9644744" lon="10.8382378"><ele>688.2</ele><time>2026-04-04T08:41:18.115Z</time></trkpt><trkpt lat="43.9645606" lon="10.8382791"><ele>692.0</ele><time>2026-04-04T08:41:19.114Z</time></trkpt><trkpt lat="43.9646365" lon="10.8383277"><ele>692.0</ele><time>2026-04-04T08:41:20.114Z</time></trkpt><trkpt lat="43.9646901" lon="10.8384197"><ele>692.0</ele><time>2026-04-04T08:41:21.115Z</time></trkpt><trkpt lat="43.9647683" lon="10.8384712"><ele>692.0</ele><time>2026-04-04T08:41:22.116Z</time></trkpt><trkpt lat="43.9648365" lon="10.8384959"><ele>692.0</ele><time>2026-04-04T08:41:23.115Z</time></trkpt><trkpt lat="43.9649089" lon="10.8385429"><ele>692.0</ele><time>2026-04-04T08:41:24.115Z</time></trkpt><trkpt lat="43.96501" lon="10.8385608"><ele>692.0</ele><time>2026-04-04T08:41:25.115Z</time></trkpt><trkpt lat="43.9650924" lon="10.8385898"><ele>693.8</ele><time>2026-04-04T08:41:26.115Z</time></trkpt><trkpt lat="43.9651765" lon="10.8386119"><ele>695.6</ele><time>2026-04-04T08:41:27.114Z</time></trkpt><trkpt lat="43.9652621" lon="10.8386006"><ele>697.4</ele><time>2026-04-04T08:41:28.115Z</time></trkpt><trkpt lat="43.9653435" lon="10.8385714"><ele>699.1999999999999</ele><time>2026-04-04T08:41:29.114Z</time></trkpt><trkpt lat="43.9654487" lon="10.8385101"><ele>701.0</ele><time>2026-04-04T08:41:30.115Z</time></trkpt><trkpt lat="43.9655426" lon="10.8384622"><ele>701.0</ele><time>2026-04-04T08:41:31.115Z</time></trkpt><trkpt lat="43.965637" lon="10.8384732"><ele>701.0</ele><time>2026-04-04T08:41:32.116Z</time></trkpt><trkpt lat="43.965757" lon="10.8385208"><ele>701.0</ele><time>2026-04-04T08:41:33.115Z</time></trkpt><trkpt lat="43.9658406" lon="10.8385509"><ele>701.0</ele><time>2026-04-04T08:41:34.115Z</time></trkpt><trkpt lat="43.9659154" lon="10.8385547"><ele>701.0</ele><time>2026-04-04T08:41:35.114Z</time></trkpt><trkpt lat="43.966029" lon="10.8385222"><ele>704.4</ele><time>2026-04-04T08:41:37.115Z</time></trkpt><trkpt lat="43.9661045" lon="10.8384414"><ele>707.8</ele><time>2026-04-04T08:41:38.115Z</time></trkpt><trkpt lat="43.9661895" lon="10.8384048"><ele>711.1999999999999</ele><time>2026-04-04T08:41:39.116Z</time></trkpt><trkpt lat="43.966265" lon="10.8383766"><ele>714.5999999999999</ele><time>2026-04-04T08:41:40.114Z</time></trkpt><trkpt lat="43.9663878" lon="10.8384092"><ele>718.0</ele><time>2026-04-04T08:41:42.114Z</time></trkpt><trkpt lat="43.9664572" lon="10.8384227"><ele>718.0</ele><time>2026-04-04T08:41:43.114Z</time></trkpt><trkpt lat="43.9665206" lon="10.8384213"><ele>718.0</ele><time>2026-04-04T08:41:44.114Z</time></trkpt><trkpt lat="43.9665823" lon="10.8383885"><ele>718.0</ele><time>2026-04-04T08:41:45.115Z</time></trkpt><trkpt lat="43.9667179" lon="10.8382436"><ele>718.0</ele><time>2026-04-04T08:41:47.115Z</time></trkpt><trkpt lat="43.9667745" lon="10.8381757"><ele>718.0</ele><time>2026-04-04T08:41:48.114Z</time></trkpt><trkpt lat="43.966828" lon="10.8381188"><ele>718.0</ele><time>2026-04-04T08:41:49.114Z</time></trkpt><trkpt lat="43.9668957" lon="10.8380787"><ele>721.4285714285714</ele><time>2026-04-04T08:41:50.115Z</time></trkpt><trkpt lat="43.9669603" lon="10.8380561"><ele>724.8571428571429</ele><time>2026-04-04T08:41:51.115Z</time></trkpt><trkpt lat="43.9670332" lon="10.838025"><ele>728.2857142857142</ele><time>2026-04-04T08:41:52.115Z</time></trkpt><trkpt lat="43.9670995" lon="10.8379918"><ele>731.7142857142858</ele><time>2026-04-04T08:41:53.114Z</time></trkpt><trkpt lat="43.967171" lon="10.8379569"><ele>735.1428571428571</ele><time>2026-04-04T08:41:54.115Z</time></trkpt><trkpt lat="43.9672428" lon="10.8379696"><ele>738.5714285714286</ele><time>2026-04-04T08:41:55.115Z</time></trkpt><trkpt lat="43.9673086" lon="10.8379726"><ele>742.0</ele><time>2026-04-04T08:41:56.114Z</time></trkpt><trkpt lat="43.9673981" lon="10.8381111"><ele>742.0</ele><time>2026-04-04T08:41:57.115Z</time></trkpt><trkpt lat="43.9674992" lon="10.8382072"><ele>742.0</ele><time>2026-04-04T08:41:58.115Z</time></trkpt><trkpt lat="43.967586" lon="10.8383169"><ele>742.0</ele><time>2026-04-04T08:41:59.115Z</time></trkpt><trkpt lat="43.967657" lon="10.8383814"><ele>742.0</ele><time>2026-04-04T08:42:00.115Z</time></trkpt><trkpt lat="43.967754" lon="10.8384587"><ele>742.0</ele><time>2026-04-04T08:42:01.115Z</time></trkpt><trkpt lat="43.9678435" lon="10.8385138"><ele>743.0</ele><time>2026-04-04T08:42:02.115Z</time></trkpt><trkpt lat="43.9679256" lon="10.8384838"><ele>744.0</ele><time>2026-04-04T08:42:03.115Z</time></trkpt><trkpt lat="43.9679999" lon="10.8384766"><ele>745.0</ele><time>2026-04-04T08:42:04.115Z</time></trkpt><trkpt lat="43.9680609" lon="10.8384485"><ele>746.0</ele><time>2026-04-04T08:42:05.115Z</time></trkpt><trkpt lat="43.9681866" lon="10.8383849"><ele>747.0</ele><time>2026-04-04T08:42:07.115Z</time></trkpt><trkpt lat="43.9682228" lon="10.838275"><ele>748.0</ele><time>2026-04-04T08:42:08.114Z</time></trkpt><trkpt lat="43.9682864" lon="10.8381864"><ele>744.25</ele><time>2026-04-04T08:42:09.114Z</time></trkpt><trkpt lat="43.9683964" lon="10.8380807"><ele>740.5</ele><time>2026-04-04T08:42:10.115Z</time></trkpt><trkpt lat="43.9684845" lon="10.8379733"><ele>736.75</ele><time>2026-04-04T08:42:11.115Z</time></trkpt><trkpt lat="43.9685591" lon="10.8378633"><ele>733.0</ele><time>2026-04-04T08:42:12.114Z</time></trkpt><trkpt lat="43.9686058" lon="10.8377319"><ele>737.0</ele><time>2026-04-04T08:42:13.114Z</time></trkpt><trkpt lat="43.9686716" lon="10.8375831"><ele>741.0</ele><time>2026-04-04T08:42:14.115Z</time></trkpt><trkpt lat="43.9687554" lon="10.8374342"><ele>745.0</ele><time>2026-04-04T08:42:15.114Z</time></trkpt><trkpt lat="43.9688279" lon="10.8373057"><ele>749.0</ele><time>2026-04-04T08:42:16.115Z</time></trkpt><trkpt lat="43.9688991" lon="10.8372117"><ele>749.0</ele><time>2026-04-04T08:42:17.116Z</time></trkpt><trkpt lat="43.968965" lon="10.8371382"><ele>749.0</ele><time>2026-04-04T08:42:18.115Z</time></trkpt><trkpt lat="43.9690322" lon="10.8371077"><ele>749.0</ele><time>2026-04-04T08:42:19.115Z</time></trkpt><trkpt lat="43.9691172" lon="10.8370594"><ele>749.0</ele><time>2026-04-04T08:42:21.115Z</time></trkpt><trkpt lat="43.9691948" lon="10.8370005"><ele>749.0</ele><time>2026-04-04T08:42:23.114Z</time></trkpt><trkpt lat="43.9692838" lon="10.8368824"><ele>750.0</ele><time>2026-04-04T08:42:25.114Z</time></trkpt><trkpt lat="43.969324" lon="10.8368088"><ele>751.0</ele><time>2026-04-04T08:42:26.114Z</time></trkpt><trkpt lat="43.9693847" lon="10.8367259"><ele>752.0</ele><time>2026-04-04T08:42:27.115Z</time></trkpt><trkpt lat="43.9694374" lon="10.8366429"><ele>753.0</ele><time>2026-04-04T08:42:28.115Z</time></trkpt><trkpt lat="43.9695017" lon="10.8365671"><ele>754.0</ele><time>2026-04-04T08:42:29.115Z</time></trkpt><trkpt lat="43.9695798" lon="10.8365008"><ele>755.0</ele><time>2026-04-04T08:42:30.115Z</time></trkpt><trkpt lat="43.969658" lon="10.8364375"><ele>757.5</ele><time>2026-04-04T08:42:31.115Z</time></trkpt><trkpt lat="43.9697316" lon="10.8364065"><ele>760.0</ele><time>2026-04-04T08:42:32.115Z</time></trkpt><trkpt lat="43.9698027" lon="10.8363822"><ele>762.5</ele><time>2026-04-04T08:42:33.115Z</time></trkpt><trkpt lat="43.9698777" lon="10.836398"><ele>765.0</ele><time>2026-04-04T08:42:34.115Z</time></trkpt><trkpt lat="43.9699753" lon="10.8364468"><ele>767.5000000000001</ele><time>2026-04-04T08:42:35.115Z</time></trkpt><trkpt lat="43.970056" lon="10.8365019"><ele>770.0</ele><time>2026-04-04T08:42:36.115Z</time></trkpt><trkpt lat="43.9701431" lon="10.8365494"><ele>770.2857142857143</ele><time>2026-04-04T08:42:37.115Z</time></trkpt><trkpt lat="43.9702152" lon="10.8366007"><ele>770.5714285714286</ele><time>2026-04-04T08:42:38.115Z</time></trkpt><trkpt lat="43.9702829" lon="10.8366513"><ele>770.8571428571429</ele><time>2026-04-04T08:42:39.115Z</time></trkpt><trkpt lat="43.9703391" lon="10.8367049"><ele>771.1428571428571</ele><time>2026-04-04T08:42:40.114Z</time></trkpt><trkpt lat="43.9703964" lon="10.8367464"><ele>771.4285714285714</ele><time>2026-04-04T08:42:41.115Z</time></trkpt><trkpt lat="43.970467" lon="10.8367467"><ele>771.7142857142858</ele><time>2026-04-04T08:42:42.115Z</time></trkpt><trkpt lat="43.9705454" lon="10.8367301"><ele>772.0</ele><time>2026-04-04T08:42:43.115Z</time></trkpt><trkpt lat="43.9706378" lon="10.8367187"><ele>771.9999999999999</ele><time>2026-04-04T08:42:44.115Z</time></trkpt><trkpt lat="43.970714" lon="10.8367052"><ele>772.0</ele><time>2026-04-04T08:42:45.114Z</time></trkpt><trkpt lat="43.9707991" lon="10.8366848"><ele>772.0</ele><time>2026-04-04T08:42:46.114Z</time></trkpt><trkpt lat="43.9708742" lon="10.8366864"><ele>772.0</ele><time>2026-04-04T08:42:47.115Z</time></trkpt><trkpt lat="43.9709604" lon="10.8366695"><ele>771.9999999999999</ele><time>2026-04-04T08:42:48.114Z</time></trkpt><trkpt lat="43.9710327" lon="10.8366201"><ele>772.0</ele><time>2026-04-04T08:42:49.115Z</time></trkpt><trkpt lat="43.9710958" lon="10.8365962"><ele>769.1666666666666</ele><time>2026-04-04T08:42:50.115Z</time></trkpt><trkpt lat="43.971159" lon="10.836573"><ele>766.3333333333333</ele><time>2026-04-04T08:42:51.114Z</time></trkpt><trkpt lat="43.9712156" lon="10.8365246"><ele>763.5</ele><time>2026-04-04T08:42:52.115Z</time></trkpt><trkpt lat="43.9713437" lon="10.8364117"><ele>760.6666666666666</ele><time>2026-04-04T08:42:54.115Z</time></trkpt><trkpt lat="43.9714208" lon="10.8363641"><ele>757.8333333333333</ele><time>2026-04-04T08:42:55.114Z</time></trkpt><trkpt lat="43.971491" lon="10.836328"><ele>755.0</ele><time>2026-04-04T08:42:56.115Z</time></trkpt><trkpt lat="43.9715616" lon="10.836276"><ele>755.0</ele><time>2026-04-04T08:42:57.115Z</time></trkpt><trkpt lat="43.9716343" lon="10.8362284"><ele>755.0</ele><time>2026-04-04T08:42:58.115Z</time></trkpt><trkpt lat="43.9717092" lon="10.8361692"><ele>755.0</ele><time>2026-04-04T08:42:59.114Z</time></trkpt><trkpt lat="43.9717787" lon="10.8360532"><ele>755.0</ele><time>2026-04-04T08:43:00.115Z</time></trkpt><trkpt lat="43.971893" lon="10.8359824"><ele>755.0</ele><time>2026-04-04T08:43:01.116Z</time></trkpt><trkpt lat="43.9719743" lon="10.8359229"><ele>754.2</ele><time>2026-04-04T08:43:02.114Z</time></trkpt><trkpt lat="43.9720601" lon="10.8358703"><ele>753.4</ele><time>2026-04-04T08:43:03.115Z</time></trkpt><trkpt lat="43.9721518" lon="10.8358225"><ele>752.5999999999999</ele><time>2026-04-04T08:43:05.115Z</time></trkpt><trkpt lat="43.9722785" lon="10.8358401"><ele>751.8</ele><time>2026-04-04T08:43:07.115Z</time></trkpt><trkpt lat="43.9723443" lon="10.8358591"><ele>751.0</ele><time>2026-04-04T08:43:08.115Z</time></trkpt><trkpt lat="43.9724159" lon="10.835876"><ele>751.0</ele><time>2026-04-04T08:43:09.114Z</time></trkpt><trkpt lat="43.9725075" lon="10.83587"><ele>751.0</ele><time>2026-04-04T08:43:10.115Z</time></trkpt><trkpt lat="43.9725698" lon="10.8358444"><ele>751.0</ele><time>2026-04-04T08:43:11.115Z</time></trkpt><trkpt lat="43.9726414" lon="10.8358164"><ele>751.0</ele><time>2026-04-04T08:43:12.115Z</time></trkpt><trkpt lat="43.9726882" lon="10.8357166"><ele>751.0</ele><time>2026-04-04T08:43:13.115Z</time></trkpt><trkpt lat="43.9727344" lon="10.8356364"><ele>751.0</ele><time>2026-04-04T08:43:14.115Z</time></trkpt><trkpt lat="43.9727826" lon="10.8355009"><ele>750.0</ele><time>2026-04-04T08:43:16.115Z</time></trkpt><trkpt lat="43.9727431" lon="10.8354243"><ele>749.0</ele><time>2026-04-04T08:43:17.115Z</time></trkpt><trkpt lat="43.9727447" lon="10.8353169"><ele>748.0</ele><time>2026-04-04T08:43:19.115Z</time></trkpt><trkpt lat="43.9727322" lon="10.8352233"><ele>747.0</ele><time>2026-04-04T08:44:20.115Z</time></trkpt><trkpt lat="43.9727662" lon="10.8351278"><ele>746.0</ele><time>2026-04-04T08:44:22.114Z</time></trkpt><trkpt lat="43.9728227" lon="10.834979"><ele>745.0</ele><time>2026-04-04T08:44:24.114Z</time></trkpt><trkpt lat="43.972857" lon="10.8348771"><ele>745.0</ele><time>2026-04-04T08:44:25.115Z</time></trkpt><trkpt lat="43.9728915" lon="10.834785"><ele>745.0</ele><time>2026-04-04T08:44:26.114Z</time></trkpt><trkpt lat="43.9729373" lon="10.8346694"><ele>745.0</ele><time>2026-04-04T08:44:27.115Z</time></trkpt><trkpt lat="43.9729816" lon="10.834552"><ele>745.0</ele><time>2026-04-04T08:44:28.115Z</time></trkpt><trkpt lat="43.973023" lon="10.8344336"><ele>745.0</ele><time>2026-04-04T08:44:29.115Z</time></trkpt><trkpt lat="43.9730727" lon="10.8343163"><ele>745.6</ele><time>2026-04-04T08:44:30.115Z</time></trkpt><trkpt lat="43.9731351" lon="10.8342017"><ele>746.2</ele><time>2026-04-04T08:44:31.114Z</time></trkpt><trkpt lat="43.9732021" lon="10.834097"><ele>746.8</ele><time>2026-04-04T08:44:32.115Z</time></trkpt><trkpt lat="43.9732708" lon="10.8340016"><ele>747.4</ele><time>2026-04-04T08:44:33.116Z</time></trkpt><trkpt lat="43.9733467" lon="10.8339165"><ele>748.0</ele><time>2026-04-04T08:44:34.116Z</time></trkpt><trkpt lat="43.97343" lon="10.8338419"><ele>748.0</ele><time>2026-04-04T08:44:35.115Z</time></trkpt><trkpt lat="43.9735179" lon="10.8337728"><ele>748.0</ele><time>2026-04-04T08:44:36.114Z</time></trkpt><trkpt lat="43.9736061" lon="10.833707"><ele>748.0</ele><time>2026-04-04T08:44:37.114Z</time></trkpt><trkpt lat="43.9736979" lon="10.8336372"><ele>748.0</ele><time>2026-04-04T08:44:38.115Z</time></trkpt><trkpt lat="43.9737855" lon="10.8335675"><ele>748.0</ele><time>2026-04-04T08:44:39.115Z</time></trkpt><trkpt lat="43.9738742" lon="10.8335039"><ele>749.2</ele><time>2026-04-04T08:44:40.115Z</time></trkpt><trkpt lat="43.973964" lon="10.8334364"><ele>750.4</ele><time>2026-04-04T08:44:41.114Z</time></trkpt><trkpt lat="43.9740486" lon="10.8333672"><ele>751.6</ele><time>2026-04-04T08:44:42.114Z</time></trkpt><trkpt lat="43.9741337" lon="10.8332964"><ele>752.8000000000001</ele><time>2026-04-04T08:44:43.114Z</time></trkpt><trkpt lat="43.9742152" lon="10.8332256"><ele>754.0</ele><time>2026-04-04T08:44:44.115Z</time></trkpt><trkpt lat="43.9742931" lon="10.8331519"><ele>754.0</ele><time>2026-04-04T08:44:45.114Z</time></trkpt><trkpt lat="43.974368" lon="10.8330818"><ele>754.0</ele><time>2026-04-04T08:44:46.115Z</time></trkpt><trkpt lat="43.9744456" lon="10.8330089"><ele>754.0</ele><time>2026-04-04T08:44:47.114Z</time></trkpt><trkpt lat="43.9745269" lon="10.8329295"><ele>754.0</ele><time>2026-04-04T08:44:48.115Z</time></trkpt><trkpt lat="43.9746157" lon="10.8328427"><ele>754.0</ele><time>2026-04-04T08:44:49.115Z</time></trkpt><trkpt lat="43.9747073" lon="10.8327486"><ele>754.0</ele><time>2026-04-04T08:44:50.115Z</time></trkpt><trkpt lat="43.9748038" lon="10.8326488"><ele>754.0</ele><time>2026-04-04T08:44:51.115Z</time></trkpt><trkpt lat="43.9749046" lon="10.8325446"><ele>754.0</ele><time>2026-04-04T08:44:52.115Z</time></trkpt><trkpt lat="43.9750069" lon="10.8324382"><ele>754.0</ele><time>2026-04-04T08:44:53.115Z</time></trkpt><trkpt lat="43.9751128" lon="10.8323348"><ele>756.5</ele><time>2026-04-04T08:44:54.115Z</time></trkpt><trkpt lat="43.9752205" lon="10.8322324"><ele>759.0</ele><time>2026-04-04T08:44:55.115Z</time></trkpt><trkpt lat="43.9753275" lon="10.8321221"><ele>761.5</ele><time>2026-04-04T08:44:56.115Z</time></trkpt><trkpt lat="43.9754342" lon="10.8320075"><ele>764.0</ele><time>2026-04-04T08:44:57.114Z</time></trkpt><trkpt lat="43.9755402" lon="10.831882"><ele>765.5</ele><time>2026-04-04T08:44:58.115Z</time></trkpt><trkpt lat="43.9756478" lon="10.8317578"><ele>767.0</ele><time>2026-04-04T08:44:59.115Z</time></trkpt><trkpt lat="43.9757519" lon="10.8316322"><ele>768.5</ele><time>2026-04-04T08:45:00.115Z</time></trkpt><trkpt lat="43.9758603" lon="10.8314974"><ele>770.0</ele><time>2026-04-04T08:45:01.115Z</time></trkpt><trkpt lat="43.9759744" lon="10.8313406"><ele>770.5</ele><time>2026-04-04T08:45:02.114Z</time></trkpt><trkpt lat="43.9760704" lon="10.8311955"><ele>771.0</ele><time>2026-04-04T08:45:03.114Z</time></trkpt><trkpt lat="43.9761629" lon="10.8310413"><ele>771.5</ele><time>2026-04-04T08:45:04.115Z</time></trkpt><trkpt lat="43.9762523" lon="10.8308747"><ele>772.0</ele><time>2026-04-04T08:45:05.115Z</time></trkpt><trkpt lat="43.9763491" lon="10.8307041"><ele>773.3333333333333</ele><time>2026-04-04T08:45:06.115Z</time></trkpt><trkpt lat="43.9764619" lon="10.8305576"><ele>774.6666666666667</ele><time>2026-04-04T08:45:07.115Z</time></trkpt><trkpt lat="43.9765768" lon="10.8304053"><ele>776.0</ele><time>2026-04-04T08:45:08.115Z</time></trkpt><trkpt lat="43.9766918" lon="10.8302496"><ele>773.25</ele><time>2026-04-04T08:45:09.114Z</time></trkpt><trkpt lat="43.9768058" lon="10.8301021"><ele>770.5</ele><time>2026-04-04T08:45:10.115Z</time></trkpt><trkpt lat="43.9769152" lon="10.8299617"><ele>767.75</ele><time>2026-04-04T08:45:11.114Z</time></trkpt><trkpt lat="43.9770221" lon="10.8298267"><ele>765.0</ele><time>2026-04-04T08:45:12.114Z</time></trkpt><trkpt lat="43.9771305" lon="10.8296979"><ele>765.0</ele><time>2026-04-04T08:45:13.114Z</time></trkpt><trkpt lat="43.9772432" lon="10.8295688"><ele>765.0</ele><time>2026-04-04T08:45:14.115Z</time></trkpt><trkpt lat="43.9773564" lon="10.8294368"><ele>765.0</ele><time>2026-04-04T08:45:15.115Z</time></trkpt><trkpt lat="43.977468" lon="10.8293046"><ele>765.0</ele><time>2026-04-04T08:45:16.115Z</time></trkpt><trkpt lat="43.9775808" lon="10.8291724"><ele>763.0</ele><time>2026-04-04T08:45:17.115Z</time></trkpt><trkpt lat="43.9776947" lon="10.8290466"><ele>761.0</ele><time>2026-04-04T08:45:18.115Z</time></trkpt><trkpt lat="43.97781" lon="10.8289165"><ele>759.0</ele><time>2026-04-04T08:45:19.115Z</time></trkpt><trkpt lat="43.9779189" lon="10.8287799"><ele>757.0</ele><time>2026-04-04T08:45:20.115Z</time></trkpt><trkpt lat="43.978021" lon="10.8286376"><ele>757.0</ele><time>2026-04-04T08:45:21.115Z</time></trkpt><trkpt lat="43.9781203" lon="10.828499"><ele>757.0</ele><time>2026-04-04T08:45:22.115Z</time></trkpt><trkpt lat="43.9782203" lon="10.8283686"><ele>757.0</ele><time>2026-04-04T08:45:23.115Z</time></trkpt><trkpt lat="43.9783243" lon="10.8282447"><ele>757.0</ele><time>2026-04-04T08:45:24.115Z</time></trkpt><trkpt lat="43.9784321" lon="10.8281187"><ele>757.0</ele><time>2026-04-04T08:45:25.115Z</time></trkpt><trkpt lat="43.9785377" lon="10.8280007"><ele>757.0</ele><time>2026-04-04T08:45:26.114Z</time></trkpt><trkpt lat="43.9786486" lon="10.8278797"><ele>757.0</ele><time>2026-04-04T08:45:27.115Z</time></trkpt><trkpt lat="43.9787596" lon="10.8277499"><ele>757.0</ele><time>2026-04-04T08:45:28.115Z</time></trkpt><trkpt lat="43.978866" lon="10.8276126"><ele>759.0</ele><time>2026-04-04T08:45:29.116Z</time></trkpt><trkpt lat="43.9789746" lon="10.8274796"><ele>761.0</ele><time>2026-04-04T08:45:30.114Z</time></trkpt><trkpt lat="43.9790877" lon="10.827356"><ele>763.0</ele><time>2026-04-04T08:45:31.115Z</time></trkpt><trkpt lat="43.9791899" lon="10.8272477"><ele>765.0</ele><time>2026-04-04T08:45:32.116Z</time></trkpt><trkpt lat="43.979282" lon="10.8271581"><ele>765.0000000000001</ele><time>2026-04-04T08:45:33.115Z</time></trkpt><trkpt lat="43.9793685" lon="10.8270916"><ele>765.0</ele><time>2026-04-04T08:45:34.115Z</time></trkpt><trkpt lat="43.9794395" lon="10.8270395"><ele>765.0</ele><time>2026-04-04T08:45:35.115Z</time></trkpt><trkpt lat="43.9794965" lon="10.8269905"><ele>765.0</ele><time>2026-04-04T08:45:36.114Z</time></trkpt><trkpt lat="43.9795544" lon="10.8269462"><ele>765.0</ele><time>2026-04-04T08:45:37.115Z</time></trkpt><trkpt lat="43.9796205" lon="10.8269525"><ele>765.0000000000001</ele><time>2026-04-04T08:45:38.114Z</time></trkpt><trkpt lat="43.9796897" lon="10.8269318"><ele>765.0</ele><time>2026-04-04T08:45:39.113Z</time></trkpt><trkpt lat="43.9797529" lon="10.8268945"><ele>765.0</ele><time>2026-04-04T08:45:40.114Z</time></trkpt><trkpt lat="43.9799079" lon="10.8268133"><ele>765.0</ele><time>2026-04-04T08:45:42.114Z</time></trkpt><trkpt lat="43.9799931" lon="10.8267489"><ele>765.0</ele><time>2026-04-04T08:45:43.114Z</time></trkpt><trkpt lat="43.9800828" lon="10.8266402"><ele>765.0</ele><time>2026-04-04T08:45:44.114Z</time></trkpt><trkpt lat="43.9801757" lon="10.8265584"><ele>768.4</ele><time>2026-04-04T08:45:45.114Z</time></trkpt><trkpt lat="43.9802636" lon="10.8264683"><ele>771.8</ele><time>2026-04-04T08:45:46.114Z</time></trkpt><trkpt lat="43.9803414" lon="10.8263741"><ele>775.2</ele><time>2026-04-04T08:45:47.114Z</time></trkpt><trkpt lat="43.9804286" lon="10.8263199"><ele>778.6</ele><time>2026-04-04T08:45:48.114Z</time></trkpt><trkpt lat="43.9804983" lon="10.8262394"><ele>782.0</ele><time>2026-04-04T08:45:49.114Z</time></trkpt><trkpt lat="43.980584" lon="10.8261722"><ele>782.0</ele><time>2026-04-04T08:45:50.113Z</time></trkpt><trkpt lat="43.980656" lon="10.826101"><ele>782.0</ele><time>2026-04-04T08:45:51.114Z</time></trkpt><trkpt lat="43.9807358" lon="10.8260281"><ele>782.0</ele><time>2026-04-04T08:45:52.114Z</time></trkpt><trkpt lat="43.9808135" lon="10.8259558"><ele>782.0</ele><time>2026-04-04T08:45:53.113Z</time></trkpt><trkpt lat="43.9808985" lon="10.8258881"><ele>782.0</ele><time>2026-04-04T08:45:54.114Z</time></trkpt><trkpt lat="43.9809843" lon="10.8258318"><ele>785.0</ele><time>2026-04-04T08:45:55.114Z</time></trkpt><trkpt lat="43.9810956" lon="10.8257911"><ele>788.0</ele><time>2026-04-04T08:45:56.114Z</time></trkpt><trkpt lat="43.9811553" lon="10.8256993"><ele>791.0</ele><time>2026-04-04T08:45:57.114Z</time></trkpt><trkpt lat="43.9812285" lon="10.8256369"><ele>794.0</ele><time>2026-04-04T08:45:58.114Z</time></trkpt><trkpt lat="43.9812999" lon="10.8255478"><ele>797.0</ele><time>2026-04-04T08:45:59.114Z</time></trkpt><trkpt lat="43.9813715" lon="10.8254705"><ele>797.0</ele><time>2026-04-04T08:46:00.114Z</time></trkpt><trkpt lat="43.9814396" lon="10.8253852"><ele>797.0</ele><time>2026-04-04T08:46:01.114Z</time></trkpt><trkpt lat="43.9815387" lon="10.8253175"><ele>797.0</ele><time>2026-04-04T08:46:02.114Z</time></trkpt><trkpt lat="43.9816194" lon="10.8252365"><ele>797.0</ele><time>2026-04-04T08:46:03.114Z</time></trkpt><trkpt lat="43.9817109" lon="10.8251608"><ele>797.0</ele><time>2026-04-04T08:46:04.114Z</time></trkpt><trkpt lat="43.9817829" lon="10.8250952"><ele>799.8</ele><time>2026-04-04T08:46:05.114Z</time></trkpt><trkpt lat="43.9818639" lon="10.8250093"><ele>802.6</ele><time>2026-04-04T08:46:06.113Z</time></trkpt><trkpt lat="43.9819481" lon="10.8249364"><ele>805.4</ele><time>2026-04-04T08:46:07.113Z</time></trkpt><trkpt lat="43.9820441" lon="10.8248694"><ele>808.1999999999999</ele><time>2026-04-04T08:46:08.114Z</time></trkpt><trkpt lat="43.9821284" lon="10.8247949"><ele>811.0</ele><time>2026-04-04T08:46:09.114Z</time></trkpt><trkpt lat="43.9822096" lon="10.824707"><ele>811.0</ele><time>2026-04-04T08:46:10.114Z</time></trkpt><trkpt lat="43.9822942" lon="10.824627"><ele>811.0</ele><time>2026-04-04T08:46:11.115Z</time></trkpt><trkpt lat="43.9824118" lon="10.8245849"><ele>811.0</ele><time>2026-04-04T08:46:12.113Z</time></trkpt><trkpt lat="43.9824984" lon="10.8244998"><ele>811.0</ele><time>2026-04-04T08:46:13.113Z</time></trkpt><trkpt lat="43.9825911" lon="10.8244334"><ele>811.0</ele><time>2026-04-04T08:46:14.114Z</time></trkpt><trkpt lat="43.9826835" lon="10.8243582"><ele>813.8</ele><time>2026-04-04T08:46:15.114Z</time></trkpt><trkpt lat="43.9827697" lon="10.8242721"><ele>816.5999999999999</ele><time>2026-04-04T08:46:16.113Z</time></trkpt><trkpt lat="43.9828475" lon="10.8241708"><ele>819.4</ele><time>2026-04-04T08:46:17.114Z</time></trkpt><trkpt lat="43.9829197" lon="10.8240627"><ele>822.2</ele><time>2026-04-04T08:46:18.113Z</time></trkpt><trkpt lat="43.982969" lon="10.8239759"><ele>825.0</ele><time>2026-04-04T08:46:19.114Z</time></trkpt><trkpt lat="43.9829907" lon="10.8238902"><ele>825.0</ele><time>2026-04-04T08:46:20.114Z</time></trkpt><trkpt lat="43.9830222" lon="10.8238089"><ele>825.0</ele><time>2026-04-04T08:46:21.115Z</time></trkpt><trkpt lat="43.9830667" lon="10.8237069"><ele>825.0</ele><time>2026-04-04T08:46:30.114Z</time></trkpt><trkpt lat="43.9831353" lon="10.8236083"><ele>825.0</ele><time>2026-04-04T08:46:32.115Z</time></trkpt><trkpt lat="43.9831812" lon="10.8235297"><ele>825.0</ele><time>2026-04-04T08:46:33.114Z</time></trkpt><trkpt lat="43.9832613" lon="10.8233989"><ele>825.0</ele><time>2026-04-04T08:46:35.114Z</time></trkpt><trkpt lat="43.9833413" lon="10.8232786"><ele>830.2</ele><time>2026-04-04T08:46:37.114Z</time></trkpt><trkpt lat="43.9834237" lon="10.8231501"><ele>835.4</ele><time>2026-04-04T08:46:39.114Z</time></trkpt><trkpt lat="43.9834778" lon="10.8230708"><ele>840.5999999999999</ele><time>2026-04-04T08:46:42.114Z</time></trkpt><trkpt lat="43.9835362" lon="10.8230028"><ele>845.8</ele><time>2026-04-04T08:46:54.114Z</time></trkpt><trkpt lat="43.9836105" lon="10.8229466"><ele>851.0</ele><time>2026-04-04T08:46:57.113Z</time></trkpt><trkpt lat="43.9837118" lon="10.8229179"><ele>851.0000000000001</ele><time>2026-04-04T08:47:00.113Z</time></trkpt><trkpt lat="43.9837869" lon="10.8229526"><ele>851.0</ele><time>2026-04-04T08:47:01.114Z</time></trkpt><trkpt lat="43.9838954" lon="10.8229743"><ele>851.0</ele><time>2026-04-04T08:47:03.114Z</time></trkpt><trkpt lat="43.9839595" lon="10.8229788"><ele>851.0</ele><time>2026-04-04T08:47:04.113Z</time></trkpt><trkpt lat="43.9840445" lon="10.8229613"><ele>851.0000000000001</ele><time>2026-04-04T08:47:06.114Z</time></trkpt><trkpt lat="43.984108" lon="10.8229648"><ele>851.0</ele><time>2026-04-04T08:47:07.114Z</time></trkpt><trkpt lat="43.9841819" lon="10.8229891"><ele>856.1999999999999</ele><time>2026-04-04T08:47:09.114Z</time></trkpt><trkpt lat="43.9842648" lon="10.8229569"><ele>861.4</ele><time>2026-04-04T08:47:11.113Z</time></trkpt><trkpt lat="43.9843654" lon="10.8229234"><ele>866.6</ele><time>2026-04-04T08:47:13.113Z</time></trkpt><trkpt lat="43.9844526" lon="10.8228694"><ele>871.8</ele><time>2026-04-04T08:47:15.114Z</time></trkpt><trkpt lat="43.984519" lon="10.8228524"><ele>877.0</ele><time>2026-04-04T08:47:16.114Z</time></trkpt><trkpt lat="43.9846606" lon="10.822769"><ele>876.9999999999999</ele><time>2026-04-04T08:47:18.114Z</time></trkpt><trkpt lat="43.9847188" lon="10.8227227"><ele>877.0</ele><time>2026-04-04T08:47:19.115Z</time></trkpt><trkpt lat="43.9847816" lon="10.8226813"><ele>877.0</ele><time>2026-04-04T08:47:20.114Z</time></trkpt><trkpt lat="43.9848488" lon="10.8226311"><ele>877.0</ele><time>2026-04-04T08:47:21.114Z</time></trkpt><trkpt lat="43.9849541" lon="10.8225575"><ele>876.9999999999999</ele><time>2026-04-04T08:47:23.113Z</time></trkpt><trkpt lat="43.9850169" lon="10.8225025"><ele>877.0</ele><time>2026-04-04T08:47:24.114Z</time></trkpt><trkpt lat="43.9850914" lon="10.8224762"><ele>879.8333333333333</ele><time>2026-04-04T08:47:25.114Z</time></trkpt><trkpt lat="43.9851676" lon="10.8224426"><ele>882.6666666666666</ele><time>2026-04-04T08:47:26.114Z</time></trkpt><trkpt lat="43.9852502" lon="10.8223394"><ele>885.5</ele><time>2026-04-04T08:47:28.113Z</time></trkpt><trkpt lat="43.985316" lon="10.8223093"><ele>888.3333333333333</ele><time>2026-04-04T08:47:30.114Z</time></trkpt><trkpt lat="43.9853155" lon="10.8223975"><ele>891.1666666666666</ele><time>2026-04-04T08:47:32.114Z</time></trkpt><trkpt lat="43.9853645" lon="10.822483"><ele>894.0</ele><time>2026-04-04T08:47:35.113Z</time></trkpt><trkpt lat="43.985418" lon="10.8225566"><ele>894.0</ele><time>2026-04-04T08:47:38.114Z</time></trkpt><trkpt lat="43.9854592" lon="10.8226381"><ele>894.0</ele><time>2026-04-04T08:47:41.113Z</time></trkpt><trkpt lat="43.985495" lon="10.82275"><ele>894.0</ele><time>2026-04-04T08:47:43.114Z</time></trkpt><trkpt lat="43.9855395" lon="10.8228576"><ele>894.0</ele><time>2026-04-04T08:47:45.114Z</time></trkpt><trkpt lat="43.9856026" lon="10.8229436"><ele>894.0</ele><time>2026-04-04T08:47:47.114Z</time></trkpt><trkpt lat="43.9856743" lon="10.8230296"><ele>894.0</ele><time>2026-04-04T08:47:49.114Z</time></trkpt><trkpt lat="43.9857336" lon="10.8231157"><ele>894.3333333333334</ele><time>2026-04-04T08:47:50.113Z</time></trkpt><trkpt lat="43.9857976" lon="10.8231676"><ele>894.6666666666667</ele><time>2026-04-04T08:47:51.114Z</time></trkpt><trkpt lat="43.9858961" lon="10.8232497"><ele>895.0</ele><time>2026-04-04T08:47:53.113Z</time></trkpt><trkpt lat="43.985958" lon="10.8232861"><ele>895.3333333333334</ele><time>2026-04-04T08:47:54.113Z</time></trkpt><trkpt lat="43.9860243" lon="10.8233229"><ele>895.6666666666667</ele><time>2026-04-04T08:47:55.114Z</time></trkpt><trkpt lat="43.9860915" lon="10.8232717"><ele>896.0</ele><time>2026-04-04T08:48:21.114Z</time></trkpt><trkpt lat="43.9860992" lon="10.8231469"><ele>897.3333333333334</ele><time>2026-04-04T08:48:23.114Z</time></trkpt><trkpt lat="43.9861048" lon="10.8230353"><ele>898.6666666666667</ele><time>2026-04-04T08:48:24.114Z</time></trkpt><trkpt lat="43.9861225" lon="10.8229361"><ele>900.0</ele><time>2026-04-04T08:48:25.113Z</time></trkpt><trkpt lat="43.9861586" lon="10.822828"><ele>901.3333333333333</ele><time>2026-04-04T08:48:26.114Z</time></trkpt><trkpt lat="43.986191" lon="10.8227373"><ele>902.6666666666666</ele><time>2026-04-04T08:48:27.114Z</time></trkpt><trkpt lat="43.9862512" lon="10.8226277"><ele>904.0</ele><time>2026-04-04T08:48:28.114Z</time></trkpt><trkpt lat="43.9863157" lon="10.8225222"><ele>903.9999999999999</ele><time>2026-04-04T08:48:29.114Z</time></trkpt><trkpt lat="43.986375" lon="10.8224142"><ele>904.0</ele><time>2026-04-04T08:48:30.114Z</time></trkpt><trkpt lat="43.986416" lon="10.8223145"><ele>904.0</ele><time>2026-04-04T08:48:31.114Z</time></trkpt><trkpt lat="43.9864718" lon="10.8222163"><ele>904.0</ele><time>2026-04-04T08:48:32.114Z</time></trkpt><trkpt lat="43.9865339" lon="10.8221945"><ele>903.9999999999999</ele><time>2026-04-04T08:48:33.113Z</time></trkpt><trkpt lat="43.9866372" lon="10.8221978"><ele>904.0</ele><time>2026-04-04T08:48:34.113Z</time></trkpt><trkpt lat="43.9867277" lon="10.8221664"><ele>906.6</ele><time>2026-04-04T08:48:35.113Z</time></trkpt><trkpt lat="43.9868174" lon="10.8221485"><ele>909.2</ele><time>2026-04-04T08:48:36.115Z</time></trkpt><trkpt lat="43.9869142" lon="10.8221459"><ele>911.8000000000001</ele><time>2026-04-04T08:48:37.114Z</time></trkpt><trkpt lat="43.987012" lon="10.8221428"><ele>914.4000000000001</ele><time>2026-04-04T08:48:38.114Z</time></trkpt><trkpt lat="43.9871093" lon="10.822166"><ele>917.0</ele><time>2026-04-04T08:48:39.114Z</time></trkpt><trkpt lat="43.9872017" lon="10.822161"><ele>917.0000000000001</ele><time>2026-04-04T08:48:40.114Z</time></trkpt><trkpt lat="43.9872889" lon="10.8221358"><ele>917.0</ele><time>2026-04-04T08:48:41.114Z</time></trkpt><trkpt lat="43.9873401" lon="10.8220552"><ele>917.0</ele><time>2026-04-04T08:48:42.113Z</time></trkpt><trkpt lat="43.9873895" lon="10.8219983"><ele>917.0</ele><time>2026-04-04T08:48:43.114Z</time></trkpt><trkpt lat="43.9874417" lon="10.8219397"><ele>917.0000000000001</ele><time>2026-04-04T08:48:44.114Z</time></trkpt><trkpt lat="43.9874432" lon="10.8218282"><ele>917.0</ele><time>2026-04-04T08:48:45.115Z</time></trkpt><trkpt lat="43.9874235" lon="10.8216031"><ele>916.8</ele><time>2026-04-04T08:48:47.114Z</time></trkpt><trkpt lat="43.9873943" lon="10.821465"><ele>916.6</ele><time>2026-04-04T08:48:48.114Z</time></trkpt><trkpt lat="43.9873706" lon="10.8213063"><ele>916.3999999999999</ele><time>2026-04-04T08:48:49.113Z</time></trkpt><trkpt lat="43.9873476" lon="10.8211415"><ele>916.1999999999999</ele><time>2026-04-04T08:48:50.114Z</time></trkpt><trkpt lat="43.987321" lon="10.821"><ele>916.0</ele><time>2026-04-04T08:48:51.114Z</time></trkpt><trkpt lat="43.987285" lon="10.8208909"><ele>918.0</ele><time>2026-04-04T08:48:52.114Z</time></trkpt><trkpt lat="43.9872589" lon="10.8207867"><ele>919.9999999999999</ele><time>2026-04-04T08:48:53.114Z</time></trkpt><trkpt lat="43.9873091" lon="10.8206963"><ele>921.9999999999999</ele><time>2026-04-04T08:48:55.113Z</time></trkpt><trkpt lat="43.9873985" lon="10.8207671"><ele>924.0</ele><time>2026-04-04T08:48:57.113Z</time></trkpt><trkpt lat="43.9874694" lon="10.8208804"><ele>926.0</ele><time>2026-04-04T08:48:58.113Z</time></trkpt><trkpt lat="43.98754" lon="10.8209913"><ele>926.4</ele><time>2026-04-04T08:48:59.114Z</time></trkpt><trkpt lat="43.9876018" lon="10.8210869"><ele>926.8</ele><time>2026-04-04T08:49:00.114Z</time></trkpt><trkpt lat="43.9876768" lon="10.8212485"><ele>927.1999999999999</ele><time>2026-04-04T08:49:01.114Z</time></trkpt><trkpt lat="43.9877417" lon="10.8213439"><ele>927.5999999999999</ele><time>2026-04-04T08:49:02.114Z</time></trkpt><trkpt lat="43.9878121" lon="10.8214518"><ele>928.0</ele><time>2026-04-04T08:49:03.114Z</time></trkpt><trkpt lat="43.9878879" lon="10.8215368"><ele>928.0</ele><time>2026-04-04T08:49:04.114Z</time></trkpt><trkpt lat="43.987957" lon="10.8215858"><ele>928.0</ele><time>2026-04-04T08:49:05.113Z</time></trkpt><trkpt lat="43.9880308" lon="10.8215935"><ele>928.0</ele><time>2026-04-04T08:49:06.114Z</time></trkpt><trkpt lat="43.9881013" lon="10.8215794"><ele>928.0</ele><time>2026-04-04T08:49:07.114Z</time></trkpt><trkpt lat="43.9882205" lon="10.8214775"><ele>928.0</ele><time>2026-04-04T08:49:08.114Z</time></trkpt><trkpt lat="43.988309" lon="10.8213946"><ele>925.1666666666666</ele><time>2026-04-04T08:49:09.113Z</time></trkpt><trkpt lat="43.9884157" lon="10.8213133"><ele>922.3333333333333</ele><time>2026-04-04T08:49:10.114Z</time></trkpt><trkpt lat="43.9884608" lon="10.8212332"><ele>919.5</ele><time>2026-04-04T08:49:11.114Z</time></trkpt><trkpt lat="43.9885036" lon="10.8211504"><ele>916.6666666666667</ele><time>2026-04-04T08:49:12.114Z</time></trkpt><trkpt lat="43.9885057" lon="10.8210229"><ele>913.8333333333334</ele><time>2026-04-04T08:49:13.114Z</time></trkpt><trkpt lat="43.9885032" lon="10.8209108"><ele>911.0</ele><time>2026-04-04T08:49:14.113Z</time></trkpt><trkpt lat="43.9885196" lon="10.8208005"><ele>911.0</ele><time>2026-04-04T08:49:15.114Z</time></trkpt><trkpt lat="43.9885255" lon="10.8206732"><ele>910.9999999999999</ele><time>2026-04-04T08:49:16.113Z</time></trkpt><trkpt lat="43.988511" lon="10.82055"><ele>910.9999999999999</ele><time>2026-04-04T08:49:17.114Z</time></trkpt><trkpt lat="43.9884568" lon="10.8204095"><ele>911.0</ele><time>2026-04-04T08:49:18.114Z</time></trkpt><trkpt lat="43.9884257" lon="10.820287"><ele>911.0</ele><time>2026-04-04T08:49:19.113Z</time></trkpt><trkpt lat="43.9884038" lon="10.8201738"><ele>913.6666666666667</ele><time>2026-04-04T08:49:20.114Z</time></trkpt><trkpt lat="43.9883776" lon="10.8200595"><ele>916.3333333333334</ele><time>2026-04-04T08:49:21.113Z</time></trkpt><trkpt lat="43.9883749" lon="10.819959"><ele>919.0</ele><time>2026-04-04T08:49:22.114Z</time></trkpt><trkpt lat="43.9883748" lon="10.8198603"><ele>921.6666666666667</ele><time>2026-04-04T08:49:23.113Z</time></trkpt><trkpt lat="43.9884056" lon="10.8197363"><ele>924.3333333333334</ele><time>2026-04-04T08:49:25.113Z</time></trkpt><trkpt lat="43.9884434" lon="10.8196307"><ele>927.0</ele><time>2026-04-04T08:49:27.114Z</time></trkpt><trkpt lat="43.9884574" lon="10.8195314"><ele>927.0</ele><time>2026-04-04T08:49:28.114Z</time></trkpt><trkpt lat="43.9884322" lon="10.8194398"><ele>927.0</ele><time>2026-04-04T08:49:29.114Z</time></trkpt><trkpt lat="43.9884337" lon="10.8193354"><ele>927.0</ele><time>2026-04-04T08:49:30.113Z</time></trkpt><trkpt lat="43.9884219" lon="10.8192271"><ele>927.0</ele><time>2026-04-04T08:49:31.114Z</time></trkpt><trkpt lat="43.9884165" lon="10.819126"><ele>927.0</ele><time>2026-04-04T08:49:32.114Z</time></trkpt><trkpt lat="43.9884139" lon="10.819007"><ele>927.0</ele><time>2026-04-04T08:49:33.113Z</time></trkpt><trkpt lat="43.9884543" lon="10.8188255"><ele>930.6</ele><time>2026-04-04T08:49:34.114Z</time></trkpt><trkpt lat="43.9884964" lon="10.8187307"><ele>934.2</ele><time>2026-04-04T08:49:35.113Z</time></trkpt><trkpt lat="43.9885608" lon="10.8186674"><ele>937.8</ele><time>2026-04-04T08:49:36.114Z</time></trkpt><trkpt lat="43.9886408" lon="10.8186026"><ele>941.4</ele><time>2026-04-04T08:49:37.114Z</time></trkpt><trkpt lat="43.9887171" lon="10.8185314"><ele>945.0</ele><time>2026-04-04T08:49:38.114Z</time></trkpt><trkpt lat="43.9888178" lon="10.8184768"><ele>948.2</ele><time>2026-04-04T08:49:39.114Z</time></trkpt><trkpt lat="43.9889037" lon="10.8184231"><ele>951.4</ele><time>2026-04-04T08:49:40.113Z</time></trkpt><trkpt lat="43.9890014" lon="10.8183843"><ele>954.5999999999999</ele><time>2026-04-04T08:49:41.114Z</time></trkpt><trkpt lat="43.9890996" lon="10.818355"><ele>957.8</ele><time>2026-04-04T08:49:42.113Z</time></trkpt><trkpt lat="43.9892011" lon="10.8182854"><ele>961.0</ele><time>2026-04-04T08:49:43.114Z</time></trkpt><trkpt lat="43.9892661" lon="10.8182164"><ele>962.1999999999999</ele><time>2026-04-04T08:49:44.113Z</time></trkpt><trkpt lat="43.9893415" lon="10.8181561"><ele>963.3999999999999</ele><time>2026-04-04T08:49:45.114Z</time></trkpt><trkpt lat="43.9894232" lon="10.8181028"><ele>964.6</ele><time>2026-04-04T08:49:46.114Z</time></trkpt><trkpt lat="43.9895241" lon="10.8180676"><ele>965.8</ele><time>2026-04-04T08:49:47.114Z</time></trkpt><trkpt lat="43.989635" lon="10.818051"><ele>967.0</ele><time>2026-04-04T08:49:48.114Z</time></trkpt><trkpt lat="43.9897466" lon="10.8180351"><ele>967.0</ele><time>2026-04-04T08:49:49.114Z</time></trkpt><trkpt lat="43.989873" lon="10.8180263"><ele>967.0</ele><time>2026-04-04T08:49:50.115Z</time></trkpt><trkpt lat="43.989985" lon="10.8180242"><ele>967.0</ele><time>2026-04-04T08:49:51.114Z</time></trkpt><trkpt lat="43.9900983" lon="10.8180208"><ele>967.0</ele><time>2026-04-04T08:49:52.114Z</time></trkpt><trkpt lat="43.9902058" lon="10.8180154"><ele>971.0</ele><time>2026-04-04T08:49:53.114Z</time></trkpt><trkpt lat="43.9903223" lon="10.8180065"><ele>975.0</ele><time>2026-04-04T08:49:54.114Z</time></trkpt><trkpt lat="43.9904342" lon="10.8179752"><ele>979.0</ele><time>2026-04-04T08:49:55.113Z</time></trkpt><trkpt lat="43.9905518" lon="10.817949"><ele>983.0</ele><time>2026-04-04T08:49:56.113Z</time></trkpt><trkpt lat="43.9906603" lon="10.8179357"><ele>983.0</ele><time>2026-04-04T08:49:57.114Z</time></trkpt><trkpt lat="43.9907694" lon="10.8179273"><ele>983.0</ele><time>2026-04-04T08:49:58.114Z</time></trkpt><trkpt lat="43.9908541" lon="10.8178807"><ele>983.0</ele><time>2026-04-04T08:49:59.113Z</time></trkpt><trkpt lat="43.9909629" lon="10.8178466"><ele>983.0</ele><time>2026-04-04T08:50:00.113Z</time></trkpt><trkpt lat="43.9910821" lon="10.8178119"><ele>983.0</ele><time>2026-04-04T08:50:01.113Z</time></trkpt><trkpt lat="43.9911762" lon="10.8177535"><ele>983.2</ele><time>2026-04-04T08:50:02.114Z</time></trkpt><trkpt lat="43.9912779" lon="10.8176975"><ele>983.4</ele><time>2026-04-04T08:50:04.113Z</time></trkpt><trkpt lat="43.9913682" lon="10.8176735"><ele>983.6000000000001</ele><time>2026-04-04T08:50:06.114Z</time></trkpt><trkpt lat="43.9914604" lon="10.8176543"><ele>983.8000000000001</ele><time>2026-04-04T08:50:09.114Z</time></trkpt><trkpt lat="43.9915652" lon="10.8176028"><ele>984.0</ele><time>2026-04-04T08:50:11.113Z</time></trkpt><trkpt lat="43.9916816" lon="10.8175793"><ele>980.6666666666666</ele><time>2026-04-04T08:50:13.115Z</time></trkpt><trkpt lat="43.9917624" lon="10.8175755"><ele>977.3333333333333</ele><time>2026-04-04T08:50:14.115Z</time></trkpt><trkpt lat="43.9918367" lon="10.8175727"><ele>974.0</ele><time>2026-04-04T08:50:15.113Z</time></trkpt><trkpt lat="43.9919124" lon="10.8175785"><ele>970.6666666666666</ele><time>2026-04-04T08:50:16.114Z</time></trkpt><trkpt lat="43.9919824" lon="10.8175675"><ele>967.3333333333333</ele><time>2026-04-04T08:50:17.114Z</time></trkpt><trkpt lat="43.992048" lon="10.8175544"><ele>964.0</ele><time>2026-04-04T08:50:18.114Z</time></trkpt><trkpt lat="43.9921562" lon="10.8175153"><ele>963.9999999999999</ele><time>2026-04-04T08:50:20.114Z</time></trkpt><trkpt lat="43.9922465" lon="10.8175093"><ele>964.0</ele><time>2026-04-04T08:50:22.114Z</time></trkpt><trkpt lat="43.9923573" lon="10.8174705"><ele>964.0</ele><time>2026-04-04T08:50:24.114Z</time></trkpt><trkpt lat="43.9924186" lon="10.8174088"><ele>964.0</ele><time>2026-04-04T08:50:25.114Z</time></trkpt><trkpt lat="43.992481" lon="10.8173599"><ele>963.9999999999999</ele><time>2026-04-04T08:50:26.113Z</time></trkpt><trkpt lat="43.9925559" lon="10.8173108"><ele>964.0</ele><time>2026-04-04T08:50:27.114Z</time></trkpt><trkpt lat="43.9926235" lon="10.8172841"><ele>960.9999999999999</ele><time>2026-04-04T08:50:28.113Z</time></trkpt><trkpt lat="43.9927353" lon="10.8173607"><ele>958.0</ele><time>2026-04-04T08:50:29.114Z</time></trkpt><trkpt lat="43.9928126" lon="10.8173507"><ele>955.0</ele><time>2026-04-04T08:50:30.114Z</time></trkpt><trkpt lat="43.9928824" lon="10.8173597"><ele>952.0</ele><time>2026-04-04T08:50:31.113Z</time></trkpt><trkpt lat="43.992945" lon="10.8173321"><ele>948.9999999999999</ele><time>2026-04-04T08:50:32.114Z</time></trkpt><trkpt lat="43.9930297" lon="10.8173462"><ele>946.0</ele><time>2026-04-04T08:50:33.113Z</time></trkpt><trkpt lat="43.9931065" lon="10.8173326"><ele>946.0</ele><time>2026-04-04T08:50:34.114Z</time></trkpt><trkpt lat="43.9931999" lon="10.817315"><ele>945.9999999999999</ele><time>2026-04-04T08:50:36.114Z</time></trkpt><trkpt lat="43.9932917" lon="10.8172925"><ele>945.9999999999999</ele><time>2026-04-04T08:50:38.113Z</time></trkpt><trkpt lat="43.9933244" lon="10.8171514"><ele>946.0</ele><time>2026-04-04T08:50:40.114Z</time></trkpt><trkpt lat="43.9933527" lon="10.8170055"><ele>946.0</ele><time>2026-04-04T08:50:42.114Z</time></trkpt><trkpt lat="43.9934238" lon="10.8168821"><ele>947.9999999999999</ele><time>2026-04-04T08:50:44.113Z</time></trkpt><trkpt lat="43.9934589" lon="10.8167834"><ele>950.0</ele><time>2026-04-04T08:50:46.114Z</time></trkpt><trkpt lat="43.9935023" lon="10.8166907"><ele>952.0</ele><time>2026-04-04T08:50:48.114Z</time></trkpt><trkpt lat="43.993574" lon="10.8167219"><ele>954.0</ele><time>2026-04-04T08:50:50.114Z</time></trkpt><trkpt lat="43.9936561" lon="10.8168027"><ele>955.9999999999999</ele><time>2026-04-04T08:50:52.114Z</time></trkpt><trkpt lat="43.9937174" lon="10.8168552"><ele>958.0</ele><time>2026-04-04T08:50:53.114Z</time></trkpt><trkpt lat="43.9938196" lon="10.816921"><ele>953.3333333333333</ele><time>2026-04-04T08:50:55.114Z</time></trkpt><trkpt lat="43.9938898" lon="10.81692"><ele>948.6666666666666</ele><time>2026-04-04T08:50:56.113Z</time></trkpt><trkpt lat="43.993958" lon="10.8169301"><ele>944.0</ele><time>2026-04-04T08:50:57.114Z</time></trkpt><trkpt lat="43.9940393" lon="10.8169133"><ele>939.3333333333333</ele><time>2026-04-04T08:50:59.114Z</time></trkpt><trkpt lat="43.9941377" lon="10.8169363"><ele>934.6666666666666</ele><time>2026-04-04T08:51:01.115Z</time></trkpt><trkpt lat="43.9942297" lon="10.8169767"><ele>930.0</ele><time>2026-04-04T08:51:03.114Z</time></trkpt><trkpt lat="43.9943019" lon="10.8170069"><ele>929.5</ele><time>2026-04-04T08:51:04.114Z</time></trkpt><trkpt lat="43.994383" lon="10.8170416"><ele>929.0</ele><time>2026-04-04T08:51:05.114Z</time></trkpt><trkpt lat="43.9944538" lon="10.8170531"><ele>928.5</ele><time>2026-04-04T08:51:06.114Z</time></trkpt><trkpt lat="43.9945781" lon="10.8170924"><ele>928.0</ele><time>2026-04-04T08:51:08.114Z</time></trkpt><trkpt lat="43.9946502" lon="10.8171523"><ele>927.5</ele><time>2026-04-04T08:51:09.114Z</time></trkpt><trkpt lat="43.9947171" lon="10.8171957"><ele>927.0</ele><time>2026-04-04T08:51:10.114Z</time></trkpt><trkpt lat="43.9947849" lon="10.8171969"><ele>927.0</ele><time>2026-04-04T08:51:11.114Z</time></trkpt><trkpt lat="43.9948506" lon="10.8172193"><ele>927.0</ele><time>2026-04-04T08:51:12.113Z</time></trkpt><trkpt lat="43.9949546" lon="10.8171809"><ele>927.0</ele><time>2026-04-04T08:51:13.114Z</time></trkpt><trkpt lat="43.995036" lon="10.8171635"><ele>927.0</ele><time>2026-04-04T08:51:14.115Z</time></trkpt><trkpt lat="43.9951177" lon="10.8171095"><ele>927.0</ele><time>2026-04-04T08:51:15.113Z</time></trkpt><trkpt lat="43.9951104" lon="10.8169104"><ele>927.6</ele><time>2026-04-04T08:51:17.113Z</time></trkpt><trkpt lat="43.9951427" lon="10.8168072"><ele>928.2</ele><time>2026-04-04T08:51:18.114Z</time></trkpt><trkpt lat="43.9952133" lon="10.8166643"><ele>928.8</ele><time>2026-04-04T08:51:20.113Z</time></trkpt><trkpt lat="43.9953147" lon="10.816609"><ele>929.4</ele><time>2026-04-04T08:51:22.114Z</time></trkpt><trkpt lat="43.9953766" lon="10.8165615"><ele>930.0</ele><time>2026-04-04T08:51:23.114Z</time></trkpt><trkpt lat="43.9954331" lon="10.8165046"><ele>930.0</ele><time>2026-04-04T08:51:24.114Z</time></trkpt><trkpt lat="43.9954482" lon="10.8164044"><ele>930.0</ele><time>2026-04-04T08:51:26.114Z</time></trkpt><trkpt lat="43.9955284" lon="10.8162845"><ele>930.0</ele><time>2026-04-04T08:51:28.113Z</time></trkpt><trkpt lat="43.9955813" lon="10.8161876"><ele>930.0</ele><time>2026-04-04T08:51:30.115Z</time></trkpt><trkpt lat="43.9956961" lon="10.8161759"><ele>930.0</ele><time>2026-04-04T08:51:32.114Z</time></trkpt><trkpt lat="43.995769" lon="10.8161656"><ele>930.6666666666666</ele><time>2026-04-04T08:51:33.114Z</time></trkpt><trkpt lat="43.9958482" lon="10.8161909"><ele>931.3333333333333</ele><time>2026-04-04T08:51:34.113Z</time></trkpt><trkpt lat="43.9958865" lon="10.8162611"><ele>932.0</ele><time>2026-04-04T08:51:35.114Z</time></trkpt><trkpt lat="43.9959565" lon="10.8163297"><ele>932.6666666666666</ele><time>2026-04-04T08:51:36.114Z</time></trkpt><trkpt lat="43.9960283" lon="10.8164716"><ele>933.3333333333333</ele><time>2026-04-04T08:51:38.113Z</time></trkpt><trkpt lat="43.9960591" lon="10.8165916"><ele>934.0</ele><time>2026-04-04T08:51:39.114Z</time></trkpt><trkpt lat="43.9960935" lon="10.8166697"><ele>933.9999999999999</ele><time>2026-04-04T08:51:40.113Z</time></trkpt><trkpt lat="43.9961324" lon="10.816769"><ele>934.0</ele><time>2026-04-04T08:51:41.114Z</time></trkpt><trkpt lat="43.9961828" lon="10.8168416"><ele>934.0</ele><time>2026-04-04T08:51:42.114Z</time></trkpt><trkpt lat="43.996251" lon="10.8169077"><ele>934.0</ele><time>2026-04-04T08:51:43.114Z</time></trkpt><trkpt lat="43.9963056" lon="10.8169885"><ele>933.9999999999999</ele><time>2026-04-04T08:51:44.113Z</time></trkpt><trkpt lat="43.9963517" lon="10.8170742"><ele>934.0</ele><time>2026-04-04T08:51:45.115Z</time></trkpt><trkpt lat="43.9964245" lon="10.8170872"><ele>929.3333333333333</ele><time>2026-04-04T08:51:46.113Z</time></trkpt><trkpt lat="43.9965082" lon="10.8171134"><ele>924.6666666666666</ele><time>2026-04-04T08:51:47.113Z</time></trkpt><trkpt lat="43.9965911" lon="10.8171111"><ele>920.0</ele><time>2026-04-04T08:51:48.114Z</time></trkpt><trkpt lat="43.9966743" lon="10.8171284"><ele>915.3333333333333</ele><time>2026-04-04T08:51:49.113Z</time></trkpt><trkpt lat="43.9967539" lon="10.8171569"><ele>910.6666666666666</ele><time>2026-04-04T08:51:50.114Z</time></trkpt><trkpt lat="43.9968267" lon="10.8171465"><ele>906.0</ele><time>2026-04-04T08:51:51.114Z</time></trkpt><trkpt lat="43.9969181" lon="10.8171127"><ele>903.0</ele><time>2026-04-04T08:51:52.114Z</time></trkpt><trkpt lat="43.9970142" lon="10.817074"><ele>899.9999999999999</ele><time>2026-04-04T08:51:53.114Z</time></trkpt><trkpt lat="43.9971157" lon="10.8170718"><ele>896.9999999999999</ele><time>2026-04-04T08:51:54.114Z</time></trkpt><trkpt lat="43.9972064" lon="10.8170826"><ele>894.0</ele><time>2026-04-04T08:51:55.114Z</time></trkpt><trkpt lat="43.9972857" lon="10.8170671"><ele>891.0</ele><time>2026-04-04T08:51:56.114Z</time></trkpt><trkpt lat="43.9973666" lon="10.8170556"><ele>891.0</ele><time>2026-04-04T08:51:57.114Z</time></trkpt><trkpt lat="43.9974435" lon="10.8169891"><ele>890.9999999999999</ele><time>2026-04-04T08:51:58.114Z</time></trkpt><trkpt lat="43.9975319" lon="10.8169139"><ele>890.9999999999999</ele><time>2026-04-04T08:51:59.115Z</time></trkpt><trkpt lat="43.9975098" lon="10.816803"><ele>891.0</ele><time>2026-04-04T08:52:00.113Z</time></trkpt><trkpt lat="43.9975363" lon="10.8166611"><ele>891.0</ele><time>2026-04-04T08:52:02.114Z</time></trkpt><trkpt lat="43.997622" lon="10.8166176"><ele>889.0</ele><time>2026-04-04T08:52:04.113Z</time></trkpt><trkpt lat="43.9976849" lon="10.8166399"><ele>886.9999999999999</ele><time>2026-04-04T08:52:05.114Z</time></trkpt><trkpt lat="43.9977668" lon="10.8167753"><ele>884.9999999999999</ele><time>2026-04-04T08:52:06.114Z</time></trkpt><trkpt lat="43.9979181" lon="10.8168263"><ele>883.0</ele><time>2026-04-04T08:52:08.113Z</time></trkpt><trkpt lat="43.9979844" lon="10.8168344"><ele>881.0</ele><time>2026-04-04T08:52:09.114Z</time></trkpt><trkpt lat="43.9980671" lon="10.8168153"><ele>881.0</ele><time>2026-04-04T08:52:10.113Z</time></trkpt><trkpt lat="43.9981595" lon="10.8168209"><ele>880.9999999999999</ele><time>2026-04-04T08:52:11.113Z</time></trkpt><trkpt lat="43.9982381" lon="10.8168242"><ele>880.9999999999999</ele><time>2026-04-04T08:52:12.114Z</time></trkpt><trkpt lat="43.9983444" lon="10.8167724"><ele>881.0</ele><time>2026-04-04T08:52:14.114Z</time></trkpt><trkpt lat="43.9984023" lon="10.8167078"><ele>881.0</ele><time>2026-04-04T08:52:15.113Z</time></trkpt><trkpt lat="43.9984653" lon="10.816569"><ele>884.3333333333334</ele><time>2026-04-04T08:52:16.114Z</time></trkpt><trkpt lat="43.9985318" lon="10.8164828"><ele>887.6666666666667</ele><time>2026-04-04T08:52:17.113Z</time></trkpt><trkpt lat="43.9986031" lon="10.8164318"><ele>891.0</ele><time>2026-04-04T08:52:18.115Z</time></trkpt><trkpt lat="43.9986882" lon="10.8164235"><ele>894.3333333333333</ele><time>2026-04-04T08:52:19.114Z</time></trkpt><trkpt lat="43.9987588" lon="10.816413"><ele>897.6666666666666</ele><time>2026-04-04T08:52:20.113Z</time></trkpt><trkpt lat="43.9988233" lon="10.8164132"><ele>901.0</ele><time>2026-04-04T08:52:21.114Z</time></trkpt><trkpt lat="43.998945" lon="10.8163678"><ele>901.0</ele><time>2026-04-04T08:52:23.115Z</time></trkpt><trkpt lat="43.9990141" lon="10.8163326"><ele>900.9999999999999</ele><time>2026-04-04T08:52:24.113Z</time></trkpt><trkpt lat="43.9991005" lon="10.8162274"><ele>900.9999999999999</ele><time>2026-04-04T08:52:25.113Z</time></trkpt><trkpt lat="43.9991775" lon="10.81614"><ele>901.0</ele><time>2026-04-04T08:52:26.114Z</time></trkpt><trkpt lat="43.9992622" lon="10.8160577"><ele>901.0</ele><time>2026-04-04T08:52:27.114Z</time></trkpt><trkpt lat="43.9993454" lon="10.8159849"><ele>902.8333333333333</ele><time>2026-04-04T08:52:28.113Z</time></trkpt><trkpt lat="43.9994114" lon="10.8159511"><ele>904.6666666666666</ele><time>2026-04-04T08:52:29.113Z</time></trkpt><trkpt lat="43.9994702" lon="10.8159188"><ele>906.5</ele><time>2026-04-04T08:52:30.114Z</time></trkpt><trkpt lat="43.9995798" lon="10.8159257"><ele>908.3333333333333</ele><time>2026-04-04T08:52:32.114Z</time></trkpt><trkpt lat="43.9996505" lon="10.8159365"><ele>910.1666666666666</ele><time>2026-04-04T08:52:34.115Z</time></trkpt><trkpt lat="43.9996698" lon="10.8160289"><ele>912.0</ele><time>2026-04-04T08:52:36.114Z</time></trkpt><trkpt lat="43.9996452" lon="10.8161287"><ele>912.0</ele><time>2026-04-04T08:52:38.113Z</time></trkpt><trkpt lat="43.9996092" lon="10.8162045"><ele>912.0</ele><time>2026-04-04T08:52:39.113Z</time></trkpt><trkpt lat="43.9995487" lon="10.8162592"><ele>912.0</ele><time>2026-04-04T08:52:40.114Z</time></trkpt><trkpt lat="43.9995226" lon="10.8164339"><ele>912.0</ele><time>2026-04-04T08:52:42.113Z</time></trkpt><trkpt lat="43.9995241" lon="10.8165503"><ele>912.0</ele><time>2026-04-04T08:52:43.114Z</time></trkpt><trkpt lat="43.9995039" lon="10.8166389"><ele>912.0</ele><time>2026-04-04T08:52:44.113Z</time></trkpt><trkpt lat="43.9994564" lon="10.8167686"><ele>913.1666666666666</ele><time>2026-04-04T08:52:46.114Z</time></trkpt><trkpt lat="43.9994333" lon="10.8168904"><ele>914.3333333333333</ele><time>2026-04-04T08:52:48.114Z</time></trkpt><trkpt lat="43.99941" lon="10.8170032"><ele>915.5</ele><time>2026-04-04T08:52:50.114Z</time></trkpt><trkpt lat="43.9994043" lon="10.8171018"><ele>916.6666666666666</ele><time>2026-04-04T08:53:31.114Z</time></trkpt><trkpt lat="43.9994215" lon="10.8172181"><ele>917.8333333333333</ele><time>2026-04-04T08:53:34.113Z</time></trkpt><trkpt lat="43.9994734" lon="10.8173332"><ele>919.0</ele><time>2026-04-04T08:53:36.114Z</time></trkpt><trkpt lat="43.9994456" lon="10.8174221"><ele>918.9999999999999</ele><time>2026-04-04T08:53:38.113Z</time></trkpt><trkpt lat="43.9993982" lon="10.8175095"><ele>919.0</ele><time>2026-04-04T08:53:40.114Z</time></trkpt><trkpt lat="43.9993462" lon="10.8175876"><ele>919.0</ele><time>2026-04-04T08:53:41.114Z</time></trkpt><trkpt lat="43.9993005" lon="10.8176534"><ele>919.0</ele><time>2026-04-04T08:53:42.114Z</time></trkpt><trkpt lat="43.9992492" lon="10.8177189"><ele>918.9999999999999</ele><time>2026-04-04T08:53:43.114Z</time></trkpt><trkpt lat="43.9991806" lon="10.8178674"><ele>919.0</ele><time>2026-04-04T08:53:44.114Z</time></trkpt><trkpt lat="43.9991109" lon="10.8180045"><ele>916.9999999999999</ele><time>2026-04-04T08:53:45.114Z</time></trkpt><trkpt lat="43.9990654" lon="10.8181134"><ele>915.0</ele><time>2026-04-04T08:53:46.113Z</time></trkpt><trkpt lat="43.9990205" lon="10.8182131"><ele>913.0</ele><time>2026-04-04T08:53:47.113Z</time></trkpt><trkpt lat="43.9989712" lon="10.8183149"><ele>911.0</ele><time>2026-04-04T08:53:48.114Z</time></trkpt><trkpt lat="43.9989401" lon="10.8183924"><ele>908.9999999999999</ele><time>2026-04-04T08:53:49.114Z</time></trkpt><trkpt lat="43.9989014" lon="10.8184978"><ele>907.0</ele><time>2026-04-04T08:53:50.114Z</time></trkpt><trkpt lat="43.9988998" lon="10.8186106"><ele>906.9999999999999</ele><time>2026-04-04T08:53:52.114Z</time></trkpt><trkpt lat="43.9988789" lon="10.818716"><ele>907.0</ele><time>2026-04-04T08:53:54.114Z</time></trkpt><trkpt lat="43.9988143" lon="10.8187504"><ele>907.0</ele><time>2026-04-04T08:53:55.113Z</time></trkpt><trkpt lat="43.9987504" lon="10.8187925"><ele>907.0</ele><time>2026-04-04T08:53:56.114Z</time></trkpt><trkpt lat="43.9986643" lon="10.8188434"><ele>906.9999999999999</ele><time>2026-04-04T08:53:57.114Z</time></trkpt><trkpt lat="43.9986072" lon="10.818899"><ele>907.0</ele><time>2026-04-04T08:53:58.114Z</time></trkpt><trkpt lat="43.9985546" lon="10.8190029"><ele>906.9999999999999</ele><time>2026-04-04T08:54:00.114Z</time></trkpt><trkpt lat="43.9986007" lon="10.8190639"><ele>907.0</ele><time>2026-04-04T08:54:02.114Z</time></trkpt><trkpt lat="43.9986171" lon="10.8191664"><ele>907.0</ele><time>2026-04-04T08:54:04.113Z</time></trkpt><trkpt lat="43.9986292" lon="10.8193116"><ele>907.0</ele><time>2026-04-04T08:54:06.113Z</time></trkpt><trkpt lat="43.998564" lon="10.8194382"><ele>906.9999999999999</ele><time>2026-04-04T08:54:07.114Z</time></trkpt><trkpt lat="43.998541" lon="10.8195425"><ele>907.0</ele><time>2026-04-04T08:54:08.113Z</time></trkpt><trkpt lat="43.9985089" lon="10.8196654"><ele>906.8</ele><time>2026-04-04T08:54:09.113Z</time></trkpt><trkpt lat="43.9984866" lon="10.8197568"><ele>906.6</ele><time>2026-04-04T08:54:10.113Z</time></trkpt><trkpt lat="43.9984634" lon="10.8198444"><ele>906.3999999999999</ele><time>2026-04-04T08:54:11.114Z</time></trkpt><trkpt lat="43.9984442" lon="10.8199395"><ele>906.1999999999999</ele><time>2026-04-04T08:54:12.114Z</time></trkpt><trkpt lat="43.9985408" lon="10.8202107"><ele>906.0</ele><time>2026-04-04T08:54:14.114Z</time></trkpt><trkpt lat="43.9985728" lon="10.820363"><ele>906.0</ele><time>2026-04-04T08:54:15.114Z</time></trkpt><trkpt lat="43.9985878" lon="10.8205407"><ele>905.9999999999999</ele><time>2026-04-04T08:54:16.114Z</time></trkpt><trkpt lat="43.9986053" lon="10.8206999"><ele>905.9999999999999</ele><time>2026-04-04T08:54:17.114Z</time></trkpt><trkpt lat="43.9985885" lon="10.8208392"><ele>906.0</ele><time>2026-04-04T08:54:18.115Z</time></trkpt><trkpt lat="43.9985667" lon="10.820977"><ele>906.0</ele><time>2026-04-04T08:54:19.114Z</time></trkpt><trkpt lat="43.9985429" lon="10.8211461"><ele>905.8</ele><time>2026-04-04T08:54:20.114Z</time></trkpt><trkpt lat="43.9985169" lon="10.8213018"><ele>905.5999999999999</ele><time>2026-04-04T08:54:21.113Z</time></trkpt><trkpt lat="43.998458" lon="10.821403"><ele>905.4</ele><time>2026-04-04T08:54:22.114Z</time></trkpt><trkpt lat="43.9984099" lon="10.8215268"><ele>905.2</ele><time>2026-04-04T08:54:23.114Z</time></trkpt><trkpt lat="43.9983496" lon="10.821611"><ele>905.0</ele><time>2026-04-04T08:54:24.114Z</time></trkpt><trkpt lat="43.9982921" lon="10.8217151"><ele>897.8</ele><time>2026-04-04T08:54:25.114Z</time></trkpt><trkpt lat="43.9982353" lon="10.8218227"><ele>890.6</ele><time>2026-04-04T08:54:26.114Z</time></trkpt><trkpt lat="43.9981768" lon="10.8219464"><ele>883.4000000000001</ele><time>2026-04-04T08:54:27.114Z</time></trkpt><trkpt lat="43.9981298" lon="10.8220816"><ele>876.2</ele><time>2026-04-04T08:54:28.114Z</time></trkpt><trkpt lat="43.9980985" lon="10.8221652"><ele>869.0</ele><time>2026-04-04T08:54:29.113Z</time></trkpt><trkpt lat="43.9980681" lon="10.8222985"><ele>869.0000000000001</ele><time>2026-04-04T08:54:31.114Z</time></trkpt><trkpt lat="43.9980866" lon="10.822444"><ele>869.0</ele><time>2026-04-04T08:54:33.113Z</time></trkpt><trkpt lat="43.9981285" lon="10.8225443"><ele>869.0</ele><time>2026-04-04T08:54:34.113Z</time></trkpt><trkpt lat="43.9981549" lon="10.8226313"><ele>869.0</ele><time>2026-04-04T08:54:35.114Z</time></trkpt><trkpt lat="43.9981829" lon="10.8227414"><ele>869.0000000000001</ele><time>2026-04-04T08:54:36.114Z</time></trkpt><trkpt lat="43.9982073" lon="10.8228461"><ele>869.0</ele><time>2026-04-04T08:54:37.115Z</time></trkpt><trkpt lat="43.9982388" lon="10.8229635"><ele>870.1666666666667</ele><time>2026-04-04T08:54:38.113Z</time></trkpt><trkpt lat="43.9982746" lon="10.8230912"><ele>871.3333333333334</ele><time>2026-04-04T08:54:39.114Z</time></trkpt><trkpt lat="43.9983168" lon="10.8232188"><ele>872.5</ele><time>2026-04-04T08:54:40.114Z</time></trkpt><trkpt lat="43.9983531" lon="10.8233429"><ele>873.6666666666667</ele><time>2026-04-04T08:54:41.115Z</time></trkpt><trkpt lat="43.9983841" lon="10.8234511"><ele>874.8333333333334</ele><time>2026-04-04T08:54:42.113Z</time></trkpt><trkpt lat="43.9984144" lon="10.8235365"><ele>876.0</ele><time>2026-04-04T08:54:43.113Z</time></trkpt><trkpt lat="43.9984408" lon="10.8236488"><ele>871.0</ele><time>2026-04-04T08:54:44.114Z</time></trkpt><trkpt lat="43.9984804" lon="10.8237621"><ele>866.0</ele><time>2026-04-04T08:54:45.115Z</time></trkpt><trkpt lat="43.9985005" lon="10.8238712"><ele>861.0</ele><time>2026-04-04T08:54:46.114Z</time></trkpt><trkpt lat="43.9985237" lon="10.8239634"><ele>856.0</ele><time>2026-04-04T08:54:47.115Z</time></trkpt><trkpt lat="43.9985458" lon="10.8241197"><ele>851.0</ele><time>2026-04-04T08:54:49.114Z</time></trkpt><trkpt lat="43.9985222" lon="10.8242187"><ele>846.0</ele><time>2026-04-04T08:54:51.113Z</time></trkpt><trkpt lat="43.9984308" lon="10.8242735"><ele>844.0</ele><time>2026-04-04T08:54:53.114Z</time></trkpt><trkpt lat="43.998375" lon="10.8243226"><ele>842.0</ele><time>2026-04-04T08:54:54.114Z</time></trkpt><trkpt lat="43.9983351" lon="10.8243917"><ele>840.0</ele><time>2026-04-04T08:54:55.114Z</time></trkpt><trkpt lat="43.9982813" lon="10.824487"><ele>838.0</ele><time>2026-04-04T08:54:56.113Z</time></trkpt><trkpt lat="43.9982228" lon="10.8245886"><ele>836.0</ele><time>2026-04-04T08:54:57.115Z</time></trkpt><trkpt lat="43.9981632" lon="10.8246989"><ele>834.0</ele><time>2026-04-04T08:54:58.113Z</time></trkpt><trkpt lat="43.9980981" lon="10.8247941"><ele>834.0</ele><time>2026-04-04T08:54:59.115Z</time></trkpt><trkpt lat="43.998041" lon="10.8248683"><ele>834.0</ele><time>2026-04-04T08:55:00.114Z</time></trkpt><trkpt lat="43.9979837" lon="10.8249601"><ele>834.0</ele><time>2026-04-04T08:55:01.114Z</time></trkpt><trkpt lat="43.9979775" lon="10.8251229"><ele>834.0</ele><time>2026-04-04T08:55:03.115Z</time></trkpt><trkpt lat="43.9980154" lon="10.8253031"><ele>834.0</ele><time>2026-04-04T08:55:05.114Z</time></trkpt><trkpt lat="43.9980838" lon="10.8253755"><ele>831.1666666666666</ele><time>2026-04-04T08:55:06.114Z</time></trkpt><trkpt lat="43.9980986" lon="10.8254641"><ele>828.3333333333333</ele><time>2026-04-04T08:55:07.114Z</time></trkpt><trkpt lat="43.9980206" lon="10.8255967"><ele>825.5</ele><time>2026-04-04T08:55:09.115Z</time></trkpt><trkpt lat="43.9979638" lon="10.8256437"><ele>822.6666666666666</ele><time>2026-04-04T08:55:10.113Z</time></trkpt><trkpt lat="43.997882" lon="10.8256396"><ele>819.8333333333333</ele><time>2026-04-04T08:55:11.114Z</time></trkpt><trkpt lat="43.9978001" lon="10.8256537"><ele>817.0</ele><time>2026-04-04T08:55:12.113Z</time></trkpt><trkpt lat="43.997688" lon="10.8257153"><ele>817.0</ele><time>2026-04-04T08:55:14.113Z</time></trkpt><trkpt lat="43.997617" lon="10.8257968"><ele>817.0</ele><time>2026-04-04T08:55:15.113Z</time></trkpt><trkpt lat="43.99754" lon="10.825887"><ele>817.0</ele><time>2026-04-04T08:55:16.113Z</time></trkpt><trkpt lat="43.9974576" lon="10.8259786"><ele>817.0</ele><time>2026-04-04T08:55:17.114Z</time></trkpt><trkpt lat="43.9973748" lon="10.8260279"><ele>817.0</ele><time>2026-04-04T08:55:18.113Z</time></trkpt><trkpt lat="43.9973053" lon="10.8260494"><ele>816.9999999999999</ele><time>2026-04-04T08:55:19.114Z</time></trkpt><trkpt lat="43.9972372" lon="10.826061"><ele>817.0</ele><time>2026-04-04T08:55:20.113Z</time></trkpt><trkpt lat="43.9971647" lon="10.8260963"><ele>817.0</ele><time>2026-04-04T08:55:21.114Z</time></trkpt><trkpt lat="43.9970838" lon="10.8261387"><ele>817.0</ele><time>2026-04-04T08:55:22.114Z</time></trkpt><trkpt lat="43.9969676" lon="10.8261595"><ele>816.9999999999999</ele><time>2026-04-04T08:55:24.114Z</time></trkpt><trkpt lat="43.9970094" lon="10.8260678"><ele>817.0</ele><time>2026-04-04T08:55:25.114Z</time></trkpt><trkpt lat="43.9970323" lon="10.8259119"><ele>818.0</ele><time>2026-04-04T08:55:27.115Z</time></trkpt><trkpt lat="43.9970199" lon="10.825798"><ele>819.0</ele><time>2026-04-04T08:55:29.114Z</time></trkpt><trkpt lat="43.9968845" lon="10.8258776"><ele>820.0</ele><time>2026-04-04T08:55:31.114Z</time></trkpt><trkpt lat="43.9967763" lon="10.8259529"><ele>821.0</ele><time>2026-04-04T08:55:33.114Z</time></trkpt><trkpt lat="43.9966649" lon="10.8260638"><ele>817.8</ele><time>2026-04-04T08:55:35.114Z</time></trkpt><trkpt lat="43.9966011" lon="10.826178"><ele>814.5999999999999</ele><time>2026-04-04T08:55:36.114Z</time></trkpt><trkpt lat="43.9965468" lon="10.8262804"><ele>811.4</ele><time>2026-04-04T08:55:37.114Z</time></trkpt><trkpt lat="43.9964601" lon="10.8264352"><ele>808.2</ele><time>2026-04-04T08:55:39.114Z</time></trkpt><trkpt lat="43.9964082" lon="10.8265163"><ele>805.0</ele><time>2026-04-04T08:55:40.114Z</time></trkpt><trkpt lat="43.996375" lon="10.826591"><ele>804.9999999999999</ele><time>2026-04-04T08:55:41.114Z</time></trkpt><trkpt lat="43.9964138" lon="10.8266787"><ele>805.0</ele><time>2026-04-04T08:55:42.114Z</time></trkpt><trkpt lat="43.996418" lon="10.8267865"><ele>805.0</ele><time>2026-04-04T08:55:43.113Z</time></trkpt><trkpt lat="43.9964229" lon="10.8268798"><ele>805.0</ele><time>2026-04-04T08:55:44.113Z</time></trkpt><trkpt lat="43.9963945" lon="10.8269954"><ele>804.9999999999999</ele><time>2026-04-04T08:55:45.113Z</time></trkpt><trkpt lat="43.9963694" lon="10.8271504"><ele>805.0</ele><time>2026-04-04T08:55:46.114Z</time></trkpt><trkpt lat="43.9963405" lon="10.8272907"><ele>802.4</ele><time>2026-04-04T08:55:47.113Z</time></trkpt><trkpt lat="43.9963121" lon="10.8274337"><ele>799.8</ele><time>2026-04-04T08:55:48.114Z</time></trkpt><trkpt lat="43.9962793" lon="10.8275596"><ele>797.2</ele><time>2026-04-04T08:55:49.115Z</time></trkpt><trkpt lat="43.9962001" lon="10.8276444"><ele>794.6</ele><time>2026-04-04T08:55:50.114Z</time></trkpt><trkpt lat="43.9961451" lon="10.8277319"><ele>792.0</ele><time>2026-04-04T08:55:51.114Z</time></trkpt><trkpt lat="43.9960755" lon="10.8278294"><ele>791.6</ele><time>2026-04-04T08:55:52.114Z</time></trkpt><trkpt lat="43.9960036" lon="10.8279169"><ele>791.2</ele><time>2026-04-04T08:55:53.114Z</time></trkpt><trkpt lat="43.9959497" lon="10.82802"><ele>790.8</ele><time>2026-04-04T08:55:54.114Z</time></trkpt><trkpt lat="43.9958936" lon="10.8281454"><ele>790.4</ele><time>2026-04-04T08:55:55.114Z</time></trkpt><trkpt lat="43.9958511" lon="10.8282421"><ele>790.0</ele><time>2026-04-04T08:55:56.114Z</time></trkpt><trkpt lat="43.9958091" lon="10.8283464"><ele>790.0</ele><time>2026-04-04T08:55:57.114Z</time></trkpt><trkpt lat="43.9957703" lon="10.8284668"><ele>790.0</ele><time>2026-04-04T08:55:58.114Z</time></trkpt><trkpt lat="43.9957588" lon="10.8286177"><ele>790.0</ele><time>2026-04-04T08:55:59.114Z</time></trkpt><trkpt lat="43.9957171" lon="10.8287283"><ele>790.0</ele><time>2026-04-04T08:56:00.113Z</time></trkpt><trkpt lat="43.9956687" lon="10.8288545"><ele>790.0</ele><time>2026-04-04T08:56:01.113Z</time></trkpt><trkpt lat="43.9956141" lon="10.8289645"><ele>789.8</ele><time>2026-04-04T08:56:02.115Z</time></trkpt><trkpt lat="43.9955615" lon="10.8290871"><ele>789.6</ele><time>2026-04-04T08:56:03.114Z</time></trkpt><trkpt lat="43.9955419" lon="10.8292073"><ele>789.4000000000001</ele><time>2026-04-04T08:56:04.114Z</time></trkpt><trkpt lat="43.995516" lon="10.8293233"><ele>789.2</ele><time>2026-04-04T08:56:05.114Z</time></trkpt><trkpt lat="43.9955821" lon="10.8294352"><ele>789.0</ele><time>2026-04-04T08:56:07.114Z</time></trkpt><trkpt lat="43.9956332" lon="10.8295027"><ele>788.4285714285713</ele><time>2026-04-04T08:56:08.114Z</time></trkpt><trkpt lat="43.9956849" lon="10.8295677"><ele>787.8571428571429</ele><time>2026-04-04T08:56:09.114Z</time></trkpt><trkpt lat="43.9957075" lon="10.8296583"><ele>787.2857142857142</ele><time>2026-04-04T08:56:10.114Z</time></trkpt><trkpt lat="43.9957336" lon="10.8297488"><ele>786.7142857142857</ele><time>2026-04-04T08:56:11.114Z</time></trkpt><trkpt lat="43.9957453" lon="10.8298836"><ele>786.1428571428571</ele><time>2026-04-04T08:56:12.115Z</time></trkpt><trkpt lat="43.9957459" lon="10.8299814"><ele>785.5714285714286</ele><time>2026-04-04T08:56:13.114Z</time></trkpt><trkpt lat="43.9957277" lon="10.8300708"><ele>785.0</ele><time>2026-04-04T08:56:14.114Z</time></trkpt><trkpt lat="43.995684" lon="10.8301435"><ele>784.1666666666667</ele><time>2026-04-04T08:56:15.114Z</time></trkpt><trkpt lat="43.9956557" lon="10.830227"><ele>783.3333333333334</ele><time>2026-04-04T08:56:16.113Z</time></trkpt><trkpt lat="43.9956265" lon="10.830307"><ele>782.5</ele><time>2026-04-04T08:56:17.114Z</time></trkpt><trkpt lat="43.9956311" lon="10.830399"><ele>781.6666666666667</ele><time>2026-04-04T08:56:18.114Z</time></trkpt><trkpt lat="43.9956569" lon="10.8305503"><ele>780.8333333333334</ele><time>2026-04-04T08:56:19.114Z</time></trkpt><trkpt lat="43.9956625" lon="10.830674"><ele>780.0</ele><time>2026-04-04T08:56:20.114Z</time></trkpt><trkpt lat="43.9956697" lon="10.8307799"><ele>780.0</ele><time>2026-04-04T08:56:21.113Z</time></trkpt><trkpt lat="43.9956847" lon="10.8308942"><ele>780.0</ele><time>2026-04-04T08:56:22.113Z</time></trkpt><trkpt lat="43.9957233" lon="10.831001"><ele>780.0</ele><time>2026-04-04T08:56:23.114Z</time></trkpt><trkpt lat="43.9957678" lon="10.8311087"><ele>780.0</ele><time>2026-04-04T08:56:24.114Z</time></trkpt><trkpt lat="43.9958178" lon="10.831233"><ele>780.0</ele><time>2026-04-04T08:56:25.115Z</time></trkpt><trkpt lat="43.9958595" lon="10.8313575"><ele>777.4285714285714</ele><time>2026-04-04T08:56:26.114Z</time></trkpt><trkpt lat="43.995893" lon="10.8314685"><ele>774.8571428571429</ele><time>2026-04-04T08:56:27.114Z</time></trkpt><trkpt lat="43.9959202" lon="10.8315679"><ele>772.2857142857142</ele><time>2026-04-04T08:56:28.115Z</time></trkpt><trkpt lat="43.9959011" lon="10.8316533"><ele>769.7142857142858</ele><time>2026-04-04T08:56:29.114Z</time></trkpt><trkpt lat="43.9958846" lon="10.8317388"><ele>767.1428571428572</ele><time>2026-04-04T08:56:30.115Z</time></trkpt><trkpt lat="43.9958533" lon="10.8318355"><ele>764.5714285714286</ele><time>2026-04-04T08:56:31.113Z</time></trkpt><trkpt lat="43.9958094" lon="10.8319058"><ele>762.0</ele><time>2026-04-04T08:56:32.115Z</time></trkpt><trkpt lat="43.9957842" lon="10.8319963"><ele>761.5</ele><time>2026-04-04T08:56:33.114Z</time></trkpt><trkpt lat="43.9957916" lon="10.8320921"><ele>761.0</ele><time>2026-04-04T08:56:34.114Z</time></trkpt><trkpt lat="43.9958058" lon="10.8321917"><ele>760.5</ele><time>2026-04-04T08:56:35.114Z</time></trkpt><trkpt lat="43.9958425" lon="10.8322826"><ele>760.0</ele><time>2026-04-04T08:56:36.114Z</time></trkpt><trkpt lat="43.9958816" lon="10.8323813"><ele>759.5</ele><time>2026-04-04T08:56:37.114Z</time></trkpt><trkpt lat="43.9959225" lon="10.8324781"><ele>759.0</ele><time>2026-04-04T08:56:38.114Z</time></trkpt><trkpt lat="43.995897" lon="10.8325972"><ele>762.1666666666666</ele><time>2026-04-04T08:56:39.114Z</time></trkpt><trkpt lat="43.9958785" lon="10.8327119"><ele>765.3333333333333</ele><time>2026-04-04T08:56:40.114Z</time></trkpt><trkpt lat="43.9958684" lon="10.8328356"><ele>768.5</ele><time>2026-04-04T08:56:41.113Z</time></trkpt><trkpt lat="43.995869" lon="10.8329487"><ele>771.6666666666666</ele><time>2026-04-04T08:56:42.115Z</time></trkpt><trkpt lat="43.995918" lon="10.8330458"><ele>774.8333333333333</ele><time>2026-04-04T08:56:43.114Z</time></trkpt><trkpt lat="43.9959707" lon="10.8331717"><ele>778.0</ele><time>2026-04-04T08:56:44.114Z</time></trkpt><trkpt lat="43.9960173" lon="10.8332965"><ele>777.9999999999999</ele><time>2026-04-04T08:56:45.113Z</time></trkpt><trkpt lat="43.9960455" lon="10.8334025"><ele>778.0</ele><time>2026-04-04T08:56:46.113Z</time></trkpt><trkpt lat="43.9960581" lon="10.8335152"><ele>778.0</ele><time>2026-04-04T08:56:47.114Z</time></trkpt><trkpt lat="43.9960715" lon="10.8336124"><ele>778.0</ele><time>2026-04-04T08:56:48.114Z</time></trkpt><trkpt lat="43.9960812" lon="10.8337185"><ele>777.9999999999999</ele><time>2026-04-04T08:56:49.113Z</time></trkpt><trkpt lat="43.9960918" lon="10.8338594"><ele>778.0</ele><time>2026-04-04T08:56:50.114Z</time></trkpt><trkpt lat="43.9960871" lon="10.8340114"><ele>775.8</ele><time>2026-04-04T08:56:51.114Z</time></trkpt><trkpt lat="43.996087" lon="10.8341587"><ele>773.5999999999999</ele><time>2026-04-04T08:56:52.114Z</time></trkpt><trkpt lat="43.9960837" lon="10.8342825"><ele>771.4000000000001</ele><time>2026-04-04T08:56:53.113Z</time></trkpt><trkpt lat="43.9960782" lon="10.8344063"><ele>769.2</ele><time>2026-04-04T08:56:54.114Z</time></trkpt><trkpt lat="43.9960865" lon="10.8345324"><ele>767.0</ele><time>2026-04-04T08:56:55.114Z</time></trkpt><trkpt lat="43.9961192" lon="10.8346281"><ele>765.0</ele><time>2026-04-04T08:56:56.114Z</time></trkpt><trkpt lat="43.9961451" lon="10.8347258"><ele>763.0</ele><time>2026-04-04T08:56:57.114Z</time></trkpt><trkpt lat="43.9961453" lon="10.8348452"><ele>761.0</ele><time>2026-04-04T08:56:59.113Z</time></trkpt><trkpt lat="43.9962619" lon="10.834851"><ele>759.0</ele><time>2026-04-04T08:57:16.114Z</time></trkpt><trkpt lat="43.9962975" lon="10.8349282"><ele>757.0</ele><time>2026-04-04T08:57:17.114Z</time></trkpt><trkpt lat="43.9963581" lon="10.8349694"><ele>755.0</ele><time>2026-04-04T08:57:19.114Z</time></trkpt><trkpt lat="43.9964214" lon="10.8349402"><ele>755.0</ele><time>2026-04-04T08:57:21.114Z</time></trkpt><trkpt lat="43.9964654" lon="10.8348752"><ele>755.0</ele><time>2026-04-04T08:57:22.114Z</time></trkpt><trkpt lat="43.9965239" lon="10.834831"><ele>755.0</ele><time>2026-04-04T08:57:23.114Z</time></trkpt><trkpt lat="43.9965974" lon="10.8347793"><ele>755.0</ele><time>2026-04-04T08:57:25.114Z</time></trkpt><trkpt lat="43.9966695" lon="10.8347247"><ele>755.0</ele><time>2026-04-04T08:57:27.113Z</time></trkpt><trkpt lat="43.9967548" lon="10.8346967"><ele>755.0</ele><time>2026-04-04T08:57:29.114Z</time></trkpt><trkpt lat="43.9968362" lon="10.8346375"><ele>751.8333333333333</ele><time>2026-04-04T08:57:33.114Z</time></trkpt><trkpt lat="43.9969066" lon="10.8346425"><ele>748.6666666666666</ele><time>2026-04-04T08:57:36.061Z</time></trkpt><trkpt lat="43.9969178" lon="10.8347975"><ele>745.5</ele><time>2026-04-04T08:57:39.113Z</time></trkpt><trkpt lat="43.9969207" lon="10.8348887"><ele>742.3333333333334</ele><time>2026-04-04T08:57:40.114Z</time></trkpt><trkpt lat="43.9969991" lon="10.8350221"><ele>739.1666666666667</ele><time>2026-04-04T08:57:42.113Z</time></trkpt><trkpt lat="43.9970581" lon="10.8350861"><ele>736.0</ele><time>2026-04-04T08:57:43.115Z</time></trkpt><trkpt lat="43.997113" lon="10.8351531"><ele>736.0</ele><time>2026-04-04T08:57:44.114Z</time></trkpt><trkpt lat="43.9970935" lon="10.8352711"><ele>736.0</ele><time>2026-04-04T08:57:46.114Z</time></trkpt><trkpt lat="43.9971155" lon="10.8353896"><ele>736.0</ele><time>2026-04-04T08:57:48.114Z</time></trkpt><trkpt lat="43.9971878" lon="10.8354846"><ele>736.0</ele><time>2026-04-04T08:57:50.114Z</time></trkpt><trkpt lat="43.9972512" lon="10.8355476"><ele>736.0</ele><time>2026-04-04T08:57:51.113Z</time></trkpt><trkpt lat="43.9972984" lon="10.8356153"><ele>736.0</ele><time>2026-04-04T08:57:52.113Z</time></trkpt><trkpt lat="43.9973363" lon="10.8357068"><ele>736.0</ele><time>2026-04-04T08:57:53.114Z</time></trkpt><trkpt lat="43.9973554" lon="10.835846"><ele>736.0</ele><time>2026-04-04T08:57:54.114Z</time></trkpt><trkpt lat="43.9974081" lon="10.8359136"><ele>736.0</ele><time>2026-04-04T08:57:55.113Z</time></trkpt><trkpt lat="43.9974417" lon="10.8360042"><ele>736.0</ele><time>2026-04-04T08:57:56.114Z</time></trkpt><trkpt lat="43.9974523" lon="10.8361101"><ele>736.0</ele><time>2026-04-04T08:57:57.113Z</time></trkpt><trkpt lat="43.99746" lon="10.8362292"><ele>736.0</ele><time>2026-04-04T08:57:58.114Z</time></trkpt><trkpt lat="43.9974757" lon="10.8363616"><ele>737.5</ele><time>2026-04-04T08:57:59.114Z</time></trkpt><trkpt lat="43.9974833" lon="10.8364815"><ele>739.0</ele><time>2026-04-04T08:58:00.114Z</time></trkpt><trkpt lat="43.9975016" lon="10.8365912"><ele>740.5</ele><time>2026-04-04T08:58:01.114Z</time></trkpt><trkpt lat="43.9975223" lon="10.8367227"><ele>742.0</ele><time>2026-04-04T08:58:02.114Z</time></trkpt><trkpt lat="43.9975598" lon="10.8368186"><ele>743.5</ele><time>2026-04-04T08:58:03.114Z</time></trkpt><trkpt lat="43.9975834" lon="10.8368998"><ele>745.0</ele><time>2026-04-04T08:58:04.114Z</time></trkpt><trkpt lat="43.9976431" lon="10.8370044"><ele>740.25</ele><time>2026-04-04T08:58:06.113Z</time></trkpt><trkpt lat="43.9977365" lon="10.8369338"><ele>735.5</ele><time>2026-04-04T08:58:08.114Z</time></trkpt><trkpt lat="43.997749" lon="10.8367364"><ele>730.75</ele><time>2026-04-04T08:58:10.114Z</time></trkpt><trkpt lat="43.9977608" lon="10.8365726"><ele>726.0</ele><time>2026-04-04T08:58:11.114Z</time></trkpt><trkpt lat="43.9978153" lon="10.8364455"><ele>725.5</ele><time>2026-04-04T08:58:13.114Z</time></trkpt><trkpt lat="43.9979051" lon="10.8363142"><ele>725.0</ele><time>2026-04-04T08:58:15.114Z</time></trkpt><trkpt lat="43.9979646" lon="10.8362416"><ele>724.5</ele><time>2026-04-04T08:58:16.113Z</time></trkpt><trkpt lat="43.998015" lon="10.8361542"><ele>724.0</ele><time>2026-04-04T08:58:17.112Z</time></trkpt><trkpt lat="43.9980253" lon="10.8360628"><ele>723.5</ele><time>2026-04-04T08:58:18.113Z</time></trkpt><trkpt lat="43.9980166" lon="10.8359678"><ele>723.0</ele><time>2026-04-04T08:58:19.112Z</time></trkpt><trkpt lat="43.9979945" lon="10.8358764"><ele>721.0</ele><time>2026-04-04T08:58:20.113Z</time></trkpt><trkpt lat="43.9979284" lon="10.835762"><ele>719.0</ele><time>2026-04-04T08:58:21.113Z</time></trkpt><trkpt lat="43.9978543" lon="10.8356766"><ele>717.0</ele><time>2026-04-04T08:58:22.113Z</time></trkpt><trkpt lat="43.9977492" lon="10.8356275"><ele>715.0</ele><time>2026-04-04T08:58:23.114Z</time></trkpt><trkpt lat="43.9976814" lon="10.8355464"><ele>713.0</ele><time>2026-04-04T08:58:24.113Z</time></trkpt><trkpt lat="43.9976228" lon="10.83549"><ele>713.0</ele><time>2026-04-04T08:58:25.113Z</time></trkpt><trkpt lat="43.9975597" lon="10.8354223"><ele>713.0</ele><time>2026-04-04T08:58:26.113Z</time></trkpt><trkpt lat="43.9975101" lon="10.8353594"><ele>713.0</ele><time>2026-04-04T08:58:27.113Z</time></trkpt><trkpt lat="43.997491" lon="10.8352675"><ele>713.0</ele><time>2026-04-04T08:58:29.113Z</time></trkpt><trkpt lat="43.9975349" lon="10.8351713"><ele>713.0</ele><time>2026-04-04T08:58:31.113Z</time></trkpt><trkpt lat="43.9976464" lon="10.8351562"><ele>713.0</ele><time>2026-04-04T08:58:33.113Z</time></trkpt><trkpt lat="43.9977456" lon="10.8351353"><ele>711.5999999999999</ele><time>2026-04-04T08:58:35.114Z</time></trkpt><trkpt lat="43.997835" lon="10.8350445"><ele>710.1999999999999</ele><time>2026-04-04T08:58:37.112Z</time></trkpt><trkpt lat="43.9979418" lon="10.834927"><ele>708.8</ele><time>2026-04-04T08:58:39.113Z</time></trkpt><trkpt lat="43.9979975" lon="10.8348651"><ele>707.4</ele><time>2026-04-04T08:58:41.112Z</time></trkpt><trkpt lat="43.9980089" lon="10.8347401"><ele>706.0</ele><time>2026-04-04T08:58:43.112Z</time></trkpt><trkpt lat="43.997957" lon="10.8346087"><ele>706.0</ele><time>2026-04-04T08:58:45.112Z</time></trkpt><trkpt lat="43.9979253" lon="10.8344659"><ele>706.0</ele><time>2026-04-04T08:58:47.113Z</time></trkpt><trkpt lat="43.9979353" lon="10.8343712"><ele>706.0</ele><time>2026-04-04T08:58:48.114Z</time></trkpt><trkpt lat="43.9979523" lon="10.8342838"><ele>706.0</ele><time>2026-04-04T08:58:49.113Z</time></trkpt><trkpt lat="43.997971" lon="10.8341765"><ele>706.0</ele><time>2026-04-04T08:58:50.113Z</time></trkpt><trkpt lat="43.9979939" lon="10.8340657"><ele>706.0</ele><time>2026-04-04T08:58:51.113Z</time></trkpt><trkpt lat="43.9980243" lon="10.8339512"><ele>707.0</ele><time>2026-04-04T08:58:52.112Z</time></trkpt><trkpt lat="43.9980759" lon="10.8338213"><ele>708.0</ele><time>2026-04-04T08:58:53.113Z</time></trkpt><trkpt lat="43.9981147" lon="10.8336879"><ele>709.0</ele><time>2026-04-04T08:58:54.112Z</time></trkpt><trkpt lat="43.9981429" lon="10.8335719"><ele>710.0</ele><time>2026-04-04T08:58:55.113Z</time></trkpt><trkpt lat="43.9981775" lon="10.8334525"><ele>711.0</ele><time>2026-04-04T08:58:56.112Z</time></trkpt><trkpt lat="43.9982476" lon="10.8333756"><ele>711.5999999999999</ele><time>2026-04-04T08:58:57.113Z</time></trkpt><trkpt lat="43.9983324" lon="10.8332391"><ele>712.2</ele><time>2026-04-04T08:58:59.112Z</time></trkpt><trkpt lat="43.9982823" lon="10.8330962"><ele>712.8</ele><time>2026-04-04T08:59:01.113Z</time></trkpt><trkpt lat="43.9983019" lon="10.832993"><ele>713.4000000000001</ele><time>2026-04-04T08:59:03.113Z</time></trkpt><trkpt lat="43.9983512" lon="10.8329163"><ele>714.0</ele><time>2026-04-04T08:59:07.113Z</time></trkpt><trkpt lat="43.9984385" lon="10.8329163"><ele>716.8333333333334</ele><time>2026-04-04T08:59:10.112Z</time></trkpt><trkpt lat="43.9984551" lon="10.8330141"><ele>719.6666666666666</ele><time>2026-04-04T08:59:12.113Z</time></trkpt><trkpt lat="43.9984807" lon="10.8332045"><ele>722.5</ele><time>2026-04-04T08:59:14.113Z</time></trkpt><trkpt lat="43.9984906" lon="10.8333033"><ele>725.3333333333333</ele><time>2026-04-04T08:59:15.113Z</time></trkpt><trkpt lat="43.9985022" lon="10.8333916"><ele>728.1666666666666</ele><time>2026-04-04T08:59:16.112Z</time></trkpt><trkpt lat="43.9985709" lon="10.8334566"><ele>731.0</ele><time>2026-04-04T08:59:18.113Z</time></trkpt><trkpt lat="43.9985928" lon="10.8333567"><ele>731.0</ele><time>2026-04-04T08:59:20.113Z</time></trkpt><trkpt lat="43.998592" lon="10.8332123"><ele>731.0</ele><time>2026-04-04T08:59:21.113Z</time></trkpt><trkpt lat="43.9986532" lon="10.8331408"><ele>731.0</ele><time>2026-04-04T08:59:23.113Z</time></trkpt><trkpt lat="43.9987089" lon="10.8333055"><ele>731.0</ele><time>2026-04-04T08:59:26.113Z</time></trkpt><trkpt lat="43.9987196" lon="10.8334426"><ele>731.0</ele><time>2026-04-04T08:59:27.113Z</time></trkpt><trkpt lat="43.9987348" lon="10.8335455"><ele>729.8</ele><time>2026-04-04T08:59:28.114Z</time></trkpt><trkpt lat="43.9987608" lon="10.8336651"><ele>728.5999999999999</ele><time>2026-04-04T08:59:29.113Z</time></trkpt><trkpt lat="43.9987826" lon="10.8337688"><ele>727.4</ele><time>2026-04-04T08:59:30.112Z</time></trkpt><trkpt lat="43.9988227" lon="10.8338957"><ele>726.2</ele><time>2026-04-04T08:59:32.112Z</time></trkpt><trkpt lat="43.9989234" lon="10.8339021"><ele>725.0</ele><time>2026-04-04T08:59:34.112Z</time></trkpt><trkpt lat="43.9990271" lon="10.8338397"><ele>725.0</ele><time>2026-04-04T08:59:35.113Z</time></trkpt><trkpt lat="43.9991196" lon="10.8337308"><ele>725.0</ele><time>2026-04-04T08:59:36.113Z</time></trkpt><trkpt lat="43.9992216" lon="10.8336612"><ele>725.0</ele><time>2026-04-04T08:59:37.113Z</time></trkpt><trkpt lat="43.9992915" lon="10.8336412"><ele>725.0</ele><time>2026-04-04T08:59:38.113Z</time></trkpt><trkpt lat="43.9993956" lon="10.8335397"><ele>725.0</ele><time>2026-04-04T08:59:39.112Z</time></trkpt><trkpt lat="43.9994682" lon="10.8334741"><ele>728.6666666666666</ele><time>2026-04-04T08:59:40.112Z</time></trkpt><trkpt lat="43.9995375" lon="10.8334255"><ele>732.3333333333333</ele><time>2026-04-04T08:59:41.112Z</time></trkpt><trkpt lat="43.9996545" lon="10.8333837"><ele>736.0</ele><time>2026-04-04T08:59:43.113Z</time></trkpt><trkpt lat="43.9997058" lon="10.8333146"><ele>739.6666666666666</ele><time>2026-04-04T08:59:44.113Z</time></trkpt><trkpt lat="43.9997547" lon="10.8332538"><ele>743.3333333333334</ele><time>2026-04-04T08:59:45.113Z</time></trkpt><trkpt lat="43.9998018" lon="10.8331869"><ele>747.0</ele><time>2026-04-04T08:59:46.113Z</time></trkpt><trkpt lat="43.9998753" lon="10.8331314"><ele>747.0</ele><time>2026-04-04T08:59:48.114Z</time></trkpt><trkpt lat="43.9999333" lon="10.8332106"><ele>747.0</ele><time>2026-04-04T08:59:49.112Z</time></trkpt><trkpt lat="43.9999841" lon="10.8332747"><ele>747.0</ele><time>2026-04-04T08:59:50.113Z</time></trkpt><trkpt lat="44.0000421" lon="10.8333181"><ele>747.0</ele><time>2026-04-04T08:59:51.112Z</time></trkpt><trkpt lat="44.0001076" lon="10.833361"><ele>747.0</ele><time>2026-04-04T08:59:52.113Z</time></trkpt><trkpt lat="44.0001837" lon="10.8334182"><ele>747.0</ele><time>2026-04-04T08:59:53.113Z</time></trkpt><trkpt lat="44.0002482" lon="10.8334803"><ele>746.6666666666666</ele><time>2026-04-04T08:59:54.113Z</time></trkpt><trkpt lat="44.0002755" lon="10.8335674"><ele>746.3333333333334</ele><time>2026-04-04T08:59:55.113Z</time></trkpt><trkpt lat="44.0003542" lon="10.8336756"><ele>746.0</ele><time>2026-04-04T08:59:57.113Z</time></trkpt><trkpt lat="44.0004443" lon="10.8337222"><ele>745.6666666666667</ele><time>2026-04-04T08:59:58.112Z</time></trkpt><trkpt lat="44.0005227" lon="10.8337778"><ele>745.3333333333334</ele><time>2026-04-04T08:59:59.112Z</time></trkpt><trkpt lat="44.00059" lon="10.8338417"><ele>745.0</ele><time>2026-04-04T09:00:00.112Z</time></trkpt><trkpt lat="44.0006538" lon="10.8339244"><ele>745.0</ele><time>2026-04-04T09:00:01.112Z</time></trkpt><trkpt lat="44.0006944" lon="10.8339984"><ele>745.0</ele><time>2026-04-04T09:00:02.114Z</time></trkpt><trkpt lat="44.0007332" lon="10.8340707"><ele>745.0</ele><time>2026-04-04T09:00:03.113Z</time></trkpt><trkpt lat="44.0007707" lon="10.8341494"><ele>745.0</ele><time>2026-04-04T09:00:04.113Z</time></trkpt><trkpt lat="44.0008223" lon="10.8342224"><ele>745.0</ele><time>2026-04-04T09:00:06.113Z</time></trkpt><trkpt lat="44.000891" lon="10.8341987"><ele>745.0</ele><time>2026-04-04T09:00:08.113Z</time></trkpt><trkpt lat="44.0009614" lon="10.8341542"><ele>745.0</ele><time>2026-04-04T09:00:09.113Z</time></trkpt><trkpt lat="44.0010617" lon="10.834097"><ele>747.6</ele><time>2026-04-04T09:00:10.113Z</time></trkpt><trkpt lat="44.0011613" lon="10.8340532"><ele>750.2</ele><time>2026-04-04T09:00:11.113Z</time></trkpt><trkpt lat="44.001228" lon="10.8340236"><ele>752.8</ele><time>2026-04-04T09:00:12.112Z</time></trkpt><trkpt lat="44.0013248" lon="10.8339883"><ele>755.4</ele><time>2026-04-04T09:00:14.113Z</time></trkpt><trkpt lat="44.0014575" lon="10.8340133"><ele>758.0</ele><time>2026-04-04T09:00:16.113Z</time></trkpt><trkpt lat="44.0015314" lon="10.8340262"><ele>758.0</ele><time>2026-04-04T09:00:17.112Z</time></trkpt><trkpt lat="44.0016015" lon="10.834033"><ele>758.0</ele><time>2026-04-04T09:00:18.113Z</time></trkpt><trkpt lat="44.0016657" lon="10.8340366"><ele>758.0</ele><time>2026-04-04T09:00:19.113Z</time></trkpt><trkpt lat="44.0017873" lon="10.8340424"><ele>758.0</ele><time>2026-04-04T09:00:21.113Z</time></trkpt><trkpt lat="44.0019081" lon="10.8339777"><ele>758.0</ele><time>2026-04-04T09:00:23.113Z</time></trkpt><trkpt lat="44.0019678" lon="10.8339192"><ele>758.7142857142858</ele><time>2026-04-04T09:00:24.113Z</time></trkpt><trkpt lat="44.002024" lon="10.8338697"><ele>759.4285714285714</ele><time>2026-04-04T09:00:25.112Z</time></trkpt><trkpt lat="44.0020869" lon="10.8338568"><ele>760.1428571428571</ele><time>2026-04-04T09:00:26.113Z</time></trkpt><trkpt lat="44.0021549" lon="10.8338706"><ele>760.8571428571429</ele><time>2026-04-04T09:00:27.113Z</time></trkpt><trkpt lat="44.0022258" lon="10.8339155"><ele>761.5714285714286</ele><time>2026-04-04T09:00:28.113Z</time></trkpt><trkpt lat="44.0022879" lon="10.8339823"><ele>762.2857142857143</ele><time>2026-04-04T09:00:29.112Z</time></trkpt><trkpt lat="44.0023398" lon="10.8340528"><ele>763.0</ele><time>2026-04-04T09:00:30.112Z</time></trkpt><trkpt lat="44.0024194" lon="10.834172"><ele>763.0</ele><time>2026-04-04T09:00:32.113Z</time></trkpt><trkpt lat="44.002464" lon="10.834269"><ele>763.0</ele><time>2026-04-04T09:00:34.112Z</time></trkpt><trkpt lat="44.002518" lon="10.8343248"><ele>763.0</ele><time>2026-04-04T09:00:36.113Z</time></trkpt><trkpt lat="44.0026618" lon="10.8343492"><ele>763.0</ele><time>2026-04-04T09:00:38.113Z</time></trkpt><trkpt lat="44.0027564" lon="10.8343902"><ele>763.0</ele><time>2026-04-04T09:00:39.114Z</time></trkpt><trkpt lat="44.0028522" lon="10.8344697"><ele>762.0</ele><time>2026-04-04T09:00:40.113Z</time></trkpt><trkpt lat="44.0029463" lon="10.8345791"><ele>761.0</ele><time>2026-04-04T09:00:41.112Z</time></trkpt><trkpt lat="44.0030439" lon="10.8347001"><ele>760.0</ele><time>2026-04-04T09:00:42.113Z</time></trkpt><trkpt lat="44.0031425" lon="10.8348149"><ele>759.0</ele><time>2026-04-04T09:00:43.113Z</time></trkpt><trkpt lat="44.0032401" lon="10.8349208"><ele>759.0</ele><time>2026-04-04T09:00:44.113Z</time></trkpt><trkpt lat="44.0033369" lon="10.835028"><ele>759.0</ele><time>2026-04-04T09:00:45.113Z</time></trkpt><trkpt lat="44.0034346" lon="10.8351362"><ele>759.0</ele><time>2026-04-04T09:00:46.112Z</time></trkpt><trkpt lat="44.0035347" lon="10.8352435"><ele>759.0</ele><time>2026-04-04T09:00:47.113Z</time></trkpt><trkpt lat="44.0036278" lon="10.8353492"><ele>759.0</ele><time>2026-04-04T09:00:48.113Z</time></trkpt><trkpt lat="44.00372" lon="10.8354426"><ele>759.0</ele><time>2026-04-04T09:00:49.113Z</time></trkpt><trkpt lat="44.0037989" lon="10.8355189"><ele>759.0</ele><time>2026-04-04T09:00:50.112Z</time></trkpt><trkpt lat="44.0038639" lon="10.8355762"><ele>759.0</ele><time>2026-04-04T09:00:51.113Z</time></trkpt><trkpt lat="44.0039667" lon="10.8356157"><ele>759.0</ele><time>2026-04-04T09:00:53.113Z</time></trkpt><trkpt lat="44.0040529" lon="10.8356208"><ele>759.0</ele><time>2026-04-04T09:00:56.112Z</time></trkpt><trkpt lat="44.0040859" lon="10.8355321"><ele>759.0</ele><time>2026-04-04T09:00:59.113Z</time></trkpt><trkpt lat="44.0040159" lon="10.8355447"><ele>759.0</ele><time>2026-04-04T09:10:54.112Z</time></trkpt><trkpt lat="44.0039482" lon="10.8355719"><ele>759.0</ele><time>2026-04-04T09:11:00.112Z</time></trkpt><trkpt lat="44.0038865" lon="10.8355238"><ele>759.0</ele><time>2026-04-04T09:11:06.112Z</time></trkpt><trkpt lat="44.0038414" lon="10.8354519"><ele>759.0</ele><time>2026-04-04T09:11:12.112Z</time></trkpt><trkpt lat="44.0037919" lon="10.8353965"><ele>759.0</ele><time>2026-04-04T09:11:18.112Z</time></trkpt><trkpt lat="44.0038324" lon="10.8353271"><ele>759.0</ele><time>2026-04-04T09:11:27.113Z</time></trkpt><trkpt lat="44.0038456" lon="10.835448"><ele>759.0</ele><time>2026-04-04T09:17:04.111Z</time></trkpt><trkpt lat="44.0038188" lon="10.8353678"><ele>759.0</ele><time>2026-04-04T09:22:11.11Z</time></trkpt><trkpt lat="44.0038424" lon="10.8354503"><ele>759.0</ele><time>2026-04-04T09:23:19.11Z</time></trkpt><trkpt lat="44.0039193" lon="10.8354972"><ele>759.0</ele><time>2026-04-04T09:23:23.11Z</time></trkpt><trkpt lat="44.003984" lon="10.835503"><ele>759.0</ele><time>2026-04-04T09:23:30.11Z</time></trkpt><trkpt lat="44.0040546" lon="10.8355013"><ele>759.0</ele><time>2026-04-04T09:23:36.11Z</time></trkpt><trkpt lat="44.0039945" lon="10.8355683"><ele>759.0</ele><time>2026-04-04T09:26:39.11Z</time></trkpt><trkpt lat="44.0039033" lon="10.8355635"><ele>759.0</ele><time>2026-04-04T09:26:41.11Z</time></trkpt><trkpt lat="44.0037939" lon="10.8355509"><ele>759.0</ele><time>2026-04-04T09:26:43.109Z</time></trkpt><trkpt lat="44.0037357" lon="10.835587"><ele>759.0</ele><time>2026-04-04T09:26:44.111Z</time></trkpt><trkpt lat="44.0037047" lon="10.8357262"><ele>759.0</ele><time>2026-04-04T09:26:45.111Z</time></trkpt><trkpt lat="44.0036441" lon="10.8358149"><ele>759.0</ele><time>2026-04-04T09:26:46.11Z</time></trkpt><trkpt lat="44.0035793" lon="10.8359078"><ele>759.0</ele><time>2026-04-04T09:26:47.109Z</time></trkpt><trkpt lat="44.0035133" lon="10.836011"><ele>759.0</ele><time>2026-04-04T09:26:48.111Z</time></trkpt><trkpt lat="44.0034463" lon="10.8361253"><ele>759.0</ele><time>2026-04-04T09:26:49.109Z</time></trkpt><trkpt lat="44.0033771" lon="10.8362443"><ele>759.0</ele><time>2026-04-04T09:26:50.11Z</time></trkpt><trkpt lat="44.0033122" lon="10.8363478"><ele>760.0</ele><time>2026-04-04T09:26:51.109Z</time></trkpt><trkpt lat="44.0032479" lon="10.8364342"><ele>761.0</ele><time>2026-04-04T09:26:52.109Z</time></trkpt><trkpt lat="44.0031786" lon="10.8365111"><ele>762.0</ele><time>2026-04-04T09:26:53.109Z</time></trkpt><trkpt lat="44.0031137" lon="10.8365728"><ele>763.0</ele><time>2026-04-04T09:26:54.109Z</time></trkpt><trkpt lat="44.0030424" lon="10.8366194"><ele>764.0</ele><time>2026-04-04T09:26:55.109Z</time></trkpt><trkpt lat="44.0029655" lon="10.8366497"><ele>765.0</ele><time>2026-04-04T09:26:56.109Z</time></trkpt><trkpt lat="44.0028905" lon="10.8366719"><ele>765.0</ele><time>2026-04-04T09:26:57.109Z</time></trkpt><trkpt lat="44.00282" lon="10.8367168"><ele>765.0</ele><time>2026-04-04T09:26:58.109Z</time></trkpt><trkpt lat="44.0027507" lon="10.8367785"><ele>765.0</ele><time>2026-04-04T09:26:59.108Z</time></trkpt><trkpt lat="44.0026947" lon="10.8368519"><ele>765.0</ele><time>2026-04-04T09:27:00.109Z</time></trkpt><trkpt lat="44.0026398" lon="10.8369256"><ele>765.0</ele><time>2026-04-04T09:27:01.109Z</time></trkpt><trkpt lat="44.0025732" lon="10.8369954"><ele>765.0</ele><time>2026-04-04T09:27:02.109Z</time></trkpt><trkpt lat="44.0025027" lon="10.8370698"><ele>762.0</ele><time>2026-04-04T09:27:03.109Z</time></trkpt><trkpt lat="44.0024306" lon="10.8371619"><ele>759.0</ele><time>2026-04-04T09:27:04.109Z</time></trkpt><trkpt lat="44.0023755" lon="10.8372562"><ele>756.0</ele><time>2026-04-04T09:27:05.108Z</time></trkpt><trkpt lat="44.0023258" lon="10.8373534"><ele>753.0</ele><time>2026-04-04T09:27:06.109Z</time></trkpt><trkpt lat="44.0022787" lon="10.8374712"><ele>750.0</ele><time>2026-04-04T09:27:07.109Z</time></trkpt><trkpt lat="44.0022297" lon="10.8375893"><ele>752.8</ele><time>2026-04-04T09:27:08.109Z</time></trkpt><trkpt lat="44.0021748" lon="10.8376996"><ele>755.6</ele><time>2026-04-04T09:27:09.109Z</time></trkpt><trkpt lat="44.0021082" lon="10.8378097"><ele>758.4000000000001</ele><time>2026-04-04T09:27:10.109Z</time></trkpt><trkpt lat="44.0020302" lon="10.8379054"><ele>761.2</ele><time>2026-04-04T09:27:11.109Z</time></trkpt><trkpt lat="44.0019477" lon="10.8379767"><ele>764.0</ele><time>2026-04-04T09:27:12.108Z</time></trkpt><trkpt lat="44.0018641" lon="10.838033"><ele>764.0</ele><time>2026-04-04T09:27:13.108Z</time></trkpt><trkpt lat="44.0017733" lon="10.8380808"><ele>764.0</ele><time>2026-04-04T09:27:14.109Z</time></trkpt><trkpt lat="44.0016836" lon="10.8381387"><ele>764.0</ele><time>2026-04-04T09:27:15.108Z</time></trkpt><trkpt lat="44.0016057" lon="10.8382043"><ele>764.0</ele><time>2026-04-04T09:27:16.109Z</time></trkpt><trkpt lat="44.0015096" lon="10.8382846"><ele>764.0</ele><time>2026-04-04T09:27:17.109Z</time></trkpt><trkpt lat="44.0014237" lon="10.8384021"><ele>762.8000000000001</ele><time>2026-04-04T09:27:18.109Z</time></trkpt><trkpt lat="44.0013449" lon="10.8384859"><ele>761.6</ele><time>2026-04-04T09:27:19.109Z</time></trkpt><trkpt lat="44.0012609" lon="10.8385928"><ele>760.4</ele><time>2026-04-04T09:27:20.109Z</time></trkpt><trkpt lat="44.0011798" lon="10.8386986"><ele>759.2</ele><time>2026-04-04T09:27:21.108Z</time></trkpt><trkpt lat="44.0011273" lon="10.8387813"><ele>758.0</ele><time>2026-04-04T09:27:22.109Z</time></trkpt><trkpt lat="44.0010942" lon="10.8389092"><ele>758.0000000000001</ele><time>2026-04-04T09:27:24.108Z</time></trkpt><trkpt lat="44.0010779" lon="10.8390275"><ele>758.0</ele><time>2026-04-04T09:27:26.109Z</time></trkpt><trkpt lat="44.0010757" lon="10.8391248"><ele>758.0</ele><time>2026-04-04T09:27:27.109Z</time></trkpt><trkpt lat="44.001074" lon="10.8392126"><ele>758.0</ele><time>2026-04-04T09:27:28.109Z</time></trkpt><trkpt lat="44.0010873" lon="10.8393296"><ele>758.0</ele><time>2026-04-04T09:27:29.109Z</time></trkpt><trkpt lat="44.0011006" lon="10.8394183"><ele>758.0000000000001</ele><time>2026-04-04T09:27:30.108Z</time></trkpt><trkpt lat="44.0011159" lon="10.8395175"><ele>758.0</ele><time>2026-04-04T09:27:31.109Z</time></trkpt><trkpt lat="44.0011864" lon="10.8396191"><ele>757.8</ele><time>2026-04-04T09:27:32.109Z</time></trkpt><trkpt lat="44.0012402" lon="10.8397296"><ele>757.5999999999999</ele><time>2026-04-04T09:27:33.108Z</time></trkpt><trkpt lat="44.0012751" lon="10.8398302"><ele>757.4000000000001</ele><time>2026-04-04T09:27:34.108Z</time></trkpt><trkpt lat="44.0012744" lon="10.8399839"><ele>757.2</ele><time>2026-04-04T09:27:35.109Z</time></trkpt><trkpt lat="44.0012788" lon="10.840135"><ele>757.0</ele><time>2026-04-04T09:27:36.109Z</time></trkpt><trkpt lat="44.0012777" lon="10.8402846"><ele>758.0</ele><time>2026-04-04T09:27:37.109Z</time></trkpt><trkpt lat="44.0012795" lon="10.8404353"><ele>759.0</ele><time>2026-04-04T09:27:38.108Z</time></trkpt><trkpt lat="44.0012894" lon="10.8405951"><ele>760.0</ele><time>2026-04-04T09:27:39.109Z</time></trkpt><trkpt lat="44.0012939" lon="10.8407647"><ele>761.0</ele><time>2026-04-04T09:27:40.108Z</time></trkpt><trkpt lat="44.001286" lon="10.840928"><ele>763.4</ele><time>2026-04-04T09:27:41.109Z</time></trkpt><trkpt lat="44.0012797" lon="10.8410778"><ele>765.8</ele><time>2026-04-04T09:27:42.109Z</time></trkpt><trkpt lat="44.0012833" lon="10.8412299"><ele>768.1999999999999</ele><time>2026-04-04T09:27:43.108Z</time></trkpt><trkpt lat="44.0012788" lon="10.8413756"><ele>770.5999999999999</ele><time>2026-04-04T09:27:44.108Z</time></trkpt><trkpt lat="44.001264" lon="10.8415052"><ele>773.0</ele><time>2026-04-04T09:27:45.108Z</time></trkpt><trkpt lat="44.0012446" lon="10.8416397"><ele>773.0000000000001</ele><time>2026-04-04T09:27:46.109Z</time></trkpt><trkpt lat="44.0012267" lon="10.8417704"><ele>773.0</ele><time>2026-04-04T09:27:47.11Z</time></trkpt><trkpt lat="44.0012019" lon="10.8418935"><ele>773.0</ele><time>2026-04-04T09:27:48.109Z</time></trkpt><trkpt lat="44.0011697" lon="10.8420145"><ele>773.0</ele><time>2026-04-04T09:27:49.109Z</time></trkpt><trkpt lat="44.0011558" lon="10.8421206"><ele>773.0000000000001</ele><time>2026-04-04T09:27:50.109Z</time></trkpt><trkpt lat="44.0011665" lon="10.8422122"><ele>773.0</ele><time>2026-04-04T09:27:51.109Z</time></trkpt><trkpt lat="44.001185" lon="10.8423115"><ele>773.0</ele><time>2026-04-04T09:27:52.109Z</time></trkpt><trkpt lat="44.0012391" lon="10.8424188"><ele>773.0</ele><time>2026-04-04T09:27:53.109Z</time></trkpt><trkpt lat="44.0012852" lon="10.8425447"><ele>773.0</ele><time>2026-04-04T09:27:54.109Z</time></trkpt><trkpt lat="44.0013209" lon="10.842681"><ele>773.0</ele><time>2026-04-04T09:27:55.108Z</time></trkpt><trkpt lat="44.0013646" lon="10.8428204"><ele>773.0</ele><time>2026-04-04T09:27:56.109Z</time></trkpt><trkpt lat="44.0014025" lon="10.8429566"><ele>773.2</ele><time>2026-04-04T09:27:57.109Z</time></trkpt><trkpt lat="44.0014565" lon="10.843095"><ele>773.4</ele><time>2026-04-04T09:27:58.109Z</time></trkpt><trkpt lat="44.0014944" lon="10.8432436"><ele>773.6</ele><time>2026-04-04T09:27:59.109Z</time></trkpt><trkpt lat="44.00155" lon="10.8433323"><ele>773.8000000000001</ele><time>2026-04-04T09:28:00.109Z</time></trkpt><trkpt lat="44.001595" lon="10.8434301"><ele>774.0</ele><time>2026-04-04T09:28:01.109Z</time></trkpt><trkpt lat="44.0016271" lon="10.8435178"><ele>776.0</ele><time>2026-04-04T09:28:02.11Z</time></trkpt><trkpt lat="44.0016678" lon="10.8436812"><ele>778.0</ele><time>2026-04-04T09:28:04.108Z</time></trkpt><trkpt lat="44.0015976" lon="10.8437517"><ele>780.0</ele><time>2026-04-04T09:28:05.109Z</time></trkpt><trkpt lat="44.0015656" lon="10.8438355"><ele>782.0</ele><time>2026-04-04T09:28:06.109Z</time></trkpt><trkpt lat="44.0015038" lon="10.8439186"><ele>784.0</ele><time>2026-04-04T09:28:07.109Z</time></trkpt><trkpt lat="44.0014571" lon="10.8440172"><ele>784.0</ele><time>2026-04-04T09:28:08.109Z</time></trkpt><trkpt lat="44.0014383" lon="10.8441412"><ele>784.0</ele><time>2026-04-04T09:28:09.109Z</time></trkpt><trkpt lat="44.0014147" lon="10.8442611"><ele>784.0</ele><time>2026-04-04T09:28:10.108Z</time></trkpt><trkpt lat="44.0013783" lon="10.8444015"><ele>784.0</ele><time>2026-04-04T09:28:11.109Z</time></trkpt><trkpt lat="44.0013548" lon="10.8445779"><ele>784.0</ele><time>2026-04-04T09:28:12.108Z</time></trkpt><trkpt lat="44.001331" lon="10.8447232"><ele>784.4000000000001</ele><time>2026-04-04T09:28:13.109Z</time></trkpt><trkpt lat="44.0012905" lon="10.8448694"><ele>784.8</ele><time>2026-04-04T09:28:14.109Z</time></trkpt><trkpt lat="44.0012395" lon="10.8450315"><ele>785.2</ele><time>2026-04-04T09:28:15.109Z</time></trkpt><trkpt lat="44.001207" lon="10.845155"><ele>785.5999999999999</ele><time>2026-04-04T09:28:16.109Z</time></trkpt><trkpt lat="44.0011758" lon="10.8452962"><ele>786.0</ele><time>2026-04-04T09:28:17.109Z</time></trkpt><trkpt lat="44.0011592" lon="10.8454101"><ele>786.0</ele><time>2026-04-04T09:28:18.109Z</time></trkpt><trkpt lat="44.0011318" lon="10.8455382"><ele>786.0</ele><time>2026-04-04T09:28:19.11Z</time></trkpt><trkpt lat="44.0011466" lon="10.8456584"><ele>786.0</ele><time>2026-04-04T09:28:20.109Z</time></trkpt><trkpt lat="44.0011625" lon="10.8457699"><ele>786.0</ele><time>2026-04-04T09:28:21.109Z</time></trkpt><trkpt lat="44.0011932" lon="10.8458933"><ele>786.0</ele><time>2026-04-04T09:28:22.109Z</time></trkpt><trkpt lat="44.0012184" lon="10.8460129"><ele>786.0</ele><time>2026-04-04T09:28:23.11Z</time></trkpt><trkpt lat="44.0012381" lon="10.8461189"><ele>784.5999999999999</ele><time>2026-04-04T09:28:24.108Z</time></trkpt><trkpt lat="44.0012341" lon="10.8462544"><ele>783.2</ele><time>2026-04-04T09:28:25.109Z</time></trkpt><trkpt lat="44.001255" lon="10.8463785"><ele>781.8</ele><time>2026-04-04T09:28:26.109Z</time></trkpt><trkpt lat="44.0012959" lon="10.8465245"><ele>780.4000000000001</ele><time>2026-04-04T09:28:27.109Z</time></trkpt><trkpt lat="44.0013669" lon="10.8466633"><ele>779.0</ele><time>2026-04-04T09:28:28.109Z</time></trkpt><trkpt lat="44.0014626" lon="10.8468131"><ele>777.75</ele><time>2026-04-04T09:28:29.109Z</time></trkpt><trkpt lat="44.0015046" lon="10.8469691"><ele>776.5</ele><time>2026-04-04T09:28:30.108Z</time></trkpt><trkpt lat="44.0015156" lon="10.8471159"><ele>775.25</ele><time>2026-04-04T09:28:31.109Z</time></trkpt><trkpt lat="44.0015471" lon="10.8472525"><ele>774.0</ele><time>2026-04-04T09:28:32.109Z</time></trkpt><trkpt lat="44.0015882" lon="10.847422"><ele>774.0</ele><time>2026-04-04T09:28:33.108Z</time></trkpt><trkpt lat="44.0016308" lon="10.8475802"><ele>774.0</ele><time>2026-04-04T09:28:34.109Z</time></trkpt><trkpt lat="44.0016778" lon="10.8477464"><ele>774.0</ele><time>2026-04-04T09:28:35.109Z</time></trkpt><trkpt lat="44.0017219" lon="10.8479404"><ele>774.0</ele><time>2026-04-04T09:28:36.109Z</time></trkpt><trkpt lat="44.0017597" lon="10.8481205"><ele>773.75</ele><time>2026-04-04T09:28:37.109Z</time></trkpt><trkpt lat="44.0017998" lon="10.8483015"><ele>773.5</ele><time>2026-04-04T09:28:38.109Z</time></trkpt><trkpt lat="44.0018422" lon="10.84847"><ele>773.25</ele><time>2026-04-04T09:28:39.108Z</time></trkpt><trkpt lat="44.0018723" lon="10.8486288"><ele>773.0</ele><time>2026-04-04T09:28:40.109Z</time></trkpt><trkpt lat="44.0019028" lon="10.8487603"><ele>773.0</ele><time>2026-04-04T09:28:41.109Z</time></trkpt><trkpt lat="44.0019415" lon="10.848878"><ele>773.0</ele><time>2026-04-04T09:28:42.109Z</time></trkpt><trkpt lat="44.0019814" lon="10.8489978"><ele>773.0</ele><time>2026-04-04T09:28:43.11Z</time></trkpt><trkpt lat="44.0020207" lon="10.8491205"><ele>773.0</ele><time>2026-04-04T09:28:44.109Z</time></trkpt><trkpt lat="44.0020568" lon="10.8492303"><ele>773.0</ele><time>2026-04-04T09:28:45.109Z</time></trkpt><trkpt lat="44.0020892" lon="10.8493332"><ele>773.5999999999999</ele><time>2026-04-04T09:28:46.109Z</time></trkpt><trkpt lat="44.0021226" lon="10.849426"><ele>774.1999999999999</ele><time>2026-04-04T09:28:47.109Z</time></trkpt><trkpt lat="44.0021068" lon="10.8496064"><ele>774.8</ele><time>2026-04-04T09:28:49.109Z</time></trkpt><trkpt lat="44.0020909" lon="10.8497253"><ele>775.4</ele><time>2026-04-04T09:28:50.109Z</time></trkpt><trkpt lat="44.0020446" lon="10.8498846"><ele>776.0</ele><time>2026-04-04T09:28:51.109Z</time></trkpt><trkpt lat="44.0020299" lon="10.8500568"><ele>775.8</ele><time>2026-04-04T09:28:52.109Z</time></trkpt><trkpt lat="44.0020205" lon="10.8502307"><ele>775.5999999999999</ele><time>2026-04-04T09:28:53.109Z</time></trkpt><trkpt lat="44.0020103" lon="10.8503748"><ele>775.4</ele><time>2026-04-04T09:28:54.108Z</time></trkpt><trkpt lat="44.0019972" lon="10.8505337"><ele>775.2</ele><time>2026-04-04T09:28:55.109Z</time></trkpt><trkpt lat="44.0020042" lon="10.8506414"><ele>775.0</ele><time>2026-04-04T09:28:56.108Z</time></trkpt><trkpt lat="44.0020043" lon="10.8507511"><ele>775.0</ele><time>2026-04-04T09:28:57.109Z</time></trkpt><trkpt lat="44.0020074" lon="10.8508604"><ele>775.0</ele><time>2026-04-04T09:28:58.109Z</time></trkpt><trkpt lat="44.0020082" lon="10.8509553"><ele>775.0</ele><time>2026-04-04T09:28:59.108Z</time></trkpt><trkpt lat="44.0021483" lon="10.8509778"><ele>775.0</ele><time>2026-04-04T09:29:01.109Z</time></trkpt><trkpt lat="44.0022687" lon="10.8510088"><ele>775.0</ele><time>2026-04-04T09:29:02.109Z</time></trkpt><trkpt lat="44.0023517" lon="10.8510339"><ele>775.0</ele><time>2026-04-04T09:29:03.108Z</time></trkpt><trkpt lat="44.0024504" lon="10.851103"><ele>775.0</ele><time>2026-04-04T09:29:04.11Z</time></trkpt><trkpt lat="44.002536" lon="10.8511562"><ele>775.0</ele><time>2026-04-04T09:29:05.109Z</time></trkpt><trkpt lat="44.0026339" lon="10.8512243"><ele>775.0</ele><time>2026-04-04T09:29:06.109Z</time></trkpt><trkpt lat="44.002739" lon="10.8512929"><ele>775.0</ele><time>2026-04-04T09:29:07.11Z</time></trkpt><trkpt lat="44.0028325" lon="10.851368"><ele>775.0</ele><time>2026-04-04T09:29:08.109Z</time></trkpt><trkpt lat="44.0029287" lon="10.8514368"><ele>775.0</ele><time>2026-04-04T09:29:09.109Z</time></trkpt><trkpt lat="44.0030165" lon="10.8515328"><ele>775.0</ele><time>2026-04-04T09:29:10.108Z</time></trkpt><trkpt lat="44.0030903" lon="10.8516311"><ele>775.0</ele><time>2026-04-04T09:29:11.109Z</time></trkpt><trkpt lat="44.0031728" lon="10.8517295"><ele>775.0</ele><time>2026-04-04T09:29:12.109Z</time></trkpt><trkpt lat="44.0032534" lon="10.8518262"><ele>774.2</ele><time>2026-04-04T09:29:13.108Z</time></trkpt><trkpt lat="44.0033304" lon="10.8519223"><ele>773.4</ele><time>2026-04-04T09:29:14.109Z</time></trkpt><trkpt lat="44.0034123" lon="10.8520099"><ele>772.5999999999999</ele><time>2026-04-04T09:29:15.109Z</time></trkpt><trkpt lat="44.0034834" lon="10.8521029"><ele>771.8</ele><time>2026-04-04T09:29:16.108Z</time></trkpt><trkpt lat="44.0035486" lon="10.8522038"><ele>771.0</ele><time>2026-04-04T09:29:17.11Z</time></trkpt><trkpt lat="44.0036202" lon="10.8523052"><ele>771.0</ele><time>2026-04-04T09:29:18.11Z</time></trkpt><trkpt lat="44.0036891" lon="10.8523863"><ele>771.0</ele><time>2026-04-04T09:29:19.11Z</time></trkpt><trkpt lat="44.0037848" lon="10.8524343"><ele>771.0</ele><time>2026-04-04T09:29:20.109Z</time></trkpt><trkpt lat="44.003868" lon="10.8524519"><ele>771.0</ele><time>2026-04-04T09:29:21.109Z</time></trkpt><trkpt lat="44.0039609" lon="10.8524874"><ele>771.0</ele><time>2026-04-04T09:29:22.109Z</time></trkpt><trkpt lat="44.0040528" lon="10.8525303"><ele>771.0</ele><time>2026-04-04T09:29:23.109Z</time></trkpt><trkpt lat="44.0041554" lon="10.8526126"><ele>771.0</ele><time>2026-04-04T09:29:24.108Z</time></trkpt><trkpt lat="44.0042436" lon="10.8526923"><ele>771.0</ele><time>2026-04-04T09:29:25.109Z</time></trkpt><trkpt lat="44.0043219" lon="10.8527588"><ele>771.0</ele><time>2026-04-04T09:29:26.109Z</time></trkpt><trkpt lat="44.0044135" lon="10.852825"><ele>771.0</ele><time>2026-04-04T09:29:27.108Z</time></trkpt><trkpt lat="44.0044975" lon="10.8529005"><ele>770.1999999999999</ele><time>2026-04-04T09:29:28.109Z</time></trkpt><trkpt lat="44.0046004" lon="10.8529722"><ele>769.4</ele><time>2026-04-04T09:29:29.109Z</time></trkpt><trkpt lat="44.0046667" lon="10.8530506"><ele>768.6</ele><time>2026-04-04T09:29:30.109Z</time></trkpt><trkpt lat="44.0047555" lon="10.8531347"><ele>767.8</ele><time>2026-04-04T09:29:31.109Z</time></trkpt><trkpt lat="44.0048444" lon="10.8532239"><ele>767.0</ele><time>2026-04-04T09:29:32.108Z</time></trkpt><trkpt lat="44.0049305" lon="10.8533046"><ele>767.0</ele><time>2026-04-04T09:29:33.109Z</time></trkpt><trkpt lat="44.0049732" lon="10.8534029"><ele>767.0</ele><time>2026-04-04T09:29:34.109Z</time></trkpt><trkpt lat="44.0050334" lon="10.8535007"><ele>767.0</ele><time>2026-04-04T09:29:35.109Z</time></trkpt><trkpt lat="44.0050734" lon="10.8535832"><ele>767.0</ele><time>2026-04-04T09:29:36.109Z</time></trkpt><trkpt lat="44.0051249" lon="10.8536862"><ele>767.0</ele><time>2026-04-04T09:29:37.109Z</time></trkpt><trkpt lat="44.0051697" lon="10.853807"><ele>767.0</ele><time>2026-04-04T09:29:38.109Z</time></trkpt><trkpt lat="44.0052154" lon="10.8539176"><ele>766.3333333333333</ele><time>2026-04-04T09:29:39.109Z</time></trkpt><trkpt lat="44.005183" lon="10.8540558"><ele>765.6666666666666</ele><time>2026-04-04T09:29:40.109Z</time></trkpt><trkpt lat="44.0051932" lon="10.8541729"><ele>765.0</ele><time>2026-04-04T09:29:41.108Z</time></trkpt><trkpt lat="44.0052535" lon="10.8542544"><ele>764.3333333333334</ele><time>2026-04-04T09:29:42.108Z</time></trkpt><trkpt lat="44.0052766" lon="10.8543403"><ele>763.6666666666667</ele><time>2026-04-04T09:29:43.109Z</time></trkpt><trkpt lat="44.0053099" lon="10.8544173"><ele>763.0</ele><time>2026-04-04T09:29:44.108Z</time></trkpt><trkpt lat="44.0053938" lon="10.8544891"><ele>763.0</ele><time>2026-04-04T09:29:45.11Z</time></trkpt><trkpt lat="44.0054511" lon="10.8545717"><ele>763.0</ele><time>2026-04-04T09:29:46.109Z</time></trkpt><trkpt lat="44.0055245" lon="10.8546667"><ele>763.0</ele><time>2026-04-04T09:29:47.108Z</time></trkpt><trkpt lat="44.0055888" lon="10.8547476"><ele>763.0</ele><time>2026-04-04T09:29:48.109Z</time></trkpt><trkpt lat="44.0056486" lon="10.8548036"><ele>763.0</ele><time>2026-04-04T09:29:49.109Z</time></trkpt><trkpt lat="44.005743" lon="10.8548564"><ele>763.0</ele><time>2026-04-04T09:29:50.11Z</time></trkpt><trkpt lat="44.0058264" lon="10.8548748"><ele>763.2</ele><time>2026-04-04T09:29:51.109Z</time></trkpt><trkpt lat="44.0059104" lon="10.8549113"><ele>763.4</ele><time>2026-04-04T09:29:52.108Z</time></trkpt><trkpt lat="44.0060077" lon="10.8549572"><ele>763.6</ele><time>2026-04-04T09:29:53.11Z</time></trkpt><trkpt lat="44.0060916" lon="10.8551002"><ele>763.8000000000001</ele><time>2026-04-04T09:29:54.109Z</time></trkpt><trkpt lat="44.0061858" lon="10.8551978"><ele>764.0</ele><time>2026-04-04T09:29:55.108Z</time></trkpt><trkpt lat="44.0062765" lon="10.855306"><ele>764.0</ele><time>2026-04-04T09:29:56.109Z</time></trkpt><trkpt lat="44.0063125" lon="10.8554653"><ele>764.0</ele><time>2026-04-04T09:29:57.109Z</time></trkpt><trkpt lat="44.0063299" lon="10.8556642"><ele>764.0</ele><time>2026-04-04T09:29:58.109Z</time></trkpt><trkpt lat="44.006376" lon="10.8558296"><ele>764.0</ele><time>2026-04-04T09:29:59.11Z</time></trkpt><trkpt lat="44.0064136" lon="10.8559989"><ele>767.4000000000001</ele><time>2026-04-04T09:30:00.109Z</time></trkpt><trkpt lat="44.0064586" lon="10.8561659"><ele>770.8</ele><time>2026-04-04T09:30:01.109Z</time></trkpt><trkpt lat="44.0064862" lon="10.8562878"><ele>774.2</ele><time>2026-04-04T09:30:02.108Z</time></trkpt><trkpt lat="44.0065183" lon="10.856378"><ele>777.5999999999999</ele><time>2026-04-04T09:30:03.109Z</time></trkpt><trkpt lat="44.0065541" lon="10.8564774"><ele>781.0</ele><time>2026-04-04T09:30:04.109Z</time></trkpt><trkpt lat="44.0066082" lon="10.8565901"><ele>779.75</ele><time>2026-04-04T09:30:05.109Z</time></trkpt><trkpt lat="44.0066703" lon="10.8567232"><ele>778.5</ele><time>2026-04-04T09:30:06.109Z</time></trkpt><trkpt lat="44.0067351" lon="10.8568602"><ele>777.25</ele><time>2026-04-04T09:30:07.109Z</time></trkpt><trkpt lat="44.0068198" lon="10.8569781"><ele>776.0</ele><time>2026-04-04T09:30:08.109Z</time></trkpt><trkpt lat="44.0068775" lon="10.8571129"><ele>776.0</ele><time>2026-04-04T09:30:09.109Z</time></trkpt><trkpt lat="44.0069628" lon="10.8571203"><ele>776.0</ele><time>2026-04-04T09:30:10.109Z</time></trkpt><trkpt lat="44.0070713" lon="10.8571789"><ele>776.0</ele><time>2026-04-04T09:30:11.109Z</time></trkpt><trkpt lat="44.0072014" lon="10.8572593"><ele>776.0</ele><time>2026-04-04T09:30:12.11Z</time></trkpt><trkpt lat="44.007307" lon="10.8573533"><ele>776.0</ele><time>2026-04-04T09:30:13.109Z</time></trkpt><trkpt lat="44.0074217" lon="10.857503"><ele>776.0</ele><time>2026-04-04T09:30:14.109Z</time></trkpt><trkpt lat="44.0075272" lon="10.8576431"><ele>776.0</ele><time>2026-04-04T09:30:15.109Z</time></trkpt><trkpt lat="44.0076077" lon="10.8577887"><ele>776.0</ele><time>2026-04-04T09:30:16.109Z</time></trkpt><trkpt lat="44.0076947" lon="10.8579544"><ele>776.75</ele><time>2026-04-04T09:30:17.109Z</time></trkpt><trkpt lat="44.0077803" lon="10.858098"><ele>777.5</ele><time>2026-04-04T09:30:18.109Z</time></trkpt><trkpt lat="44.0078768" lon="10.8582103"><ele>778.25</ele><time>2026-04-04T09:30:19.109Z</time></trkpt><trkpt lat="44.0079864" lon="10.8582984"><ele>779.0</ele><time>2026-04-04T09:30:20.109Z</time></trkpt><trkpt lat="44.0080916" lon="10.8583883"><ele>780.75</ele><time>2026-04-04T09:30:21.109Z</time></trkpt><trkpt lat="44.0082168" lon="10.858468"><ele>782.5</ele><time>2026-04-04T09:30:22.109Z</time></trkpt><trkpt lat="44.0083551" lon="10.858511"><ele>784.25</ele><time>2026-04-04T09:30:23.109Z</time></trkpt><trkpt lat="44.0084925" lon="10.8585636"><ele>786.0</ele><time>2026-04-04T09:30:24.109Z</time></trkpt><trkpt lat="44.0085856" lon="10.8585796"><ele>786.0</ele><time>2026-04-04T09:30:25.109Z</time></trkpt><trkpt lat="44.0087053" lon="10.8586069"><ele>786.0</ele><time>2026-04-04T09:30:26.109Z</time></trkpt><trkpt lat="44.0088181" lon="10.8586443"><ele>786.0</ele><time>2026-04-04T09:30:27.109Z</time></trkpt><trkpt lat="44.0089166" lon="10.8586943"><ele>786.0</ele><time>2026-04-04T09:30:28.109Z</time></trkpt><trkpt lat="44.0090071" lon="10.8587673"><ele>786.0</ele><time>2026-04-04T09:30:29.109Z</time></trkpt><trkpt lat="44.0090904" lon="10.8588549"><ele>784.4</ele><time>2026-04-04T09:30:30.109Z</time></trkpt><trkpt lat="44.0091712" lon="10.8589308"><ele>782.8</ele><time>2026-04-04T09:30:31.109Z</time></trkpt><trkpt lat="44.0092524" lon="10.8589808"><ele>781.1999999999999</ele><time>2026-04-04T09:30:32.109Z</time></trkpt><trkpt lat="44.0093274" lon="10.8590267"><ele>779.5999999999999</ele><time>2026-04-04T09:30:33.109Z</time></trkpt><trkpt lat="44.0094374" lon="10.8589975"><ele>778.0</ele><time>2026-04-04T09:30:34.11Z</time></trkpt><trkpt lat="44.009536" lon="10.8589918"><ele>777.9999999999999</ele><time>2026-04-04T09:30:35.109Z</time></trkpt><trkpt lat="44.0096209" lon="10.8590064"><ele>778.0</ele><time>2026-04-04T09:30:36.108Z</time></trkpt><trkpt lat="44.0096965" lon="10.8590402"><ele>778.0</ele><time>2026-04-04T09:30:37.108Z</time></trkpt><trkpt lat="44.0097641" lon="10.8591026"><ele>778.0</ele><time>2026-04-04T09:30:38.108Z</time></trkpt><trkpt lat="44.0098089" lon="10.8591907"><ele>777.9999999999999</ele><time>2026-04-04T09:30:39.108Z</time></trkpt><trkpt lat="44.0098439" lon="10.8593125"><ele>778.0</ele><time>2026-04-04T09:30:40.109Z</time></trkpt><trkpt lat="44.0098743" lon="10.8594576"><ele>779.5</ele><time>2026-04-04T09:30:41.109Z</time></trkpt><trkpt lat="44.0099061" lon="10.8596219"><ele>781.0</ele><time>2026-04-04T09:30:42.109Z</time></trkpt><trkpt lat="44.0099209" lon="10.8598101"><ele>782.5</ele><time>2026-04-04T09:30:43.109Z</time></trkpt><trkpt lat="44.0099379" lon="10.8599868"><ele>784.0</ele><time>2026-04-04T09:30:44.109Z</time></trkpt><trkpt lat="44.0099466" lon="10.8601641"><ele>780.6</ele><time>2026-04-04T09:30:45.109Z</time></trkpt><trkpt lat="44.0099693" lon="10.8603242"><ele>777.2</ele><time>2026-04-04T09:30:46.108Z</time></trkpt><trkpt lat="44.0100025" lon="10.8604807"><ele>773.8000000000001</ele><time>2026-04-04T09:30:47.108Z</time></trkpt><trkpt lat="44.0100373" lon="10.8606275"><ele>770.4000000000001</ele><time>2026-04-04T09:30:48.109Z</time></trkpt><trkpt lat="44.0101039" lon="10.8607279"><ele>767.0</ele><time>2026-04-04T09:30:49.109Z</time></trkpt><trkpt lat="44.0101507" lon="10.8608405"><ele>767.0</ele><time>2026-04-04T09:30:50.109Z</time></trkpt><trkpt lat="44.0101897" lon="10.8609446"><ele>767.0</ele><time>2026-04-04T09:30:51.109Z</time></trkpt><trkpt lat="44.010236" lon="10.8610564"><ele>767.0</ele><time>2026-04-04T09:30:52.108Z</time></trkpt><trkpt lat="44.0102895" lon="10.8611441"><ele>767.0</ele><time>2026-04-04T09:30:53.108Z</time></trkpt><trkpt lat="44.0103732" lon="10.861159"><ele>767.0</ele><time>2026-04-04T09:30:54.109Z</time></trkpt><trkpt lat="44.0104369" lon="10.8611891"><ele>767.0</ele><time>2026-04-04T09:30:55.108Z</time></trkpt><trkpt lat="44.0105267" lon="10.8611525"><ele>766.8</ele><time>2026-04-04T09:30:56.11Z</time></trkpt><trkpt lat="44.0106163" lon="10.8611519"><ele>766.6</ele><time>2026-04-04T09:30:57.109Z</time></trkpt><trkpt lat="44.0107197" lon="10.8611682"><ele>766.4</ele><time>2026-04-04T09:30:58.109Z</time></trkpt><trkpt lat="44.0108267" lon="10.8611833"><ele>766.1999999999999</ele><time>2026-04-04T09:30:59.108Z</time></trkpt><trkpt lat="44.0109203" lon="10.8612147"><ele>766.0</ele><time>2026-04-04T09:31:00.109Z</time></trkpt><trkpt lat="44.0110034" lon="10.8612556"><ele>768.0</ele><time>2026-04-04T09:31:01.109Z</time></trkpt><trkpt lat="44.0110856" lon="10.861312"><ele>770.0</ele><time>2026-04-04T09:31:02.109Z</time></trkpt><trkpt lat="44.0111551" lon="10.8613705"><ele>772.0</ele><time>2026-04-04T09:31:03.108Z</time></trkpt><trkpt lat="44.0112094" lon="10.8614466"><ele>774.0</ele><time>2026-04-04T09:31:04.108Z</time></trkpt><trkpt lat="44.011243" lon="10.861542"><ele>775.9999999999999</ele><time>2026-04-04T09:31:05.108Z</time></trkpt><trkpt lat="44.011266" lon="10.8616612"><ele>778.0</ele><time>2026-04-04T09:31:06.11Z</time></trkpt><trkpt lat="44.0112754" lon="10.8617806"><ele>777.2</ele><time>2026-04-04T09:31:07.108Z</time></trkpt><trkpt lat="44.0112704" lon="10.8619045"><ele>776.4</ele><time>2026-04-04T09:31:08.108Z</time></trkpt><trkpt lat="44.0112781" lon="10.8620301"><ele>775.6</ele><time>2026-04-04T09:31:09.11Z</time></trkpt><trkpt lat="44.0112998" lon="10.8621603"><ele>774.8000000000001</ele><time>2026-04-04T09:31:10.109Z</time></trkpt><trkpt lat="44.0113417" lon="10.8622804"><ele>774.0</ele><time>2026-04-04T09:31:11.109Z</time></trkpt><trkpt lat="44.0114067" lon="10.8623662"><ele>774.0</ele><time>2026-04-04T09:31:12.108Z</time></trkpt><trkpt lat="44.0114968" lon="10.8624326"><ele>774.0</ele><time>2026-04-04T09:31:13.108Z</time></trkpt><trkpt lat="44.0115896" lon="10.8624848"><ele>774.0</ele><time>2026-04-04T09:31:14.109Z</time></trkpt><trkpt lat="44.0116799" lon="10.8625381"><ele>774.0</ele><time>2026-04-04T09:31:15.109Z</time></trkpt><trkpt lat="44.0117755" lon="10.8626"><ele>774.0</ele><time>2026-04-04T09:31:16.109Z</time></trkpt><trkpt lat="44.0118762" lon="10.8626505"><ele>772.4000000000001</ele><time>2026-04-04T09:31:17.108Z</time></trkpt><trkpt lat="44.0119679" lon="10.8626752"><ele>770.8</ele><time>2026-04-04T09:31:18.109Z</time></trkpt><trkpt lat="44.0120602" lon="10.8626645"><ele>769.2</ele><time>2026-04-04T09:31:19.109Z</time></trkpt><trkpt lat="44.0121474" lon="10.8626318"><ele>767.5999999999999</ele><time>2026-04-04T09:31:20.109Z</time></trkpt><trkpt lat="44.0122346" lon="10.862589"><ele>766.0</ele><time>2026-04-04T09:31:21.109Z</time></trkpt><trkpt lat="44.0123138" lon="10.8625613"><ele>766.0</ele><time>2026-04-04T09:31:22.108Z</time></trkpt><trkpt lat="44.0123824" lon="10.8625424"><ele>766.0</ele><time>2026-04-04T09:31:23.109Z</time></trkpt><trkpt lat="44.0124529" lon="10.8625188"><ele>766.0</ele><time>2026-04-04T09:31:24.109Z</time></trkpt><trkpt lat="44.0125222" lon="10.8624944"><ele>766.0</ele><time>2026-04-04T09:31:25.109Z</time></trkpt><trkpt lat="44.0125851" lon="10.8624985"><ele>766.0</ele><time>2026-04-04T09:31:26.108Z</time></trkpt><trkpt lat="44.0127008" lon="10.8625802"><ele>766.0</ele><time>2026-04-04T09:31:28.109Z</time></trkpt><trkpt lat="44.0127757" lon="10.8626522"><ele>770.5999999999999</ele><time>2026-04-04T09:31:29.109Z</time></trkpt><trkpt lat="44.0128498" lon="10.8627204"><ele>775.2</ele><time>2026-04-04T09:31:30.109Z</time></trkpt><trkpt lat="44.0129309" lon="10.8627952"><ele>779.8</ele><time>2026-04-04T09:31:31.108Z</time></trkpt><trkpt lat="44.0130186" lon="10.8628656"><ele>784.4000000000001</ele><time>2026-04-04T09:31:32.108Z</time></trkpt><trkpt lat="44.0131133" lon="10.8629318"><ele>789.0</ele><time>2026-04-04T09:31:33.11Z</time></trkpt><trkpt lat="44.013204" lon="10.8629989"><ele>789.0</ele><time>2026-04-04T09:31:34.109Z</time></trkpt><trkpt lat="44.0132967" lon="10.8630612"><ele>789.0</ele><time>2026-04-04T09:31:35.109Z</time></trkpt><trkpt lat="44.0134077" lon="10.8631388"><ele>789.0</ele><time>2026-04-04T09:31:36.11Z</time></trkpt><trkpt lat="44.013498" lon="10.8632076"><ele>789.0</ele><time>2026-04-04T09:31:37.109Z</time></trkpt><trkpt lat="44.013598" lon="10.8632822"><ele>789.0</ele><time>2026-04-04T09:31:38.109Z</time></trkpt><trkpt lat="44.0136822" lon="10.863362"><ele>793.8000000000001</ele><time>2026-04-04T09:31:39.109Z</time></trkpt><trkpt lat="44.0137514" lon="10.8634501"><ele>798.6</ele><time>2026-04-04T09:31:40.108Z</time></trkpt><trkpt lat="44.0138083" lon="10.8635444"><ele>803.4</ele><time>2026-04-04T09:31:41.108Z</time></trkpt><trkpt lat="44.013872" lon="10.8636564"><ele>808.2</ele><time>2026-04-04T09:31:42.11Z</time></trkpt><trkpt lat="44.0139276" lon="10.863782"><ele>813.0</ele><time>2026-04-04T09:31:43.109Z</time></trkpt><trkpt lat="44.0139752" lon="10.8639118"><ele>813.0</ele><time>2026-04-04T09:31:44.108Z</time></trkpt><trkpt lat="44.0140297" lon="10.8640413"><ele>813.0</ele><time>2026-04-04T09:31:45.108Z</time></trkpt><trkpt lat="44.014092" lon="10.8641546"><ele>813.0</ele><time>2026-04-04T09:31:46.109Z</time></trkpt><trkpt lat="44.0141681" lon="10.8642428"><ele>813.0</ele><time>2026-04-04T09:31:47.109Z</time></trkpt><trkpt lat="44.0142584" lon="10.8643218"><ele>813.0</ele><time>2026-04-04T09:31:48.109Z</time></trkpt><trkpt lat="44.0143526" lon="10.8643943"><ele>813.2</ele><time>2026-04-04T09:31:49.109Z</time></trkpt><trkpt lat="44.0144451" lon="10.8644495"><ele>813.4</ele><time>2026-04-04T09:31:50.109Z</time></trkpt><trkpt lat="44.0145421" lon="10.8644731"><ele>813.6</ele><time>2026-04-04T09:31:51.109Z</time></trkpt><trkpt lat="44.0146459" lon="10.8644687"><ele>813.8000000000001</ele><time>2026-04-04T09:31:52.108Z</time></trkpt><trkpt lat="44.0147453" lon="10.8644735"><ele>814.0</ele><time>2026-04-04T09:31:53.109Z</time></trkpt><trkpt lat="44.0148381" lon="10.8644498"><ele>813.9999999999999</ele><time>2026-04-04T09:31:55.108Z</time></trkpt><trkpt lat="44.0149161" lon="10.8644579"><ele>814.0</ele><time>2026-04-04T09:31:56.108Z</time></trkpt><trkpt lat="44.014983" lon="10.8644618"><ele>814.0</ele><time>2026-04-04T09:31:57.109Z</time></trkpt><trkpt lat="44.0150641" lon="10.8644996"><ele>814.0</ele><time>2026-04-04T09:31:58.11Z</time></trkpt><trkpt lat="44.0151321" lon="10.8645338"><ele>813.9999999999999</ele><time>2026-04-04T09:31:59.109Z</time></trkpt><trkpt lat="44.0152237" lon="10.8645562"><ele>814.0</ele><time>2026-04-04T09:32:00.109Z</time></trkpt><trkpt lat="44.0153134" lon="10.8645846"><ele>811.2</ele><time>2026-04-04T09:32:01.108Z</time></trkpt><trkpt lat="44.0154004" lon="10.8646114"><ele>808.4000000000001</ele><time>2026-04-04T09:32:02.108Z</time></trkpt><trkpt lat="44.0154647" lon="10.8646635"><ele>805.6</ele><time>2026-04-04T09:32:03.109Z</time></trkpt><trkpt lat="44.0155463" lon="10.8647287"><ele>802.8</ele><time>2026-04-04T09:32:04.108Z</time></trkpt><trkpt lat="44.0156333" lon="10.8648101"><ele>800.0</ele><time>2026-04-04T09:32:05.108Z</time></trkpt><trkpt lat="44.0156732" lon="10.8649786"><ele>801.2</ele><time>2026-04-04T09:32:06.109Z</time></trkpt><trkpt lat="44.0156999" lon="10.8651362"><ele>802.4</ele><time>2026-04-04T09:32:07.109Z</time></trkpt><trkpt lat="44.0157199" lon="10.8652932"><ele>803.5999999999999</ele><time>2026-04-04T09:32:08.109Z</time></trkpt><trkpt lat="44.0157321" lon="10.8654369"><ele>804.8</ele><time>2026-04-04T09:32:09.108Z</time></trkpt><trkpt lat="44.0157375" lon="10.865553"><ele>806.0</ele><time>2026-04-04T09:32:10.109Z</time></trkpt><trkpt lat="44.015743" lon="10.8656552"><ele>806.0</ele><time>2026-04-04T09:32:11.109Z</time></trkpt><trkpt lat="44.0157374" lon="10.8657519"><ele>806.0</ele><time>2026-04-04T09:32:12.108Z</time></trkpt><trkpt lat="44.0156577" lon="10.8658573"><ele>806.0</ele><time>2026-04-04T09:32:13.108Z</time></trkpt><trkpt lat="44.0155885" lon="10.8659651"><ele>806.0</ele><time>2026-04-04T09:32:14.109Z</time></trkpt><trkpt lat="44.0155029" lon="10.8660906"><ele>806.0</ele><time>2026-04-04T09:32:15.108Z</time></trkpt><trkpt lat="44.0154148" lon="10.8662004"><ele>803.4</ele><time>2026-04-04T09:32:16.108Z</time></trkpt><trkpt lat="44.0153378" lon="10.8662952"><ele>800.8</ele><time>2026-04-04T09:32:17.109Z</time></trkpt><trkpt lat="44.0152594" lon="10.8664025"><ele>798.1999999999999</ele><time>2026-04-04T09:32:18.108Z</time></trkpt><trkpt lat="44.0151993" lon="10.8664932"><ele>795.5999999999999</ele><time>2026-04-04T09:32:19.108Z</time></trkpt><trkpt lat="44.0151402" lon="10.8665854"><ele>793.0</ele><time>2026-04-04T09:32:20.109Z</time></trkpt><trkpt lat="44.0150841" lon="10.8666827"><ele>792.9999999999999</ele><time>2026-04-04T09:32:21.109Z</time></trkpt><trkpt lat="44.0150627" lon="10.8667658"><ele>793.0</ele><time>2026-04-04T09:32:22.108Z</time></trkpt><trkpt lat="44.0150606" lon="10.866892"><ele>793.0</ele><time>2026-04-04T09:32:24.108Z</time></trkpt><trkpt lat="44.0151576" lon="10.8670084"><ele>793.0</ele><time>2026-04-04T09:32:26.108Z</time></trkpt><trkpt lat="44.0152247" lon="10.867052"><ele>792.9999999999999</ele><time>2026-04-04T09:32:27.108Z</time></trkpt><trkpt lat="44.015311" lon="10.8670981"><ele>793.0</ele><time>2026-04-04T09:32:28.109Z</time></trkpt><trkpt lat="44.0153949" lon="10.8671541"><ele>793.8333333333333</ele><time>2026-04-04T09:32:29.108Z</time></trkpt><trkpt lat="44.0154702" lon="10.8672087"><ele>794.6666666666666</ele><time>2026-04-04T09:32:30.109Z</time></trkpt><trkpt lat="44.0155237" lon="10.8672693"><ele>795.5</ele><time>2026-04-04T09:32:31.109Z</time></trkpt><trkpt lat="44.0155475" lon="10.8673587"><ele>796.3333333333333</ele><time>2026-04-04T09:32:32.108Z</time></trkpt><trkpt lat="44.015547" lon="10.8674731"><ele>797.1666666666666</ele><time>2026-04-04T09:32:33.109Z</time></trkpt><trkpt lat="44.0155277" lon="10.8676038"><ele>798.0</ele><time>2026-04-04T09:32:34.11Z</time></trkpt><trkpt lat="44.0155113" lon="10.8677393"><ele>799.5999999999999</ele><time>2026-04-04T09:32:35.11Z</time></trkpt><trkpt lat="44.0154928" lon="10.8678658"><ele>801.1999999999999</ele><time>2026-04-04T09:32:36.109Z</time></trkpt><trkpt lat="44.015459" lon="10.8679995"><ele>802.8</ele><time>2026-04-04T09:32:37.109Z</time></trkpt><trkpt lat="44.0154311" lon="10.8681309"><ele>804.4</ele><time>2026-04-04T09:32:38.109Z</time></trkpt><trkpt lat="44.0154284" lon="10.8682625"><ele>806.0</ele><time>2026-04-04T09:32:39.109Z</time></trkpt><trkpt lat="44.0154588" lon="10.8683887"><ele>804.4</ele><time>2026-04-04T09:32:40.109Z</time></trkpt><trkpt lat="44.0155086" lon="10.8685125"><ele>802.8</ele><time>2026-04-04T09:32:41.108Z</time></trkpt><trkpt lat="44.0155705" lon="10.8686314"><ele>801.1999999999999</ele><time>2026-04-04T09:32:42.109Z</time></trkpt><trkpt lat="44.0156202" lon="10.8687431"><ele>799.5999999999999</ele><time>2026-04-04T09:32:43.109Z</time></trkpt><trkpt lat="44.0156562" lon="10.868862"><ele>798.0</ele><time>2026-04-04T09:32:44.109Z</time></trkpt><trkpt lat="44.0156911" lon="10.868987"><ele>798.0</ele><time>2026-04-04T09:32:45.108Z</time></trkpt><trkpt lat="44.0157429" lon="10.8691043"><ele>798.0</ele><time>2026-04-04T09:32:46.108Z</time></trkpt><trkpt lat="44.0158049" lon="10.8692096"><ele>798.0</ele><time>2026-04-04T09:32:47.108Z</time></trkpt><trkpt lat="44.0158545" lon="10.8693128"><ele>798.0</ele><time>2026-04-04T09:32:48.108Z</time></trkpt><trkpt lat="44.0158977" lon="10.8694174"><ele>798.0</ele><time>2026-04-04T09:32:49.108Z</time></trkpt><trkpt lat="44.0159469" lon="10.869514"><ele>796.5999999999999</ele><time>2026-04-04T09:32:50.109Z</time></trkpt><trkpt lat="44.0160185" lon="10.8695843"><ele>795.1999999999999</ele><time>2026-04-04T09:32:51.109Z</time></trkpt><trkpt lat="44.0161045" lon="10.8696316"><ele>793.8</ele><time>2026-04-04T09:32:52.108Z</time></trkpt><trkpt lat="44.0162021" lon="10.8696623"><ele>792.4</ele><time>2026-04-04T09:32:53.108Z</time></trkpt><trkpt lat="44.0162987" lon="10.8696859"><ele>791.0</ele><time>2026-04-04T09:32:54.109Z</time></trkpt><trkpt lat="44.0163853" lon="10.86971"><ele>791.0000000000001</ele><time>2026-04-04T09:32:55.109Z</time></trkpt><trkpt lat="44.0164688" lon="10.8697145"><ele>791.0</ele><time>2026-04-04T09:32:56.108Z</time></trkpt><trkpt lat="44.0165417" lon="10.8696786"><ele>791.0</ele><time>2026-04-04T09:32:57.109Z</time></trkpt><trkpt lat="44.0165909" lon="10.8696167"><ele>791.0</ele><time>2026-04-04T09:32:58.109Z</time></trkpt><trkpt lat="44.016648" lon="10.8695082"><ele>791.0000000000001</ele><time>2026-04-04T09:33:00.108Z</time></trkpt><trkpt lat="44.0167151" lon="10.8695042"><ele>791.0</ele><time>2026-04-04T09:33:03.109Z</time></trkpt><trkpt lat="44.0167143" lon="10.8696125"><ele>791.0</ele><time>2026-04-04T09:33:05.108Z</time></trkpt><trkpt lat="44.0167018" lon="10.8697288"><ele>791.0</ele><time>2026-04-04T09:33:07.109Z</time></trkpt><trkpt lat="44.0166809" lon="10.8698238"><ele>791.0</ele><time>2026-04-04T09:33:08.108Z</time></trkpt><trkpt lat="44.0166309" lon="10.8699567"><ele>791.0</ele><time>2026-04-04T09:33:09.108Z</time></trkpt><trkpt lat="44.0165853" lon="10.8700844"><ele>791.0</ele><time>2026-04-04T09:33:10.108Z</time></trkpt><trkpt lat="44.0165446" lon="10.8702084"><ele>793.1666666666667</ele><time>2026-04-04T09:33:11.108Z</time></trkpt><trkpt lat="44.0165418" lon="10.870299"><ele>795.3333333333334</ele><time>2026-04-04T09:33:12.108Z</time></trkpt><trkpt lat="44.0165516" lon="10.8703942"><ele>797.5</ele><time>2026-04-04T09:33:13.109Z</time></trkpt><trkpt lat="44.0165602" lon="10.8704828"><ele>799.6666666666667</ele><time>2026-04-04T09:33:14.109Z</time></trkpt><trkpt lat="44.0165946" lon="10.8706665"><ele>801.8333333333334</ele><time>2026-04-04T09:33:16.11Z</time></trkpt><trkpt lat="44.0165963" lon="10.8707682"><ele>804.0</ele><time>2026-04-04T09:33:17.109Z</time></trkpt><trkpt lat="44.0166386" lon="10.8709154"><ele>805.2</ele><time>2026-04-04T09:33:19.109Z</time></trkpt><trkpt lat="44.0167032" lon="10.8710517"><ele>806.4000000000001</ele><time>2026-04-04T09:33:21.109Z</time></trkpt><trkpt lat="44.0167115" lon="10.8711903"><ele>807.6</ele><time>2026-04-04T09:33:23.109Z</time></trkpt><trkpt lat="44.0167047" lon="10.8712855"><ele>808.8</ele><time>2026-04-04T09:33:24.108Z</time></trkpt><trkpt lat="44.0167109" lon="10.8714281"><ele>810.0</ele><time>2026-04-04T09:33:26.109Z</time></trkpt><trkpt lat="44.0167141" lon="10.8716196"><ele>810.0</ele><time>2026-04-04T09:33:28.109Z</time></trkpt><trkpt lat="44.016688" lon="10.8717153"><ele>810.0</ele><time>2026-04-04T09:33:29.109Z</time></trkpt><trkpt lat="44.0166846" lon="10.8718227"><ele>810.0</ele><time>2026-04-04T09:33:31.11Z</time></trkpt><trkpt lat="44.0168107" lon="10.8716824"><ele>810.0</ele><time>2026-04-04T09:33:42.108Z</time></trkpt><trkpt lat="44.0168717" lon="10.8716204"><ele>810.0</ele><time>2026-04-04T09:33:43.108Z</time></trkpt><trkpt lat="44.0169414" lon="10.8715304"><ele>810.0</ele><time>2026-04-04T09:33:44.109Z</time></trkpt><trkpt lat="44.0170079" lon="10.8714309"><ele>810.0</ele><time>2026-04-04T09:33:45.109Z</time></trkpt><trkpt lat="44.017047" lon="10.8712984"><ele>810.0</ele><time>2026-04-04T09:33:46.108Z</time></trkpt><trkpt lat="44.0170905" lon="10.8711814"><ele>810.0</ele><time>2026-04-04T09:33:47.109Z</time></trkpt><trkpt lat="44.0171318" lon="10.8710472"><ele>810.0</ele><time>2026-04-04T09:33:48.109Z</time></trkpt><trkpt lat="44.0171678" lon="10.8709307"><ele>811.2</ele><time>2026-04-04T09:33:49.108Z</time></trkpt><trkpt lat="44.0172103" lon="10.87085"><ele>812.4</ele><time>2026-04-04T09:33:50.108Z</time></trkpt><trkpt lat="44.0172921" lon="10.8707298"><ele>813.5999999999999</ele><time>2026-04-04T09:33:52.109Z</time></trkpt><trkpt lat="44.0174203" lon="10.8706281"><ele>814.8</ele><time>2026-04-04T09:33:54.11Z</time></trkpt><trkpt lat="44.0175223" lon="10.8706048"><ele>816.0</ele><time>2026-04-04T09:33:55.109Z</time></trkpt><trkpt lat="44.0176206" lon="10.8705756"><ele>816.0</ele><time>2026-04-04T09:33:56.109Z</time></trkpt><trkpt lat="44.0177558" lon="10.8705645"><ele>816.0</ele><time>2026-04-04T09:33:57.108Z</time></trkpt><trkpt lat="44.0178849" lon="10.8705633"><ele>816.0</ele><time>2026-04-04T09:33:58.108Z</time></trkpt><trkpt lat="44.0179967" lon="10.8705775"><ele>816.0</ele><time>2026-04-04T09:33:59.108Z</time></trkpt><trkpt lat="44.0181016" lon="10.8705789"><ele>816.0</ele><time>2026-04-04T09:34:00.109Z</time></trkpt><trkpt lat="44.0181995" lon="10.8705823"><ele>816.0</ele><time>2026-04-04T09:34:01.109Z</time></trkpt><trkpt lat="44.0182701" lon="10.8705904"><ele>816.0</ele><time>2026-04-04T09:34:04.108Z</time></trkpt><trkpt lat="44.0184041" lon="10.8706278"><ele>816.0</ele><time>2026-04-04T09:34:11.109Z</time></trkpt><trkpt lat="44.0184837" lon="10.8706449"><ele>816.0</ele><time>2026-04-04T09:34:12.109Z</time></trkpt><trkpt lat="44.0185638" lon="10.8706677"><ele>816.7142857142858</ele><time>2026-04-04T09:34:13.109Z</time></trkpt><trkpt lat="44.018642" lon="10.8707179"><ele>817.4285714285714</ele><time>2026-04-04T09:34:14.109Z</time></trkpt><trkpt lat="44.0187031" lon="10.87075"><ele>818.1428571428571</ele><time>2026-04-04T09:34:15.109Z</time></trkpt><trkpt lat="44.0187709" lon="10.870781"><ele>818.8571428571429</ele><time>2026-04-04T09:34:16.109Z</time></trkpt><trkpt lat="44.0188338" lon="10.8708277"><ele>819.5714285714286</ele><time>2026-04-04T09:34:17.109Z</time></trkpt><trkpt lat="44.0188939" lon="10.8708546"><ele>820.2857142857143</ele><time>2026-04-04T09:34:18.109Z</time></trkpt><trkpt lat="44.0189592" lon="10.8709325"><ele>821.0</ele><time>2026-04-04T09:34:19.109Z</time></trkpt><trkpt lat="44.0190068" lon="10.8710187"><ele>822.8333333333334</ele><time>2026-04-04T09:34:20.109Z</time></trkpt><trkpt lat="44.019062" lon="10.8711055"><ele>824.6666666666667</ele><time>2026-04-04T09:34:21.109Z</time></trkpt><trkpt lat="44.0191113" lon="10.8712192"><ele>826.5</ele><time>2026-04-04T09:34:22.11Z</time></trkpt><trkpt lat="44.0191525" lon="10.8713099"><ele>828.3333333333333</ele><time>2026-04-04T09:34:23.108Z</time></trkpt><trkpt lat="44.019223" lon="10.8713941"><ele>830.1666666666666</ele><time>2026-04-04T09:34:24.109Z</time></trkpt><trkpt lat="44.0192665" lon="10.8714964"><ele>832.0</ele><time>2026-04-04T09:34:25.109Z</time></trkpt><trkpt lat="44.019342" lon="10.8715115"><ele>832.0</ele><time>2026-04-04T09:34:26.109Z</time></trkpt><trkpt lat="44.0194107" lon="10.8715791"><ele>832.0</ele><time>2026-04-04T09:34:27.109Z</time></trkpt><trkpt lat="44.0194971" lon="10.871673"><ele>832.0</ele><time>2026-04-04T09:34:28.109Z</time></trkpt><trkpt lat="44.0195954" lon="10.8717834"><ele>832.0</ele><time>2026-04-04T09:34:29.109Z</time></trkpt><trkpt lat="44.0196649" lon="10.8719097"><ele>832.0</ele><time>2026-04-04T09:34:30.109Z</time></trkpt><trkpt lat="44.0197516" lon="10.8720153"><ele>832.8</ele><time>2026-04-04T09:34:31.109Z</time></trkpt><trkpt lat="44.0198208" lon="10.8720915"><ele>833.6</ele><time>2026-04-04T09:34:32.109Z</time></trkpt><trkpt lat="44.0198722" lon="10.8721569"><ele>834.4</ele><time>2026-04-04T09:34:33.109Z</time></trkpt><trkpt lat="44.019944" lon="10.8722393"><ele>835.1999999999999</ele><time>2026-04-04T09:34:34.108Z</time></trkpt><trkpt lat="44.0200212" lon="10.8723383"><ele>836.0</ele><time>2026-04-04T09:34:35.109Z</time></trkpt><trkpt lat="44.0200905" lon="10.8724392"><ele>836.0000000000001</ele><time>2026-04-04T09:34:36.108Z</time></trkpt><trkpt lat="44.0201718" lon="10.8725018"><ele>836.0</ele><time>2026-04-04T09:34:37.108Z</time></trkpt><trkpt lat="44.0202375" lon="10.8725458"><ele>836.0</ele><time>2026-04-04T09:34:38.109Z</time></trkpt><trkpt lat="44.0203022" lon="10.8725157"><ele>836.0</ele><time>2026-04-04T09:34:39.108Z</time></trkpt><trkpt lat="44.0203791" lon="10.8725299"><ele>836.0000000000001</ele><time>2026-04-04T09:34:40.109Z</time></trkpt><trkpt lat="44.0204697" lon="10.8725669"><ele>836.0</ele><time>2026-04-04T09:34:41.108Z</time></trkpt><trkpt lat="44.0205507" lon="10.8725837"><ele>836.0</ele><time>2026-04-04T09:34:42.109Z</time></trkpt><trkpt lat="44.0206445" lon="10.8726069"><ele>836.0</ele><time>2026-04-04T09:34:43.11Z</time></trkpt><trkpt lat="44.0207259" lon="10.8726242"><ele>836.0</ele><time>2026-04-04T09:34:44.109Z</time></trkpt><trkpt lat="44.0207882" lon="10.8726038"><ele>836.0</ele><time>2026-04-04T09:34:45.109Z</time></trkpt><trkpt lat="44.0208746" lon="10.8725794"><ele>836.0</ele><time>2026-04-04T09:34:46.109Z</time></trkpt><trkpt lat="44.0209863" lon="10.8725183"><ele>834.1999999999999</ele><time>2026-04-04T09:34:47.109Z</time></trkpt><trkpt lat="44.0210773" lon="10.872502"><ele>832.4</ele><time>2026-04-04T09:34:48.109Z</time></trkpt><trkpt lat="44.021164" lon="10.8725017"><ele>830.6</ele><time>2026-04-04T09:34:49.108Z</time></trkpt><trkpt lat="44.0212466" lon="10.872497"><ele>828.8</ele><time>2026-04-04T09:34:50.109Z</time></trkpt><trkpt lat="44.021366" lon="10.8724218"><ele>827.0</ele><time>2026-04-04T09:34:52.109Z</time></trkpt><trkpt lat="44.0214599" lon="10.8723527"><ele>827.0</ele><time>2026-04-04T09:34:53.109Z</time></trkpt><trkpt lat="44.0215381" lon="10.872305"><ele>827.0</ele><time>2026-04-04T09:34:54.108Z</time></trkpt><trkpt lat="44.0216029" lon="10.8722847"><ele>827.0</ele><time>2026-04-04T09:34:55.109Z</time></trkpt><trkpt lat="44.0216691" lon="10.8722895"><ele>827.0</ele><time>2026-04-04T09:34:56.109Z</time></trkpt><trkpt lat="44.0217349" lon="10.8723177"><ele>827.0</ele><time>2026-04-04T09:34:57.108Z</time></trkpt><trkpt lat="44.0218128" lon="10.8723675"><ele>827.0</ele><time>2026-04-04T09:34:58.108Z</time></trkpt><trkpt lat="44.0218811" lon="10.8723786"><ele>827.0</ele><time>2026-04-04T09:34:59.109Z</time></trkpt><trkpt lat="44.0219857" lon="10.8724624"><ele>825.6</ele><time>2026-04-04T09:35:01.108Z</time></trkpt><trkpt lat="44.0221064" lon="10.8724774"><ele>824.2</ele><time>2026-04-04T09:35:03.109Z</time></trkpt><trkpt lat="44.0221874" lon="10.872415"><ele>822.8</ele><time>2026-04-04T09:35:05.109Z</time></trkpt><trkpt lat="44.0222679" lon="10.8723972"><ele>821.4</ele><time>2026-04-04T09:35:07.109Z</time></trkpt><trkpt lat="44.0223526" lon="10.8724358"><ele>820.0</ele><time>2026-04-04T09:35:09.109Z</time></trkpt><trkpt lat="44.0224444" lon="10.8724854"><ele>816.9999999999999</ele><time>2026-04-04T09:35:11.109Z</time></trkpt><trkpt lat="44.0225437" lon="10.8724157"><ele>814.0</ele><time>2026-04-04T09:35:13.109Z</time></trkpt><trkpt lat="44.0225942" lon="10.8723463"><ele>811.0</ele><time>2026-04-04T09:35:14.108Z</time></trkpt><trkpt lat="44.0226412" lon="10.8722852"><ele>808.0</ele><time>2026-04-04T09:35:15.109Z</time></trkpt><trkpt lat="44.0227595" lon="10.8722183"><ele>804.9999999999999</ele><time>2026-04-04T09:35:17.109Z</time></trkpt><trkpt lat="44.0228187" lon="10.8721809"><ele>802.0</ele><time>2026-04-04T09:35:18.109Z</time></trkpt><trkpt lat="44.022878" lon="10.8721277"><ele>802.0</ele><time>2026-04-04T09:35:19.109Z</time></trkpt><trkpt lat="44.0229715" lon="10.8720912"><ele>802.0</ele><time>2026-04-04T09:35:21.108Z</time></trkpt><trkpt lat="44.0230761" lon="10.8721402"><ele>802.0</ele><time>2026-04-04T09:35:23.109Z</time></trkpt><trkpt lat="44.0231682" lon="10.8721444"><ele>802.0</ele><time>2026-04-04T09:35:24.109Z</time></trkpt><trkpt lat="44.0232345" lon="10.8721608"><ele>802.0</ele><time>2026-04-04T09:35:25.108Z</time></trkpt><trkpt lat="44.0233276" lon="10.8722633"><ele>800.8</ele><time>2026-04-04T09:35:27.109Z</time></trkpt><trkpt lat="44.0233832" lon="10.8723444"><ele>799.6</ele><time>2026-04-04T09:35:28.108Z</time></trkpt><trkpt lat="44.023494" lon="10.8724455"><ele>798.4</ele><time>2026-04-04T09:35:30.109Z</time></trkpt><trkpt lat="44.0236057" lon="10.8725147"><ele>797.1999999999999</ele><time>2026-04-04T09:35:32.109Z</time></trkpt><trkpt lat="44.023685" lon="10.8725996"><ele>796.0</ele><time>2026-04-04T09:35:33.108Z</time></trkpt><trkpt lat="44.0237515" lon="10.8726359"><ele>795.9999999999999</ele><time>2026-04-04T09:35:34.109Z</time></trkpt><trkpt lat="44.0238237" lon="10.8726851"><ele>796.0</ele><time>2026-04-04T09:35:35.109Z</time></trkpt><trkpt lat="44.0238709" lon="10.8727785"><ele>796.0</ele><time>2026-04-04T09:35:36.109Z</time></trkpt><trkpt lat="44.0239121" lon="10.8728882"><ele>796.0</ele><time>2026-04-04T09:35:37.108Z</time></trkpt><trkpt lat="44.0238569" lon="10.8730015"><ele>795.9999999999999</ele><time>2026-04-04T09:35:38.109Z</time></trkpt><trkpt lat="44.0238769" lon="10.8731219"><ele>796.0</ele><time>2026-04-04T09:35:39.109Z</time></trkpt><trkpt lat="44.0238649" lon="10.873254"><ele>795.9999999999999</ele><time>2026-04-04T09:35:40.109Z</time></trkpt><trkpt lat="44.023888" lon="10.8733586"><ele>796.0</ele><time>2026-04-04T09:35:41.11Z</time></trkpt><trkpt lat="44.0239591" lon="10.8734347"><ele>796.0</ele><time>2026-04-04T09:35:42.109Z</time></trkpt><trkpt lat="44.0240077" lon="10.8735145"><ele>796.0</ele><time>2026-04-04T09:35:43.109Z</time></trkpt><trkpt lat="44.024073" lon="10.8736105"><ele>795.9999999999999</ele><time>2026-04-04T09:35:44.109Z</time></trkpt><trkpt lat="44.0241425" lon="10.8736861"><ele>796.0</ele><time>2026-04-04T09:35:45.108Z</time></trkpt><trkpt lat="44.0241921" lon="10.8737835"><ele>788.0</ele><time>2026-04-04T09:35:46.109Z</time></trkpt><trkpt lat="44.0242985" lon="10.8738925"><ele>780.0</ele><time>2026-04-04T09:35:48.11Z</time></trkpt><trkpt lat="44.0243602" lon="10.8739284"><ele>772.0</ele><time>2026-04-04T09:35:49.109Z</time></trkpt><trkpt lat="44.0244193" lon="10.8739663"><ele>764.0</ele><time>2026-04-04T09:35:50.109Z</time></trkpt><trkpt lat="44.024512" lon="10.8740879"><ele>756.0</ele><time>2026-04-04T09:35:52.11Z</time></trkpt><trkpt lat="44.0245455" lon="10.874197"><ele>752.6666666666666</ele><time>2026-04-04T09:35:53.108Z</time></trkpt><trkpt lat="44.0245846" lon="10.8742996"><ele>749.3333333333334</ele><time>2026-04-04T09:35:54.108Z</time></trkpt><trkpt lat="44.0246014" lon="10.8744112"><ele>746.0</ele><time>2026-04-04T09:35:55.109Z</time></trkpt><trkpt lat="44.0246015" lon="10.8745246"><ele>742.6666666666667</ele><time>2026-04-04T09:35:56.109Z</time></trkpt><trkpt lat="44.024584" lon="10.8746575"><ele>739.3333333333334</ele><time>2026-04-04T09:35:57.109Z</time></trkpt><trkpt lat="44.0245637" lon="10.8747973"><ele>736.0</ele><time>2026-04-04T09:35:58.108Z</time></trkpt><trkpt lat="44.0245627" lon="10.8749076"><ele>736.0</ele><time>2026-04-04T09:35:59.109Z</time></trkpt><trkpt lat="44.0245933" lon="10.8749941"><ele>736.0</ele><time>2026-04-04T09:36:00.109Z</time></trkpt><trkpt lat="44.0246309" lon="10.8751011"><ele>736.0</ele><time>2026-04-04T09:36:01.109Z</time></trkpt><trkpt lat="44.0247509" lon="10.8751667"><ele>736.0</ele><time>2026-04-04T09:36:02.108Z</time></trkpt><trkpt lat="44.0248649" lon="10.8752663"><ele>736.0</ele><time>2026-04-04T09:36:03.109Z</time></trkpt><trkpt lat="44.0249776" lon="10.875359"><ele>736.5999999999999</ele><time>2026-04-04T09:36:04.11Z</time></trkpt><trkpt lat="44.025081" lon="10.875466"><ele>737.2</ele><time>2026-04-04T09:36:05.108Z</time></trkpt><trkpt lat="44.0251558" lon="10.8755631"><ele>737.8</ele><time>2026-04-04T09:36:06.108Z</time></trkpt><trkpt lat="44.0252213" lon="10.8756541"><ele>738.4000000000001</ele><time>2026-04-04T09:36:07.109Z</time></trkpt><trkpt lat="44.0252996" lon="10.875719"><ele>739.0</ele><time>2026-04-04T09:36:08.109Z</time></trkpt><trkpt lat="44.0253791" lon="10.875755"><ele>739.0</ele><time>2026-04-04T09:36:09.109Z</time></trkpt><trkpt lat="44.0254588" lon="10.8758037"><ele>739.0</ele><time>2026-04-04T09:36:10.108Z</time></trkpt><trkpt lat="44.0255468" lon="10.8758594"><ele>739.0</ele><time>2026-04-04T09:36:11.108Z</time></trkpt><trkpt lat="44.0256489" lon="10.87592"><ele>739.0</ele><time>2026-04-04T09:36:12.108Z</time></trkpt><trkpt lat="44.0257449" lon="10.8759609"><ele>739.0</ele><time>2026-04-04T09:36:13.109Z</time></trkpt><trkpt lat="44.0258503" lon="10.875975"><ele>739.8000000000001</ele><time>2026-04-04T09:36:14.108Z</time></trkpt><trkpt lat="44.0259531" lon="10.875989"><ele>740.6</ele><time>2026-04-04T09:36:15.109Z</time></trkpt><trkpt lat="44.0260579" lon="10.8759928"><ele>741.4</ele><time>2026-04-04T09:36:16.109Z</time></trkpt><trkpt lat="44.0261661" lon="10.875998"><ele>742.2</ele><time>2026-04-04T09:36:17.109Z</time></trkpt><trkpt lat="44.026283" lon="10.876018"><ele>743.0</ele><time>2026-04-04T09:36:18.109Z</time></trkpt><trkpt lat="44.0263954" lon="10.8760552"><ele>743.0</ele><time>2026-04-04T09:36:19.108Z</time></trkpt><trkpt lat="44.026507" lon="10.8760792"><ele>743.0</ele><time>2026-04-04T09:36:20.108Z</time></trkpt><trkpt lat="44.0266269" lon="10.8760804"><ele>743.0</ele><time>2026-04-04T09:36:21.11Z</time></trkpt><trkpt lat="44.0267297" lon="10.8760713"><ele>743.0</ele><time>2026-04-04T09:36:22.109Z</time></trkpt><trkpt lat="44.0268281" lon="10.8760658"><ele>743.0</ele><time>2026-04-04T09:36:23.109Z</time></trkpt><trkpt lat="44.0269323" lon="10.8760775"><ele>744.8333333333333</ele><time>2026-04-04T09:36:24.109Z</time></trkpt><trkpt lat="44.0270266" lon="10.87608"><ele>746.6666666666666</ele><time>2026-04-04T09:36:25.109Z</time></trkpt><trkpt lat="44.0271139" lon="10.8760819"><ele>748.5</ele><time>2026-04-04T09:36:26.109Z</time></trkpt><trkpt lat="44.0271988" lon="10.876079"><ele>750.3333333333334</ele><time>2026-04-04T09:36:27.108Z</time></trkpt><trkpt lat="44.0272839" lon="10.8760589"><ele>752.1666666666667</ele><time>2026-04-04T09:36:28.109Z</time></trkpt><trkpt lat="44.0273405" lon="10.8760981"><ele>754.0</ele><time>2026-04-04T09:36:29.109Z</time></trkpt><trkpt lat="44.0274155" lon="10.8761078"><ele>757.1666666666667</ele><time>2026-04-04T09:36:30.108Z</time></trkpt><trkpt lat="44.0274778" lon="10.8761867"><ele>760.3333333333334</ele><time>2026-04-04T09:36:31.109Z</time></trkpt><trkpt lat="44.0275363" lon="10.8762625"><ele>763.5</ele><time>2026-04-04T09:36:32.108Z</time></trkpt><trkpt lat="44.0275924" lon="10.8763398"><ele>766.6666666666667</ele><time>2026-04-04T09:36:33.108Z</time></trkpt><trkpt lat="44.0276509" lon="10.8764288"><ele>769.8333333333334</ele><time>2026-04-04T09:36:34.109Z</time></trkpt><trkpt lat="44.0276904" lon="10.8765369"><ele>773.0</ele><time>2026-04-04T09:36:35.109Z</time></trkpt><trkpt lat="44.0277254" lon="10.8766482"><ele>773.0000000000001</ele><time>2026-04-04T09:36:36.109Z</time></trkpt><trkpt lat="44.0277537" lon="10.8767537"><ele>773.0</ele><time>2026-04-04T09:36:37.108Z</time></trkpt><trkpt lat="44.0277791" lon="10.8768658"><ele>773.0</ele><time>2026-04-04T09:36:38.108Z</time></trkpt><trkpt lat="44.0278023" lon="10.8769657"><ele>773.0</ele><time>2026-04-04T09:36:39.109Z</time></trkpt><trkpt lat="44.0278235" lon="10.8770733"><ele>773.0000000000001</ele><time>2026-04-04T09:36:40.109Z</time></trkpt><trkpt lat="44.027848" lon="10.8771752"><ele>773.0</ele><time>2026-04-04T09:36:41.108Z</time></trkpt><trkpt lat="44.0278762" lon="10.877282"><ele>770.0000000000001</ele><time>2026-04-04T09:36:42.109Z</time></trkpt><trkpt lat="44.0279063" lon="10.8773884"><ele>767.0</ele><time>2026-04-04T09:36:43.108Z</time></trkpt><trkpt lat="44.0279337" lon="10.8774931"><ele>764.0</ele><time>2026-04-04T09:36:44.108Z</time></trkpt><trkpt lat="44.0279559" lon="10.8775897"><ele>761.0</ele><time>2026-04-04T09:36:45.108Z</time></trkpt><trkpt lat="44.0279753" lon="10.8776832"><ele>758.0</ele><time>2026-04-04T09:36:46.108Z</time></trkpt><trkpt lat="44.027996" lon="10.8777729"><ele>755.0</ele><time>2026-04-04T09:36:47.108Z</time></trkpt><trkpt lat="44.0280298" lon="10.8779235"><ele>752.7142857142857</ele><time>2026-04-04T09:36:49.108Z</time></trkpt><trkpt lat="44.0280526" lon="10.8780124"><ele>750.4285714285714</ele><time>2026-04-04T09:36:50.109Z</time></trkpt><trkpt lat="44.0280763" lon="10.8781048"><ele>748.1428571428571</ele><time>2026-04-04T09:36:51.109Z</time></trkpt><trkpt lat="44.0281004" lon="10.8782046"><ele>745.8571428571429</ele><time>2026-04-04T09:36:52.109Z</time></trkpt><trkpt lat="44.0281176" lon="10.8782982"><ele>743.5714285714287</ele><time>2026-04-04T09:36:53.109Z</time></trkpt><trkpt lat="44.0281326" lon="10.8783883"><ele>741.2857142857143</ele><time>2026-04-04T09:36:54.109Z</time></trkpt><trkpt lat="44.0281463" lon="10.8784769"><ele>739.0</ele><time>2026-04-04T09:36:55.109Z</time></trkpt><trkpt lat="44.0281554" lon="10.8785715"><ele>737.0</ele><time>2026-04-04T09:36:56.109Z</time></trkpt><trkpt lat="44.0281683" lon="10.8786756"><ele>735.0</ele><time>2026-04-04T09:36:57.109Z</time></trkpt><trkpt lat="44.0281959" lon="10.8787905"><ele>733.0</ele><time>2026-04-04T09:36:58.109Z</time></trkpt><trkpt lat="44.0282625" lon="10.8789014"><ele>731.0</ele><time>2026-04-04T09:36:59.11Z</time></trkpt><trkpt lat="44.0283195" lon="10.8790271"><ele>729.0</ele><time>2026-04-04T09:37:00.109Z</time></trkpt><trkpt lat="44.028355" lon="10.8791245"><ele>733.5</ele><time>2026-04-04T09:37:01.108Z</time></trkpt><trkpt lat="44.0283909" lon="10.8792359"><ele>738.0</ele><time>2026-04-04T09:37:02.109Z</time></trkpt><trkpt lat="44.0284284" lon="10.8793516"><ele>742.5</ele><time>2026-04-04T09:37:03.108Z</time></trkpt><trkpt lat="44.0284327" lon="10.8794732"><ele>747.0</ele><time>2026-04-04T09:37:04.109Z</time></trkpt><trkpt lat="44.0284544" lon="10.879591"><ele>751.5</ele><time>2026-04-04T09:37:05.109Z</time></trkpt><trkpt lat="44.0284712" lon="10.8797043"><ele>756.0</ele><time>2026-04-04T09:37:06.109Z</time></trkpt><trkpt lat="44.0284923" lon="10.8798146"><ele>756.4</ele><time>2026-04-04T09:37:07.109Z</time></trkpt><trkpt lat="44.028513" lon="10.879928"><ele>756.8</ele><time>2026-04-04T09:37:08.109Z</time></trkpt><trkpt lat="44.0285342" lon="10.8800527"><ele>757.1999999999999</ele><time>2026-04-04T09:37:09.108Z</time></trkpt><trkpt lat="44.0285321" lon="10.8801911"><ele>757.5999999999999</ele><time>2026-04-04T09:37:10.11Z</time></trkpt><trkpt lat="44.0285349" lon="10.880311"><ele>758.0</ele><time>2026-04-04T09:37:11.109Z</time></trkpt><trkpt lat="44.0285071" lon="10.8804269"><ele>758.0</ele><time>2026-04-04T09:37:12.109Z</time></trkpt><trkpt lat="44.0285118" lon="10.880555"><ele>758.0</ele><time>2026-04-04T09:37:13.109Z</time></trkpt><trkpt lat="44.0285098" lon="10.8806772"><ele>758.0</ele><time>2026-04-04T09:37:14.108Z</time></trkpt><trkpt lat="44.0285393" lon="10.8808096"><ele>758.0</ele><time>2026-04-04T09:37:15.109Z</time></trkpt><trkpt lat="44.0285453" lon="10.8809446"><ele>758.0</ele><time>2026-04-04T09:37:16.109Z</time></trkpt><trkpt lat="44.0285413" lon="10.8810782"><ele>758.8</ele><time>2026-04-04T09:37:17.108Z</time></trkpt><trkpt lat="44.0285179" lon="10.8812174"><ele>759.5999999999999</ele><time>2026-04-04T09:37:18.109Z</time></trkpt><trkpt lat="44.0285153" lon="10.8813606"><ele>760.4000000000001</ele><time>2026-04-04T09:37:19.108Z</time></trkpt><trkpt lat="44.0285076" lon="10.8814962"><ele>761.2</ele><time>2026-04-04T09:37:20.108Z</time></trkpt><trkpt lat="44.0285077" lon="10.8816414"><ele>762.0</ele><time>2026-04-04T09:37:21.109Z</time></trkpt><trkpt lat="44.0285136" lon="10.8817744"><ele>763.2</ele><time>2026-04-04T09:37:22.109Z</time></trkpt><trkpt lat="44.0285483" lon="10.8819139"><ele>764.4000000000001</ele><time>2026-04-04T09:37:23.109Z</time></trkpt><trkpt lat="44.0285997" lon="10.882059"><ele>765.5999999999999</ele><time>2026-04-04T09:37:24.109Z</time></trkpt><trkpt lat="44.0286288" lon="10.8821801"><ele>766.8</ele><time>2026-04-04T09:37:25.109Z</time></trkpt><trkpt lat="44.0286404" lon="10.8823213"><ele>768.0</ele><time>2026-04-04T09:37:26.109Z</time></trkpt><trkpt lat="44.0286539" lon="10.8824679"><ele>768.0</ele><time>2026-04-04T09:37:27.11Z</time></trkpt><trkpt lat="44.0286647" lon="10.8825889"><ele>768.0</ele><time>2026-04-04T09:37:28.109Z</time></trkpt><trkpt lat="44.0286581" lon="10.8826929"><ele>768.0</ele><time>2026-04-04T09:37:29.109Z</time></trkpt><trkpt lat="44.02867" lon="10.8828158"><ele>768.0</ele><time>2026-04-04T09:37:30.108Z</time></trkpt><trkpt lat="44.0286882" lon="10.8829415"><ele>768.0</ele><time>2026-04-04T09:37:31.109Z</time></trkpt><trkpt lat="44.0287635" lon="10.8830296"><ele>768.0</ele><time>2026-04-04T09:37:32.108Z</time></trkpt><trkpt lat="44.0287909" lon="10.8831412"><ele>769.0</ele><time>2026-04-04T09:37:33.109Z</time></trkpt><trkpt lat="44.0288321" lon="10.8832777"><ele>770.0</ele><time>2026-04-04T09:37:34.109Z</time></trkpt><trkpt lat="44.0288453" lon="10.8834256"><ele>771.0</ele><time>2026-04-04T09:37:35.108Z</time></trkpt><trkpt lat="44.028825" lon="10.8836007"><ele>772.0</ele><time>2026-04-04T09:37:36.11Z</time></trkpt><trkpt lat="44.0288369" lon="10.8837512"><ele>772.0</ele><time>2026-04-04T09:37:37.109Z</time></trkpt><trkpt lat="44.0288577" lon="10.8839308"><ele>772.0</ele><time>2026-04-04T09:37:38.109Z</time></trkpt><trkpt lat="44.0289234" lon="10.8840293"><ele>772.0</ele><time>2026-04-04T09:37:39.109Z</time></trkpt><trkpt lat="44.0289561" lon="10.8841724"><ele>772.0</ele><time>2026-04-04T09:37:40.108Z</time></trkpt><trkpt lat="44.028967" lon="10.8843124"><ele>772.0</ele><time>2026-04-04T09:37:41.109Z</time></trkpt><trkpt lat="44.028986" lon="10.8844508"><ele>772.0</ele><time>2026-04-04T09:37:42.109Z</time></trkpt><trkpt lat="44.0290113" lon="10.8845716"><ele>772.0</ele><time>2026-04-04T09:37:43.109Z</time></trkpt><trkpt lat="44.0290613" lon="10.8847007"><ele>772.0</ele><time>2026-04-04T09:37:44.109Z</time></trkpt><trkpt lat="44.029111" lon="10.8848517"><ele>772.0</ele><time>2026-04-04T09:37:45.109Z</time></trkpt><trkpt lat="44.0291803" lon="10.8850083"><ele>772.0</ele><time>2026-04-04T09:37:46.11Z</time></trkpt><trkpt lat="44.0292537" lon="10.8851468"><ele>778.4000000000001</ele><time>2026-04-04T09:37:47.108Z</time></trkpt><trkpt lat="44.0293138" lon="10.8852693"><ele>784.8000000000001</ele><time>2026-04-04T09:37:48.11Z</time></trkpt><trkpt lat="44.0293807" lon="10.8853788"><ele>791.2</ele><time>2026-04-04T09:37:49.108Z</time></trkpt><trkpt lat="44.0294479" lon="10.8854772"><ele>797.6</ele><time>2026-04-04T09:37:50.109Z</time></trkpt><trkpt lat="44.0294574" lon="10.8856221"><ele>804.0</ele><time>2026-04-04T09:37:51.109Z</time></trkpt><trkpt lat="44.0294844" lon="10.8857728"><ele>804.0</ele><time>2026-04-04T09:37:52.109Z</time></trkpt><trkpt lat="44.0295182" lon="10.885893"><ele>804.0</ele><time>2026-04-04T09:37:53.109Z</time></trkpt><trkpt lat="44.0295544" lon="10.8860027"><ele>804.0</ele><time>2026-04-04T09:37:54.109Z</time></trkpt><trkpt lat="44.0295963" lon="10.8861182"><ele>804.0</ele><time>2026-04-04T09:37:55.109Z</time></trkpt><trkpt lat="44.0297218" lon="10.8862337"><ele>804.0</ele><time>2026-04-04T09:37:56.109Z</time></trkpt><trkpt lat="44.0298116" lon="10.8863636"><ele>806.5</ele><time>2026-04-04T09:37:57.109Z</time></trkpt><trkpt lat="44.029874" lon="10.8864843"><ele>809.0</ele><time>2026-04-04T09:37:58.109Z</time></trkpt><trkpt lat="44.0299462" lon="10.8866387"><ele>811.5</ele><time>2026-04-04T09:37:59.109Z</time></trkpt><trkpt lat="44.0299775" lon="10.8868043"><ele>814.0</ele><time>2026-04-04T09:38:00.108Z</time></trkpt><trkpt lat="44.0300203" lon="10.8869622"><ele>814.0</ele><time>2026-04-04T09:38:01.109Z</time></trkpt><trkpt lat="44.0300346" lon="10.8871207"><ele>814.0</ele><time>2026-04-04T09:38:02.108Z</time></trkpt><trkpt lat="44.030053" lon="10.8872573"><ele>814.0</ele><time>2026-04-04T09:38:03.109Z</time></trkpt><trkpt lat="44.0300706" lon="10.8873947"><ele>814.0</ele><time>2026-04-04T09:38:04.109Z</time></trkpt><trkpt lat="44.0301439" lon="10.8875101"><ele>814.0</ele><time>2026-04-04T09:38:05.108Z</time></trkpt><trkpt lat="44.0302076" lon="10.8876479"><ele>811.75</ele><time>2026-04-04T09:38:06.109Z</time></trkpt><trkpt lat="44.0302819" lon="10.8877893"><ele>809.5</ele><time>2026-04-04T09:38:07.109Z</time></trkpt><trkpt lat="44.0303557" lon="10.887946"><ele>807.25</ele><time>2026-04-04T09:38:08.109Z</time></trkpt><trkpt lat="44.030434" lon="10.8880608"><ele>805.0</ele><time>2026-04-04T09:38:09.109Z</time></trkpt><trkpt lat="44.030503" lon="10.8881473"><ele>804.9999999999999</ele><time>2026-04-04T09:38:10.109Z</time></trkpt><trkpt lat="44.0305793" lon="10.8882458"><ele>805.0</ele><time>2026-04-04T09:38:11.108Z</time></trkpt><trkpt lat="44.0306539" lon="10.8883346"><ele>805.0</ele><time>2026-04-04T09:38:12.109Z</time></trkpt><trkpt lat="44.0307207" lon="10.8884289"><ele>805.0</ele><time>2026-04-04T09:38:13.11Z</time></trkpt><trkpt lat="44.0307882" lon="10.8884549"><ele>804.9999999999999</ele><time>2026-04-04T09:38:14.108Z</time></trkpt><trkpt lat="44.0308554" lon="10.8885143"><ele>805.0</ele><time>2026-04-04T09:38:15.108Z</time></trkpt><trkpt lat="44.030911" lon="10.8886041"><ele>809.3333333333333</ele><time>2026-04-04T09:38:16.109Z</time></trkpt><trkpt lat="44.030948" lon="10.8886906"><ele>813.6666666666666</ele><time>2026-04-04T09:38:17.109Z</time></trkpt><trkpt lat="44.0309896" lon="10.8887598"><ele>818.0</ele><time>2026-04-04T09:38:19.109Z</time></trkpt><trkpt lat="44.0310412" lon="10.8888178"><ele>822.3333333333333</ele><time>2026-04-04T09:38:50.108Z</time></trkpt><trkpt lat="44.031133" lon="10.8888704"><ele>826.6666666666666</ele><time>2026-04-04T09:38:53.109Z</time></trkpt><trkpt lat="44.0311886" lon="10.8889312"><ele>831.0</ele><time>2026-04-04T09:38:54.108Z</time></trkpt><trkpt lat="44.0313127" lon="10.8890235"><ele>831.0</ele><time>2026-04-04T09:38:56.108Z</time></trkpt><trkpt lat="44.0313917" lon="10.8890715"><ele>831.0</ele><time>2026-04-04T09:38:57.109Z</time></trkpt><trkpt lat="44.0314816" lon="10.8891377"><ele>831.0</ele><time>2026-04-04T09:38:58.108Z</time></trkpt><trkpt lat="44.031576" lon="10.8892085"><ele>831.0</ele><time>2026-04-04T09:38:59.108Z</time></trkpt><trkpt lat="44.0316695" lon="10.8893023"><ele>831.0</ele><time>2026-04-04T09:39:00.109Z</time></trkpt><trkpt lat="44.0317681" lon="10.8893712"><ele>833.8</ele><time>2026-04-04T09:39:01.108Z</time></trkpt><trkpt lat="44.031887" lon="10.8894798"><ele>836.5999999999999</ele><time>2026-04-04T09:39:02.109Z</time></trkpt><trkpt lat="44.0319545" lon="10.8895989"><ele>839.4</ele><time>2026-04-04T09:39:03.108Z</time></trkpt><trkpt lat="44.0320254" lon="10.8896753"><ele>842.2</ele><time>2026-04-04T09:39:04.108Z</time></trkpt><trkpt lat="44.0320745" lon="10.8897336"><ele>845.0</ele><time>2026-04-04T09:39:05.108Z</time></trkpt><trkpt lat="44.0321487" lon="10.8897704"><ele>845.0000000000001</ele><time>2026-04-04T09:39:06.109Z</time></trkpt><trkpt lat="44.0322334" lon="10.8897852"><ele>845.0</ele><time>2026-04-04T09:39:07.109Z</time></trkpt><trkpt lat="44.0322629" lon="10.8899074"><ele>845.0</ele><time>2026-04-04T09:39:08.109Z</time></trkpt><trkpt lat="44.0323138" lon="10.8899881"><ele>845.0</ele><time>2026-04-04T09:39:09.108Z</time></trkpt><trkpt lat="44.0323795" lon="10.8900334"><ele>845.0000000000001</ele><time>2026-04-04T09:39:10.109Z</time></trkpt><trkpt lat="44.0324442" lon="10.8900529"><ele>845.0</ele><time>2026-04-04T09:39:11.109Z</time></trkpt><trkpt lat="44.0325154" lon="10.8900314"><ele>842.2</ele><time>2026-04-04T09:39:12.108Z</time></trkpt><trkpt lat="44.0326036" lon="10.8900066"><ele>839.4</ele><time>2026-04-04T09:39:13.108Z</time></trkpt><trkpt lat="44.0326923" lon="10.8899402"><ele>836.5999999999999</ele><time>2026-04-04T09:39:14.109Z</time></trkpt><trkpt lat="44.0328156" lon="10.8898866"><ele>833.8</ele><time>2026-04-04T09:39:16.109Z</time></trkpt><trkpt lat="44.0328889" lon="10.8898695"><ele>831.0</ele><time>2026-04-04T09:39:17.108Z</time></trkpt><trkpt lat="44.0329708" lon="10.8898756"><ele>831.0</ele><time>2026-04-04T09:39:18.109Z</time></trkpt><trkpt lat="44.0330596" lon="10.8899042"><ele>831.0</ele><time>2026-04-04T09:39:19.108Z</time></trkpt><trkpt lat="44.0331404" lon="10.8899196"><ele>831.0</ele><time>2026-04-04T09:39:20.108Z</time></trkpt><trkpt lat="44.0332039" lon="10.8899925"><ele>831.0</ele><time>2026-04-04T09:39:21.109Z</time></trkpt><trkpt lat="44.0331906" lon="10.8900799"><ele>831.0</ele><time>2026-04-04T09:39:22.109Z</time></trkpt><trkpt lat="44.0332177" lon="10.8901744"><ele>831.0</ele><time>2026-04-04T09:39:23.108Z</time></trkpt><trkpt lat="44.0332567" lon="10.8902636"><ele>830.0</ele><time>2026-04-04T09:39:24.109Z</time></trkpt><trkpt lat="44.0332919" lon="10.8903615"><ele>829.0</ele><time>2026-04-04T09:39:25.108Z</time></trkpt><trkpt lat="44.0333285" lon="10.8904725"><ele>828.0</ele><time>2026-04-04T09:39:26.109Z</time></trkpt><trkpt lat="44.0333661" lon="10.8905866"><ele>827.0</ele><time>2026-04-04T09:39:27.108Z</time></trkpt><trkpt lat="44.0334042" lon="10.8907065"><ele>826.0</ele><time>2026-04-04T09:39:28.109Z</time></trkpt><trkpt lat="44.0334466" lon="10.8908359"><ele>829.3333333333333</ele><time>2026-04-04T09:39:29.11Z</time></trkpt><trkpt lat="44.033468" lon="10.8909621"><ele>832.6666666666666</ele><time>2026-04-04T09:39:30.108Z</time></trkpt><trkpt lat="44.0334902" lon="10.8910767"><ele>836.0</ele><time>2026-04-04T09:39:31.109Z</time></trkpt><trkpt lat="44.0335086" lon="10.8911673"><ele>839.3333333333333</ele><time>2026-04-04T09:39:32.109Z</time></trkpt><trkpt lat="44.0335387" lon="10.8912502"><ele>842.6666666666666</ele><time>2026-04-04T09:39:33.109Z</time></trkpt><trkpt lat="44.0335891" lon="10.8913522"><ele>846.0</ele><time>2026-04-04T09:39:35.11Z</time></trkpt><trkpt lat="44.0336742" lon="10.8913683"><ele>846.0</ele><time>2026-04-04T09:39:37.109Z</time></trkpt><trkpt lat="44.0337984" lon="10.8913548"><ele>846.0</ele><time>2026-04-04T09:39:39.109Z</time></trkpt><trkpt lat="44.0339226" lon="10.8913726"><ele>846.0</ele><time>2026-04-04T09:39:41.109Z</time></trkpt><trkpt lat="44.0340344" lon="10.891383"><ele>846.0</ele><time>2026-04-04T09:39:43.109Z</time></trkpt><trkpt lat="44.0341009" lon="10.8914959"><ele>841.8</ele><time>2026-04-04T09:39:45.108Z</time></trkpt><trkpt lat="44.0341506" lon="10.8915512"><ele>837.5999999999999</ele><time>2026-04-04T09:39:46.109Z</time></trkpt><trkpt lat="44.0342404" lon="10.8916773"><ele>833.4</ele><time>2026-04-04T09:39:48.109Z</time></trkpt><trkpt lat="44.0343271" lon="10.8917476"><ele>829.2</ele><time>2026-04-04T09:39:50.108Z</time></trkpt><trkpt lat="44.0343807" lon="10.8917941"><ele>825.0</ele><time>2026-04-04T09:39:51.109Z</time></trkpt><trkpt lat="44.0344822" lon="10.8918178"><ele>821.4</ele><time>2026-04-04T09:39:53.109Z</time></trkpt><trkpt lat="44.0344954" lon="10.891675"><ele>817.8</ele><time>2026-04-04T09:39:55.109Z</time></trkpt><trkpt lat="44.034533" lon="10.8914959"><ele>814.2</ele><time>2026-04-04T09:39:57.108Z</time></trkpt><trkpt lat="44.0345457" lon="10.8913283"><ele>810.6</ele><time>2026-04-04T09:39:59.109Z</time></trkpt><trkpt lat="44.0345412" lon="10.8912395"><ele>807.0</ele><time>2026-04-04T09:40:00.109Z</time></trkpt><trkpt lat="44.0345014" lon="10.8911466"><ele>807.0</ele><time>2026-04-04T09:40:01.11Z</time></trkpt><trkpt lat="44.0344566" lon="10.891038"><ele>807.0</ele><time>2026-04-04T09:40:02.109Z</time></trkpt><trkpt lat="44.0344149" lon="10.8909235"><ele>807.0</ele><time>2026-04-04T09:40:03.11Z</time></trkpt><trkpt lat="44.0343914" lon="10.8908226"><ele>807.0</ele><time>2026-04-04T09:40:04.108Z</time></trkpt><trkpt lat="44.0343553" lon="10.8907198"><ele>807.0</ele><time>2026-04-04T09:40:05.108Z</time></trkpt><trkpt lat="44.0343113" lon="10.8906245"><ele>807.0</ele><time>2026-04-04T09:40:06.108Z</time></trkpt><trkpt lat="44.0342735" lon="10.8905453"><ele>807.6</ele><time>2026-04-04T09:40:07.11Z</time></trkpt><trkpt lat="44.0341682" lon="10.8904256"><ele>808.2</ele><time>2026-04-04T09:40:09.109Z</time></trkpt><trkpt lat="44.0340987" lon="10.8903675"><ele>808.8</ele><time>2026-04-04T09:40:10.109Z</time></trkpt><trkpt lat="44.0340155" lon="10.8902462"><ele>809.4</ele><time>2026-04-04T09:40:12.109Z</time></trkpt><trkpt lat="44.0339721" lon="10.8901145"><ele>810.0</ele><time>2026-04-04T09:40:14.108Z</time></trkpt><trkpt lat="44.0340249" lon="10.8899856"><ele>810.0</ele><time>2026-04-04T09:40:15.108Z</time></trkpt><trkpt lat="44.0340327" lon="10.8898818"><ele>810.0</ele><time>2026-04-04T09:40:16.108Z</time></trkpt><trkpt lat="44.0340397" lon="10.8897408"><ele>810.0</ele><time>2026-04-04T09:40:18.108Z</time></trkpt><trkpt lat="44.0340347" lon="10.889639"><ele>810.0</ele><time>2026-04-04T09:40:19.109Z</time></trkpt><trkpt lat="44.0340205" lon="10.889542"><ele>810.0</ele><time>2026-04-04T09:40:20.109Z</time></trkpt><trkpt lat="44.0340196" lon="10.8894279"><ele>810.0</ele><time>2026-04-04T09:40:21.108Z</time></trkpt><trkpt lat="44.0340733" lon="10.8893298"><ele>806.0</ele><time>2026-04-04T09:40:22.108Z</time></trkpt><trkpt lat="44.0341036" lon="10.8892296"><ele>802.0</ele><time>2026-04-04T09:40:23.109Z</time></trkpt><trkpt lat="44.0341286" lon="10.8891429"><ele>798.0</ele><time>2026-04-04T09:40:24.109Z</time></trkpt><trkpt lat="44.0341919" lon="10.889001"><ele>794.0</ele><time>2026-04-04T09:40:26.109Z</time></trkpt><trkpt lat="44.0342065" lon="10.888909"><ele>790.0</ele><time>2026-04-04T09:40:27.109Z</time></trkpt><trkpt lat="44.0342177" lon="10.8888187"><ele>786.0</ele><time>2026-04-04T09:40:28.109Z</time></trkpt><trkpt lat="44.0342424" lon="10.8886707"><ele>781.2857142857143</ele><time>2026-04-04T09:40:30.109Z</time></trkpt><trkpt lat="44.0342437" lon="10.8885757"><ele>776.5714285714286</ele><time>2026-04-04T09:40:31.109Z</time></trkpt><trkpt lat="44.0342768" lon="10.8884753"><ele>771.8571428571429</ele><time>2026-04-04T09:40:32.109Z</time></trkpt><trkpt lat="44.0343039" lon="10.8883711"><ele>767.1428571428571</ele><time>2026-04-04T09:40:33.109Z</time></trkpt><trkpt lat="44.0343188" lon="10.8882853"><ele>762.4285714285714</ele><time>2026-04-04T09:40:34.108Z</time></trkpt><trkpt lat="44.0343328" lon="10.8881932"><ele>757.7142857142858</ele><time>2026-04-04T09:40:35.108Z</time></trkpt><trkpt lat="44.0343758" lon="10.8880865"><ele>753.0</ele><time>2026-04-04T09:40:36.109Z</time></trkpt><trkpt lat="44.0344702" lon="10.8879763"><ele>751.4285714285714</ele><time>2026-04-04T09:40:38.109Z</time></trkpt><trkpt lat="44.0345173" lon="10.8879041"><ele>749.8571428571429</ele><time>2026-04-04T09:40:39.109Z</time></trkpt><trkpt lat="44.0345756" lon="10.8878675"><ele>748.2857142857142</ele><time>2026-04-04T09:40:40.109Z</time></trkpt><trkpt lat="44.0346197" lon="10.8879491"><ele>746.7142857142858</ele><time>2026-04-04T09:40:41.109Z</time></trkpt><trkpt lat="44.0346744" lon="10.8880064"><ele>745.1428571428571</ele><time>2026-04-04T09:40:42.11Z</time></trkpt><trkpt lat="44.0347295" lon="10.8880531"><ele>743.5714285714286</ele><time>2026-04-04T09:40:44.109Z</time></trkpt><trkpt lat="44.0347993" lon="10.8879718"><ele>742.0</ele><time>2026-04-04T09:40:46.109Z</time></trkpt><trkpt lat="44.0348376" lon="10.8878595"><ele>742.0</ele><time>2026-04-04T09:40:48.109Z</time></trkpt><trkpt lat="44.0348836" lon="10.8877775"><ele>742.0</ele><time>2026-04-04T09:40:50.108Z</time></trkpt><trkpt lat="44.0349597" lon="10.8877285"><ele>742.0</ele><time>2026-04-04T09:40:52.108Z</time></trkpt><trkpt lat="44.0350274" lon="10.8876825"><ele>742.0</ele><time>2026-04-04T09:40:53.108Z</time></trkpt><trkpt lat="44.0350691" lon="10.8875815"><ele>742.0</ele><time>2026-04-04T09:40:54.109Z</time></trkpt><trkpt lat="44.0351198" lon="10.8874706"><ele>742.0</ele><time>2026-04-04T09:40:55.109Z</time></trkpt><trkpt lat="44.0351763" lon="10.8873622"><ele>738.5</ele><time>2026-04-04T09:40:56.11Z</time></trkpt><trkpt lat="44.0352238" lon="10.8872597"><ele>735.0</ele><time>2026-04-04T09:40:57.108Z</time></trkpt><trkpt lat="44.0352619" lon="10.8871856"><ele>731.5</ele><time>2026-04-04T09:40:58.108Z</time></trkpt><trkpt lat="44.035338" lon="10.8871536"><ele>728.0</ele><time>2026-04-04T09:41:00.109Z</time></trkpt><trkpt lat="44.0354086" lon="10.8870861"><ele>724.5</ele><time>2026-04-04T09:41:03.108Z</time></trkpt><trkpt lat="44.0354759" lon="10.8870366"><ele>721.0</ele><time>2026-04-04T09:41:08.109Z</time></trkpt><trkpt lat="44.0355218" lon="10.8869637"><ele>721.0</ele><time>2026-04-04T09:41:13.109Z</time></trkpt><trkpt lat="44.0355818" lon="10.8868943"><ele>721.0</ele><time>2026-04-04T09:41:17.109Z</time></trkpt><trkpt lat="44.0356389" lon="10.8868413"><ele>721.0</ele><time>2026-04-04T09:41:19.108Z</time></trkpt><trkpt lat="44.0357038" lon="10.8867711"><ele>721.0</ele><time>2026-04-04T09:41:22.109Z</time></trkpt><trkpt lat="44.0357351" lon="10.8866786"><ele>721.0</ele><time>2026-04-04T09:41:26.109Z</time></trkpt><trkpt lat="44.03579" lon="10.8866323"><ele>721.0</ele><time>2026-04-04T09:41:28.109Z</time></trkpt><trkpt lat="44.035855" lon="10.8866057"><ele>721.0</ele><time>2026-04-04T09:41:29.109Z</time></trkpt><trkpt lat="44.0359214" lon="10.8865497"><ele>718.4</ele><time>2026-04-04T09:41:30.108Z</time></trkpt><trkpt lat="44.03601" lon="10.8864361"><ele>715.8</ele><time>2026-04-04T09:41:32.109Z</time></trkpt><trkpt lat="44.0361104" lon="10.8863543"><ele>713.1999999999999</ele><time>2026-04-04T09:41:34.11Z</time></trkpt><trkpt lat="44.0362127" lon="10.886251"><ele>710.5999999999999</ele><time>2026-04-04T09:41:36.109Z</time></trkpt><trkpt lat="44.0362685" lon="10.8862018"><ele>708.0</ele><time>2026-04-04T09:41:37.109Z</time></trkpt><trkpt lat="44.0363324" lon="10.8861602"><ele>708.0</ele><time>2026-04-04T09:41:38.109Z</time></trkpt><trkpt lat="44.036391" lon="10.8861086"><ele>708.0</ele><time>2026-04-04T09:41:39.108Z</time></trkpt><trkpt lat="44.03646" lon="10.8860469"><ele>708.0</ele><time>2026-04-04T09:41:40.109Z</time></trkpt><trkpt lat="44.0365013" lon="10.8859728"><ele>708.0</ele><time>2026-04-04T09:41:41.109Z</time></trkpt><trkpt lat="44.0365524" lon="10.885873"><ele>708.0</ele><time>2026-04-04T09:41:43.109Z</time></trkpt><trkpt lat="44.0365982" lon="10.8857797"><ele>708.0</ele><time>2026-04-04T09:41:45.109Z</time></trkpt><trkpt lat="44.0366859" lon="10.8857296"><ele>704.8</ele><time>2026-04-04T09:41:48.109Z</time></trkpt><trkpt lat="44.0367937" lon="10.8856445"><ele>701.5999999999999</ele><time>2026-04-04T09:41:50.108Z</time></trkpt><trkpt lat="44.0368801" lon="10.8855601"><ele>698.4000000000001</ele><time>2026-04-04T09:41:52.108Z</time></trkpt><trkpt lat="44.0369564" lon="10.8854823"><ele>695.2</ele><time>2026-04-04T09:41:54.109Z</time></trkpt><trkpt lat="44.0370496" lon="10.8854196"><ele>692.0</ele><time>2026-04-04T09:41:56.108Z</time></trkpt><trkpt lat="44.0371236" lon="10.8853398"><ele>692.0</ele><time>2026-04-04T09:41:58.108Z</time></trkpt><trkpt lat="44.0372225" lon="10.8852355"><ele>692.0</ele><time>2026-04-04T09:42:00.109Z</time></trkpt><trkpt lat="44.0372872" lon="10.8851581"><ele>692.0</ele><time>2026-04-04T09:42:01.109Z</time></trkpt><trkpt lat="44.037342" lon="10.8851038"><ele>692.0</ele><time>2026-04-04T09:42:02.108Z</time></trkpt><trkpt lat="44.0374007" lon="10.8850698"><ele>692.0</ele><time>2026-04-04T09:42:03.109Z</time></trkpt><trkpt lat="44.0374656" lon="10.8850365"><ele>692.0</ele><time>2026-04-04T09:42:04.108Z</time></trkpt><trkpt lat="44.0375448" lon="10.8850155"><ele>687.4000000000001</ele><time>2026-04-04T09:42:05.109Z</time></trkpt><trkpt lat="44.0376274" lon="10.8850028"><ele>682.8000000000001</ele><time>2026-04-04T09:42:06.108Z</time></trkpt><trkpt lat="44.037721" lon="10.884976"><ele>678.2</ele><time>2026-04-04T09:42:07.109Z</time></trkpt><trkpt lat="44.0378217" lon="10.8849265"><ele>673.6</ele><time>2026-04-04T09:42:08.109Z</time></trkpt><trkpt lat="44.0379212" lon="10.8848968"><ele>669.0</ele><time>2026-04-04T09:42:09.109Z</time></trkpt><trkpt lat="44.0380157" lon="10.8848603"><ele>669.0</ele><time>2026-04-04T09:42:10.109Z</time></trkpt><trkpt lat="44.0381234" lon="10.8848297"><ele>669.0</ele><time>2026-04-04T09:42:11.108Z</time></trkpt><trkpt lat="44.0382287" lon="10.884792"><ele>669.0</ele><time>2026-04-04T09:42:12.11Z</time></trkpt><trkpt lat="44.0383285" lon="10.8847597"><ele>669.0</ele><time>2026-04-04T09:42:13.109Z</time></trkpt><trkpt lat="44.0384295" lon="10.8847137"><ele>669.0</ele><time>2026-04-04T09:42:14.108Z</time></trkpt><trkpt lat="44.0385224" lon="10.8846489"><ele>667.4000000000001</ele><time>2026-04-04T09:42:15.109Z</time></trkpt><trkpt lat="44.038601" lon="10.8845637"><ele>665.8</ele><time>2026-04-04T09:42:16.108Z</time></trkpt><trkpt lat="44.0386798" lon="10.8844722"><ele>664.2</ele><time>2026-04-04T09:42:17.109Z</time></trkpt><trkpt lat="44.0387475" lon="10.8843828"><ele>662.5999999999999</ele><time>2026-04-04T09:42:18.109Z</time></trkpt><trkpt lat="44.038803" lon="10.8842766"><ele>661.0</ele><time>2026-04-04T09:42:19.109Z</time></trkpt><trkpt lat="44.0388416" lon="10.8841537"><ele>660.8333333333334</ele><time>2026-04-04T09:42:20.109Z</time></trkpt><trkpt lat="44.0388601" lon="10.8840371"><ele>660.6666666666667</ele><time>2026-04-04T09:42:21.108Z</time></trkpt><trkpt lat="44.0388659" lon="10.8839445"><ele>660.5</ele><time>2026-04-04T09:42:22.109Z</time></trkpt><trkpt lat="44.0388646" lon="10.883841"><ele>660.3333333333334</ele><time>2026-04-04T09:42:24.109Z</time></trkpt><trkpt lat="44.038826" lon="10.8837114"><ele>660.1666666666666</ele><time>2026-04-04T09:42:26.109Z</time></trkpt><trkpt lat="44.0387906" lon="10.8836358"><ele>660.0</ele><time>2026-04-04T09:42:27.109Z</time></trkpt><trkpt lat="44.0387421" lon="10.8835467"><ele>660.0</ele><time>2026-04-04T09:42:28.109Z</time></trkpt><trkpt lat="44.0386883" lon="10.8834634"><ele>660.0</ele><time>2026-04-04T09:42:29.109Z</time></trkpt><trkpt lat="44.0386297" lon="10.883373"><ele>660.0</ele><time>2026-04-04T09:42:30.109Z</time></trkpt><trkpt lat="44.0385679" lon="10.8832789"><ele>660.0</ele><time>2026-04-04T09:42:31.108Z</time></trkpt><trkpt lat="44.0385044" lon="10.883189"><ele>660.0</ele><time>2026-04-04T09:42:32.109Z</time></trkpt><trkpt lat="44.0384428" lon="10.8830956"><ele>660.0</ele><time>2026-04-04T09:42:33.108Z</time></trkpt><trkpt lat="44.0383933" lon="10.8830055"><ele>660.0</ele><time>2026-04-04T09:42:34.109Z</time></trkpt><trkpt lat="44.038344" lon="10.8829241"><ele>660.0</ele><time>2026-04-04T09:42:35.108Z</time></trkpt><trkpt lat="44.0382904" lon="10.8828469"><ele>660.0</ele><time>2026-04-04T09:42:36.109Z</time></trkpt><trkpt lat="44.0382378" lon="10.8827825"><ele>660.0</ele><time>2026-04-04T09:42:37.109Z</time></trkpt><trkpt lat="44.0381765" lon="10.882695"><ele>660.0</ele><time>2026-04-04T09:42:39.108Z</time></trkpt><trkpt lat="44.0380956" lon="10.8826562"><ele>660.0</ele><time>2026-04-04T09:42:49.108Z</time></trkpt><trkpt lat="44.0380008" lon="10.8826848"><ele>660.0</ele><time>2026-04-04T09:42:51.108Z</time></trkpt><trkpt lat="44.0379311" lon="10.8826966"><ele>660.0</ele><time>2026-04-04T09:42:52.109Z</time></trkpt><trkpt lat="44.0378041" lon="10.8826571"><ele>660.0</ele><time>2026-04-04T09:42:54.109Z</time></trkpt><trkpt lat="44.0377339" lon="10.8826021"><ele>660.0</ele><time>2026-04-04T09:42:55.109Z</time></trkpt><trkpt lat="44.0376623" lon="10.8825266"><ele>660.0</ele><time>2026-04-04T09:42:56.108Z</time></trkpt><trkpt lat="44.0375926" lon="10.8824428"><ele>661.2</ele><time>2026-04-04T09:42:57.109Z</time></trkpt><trkpt lat="44.037513" lon="10.882347"><ele>662.4</ele><time>2026-04-04T09:42:58.109Z</time></trkpt><trkpt lat="44.0374323" lon="10.8822468"><ele>663.5999999999999</ele><time>2026-04-04T09:42:59.108Z</time></trkpt><trkpt lat="44.0373529" lon="10.8821337"><ele>664.8</ele><time>2026-04-04T09:43:00.109Z</time></trkpt><trkpt lat="44.0372751" lon="10.8820216"><ele>666.0</ele><time>2026-04-04T09:43:01.108Z</time></trkpt><trkpt lat="44.0372013" lon="10.8819112"><ele>666.5</ele><time>2026-04-04T09:43:02.109Z</time></trkpt><trkpt lat="44.0371319" lon="10.8817843"><ele>667.0</ele><time>2026-04-04T09:43:03.108Z</time></trkpt><trkpt lat="44.03707" lon="10.881646"><ele>667.5</ele><time>2026-04-04T09:43:04.108Z</time></trkpt><trkpt lat="44.0370112" lon="10.8815021"><ele>668.0</ele><time>2026-04-04T09:43:05.108Z</time></trkpt><trkpt lat="44.0369562" lon="10.8813502"><ele>668.0</ele><time>2026-04-04T09:43:06.109Z</time></trkpt><trkpt lat="44.0369008" lon="10.8811937"><ele>668.0</ele><time>2026-04-04T09:43:07.109Z</time></trkpt><trkpt lat="44.0368487" lon="10.8810312"><ele>668.0</ele><time>2026-04-04T09:43:08.109Z</time></trkpt><trkpt lat="44.036804" lon="10.8808605"><ele>668.0</ele><time>2026-04-04T09:43:09.108Z</time></trkpt><trkpt lat="44.0367695" lon="10.880685"><ele>668.5</ele><time>2026-04-04T09:43:10.108Z</time></trkpt><trkpt lat="44.0367514" lon="10.8805042"><ele>669.0</ele><time>2026-04-04T09:43:11.109Z</time></trkpt><trkpt lat="44.0367417" lon="10.8803234"><ele>669.5</ele><time>2026-04-04T09:43:12.109Z</time></trkpt><trkpt lat="44.0367178" lon="10.8801506"><ele>670.0</ele><time>2026-04-04T09:43:13.108Z</time></trkpt><trkpt lat="44.0366725" lon="10.8799907"><ele>670.25</ele><time>2026-04-04T09:43:14.11Z</time></trkpt><trkpt lat="44.0366118" lon="10.8798402"><ele>670.5</ele><time>2026-04-04T09:43:15.109Z</time></trkpt><trkpt lat="44.0365361" lon="10.8796965"><ele>670.75</ele><time>2026-04-04T09:43:16.109Z</time></trkpt><trkpt lat="44.0364597" lon="10.8795539"><ele>671.0</ele><time>2026-04-04T09:43:17.108Z</time></trkpt><trkpt lat="44.0363735" lon="10.8794111"><ele>670.75</ele><time>2026-04-04T09:43:18.108Z</time></trkpt><trkpt lat="44.0362861" lon="10.879267"><ele>670.5</ele><time>2026-04-04T09:43:19.109Z</time></trkpt><trkpt lat="44.0361943" lon="10.879126"><ele>670.25</ele><time>2026-04-04T09:43:20.109Z</time></trkpt><trkpt lat="44.0361045" lon="10.8789818"><ele>670.0</ele><time>2026-04-04T09:43:21.109Z</time></trkpt><trkpt lat="44.0360091" lon="10.8788423"><ele>670.0</ele><time>2026-04-04T09:43:22.109Z</time></trkpt><trkpt lat="44.0359124" lon="10.8787046"><ele>670.0</ele><time>2026-04-04T09:43:23.109Z</time></trkpt><trkpt lat="44.0358098" lon="10.8785705"><ele>670.0</ele><time>2026-04-04T09:43:24.109Z</time></trkpt><trkpt lat="44.0357067" lon="10.8784437"><ele>670.0</ele><time>2026-04-04T09:43:25.109Z</time></trkpt><trkpt lat="44.0355925" lon="10.8783294"><ele>669.5</ele><time>2026-04-04T09:43:26.109Z</time></trkpt><trkpt lat="44.0354721" lon="10.8782221"><ele>669.0</ele><time>2026-04-04T09:43:27.109Z</time></trkpt><trkpt lat="44.0353463" lon="10.8781238"><ele>668.5</ele><time>2026-04-04T09:43:28.109Z</time></trkpt><trkpt lat="44.035222" lon="10.8780241"><ele>668.0</ele><time>2026-04-04T09:43:29.108Z</time></trkpt><trkpt lat="44.0350989" lon="10.8779228"><ele>668.0</ele><time>2026-04-04T09:43:30.109Z</time></trkpt><trkpt lat="44.0349757" lon="10.8778207"><ele>668.0</ele><time>2026-04-04T09:43:31.109Z</time></trkpt><trkpt lat="44.0348531" lon="10.8777205"><ele>668.0</ele><time>2026-04-04T09:43:32.11Z</time></trkpt><trkpt lat="44.0347342" lon="10.8776234"><ele>668.0</ele><time>2026-04-04T09:43:33.108Z</time></trkpt><trkpt lat="44.0346139" lon="10.877524"><ele>668.25</ele><time>2026-04-04T09:43:34.109Z</time></trkpt><trkpt lat="44.0344939" lon="10.8774271"><ele>668.5</ele><time>2026-04-04T09:43:35.109Z</time></trkpt><trkpt lat="44.0343739" lon="10.8773303"><ele>668.75</ele><time>2026-04-04T09:43:36.109Z</time></trkpt><trkpt lat="44.034256" lon="10.8772247"><ele>669.0</ele><time>2026-04-04T09:43:37.108Z</time></trkpt><trkpt lat="44.0341439" lon="10.877098"><ele>670.3333333333334</ele><time>2026-04-04T09:43:38.109Z</time></trkpt><trkpt lat="44.0340454" lon="10.8769478"><ele>671.6666666666667</ele><time>2026-04-04T09:43:39.108Z</time></trkpt><trkpt lat="44.0339519" lon="10.8767873"><ele>673.0</ele><time>2026-04-04T09:43:40.109Z</time></trkpt><trkpt lat="44.0338519" lon="10.8766179"><ele>673.0</ele><time>2026-04-04T09:43:41.109Z</time></trkpt><trkpt lat="44.0337459" lon="10.8764557"><ele>673.0</ele><time>2026-04-04T09:43:42.109Z</time></trkpt><trkpt lat="44.03363" lon="10.8762932"><ele>673.0</ele><time>2026-04-04T09:43:43.109Z</time></trkpt><trkpt lat="44.0335088" lon="10.876131"><ele>673.0</ele><time>2026-04-04T09:43:44.108Z</time></trkpt><trkpt lat="44.0333849" lon="10.8759673"><ele>673.0</ele><time>2026-04-04T09:43:45.109Z</time></trkpt><trkpt lat="44.0332601" lon="10.8758026"><ele>673.0</ele><time>2026-04-04T09:43:46.108Z</time></trkpt><trkpt lat="44.0331374" lon="10.8756401"><ele>671.6666666666667</ele><time>2026-04-04T09:43:47.109Z</time></trkpt><trkpt lat="44.0330151" lon="10.875481"><ele>670.3333333333334</ele><time>2026-04-04T09:43:48.108Z</time></trkpt><trkpt lat="44.0329005" lon="10.8753365"><ele>669.0</ele><time>2026-04-04T09:43:49.109Z</time></trkpt><trkpt lat="44.0327954" lon="10.8752003"><ele>669.25</ele><time>2026-04-04T09:43:50.108Z</time></trkpt><trkpt lat="44.0326971" lon="10.8750715"><ele>669.5</ele><time>2026-04-04T09:43:51.109Z</time></trkpt><trkpt lat="44.0326124" lon="10.874952"><ele>669.75</ele><time>2026-04-04T09:43:52.109Z</time></trkpt><trkpt lat="44.0325358" lon="10.8748552"><ele>670.0</ele><time>2026-04-04T09:43:53.109Z</time></trkpt><trkpt lat="44.0324692" lon="10.8747697"><ele>670.0</ele><time>2026-04-04T09:43:54.108Z</time></trkpt><trkpt lat="44.0324063" lon="10.8747039"><ele>670.0</ele><time>2026-04-04T09:43:55.109Z</time></trkpt><trkpt lat="44.0323496" lon="10.8746633"><ele>670.0</ele><time>2026-04-04T09:43:56.109Z</time></trkpt><trkpt lat="44.0322572" lon="10.874601"><ele>670.0</ele><time>2026-04-04T09:43:58.109Z</time></trkpt><trkpt lat="44.0322101" lon="10.8745305"><ele>670.0</ele><time>2026-04-04T09:44:00.109Z</time></trkpt><trkpt lat="44.0321575" lon="10.8744748"><ele>670.0</ele><time>2026-04-04T09:46:07.108Z</time></trkpt><trkpt lat="44.0321327" lon="10.8743755"><ele>670.0</ele><time>2026-04-04T09:50:11.109Z</time></trkpt><trkpt lat="44.0320654" lon="10.874336"><ele>670.0</ele><time>2026-04-04T09:54:00.108Z</time></trkpt><trkpt lat="44.0320072" lon="10.8742071"><ele>670.0</ele><time>2026-04-04T09:54:03.109Z</time></trkpt><trkpt lat="44.0319624" lon="10.8741197"><ele>670.0</ele><time>2026-04-04T09:54:04.108Z</time></trkpt><trkpt lat="44.0319063" lon="10.87401"><ele>670.0</ele><time>2026-04-04T09:54:05.108Z</time></trkpt><trkpt lat="44.0318504" lon="10.8739185"><ele>670.0</ele><time>2026-04-04T09:54:06.109Z</time></trkpt><trkpt lat="44.0317846" lon="10.8738183"><ele>670.0</ele><time>2026-04-04T09:54:07.109Z</time></trkpt><trkpt lat="44.0317212" lon="10.8737333"><ele>670.0</ele><time>2026-04-04T09:54:08.11Z</time></trkpt><trkpt lat="44.0316674" lon="10.8736617"><ele>670.0</ele><time>2026-04-04T09:54:09.109Z</time></trkpt><trkpt lat="44.0316199" lon="10.8735968"><ele>670.0</ele><time>2026-04-04T09:54:10.109Z</time></trkpt><trkpt lat="44.0315626" lon="10.873522"><ele>670.0</ele><time>2026-04-04T09:54:11.109Z</time></trkpt><trkpt lat="44.0315059" lon="10.8734456"><ele>670.0</ele><time>2026-04-04T09:54:12.109Z</time></trkpt><trkpt lat="44.0314578" lon="10.8733817"><ele>670.0</ele><time>2026-04-04T09:54:13.109Z</time></trkpt><trkpt lat="44.0313839" lon="10.8732851"><ele>670.0</ele><time>2026-04-04T09:54:15.109Z</time></trkpt><trkpt lat="44.0313312" lon="10.8732141"><ele>670.0</ele><time>2026-04-04T09:54:17.108Z</time></trkpt><trkpt lat="44.0313211" lon="10.8731116"><ele>670.0</ele><time>2026-04-04T09:54:20.108Z</time></trkpt><trkpt lat="44.0313654" lon="10.8730234"><ele>670.0</ele><time>2026-04-04T09:54:23.108Z</time></trkpt><trkpt lat="44.0313693" lon="10.8729242"><ele>670.0</ele><time>2026-04-04T09:54:27.109Z</time></trkpt><trkpt lat="44.0313848" lon="10.8728326"><ele>670.0</ele><time>2026-04-04T09:54:29.109Z</time></trkpt><trkpt lat="44.0314098" lon="10.8727234"><ele>670.0</ele><time>2026-04-04T09:54:31.108Z</time></trkpt><trkpt lat="44.0314346" lon="10.8726318"><ele>670.0</ele><time>2026-04-04T09:54:33.109Z</time></trkpt><trkpt lat="44.0314589" lon="10.8725476"><ele>670.0</ele><time>2026-04-04T09:54:35.109Z</time></trkpt><trkpt lat="44.0314751" lon="10.8724401"><ele>670.0</ele><time>2026-04-04T09:54:37.11Z</time></trkpt><trkpt lat="44.0315007" lon="10.8723065"><ele>670.0</ele><time>2026-04-04T09:54:40.109Z</time></trkpt><trkpt lat="44.0315486" lon="10.8721817"><ele>674.0</ele><time>2026-04-04T09:54:42.109Z</time></trkpt><trkpt lat="44.0315971" lon="10.8720431"><ele>678.0</ele><time>2026-04-04T09:54:43.108Z</time></trkpt><trkpt lat="44.0316507" lon="10.8719369"><ele>682.0</ele><time>2026-04-04T09:54:45.109Z</time></trkpt><trkpt lat="44.03174" lon="10.8718009"><ele>686.0</ele><time>2026-04-04T09:54:47.108Z</time></trkpt><trkpt lat="44.0318245" lon="10.8716736"><ele>687.8333333333333</ele><time>2026-04-04T09:54:49.109Z</time></trkpt><trkpt lat="44.0319065" lon="10.8715968"><ele>689.6666666666666</ele><time>2026-04-04T09:54:51.109Z</time></trkpt><trkpt lat="44.0319681" lon="10.8715428"><ele>691.5</ele><time>2026-04-04T09:54:52.109Z</time></trkpt><trkpt lat="44.0320247" lon="10.8714854"><ele>693.3333333333334</ele><time>2026-04-04T09:54:53.109Z</time></trkpt><trkpt lat="44.0320781" lon="10.8714156"><ele>695.1666666666667</ele><time>2026-04-04T09:54:54.109Z</time></trkpt><trkpt lat="44.0321412" lon="10.8713388"><ele>697.0</ele><time>2026-04-04T09:54:55.109Z</time></trkpt><trkpt lat="44.0321877" lon="10.8712644"><ele>697.0</ele><time>2026-04-04T09:54:56.109Z</time></trkpt><trkpt lat="44.0322347" lon="10.8711619"><ele>697.0</ele><time>2026-04-04T09:54:58.109Z</time></trkpt><trkpt lat="44.0322901" lon="10.8710597"><ele>697.0</ele><time>2026-04-04T09:55:00.108Z</time></trkpt><trkpt lat="44.0323151" lon="10.8711444"><ele>697.0</ele><time>2026-04-04T09:55:03.109Z</time></trkpt><trkpt lat="44.0323805" lon="10.871004"><ele>697.0</ele><time>2026-04-04T09:55:08.108Z</time></trkpt><trkpt lat="44.0324252" lon="10.8709067"><ele>697.0</ele><time>2026-04-04T09:55:09.109Z</time></trkpt><trkpt lat="44.0324773" lon="10.8708479"><ele>700.75</ele><time>2026-04-04T09:55:10.109Z</time></trkpt><trkpt lat="44.0325564" lon="10.870685"><ele>704.5</ele><time>2026-04-04T09:55:12.109Z</time></trkpt><trkpt lat="44.0326367" lon="10.870573"><ele>708.25</ele><time>2026-04-04T09:55:14.109Z</time></trkpt><trkpt lat="44.0327419" lon="10.8704976"><ele>712.0</ele><time>2026-04-04T09:55:16.108Z</time></trkpt><trkpt lat="44.0328575" lon="10.8704501"><ele>712.0</ele><time>2026-04-04T09:55:18.109Z</time></trkpt><trkpt lat="44.0329297" lon="10.8704372"><ele>712.0</ele><time>2026-04-04T09:55:19.108Z</time></trkpt><trkpt lat="44.0329955" lon="10.8704299"><ele>712.0</ele><time>2026-04-04T09:55:20.109Z</time></trkpt><trkpt lat="44.0330804" lon="10.8704461"><ele>712.0</ele><time>2026-04-04T09:55:21.109Z</time></trkpt><trkpt lat="44.033153" lon="10.8704721"><ele>712.0</ele><time>2026-04-04T09:55:22.108Z</time></trkpt><trkpt lat="44.0332805" lon="10.8705075"><ele>712.0</ele><time>2026-04-04T09:55:24.109Z</time></trkpt><trkpt lat="44.0333602" lon="10.8705187"><ele>718.0</ele><time>2026-04-04T09:55:25.11Z</time></trkpt><trkpt lat="44.0334129" lon="10.8704704"><ele>724.0</ele><time>2026-04-04T09:55:26.108Z</time></trkpt><trkpt lat="44.0335408" lon="10.8703753"><ele>730.0</ele><time>2026-04-04T09:55:27.109Z</time></trkpt><trkpt lat="44.0336242" lon="10.8703184"><ele>736.0</ele><time>2026-04-04T09:55:28.109Z</time></trkpt><trkpt lat="44.0337011" lon="10.8702297"><ele>742.0</ele><time>2026-04-04T09:55:29.11Z</time></trkpt><trkpt lat="44.0337506" lon="10.8701743"><ele>742.0</ele><time>2026-04-04T09:55:30.109Z</time></trkpt><trkpt lat="44.0338064" lon="10.8701307"><ele>742.0</ele><time>2026-04-04T09:55:31.109Z</time></trkpt><trkpt lat="44.0338653" lon="10.8700643"><ele>742.0</ele><time>2026-04-04T09:55:32.11Z</time></trkpt><trkpt lat="44.0339595" lon="10.8699633"><ele>742.0</ele><time>2026-04-04T09:55:34.109Z</time></trkpt><trkpt lat="44.0340326" lon="10.8698216"><ele>742.0</ele><time>2026-04-04T09:55:36.109Z</time></trkpt><trkpt lat="44.0340833" lon="10.8697047"><ele>743.5</ele><time>2026-04-04T09:55:38.109Z</time></trkpt><trkpt lat="44.0341273" lon="10.8696071"><ele>745.0</ele><time>2026-04-04T09:55:40.109Z</time></trkpt><trkpt lat="44.0341692" lon="10.8697106"><ele>746.5</ele><time>2026-04-04T09:55:50.109Z</time></trkpt><trkpt lat="44.0342335" lon="10.8697824"><ele>748.0</ele><time>2026-04-04T09:55:53.109Z</time></trkpt><trkpt lat="44.0342861" lon="10.8698383"><ele>749.5</ele><time>2026-04-04T09:55:55.109Z</time></trkpt><trkpt lat="44.0343541" lon="10.8698601"><ele>751.0</ele><time>2026-04-04T09:55:57.109Z</time></trkpt><trkpt lat="44.0344434" lon="10.8698324"><ele>751.0</ele><time>2026-04-04T09:56:00.108Z</time></trkpt><trkpt lat="44.0345197" lon="10.8697872"><ele>751.0</ele><time>2026-04-04T09:56:06.108Z</time></trkpt><trkpt lat="44.0344808" lon="10.8696918"><ele>751.0</ele><time>2026-04-04T09:56:26.109Z</time></trkpt><trkpt lat="44.0344862" lon="10.8695952"><ele>751.0</ele><time>2026-04-04T09:56:28.109Z</time></trkpt><trkpt lat="44.0345561" lon="10.8695063"><ele>751.0</ele><time>2026-04-04T09:56:29.109Z</time></trkpt><trkpt lat="44.0346014" lon="10.8694039"><ele>751.0</ele><time>2026-04-04T09:56:31.109Z</time></trkpt><trkpt lat="44.0346693" lon="10.8693683"><ele>750.1666666666667</ele><time>2026-04-04T09:56:34.108Z</time></trkpt><trkpt lat="44.0346663" lon="10.8692579"><ele>749.3333333333334</ele><time>2026-04-04T09:56:38.108Z</time></trkpt><trkpt lat="44.0346736" lon="10.8691316"><ele>748.5</ele><time>2026-04-04T09:56:40.109Z</time></trkpt><trkpt lat="44.0346628" lon="10.8689673"><ele>747.6666666666666</ele><time>2026-04-04T09:56:42.108Z</time></trkpt><trkpt lat="44.0346463" lon="10.8688805"><ele>746.8333333333333</ele><time>2026-04-04T09:56:43.109Z</time></trkpt><trkpt lat="44.0346492" lon="10.868778"><ele>746.0</ele><time>2026-04-04T09:56:44.11Z</time></trkpt><trkpt lat="44.0346473" lon="10.868657"><ele>746.0</ele><time>2026-04-04T09:56:45.108Z</time></trkpt><trkpt lat="44.0346431" lon="10.8685541"><ele>746.0</ele><time>2026-04-04T09:56:46.109Z</time></trkpt><trkpt lat="44.0346483" lon="10.8684296"><ele>746.0</ele><time>2026-04-04T09:56:47.109Z</time></trkpt><trkpt lat="44.0346407" lon="10.8683043"><ele>746.0</ele><time>2026-04-04T09:56:48.109Z</time></trkpt><trkpt lat="44.0346367" lon="10.8681677"><ele>746.0</ele><time>2026-04-04T09:56:49.109Z</time></trkpt><trkpt lat="44.0346204" lon="10.8680294"><ele>746.6666666666666</ele><time>2026-04-04T09:56:50.109Z</time></trkpt><trkpt lat="44.0346111" lon="10.8679148"><ele>747.3333333333333</ele><time>2026-04-04T09:56:51.108Z</time></trkpt><trkpt lat="44.0345797" lon="10.8678035"><ele>748.0</ele><time>2026-04-04T09:56:52.109Z</time></trkpt><trkpt lat="44.0345579" lon="10.86769"><ele>748.6666666666666</ele><time>2026-04-04T09:56:53.109Z</time></trkpt><trkpt lat="44.0345469" lon="10.8675835"><ele>749.3333333333334</ele><time>2026-04-04T09:56:54.108Z</time></trkpt><trkpt lat="44.0345339" lon="10.8674694"><ele>750.0</ele><time>2026-04-04T09:56:55.108Z</time></trkpt><trkpt lat="44.0345178" lon="10.8673468"><ele>751.6666666666666</ele><time>2026-04-04T09:56:56.108Z</time></trkpt><trkpt lat="44.0345108" lon="10.867238"><ele>753.3333333333334</ele><time>2026-04-04T09:56:57.108Z</time></trkpt><trkpt lat="44.0345062" lon="10.8671342"><ele>755.0</ele><time>2026-04-04T09:56:58.108Z</time></trkpt><trkpt lat="44.034494" lon="10.8670256"><ele>756.6666666666667</ele><time>2026-04-04T09:56:59.108Z</time></trkpt><trkpt lat="44.03447" lon="10.866931"><ele>758.3333333333334</ele><time>2026-04-04T09:57:00.108Z</time></trkpt><trkpt lat="44.0344635" lon="10.8668221"><ele>760.0</ele><time>2026-04-04T09:57:01.107Z</time></trkpt><trkpt lat="44.034455" lon="10.8667018"><ele>762.8333333333334</ele><time>2026-04-04T09:57:02.108Z</time></trkpt><trkpt lat="44.0344567" lon="10.8665882"><ele>765.6666666666667</ele><time>2026-04-04T09:57:03.108Z</time></trkpt><trkpt lat="44.0344527" lon="10.8664894"><ele>768.5</ele><time>2026-04-04T09:57:04.108Z</time></trkpt><trkpt lat="44.0344437" lon="10.8664023"><ele>771.3333333333334</ele><time>2026-04-04T09:57:05.108Z</time></trkpt><trkpt lat="44.0344157" lon="10.8662181"><ele>774.1666666666666</ele><time>2026-04-04T09:57:07.108Z</time></trkpt><trkpt lat="44.034374" lon="10.8661148"><ele>777.0</ele><time>2026-04-04T09:57:08.108Z</time></trkpt><trkpt lat="44.034335" lon="10.8660161"><ele>778.8</ele><time>2026-04-04T09:57:09.107Z</time></trkpt><trkpt lat="44.0342764" lon="10.8658947"><ele>780.6</ele><time>2026-04-04T09:57:10.108Z</time></trkpt><trkpt lat="44.0342366" lon="10.8658175"><ele>782.4</ele><time>2026-04-04T09:57:11.108Z</time></trkpt><trkpt lat="44.0341647" lon="10.8657117"><ele>784.1999999999999</ele><time>2026-04-04T09:57:13.108Z</time></trkpt><trkpt lat="44.0340889" lon="10.8655802"><ele>786.0</ele><time>2026-04-04T09:57:15.107Z</time></trkpt><trkpt lat="44.0340033" lon="10.8654561"><ele>786.0</ele><time>2026-04-04T09:57:17.107Z</time></trkpt><trkpt lat="44.0339441" lon="10.8653303"><ele>786.0</ele><time>2026-04-04T09:57:19.107Z</time></trkpt><trkpt lat="44.0339053" lon="10.8652286"><ele>786.0</ele><time>2026-04-04T09:57:21.108Z</time></trkpt><trkpt lat="44.033864" lon="10.8651144"><ele>786.0</ele><time>2026-04-04T09:57:23.108Z</time></trkpt><trkpt lat="44.0338155" lon="10.8650523"><ele>786.0</ele><time>2026-04-04T09:57:24.108Z</time></trkpt><trkpt lat="44.0337372" lon="10.8649918"><ele>786.0</ele><time>2026-04-04T09:57:25.107Z</time></trkpt><trkpt lat="44.0336711" lon="10.8649472"><ele>790.3333333333334</ele><time>2026-04-04T09:57:26.108Z</time></trkpt><trkpt lat="44.0336043" lon="10.8648948"><ele>794.6666666666667</ele><time>2026-04-04T09:57:27.107Z</time></trkpt><trkpt lat="44.0335279" lon="10.8648314"><ele>799.0</ele><time>2026-04-04T09:57:29.108Z</time></trkpt><trkpt lat="44.0334491" lon="10.8647845"><ele>803.3333333333334</ele><time>2026-04-04T09:57:31.108Z</time></trkpt><trkpt lat="44.0333816" lon="10.864741"><ele>807.6666666666667</ele><time>2026-04-04T09:57:33.108Z</time></trkpt><trkpt lat="44.0332912" lon="10.8646934"><ele>812.0</ele><time>2026-04-04T09:57:35.108Z</time></trkpt><trkpt lat="44.0332099" lon="10.8646464"><ele>812.0000000000001</ele><time>2026-04-04T09:57:37.109Z</time></trkpt><trkpt lat="44.0331377" lon="10.8645536"><ele>812.0</ele><time>2026-04-04T09:57:40.109Z</time></trkpt><trkpt lat="44.0330572" lon="10.8644734"><ele>812.0</ele><time>2026-04-04T09:57:42.107Z</time></trkpt><trkpt lat="44.0330082" lon="10.8644088"><ele>812.0</ele><time>2026-04-04T09:57:44.108Z</time></trkpt><trkpt lat="44.033044" lon="10.8643166"><ele>812.0000000000001</ele><time>2026-04-04T09:57:54.108Z</time></trkpt><trkpt lat="44.0330878" lon="10.8642282"><ele>812.0</ele><time>2026-04-04T09:57:57.108Z</time></trkpt><trkpt lat="44.0331289" lon="10.8641481"><ele>816.1666666666667</ele><time>2026-04-04T09:58:00.107Z</time></trkpt><trkpt lat="44.033198" lon="10.8640993"><ele>820.3333333333334</ele><time>2026-04-04T09:58:04.107Z</time></trkpt><trkpt lat="44.0332373" lon="10.8640041"><ele>824.5</ele><time>2026-04-04T09:58:08.108Z</time></trkpt><trkpt lat="44.0332494" lon="10.8639144"><ele>828.6666666666667</ele><time>2026-04-04T09:58:11.109Z</time></trkpt><trkpt lat="44.0332577" lon="10.863781"><ele>832.8333333333334</ele><time>2026-04-04T09:58:14.107Z</time></trkpt><trkpt lat="44.0332626" lon="10.8636576"><ele>837.0</ele><time>2026-04-04T09:58:17.108Z</time></trkpt><trkpt lat="44.0332322" lon="10.8635337"><ele>840.3333333333334</ele><time>2026-04-04T09:58:19.108Z</time></trkpt><trkpt lat="44.0332431" lon="10.8634012"><ele>843.6666666666667</ele><time>2026-04-04T09:58:21.108Z</time></trkpt><trkpt lat="44.0332839" lon="10.8633208"><ele>847.0</ele><time>2026-04-04T09:58:23.108Z</time></trkpt><trkpt lat="44.0333244" lon="10.8632507"><ele>850.3333333333334</ele><time>2026-04-04T09:58:25.108Z</time></trkpt><trkpt lat="44.0333593" lon="10.86316"><ele>853.6666666666667</ele><time>2026-04-04T09:58:27.108Z</time></trkpt><trkpt lat="44.0333806" lon="10.8630592"><ele>857.0</ele><time>2026-04-04T09:58:30.107Z</time></trkpt><trkpt lat="44.033417" lon="10.8629567"><ele>850.3333333333334</ele><time>2026-04-04T09:58:32.108Z</time></trkpt><trkpt lat="44.0334594" lon="10.8628473"><ele>843.6666666666667</ele><time>2026-04-04T09:58:34.108Z</time></trkpt><trkpt lat="44.0334809" lon="10.8627412"><ele>837.0</ele><time>2026-04-04T09:58:36.108Z</time></trkpt><trkpt lat="44.0334861" lon="10.862652"><ele>830.3333333333333</ele><time>2026-04-04T09:58:38.107Z</time></trkpt><trkpt lat="44.0335059" lon="10.8625458"><ele>823.6666666666666</ele><time>2026-04-04T09:58:40.108Z</time></trkpt><trkpt lat="44.0335034" lon="10.8624321"><ele>817.0</ele><time>2026-04-04T09:58:42.107Z</time></trkpt><trkpt lat="44.0334897" lon="10.8623096"><ele>816.9999999999999</ele><time>2026-04-04T09:58:44.108Z</time></trkpt><trkpt lat="44.0334669" lon="10.8621555"><ele>817.0</ele><time>2026-04-04T09:58:51.107Z</time></trkpt><trkpt lat="44.0334441" lon="10.8620711"><ele>817.0</ele><time>2026-04-04T09:59:15.108Z</time></trkpt><trkpt lat="44.0334163" lon="10.8619911"><ele>817.0</ele><time>2026-04-04T09:59:19.108Z</time></trkpt><trkpt lat="44.0334138" lon="10.861883"><ele>816.9999999999999</ele><time>2026-04-04T09:59:30.108Z</time></trkpt><trkpt lat="44.0334732" lon="10.8618304"><ele>817.0</ele><time>2026-04-04T09:59:34.109Z</time></trkpt><trkpt lat="44.0335251" lon="10.861741"><ele>818.1666666666666</ele><time>2026-04-04T09:59:37.108Z</time></trkpt><trkpt lat="44.0335704" lon="10.8616727"><ele>819.3333333333333</ele><time>2026-04-04T09:59:42.108Z</time></trkpt><trkpt lat="44.0336413" lon="10.8616191"><ele>820.5</ele><time>2026-04-04T09:59:50.107Z</time></trkpt><trkpt lat="44.0337045" lon="10.8615687"><ele>821.6666666666667</ele><time>2026-04-04T09:59:52.107Z</time></trkpt><trkpt lat="44.033771" lon="10.8615241"><ele>822.8333333333334</ele><time>2026-04-04T09:59:54.108Z</time></trkpt><trkpt lat="44.0338643" lon="10.8615075"><ele>824.0</ele><time>2026-04-04T09:59:58.107Z</time></trkpt><trkpt lat="44.0339518" lon="10.8614446"><ele>824.0000000000001</ele><time>2026-04-04T10:00:00.108Z</time></trkpt><trkpt lat="44.0340212" lon="10.8613765"><ele>824.0</ele><time>2026-04-04T10:00:01.107Z</time></trkpt><trkpt lat="44.0340962" lon="10.8612944"><ele>824.0</ele><time>2026-04-04T10:00:03.108Z</time></trkpt><trkpt lat="44.0341547" lon="10.861202"><ele>824.0</ele><time>2026-04-04T10:00:05.108Z</time></trkpt><trkpt lat="44.0342292" lon="10.8611355"><ele>824.0000000000001</ele><time>2026-04-04T10:00:07.108Z</time></trkpt><trkpt lat="44.0341685" lon="10.8610751"><ele>824.0</ele><time>2026-04-04T10:00:33.108Z</time></trkpt><trkpt lat="44.0340724" lon="10.8610964"><ele>824.0</ele><time>2026-04-04T10:00:35.108Z</time></trkpt><trkpt lat="44.033966" lon="10.8611065"><ele>824.0</ele><time>2026-04-04T10:00:37.108Z</time></trkpt><trkpt lat="44.0338753" lon="10.8610508"><ele>824.0</ele><time>2026-04-04T10:00:39.108Z</time></trkpt><trkpt lat="44.0337523" lon="10.8610385"><ele>824.0</ele><time>2026-04-04T10:00:41.108Z</time></trkpt><trkpt lat="44.033675" lon="10.8610296"><ele>824.0</ele><time>2026-04-04T10:00:42.107Z</time></trkpt><trkpt lat="44.0335767" lon="10.8610076"><ele>824.0000000000001</ele><time>2026-04-04T10:00:44.108Z</time></trkpt><trkpt lat="44.0335092" lon="10.8609968"><ele>824.0</ele><time>2026-04-04T10:00:45.107Z</time></trkpt><trkpt lat="44.0334209" lon="10.8610238"><ele>824.0</ele><time>2026-04-04T10:00:47.107Z</time></trkpt><trkpt lat="44.0333608" lon="10.8609947"><ele>824.0</ele><time>2026-04-04T10:04:28.107Z</time></trkpt><trkpt lat="44.0333354" lon="10.860897"><ele>824.0000000000001</ele><time>2026-04-04T10:04:34.107Z</time></trkpt><trkpt lat="44.0333372" lon="10.8607756"><ele>824.0</ele><time>2026-04-04T10:04:38.107Z</time></trkpt><trkpt lat="44.0332707" lon="10.8607189"><ele>828.9999999999999</ele><time>2026-04-04T10:04:44.108Z</time></trkpt><trkpt lat="44.0332176" lon="10.8607746"><ele>834.0</ele><time>2026-04-04T10:04:48.108Z</time></trkpt><trkpt lat="44.0331871" lon="10.8608579"><ele>839.0</ele><time>2026-04-04T10:04:55.108Z</time></trkpt><trkpt lat="44.033252" lon="10.860931"><ele>844.0</ele><time>2026-04-04T10:05:11.108Z</time></trkpt><trkpt lat="44.0331882" lon="10.8609856"><ele>849.0</ele><time>2026-04-04T10:05:15.107Z</time></trkpt><trkpt lat="44.0331203" lon="10.8609878"><ele>853.9999999999999</ele><time>2026-04-04T10:09:59.106Z</time></trkpt><trkpt lat="44.0330479" lon="10.8609717"><ele>859.0</ele><time>2026-04-04T10:10:02.107Z</time></trkpt><trkpt lat="44.0329865" lon="10.8609507"><ele>858.9999999999999</ele><time>2026-04-04T10:10:05.107Z</time></trkpt><trkpt lat="44.0329046" lon="10.860932"><ele>859.0</ele><time>2026-04-04T10:10:10.107Z</time></trkpt><trkpt lat="44.0328454" lon="10.8608836"><ele>859.0</ele><time>2026-04-04T10:10:21.107Z</time></trkpt><trkpt lat="44.0327953" lon="10.8609491"><ele>859.0</ele><time>2026-04-04T10:10:32.106Z</time></trkpt><trkpt lat="44.0327822" lon="10.8610531"><ele>858.9999999999999</ele><time>2026-04-04T10:10:52.107Z</time></trkpt><trkpt lat="44.0327372" lon="10.8611324"><ele>859.0</ele><time>2026-04-04T10:10:58.107Z</time></trkpt><trkpt lat="44.0326861" lon="10.8612465"><ele>858.9999999999999</ele><time>2026-04-04T10:11:01.107Z</time></trkpt><trkpt lat="44.0326078" lon="10.8612893"><ele>859.0</ele><time>2026-04-04T10:11:04.107Z</time></trkpt><trkpt lat="44.03255" lon="10.8613705"><ele>859.0</ele><time>2026-04-04T10:11:07.108Z</time></trkpt><trkpt lat="44.0325985" lon="10.8612964"><ele>859.0</ele><time>2026-04-04T10:13:10.108Z</time></trkpt><trkpt lat="44.0326627" lon="10.8612804"><ele>859.0</ele><time>2026-04-04T10:13:16.107Z</time></trkpt><trkpt lat="44.0326904" lon="10.8611977"><ele>858.9999999999999</ele><time>2026-04-04T10:13:25.107Z</time></trkpt><trkpt lat="44.0327225" lon="10.8611153"><ele>859.0</ele><time>2026-04-04T10:13:33.106Z</time></trkpt><trkpt lat="44.0327686" lon="10.8610457"><ele>858.9999999999999</ele><time>2026-04-04T10:13:39.107Z</time></trkpt><trkpt lat="44.0328038" lon="10.8611247"><ele>859.0</ele><time>2026-04-04T10:13:57.107Z</time></trkpt><trkpt lat="44.0328695" lon="10.8610922"><ele>859.0</ele><time>2026-04-04T10:14:03.107Z</time></trkpt><trkpt lat="44.0329155" lon="10.8610257"><ele>859.0</ele><time>2026-04-04T10:14:29.106Z</time></trkpt><trkpt lat="44.0329574" lon="10.8609486"><ele>859.0</ele><time>2026-04-04T10:14:35.103Z</time></trkpt><trkpt lat="44.0329359" lon="10.8608564"><ele>858.9999999999999</ele><time>2026-04-04T10:15:11.107Z</time></trkpt><trkpt lat="44.0330067" lon="10.8608591"><ele>859.0</ele><time>2026-04-04T10:15:33.106Z</time></trkpt><trkpt lat="44.0330739" lon="10.8608745"><ele>858.9999999999999</ele><time>2026-04-04T10:16:43.106Z</time></trkpt><trkpt lat="44.033054" lon="10.8609591"><ele>859.0</ele><time>2026-04-04T10:16:58.107Z</time></trkpt><trkpt lat="44.0329927" lon="10.8609194"><ele>859.0</ele><time>2026-04-04T10:17:01.107Z</time></trkpt><trkpt lat="44.0329247" lon="10.8609027"><ele>859.0</ele><time>2026-04-04T10:18:12.107Z</time></trkpt><trkpt lat="44.0328551" lon="10.86089"><ele>859.0</ele><time>2026-04-04T10:18:19.107Z</time></trkpt><trkpt lat="44.0327918" lon="10.8609554"><ele>858.9999999999999</ele><time>2026-04-04T10:18:36.106Z</time></trkpt><trkpt lat="44.0327776" lon="10.8610516"><ele>859.0</ele><time>2026-04-04T10:18:43.105Z</time></trkpt><trkpt lat="44.0327256" lon="10.8611142"><ele>858.9999999999999</ele><time>2026-04-04T10:18:49.23Z</time></trkpt><trkpt lat="44.0327149" lon="10.8612026"><ele>859.0</ele><time>2026-04-04T10:19:02.107Z</time></trkpt><trkpt lat="44.0326575" lon="10.8612561"><ele>859.0</ele><time>2026-04-04T10:19:31.106Z</time></trkpt><trkpt lat="44.0326338" lon="10.8613498"><ele>859.0</ele><time>2026-04-04T10:19:40.105Z</time></trkpt><trkpt lat="44.0325632" lon="10.861363"><ele>859.0</ele><time>2026-04-04T10:19:47.106Z</time></trkpt><trkpt lat="44.0324989" lon="10.8613853"><ele>858.9999999999999</ele><time>2026-04-04T10:19:54.129Z</time></trkpt><trkpt lat="44.0324585" lon="10.8614578"><ele>859.0</ele><time>2026-04-04T10:26:16.107Z</time></trkpt><trkpt lat="44.0324171" lon="10.8615478"><ele>863.4999999999999</ele><time>2026-04-04T10:26:19.105Z</time></trkpt><trkpt lat="44.0324" lon="10.8616521"><ele>868.0</ele><time>2026-04-04T10:26:22.106Z</time></trkpt><trkpt lat="44.0323806" lon="10.8617442"><ele>872.5</ele><time>2026-04-04T10:26:24.105Z</time></trkpt><trkpt lat="44.0323497" lon="10.8618441"><ele>877.0</ele><time>2026-04-04T10:26:26.107Z</time></trkpt><trkpt lat="44.0323125" lon="10.8619528"><ele>881.4999999999999</ele><time>2026-04-04T10:26:29.106Z</time></trkpt><trkpt lat="44.03223" lon="10.862005"><ele>886.0</ele><time>2026-04-04T10:26:32.105Z</time></trkpt><trkpt lat="44.0321568" lon="10.8620428"><ele>885.9999999999999</ele><time>2026-04-04T10:26:34.105Z</time></trkpt><trkpt lat="44.0320769" lon="10.862085"><ele>886.0</ele><time>2026-04-04T10:26:36.106Z</time></trkpt><trkpt lat="44.0319988" lon="10.8621136"><ele>886.0</ele><time>2026-04-04T10:26:38.105Z</time></trkpt><trkpt lat="44.0319144" lon="10.8621511"><ele>886.0</ele><time>2026-04-04T10:26:40.106Z</time></trkpt><trkpt lat="44.0318477" lon="10.8621557"><ele>885.9999999999999</ele><time>2026-04-04T10:26:42.106Z</time></trkpt><trkpt lat="44.0318094" lon="10.8620732"><ele>886.0</ele><time>2026-04-04T10:26:45.106Z</time></trkpt><trkpt lat="44.0317979" lon="10.8619666"><ele>886.0</ele><time>2026-04-04T10:26:47.106Z</time></trkpt><trkpt lat="44.0317861" lon="10.8618776"><ele>885.9999999999999</ele><time>2026-04-04T10:26:48.106Z</time></trkpt><trkpt lat="44.0317604" lon="10.8616994"><ele>885.9999999999999</ele><time>2026-04-04T10:26:49.106Z</time></trkpt><trkpt lat="44.0317498" lon="10.8615967"><ele>886.0</ele><time>2026-04-04T10:26:50.106Z</time></trkpt><trkpt lat="44.0317333" lon="10.8615107"><ele>886.0</ele><time>2026-04-04T10:26:51.106Z</time></trkpt><trkpt lat="44.031693" lon="10.8613361"><ele>885.1666666666666</ele><time>2026-04-04T10:26:53.106Z</time></trkpt><trkpt lat="44.031611" lon="10.8612881"><ele>884.3333333333333</ele><time>2026-04-04T10:26:54.106Z</time></trkpt><trkpt lat="44.0315496" lon="10.8612347"><ele>883.5</ele><time>2026-04-04T10:26:55.105Z</time></trkpt><trkpt lat="44.0314692" lon="10.8611119"><ele>882.6666666666667</ele><time>2026-04-04T10:26:57.106Z</time></trkpt><trkpt lat="44.0314256" lon="10.8610449"><ele>881.8333333333334</ele><time>2026-04-04T10:26:58.106Z</time></trkpt><trkpt lat="44.0313761" lon="10.8609737"><ele>881.0</ele><time>2026-04-04T10:26:59.106Z</time></trkpt><trkpt lat="44.0312501" lon="10.8608792"><ele>883.5000000000001</ele><time>2026-04-04T10:27:01.106Z</time></trkpt><trkpt lat="44.0311775" lon="10.860828"><ele>886.0</ele><time>2026-04-04T10:27:02.106Z</time></trkpt><trkpt lat="44.0311095" lon="10.8607281"><ele>888.5</ele><time>2026-04-04T10:27:03.106Z</time></trkpt><trkpt lat="44.0310734" lon="10.8606458"><ele>891.0</ele><time>2026-04-04T10:27:04.106Z</time></trkpt><trkpt lat="44.031022" lon="10.8605736"><ele>893.5000000000001</ele><time>2026-04-04T10:27:05.106Z</time></trkpt><trkpt lat="44.0309864" lon="10.860486"><ele>896.0</ele><time>2026-04-04T10:27:06.106Z</time></trkpt><trkpt lat="44.0309263" lon="10.8604097"><ele>896.0</ele><time>2026-04-04T10:27:07.106Z</time></trkpt><trkpt lat="44.0308822" lon="10.8603113"><ele>895.9999999999999</ele><time>2026-04-04T10:27:08.106Z</time></trkpt><trkpt lat="44.030836" lon="10.8602157"><ele>895.9999999999999</ele><time>2026-04-04T10:27:09.106Z</time></trkpt><trkpt lat="44.0307968" lon="10.8601136"><ele>896.0</ele><time>2026-04-04T10:27:10.107Z</time></trkpt><trkpt lat="44.0307362" lon="10.859926"><ele>896.0</ele><time>2026-04-04T10:27:12.106Z</time></trkpt><trkpt lat="44.0306935" lon="10.8598385"><ele>897.3333333333334</ele><time>2026-04-04T10:27:13.105Z</time></trkpt><trkpt lat="44.030664" lon="10.8597382"><ele>898.6666666666667</ele><time>2026-04-04T10:27:14.106Z</time></trkpt><trkpt lat="44.0306352" lon="10.8596398"><ele>900.0</ele><time>2026-04-04T10:27:15.106Z</time></trkpt><trkpt lat="44.0305823" lon="10.8595329"><ele>901.3333333333333</ele><time>2026-04-04T10:27:16.105Z</time></trkpt><trkpt lat="44.0305458" lon="10.8594271"><ele>902.6666666666666</ele><time>2026-04-04T10:27:17.107Z</time></trkpt><trkpt lat="44.0304799" lon="10.8593353"><ele>904.0</ele><time>2026-04-04T10:27:18.106Z</time></trkpt><trkpt lat="44.0304299" lon="10.8592376"><ele>903.9999999999999</ele><time>2026-04-04T10:27:19.106Z</time></trkpt><trkpt lat="44.0303837" lon="10.8591289"><ele>904.0</ele><time>2026-04-04T10:27:20.107Z</time></trkpt><trkpt lat="44.0303187" lon="10.8590286"><ele>904.0</ele><time>2026-04-04T10:27:21.106Z</time></trkpt><trkpt lat="44.0302599" lon="10.8589481"><ele>904.0</ele><time>2026-04-04T10:27:22.105Z</time></trkpt><trkpt lat="44.0301991" lon="10.8588734"><ele>903.9999999999999</ele><time>2026-04-04T10:27:23.105Z</time></trkpt><trkpt lat="44.0301399" lon="10.8588285"><ele>904.0</ele><time>2026-04-04T10:27:24.107Z</time></trkpt><trkpt lat="44.0300855" lon="10.8587649"><ele>904.0</ele><time>2026-04-04T10:27:25.106Z</time></trkpt><trkpt lat="44.0299966" lon="10.8586128"><ele>904.0000000000001</ele><time>2026-04-04T10:27:26.107Z</time></trkpt><trkpt lat="44.0299407" lon="10.8585041"><ele>904.0000000000001</ele><time>2026-04-04T10:27:27.106Z</time></trkpt><trkpt lat="44.0298582" lon="10.8584149"><ele>904.0</ele><time>2026-04-04T10:27:28.105Z</time></trkpt><trkpt lat="44.0297762" lon="10.8583265"><ele>904.0</ele><time>2026-04-04T10:27:29.106Z</time></trkpt><trkpt lat="44.0296889" lon="10.8582522"><ele>903.4000000000001</ele><time>2026-04-04T10:27:30.106Z</time></trkpt><trkpt lat="44.0296062" lon="10.8581746"><ele>902.8000000000001</ele><time>2026-04-04T10:27:31.105Z</time></trkpt><trkpt lat="44.0295191" lon="10.8581135"><ele>902.1999999999999</ele><time>2026-04-04T10:27:32.105Z</time></trkpt><trkpt lat="44.0294513" lon="10.8580524"><ele>901.5999999999999</ele><time>2026-04-04T10:27:33.106Z</time></trkpt><trkpt lat="44.0293513" lon="10.8579941"><ele>901.0</ele><time>2026-04-04T10:27:34.106Z</time></trkpt><trkpt lat="44.0292719" lon="10.8579358"><ele>901.0</ele><time>2026-04-04T10:27:35.107Z</time></trkpt><trkpt lat="44.0291845" lon="10.8578856"><ele>900.9999999999999</ele><time>2026-04-04T10:27:36.106Z</time></trkpt><trkpt lat="44.0290825" lon="10.8578449"><ele>900.9999999999999</ele><time>2026-04-04T10:27:37.106Z</time></trkpt><trkpt lat="44.028979" lon="10.8577924"><ele>901.0</ele><time>2026-04-04T10:27:38.106Z</time></trkpt><trkpt lat="44.0288793" lon="10.8577451"><ele>901.0</ele><time>2026-04-04T10:27:39.106Z</time></trkpt><trkpt lat="44.0287869" lon="10.8577046"><ele>901.1428571428572</ele><time>2026-04-04T10:27:40.106Z</time></trkpt><trkpt lat="44.0287233" lon="10.8576942"><ele>901.2857142857144</ele><time>2026-04-04T10:27:41.105Z</time></trkpt><trkpt lat="44.0286521" lon="10.8577532"><ele>901.4285714285714</ele><time>2026-04-04T10:27:42.105Z</time></trkpt><trkpt lat="44.0285877" lon="10.8577545"><ele>901.5714285714287</ele><time>2026-04-04T10:27:43.106Z</time></trkpt><trkpt lat="44.0285195" lon="10.8577473"><ele>901.7142857142858</ele><time>2026-04-04T10:27:44.106Z</time></trkpt><trkpt lat="44.0284511" lon="10.8577495"><ele>901.8571428571429</ele><time>2026-04-04T10:27:45.107Z</time></trkpt><trkpt lat="44.0283819" lon="10.8577805"><ele>902.0</ele><time>2026-04-04T10:27:46.106Z</time></trkpt><trkpt lat="44.0282597" lon="10.8578083"><ele>900.2</ele><time>2026-04-04T10:27:48.106Z</time></trkpt><trkpt lat="44.0281869" lon="10.8578378"><ele>898.4000000000001</ele><time>2026-04-04T10:27:49.107Z</time></trkpt><trkpt lat="44.0280756" lon="10.8578976"><ele>896.5999999999999</ele><time>2026-04-04T10:27:51.106Z</time></trkpt><trkpt lat="44.0279626" lon="10.8579015"><ele>894.8</ele><time>2026-04-04T10:27:53.107Z</time></trkpt><trkpt lat="44.0278642" lon="10.8578797"><ele>893.0</ele><time>2026-04-04T10:27:55.106Z</time></trkpt><trkpt lat="44.0277555" lon="10.8578838"><ele>893.0</ele><time>2026-04-04T10:27:57.106Z</time></trkpt><trkpt lat="44.0276475" lon="10.8578562"><ele>893.0</ele><time>2026-04-04T10:27:59.107Z</time></trkpt><trkpt lat="44.0275615" lon="10.8578466"><ele>893.0</ele><time>2026-04-04T10:28:00.106Z</time></trkpt><trkpt lat="44.0274711" lon="10.8578279"><ele>893.0</ele><time>2026-04-04T10:28:01.106Z</time></trkpt><trkpt lat="44.0273858" lon="10.857788"><ele>893.0</ele><time>2026-04-04T10:28:02.105Z</time></trkpt><trkpt lat="44.0272863" lon="10.8577347"><ele>893.5999999999999</ele><time>2026-04-04T10:28:03.105Z</time></trkpt><trkpt lat="44.0271725" lon="10.8576465"><ele>894.1999999999999</ele><time>2026-04-04T10:28:04.106Z</time></trkpt><trkpt lat="44.0270971" lon="10.8575886"><ele>894.8</ele><time>2026-04-04T10:28:05.106Z</time></trkpt><trkpt lat="44.0270186" lon="10.8575214"><ele>895.4</ele><time>2026-04-04T10:28:06.106Z</time></trkpt><trkpt lat="44.0269396" lon="10.8574394"><ele>896.0</ele><time>2026-04-04T10:28:07.105Z</time></trkpt><trkpt lat="44.0268577" lon="10.8573546"><ele>896.0</ele><time>2026-04-04T10:28:08.105Z</time></trkpt><trkpt lat="44.0268265" lon="10.8572618"><ele>896.0</ele><time>2026-04-04T10:28:09.105Z</time></trkpt><trkpt lat="44.0267789" lon="10.8571974"><ele>896.0</ele><time>2026-04-04T10:28:10.105Z</time></trkpt><trkpt lat="44.026734" lon="10.8571125"><ele>896.0</ele><time>2026-04-04T10:28:11.106Z</time></trkpt><trkpt lat="44.0266763" lon="10.8570424"><ele>896.0</ele><time>2026-04-04T10:28:12.106Z</time></trkpt><trkpt lat="44.0266261" lon="10.8569808"><ele>896.0</ele><time>2026-04-04T10:28:13.106Z</time></trkpt><trkpt lat="44.0265772" lon="10.8569226"><ele>896.0</ele><time>2026-04-04T10:28:14.106Z</time></trkpt><trkpt lat="44.0265231" lon="10.856807"><ele>898.5999999999999</ele><time>2026-04-04T10:28:16.106Z</time></trkpt><trkpt lat="44.0264674" lon="10.856757"><ele>901.1999999999999</ele><time>2026-04-04T10:28:18.106Z</time></trkpt><trkpt lat="44.0264141" lon="10.8567035"><ele>903.8000000000001</ele><time>2026-04-04T10:28:19.106Z</time></trkpt><trkpt lat="44.02628" lon="10.856676"><ele>906.4000000000001</ele><time>2026-04-04T10:28:21.106Z</time></trkpt><trkpt lat="44.0261663" lon="10.8566057"><ele>909.0</ele><time>2026-04-04T10:28:23.106Z</time></trkpt><trkpt lat="44.0260606" lon="10.8565274"><ele>909.0</ele><time>2026-04-04T10:28:25.106Z</time></trkpt><trkpt lat="44.0260109" lon="10.8564673"><ele>909.0000000000001</ele><time>2026-04-04T10:28:26.106Z</time></trkpt><trkpt lat="44.0258947" lon="10.8563533"><ele>909.0000000000001</ele><time>2026-04-04T10:28:28.106Z</time></trkpt><trkpt lat="44.025791" lon="10.85624"><ele>909.0</ele><time>2026-04-04T10:28:30.106Z</time></trkpt><trkpt lat="44.0257262" lon="10.8561544"><ele>909.0</ele><time>2026-04-04T10:28:31.106Z</time></trkpt><trkpt lat="44.0256704" lon="10.8560972"><ele>905.4000000000001</ele><time>2026-04-04T10:28:32.106Z</time></trkpt><trkpt lat="44.0256178" lon="10.8560369"><ele>901.8000000000001</ele><time>2026-04-04T10:28:33.106Z</time></trkpt><trkpt lat="44.0255181" lon="10.8559775"><ele>898.1999999999999</ele><time>2026-04-04T10:28:35.106Z</time></trkpt><trkpt lat="44.0254512" lon="10.8559201"><ele>894.5999999999999</ele><time>2026-04-04T10:28:37.106Z</time></trkpt><trkpt lat="44.0253918" lon="10.8558104"><ele>891.0</ele><time>2026-04-04T10:28:39.105Z</time></trkpt><trkpt lat="44.0253131" lon="10.8557164"><ele>891.0</ele><time>2026-04-04T10:28:41.106Z</time></trkpt><trkpt lat="44.0252452" lon="10.8556663"><ele>891.0</ele><time>2026-04-04T10:28:43.106Z</time></trkpt><trkpt lat="44.0252012" lon="10.8555839"><ele>891.0</ele><time>2026-04-04T10:28:44.106Z</time></trkpt><trkpt lat="44.025196" lon="10.8554605"><ele>891.0</ele><time>2026-04-04T10:28:47.105Z</time></trkpt><trkpt lat="44.0251925" lon="10.8553513"><ele>891.0</ele><time>2026-04-04T10:28:49.105Z</time></trkpt><trkpt lat="44.0251764" lon="10.8551887"><ele>891.0</ele><time>2026-04-04T10:28:51.105Z</time></trkpt><trkpt lat="44.0251431" lon="10.8550975"><ele>890.1428571428572</ele><time>2026-04-04T10:28:52.104Z</time></trkpt><trkpt lat="44.0250869" lon="10.8550402"><ele>889.2857142857143</ele><time>2026-04-04T10:28:54.104Z</time></trkpt><trkpt lat="44.0250678" lon="10.8549328"><ele>888.4285714285714</ele><time>2026-04-04T10:28:56.105Z</time></trkpt><trkpt lat="44.0250612" lon="10.854821"><ele>887.5714285714287</ele><time>2026-04-04T10:28:58.104Z</time></trkpt><trkpt lat="44.0250351" lon="10.8547377"><ele>886.7142857142857</ele><time>2026-04-04T10:29:11.104Z</time></trkpt><trkpt lat="44.0249634" lon="10.8546965"><ele>885.8571428571429</ele><time>2026-04-04T10:29:16.104Z</time></trkpt><trkpt lat="44.0248954" lon="10.854699"><ele>885.0</ele><time>2026-04-04T10:29:19.104Z</time></trkpt><trkpt lat="44.024778" lon="10.8546743"><ele>885.0</ele><time>2026-04-04T10:29:22.104Z</time></trkpt><trkpt lat="44.024677" lon="10.8545909"><ele>885.0</ele><time>2026-04-04T10:29:24.104Z</time></trkpt><trkpt lat="44.0246024" lon="10.8545338"><ele>885.0</ele><time>2026-04-04T10:29:25.105Z</time></trkpt><trkpt lat="44.0245401" lon="10.8544752"><ele>885.0</ele><time>2026-04-04T10:29:27.104Z</time></trkpt><trkpt lat="44.0244815" lon="10.8544251"><ele>885.0</ele><time>2026-04-04T10:29:29.105Z</time></trkpt><trkpt lat="44.024394" lon="10.8543717"><ele>885.0</ele><time>2026-04-04T10:29:31.105Z</time></trkpt><trkpt lat="44.0242338" lon="10.8543176"><ele>884.8</ele><time>2026-04-04T10:29:33.105Z</time></trkpt><trkpt lat="44.0240828" lon="10.8542162"><ele>884.6</ele><time>2026-04-04T10:29:35.105Z</time></trkpt><trkpt lat="44.0240254" lon="10.8541643"><ele>884.4000000000001</ele><time>2026-04-04T10:29:36.104Z</time></trkpt><trkpt lat="44.0239871" lon="10.8540893"><ele>884.2</ele><time>2026-04-04T10:29:37.105Z</time></trkpt><trkpt lat="44.023946" lon="10.8540036"><ele>884.0</ele><time>2026-04-04T10:29:38.104Z</time></trkpt><trkpt lat="44.0239327" lon="10.8539035"><ele>884.0000000000001</ele><time>2026-04-04T10:29:39.104Z</time></trkpt><trkpt lat="44.0239128" lon="10.8537865"><ele>884.0</ele><time>2026-04-04T10:29:40.105Z</time></trkpt><trkpt lat="44.0239035" lon="10.8536682"><ele>884.0</ele><time>2026-04-04T10:29:41.105Z</time></trkpt><trkpt lat="44.0239142" lon="10.8535707"><ele>884.0</ele><time>2026-04-04T10:29:42.104Z</time></trkpt><trkpt lat="44.0239147" lon="10.8534656"><ele>884.0000000000001</ele><time>2026-04-04T10:29:43.105Z</time></trkpt><trkpt lat="44.023881" lon="10.8533493"><ele>884.0</ele><time>2026-04-04T10:29:46.105Z</time></trkpt><trkpt lat="44.023869" lon="10.8532337"><ele>884.2</ele><time>2026-04-04T10:29:48.105Z</time></trkpt><trkpt lat="44.0238886" lon="10.8531262"><ele>884.4000000000001</ele><time>2026-04-04T10:29:50.105Z</time></trkpt><trkpt lat="44.0239105" lon="10.8530208"><ele>884.6</ele><time>2026-04-04T10:29:52.104Z</time></trkpt><trkpt lat="44.0239092" lon="10.8528779"><ele>884.8</ele><time>2026-04-04T10:29:54.104Z</time></trkpt><trkpt lat="44.0239204" lon="10.8527383"><ele>885.0</ele><time>2026-04-04T10:29:56.104Z</time></trkpt><trkpt lat="44.0239051" lon="10.8526091"><ele>885.3333333333334</ele><time>2026-04-04T10:29:59.105Z</time></trkpt><trkpt lat="44.0239242" lon="10.8524871"><ele>885.6666666666667</ele><time>2026-04-04T10:30:01.105Z</time></trkpt><trkpt lat="44.023973" lon="10.8523586"><ele>886.0</ele><time>2026-04-04T10:30:03.105Z</time></trkpt><trkpt lat="44.0240272" lon="10.8522378"><ele>886.3333333333334</ele><time>2026-04-04T10:30:05.104Z</time></trkpt><trkpt lat="44.0240507" lon="10.8521272"><ele>886.6666666666667</ele><time>2026-04-04T10:30:07.105Z</time></trkpt><trkpt lat="44.0240445" lon="10.8520355"><ele>887.0</ele><time>2026-04-04T10:30:09.105Z</time></trkpt><trkpt lat="44.0240732" lon="10.8519379"><ele>887.0000000000001</ele><time>2026-04-04T10:30:12.104Z</time></trkpt><trkpt lat="44.0240086" lon="10.8518923"><ele>887.0</ele><time>2026-04-04T10:30:35.105Z</time></trkpt><trkpt lat="44.0239914" lon="10.8518055"><ele>887.0</ele><time>2026-04-04T10:30:39.105Z</time></trkpt><trkpt lat="44.0239895" lon="10.8516889"><ele>887.0</ele><time>2026-04-04T10:30:43.105Z</time></trkpt><trkpt lat="44.0239925" lon="10.8515817"><ele>887.0000000000001</ele><time>2026-04-04T10:30:50.106Z</time></trkpt><trkpt lat="44.0240068" lon="10.8514535"><ele>887.0</ele><time>2026-04-04T10:30:53.105Z</time></trkpt><trkpt lat="44.024012" lon="10.8513521"><ele>885.4000000000001</ele><time>2026-04-04T10:30:55.104Z</time></trkpt><trkpt lat="44.0240089" lon="10.8512368"><ele>883.8000000000001</ele><time>2026-04-04T10:30:58.104Z</time></trkpt><trkpt lat="44.0239938" lon="10.8511373"><ele>882.2</ele><time>2026-04-04T10:31:00.105Z</time></trkpt><trkpt lat="44.0239507" lon="10.8510122"><ele>880.6</ele><time>2026-04-04T10:31:01.104Z</time></trkpt><trkpt lat="44.0239192" lon="10.8508641"><ele>879.0</ele><time>2026-04-04T10:31:03.106Z</time></trkpt><trkpt lat="44.0239079" lon="10.8507114"><ele>879.0</ele><time>2026-04-04T10:31:05.105Z</time></trkpt><trkpt lat="44.0238756" lon="10.8505409"><ele>879.0000000000001</ele><time>2026-04-04T10:31:07.105Z</time></trkpt><trkpt lat="44.0238575" lon="10.8504486"><ele>879.0000000000001</ele><time>2026-04-04T10:31:08.104Z</time></trkpt><trkpt lat="44.0238067" lon="10.8503127"><ele>879.0</ele><time>2026-04-04T10:31:10.104Z</time></trkpt><trkpt lat="44.0237469" lon="10.8501548"><ele>879.0</ele><time>2026-04-04T10:31:12.106Z</time></trkpt><trkpt lat="44.0237036" lon="10.850071"><ele>879.0</ele><time>2026-04-04T10:31:14.105Z</time></trkpt><trkpt lat="44.0236532" lon="10.8499917"><ele>879.0000000000001</ele><time>2026-04-04T10:31:16.104Z</time></trkpt><trkpt lat="44.0236292" lon="10.8498738"><ele>879.0000000000001</ele><time>2026-04-04T10:31:19.105Z</time></trkpt><trkpt lat="44.0236372" lon="10.8497503"><ele>879.0</ele><time>2026-04-04T10:31:21.105Z</time></trkpt><trkpt lat="44.0235985" lon="10.8496459"><ele>879.0</ele><time>2026-04-04T10:31:23.105Z</time></trkpt><trkpt lat="44.0235159" lon="10.8494926"><ele>879.0</ele><time>2026-04-04T10:31:25.105Z</time></trkpt><trkpt lat="44.023412" lon="10.8494347"><ele>879.0000000000001</ele><time>2026-04-04T10:31:27.105Z</time></trkpt><trkpt lat="44.0233188" lon="10.8493711"><ele>879.0000000000001</ele><time>2026-04-04T10:31:29.105Z</time></trkpt><trkpt lat="44.0232518" lon="10.8492582"><ele>879.0</ele><time>2026-04-04T10:31:31.105Z</time></trkpt><trkpt lat="44.0231956" lon="10.8491779"><ele>879.0</ele><time>2026-04-04T10:31:33.105Z</time></trkpt><trkpt lat="44.0231414" lon="10.8491043"><ele>875.2</ele><time>2026-04-04T10:31:35.105Z</time></trkpt><trkpt lat="44.0231741" lon="10.8489505"><ele>871.4000000000001</ele><time>2026-04-04T10:31:38.105Z</time></trkpt><trkpt lat="44.0231183" lon="10.848833"><ele>867.6</ele><time>2026-04-04T10:31:41.105Z</time></trkpt><trkpt lat="44.0230934" lon="10.8487015"><ele>863.8</ele><time>2026-04-04T10:31:43.105Z</time></trkpt><trkpt lat="44.0231236" lon="10.8485952"><ele>860.0</ele><time>2026-04-04T10:31:46.105Z</time></trkpt><trkpt lat="44.0231138" lon="10.8485048"><ele>862.7142857142857</ele><time>2026-04-04T10:32:21.105Z</time></trkpt><trkpt lat="44.0230762" lon="10.8484069"><ele>865.4285714285714</ele><time>2026-04-04T10:32:24.104Z</time></trkpt><trkpt lat="44.023047" lon="10.8483178"><ele>868.1428571428571</ele><time>2026-04-04T10:32:26.104Z</time></trkpt><trkpt lat="44.023022" lon="10.8482348"><ele>870.8571428571429</ele><time>2026-04-04T10:32:29.104Z</time></trkpt><trkpt lat="44.0230011" lon="10.8481412"><ele>873.5714285714287</ele><time>2026-04-04T10:32:32.104Z</time></trkpt><trkpt lat="44.0229278" lon="10.8481092"><ele>876.2857142857143</ele><time>2026-04-04T10:32:35.105Z</time></trkpt><trkpt lat="44.0228837" lon="10.8481967"><ele>879.0</ele><time>2026-04-04T10:32:37.104Z</time></trkpt><trkpt lat="44.0228377" lon="10.8482604"><ele>879.0</ele><time>2026-04-04T10:32:39.105Z</time></trkpt><trkpt lat="44.0227674" lon="10.8482828"><ele>879.0</ele><time>2026-04-04T10:32:52.104Z</time></trkpt><trkpt lat="44.0226906" lon="10.8482758"><ele>879.0</ele><time>2026-04-04T10:32:54.105Z</time></trkpt><trkpt lat="44.0226242" lon="10.8482283"><ele>879.0</ele><time>2026-04-04T10:32:57.105Z</time></trkpt><trkpt lat="44.0225802" lon="10.8481231"><ele>879.0</ele><time>2026-04-04T10:33:00.105Z</time></trkpt><trkpt lat="44.0225455" lon="10.8480127"><ele>879.0</ele><time>2026-04-04T10:33:03.105Z</time></trkpt><trkpt lat="44.0225336" lon="10.8479092"><ele>879.0</ele><time>2026-04-04T10:33:05.105Z</time></trkpt><trkpt lat="44.0225003" lon="10.8477942"><ele>879.0</ele><time>2026-04-04T10:33:08.078Z</time></trkpt><trkpt lat="44.0225125" lon="10.8476847"><ele>879.0</ele><time>2026-04-04T10:33:10.104Z</time></trkpt><trkpt lat="44.0225246" lon="10.8475634"><ele>879.0</ele><time>2026-04-04T10:33:12.105Z</time></trkpt><trkpt lat="44.0225189" lon="10.8474342"><ele>879.0</ele><time>2026-04-04T10:33:14.105Z</time></trkpt><trkpt lat="44.0224703" lon="10.8473589"><ele>879.0</ele><time>2026-04-04T10:33:15.104Z</time></trkpt><trkpt lat="44.022417" lon="10.8472636"><ele>886.3333333333334</ele><time>2026-04-04T10:33:16.105Z</time></trkpt><trkpt lat="44.0223717" lon="10.8471622"><ele>893.6666666666667</ele><time>2026-04-04T10:33:17.105Z</time></trkpt><trkpt lat="44.0223351" lon="10.8470383"><ele>901.0</ele><time>2026-04-04T10:33:18.104Z</time></trkpt><trkpt lat="44.0223073" lon="10.846944"><ele>908.3333333333334</ele><time>2026-04-04T10:33:19.105Z</time></trkpt><trkpt lat="44.022275" lon="10.8468571"><ele>915.6666666666667</ele><time>2026-04-04T10:33:20.105Z</time></trkpt><trkpt lat="44.0222312" lon="10.8467837"><ele>923.0</ele><time>2026-04-04T10:33:21.105Z</time></trkpt><trkpt lat="44.0221675" lon="10.846658"><ele>925.8333333333334</ele><time>2026-04-04T10:33:23.105Z</time></trkpt><trkpt lat="44.0221286" lon="10.846519"><ele>928.6666666666667</ele><time>2026-04-04T10:33:25.105Z</time></trkpt><trkpt lat="44.0221304" lon="10.8464217"><ele>931.5</ele><time>2026-04-04T10:33:26.105Z</time></trkpt><trkpt lat="44.0221107" lon="10.8463287"><ele>934.3333333333333</ele><time>2026-04-04T10:33:27.105Z</time></trkpt><trkpt lat="44.022122" lon="10.8462238"><ele>937.1666666666666</ele><time>2026-04-04T10:33:28.105Z</time></trkpt><trkpt lat="44.0221255" lon="10.8461178"><ele>940.0</ele><time>2026-04-04T10:33:29.105Z</time></trkpt><trkpt lat="44.0221011" lon="10.8460178"><ele>939.8</ele><time>2026-04-04T10:33:31.105Z</time></trkpt><trkpt lat="44.022053" lon="10.8459439"><ele>939.6</ele><time>2026-04-04T10:33:33.105Z</time></trkpt><trkpt lat="44.0220666" lon="10.8458306"><ele>939.4000000000001</ele><time>2026-04-04T10:33:35.105Z</time></trkpt><trkpt lat="44.0220839" lon="10.8457216"><ele>939.2</ele><time>2026-04-04T10:33:37.105Z</time></trkpt><trkpt lat="44.022032" lon="10.8456256"><ele>939.0</ele><time>2026-04-04T10:33:40.105Z</time></trkpt><trkpt lat="44.0219824" lon="10.8454517"><ele>939.0</ele><time>2026-04-04T10:33:42.106Z</time></trkpt><trkpt lat="44.0219621" lon="10.8453441"><ele>939.0</ele><time>2026-04-04T10:33:44.105Z</time></trkpt><trkpt lat="44.0219536" lon="10.8452392"><ele>939.0</ele><time>2026-04-04T10:33:46.105Z</time></trkpt><trkpt lat="44.0219353" lon="10.8450956"><ele>939.0</ele><time>2026-04-04T10:33:48.104Z</time></trkpt><trkpt lat="44.0219129" lon="10.8449972"><ele>939.0</ele><time>2026-04-04T10:33:50.104Z</time></trkpt><trkpt lat="44.0218385" lon="10.8449729"><ele>939.0</ele><time>2026-04-04T10:33:54.105Z</time></trkpt><trkpt lat="44.0217542" lon="10.8449596"><ele>939.0</ele><time>2026-04-04T10:33:59.104Z</time></trkpt><trkpt lat="44.021724" lon="10.8450501"><ele>939.0</ele><time>2026-04-04T10:34:02.105Z</time></trkpt><trkpt lat="44.0216903" lon="10.845167"><ele>939.0</ele><time>2026-04-04T10:34:05.105Z</time></trkpt><trkpt lat="44.0215993" lon="10.8451637"><ele>939.0</ele><time>2026-04-04T10:34:08.105Z</time></trkpt><trkpt lat="44.0215498" lon="10.8451015"><ele>939.0</ele><time>2026-04-04T10:34:10.106Z</time></trkpt><trkpt lat="44.0214592" lon="10.8450506"><ele>939.0</ele><time>2026-04-04T10:34:13.104Z</time></trkpt><trkpt lat="44.0213968" lon="10.844977"><ele>944.8000000000001</ele><time>2026-04-04T10:34:15.105Z</time></trkpt><trkpt lat="44.0213844" lon="10.844876"><ele>950.6000000000001</ele><time>2026-04-04T10:34:17.105Z</time></trkpt><trkpt lat="44.0212831" lon="10.8447721"><ele>956.4</ele><time>2026-04-04T10:34:20.104Z</time></trkpt><trkpt lat="44.021189" lon="10.8447063"><ele>962.2</ele><time>2026-04-04T10:34:22.105Z</time></trkpt><trkpt lat="44.0211192" lon="10.8446418"><ele>968.0</ele><time>2026-04-04T10:34:24.104Z</time></trkpt><trkpt lat="44.0210651" lon="10.84459"><ele>968.0</ele><time>2026-04-04T10:34:26.105Z</time></trkpt><trkpt lat="44.0209985" lon="10.8446826"><ele>968.0</ele><time>2026-04-04T10:34:30.105Z</time></trkpt><trkpt lat="44.0209423" lon="10.8447869"><ele>968.0</ele><time>2026-04-04T10:34:32.106Z</time></trkpt><trkpt lat="44.0208622" lon="10.8448892"><ele>968.0</ele><time>2026-04-04T10:34:34.105Z</time></trkpt><trkpt lat="44.0207752" lon="10.844969"><ele>968.0</ele><time>2026-04-04T10:34:36.105Z</time></trkpt><trkpt lat="44.0207223" lon="10.8450196"><ele>968.3333333333334</ele><time>2026-04-04T10:34:37.104Z</time></trkpt><trkpt lat="44.0206571" lon="10.8450765"><ele>968.6666666666667</ele><time>2026-04-04T10:34:38.104Z</time></trkpt><trkpt lat="44.0205913" lon="10.8451692"><ele>969.0</ele><time>2026-04-04T10:34:40.105Z</time></trkpt><trkpt lat="44.0205139" lon="10.845156"><ele>969.3333333333333</ele><time>2026-04-04T10:34:43.105Z</time></trkpt><trkpt lat="44.0204297" lon="10.8451541"><ele>969.6666666666666</ele><time>2026-04-04T10:34:45.104Z</time></trkpt><trkpt lat="44.0203517" lon="10.845166"><ele>970.0</ele><time>2026-04-04T10:34:47.105Z</time></trkpt><trkpt lat="44.0202533" lon="10.8451798"><ele>970.0</ele><time>2026-04-04T10:34:49.105Z</time></trkpt><trkpt lat="44.0201888" lon="10.8452831"><ele>970.0</ele><time>2026-04-04T10:35:59.105Z</time></trkpt><trkpt lat="44.0201075" lon="10.8453215"><ele>970.0</ele><time>2026-04-04T10:36:02.105Z</time></trkpt><trkpt lat="44.0200312" lon="10.8453443"><ele>970.0</ele><time>2026-04-04T10:36:04.105Z</time></trkpt><trkpt lat="44.0199077" lon="10.8453945"><ele>970.0</ele><time>2026-04-04T10:36:06.105Z</time></trkpt><trkpt lat="44.0198241" lon="10.8453691"><ele>968.1666666666666</ele><time>2026-04-04T10:36:08.105Z</time></trkpt><trkpt lat="44.0197452" lon="10.845381"><ele>966.3333333333333</ele><time>2026-04-04T10:36:10.105Z</time></trkpt><trkpt lat="44.0196175" lon="10.8454454"><ele>964.5</ele><time>2026-04-04T10:36:12.105Z</time></trkpt><trkpt lat="44.0195542" lon="10.8454527"><ele>962.6666666666667</ele><time>2026-04-04T10:36:13.105Z</time></trkpt><trkpt lat="44.0194661" lon="10.8454833"><ele>960.8333333333334</ele><time>2026-04-04T10:36:15.105Z</time></trkpt><trkpt lat="44.0193959" lon="10.8455107"><ele>959.0</ele><time>2026-04-04T10:36:17.105Z</time></trkpt><trkpt lat="44.0193254" lon="10.8455277"><ele>959.0000000000001</ele><time>2026-04-04T10:36:19.105Z</time></trkpt><trkpt lat="44.0192627" lon="10.8455664"><ele>959.0</ele><time>2026-04-04T10:36:21.105Z</time></trkpt><trkpt lat="44.0191895" lon="10.8456583"><ele>959.0</ele><time>2026-04-04T10:36:23.104Z</time></trkpt><trkpt lat="44.0191793" lon="10.845747"><ele>959.0</ele><time>2026-04-04T10:36:25.104Z</time></trkpt><trkpt lat="44.0191664" lon="10.8458455"><ele>959.0000000000001</ele><time>2026-04-04T10:36:28.105Z</time></trkpt><trkpt lat="44.0191099" lon="10.8458943"><ele>959.0</ele><time>2026-04-04T10:36:30.105Z</time></trkpt><trkpt lat="44.0190283" lon="10.8458406"><ele>962.4000000000001</ele><time>2026-04-04T10:36:32.105Z</time></trkpt><trkpt lat="44.0189577" lon="10.8457955"><ele>965.8000000000001</ele><time>2026-04-04T10:36:33.105Z</time></trkpt><trkpt lat="44.018831" lon="10.8457091"><ele>969.1999999999999</ele><time>2026-04-04T10:36:35.104Z</time></trkpt><trkpt lat="44.01877" lon="10.8456505"><ele>972.5999999999999</ele><time>2026-04-04T10:36:38.104Z</time></trkpt><trkpt lat="44.0186611" lon="10.8456788"><ele>976.0</ele><time>2026-04-04T10:36:41.105Z</time></trkpt><trkpt lat="44.0186271" lon="10.8457654"><ele>976.0</ele><time>2026-04-04T10:36:43.106Z</time></trkpt><trkpt lat="44.0185923" lon="10.845881"><ele>975.9999999999999</ele><time>2026-04-04T10:36:45.105Z</time></trkpt><trkpt lat="44.0184982" lon="10.84597"><ele>975.9999999999999</ele><time>2026-04-04T10:36:47.104Z</time></trkpt><trkpt lat="44.0183824" lon="10.8460213"><ele>976.0</ele><time>2026-04-04T10:36:49.105Z</time></trkpt><trkpt lat="44.0182874" lon="10.8460459"><ele>976.0</ele><time>2026-04-04T10:36:51.105Z</time></trkpt><trkpt lat="44.0181786" lon="10.8461108"><ele>975.9999999999999</ele><time>2026-04-04T10:36:53.105Z</time></trkpt><trkpt lat="44.0181577" lon="10.8462043"><ele>976.0</ele><time>2026-04-04T10:36:54.104Z</time></trkpt><trkpt lat="44.0181186" lon="10.8462979"><ele>976.0</ele><time>2026-04-04T10:36:55.106Z</time></trkpt><trkpt lat="44.018072" lon="10.846433"><ele>976.0</ele><time>2026-04-04T10:36:57.105Z</time></trkpt><trkpt lat="44.0180316" lon="10.8465072"><ele>975.9999999999999</ele><time>2026-04-04T10:36:58.105Z</time></trkpt><trkpt lat="44.017969" lon="10.8465478"><ele>976.0</ele><time>2026-04-04T10:36:59.105Z</time></trkpt><trkpt lat="44.0179162" lon="10.8466088"><ele>975.9999999999999</ele><time>2026-04-04T10:37:00.105Z</time></trkpt><trkpt lat="44.0178753" lon="10.8467026"><ele>976.0</ele><time>2026-04-04T10:37:01.105Z</time></trkpt><trkpt lat="44.017835" lon="10.8467939"><ele>976.0</ele><time>2026-04-04T10:37:02.105Z</time></trkpt><trkpt lat="44.0178006" lon="10.8469046"><ele>976.0</ele><time>2026-04-04T10:37:03.105Z</time></trkpt><trkpt lat="44.0177366" lon="10.8469797"><ele>975.9999999999999</ele><time>2026-04-04T10:37:04.105Z</time></trkpt><trkpt lat="44.0176748" lon="10.8470228"><ele>976.0</ele><time>2026-04-04T10:37:05.104Z</time></trkpt><trkpt lat="44.0175548" lon="10.8470641"><ele>973.4999999999999</ele><time>2026-04-04T10:37:07.105Z</time></trkpt><trkpt lat="44.0174817" lon="10.8470354"><ele>971.0</ele><time>2026-04-04T10:37:09.105Z</time></trkpt><trkpt lat="44.0174289" lon="10.8469746"><ele>968.5</ele><time>2026-04-04T10:37:12.105Z</time></trkpt><trkpt lat="44.0173671" lon="10.8468707"><ele>966.0</ele><time>2026-04-04T10:37:19.104Z</time></trkpt><trkpt lat="44.0173076" lon="10.8467651"><ele>963.4999999999999</ele><time>2026-04-04T10:37:22.105Z</time></trkpt><trkpt lat="44.0172551" lon="10.8467044"><ele>961.0</ele><time>2026-04-04T10:37:23.106Z</time></trkpt><trkpt lat="44.0172074" lon="10.8466376"><ele>960.9999999999999</ele><time>2026-04-04T10:37:24.105Z</time></trkpt><trkpt lat="44.0171614" lon="10.8465439"><ele>961.0</ele><time>2026-04-04T10:37:25.104Z</time></trkpt><trkpt lat="44.0171025" lon="10.8464786"><ele>961.0</ele><time>2026-04-04T10:37:26.104Z</time></trkpt><trkpt lat="44.0170316" lon="10.8464729"><ele>961.0</ele><time>2026-04-04T10:37:27.105Z</time></trkpt><trkpt lat="44.0169618" lon="10.8464606"><ele>960.9999999999999</ele><time>2026-04-04T10:37:28.104Z</time></trkpt><trkpt lat="44.0168884" lon="10.8464089"><ele>961.0</ele><time>2026-04-04T10:37:29.105Z</time></trkpt><trkpt lat="44.0168322" lon="10.8463487"><ele>960.9999999999999</ele><time>2026-04-04T10:37:30.104Z</time></trkpt><trkpt lat="44.0167596" lon="10.8462936"><ele>961.0</ele><time>2026-04-04T10:37:31.105Z</time></trkpt><trkpt lat="44.0166805" lon="10.846207"><ele>961.0</ele><time>2026-04-04T10:37:32.104Z</time></trkpt><trkpt lat="44.0166261" lon="10.8461331"><ele>961.0</ele><time>2026-04-04T10:37:33.105Z</time></trkpt><trkpt lat="44.01658" lon="10.8460349"><ele>960.9999999999999</ele><time>2026-04-04T10:37:34.105Z</time></trkpt><trkpt lat="44.0165669" lon="10.8459285"><ele>961.0</ele><time>2026-04-04T10:37:35.105Z</time></trkpt><trkpt lat="44.0165541" lon="10.8458319"><ele>963.9999999999999</ele><time>2026-04-04T10:37:36.105Z</time></trkpt><trkpt lat="44.0165547" lon="10.8456471"><ele>967.0</ele><time>2026-04-04T10:37:38.105Z</time></trkpt><trkpt lat="44.0165726" lon="10.8455246"><ele>970.0</ele><time>2026-04-04T10:37:39.105Z</time></trkpt><trkpt lat="44.0165987" lon="10.8454174"><ele>973.0</ele><time>2026-04-04T10:37:40.104Z</time></trkpt><trkpt lat="44.0166209" lon="10.8453177"><ele>975.9999999999999</ele><time>2026-04-04T10:37:41.106Z</time></trkpt><trkpt lat="44.0166459" lon="10.8452297"><ele>979.0</ele><time>2026-04-04T10:37:42.105Z</time></trkpt><trkpt lat="44.0167419" lon="10.845184"><ele>979.1666666666666</ele><time>2026-04-04T10:37:43.104Z</time></trkpt><trkpt lat="44.0167979" lon="10.845097"><ele>979.3333333333333</ele><time>2026-04-04T10:37:44.105Z</time></trkpt><trkpt lat="44.0168353" lon="10.844997"><ele>979.5</ele><time>2026-04-04T10:37:45.105Z</time></trkpt><trkpt lat="44.0168701" lon="10.8448975"><ele>979.6666666666667</ele><time>2026-04-04T10:37:46.104Z</time></trkpt><trkpt lat="44.0169026" lon="10.844812"><ele>979.8333333333334</ele><time>2026-04-04T10:37:47.104Z</time></trkpt><trkpt lat="44.0169202" lon="10.8447039"><ele>980.0</ele><time>2026-04-04T10:37:49.105Z</time></trkpt><trkpt lat="44.0168181" lon="10.844633"><ele>980.0</ele><time>2026-04-04T10:37:52.105Z</time></trkpt><trkpt lat="44.016693" lon="10.8445981"><ele>980.0</ele><time>2026-04-04T10:37:54.105Z</time></trkpt><trkpt lat="44.0165819" lon="10.8445228"><ele>980.0</ele><time>2026-04-04T10:37:56.105Z</time></trkpt><trkpt lat="44.0165247" lon="10.8444569"><ele>980.0</ele><time>2026-04-04T10:37:57.104Z</time></trkpt><trkpt lat="44.0164795" lon="10.8443831"><ele>980.0</ele><time>2026-04-04T10:37:58.105Z</time></trkpt><trkpt lat="44.0164527" lon="10.8442351"><ele>977.5000000000001</ele><time>2026-04-04T10:38:00.104Z</time></trkpt><trkpt lat="44.0164273" lon="10.8441321"><ele>975.0</ele><time>2026-04-04T10:38:01.105Z</time></trkpt><trkpt lat="44.0164122" lon="10.8440355"><ele>972.5</ele><time>2026-04-04T10:38:02.104Z</time></trkpt><trkpt lat="44.0163619" lon="10.8439515"><ele>970.0</ele><time>2026-04-04T10:38:03.105Z</time></trkpt><trkpt lat="44.0163045" lon="10.8438797"><ele>967.5000000000001</ele><time>2026-04-04T10:38:04.104Z</time></trkpt><trkpt lat="44.0162338" lon="10.8437632"><ele>965.0</ele><time>2026-04-04T10:38:06.105Z</time></trkpt><trkpt lat="44.016183" lon="10.8436626"><ele>965.0000000000001</ele><time>2026-04-04T10:38:07.105Z</time></trkpt><trkpt lat="44.0161132" lon="10.8435853"><ele>965.0</ele><time>2026-04-04T10:38:09.105Z</time></trkpt><trkpt lat="44.0160261" lon="10.8435418"><ele>965.0</ele><time>2026-04-04T10:38:11.105Z</time></trkpt><trkpt lat="44.0159778" lon="10.8436006"><ele>965.0</ele><time>2026-04-04T10:38:12.105Z</time></trkpt><trkpt lat="44.0158897" lon="10.8436463"><ele>965.0000000000001</ele><time>2026-04-04T10:38:13.105Z</time></trkpt><trkpt lat="44.0157971" lon="10.8436536"><ele>965.0</ele><time>2026-04-04T10:38:14.105Z</time></trkpt><trkpt lat="44.0156782" lon="10.8436634"><ele>963.4</ele><time>2026-04-04T10:38:15.104Z</time></trkpt><trkpt lat="44.0155505" lon="10.8436646"><ele>961.8</ele><time>2026-04-04T10:38:16.105Z</time></trkpt><trkpt lat="44.015447" lon="10.8436458"><ele>960.2</ele><time>2026-04-04T10:38:17.105Z</time></trkpt><trkpt lat="44.0153579" lon="10.8436318"><ele>958.6</ele><time>2026-04-04T10:38:18.105Z</time></trkpt><trkpt lat="44.0152844" lon="10.8436141"><ele>957.0</ele><time>2026-04-04T10:38:19.105Z</time></trkpt><trkpt lat="44.0151859" lon="10.8435716"><ele>957.0</ele><time>2026-04-04T10:38:21.105Z</time></trkpt><trkpt lat="44.0151233" lon="10.8435128"><ele>957.0</ele><time>2026-04-04T10:38:23.105Z</time></trkpt><trkpt lat="44.0150794" lon="10.8434418"><ele>957.0</ele><time>2026-04-04T10:38:25.104Z</time></trkpt><trkpt lat="44.0150578" lon="10.8433532"><ele>957.0</ele><time>2026-04-04T10:38:30.105Z</time></trkpt><trkpt lat="44.015085" lon="10.8432413"><ele>957.0</ele><time>2026-04-04T10:38:32.105Z</time></trkpt><trkpt lat="44.015109" lon="10.8430977"><ele>957.0</ele><time>2026-04-04T10:38:34.105Z</time></trkpt><trkpt lat="44.0151138" lon="10.8429451"><ele>956.8</ele><time>2026-04-04T10:38:36.105Z</time></trkpt><trkpt lat="44.0150938" lon="10.842811"><ele>956.6</ele><time>2026-04-04T10:38:38.104Z</time></trkpt><trkpt lat="44.0150728" lon="10.8426473"><ele>956.3999999999999</ele><time>2026-04-04T10:38:40.105Z</time></trkpt><trkpt lat="44.015076" lon="10.8424747"><ele>956.1999999999999</ele><time>2026-04-04T10:38:42.105Z</time></trkpt><trkpt lat="44.015119" lon="10.8423865"><ele>956.0</ele><time>2026-04-04T10:38:43.106Z</time></trkpt><trkpt lat="44.0151665" lon="10.8422754"><ele>956.0000000000001</ele><time>2026-04-04T10:38:44.105Z</time></trkpt><trkpt lat="44.0151867" lon="10.8421723"><ele>956.0</ele><time>2026-04-04T10:38:45.105Z</time></trkpt><trkpt lat="44.0152264" lon="10.8420722"><ele>956.0</ele><time>2026-04-04T10:38:46.105Z</time></trkpt><trkpt lat="44.0152434" lon="10.841968"><ele>956.0</ele><time>2026-04-04T10:38:47.104Z</time></trkpt><trkpt lat="44.0152618" lon="10.8418646"><ele>956.0000000000001</ele><time>2026-04-04T10:38:48.104Z</time></trkpt><trkpt lat="44.0152952" lon="10.8417893"><ele>956.0</ele><time>2026-04-04T10:38:49.105Z</time></trkpt><trkpt lat="44.0153527" lon="10.8417142"><ele>953.0000000000001</ele><time>2026-04-04T10:38:50.105Z</time></trkpt><trkpt lat="44.015408" lon="10.8416412"><ele>950.0</ele><time>2026-04-04T10:38:51.105Z</time></trkpt><trkpt lat="44.0154682" lon="10.8415519"><ele>947.0</ele><time>2026-04-04T10:38:52.105Z</time></trkpt><trkpt lat="44.0155183" lon="10.8414827"><ele>944.0</ele><time>2026-04-04T10:38:53.105Z</time></trkpt><trkpt lat="44.0155121" lon="10.8413788"><ele>941.0000000000001</ele><time>2026-04-04T10:38:55.104Z</time></trkpt><trkpt lat="44.0154443" lon="10.8413216"><ele>938.0</ele><time>2026-04-04T10:38:57.105Z</time></trkpt><trkpt lat="44.015336" lon="10.8413904"><ele>938.0000000000001</ele><time>2026-04-04T10:38:58.105Z</time></trkpt><trkpt lat="44.0152414" lon="10.8414152"><ele>938.0</ele><time>2026-04-04T10:38:59.104Z</time></trkpt><trkpt lat="44.0151614" lon="10.8414365"><ele>938.0</ele><time>2026-04-04T10:39:00.103Z</time></trkpt><trkpt lat="44.0150687" lon="10.8414628"><ele>938.0</ele><time>2026-04-04T10:39:01.104Z</time></trkpt><trkpt lat="44.0149887" lon="10.8414931"><ele>938.0000000000001</ele><time>2026-04-04T10:39:02.104Z</time></trkpt><trkpt lat="44.0149136" lon="10.8415125"><ele>938.0</ele><time>2026-04-04T10:39:03.104Z</time></trkpt><trkpt lat="44.0148313" lon="10.841477"><ele>934.8</ele><time>2026-04-04T10:39:04.103Z</time></trkpt><trkpt lat="44.0147467" lon="10.8414425"><ele>931.5999999999999</ele><time>2026-04-04T10:39:05.103Z</time></trkpt><trkpt lat="44.014654" lon="10.8414202"><ele>928.4000000000001</ele><time>2026-04-04T10:39:06.103Z</time></trkpt><trkpt lat="44.0145849" lon="10.8414068"><ele>925.2</ele><time>2026-04-04T10:39:07.103Z</time></trkpt><trkpt lat="44.0144899" lon="10.8412632"><ele>922.0</ele><time>2026-04-04T10:39:09.104Z</time></trkpt><trkpt lat="44.0144289" lon="10.841189"><ele>921.9999999999999</ele><time>2026-04-04T10:39:10.104Z</time></trkpt><trkpt lat="44.0143588" lon="10.841138"><ele>922.0</ele><time>2026-04-04T10:39:11.104Z</time></trkpt><trkpt lat="44.0142947" lon="10.8411055"><ele>922.0</ele><time>2026-04-04T10:39:12.104Z</time></trkpt><trkpt lat="44.0141883" lon="10.8410813"><ele>922.0</ele><time>2026-04-04T10:39:13.104Z</time></trkpt><trkpt lat="44.0141075" lon="10.8410539"><ele>921.9999999999999</ele><time>2026-04-04T10:39:14.103Z</time></trkpt><trkpt lat="44.014014" lon="10.8410458"><ele>922.0</ele><time>2026-04-04T10:39:15.104Z</time></trkpt><trkpt lat="44.0139206" lon="10.8410744"><ele>917.6</ele><time>2026-04-04T10:39:16.104Z</time></trkpt><trkpt lat="44.0138262" lon="10.8411005"><ele>913.2</ele><time>2026-04-04T10:39:17.103Z</time></trkpt><trkpt lat="44.0137294" lon="10.8410687"><ele>908.8</ele><time>2026-04-04T10:39:19.104Z</time></trkpt><trkpt lat="44.0136256" lon="10.841154"><ele>904.4</ele><time>2026-04-04T10:39:21.103Z</time></trkpt><trkpt lat="44.0135597" lon="10.8413083"><ele>900.0</ele><time>2026-04-04T10:39:23.104Z</time></trkpt><trkpt lat="44.0135212" lon="10.8414105"><ele>900.0</ele><time>2026-04-04T10:39:24.104Z</time></trkpt><trkpt lat="44.0134631" lon="10.8415008"><ele>900.0</ele><time>2026-04-04T10:39:25.104Z</time></trkpt><trkpt lat="44.0134163" lon="10.8415947"><ele>900.0</ele><time>2026-04-04T10:39:26.104Z</time></trkpt><trkpt lat="44.0133743" lon="10.8416881"><ele>900.0</ele><time>2026-04-04T10:39:27.103Z</time></trkpt><trkpt lat="44.0133406" lon="10.8417976"><ele>900.0</ele><time>2026-04-04T10:39:28.104Z</time></trkpt><trkpt lat="44.0133231" lon="10.8419061"><ele>900.0</ele><time>2026-04-04T10:39:29.105Z</time></trkpt><trkpt lat="44.0132878" lon="10.8419997"><ele>901.0</ele><time>2026-04-04T10:39:30.103Z</time></trkpt><trkpt lat="44.0132388" lon="10.8420804"><ele>902.0</ele><time>2026-04-04T10:39:31.103Z</time></trkpt><trkpt lat="44.0131641" lon="10.842131"><ele>903.0</ele><time>2026-04-04T10:39:32.105Z</time></trkpt><trkpt lat="44.0130882" lon="10.8421772"><ele>904.0</ele><time>2026-04-04T10:39:33.105Z</time></trkpt><trkpt lat="44.0129951" lon="10.8422004"><ele>905.0</ele><time>2026-04-04T10:39:34.104Z</time></trkpt><trkpt lat="44.0128916" lon="10.842248"><ele>906.0</ele><time>2026-04-04T10:39:35.103Z</time></trkpt><trkpt lat="44.0127963" lon="10.8423069"><ele>906.0</ele><time>2026-04-04T10:39:36.103Z</time></trkpt><trkpt lat="44.0127171" lon="10.8423711"><ele>906.0</ele><time>2026-04-04T10:39:37.104Z</time></trkpt><trkpt lat="44.0126368" lon="10.842421"><ele>906.0</ele><time>2026-04-04T10:39:38.103Z</time></trkpt><trkpt lat="44.0125538" lon="10.842437"><ele>906.0</ele><time>2026-04-04T10:39:39.104Z</time></trkpt><trkpt lat="44.0124784" lon="10.8424069"><ele>906.0</ele><time>2026-04-04T10:39:40.105Z</time></trkpt><trkpt lat="44.012421" lon="10.8423314"><ele>906.0</ele><time>2026-04-04T10:39:41.104Z</time></trkpt><trkpt lat="44.0123593" lon="10.842228"><ele>906.5999999999999</ele><time>2026-04-04T10:39:42.104Z</time></trkpt><trkpt lat="44.0122999" lon="10.8421257"><ele>907.1999999999999</ele><time>2026-04-04T10:39:43.104Z</time></trkpt><trkpt lat="44.0122473" lon="10.8420241"><ele>907.8000000000001</ele><time>2026-04-04T10:39:44.104Z</time></trkpt><trkpt lat="44.0121846" lon="10.8419458"><ele>908.4000000000001</ele><time>2026-04-04T10:39:45.104Z</time></trkpt><trkpt lat="44.0120981" lon="10.8418898"><ele>909.0</ele><time>2026-04-04T10:39:46.104Z</time></trkpt><trkpt lat="44.0119984" lon="10.8418896"><ele>909.0</ele><time>2026-04-04T10:39:47.103Z</time></trkpt><trkpt lat="44.0118777" lon="10.8418123"><ele>909.0</ele><time>2026-04-04T10:39:48.104Z</time></trkpt><trkpt lat="44.0117928" lon="10.8417301"><ele>909.0</ele><time>2026-04-04T10:39:49.103Z</time></trkpt><trkpt lat="44.0116978" lon="10.8416603"><ele>909.0</ele><time>2026-04-04T10:39:50.105Z</time></trkpt><trkpt lat="44.0115929" lon="10.8416243"><ele>900.25</ele><time>2026-04-04T10:39:51.104Z</time></trkpt><trkpt lat="44.011485" lon="10.841587"><ele>891.5</ele><time>2026-04-04T10:39:52.103Z</time></trkpt><trkpt lat="44.0113826" lon="10.8415529"><ele>882.75</ele><time>2026-04-04T10:39:53.104Z</time></trkpt><trkpt lat="44.0112531" lon="10.8415555"><ele>874.0</ele><time>2026-04-04T10:39:54.104Z</time></trkpt><trkpt lat="44.0111312" lon="10.8415855"><ele>874.0</ele><time>2026-04-04T10:39:55.103Z</time></trkpt><trkpt lat="44.0110077" lon="10.8416028"><ele>874.0</ele><time>2026-04-04T10:39:56.103Z</time></trkpt><trkpt lat="44.0108912" lon="10.8416428"><ele>874.0</ele><time>2026-04-04T10:39:57.104Z</time></trkpt><trkpt lat="44.0107743" lon="10.8417402"><ele>874.0</ele><time>2026-04-04T10:39:58.104Z</time></trkpt><trkpt lat="44.0106676" lon="10.84185"><ele>870.75</ele><time>2026-04-04T10:39:59.105Z</time></trkpt><trkpt lat="44.0105598" lon="10.8419424"><ele>867.5</ele><time>2026-04-04T10:40:00.103Z</time></trkpt><trkpt lat="44.0104665" lon="10.842036"><ele>864.25</ele><time>2026-04-04T10:40:01.104Z</time></trkpt><trkpt lat="44.0103819" lon="10.8421255"><ele>861.0</ele><time>2026-04-04T10:40:02.104Z</time></trkpt><trkpt lat="44.0103021" lon="10.8422139"><ele>861.0</ele><time>2026-04-04T10:40:03.104Z</time></trkpt><trkpt lat="44.0102559" lon="10.8423431"><ele>860.9999999999999</ele><time>2026-04-04T10:40:04.104Z</time></trkpt><trkpt lat="44.0102263" lon="10.8424579"><ele>860.9999999999999</ele><time>2026-04-04T10:40:05.103Z</time></trkpt><trkpt lat="44.0102291" lon="10.842599"><ele>861.0</ele><time>2026-04-04T10:40:06.104Z</time></trkpt><trkpt lat="44.0102313" lon="10.8427444"><ele>861.0</ele><time>2026-04-04T10:40:07.103Z</time></trkpt><trkpt lat="44.0102725" lon="10.8428796"><ele>861.0</ele><time>2026-04-04T10:40:08.103Z</time></trkpt><trkpt lat="44.010297" lon="10.8430094"><ele>860.9999999999999</ele><time>2026-04-04T10:40:09.104Z</time></trkpt><trkpt lat="44.0102986" lon="10.8431427"><ele>860.9999999999999</ele><time>2026-04-04T10:40:10.104Z</time></trkpt><trkpt lat="44.010284" lon="10.8432722"><ele>861.0</ele><time>2026-04-04T10:40:11.104Z</time></trkpt><trkpt lat="44.0102632" lon="10.8434056"><ele>861.0</ele><time>2026-04-04T10:40:12.104Z</time></trkpt><trkpt lat="44.0102399" lon="10.8435331"><ele>859.8</ele><time>2026-04-04T10:40:13.103Z</time></trkpt><trkpt lat="44.0102305" lon="10.8436547"><ele>858.5999999999999</ele><time>2026-04-04T10:40:14.104Z</time></trkpt><trkpt lat="44.0102469" lon="10.8437734"><ele>857.4</ele><time>2026-04-04T10:40:15.104Z</time></trkpt><trkpt lat="44.010279" lon="10.8439017"><ele>856.2</ele><time>2026-04-04T10:40:16.104Z</time></trkpt><trkpt lat="44.0103202" lon="10.8440322"><ele>855.0</ele><time>2026-04-04T10:40:17.104Z</time></trkpt><trkpt lat="44.0103613" lon="10.8441442"><ele>855.0</ele><time>2026-04-04T10:40:18.103Z</time></trkpt><trkpt lat="44.0103917" lon="10.8442346"><ele>855.0</ele><time>2026-04-04T10:40:19.104Z</time></trkpt><trkpt lat="44.0103812" lon="10.8443666"><ele>855.0</ele><time>2026-04-04T10:40:21.104Z</time></trkpt><trkpt lat="44.0102987" lon="10.8443171"><ele>855.0</ele><time>2026-04-04T10:40:23.104Z</time></trkpt><trkpt lat="44.0102563" lon="10.8442508"><ele>855.0</ele><time>2026-04-04T10:40:24.103Z</time></trkpt><trkpt lat="44.010202" lon="10.8441479"><ele>855.0</ele><time>2026-04-04T10:40:25.103Z</time></trkpt><trkpt lat="44.0101381" lon="10.8440395"><ele>855.0</ele><time>2026-04-04T10:40:26.103Z</time></trkpt><trkpt lat="44.0100672" lon="10.8439513"><ele>855.0</ele><time>2026-04-04T10:40:27.103Z</time></trkpt><trkpt lat="44.0099995" lon="10.843871"><ele>855.0</ele><time>2026-04-04T10:40:28.105Z</time></trkpt><trkpt lat="44.0099361" lon="10.8437887"><ele>855.0</ele><time>2026-04-04T10:40:29.104Z</time></trkpt><trkpt lat="44.0098827" lon="10.8436988"><ele>855.0</ele><time>2026-04-04T10:40:30.104Z</time></trkpt><trkpt lat="44.0098384" lon="10.8436057"><ele>855.0</ele><time>2026-04-04T10:40:31.103Z</time></trkpt><trkpt lat="44.0097933" lon="10.8434906"><ele>851.2</ele><time>2026-04-04T10:40:32.104Z</time></trkpt><trkpt lat="44.0097639" lon="10.8433645"><ele>847.4</ele><time>2026-04-04T10:40:33.103Z</time></trkpt><trkpt lat="44.0097302" lon="10.8432168"><ele>843.5999999999999</ele><time>2026-04-04T10:40:34.104Z</time></trkpt><trkpt lat="44.0097084" lon="10.8430788"><ele>839.8</ele><time>2026-04-04T10:40:35.105Z</time></trkpt><trkpt lat="44.0096886" lon="10.8429419"><ele>836.0</ele><time>2026-04-04T10:40:36.104Z</time></trkpt><trkpt lat="44.0096583" lon="10.842813"><ele>836.0</ele><time>2026-04-04T10:40:37.105Z</time></trkpt><trkpt lat="44.0096063" lon="10.8426892"><ele>836.0</ele><time>2026-04-04T10:40:38.103Z</time></trkpt><trkpt lat="44.009533" lon="10.8425756"><ele>836.0</ele><time>2026-04-04T10:40:39.103Z</time></trkpt><trkpt lat="44.0094432" lon="10.8424838"><ele>836.0</ele><time>2026-04-04T10:40:40.103Z</time></trkpt><trkpt lat="44.009336" lon="10.8424306"><ele>836.0</ele><time>2026-04-04T10:40:41.104Z</time></trkpt><trkpt lat="44.0092202" lon="10.8424009"><ele>833.0</ele><time>2026-04-04T10:40:42.104Z</time></trkpt><trkpt lat="44.0091025" lon="10.842376"><ele>830.0</ele><time>2026-04-04T10:40:43.104Z</time></trkpt><trkpt lat="44.0089953" lon="10.8423351"><ele>827.0</ele><time>2026-04-04T10:40:44.104Z</time></trkpt><trkpt lat="44.0088943" lon="10.842287"><ele>824.0</ele><time>2026-04-04T10:40:45.104Z</time></trkpt><trkpt lat="44.0087986" lon="10.8422317"><ele>821.0</ele><time>2026-04-04T10:40:46.103Z</time></trkpt><trkpt lat="44.0087213" lon="10.8421615"><ele>821.0</ele><time>2026-04-04T10:40:47.104Z</time></trkpt><trkpt lat="44.0086676" lon="10.8420734"><ele>821.0</ele><time>2026-04-04T10:40:48.104Z</time></trkpt><trkpt lat="44.0086428" lon="10.8419653"><ele>821.0</ele><time>2026-04-04T10:40:49.103Z</time></trkpt><trkpt lat="44.0086427" lon="10.8418352"><ele>821.0</ele><time>2026-04-04T10:40:50.104Z</time></trkpt><trkpt lat="44.0086471" lon="10.8416996"><ele>821.0</ele><time>2026-04-04T10:40:51.103Z</time></trkpt><trkpt lat="44.0086504" lon="10.8415686"><ele>822.0</ele><time>2026-04-04T10:40:52.104Z</time></trkpt><trkpt lat="44.0086211" lon="10.841455"><ele>823.0</ele><time>2026-04-04T10:40:53.103Z</time></trkpt><trkpt lat="44.0085233" lon="10.8414018"><ele>824.0</ele><time>2026-04-04T10:40:54.103Z</time></trkpt><trkpt lat="44.0084308" lon="10.8413635"><ele>825.0</ele><time>2026-04-04T10:40:55.104Z</time></trkpt><trkpt lat="44.0083427" lon="10.8413151"><ele>826.0</ele><time>2026-04-04T10:40:56.104Z</time></trkpt><trkpt lat="44.0082599" lon="10.8412597"><ele>820.4</ele><time>2026-04-04T10:40:57.105Z</time></trkpt><trkpt lat="44.0081819" lon="10.8411764"><ele>814.8</ele><time>2026-04-04T10:40:58.104Z</time></trkpt><trkpt lat="44.0081229" lon="10.8410709"><ele>809.1999999999999</ele><time>2026-04-04T10:40:59.103Z</time></trkpt><trkpt lat="44.0080594" lon="10.8409632"><ele>803.5999999999999</ele><time>2026-04-04T10:41:00.103Z</time></trkpt><trkpt lat="44.008041" lon="10.8408217"><ele>798.0</ele><time>2026-04-04T10:41:01.103Z</time></trkpt><trkpt lat="44.0080162" lon="10.8406702"><ele>798.0</ele><time>2026-04-04T10:41:02.104Z</time></trkpt><trkpt lat="44.00801" lon="10.8405052"><ele>798.0</ele><time>2026-04-04T10:41:03.104Z</time></trkpt><trkpt lat="44.0079932" lon="10.8403422"><ele>798.0</ele><time>2026-04-04T10:41:04.104Z</time></trkpt><trkpt lat="44.0079684" lon="10.8401632"><ele>798.0</ele><time>2026-04-04T10:41:05.104Z</time></trkpt><trkpt lat="44.0079075" lon="10.8399856"><ele>798.4</ele><time>2026-04-04T10:41:06.105Z</time></trkpt><trkpt lat="44.0078316" lon="10.8398706"><ele>798.8</ele><time>2026-04-04T10:41:07.104Z</time></trkpt><trkpt lat="44.0077647" lon="10.8397844"><ele>799.2</ele><time>2026-04-04T10:41:08.105Z</time></trkpt><trkpt lat="44.0077135" lon="10.8396851"><ele>799.6</ele><time>2026-04-04T10:41:09.103Z</time></trkpt><trkpt lat="44.0076801" lon="10.839578"><ele>800.0</ele><time>2026-04-04T10:41:10.103Z</time></trkpt><trkpt lat="44.0077163" lon="10.839457"><ele>800.0</ele><time>2026-04-04T10:41:11.103Z</time></trkpt><trkpt lat="44.0078338" lon="10.839383"><ele>800.0</ele><time>2026-04-04T10:41:12.104Z</time></trkpt><trkpt lat="44.0079097" lon="10.8392489"><ele>800.0</ele><time>2026-04-04T10:41:13.104Z</time></trkpt><trkpt lat="44.0080008" lon="10.8391159"><ele>800.0</ele><time>2026-04-04T10:41:14.103Z</time></trkpt><trkpt lat="44.0080948" lon="10.8389765"><ele>799.5</ele><time>2026-04-04T10:41:15.104Z</time></trkpt><trkpt lat="44.0081945" lon="10.8388466"><ele>799.0</ele><time>2026-04-04T10:41:16.105Z</time></trkpt><trkpt lat="44.0082941" lon="10.8387316"><ele>798.5</ele><time>2026-04-04T10:41:17.104Z</time></trkpt><trkpt lat="44.0083778" lon="10.8386293"><ele>798.0</ele><time>2026-04-04T10:41:18.104Z</time></trkpt><trkpt lat="44.008479" lon="10.8385406"><ele>802.0</ele><time>2026-04-04T10:41:19.103Z</time></trkpt><trkpt lat="44.0086308" lon="10.8385454"><ele>806.0</ele><time>2026-04-04T10:41:20.104Z</time></trkpt><trkpt lat="44.0087664" lon="10.8385414"><ele>810.0</ele><time>2026-04-04T10:41:21.103Z</time></trkpt><trkpt lat="44.0088923" lon="10.838558"><ele>814.0</ele><time>2026-04-04T10:41:22.104Z</time></trkpt><trkpt lat="44.0090097" lon="10.838571"><ele>814.0</ele><time>2026-04-04T10:41:23.104Z</time></trkpt><trkpt lat="44.0091172" lon="10.8385905"><ele>814.0</ele><time>2026-04-04T10:41:24.104Z</time></trkpt><trkpt lat="44.0092175" lon="10.838608"><ele>814.0</ele><time>2026-04-04T10:41:25.105Z</time></trkpt><trkpt lat="44.0092977" lon="10.8386116"><ele>814.0</ele><time>2026-04-04T10:41:26.103Z</time></trkpt><trkpt lat="44.0093622" lon="10.8386068"><ele>814.0</ele><time>2026-04-04T10:41:27.103Z</time></trkpt><trkpt lat="44.009464" lon="10.8385401"><ele>810.4999999999999</ele><time>2026-04-04T10:41:29.104Z</time></trkpt><trkpt lat="44.0094996" lon="10.8384048"><ele>807.0</ele><time>2026-04-04T10:41:31.103Z</time></trkpt><trkpt lat="44.0094776" lon="10.8383224"><ele>803.5</ele><time>2026-04-04T10:41:32.104Z</time></trkpt><trkpt lat="44.0094354" lon="10.8382572"><ele>800.0</ele><time>2026-04-04T10:41:33.104Z</time></trkpt><trkpt lat="44.0093728" lon="10.8382009"><ele>796.4999999999999</ele><time>2026-04-04T10:41:34.104Z</time></trkpt><trkpt lat="44.009307" lon="10.838134"><ele>793.0</ele><time>2026-04-04T10:41:35.104Z</time></trkpt><trkpt lat="44.0092274" lon="10.8381007"><ele>792.9999999999999</ele><time>2026-04-04T10:41:36.104Z</time></trkpt><trkpt lat="44.0091607" lon="10.8380371"><ele>793.0</ele><time>2026-04-04T10:41:37.104Z</time></trkpt><trkpt lat="44.0091166" lon="10.8379378"><ele>793.0</ele><time>2026-04-04T10:41:38.104Z</time></trkpt><trkpt lat="44.009068" lon="10.8378395"><ele>793.0</ele><time>2026-04-04T10:41:39.103Z</time></trkpt><trkpt lat="44.0090307" lon="10.8377399"><ele>792.9999999999999</ele><time>2026-04-04T10:41:40.104Z</time></trkpt><trkpt lat="44.0090548" lon="10.8376225"><ele>793.0</ele><time>2026-04-04T10:41:41.104Z</time></trkpt><trkpt lat="44.0090601" lon="10.8375111"><ele>790.9999999999999</ele><time>2026-04-04T10:41:42.103Z</time></trkpt><trkpt lat="44.0091453" lon="10.837457"><ele>789.0</ele><time>2026-04-04T10:41:43.104Z</time></trkpt><trkpt lat="44.0092273" lon="10.8374154"><ele>787.0</ele><time>2026-04-04T10:41:44.103Z</time></trkpt><trkpt lat="44.009298" lon="10.8373787"><ele>785.0</ele><time>2026-04-04T10:41:45.104Z</time></trkpt><trkpt lat="44.0093817" lon="10.8372802"><ele>782.9999999999999</ele><time>2026-04-04T10:41:47.104Z</time></trkpt><trkpt lat="44.0093714" lon="10.8371717"><ele>781.0</ele><time>2026-04-04T10:41:49.105Z</time></trkpt><trkpt lat="44.0092647" lon="10.8371483"><ele>780.9999999999999</ele><time>2026-04-04T10:41:51.104Z</time></trkpt><trkpt lat="44.0091887" lon="10.8371453"><ele>781.0</ele><time>2026-04-04T10:41:52.104Z</time></trkpt><trkpt lat="44.0091022" lon="10.8371434"><ele>781.0</ele><time>2026-04-04T10:41:53.104Z</time></trkpt><trkpt lat="44.0090072" lon="10.8371364"><ele>781.0</ele><time>2026-04-04T10:41:54.103Z</time></trkpt><trkpt lat="44.0089422" lon="10.8372031"><ele>780.9999999999999</ele><time>2026-04-04T10:41:55.103Z</time></trkpt><trkpt lat="44.0088615" lon="10.8372179"><ele>781.0</ele><time>2026-04-04T10:41:56.104Z</time></trkpt><trkpt lat="44.008816" lon="10.8374125"><ele>778.6666666666666</ele><time>2026-04-04T10:41:58.104Z</time></trkpt><trkpt lat="44.0087661" lon="10.8374936"><ele>776.3333333333333</ele><time>2026-04-04T10:41:59.104Z</time></trkpt><trkpt lat="44.0087191" lon="10.8375557"><ele>774.0</ele><time>2026-04-04T10:42:00.104Z</time></trkpt><trkpt lat="44.0086269" lon="10.8375594"><ele>771.6666666666666</ele><time>2026-04-04T10:42:02.104Z</time></trkpt><trkpt lat="44.0085253" lon="10.8374986"><ele>769.3333333333333</ele><time>2026-04-04T10:42:04.103Z</time></trkpt><trkpt lat="44.0084615" lon="10.837461"><ele>767.0</ele><time>2026-04-04T10:42:05.103Z</time></trkpt><trkpt lat="44.0083944" lon="10.8374219"><ele>767.0</ele><time>2026-04-04T10:42:06.104Z</time></trkpt><trkpt lat="44.0083318" lon="10.8373809"><ele>767.0</ele><time>2026-04-04T10:42:07.104Z</time></trkpt><trkpt lat="44.0082694" lon="10.8373514"><ele>767.0</ele><time>2026-04-04T10:42:08.104Z</time></trkpt><trkpt lat="44.0081939" lon="10.8373607"><ele>767.0</ele><time>2026-04-04T10:42:09.104Z</time></trkpt><trkpt lat="44.0081193" lon="10.8373644"><ele>767.0</ele><time>2026-04-04T10:42:10.104Z</time></trkpt><trkpt lat="44.0079969" lon="10.8374517"><ele>767.0</ele><time>2026-04-04T10:42:12.104Z</time></trkpt><trkpt lat="44.0079248" lon="10.8374889"><ele>764.8</ele><time>2026-04-04T10:42:13.104Z</time></trkpt><trkpt lat="44.007831" lon="10.8374836"><ele>762.6</ele><time>2026-04-04T10:42:14.104Z</time></trkpt><trkpt lat="44.0077012" lon="10.8375072"><ele>760.4</ele><time>2026-04-04T10:42:16.104Z</time></trkpt><trkpt lat="44.0076074" lon="10.8374963"><ele>758.1999999999999</ele><time>2026-04-04T10:42:17.104Z</time></trkpt><trkpt lat="44.0074784" lon="10.8374716"><ele>756.0</ele><time>2026-04-04T10:42:18.104Z</time></trkpt><trkpt lat="44.0074073" lon="10.8374624"><ele>754.5999999999999</ele><time>2026-04-04T10:42:19.103Z</time></trkpt><trkpt lat="44.0073314" lon="10.8374237"><ele>753.2</ele><time>2026-04-04T10:42:20.104Z</time></trkpt><trkpt lat="44.0072365" lon="10.8374021"><ele>751.8</ele><time>2026-04-04T10:42:21.103Z</time></trkpt><trkpt lat="44.007143" lon="10.837395"><ele>750.4000000000001</ele><time>2026-04-04T10:42:22.104Z</time></trkpt><trkpt lat="44.0070522" lon="10.8373915"><ele>749.0</ele><time>2026-04-04T10:42:23.104Z</time></trkpt><trkpt lat="44.0069558" lon="10.837376"><ele>749.0</ele><time>2026-04-04T10:42:24.105Z</time></trkpt><trkpt lat="44.0068569" lon="10.8373734"><ele>749.0</ele><time>2026-04-04T10:42:25.104Z</time></trkpt><trkpt lat="44.006763" lon="10.837378"><ele>749.0</ele><time>2026-04-04T10:42:26.103Z</time></trkpt><trkpt lat="44.0066686" lon="10.8373942"><ele>749.0</ele><time>2026-04-04T10:42:27.103Z</time></trkpt><trkpt lat="44.0065785" lon="10.8374147"><ele>749.0</ele><time>2026-04-04T10:42:28.105Z</time></trkpt><trkpt lat="44.0064998" lon="10.8374493"><ele>748.6666666666666</ele><time>2026-04-04T10:42:29.104Z</time></trkpt><trkpt lat="44.0064268" lon="10.8374914"><ele>748.3333333333333</ele><time>2026-04-04T10:42:30.104Z</time></trkpt><trkpt lat="44.0063589" lon="10.8375468"><ele>748.0</ele><time>2026-04-04T10:42:31.104Z</time></trkpt><trkpt lat="44.0063013" lon="10.8376036"><ele>747.6666666666666</ele><time>2026-04-04T10:42:32.103Z</time></trkpt><trkpt lat="44.0062544" lon="10.8376658"><ele>747.3333333333334</ele><time>2026-04-04T10:42:33.104Z</time></trkpt><trkpt lat="44.0061759" lon="10.8377708"><ele>747.0</ele><time>2026-04-04T10:42:35.104Z</time></trkpt><trkpt lat="44.0061089" lon="10.8378555"><ele>747.0</ele><time>2026-04-04T10:42:37.103Z</time></trkpt><trkpt lat="44.0060457" lon="10.8378613"><ele>747.0</ele><time>2026-04-04T10:42:39.104Z</time></trkpt><trkpt lat="44.0059708" lon="10.837785"><ele>747.0</ele><time>2026-04-04T10:42:41.104Z</time></trkpt><trkpt lat="44.0059223" lon="10.8377116"><ele>747.0</ele><time>2026-04-04T10:42:42.104Z</time></trkpt><trkpt lat="44.0058757" lon="10.8376185"><ele>747.0</ele><time>2026-04-04T10:42:43.103Z</time></trkpt><trkpt lat="44.0058351" lon="10.8375106"><ele>747.0</ele><time>2026-04-04T10:42:44.104Z</time></trkpt><trkpt lat="44.0058065" lon="10.8373905"><ele>749.4000000000001</ele><time>2026-04-04T10:42:45.104Z</time></trkpt><trkpt lat="44.0058001" lon="10.8372591"><ele>751.8000000000001</ele><time>2026-04-04T10:42:46.104Z</time></trkpt><trkpt lat="44.0058003" lon="10.8371221"><ele>754.2</ele><time>2026-04-04T10:42:47.104Z</time></trkpt><trkpt lat="44.0058001" lon="10.8369866"><ele>756.6</ele><time>2026-04-04T10:42:48.104Z</time></trkpt><trkpt lat="44.0057944" lon="10.8368399"><ele>759.0</ele><time>2026-04-04T10:42:49.103Z</time></trkpt><trkpt lat="44.0057953" lon="10.8366985"><ele>759.0</ele><time>2026-04-04T10:42:50.104Z</time></trkpt><trkpt lat="44.0057952" lon="10.8365625"><ele>759.0</ele><time>2026-04-04T10:42:51.104Z</time></trkpt><trkpt lat="44.0057944" lon="10.8364479"><ele>759.0</ele><time>2026-04-04T10:42:52.104Z</time></trkpt><trkpt lat="44.005782" lon="10.836353"><ele>759.0</ele><time>2026-04-04T10:42:53.104Z</time></trkpt><trkpt lat="44.0057535" lon="10.8362158"><ele>759.0</ele><time>2026-04-04T10:42:55.104Z</time></trkpt><trkpt lat="44.0057733" lon="10.8360899"><ele>759.0</ele><time>2026-04-04T10:42:57.104Z</time></trkpt><trkpt lat="44.0057842" lon="10.8359195"><ele>759.0</ele><time>2026-04-04T10:42:59.103Z</time></trkpt><trkpt lat="44.0058141" lon="10.8357724"><ele>759.0</ele><time>2026-04-04T10:43:01.103Z</time></trkpt><trkpt lat="44.0058267" lon="10.8356639"><ele>759.0</ele><time>2026-04-04T10:43:04.105Z</time></trkpt><trkpt lat="44.0057554" lon="10.8356963"><ele>759.0</ele><time>2026-04-04T10:43:08.104Z</time></trkpt><trkpt lat="44.0056967" lon="10.8358245"><ele>759.0</ele><time>2026-04-04T10:43:10.105Z</time></trkpt><trkpt lat="44.0056619" lon="10.8359066"><ele>759.0</ele><time>2026-04-04T10:43:11.103Z</time></trkpt><trkpt lat="44.0056283" lon="10.8359809"><ele>759.0</ele><time>2026-04-04T10:43:12.103Z</time></trkpt><trkpt lat="44.0055604" lon="10.8360698"><ele>759.0</ele><time>2026-04-04T10:43:14.104Z</time></trkpt><trkpt lat="44.005472" lon="10.8361363"><ele>759.0</ele><time>2026-04-04T10:43:16.104Z</time></trkpt><trkpt lat="44.0053287" lon="10.836126"><ele>759.0</ele><time>2026-04-04T10:43:18.104Z</time></trkpt><trkpt lat="44.0052436" lon="10.8360953"><ele>759.0</ele><time>2026-04-04T10:43:19.104Z</time></trkpt><trkpt lat="44.0051449" lon="10.8360598"><ele>759.0</ele><time>2026-04-04T10:43:20.104Z</time></trkpt><trkpt lat="44.0050396" lon="10.8360188"><ele>759.0</ele><time>2026-04-04T10:43:21.104Z</time></trkpt><trkpt lat="44.0049268" lon="10.8359729"><ele>759.0</ele><time>2026-04-04T10:43:22.104Z</time></trkpt><trkpt lat="44.0048101" lon="10.8359282"><ele>759.0</ele><time>2026-04-04T10:43:23.103Z</time></trkpt><trkpt lat="44.004692" lon="10.8358812"><ele>756.25</ele><time>2026-04-04T10:43:24.104Z</time></trkpt><trkpt lat="44.0045737" lon="10.8358357"><ele>753.5</ele><time>2026-04-04T10:43:25.103Z</time></trkpt><trkpt lat="44.0044577" lon="10.8357904"><ele>750.75</ele><time>2026-04-04T10:43:26.104Z</time></trkpt><trkpt lat="44.0043498" lon="10.8357473"><ele>748.0</ele><time>2026-04-04T10:43:27.103Z</time></trkpt><trkpt lat="44.0042486" lon="10.8357088"><ele>748.0</ele><time>2026-04-04T10:43:28.103Z</time></trkpt><trkpt lat="44.0041636" lon="10.835677"><ele>748.0</ele><time>2026-04-04T10:43:29.104Z</time></trkpt><trkpt lat="44.004106" lon="10.8356413"><ele>748.0</ele><time>2026-04-04T10:43:30.103Z</time></trkpt><trkpt lat="44.0040643" lon="10.8355554"><ele>748.0</ele><time>2026-04-04T10:43:32.103Z</time></trkpt><trkpt lat="44.0041168" lon="10.8354455"><ele>748.0</ele><time>2026-04-04T10:43:34.104Z</time></trkpt><trkpt lat="44.0041739" lon="10.8354028"><ele>748.0</ele><time>2026-04-04T10:43:35.104Z</time></trkpt><trkpt lat="44.0042471" lon="10.8353714"><ele>748.0</ele><time>2026-04-04T10:43:36.104Z</time></trkpt><trkpt lat="44.0043207" lon="10.8353454"><ele>748.0</ele><time>2026-04-04T10:43:37.104Z</time></trkpt><trkpt lat="44.0043863" lon="10.8353358"><ele>748.0</ele><time>2026-04-04T10:43:38.104Z</time></trkpt><trkpt lat="44.0044501" lon="10.8353382"><ele>748.0</ele><time>2026-04-04T10:43:39.104Z</time></trkpt><trkpt lat="44.0045132" lon="10.8353364"><ele>748.0</ele><time>2026-04-04T10:43:40.105Z</time></trkpt><trkpt lat="44.0045769" lon="10.8353261"><ele>748.0</ele><time>2026-04-04T10:43:41.105Z</time></trkpt><trkpt lat="44.0046484" lon="10.835299"><ele>748.0</ele><time>2026-04-04T10:43:42.105Z</time></trkpt><trkpt lat="44.0047194" lon="10.8352708"><ele>748.0</ele><time>2026-04-04T10:43:43.105Z</time></trkpt><trkpt lat="44.0047895" lon="10.835243"><ele>748.0</ele><time>2026-04-04T10:43:44.104Z</time></trkpt><trkpt lat="44.0048584" lon="10.8352137"><ele>748.0</ele><time>2026-04-04T10:43:45.104Z</time></trkpt><trkpt lat="44.0049256" lon="10.835186"><ele>748.0</ele><time>2026-04-04T10:43:46.104Z</time></trkpt><trkpt lat="44.0049868" lon="10.8351574"><ele>748.0</ele><time>2026-04-04T10:43:47.104Z</time></trkpt><trkpt lat="44.0050478" lon="10.8351299"><ele>748.0</ele><time>2026-04-04T10:43:48.104Z</time></trkpt><trkpt lat="44.0051425" lon="10.8351072"><ele>748.0</ele><time>2026-04-04T10:43:50.105Z</time></trkpt><trkpt lat="44.0052197" lon="10.8350738"><ele>748.1666666666667</ele><time>2026-04-04T10:43:52.103Z</time></trkpt><trkpt lat="44.0052914" lon="10.8350473"><ele>748.3333333333334</ele><time>2026-04-04T10:43:54.104Z</time></trkpt><trkpt lat="44.0053649" lon="10.8350384"><ele>748.5</ele><time>2026-04-04T10:43:57.104Z</time></trkpt><trkpt lat="44.0054223" lon="10.8349933"><ele>748.6666666666666</ele><time>2026-04-04T10:44:01.104Z</time></trkpt><trkpt lat="44.0053344" lon="10.8350193"><ele>748.8333333333333</ele><time>2026-04-04T10:44:07.103Z</time></trkpt><trkpt lat="44.0052962" lon="10.8349385"><ele>749.0</ele><time>2026-04-04T10:44:10.104Z</time></trkpt><trkpt lat="44.0053438" lon="10.8348543"><ele>749.0</ele><time>2026-04-04T10:44:12.103Z</time></trkpt><trkpt lat="44.0053916" lon="10.834775"><ele>749.0</ele><time>2026-04-04T10:44:15.104Z</time></trkpt><trkpt lat="44.0054429" lon="10.8347226"><ele>749.0</ele><time>2026-04-04T10:48:09.104Z</time></trkpt><trkpt lat="44.0054971" lon="10.8346682"><ele>749.0</ele><time>2026-04-04T10:48:11.104Z</time></trkpt><trkpt lat="44.0055638" lon="10.8346185"><ele>749.0</ele><time>2026-04-04T10:48:13.104Z</time></trkpt><trkpt lat="44.0056274" lon="10.8345215"><ele>749.0</ele><time>2026-04-04T10:48:15.104Z</time></trkpt><trkpt lat="44.0056713" lon="10.8344165"><ele>749.0</ele><time>2026-04-04T10:48:17.103Z</time></trkpt><trkpt lat="44.0057377" lon="10.8343183"><ele>749.0</ele><time>2026-04-04T10:48:19.103Z</time></trkpt><trkpt lat="44.0057947" lon="10.8341942"><ele>749.0</ele><time>2026-04-04T10:48:21.104Z</time></trkpt><trkpt lat="44.0058383" lon="10.8340355"><ele>749.0</ele><time>2026-04-04T10:48:23.104Z</time></trkpt><trkpt lat="44.005861" lon="10.8339427"><ele>749.0</ele><time>2026-04-04T10:48:24.103Z</time></trkpt><trkpt lat="44.0058757" lon="10.8338426"><ele>748.8333333333333</ele><time>2026-04-04T10:48:25.104Z</time></trkpt><trkpt lat="44.0058844" lon="10.8337443"><ele>748.6666666666666</ele><time>2026-04-04T10:48:26.104Z</time></trkpt><trkpt lat="44.0059323" lon="10.8335868"><ele>748.5</ele><time>2026-04-04T10:48:28.104Z</time></trkpt><trkpt lat="44.0059805" lon="10.8335078"><ele>748.3333333333334</ele><time>2026-04-04T10:48:29.104Z</time></trkpt><trkpt lat="44.0060337" lon="10.8334241"><ele>748.1666666666667</ele><time>2026-04-04T10:48:30.104Z</time></trkpt><trkpt lat="44.0060851" lon="10.833343"><ele>748.0</ele><time>2026-04-04T10:48:31.104Z</time></trkpt><trkpt lat="44.0061296" lon="10.8332687"><ele>748.8</ele><time>2026-04-04T10:48:32.104Z</time></trkpt><trkpt lat="44.0061637" lon="10.8331945"><ele>749.5999999999999</ele><time>2026-04-04T10:48:33.104Z</time></trkpt><trkpt lat="44.006197" lon="10.8330393"><ele>750.4000000000001</ele><time>2026-04-04T10:48:35.104Z</time></trkpt><trkpt lat="44.0062027" lon="10.8328799"><ele>751.2</ele><time>2026-04-04T10:48:37.104Z</time></trkpt><trkpt lat="44.0061231" lon="10.832783"><ele>752.0</ele><time>2026-04-04T10:48:39.103Z</time></trkpt><trkpt lat="44.0060791" lon="10.832677"><ele>752.6</ele><time>2026-04-04T10:48:40.104Z</time></trkpt><trkpt lat="44.0060059" lon="10.832549"><ele>753.2</ele><time>2026-04-04T10:48:42.104Z</time></trkpt><trkpt lat="44.0059319" lon="10.8324478"><ele>753.8</ele><time>2026-04-04T10:48:44.104Z</time></trkpt><trkpt lat="44.0058435" lon="10.8323157"><ele>754.4</ele><time>2026-04-04T10:48:46.103Z</time></trkpt><trkpt lat="44.0058112" lon="10.8322111"><ele>755.0</ele><time>2026-04-04T10:48:47.104Z</time></trkpt><trkpt lat="44.0057785" lon="10.8321279"><ele>756.6666666666666</ele><time>2026-04-04T10:48:48.104Z</time></trkpt><trkpt lat="44.0057294" lon="10.8320291"><ele>758.3333333333333</ele><time>2026-04-04T10:48:49.103Z</time></trkpt><trkpt lat="44.0056865" lon="10.831928"><ele>760.0</ele><time>2026-04-04T10:48:50.104Z</time></trkpt><trkpt lat="44.0056456" lon="10.8318287"><ele>761.6666666666666</ele><time>2026-04-04T10:48:51.104Z</time></trkpt><trkpt lat="44.0056125" lon="10.8317476"><ele>763.3333333333334</ele><time>2026-04-04T10:48:52.103Z</time></trkpt><trkpt lat="44.0055855" lon="10.8316625"><ele>765.0</ele><time>2026-04-04T10:48:53.104Z</time></trkpt><trkpt lat="44.0055664" lon="10.8315729"><ele>765.0</ele><time>2026-04-04T10:48:54.104Z</time></trkpt><trkpt lat="44.0055603" lon="10.8314521"><ele>765.0</ele><time>2026-04-04T10:48:55.103Z</time></trkpt><trkpt lat="44.0055642" lon="10.8313498"><ele>765.0</ele><time>2026-04-04T10:48:56.104Z</time></trkpt><trkpt lat="44.0055141" lon="10.8312307"><ele>765.0</ele><time>2026-04-04T10:48:57.103Z</time></trkpt><trkpt lat="44.0055059" lon="10.8311282"><ele>765.0</ele><time>2026-04-04T10:48:58.103Z</time></trkpt><trkpt lat="44.0055655" lon="10.8309867"><ele>764.2</ele><time>2026-04-04T10:49:00.105Z</time></trkpt><trkpt lat="44.0056131" lon="10.8308432"><ele>763.4</ele><time>2026-04-04T10:49:02.103Z</time></trkpt><trkpt lat="44.0056034" lon="10.8307523"><ele>762.5999999999999</ele><time>2026-04-04T10:49:03.104Z</time></trkpt><trkpt lat="44.0056421" lon="10.8305944"><ele>761.8</ele><time>2026-04-04T10:49:05.104Z</time></trkpt><trkpt lat="44.0056811" lon="10.830488"><ele>761.0</ele><time>2026-04-04T10:49:06.104Z</time></trkpt><trkpt lat="44.0057187" lon="10.8303393"><ele>761.0</ele><time>2026-04-04T10:49:08.104Z</time></trkpt><trkpt lat="44.0057848" lon="10.8303317"><ele>761.0</ele><time>2026-04-04T10:49:09.104Z</time></trkpt><trkpt lat="44.005888" lon="10.8303301"><ele>761.0</ele><time>2026-04-04T10:49:11.103Z</time></trkpt><trkpt lat="44.0060124" lon="10.8303289"><ele>761.0</ele><time>2026-04-04T10:49:13.103Z</time></trkpt><trkpt lat="44.0060903" lon="10.8302986"><ele>761.0</ele><time>2026-04-04T10:49:14.103Z</time></trkpt><trkpt lat="44.0061585" lon="10.8302619"><ele>761.0</ele><time>2026-04-04T10:49:15.103Z</time></trkpt><trkpt lat="44.0062101" lon="10.8301796"><ele>762.0</ele><time>2026-04-04T10:49:16.103Z</time></trkpt><trkpt lat="44.0062629" lon="10.8301235"><ele>763.0</ele><time>2026-04-04T10:49:17.103Z</time></trkpt><trkpt lat="44.0062426" lon="10.8300008"><ele>764.0</ele><time>2026-04-04T10:49:19.103Z</time></trkpt><trkpt lat="44.0061879" lon="10.8299174"><ele>765.0</ele><time>2026-04-04T10:49:21.102Z</time></trkpt><trkpt lat="44.0061652" lon="10.829818"><ele>766.0</ele><time>2026-04-04T10:49:23.103Z</time></trkpt><trkpt lat="44.0062004" lon="10.8296937"><ele>767.0</ele><time>2026-04-04T10:49:25.102Z</time></trkpt><trkpt lat="44.0062432" lon="10.8295333"><ele>767.0</ele><time>2026-04-04T10:49:27.104Z</time></trkpt><trkpt lat="44.0062808" lon="10.8294357"><ele>767.0</ele><time>2026-04-04T10:49:28.103Z</time></trkpt><trkpt lat="44.0063288" lon="10.8293447"><ele>767.0</ele><time>2026-04-04T10:49:29.102Z</time></trkpt><trkpt lat="44.006379" lon="10.8292634"><ele>767.0</ele><time>2026-04-04T10:49:30.103Z</time></trkpt><trkpt lat="44.0064309" lon="10.8291924"><ele>767.0</ele><time>2026-04-04T10:49:31.103Z</time></trkpt><trkpt lat="44.0064809" lon="10.829131"><ele>767.0</ele><time>2026-04-04T10:49:32.103Z</time></trkpt><trkpt lat="44.0065458" lon="10.8290852"><ele>767.1666666666666</ele><time>2026-04-04T10:49:33.102Z</time></trkpt><trkpt lat="44.0066094" lon="10.8290452"><ele>767.3333333333333</ele><time>2026-04-04T10:49:34.103Z</time></trkpt><trkpt lat="44.0066848" lon="10.8290114"><ele>767.5</ele><time>2026-04-04T10:49:35.103Z</time></trkpt><trkpt lat="44.0067632" lon="10.8289769"><ele>767.6666666666666</ele><time>2026-04-04T10:49:36.103Z</time></trkpt><trkpt lat="44.0068531" lon="10.8289298"><ele>767.8333333333334</ele><time>2026-04-04T10:49:37.103Z</time></trkpt><trkpt lat="44.0069457" lon="10.8288734"><ele>768.0</ele><time>2026-04-04T10:49:38.103Z</time></trkpt><trkpt lat="44.0070279" lon="10.8287994"><ele>770.4</ele><time>2026-04-04T10:49:39.103Z</time></trkpt><trkpt lat="44.0070966" lon="10.8287189"><ele>772.8</ele><time>2026-04-04T10:49:40.103Z</time></trkpt><trkpt lat="44.0071707" lon="10.8286352"><ele>775.2</ele><time>2026-04-04T10:49:41.103Z</time></trkpt><trkpt lat="44.0072491" lon="10.828551"><ele>777.6</ele><time>2026-04-04T10:49:42.103Z</time></trkpt><trkpt lat="44.0073173" lon="10.8284769"><ele>780.0</ele><time>2026-04-04T10:49:43.103Z</time></trkpt><trkpt lat="44.0073679" lon="10.8283794"><ele>780.0</ele><time>2026-04-04T10:49:44.103Z</time></trkpt><trkpt lat="44.0073964" lon="10.8282765"><ele>780.0</ele><time>2026-04-04T10:49:45.102Z</time></trkpt><trkpt lat="44.0074164" lon="10.8281698"><ele>780.0</ele><time>2026-04-04T10:49:46.103Z</time></trkpt><trkpt lat="44.0073843" lon="10.8279597"><ele>780.0</ele><time>2026-04-04T10:49:47.103Z</time></trkpt><trkpt lat="44.0073654" lon="10.8278357"><ele>780.0</ele><time>2026-04-04T10:49:48.103Z</time></trkpt><trkpt lat="44.0073407" lon="10.8277261"><ele>780.4</ele><time>2026-04-04T10:49:49.102Z</time></trkpt><trkpt lat="44.0073317" lon="10.8276151"><ele>780.8</ele><time>2026-04-04T10:49:50.102Z</time></trkpt><trkpt lat="44.0073229" lon="10.8274952"><ele>781.2</ele><time>2026-04-04T10:49:51.103Z</time></trkpt><trkpt lat="44.0073363" lon="10.827367"><ele>781.6</ele><time>2026-04-04T10:49:52.103Z</time></trkpt><trkpt lat="44.0073524" lon="10.8272388"><ele>782.0</ele><time>2026-04-04T10:49:53.103Z</time></trkpt><trkpt lat="44.0073834" lon="10.8271128"><ele>782.0</ele><time>2026-04-04T10:49:54.103Z</time></trkpt><trkpt lat="44.0074008" lon="10.8269953"><ele>782.0</ele><time>2026-04-04T10:49:55.103Z</time></trkpt><trkpt lat="44.0074131" lon="10.8268595"><ele>782.0</ele><time>2026-04-04T10:49:56.103Z</time></trkpt><trkpt lat="44.0074007" lon="10.8267376"><ele>782.0</ele><time>2026-04-04T10:49:57.102Z</time></trkpt><trkpt lat="44.0074023" lon="10.8266047"><ele>782.0</ele><time>2026-04-04T10:49:58.103Z</time></trkpt><trkpt lat="44.0073917" lon="10.8264746"><ele>782.2</ele><time>2026-04-04T10:49:59.102Z</time></trkpt><trkpt lat="44.0073906" lon="10.8263535"><ele>782.4000000000001</ele><time>2026-04-04T10:50:00.103Z</time></trkpt><trkpt lat="44.0073901" lon="10.8262431"><ele>782.5999999999999</ele><time>2026-04-04T10:50:01.103Z</time></trkpt><trkpt lat="44.0073858" lon="10.8261179"><ele>782.8</ele><time>2026-04-04T10:50:02.102Z</time></trkpt><trkpt lat="44.0073616" lon="10.825956"><ele>783.0</ele><time>2026-04-04T10:50:03.103Z</time></trkpt><trkpt lat="44.00735" lon="10.8258077"><ele>784.5999999999999</ele><time>2026-04-04T10:50:04.103Z</time></trkpt><trkpt lat="44.007363" lon="10.8256399"><ele>786.1999999999999</ele><time>2026-04-04T10:50:05.103Z</time></trkpt><trkpt lat="44.0073599" lon="10.8254981"><ele>787.8</ele><time>2026-04-04T10:50:06.103Z</time></trkpt><trkpt lat="44.0073496" lon="10.825358"><ele>789.4</ele><time>2026-04-04T10:50:07.103Z</time></trkpt><trkpt lat="44.0073563" lon="10.8252522"><ele>791.0</ele><time>2026-04-04T10:50:08.102Z</time></trkpt><trkpt lat="44.0073176" lon="10.8251518"><ele>794.1999999999999</ele><time>2026-04-04T10:50:09.103Z</time></trkpt><trkpt lat="44.0072714" lon="10.8250482"><ele>797.4</ele><time>2026-04-04T10:50:10.102Z</time></trkpt><trkpt lat="44.0072022" lon="10.824976"><ele>800.6</ele><time>2026-04-04T10:50:11.102Z</time></trkpt><trkpt lat="44.0071602" lon="10.8249068"><ele>803.8</ele><time>2026-04-04T10:50:12.103Z</time></trkpt><trkpt lat="44.0071089" lon="10.8247457"><ele>807.0</ele><time>2026-04-04T10:50:14.103Z</time></trkpt><trkpt lat="44.0070916" lon="10.8246159"><ele>807.0</ele><time>2026-04-04T10:50:15.103Z</time></trkpt><trkpt lat="44.0070652" lon="10.8245175"><ele>807.0</ele><time>2026-04-04T10:50:16.102Z</time></trkpt><trkpt lat="44.007037" lon="10.8243938"><ele>807.0</ele><time>2026-04-04T10:50:17.103Z</time></trkpt><trkpt lat="44.0069766" lon="10.8243385"><ele>807.0</ele><time>2026-04-04T10:50:18.104Z</time></trkpt><trkpt lat="44.0068937" lon="10.8243262"><ele>807.0</ele><time>2026-04-04T10:50:19.103Z</time></trkpt><trkpt lat="44.0068186" lon="10.8242748"><ele>807.0</ele><time>2026-04-04T10:50:20.102Z</time></trkpt><trkpt lat="44.0067419" lon="10.8242234"><ele>807.5</ele><time>2026-04-04T10:50:21.102Z</time></trkpt><trkpt lat="44.006672" lon="10.8241701"><ele>808.0</ele><time>2026-04-04T10:50:22.104Z</time></trkpt><trkpt lat="44.0066094" lon="10.8241233"><ele>808.5</ele><time>2026-04-04T10:50:23.103Z</time></trkpt><trkpt lat="44.0066104" lon="10.8240127"><ele>809.0</ele><time>2026-04-04T10:50:24.102Z</time></trkpt><trkpt lat="44.0065828" lon="10.8239233"><ele>809.5</ele><time>2026-04-04T10:50:25.103Z</time></trkpt><trkpt lat="44.0065614" lon="10.8237813"><ele>810.0</ele><time>2026-04-04T10:50:26.103Z</time></trkpt><trkpt lat="44.006515" lon="10.8236498"><ele>810.0</ele><time>2026-04-04T10:50:27.103Z</time></trkpt><trkpt lat="44.0064775" lon="10.8235378"><ele>810.0</ele><time>2026-04-04T10:50:28.102Z</time></trkpt><trkpt lat="44.0064201" lon="10.8234311"><ele>810.0</ele><time>2026-04-04T10:50:29.103Z</time></trkpt><trkpt lat="44.0063503" lon="10.8233571"><ele>810.0</ele><time>2026-04-04T10:50:30.103Z</time></trkpt><trkpt lat="44.0062774" lon="10.8232624"><ele>810.0</ele><time>2026-04-04T10:50:31.102Z</time></trkpt><trkpt lat="44.0062104" lon="10.8231554"><ele>813.2</ele><time>2026-04-04T10:50:32.104Z</time></trkpt><trkpt lat="44.0061329" lon="10.8230368"><ele>816.4</ele><time>2026-04-04T10:50:33.103Z</time></trkpt><trkpt lat="44.0060638" lon="10.822929"><ele>819.5999999999999</ele><time>2026-04-04T10:50:34.103Z</time></trkpt><trkpt lat="44.0060088" lon="10.8228216"><ele>822.8</ele><time>2026-04-04T10:50:35.103Z</time></trkpt><trkpt lat="44.0059424" lon="10.8227821"><ele>826.0</ele><time>2026-04-04T10:50:36.103Z</time></trkpt><trkpt lat="44.0059114" lon="10.8226934"><ele>828.1999999999999</ele><time>2026-04-04T10:50:38.103Z</time></trkpt><trkpt lat="44.0058962" lon="10.8225532"><ele>830.4</ele><time>2026-04-04T10:50:41.103Z</time></trkpt><trkpt lat="44.0058559" lon="10.8224038"><ele>832.6</ele><time>2026-04-04T10:50:43.103Z</time></trkpt><trkpt lat="44.0058403" lon="10.8222617"><ele>834.8</ele><time>2026-04-04T10:50:45.103Z</time></trkpt><trkpt lat="44.0058392" lon="10.822156"><ele>837.0</ele><time>2026-04-04T10:50:47.103Z</time></trkpt><trkpt lat="44.0057732" lon="10.8221035"><ele>837.0</ele><time>2026-04-04T10:50:49.102Z</time></trkpt><trkpt lat="44.005677" lon="10.8221511"><ele>837.0</ele><time>2026-04-04T10:50:51.103Z</time></trkpt><trkpt lat="44.0055882" lon="10.8221574"><ele>837.0</ele><time>2026-04-04T10:50:53.102Z</time></trkpt><trkpt lat="44.0055601" lon="10.8220691"><ele>837.0</ele><time>2026-04-04T10:50:55.102Z</time></trkpt><trkpt lat="44.0055114" lon="10.8219927"><ele>837.0</ele><time>2026-04-04T10:50:58.103Z</time></trkpt><trkpt lat="44.0054724" lon="10.8218966"><ele>837.0</ele><time>2026-04-04T10:51:04.103Z</time></trkpt><trkpt lat="44.0053922" lon="10.8218587"><ele>839.6666666666666</ele><time>2026-04-04T10:51:31.102Z</time></trkpt><trkpt lat="44.005311" lon="10.8218025"><ele>842.3333333333333</ele><time>2026-04-04T10:51:34.102Z</time></trkpt><trkpt lat="44.0052532" lon="10.8217613"><ele>845.0</ele><time>2026-04-04T10:51:36.103Z</time></trkpt><trkpt lat="44.0051779" lon="10.8217277"><ele>847.6666666666666</ele><time>2026-04-04T10:51:38.103Z</time></trkpt><trkpt lat="44.0051192" lon="10.8216819"><ele>850.3333333333333</ele><time>2026-04-04T10:51:40.103Z</time></trkpt><trkpt lat="44.0050842" lon="10.8215631"><ele>853.0</ele><time>2026-04-04T10:51:42.103Z</time></trkpt><trkpt lat="44.005098" lon="10.8214775"><ele>853.0</ele><time>2026-04-04T10:51:44.103Z</time></trkpt><trkpt lat="44.0050526" lon="10.8213681"><ele>853.0</ele><time>2026-04-04T10:51:47.103Z</time></trkpt><trkpt lat="44.0049528" lon="10.821306"><ele>853.0</ele><time>2026-04-04T10:51:49.103Z</time></trkpt><trkpt lat="44.0048767" lon="10.8212099"><ele>853.0</ele><time>2026-04-04T10:51:51.103Z</time></trkpt><trkpt lat="44.0048444" lon="10.8211051"><ele>853.0</ele><time>2026-04-04T10:51:53.103Z</time></trkpt><trkpt lat="44.0048432" lon="10.8209537"><ele>858.4999999999999</ele><time>2026-04-04T10:51:55.102Z</time></trkpt><trkpt lat="44.0048231" lon="10.8208228"><ele>864.0</ele><time>2026-04-04T10:51:57.103Z</time></trkpt><trkpt lat="44.0047794" lon="10.8207259"><ele>869.5</ele><time>2026-04-04T10:52:00.103Z</time></trkpt><trkpt lat="44.0047289" lon="10.8206434"><ele>875.0</ele><time>2026-04-04T10:52:02.104Z</time></trkpt><trkpt lat="44.0046779" lon="10.8205484"><ele>880.4999999999999</ele><time>2026-04-04T10:52:04.104Z</time></trkpt><trkpt lat="44.0046131" lon="10.8204289"><ele>886.0</ele><time>2026-04-04T10:52:06.102Z</time></trkpt><trkpt lat="44.0045674" lon="10.8203263"><ele>886.0</ele><time>2026-04-04T10:52:08.103Z</time></trkpt><trkpt lat="44.00454" lon="10.8201913"><ele>885.9999999999999</ele><time>2026-04-04T10:52:10.103Z</time></trkpt><trkpt lat="44.0044933" lon="10.820017"><ele>885.9999999999999</ele><time>2026-04-04T10:52:12.103Z</time></trkpt><trkpt lat="44.0044692" lon="10.8199245"><ele>886.0</ele><time>2026-04-04T10:52:13.103Z</time></trkpt><trkpt lat="44.0044544" lon="10.819824"><ele>886.0</ele><time>2026-04-04T10:52:14.103Z</time></trkpt><trkpt lat="44.0044457" lon="10.8197236"><ele>888.6666666666666</ele><time>2026-04-04T10:52:15.102Z</time></trkpt><trkpt lat="44.0044331" lon="10.8196187"><ele>891.3333333333333</ele><time>2026-04-04T10:52:16.103Z</time></trkpt><trkpt lat="44.0044097" lon="10.819517"><ele>894.0</ele><time>2026-04-04T10:52:17.104Z</time></trkpt><trkpt lat="44.0043822" lon="10.8194171"><ele>896.6666666666667</ele><time>2026-04-04T10:52:18.102Z</time></trkpt><trkpt lat="44.0043411" lon="10.8193171"><ele>899.3333333333334</ele><time>2026-04-04T10:52:19.103Z</time></trkpt><trkpt lat="44.0043024" lon="10.8192202"><ele>902.0</ele><time>2026-04-04T10:52:20.103Z</time></trkpt><trkpt lat="44.004269" lon="10.8191247"><ele>903.0000000000001</ele><time>2026-04-04T10:52:21.103Z</time></trkpt><trkpt lat="44.0042482" lon="10.8190223"><ele>904.0</ele><time>2026-04-04T10:52:22.102Z</time></trkpt><trkpt lat="44.0042783" lon="10.8188556"><ele>905.0</ele><time>2026-04-04T10:52:24.103Z</time></trkpt><trkpt lat="44.0043274" lon="10.8187759"><ele>906.0</ele><time>2026-04-04T10:52:25.103Z</time></trkpt><trkpt lat="44.0043928" lon="10.8186981"><ele>907.0000000000001</ele><time>2026-04-04T10:52:26.103Z</time></trkpt><trkpt lat="44.0044523" lon="10.8186264"><ele>908.0</ele><time>2026-04-04T10:52:27.103Z</time></trkpt><trkpt lat="44.0045023" lon="10.8185544"><ele>909.0</ele><time>2026-04-04T10:52:28.103Z</time></trkpt><trkpt lat="44.0045261" lon="10.8184514"><ele>910.0</ele><time>2026-04-04T10:52:29.102Z</time></trkpt><trkpt lat="44.0045096" lon="10.8183643"><ele>911.0</ele><time>2026-04-04T10:52:30.103Z</time></trkpt><trkpt lat="44.0043792" lon="10.8182042"><ele>912.0</ele><time>2026-04-04T10:52:31.102Z</time></trkpt><trkpt lat="44.0043555" lon="10.8180893"><ele>913.0</ele><time>2026-04-04T10:52:32.104Z</time></trkpt><trkpt lat="44.0042962" lon="10.8179602"><ele>913.0</ele><time>2026-04-04T10:52:33.102Z</time></trkpt><trkpt lat="44.0042603" lon="10.8178446"><ele>913.0</ele><time>2026-04-04T10:52:34.102Z</time></trkpt><trkpt lat="44.0042158" lon="10.8177329"><ele>913.0</ele><time>2026-04-04T10:52:35.103Z</time></trkpt><trkpt lat="44.0042392" lon="10.8176065"><ele>913.0</ele><time>2026-04-04T10:52:36.103Z</time></trkpt><trkpt lat="44.0042556" lon="10.8174748"><ele>913.0</ele><time>2026-04-04T10:52:37.102Z</time></trkpt><trkpt lat="44.0042717" lon="10.8173398"><ele>913.6666666666666</ele><time>2026-04-04T10:52:38.102Z</time></trkpt><trkpt lat="44.0042844" lon="10.8172155"><ele>914.3333333333333</ele><time>2026-04-04T10:52:39.102Z</time></trkpt><trkpt lat="44.0043058" lon="10.8171187"><ele>915.0</ele><time>2026-04-04T10:52:40.103Z</time></trkpt><trkpt lat="44.0043495" lon="10.8170331"><ele>915.6666666666667</ele><time>2026-04-04T10:52:41.102Z</time></trkpt><trkpt lat="44.0044087" lon="10.8169726"><ele>916.3333333333334</ele><time>2026-04-04T10:52:42.103Z</time></trkpt><trkpt lat="44.0044691" lon="10.8169113"><ele>917.0</ele><time>2026-04-04T10:52:43.103Z</time></trkpt><trkpt lat="44.0045563" lon="10.8168583"><ele>920.0</ele><time>2026-04-04T10:52:44.102Z</time></trkpt><trkpt lat="44.0046271" lon="10.8167269"><ele>923.0</ele><time>2026-04-04T10:52:45.102Z</time></trkpt><trkpt lat="44.0046466" lon="10.8166118"><ele>926.0</ele><time>2026-04-04T10:52:46.103Z</time></trkpt><trkpt lat="44.0046918" lon="10.8164938"><ele>929.0</ele><time>2026-04-04T10:52:47.103Z</time></trkpt><trkpt lat="44.004729" lon="10.816377"><ele>932.0</ele><time>2026-04-04T10:52:48.103Z</time></trkpt><trkpt lat="44.004791" lon="10.8162838"><ele>932.0000000000001</ele><time>2026-04-04T10:52:49.103Z</time></trkpt><trkpt lat="44.0048446" lon="10.8161829"><ele>932.0</ele><time>2026-04-04T10:52:50.102Z</time></trkpt><trkpt lat="44.0048833" lon="10.8160869"><ele>932.0</ele><time>2026-04-04T10:52:51.102Z</time></trkpt><trkpt lat="44.00493" lon="10.8159769"><ele>932.0</ele><time>2026-04-04T10:52:52.103Z</time></trkpt><trkpt lat="44.0049583" lon="10.8158562"><ele>932.0000000000001</ele><time>2026-04-04T10:52:53.103Z</time></trkpt><trkpt lat="44.0049791" lon="10.8157361"><ele>932.0</ele><time>2026-04-04T10:52:54.103Z</time></trkpt><trkpt lat="44.0049913" lon="10.815611"><ele>934.6</ele><time>2026-04-04T10:52:55.103Z</time></trkpt><trkpt lat="44.0049971" lon="10.8154793"><ele>937.2</ele><time>2026-04-04T10:52:56.103Z</time></trkpt><trkpt lat="44.0049877" lon="10.8153347"><ele>939.8</ele><time>2026-04-04T10:52:57.102Z</time></trkpt><trkpt lat="44.0049951" lon="10.8152065"><ele>942.4</ele><time>2026-04-04T10:52:58.104Z</time></trkpt><trkpt lat="44.0050036" lon="10.8150725"><ele>945.0</ele><time>2026-04-04T10:52:59.104Z</time></trkpt><trkpt lat="44.0050542" lon="10.8149457"><ele>938.25</ele><time>2026-04-04T10:53:00.103Z</time></trkpt><trkpt lat="44.0051162" lon="10.8148224"><ele>931.5</ele><time>2026-04-04T10:53:01.102Z</time></trkpt><trkpt lat="44.0051726" lon="10.8146826"><ele>924.75</ele><time>2026-04-04T10:53:02.103Z</time></trkpt><trkpt lat="44.0052165" lon="10.8145179"><ele>918.0</ele><time>2026-04-04T10:53:03.103Z</time></trkpt><trkpt lat="44.0052729" lon="10.8143644"><ele>919.5999999999999</ele><time>2026-04-04T10:53:04.102Z</time></trkpt><trkpt lat="44.0053142" lon="10.8142168"><ele>921.1999999999999</ele><time>2026-04-04T10:53:05.103Z</time></trkpt><trkpt lat="44.0053443" lon="10.8140857"><ele>922.8</ele><time>2026-04-04T10:53:06.103Z</time></trkpt><trkpt lat="44.0053647" lon="10.813956"><ele>924.4</ele><time>2026-04-04T10:53:07.103Z</time></trkpt><trkpt lat="44.0053464" lon="10.8138483"><ele>926.0</ele><time>2026-04-04T10:53:08.103Z</time></trkpt><trkpt lat="44.0053269" lon="10.8137249"><ele>926.0</ele><time>2026-04-04T10:53:09.103Z</time></trkpt><trkpt lat="44.0052932" lon="10.8135952"><ele>925.9999999999999</ele><time>2026-04-04T10:53:10.103Z</time></trkpt><trkpt lat="44.0052623" lon="10.8134519"><ele>925.9999999999999</ele><time>2026-04-04T10:53:11.103Z</time></trkpt><trkpt lat="44.0052351" lon="10.8133042"><ele>926.0</ele><time>2026-04-04T10:53:12.103Z</time></trkpt><trkpt lat="44.0052159" lon="10.8131666"><ele>926.0</ele><time>2026-04-04T10:53:13.102Z</time></trkpt><trkpt lat="44.0051956" lon="10.8130464"><ele>926.5000000000001</ele><time>2026-04-04T10:53:14.104Z</time></trkpt><trkpt lat="44.0051864" lon="10.8129404"><ele>927.0</ele><time>2026-04-04T10:53:15.102Z</time></trkpt><trkpt lat="44.0052102" lon="10.8128463"><ele>927.5</ele><time>2026-04-04T10:53:16.102Z</time></trkpt><trkpt lat="44.0052527" lon="10.8127506"><ele>928.0</ele><time>2026-04-04T10:53:17.103Z</time></trkpt><trkpt lat="44.0053327" lon="10.8126604"><ele>928.5000000000001</ele><time>2026-04-04T10:53:18.103Z</time></trkpt><trkpt lat="44.0054105" lon="10.8125482"><ele>929.0</ele><time>2026-04-04T10:53:19.102Z</time></trkpt><trkpt lat="44.005495" lon="10.812431"><ele>931.0</ele><time>2026-04-04T10:53:20.103Z</time></trkpt><trkpt lat="44.0055565" lon="10.8123075"><ele>933.0</ele><time>2026-04-04T10:53:21.103Z</time></trkpt><trkpt lat="44.0056115" lon="10.8121601"><ele>935.0</ele><time>2026-04-04T10:53:22.103Z</time></trkpt><trkpt lat="44.0056529" lon="10.8119843"><ele>937.0</ele><time>2026-04-04T10:53:23.103Z</time></trkpt><trkpt lat="44.0056962" lon="10.8118131"><ele>938.6</ele><time>2026-04-04T10:53:24.103Z</time></trkpt><trkpt lat="44.0057215" lon="10.8116313"><ele>940.2</ele><time>2026-04-04T10:53:25.103Z</time></trkpt><trkpt lat="44.0057491" lon="10.8114909"><ele>941.8</ele><time>2026-04-04T10:53:26.103Z</time></trkpt><trkpt lat="44.0057749" lon="10.8113678"><ele>943.4</ele><time>2026-04-04T10:53:27.103Z</time></trkpt><trkpt lat="44.0058359" lon="10.8112723"><ele>945.0</ele><time>2026-04-04T10:53:28.103Z</time></trkpt><trkpt lat="44.0059068" lon="10.811167"><ele>941.8</ele><time>2026-04-04T10:53:29.102Z</time></trkpt><trkpt lat="44.0059682" lon="10.811082"><ele>938.6</ele><time>2026-04-04T10:53:30.104Z</time></trkpt><trkpt lat="44.0060345" lon="10.8109939"><ele>935.4000000000001</ele><time>2026-04-04T10:53:31.103Z</time></trkpt><trkpt lat="44.0060374" lon="10.8108138"><ele>932.2</ele><time>2026-04-04T10:53:33.103Z</time></trkpt><trkpt lat="44.0060094" lon="10.8106734"><ele>929.0</ele><time>2026-04-04T10:53:34.102Z</time></trkpt><trkpt lat="44.0060024" lon="10.8105436"><ele>929.0</ele><time>2026-04-04T10:53:35.103Z</time></trkpt><trkpt lat="44.0059831" lon="10.8103986"><ele>929.0000000000001</ele><time>2026-04-04T10:53:36.103Z</time></trkpt><trkpt lat="44.0059562" lon="10.8102516"><ele>929.0000000000001</ele><time>2026-04-04T10:53:37.102Z</time></trkpt><trkpt lat="44.0059672" lon="10.81014"><ele>929.0</ele><time>2026-04-04T10:53:38.103Z</time></trkpt><trkpt lat="44.0059984" lon="10.8100021"><ele>929.0</ele><time>2026-04-04T10:53:39.103Z</time></trkpt><trkpt lat="44.0060605" lon="10.8098682"><ele>930.5</ele><time>2026-04-04T10:53:40.102Z</time></trkpt><trkpt lat="44.0061304" lon="10.8097308"><ele>932.0</ele><time>2026-04-04T10:53:41.103Z</time></trkpt><trkpt lat="44.0061838" lon="10.8095914"><ele>933.5</ele><time>2026-04-04T10:53:42.102Z</time></trkpt><trkpt lat="44.0062439" lon="10.8094486"><ele>935.0</ele><time>2026-04-04T10:53:43.103Z</time></trkpt><trkpt lat="44.0062763" lon="10.8093037"><ele>938.5</ele><time>2026-04-04T10:53:44.103Z</time></trkpt><trkpt lat="44.0063084" lon="10.8091479"><ele>942.0</ele><time>2026-04-04T10:53:45.102Z</time></trkpt><trkpt lat="44.0063451" lon="10.8089928"><ele>945.5</ele><time>2026-04-04T10:53:46.102Z</time></trkpt><trkpt lat="44.0063844" lon="10.8088425"><ele>949.0</ele><time>2026-04-04T10:53:47.103Z</time></trkpt><trkpt lat="44.0064217" lon="10.8086914"><ele>949.0</ele><time>2026-04-04T10:53:48.103Z</time></trkpt><trkpt lat="44.006459" lon="10.8085426"><ele>949.0000000000001</ele><time>2026-04-04T10:53:49.104Z</time></trkpt><trkpt lat="44.0064733" lon="10.8083954"><ele>949.0000000000001</ele><time>2026-04-04T10:53:50.103Z</time></trkpt><trkpt lat="44.0064803" lon="10.8082466"><ele>949.0</ele><time>2026-04-04T10:53:51.102Z</time></trkpt><trkpt lat="44.0064661" lon="10.8080888"><ele>949.0</ele><time>2026-04-04T10:53:52.103Z</time></trkpt><trkpt lat="44.0064469" lon="10.8079325"><ele>952.0</ele><time>2026-04-04T10:53:53.103Z</time></trkpt><trkpt lat="44.0064285" lon="10.8077631"><ele>955.0</ele><time>2026-04-04T10:53:54.103Z</time></trkpt><trkpt lat="44.0064379" lon="10.8075884"><ele>958.0</ele><time>2026-04-04T10:53:55.104Z</time></trkpt><trkpt lat="44.006464" lon="10.8074262"><ele>961.0</ele><time>2026-04-04T10:53:56.102Z</time></trkpt><trkpt lat="44.0065015" lon="10.80727"><ele>962.8</ele><time>2026-04-04T10:53:57.103Z</time></trkpt><trkpt lat="44.0065504" lon="10.8071144"><ele>964.5999999999999</ele><time>2026-04-04T10:53:58.102Z</time></trkpt><trkpt lat="44.0066023" lon="10.8069738"><ele>966.4</ele><time>2026-04-04T10:53:59.103Z</time></trkpt><trkpt lat="44.006646" lon="10.8068459"><ele>968.2</ele><time>2026-04-04T10:54:00.102Z</time></trkpt><trkpt lat="44.0066677" lon="10.8067082"><ele>970.0</ele><time>2026-04-04T10:54:01.103Z</time></trkpt><trkpt lat="44.0066811" lon="10.8065314"><ele>965.75</ele><time>2026-04-04T10:54:02.103Z</time></trkpt><trkpt lat="44.0067052" lon="10.8063687"><ele>961.5</ele><time>2026-04-04T10:54:03.103Z</time></trkpt><trkpt lat="44.0067109" lon="10.8062068"><ele>957.25</ele><time>2026-04-04T10:54:04.103Z</time></trkpt><trkpt lat="44.0066911" lon="10.8060464"><ele>953.0</ele><time>2026-04-04T10:54:05.102Z</time></trkpt><trkpt lat="44.0066668" lon="10.805891"><ele>957.5999999999999</ele><time>2026-04-04T10:54:06.103Z</time></trkpt><trkpt lat="44.0066442" lon="10.8057369"><ele>962.1999999999999</ele><time>2026-04-04T10:54:07.103Z</time></trkpt><trkpt lat="44.0066351" lon="10.8055841"><ele>966.8</ele><time>2026-04-04T10:54:08.102Z</time></trkpt><trkpt lat="44.006637" lon="10.8054307"><ele>971.4</ele><time>2026-04-04T10:54:09.103Z</time></trkpt><trkpt lat="44.0066445" lon="10.8053056"><ele>976.0</ele><time>2026-04-04T10:54:10.103Z</time></trkpt><trkpt lat="44.0066578" lon="10.8052046"><ele>976.0</ele><time>2026-04-04T10:54:11.103Z</time></trkpt><trkpt lat="44.0066931" lon="10.8050588"><ele>975.9999999999999</ele><time>2026-04-04T10:54:13.103Z</time></trkpt><trkpt lat="44.0066785" lon="10.8049703"><ele>975.9999999999999</ele><time>2026-04-04T10:54:15.102Z</time></trkpt><trkpt lat="44.0066169" lon="10.8049975"><ele>976.0</ele><time>2026-04-04T10:54:17.103Z</time></trkpt><trkpt lat="44.0065087" lon="10.8051125"><ele>976.0</ele><time>2026-04-04T10:54:19.103Z</time></trkpt><trkpt lat="44.0064418" lon="10.8051905"><ele>976.0</ele><time>2026-04-04T10:54:20.102Z</time></trkpt><trkpt lat="44.0063744" lon="10.8052887"><ele>975.9999999999999</ele><time>2026-04-04T10:54:21.104Z</time></trkpt><trkpt lat="44.0063098" lon="10.8054055"><ele>975.9999999999999</ele><time>2026-04-04T10:54:22.103Z</time></trkpt><trkpt lat="44.0062601" lon="10.805536"><ele>976.0</ele><time>2026-04-04T10:54:23.103Z</time></trkpt><trkpt lat="44.0062131" lon="10.8056735"><ele>976.0</ele><time>2026-04-04T10:54:24.102Z</time></trkpt><trkpt lat="44.0061729" lon="10.80581"><ele>976.0</ele><time>2026-04-04T10:54:25.103Z</time></trkpt><trkpt lat="44.0061352" lon="10.805946"><ele>975.9999999999999</ele><time>2026-04-04T10:54:26.103Z</time></trkpt><trkpt lat="44.0061006" lon="10.8060808"><ele>975.9999999999999</ele><time>2026-04-04T10:54:27.103Z</time></trkpt><trkpt lat="44.0060647" lon="10.8062133"><ele>976.0</ele><time>2026-04-04T10:54:28.103Z</time></trkpt><trkpt lat="44.0060268" lon="10.8063417"><ele>976.0</ele><time>2026-04-04T10:54:29.103Z</time></trkpt><trkpt lat="44.0059872" lon="10.8064647"><ele>976.4</ele><time>2026-04-04T10:54:30.103Z</time></trkpt><trkpt lat="44.0059427" lon="10.8065828"><ele>976.8</ele><time>2026-04-04T10:54:31.102Z</time></trkpt><trkpt lat="44.0058887" lon="10.8066941"><ele>977.1999999999999</ele><time>2026-04-04T10:54:32.103Z</time></trkpt><trkpt lat="44.0058188" lon="10.8067927"><ele>977.5999999999999</ele><time>2026-04-04T10:54:33.102Z</time></trkpt><trkpt lat="44.0057431" lon="10.8068882"><ele>978.0</ele><time>2026-04-04T10:54:34.103Z</time></trkpt><trkpt lat="44.0056596" lon="10.8069861"><ele>978.0</ele><time>2026-04-04T10:54:35.103Z</time></trkpt><trkpt lat="44.0055676" lon="10.8070805"><ele>978.0</ele><time>2026-04-04T10:54:36.102Z</time></trkpt><trkpt lat="44.0054655" lon="10.8071748"><ele>978.0</ele><time>2026-04-04T10:54:37.103Z</time></trkpt><trkpt lat="44.0053663" lon="10.8072658"><ele>978.0</ele><time>2026-04-04T10:54:38.103Z</time></trkpt><trkpt lat="44.0052705" lon="10.8073681"><ele>978.0</ele><time>2026-04-04T10:54:39.103Z</time></trkpt><trkpt lat="44.0051694" lon="10.8074733"><ele>978.0</ele><time>2026-04-04T10:54:40.103Z</time></trkpt><trkpt lat="44.005073" lon="10.8075864"><ele>978.0</ele><time>2026-04-04T10:54:41.102Z</time></trkpt><trkpt lat="44.0049632" lon="10.807698"><ele>978.0</ele><time>2026-04-04T10:54:42.102Z</time></trkpt><trkpt lat="44.0048497" lon="10.8078131"><ele>977.75</ele><time>2026-04-04T10:54:43.104Z</time></trkpt><trkpt lat="44.0047422" lon="10.8079313"><ele>977.5</ele><time>2026-04-04T10:54:44.103Z</time></trkpt><trkpt lat="44.0046341" lon="10.8080459"><ele>977.25</ele><time>2026-04-04T10:54:45.103Z</time></trkpt><trkpt lat="44.0045214" lon="10.8081577"><ele>977.0</ele><time>2026-04-04T10:54:46.102Z</time></trkpt><trkpt lat="44.00441" lon="10.8082701"><ele>977.0</ele><time>2026-04-04T10:54:47.103Z</time></trkpt><trkpt lat="44.0043072" lon="10.8083936"><ele>977.0</ele><time>2026-04-04T10:54:48.103Z</time></trkpt><trkpt lat="44.0042198" lon="10.8085184"><ele>977.0</ele><time>2026-04-04T10:54:49.103Z</time></trkpt><trkpt lat="44.0041382" lon="10.8086619"><ele>977.0</ele><time>2026-04-04T10:54:50.103Z</time></trkpt><trkpt lat="44.0040629" lon="10.8088086"><ele>977.25</ele><time>2026-04-04T10:54:51.102Z</time></trkpt><trkpt lat="44.0039922" lon="10.8089518"><ele>977.5</ele><time>2026-04-04T10:54:52.103Z</time></trkpt><trkpt lat="44.0039238" lon="10.8090871"><ele>977.75</ele><time>2026-04-04T10:54:53.103Z</time></trkpt><trkpt lat="44.003857" lon="10.8092187"><ele>978.0</ele><time>2026-04-04T10:54:54.102Z</time></trkpt><trkpt lat="44.0037862" lon="10.8093511"><ele>979.2</ele><time>2026-04-04T10:54:55.103Z</time></trkpt><trkpt lat="44.0037176" lon="10.8094774"><ele>980.4</ele><time>2026-04-04T10:54:56.103Z</time></trkpt><trkpt lat="44.0036593" lon="10.809593"><ele>981.6000000000001</ele><time>2026-04-04T10:54:57.102Z</time></trkpt><trkpt lat="44.0036015" lon="10.8097002"><ele>982.8000000000001</ele><time>2026-04-04T10:54:58.103Z</time></trkpt><trkpt lat="44.0035375" lon="10.8097982"><ele>984.0</ele><time>2026-04-04T10:54:59.103Z</time></trkpt><trkpt lat="44.0034612" lon="10.8098766"><ele>984.0000000000001</ele><time>2026-04-04T10:55:00.103Z</time></trkpt><trkpt lat="44.0033903" lon="10.8099435"><ele>984.0</ele><time>2026-04-04T10:55:01.103Z</time></trkpt><trkpt lat="44.0033245" lon="10.8100002"><ele>984.0000000000001</ele><time>2026-04-04T10:55:02.103Z</time></trkpt><trkpt lat="44.003268" lon="10.8100565"><ele>984.0000000000001</ele><time>2026-04-04T10:55:03.104Z</time></trkpt><trkpt lat="44.003213" lon="10.8101137"><ele>984.0</ele><time>2026-04-04T10:55:04.102Z</time></trkpt><trkpt lat="44.0031583" lon="10.810172"><ele>984.0000000000001</ele><time>2026-04-04T10:55:05.102Z</time></trkpt><trkpt lat="44.0031065" lon="10.8102329"><ele>984.0000000000001</ele><time>2026-04-04T10:55:06.103Z</time></trkpt><trkpt lat="44.0030483" lon="10.8102887"><ele>982.8333333333334</ele><time>2026-04-04T10:55:07.103Z</time></trkpt><trkpt lat="44.0029892" lon="10.8103489"><ele>981.6666666666667</ele><time>2026-04-04T10:55:08.103Z</time></trkpt><trkpt lat="44.0029302" lon="10.8104045"><ele>980.5</ele><time>2026-04-04T10:55:09.103Z</time></trkpt><trkpt lat="44.0028211" lon="10.8104937"><ele>979.3333333333334</ele><time>2026-04-04T10:55:11.103Z</time></trkpt><trkpt lat="44.0027662" lon="10.8105367"><ele>978.1666666666667</ele><time>2026-04-04T10:55:12.103Z</time></trkpt><trkpt lat="44.0027067" lon="10.8105706"><ele>977.0</ele><time>2026-04-04T10:55:13.102Z</time></trkpt><trkpt lat="44.0026372" lon="10.8105945"><ele>977.0</ele><time>2026-04-04T10:55:14.103Z</time></trkpt><trkpt lat="44.0025611" lon="10.8106152"><ele>977.0</ele><time>2026-04-04T10:55:15.103Z</time></trkpt><trkpt lat="44.0024645" lon="10.8106142"><ele>977.0</ele><time>2026-04-04T10:55:16.102Z</time></trkpt><trkpt lat="44.0023768" lon="10.8106129"><ele>977.0</ele><time>2026-04-04T10:55:17.102Z</time></trkpt><trkpt lat="44.0022721" lon="10.8105916"><ele>977.0</ele><time>2026-04-04T10:55:18.103Z</time></trkpt><trkpt lat="44.0021683" lon="10.810581"><ele>975.2</ele><time>2026-04-04T10:55:19.103Z</time></trkpt><trkpt lat="44.0020602" lon="10.8105632"><ele>973.4000000000001</ele><time>2026-04-04T10:55:20.104Z</time></trkpt><trkpt lat="44.0019541" lon="10.8105381"><ele>971.5999999999999</ele><time>2026-04-04T10:55:21.103Z</time></trkpt><trkpt lat="44.0018531" lon="10.8105039"><ele>969.8</ele><time>2026-04-04T10:55:22.102Z</time></trkpt><trkpt lat="44.001753" lon="10.8104542"><ele>968.0</ele><time>2026-04-04T10:55:23.103Z</time></trkpt><trkpt lat="44.0016654" lon="10.8104144"><ele>969.8333333333334</ele><time>2026-04-04T10:55:24.103Z</time></trkpt><trkpt lat="44.0015843" lon="10.8103892"><ele>971.6666666666667</ele><time>2026-04-04T10:55:25.104Z</time></trkpt><trkpt lat="44.001517" lon="10.8103957"><ele>973.5</ele><time>2026-04-04T10:55:26.103Z</time></trkpt><trkpt lat="44.0014411" lon="10.8103857"><ele>975.3333333333333</ele><time>2026-04-04T10:55:27.104Z</time></trkpt><trkpt lat="44.0013762" lon="10.8103677"><ele>977.1666666666666</ele><time>2026-04-04T10:55:28.103Z</time></trkpt><trkpt lat="44.0012766" lon="10.8103237"><ele>979.0</ele><time>2026-04-04T10:55:30.103Z</time></trkpt><trkpt lat="44.0011717" lon="10.8103465"><ele>978.9999999999999</ele><time>2026-04-04T10:55:32.102Z</time></trkpt><trkpt lat="44.0010976" lon="10.8104109"><ele>979.0</ele><time>2026-04-04T10:55:33.103Z</time></trkpt><trkpt lat="44.0010178" lon="10.8104602"><ele>979.0</ele><time>2026-04-04T10:55:34.102Z</time></trkpt><trkpt lat="44.0009471" lon="10.8105031"><ele>979.0</ele><time>2026-04-04T10:55:35.103Z</time></trkpt><trkpt lat="44.0008593" lon="10.8106058"><ele>978.9999999999999</ele><time>2026-04-04T10:55:37.102Z</time></trkpt><trkpt lat="44.0008401" lon="10.8107087"><ele>979.0</ele><time>2026-04-04T10:55:38.102Z</time></trkpt><trkpt lat="44.000787" lon="10.810796"><ele>980.6666666666666</ele><time>2026-04-04T10:55:39.103Z</time></trkpt><trkpt lat="44.0007312" lon="10.8108632"><ele>982.3333333333333</ele><time>2026-04-04T10:55:40.102Z</time></trkpt><trkpt lat="44.0006476" lon="10.8108534"><ele>984.0</ele><time>2026-04-04T10:55:41.103Z</time></trkpt><trkpt lat="44.0005316" lon="10.8107951"><ele>985.6666666666667</ele><time>2026-04-04T10:55:43.103Z</time></trkpt><trkpt lat="44.0004646" lon="10.8108402"><ele>987.3333333333334</ele><time>2026-04-04T10:55:44.102Z</time></trkpt><trkpt lat="44.0003887" lon="10.8108496"><ele>989.0</ele><time>2026-04-04T10:55:45.103Z</time></trkpt><trkpt lat="44.0002982" lon="10.8108794"><ele>989.0</ele><time>2026-04-04T10:55:46.103Z</time></trkpt><trkpt lat="44.0002194" lon="10.8108834"><ele>989.0000000000001</ele><time>2026-04-04T10:55:47.103Z</time></trkpt><trkpt lat="44.0001376" lon="10.8109029"><ele>989.0000000000001</ele><time>2026-04-04T10:55:48.103Z</time></trkpt><trkpt lat="44.0000299" lon="10.8108498"><ele>989.0</ele><time>2026-04-04T10:55:50.103Z</time></trkpt><trkpt lat="43.9999699" lon="10.8108087"><ele>989.0</ele><time>2026-04-04T10:55:51.104Z</time></trkpt><trkpt lat="43.9998738" lon="10.8107245"><ele>989.0</ele><time>2026-04-04T10:55:52.102Z</time></trkpt><trkpt lat="43.9998085" lon="10.8106954"><ele>988.9999999999999</ele><time>2026-04-04T10:55:53.103Z</time></trkpt><trkpt lat="43.9997414" lon="10.8106711"><ele>989.0</ele><time>2026-04-04T10:55:54.102Z</time></trkpt><trkpt lat="43.9996663" lon="10.8106466"><ele>989.0</ele><time>2026-04-04T10:55:55.103Z</time></trkpt><trkpt lat="43.9995989" lon="10.8106005"><ele>988.9999999999999</ele><time>2026-04-04T10:55:56.103Z</time></trkpt><trkpt lat="43.9995321" lon="10.8105529"><ele>989.0</ele><time>2026-04-04T10:55:57.104Z</time></trkpt><trkpt lat="43.9994681" lon="10.8105059"><ele>989.0</ele><time>2026-04-04T10:55:58.103Z</time></trkpt><trkpt lat="43.9993521" lon="10.8104355"><ele>989.0</ele><time>2026-04-04T10:56:00.102Z</time></trkpt><trkpt lat="43.9992524" lon="10.81041"><ele>989.0000000000001</ele><time>2026-04-04T10:56:01.103Z</time></trkpt><trkpt lat="43.9991752" lon="10.8103814"><ele>989.0000000000001</ele><time>2026-04-04T10:56:02.104Z</time></trkpt><trkpt lat="43.9990705" lon="10.8103745"><ele>989.0</ele><time>2026-04-04T10:56:03.102Z</time></trkpt><trkpt lat="43.9989815" lon="10.810352"><ele>989.0</ele><time>2026-04-04T10:56:04.103Z</time></trkpt><trkpt lat="43.9989019" lon="10.8103119"><ele>990.5000000000001</ele><time>2026-04-04T10:56:05.103Z</time></trkpt><trkpt lat="43.9988242" lon="10.810305"><ele>992.0</ele><time>2026-04-04T10:56:06.104Z</time></trkpt><trkpt lat="43.9987349" lon="10.8102908"><ele>993.5</ele><time>2026-04-04T10:56:07.102Z</time></trkpt><trkpt lat="43.9986605" lon="10.8102711"><ele>995.0</ele><time>2026-04-04T10:56:08.103Z</time></trkpt><trkpt lat="43.9985793" lon="10.8102572"><ele>996.5000000000001</ele><time>2026-04-04T10:56:09.103Z</time></trkpt><trkpt lat="43.9984773" lon="10.8102589"><ele>998.0</ele><time>2026-04-04T10:56:10.102Z</time></trkpt><trkpt lat="43.998403" lon="10.8102547"><ele>999.0000000000001</ele><time>2026-04-04T10:56:11.103Z</time></trkpt><trkpt lat="43.9983204" lon="10.8102448"><ele>1000.0</ele><time>2026-04-04T10:56:12.103Z</time></trkpt><trkpt lat="43.9982301" lon="10.8102327"><ele>1001.0</ele><time>2026-04-04T10:56:13.103Z</time></trkpt><trkpt lat="43.998129" lon="10.8102285"><ele>1002.0</ele><time>2026-04-04T10:56:14.103Z</time></trkpt><trkpt lat="43.9980542" lon="10.8102094"><ele>1003.0000000000001</ele><time>2026-04-04T10:56:15.102Z</time></trkpt><trkpt lat="43.9979821" lon="10.8101182"><ele>1004.0</ele><time>2026-04-04T10:56:17.102Z</time></trkpt><trkpt lat="43.9979562" lon="10.8099548"><ele>1004.0000000000001</ele><time>2026-04-04T10:56:19.102Z</time></trkpt><trkpt lat="43.9979206" lon="10.8098706"><ele>1004.0</ele><time>2026-04-04T10:56:21.103Z</time></trkpt><trkpt lat="43.997832" lon="10.8097779"><ele>1004.0</ele><time>2026-04-04T10:56:23.102Z</time></trkpt><trkpt lat="43.9977547" lon="10.8097394"><ele>1004.0</ele><time>2026-04-04T10:56:25.103Z</time></trkpt><trkpt lat="43.9976741" lon="10.8096634"><ele>1004.0000000000001</ele><time>2026-04-04T10:56:27.103Z</time></trkpt><trkpt lat="43.9976057" lon="10.8096257"><ele>1004.0</ele><time>2026-04-04T10:56:28.102Z</time></trkpt><trkpt lat="43.9975427" lon="10.80959"><ele>1005.8333333333334</ele><time>2026-04-04T10:56:29.103Z</time></trkpt><trkpt lat="43.9974649" lon="10.809545"><ele>1007.6666666666667</ele><time>2026-04-04T10:56:30.103Z</time></trkpt><trkpt lat="43.9973707" lon="10.8094656"><ele>1009.5</ele><time>2026-04-04T10:56:32.103Z</time></trkpt><trkpt lat="43.9972794" lon="10.8093831"><ele>1011.3333333333333</ele><time>2026-04-04T10:56:34.103Z</time></trkpt><trkpt lat="43.9972206" lon="10.8093415"><ele>1013.1666666666666</ele><time>2026-04-04T10:56:35.102Z</time></trkpt><trkpt lat="43.9971539" lon="10.8093131"><ele>1015.0</ele><time>2026-04-04T10:56:36.102Z</time></trkpt><trkpt lat="43.997088" lon="10.8092739"><ele>1014.9999999999999</ele><time>2026-04-04T10:56:37.103Z</time></trkpt><trkpt lat="43.9969934" lon="10.8092692"><ele>1015.0</ele><time>2026-04-04T10:56:38.102Z</time></trkpt><trkpt lat="43.9969237" lon="10.8092594"><ele>1015.0</ele><time>2026-04-04T10:56:39.103Z</time></trkpt><trkpt lat="43.9968232" lon="10.8092343"><ele>1015.0</ele><time>2026-04-04T10:56:41.103Z</time></trkpt><trkpt lat="43.9967614" lon="10.8091564"><ele>1014.9999999999999</ele><time>2026-04-04T10:56:43.103Z</time></trkpt><trkpt lat="43.9967015" lon="10.809055"><ele>1015.0</ele><time>2026-04-04T10:56:45.103Z</time></trkpt><trkpt lat="43.9966643" lon="10.8089796"><ele>1019.0</ele><time>2026-04-04T10:56:46.102Z</time></trkpt><trkpt lat="43.9966086" lon="10.8088674"><ele>1023.0</ele><time>2026-04-04T10:56:48.102Z</time></trkpt><trkpt lat="43.9965578" lon="10.8087581"><ele>1027.0</ele><time>2026-04-04T10:56:51.103Z</time></trkpt><trkpt lat="43.9964849" lon="10.8087169"><ele>1031.0</ele><time>2026-04-04T10:56:53.112Z</time></trkpt><trkpt lat="43.9963493" lon="10.8085698"><ele>1035.0</ele><time>2026-04-04T10:56:55.102Z</time></trkpt><trkpt lat="43.9962919" lon="10.8085252"><ele>1034.2</ele><time>2026-04-04T10:56:56.07Z</time></trkpt><trkpt lat="43.9962426" lon="10.8084217"><ele>1033.4</ele><time>2026-04-04T10:56:57.11Z</time></trkpt><trkpt lat="43.9960787" lon="10.8083275"><ele>1032.6</ele><time>2026-04-04T10:56:59.103Z</time></trkpt><trkpt lat="43.9960018" lon="10.808304"><ele>1031.8</ele><time>2026-04-04T10:57:00.103Z</time></trkpt><trkpt lat="43.9959298" lon="10.8082864"><ele>1031.0</ele><time>2026-04-04T10:57:01.103Z</time></trkpt><trkpt lat="43.9958148" lon="10.8082477"><ele>1032.6666666666667</ele><time>2026-04-04T10:57:03.103Z</time></trkpt><trkpt lat="43.9957441" lon="10.8082327"><ele>1034.3333333333335</ele><time>2026-04-04T10:57:04.103Z</time></trkpt><trkpt lat="43.9956727" lon="10.8082263"><ele>1036.0</ele><time>2026-04-04T10:57:05.102Z</time></trkpt><trkpt lat="43.9955735" lon="10.8082062"><ele>1037.6666666666667</ele><time>2026-04-04T10:57:06.102Z</time></trkpt><trkpt lat="43.9954727" lon="10.808163"><ele>1039.3333333333333</ele><time>2026-04-04T10:57:07.102Z</time></trkpt><trkpt lat="43.9953822" lon="10.8081348"><ele>1041.0</ele><time>2026-04-04T10:57:08.102Z</time></trkpt><trkpt lat="43.9952955" lon="10.8081281"><ele>1041.0</ele><time>2026-04-04T10:57:09.103Z</time></trkpt><trkpt lat="43.9952157" lon="10.8081078"><ele>1041.0</ele><time>2026-04-04T10:57:10.104Z</time></trkpt><trkpt lat="43.995132" lon="10.8080929"><ele>1041.0</ele><time>2026-04-04T10:57:11.102Z</time></trkpt><trkpt lat="43.9950146" lon="10.8080593"><ele>1041.0</ele><time>2026-04-04T10:57:12.102Z</time></trkpt><trkpt lat="43.9949252" lon="10.8080444"><ele>1041.0</ele><time>2026-04-04T10:57:13.102Z</time></trkpt><trkpt lat="43.9948328" lon="10.8080394"><ele>1041.3999999999999</ele><time>2026-04-04T10:57:14.103Z</time></trkpt><trkpt lat="43.9947374" lon="10.8080484"><ele>1041.8</ele><time>2026-04-04T10:57:15.104Z</time></trkpt><trkpt lat="43.9946406" lon="10.8080708"><ele>1042.1999999999998</ele><time>2026-04-04T10:57:16.103Z</time></trkpt><trkpt lat="43.9945652" lon="10.8080921"><ele>1042.6</ele><time>2026-04-04T10:57:17.103Z</time></trkpt><trkpt lat="43.9945053" lon="10.8081335"><ele>1043.0</ele><time>2026-04-04T10:57:18.103Z</time></trkpt><trkpt lat="43.994382" lon="10.8081899"><ele>1043.0</ele><time>2026-04-04T10:57:20.103Z</time></trkpt><trkpt lat="43.9942938" lon="10.8081987"><ele>1043.0</ele><time>2026-04-04T10:57:21.103Z</time></trkpt><trkpt lat="43.99422" lon="10.8082017"><ele>1043.0</ele><time>2026-04-04T10:57:22.103Z</time></trkpt><trkpt lat="43.9941388" lon="10.8082734"><ele>1043.0</ele><time>2026-04-04T10:57:24.103Z</time></trkpt><trkpt lat="43.9940411" lon="10.8083535"><ele>1043.0</ele><time>2026-04-04T10:57:25.103Z</time></trkpt><trkpt lat="43.9939561" lon="10.8084253"><ele>1044.2</ele><time>2026-04-04T10:57:26.102Z</time></trkpt><trkpt lat="43.9938772" lon="10.8084824"><ele>1045.4</ele><time>2026-04-04T10:57:27.103Z</time></trkpt><trkpt lat="43.9937869" lon="10.8085301"><ele>1046.6000000000001</ele><time>2026-04-04T10:57:28.103Z</time></trkpt><trkpt lat="43.9937065" lon="10.8085766"><ele>1047.8</ele><time>2026-04-04T10:57:29.103Z</time></trkpt><trkpt lat="43.9935902" lon="10.8085987"><ele>1049.0</ele><time>2026-04-04T10:57:30.102Z</time></trkpt><trkpt lat="43.9935068" lon="10.8085976"><ele>1049.0</ele><time>2026-04-04T10:57:31.102Z</time></trkpt><trkpt lat="43.99343" lon="10.8085865"><ele>1049.0</ele><time>2026-04-04T10:57:32.102Z</time></trkpt><trkpt lat="43.9933292" lon="10.8085591"><ele>1049.0</ele><time>2026-04-04T10:57:33.104Z</time></trkpt><trkpt lat="43.9932155" lon="10.808514"><ele>1049.0</ele><time>2026-04-04T10:57:34.103Z</time></trkpt><trkpt lat="43.9931162" lon="10.8084834"><ele>1049.0</ele><time>2026-04-04T10:57:35.103Z</time></trkpt><trkpt lat="43.9930141" lon="10.8084685"><ele>1045.6000000000001</ele><time>2026-04-04T10:57:36.103Z</time></trkpt><trkpt lat="43.9928915" lon="10.8084455"><ele>1042.2</ele><time>2026-04-04T10:57:37.103Z</time></trkpt><trkpt lat="43.9927914" lon="10.8084103"><ele>1038.8000000000002</ele><time>2026-04-04T10:57:38.102Z</time></trkpt><trkpt lat="43.9926939" lon="10.8083534"><ele>1035.4</ele><time>2026-04-04T10:57:39.102Z</time></trkpt><trkpt lat="43.9926048" lon="10.8083122"><ele>1032.0</ele><time>2026-04-04T10:57:40.103Z</time></trkpt><trkpt lat="43.9924932" lon="10.8082212"><ele>1031.4</ele><time>2026-04-04T10:57:41.103Z</time></trkpt><trkpt lat="43.9924488" lon="10.8080833"><ele>1030.8000000000002</ele><time>2026-04-04T10:57:42.103Z</time></trkpt><trkpt lat="43.9924072" lon="10.8079945"><ele>1030.2</ele><time>2026-04-04T10:57:43.102Z</time></trkpt><trkpt lat="43.9923408" lon="10.8079265"><ele>1029.6000000000001</ele><time>2026-04-04T10:57:44.102Z</time></trkpt><trkpt lat="43.9922629" lon="10.8078698"><ele>1029.0</ele><time>2026-04-04T10:57:45.102Z</time></trkpt><trkpt lat="43.9921594" lon="10.8078969"><ele>1029.0</ele><time>2026-04-04T10:57:46.103Z</time></trkpt><trkpt lat="43.9920602" lon="10.8078879"><ele>1029.0</ele><time>2026-04-04T10:57:47.103Z</time></trkpt><trkpt lat="43.9919793" lon="10.8078898"><ele>1029.0</ele><time>2026-04-04T10:57:48.103Z</time></trkpt><trkpt lat="43.9918763" lon="10.8078981"><ele>1029.0</ele><time>2026-04-04T10:57:49.103Z</time></trkpt><trkpt lat="43.9917801" lon="10.8078992"><ele>1029.0</ele><time>2026-04-04T10:57:50.103Z</time></trkpt><trkpt lat="43.9917048" lon="10.807868"><ele>1028.4</ele><time>2026-04-04T10:57:51.103Z</time></trkpt><trkpt lat="43.9916178" lon="10.8078065"><ele>1027.8000000000002</ele><time>2026-04-04T10:57:52.103Z</time></trkpt><trkpt lat="43.9915498" lon="10.8077076"><ele>1027.1999999999998</ele><time>2026-04-04T10:57:53.103Z</time></trkpt><trkpt lat="43.9914892" lon="10.8075948"><ele>1026.6</ele><time>2026-04-04T10:57:54.103Z</time></trkpt><trkpt lat="43.991445" lon="10.8074828"><ele>1026.0</ele><time>2026-04-04T10:57:55.103Z</time></trkpt><trkpt lat="43.9914163" lon="10.8073566"><ele>1026.0</ele><time>2026-04-04T10:57:56.102Z</time></trkpt><trkpt lat="43.9914095" lon="10.8072339"><ele>1026.0</ele><time>2026-04-04T10:57:57.103Z</time></trkpt><trkpt lat="43.991412" lon="10.8070979"><ele>1026.0</ele><time>2026-04-04T10:57:58.102Z</time></trkpt><trkpt lat="43.9914102" lon="10.8069728"><ele>1026.0</ele><time>2026-04-04T10:57:59.102Z</time></trkpt><trkpt lat="43.9913935" lon="10.8068399"><ele>1026.0</ele><time>2026-04-04T10:58:00.103Z</time></trkpt><trkpt lat="43.9913389" lon="10.8067496"><ele>1028.0</ele><time>2026-04-04T10:58:01.103Z</time></trkpt><trkpt lat="43.9913081" lon="10.8066563"><ele>1030.0</ele><time>2026-04-04T10:58:02.102Z</time></trkpt><trkpt lat="43.9911419" lon="10.806646"><ele>1032.0</ele><time>2026-04-04T10:58:03.103Z</time></trkpt><trkpt lat="43.9910577" lon="10.8066134"><ele>1034.0</ele><time>2026-04-04T10:58:04.103Z</time></trkpt><trkpt lat="43.9909749" lon="10.8065863"><ele>1036.0</ele><time>2026-04-04T10:58:05.102Z</time></trkpt><trkpt lat="43.9909033" lon="10.8065342"><ele>1034.3999999999999</ele><time>2026-04-04T10:58:06.102Z</time></trkpt><trkpt lat="43.9908278" lon="10.8065069"><ele>1032.8</ele><time>2026-04-04T10:58:07.103Z</time></trkpt><trkpt lat="43.9907214" lon="10.8063803"><ele>1031.1999999999998</ele><time>2026-04-04T10:58:09.102Z</time></trkpt><trkpt lat="43.9906493" lon="10.8063364"><ele>1029.6</ele><time>2026-04-04T10:58:10.103Z</time></trkpt><trkpt lat="43.9905475" lon="10.806298"><ele>1028.0</ele><time>2026-04-04T10:58:11.103Z</time></trkpt><trkpt lat="43.9904616" lon="10.8062316"><ele>1028.0</ele><time>2026-04-04T10:58:12.103Z</time></trkpt><trkpt lat="43.9903656" lon="10.8061831"><ele>1028.0</ele><time>2026-04-04T10:58:13.103Z</time></trkpt><trkpt lat="43.990276" lon="10.8060878"><ele>1028.0</ele><time>2026-04-04T10:58:14.102Z</time></trkpt><trkpt lat="43.9901875" lon="10.805999"><ele>1028.0</ele><time>2026-04-04T10:58:15.103Z</time></trkpt><trkpt lat="43.9901045" lon="10.8059118"><ele>1028.0</ele><time>2026-04-04T10:58:16.103Z</time></trkpt><trkpt lat="43.9900417" lon="10.805807"><ele>1029.2</ele><time>2026-04-04T10:58:17.103Z</time></trkpt><trkpt lat="43.9899802" lon="10.8057042"><ele>1030.4</ele><time>2026-04-04T10:58:18.103Z</time></trkpt><trkpt lat="43.9899169" lon="10.8055883"><ele>1031.6000000000001</ele><time>2026-04-04T10:58:19.103Z</time></trkpt><trkpt lat="43.9898462" lon="10.8054868"><ele>1032.8</ele><time>2026-04-04T10:58:20.103Z</time></trkpt><trkpt lat="43.9897706" lon="10.8053897"><ele>1034.0</ele><time>2026-04-04T10:58:21.103Z</time></trkpt><trkpt lat="43.9896999" lon="10.8053104"><ele>1034.0</ele><time>2026-04-04T10:58:22.103Z</time></trkpt><trkpt lat="43.9896293" lon="10.8052247"><ele>1034.0</ele><time>2026-04-04T10:58:23.102Z</time></trkpt><trkpt lat="43.9895401" lon="10.8052151"><ele>1034.0</ele><time>2026-04-04T10:58:24.102Z</time></trkpt><trkpt lat="43.9894567" lon="10.8051648"><ele>1034.0</ele><time>2026-04-04T10:58:25.103Z</time></trkpt><trkpt lat="43.9893736" lon="10.8051218"><ele>1034.0</ele><time>2026-04-04T10:58:26.103Z</time></trkpt><trkpt lat="43.989284" lon="10.8050702"><ele>1033.2</ele><time>2026-04-04T10:58:27.102Z</time></trkpt><trkpt lat="43.9892074" lon="10.8050144"><ele>1032.4</ele><time>2026-04-04T10:58:28.103Z</time></trkpt><trkpt lat="43.9891275" lon="10.8050047"><ele>1031.6</ele><time>2026-04-04T10:58:29.103Z</time></trkpt><trkpt lat="43.9890503" lon="10.8049878"><ele>1030.8</ele><time>2026-04-04T10:58:30.103Z</time></trkpt><trkpt lat="43.9889541" lon="10.8049414"><ele>1030.0</ele><time>2026-04-04T10:58:31.103Z</time></trkpt><trkpt lat="43.9888594" lon="10.8048753"><ele>1029.6</ele><time>2026-04-04T10:58:32.102Z</time></trkpt><trkpt lat="43.9887744" lon="10.8048352"><ele>1029.2</ele><time>2026-04-04T10:58:33.103Z</time></trkpt><trkpt lat="43.9886989" lon="10.8047714"><ele>1028.8</ele><time>2026-04-04T10:58:34.103Z</time></trkpt><trkpt lat="43.9886316" lon="10.804693"><ele>1028.4</ele><time>2026-04-04T10:58:35.102Z</time></trkpt><trkpt lat="43.9885715" lon="10.8046136"><ele>1028.0</ele><time>2026-04-04T10:58:36.103Z</time></trkpt><trkpt lat="43.9885193" lon="10.8044714"><ele>1028.0</ele><time>2026-04-04T10:58:37.102Z</time></trkpt><trkpt lat="43.9884632" lon="10.804366"><ele>1028.0</ele><time>2026-04-04T10:58:38.103Z</time></trkpt><trkpt lat="43.988435" lon="10.8042403"><ele>1028.0</ele><time>2026-04-04T10:58:39.103Z</time></trkpt><trkpt lat="43.9883802" lon="10.8041326"><ele>1028.0</ele><time>2026-04-04T10:58:40.103Z</time></trkpt><trkpt lat="43.9883215" lon="10.8040639"><ele>1028.0</ele><time>2026-04-04T10:58:41.103Z</time></trkpt><trkpt lat="43.9882719" lon="10.8039987"><ele>1028.0</ele><time>2026-04-04T10:58:42.102Z</time></trkpt><trkpt lat="43.9882173" lon="10.8039377"><ele>1024.6666666666667</ele><time>2026-04-04T10:58:43.103Z</time></trkpt><trkpt lat="43.988134" lon="10.8040094"><ele>1021.3333333333334</ele><time>2026-04-04T10:58:44.103Z</time></trkpt><trkpt lat="43.9880594" lon="10.8040072"><ele>1018.0</ele><time>2026-04-04T10:58:45.102Z</time></trkpt><trkpt lat="43.987981" lon="10.8040126"><ele>1014.6666666666667</ele><time>2026-04-04T10:58:46.102Z</time></trkpt><trkpt lat="43.9878919" lon="10.804001"><ele>1011.3333333333334</ele><time>2026-04-04T10:58:47.102Z</time></trkpt><trkpt lat="43.987821" lon="10.8039485"><ele>1008.0</ele><time>2026-04-04T10:58:48.103Z</time></trkpt><trkpt lat="43.9877755" lon="10.8038722"><ele>1008.0</ele><time>2026-04-04T10:58:49.103Z</time></trkpt><trkpt lat="43.9877357" lon="10.8037024"><ele>1008.0</ele><time>2026-04-04T10:58:51.102Z</time></trkpt><trkpt lat="43.9877663" lon="10.8035596"><ele>1008.0</ele><time>2026-04-04T10:58:52.103Z</time></trkpt><trkpt lat="43.9877497" lon="10.8034226"><ele>1008.0</ele><time>2026-04-04T10:58:53.103Z</time></trkpt><trkpt lat="43.9877268" lon="10.8032825"><ele>1008.0</ele><time>2026-04-04T10:58:54.103Z</time></trkpt><trkpt lat="43.9876995" lon="10.8031431"><ele>1006.5999999999999</ele><time>2026-04-04T10:58:55.102Z</time></trkpt><trkpt lat="43.9876672" lon="10.8030111"><ele>1005.1999999999999</ele><time>2026-04-04T10:58:56.103Z</time></trkpt><trkpt lat="43.9876169" lon="10.8028847"><ele>1003.8</ele><time>2026-04-04T10:58:57.103Z</time></trkpt><trkpt lat="43.9874939" lon="10.8028026"><ele>1002.4</ele><time>2026-04-04T10:58:58.102Z</time></trkpt><trkpt lat="43.9874254" lon="10.8026898"><ele>1001.0</ele><time>2026-04-04T10:58:59.103Z</time></trkpt><trkpt lat="43.9873761" lon="10.8025567"><ele>997.75</ele><time>2026-04-04T10:59:00.103Z</time></trkpt><trkpt lat="43.987324" lon="10.8024258"><ele>994.5</ele><time>2026-04-04T10:59:01.104Z</time></trkpt><trkpt lat="43.9872495" lon="10.8023218"><ele>991.25</ele><time>2026-04-04T10:59:02.102Z</time></trkpt><trkpt lat="43.9871644" lon="10.8021722"><ele>988.0</ele><time>2026-04-04T10:59:04.103Z</time></trkpt><trkpt lat="43.98708" lon="10.802072"><ele>988.0</ele><time>2026-04-04T10:59:05.103Z</time></trkpt><trkpt lat="43.9870093" lon="10.8019806"><ele>988.0</ele><time>2026-04-04T10:59:06.103Z</time></trkpt><trkpt lat="43.9869634" lon="10.801887"><ele>988.0</ele><time>2026-04-04T10:59:07.103Z</time></trkpt><trkpt lat="43.9868712" lon="10.8017554"><ele>988.0</ele><time>2026-04-04T10:59:09.103Z</time></trkpt><trkpt lat="43.9867804" lon="10.8017463"><ele>988.0</ele><time>2026-04-04T10:59:10.102Z</time></trkpt><trkpt lat="43.9866913" lon="10.801712"><ele>985.8</ele><time>2026-04-04T10:59:11.103Z</time></trkpt><trkpt lat="43.9866071" lon="10.8016452"><ele>983.5999999999999</ele><time>2026-04-04T10:59:12.103Z</time></trkpt><trkpt lat="43.9865328" lon="10.8015825"><ele>981.4000000000001</ele><time>2026-04-04T10:59:13.104Z</time></trkpt><trkpt lat="43.9864026" lon="10.8014798"><ele>979.2</ele><time>2026-04-04T10:59:15.102Z</time></trkpt><trkpt lat="43.9863246" lon="10.8014314"><ele>977.0</ele><time>2026-04-04T10:59:16.103Z</time></trkpt><trkpt lat="43.9862389" lon="10.8014608"><ele>977.0000000000001</ele><time>2026-04-04T10:59:17.103Z</time></trkpt><trkpt lat="43.9861604" lon="10.8014606"><ele>977.0</ele><time>2026-04-04T10:59:18.103Z</time></trkpt><trkpt lat="43.9860931" lon="10.8014357"><ele>977.0</ele><time>2026-04-04T10:59:19.103Z</time></trkpt><trkpt lat="43.9860172" lon="10.8014089"><ele>977.0</ele><time>2026-04-04T10:59:20.103Z</time></trkpt><trkpt lat="43.9859572" lon="10.8013645"><ele>977.0000000000001</ele><time>2026-04-04T10:59:21.103Z</time></trkpt><trkpt lat="43.9858903" lon="10.8013397"><ele>977.0</ele><time>2026-04-04T10:59:22.103Z</time></trkpt><trkpt lat="43.9858197" lon="10.8012558"><ele>976.4000000000001</ele><time>2026-04-04T10:59:24.103Z</time></trkpt><trkpt lat="43.9858186" lon="10.8010939"><ele>975.8000000000001</ele><time>2026-04-04T10:59:26.103Z</time></trkpt><trkpt lat="43.9858509" lon="10.8009216"><ele>975.2</ele><time>2026-04-04T10:59:28.103Z</time></trkpt><trkpt lat="43.985872" lon="10.8008322"><ele>974.6</ele><time>2026-04-04T10:59:29.102Z</time></trkpt><trkpt lat="43.9858781" lon="10.8007391"><ele>974.0</ele><time>2026-04-04T10:59:30.103Z</time></trkpt><trkpt lat="43.9858636" lon="10.8005813"><ele>974.0</ele><time>2026-04-04T10:59:32.103Z</time></trkpt><trkpt lat="43.9858302" lon="10.8004554"><ele>974.0000000000001</ele><time>2026-04-04T10:59:34.103Z</time></trkpt><trkpt lat="43.985832" lon="10.8003573"><ele>974.0000000000001</ele><time>2026-04-04T10:59:36.102Z</time></trkpt><trkpt lat="43.9858813" lon="10.8002372"><ele>974.0</ele><time>2026-04-04T10:59:38.101Z</time></trkpt><trkpt lat="43.985839" lon="10.8001243"><ele>974.0</ele><time>2026-04-04T10:59:40.102Z</time></trkpt><trkpt lat="43.9857343" lon="10.8000097"><ele>971.0</ele><time>2026-04-04T10:59:42.102Z</time></trkpt><trkpt lat="43.9856729" lon="10.7999355"><ele>968.0000000000001</ele><time>2026-04-04T10:59:43.102Z</time></trkpt><trkpt lat="43.9856096" lon="10.7998579"><ele>965.0000000000001</ele><time>2026-04-04T10:59:44.102Z</time></trkpt><trkpt lat="43.985524" lon="10.7997533"><ele>962.0</ele><time>2026-04-04T10:59:45.102Z</time></trkpt><trkpt lat="43.9854423" lon="10.7996435"><ele>959.0</ele><time>2026-04-04T10:59:46.103Z</time></trkpt><trkpt lat="43.9853684" lon="10.7995194"><ele>959.0</ele><time>2026-04-04T10:59:47.102Z</time></trkpt><trkpt lat="43.9853288" lon="10.7993748"><ele>959.0000000000001</ele><time>2026-04-04T10:59:48.103Z</time></trkpt><trkpt lat="43.98529" lon="10.7992335"><ele>959.0000000000001</ele><time>2026-04-04T10:59:49.103Z</time></trkpt><trkpt lat="43.9852954" lon="10.7990654"><ele>959.0</ele><time>2026-04-04T10:59:50.103Z</time></trkpt><trkpt lat="43.9852851" lon="10.7989213"><ele>959.0</ele><time>2026-04-04T10:59:51.103Z</time></trkpt><trkpt lat="43.9852758" lon="10.7987691"><ele>960.6</ele><time>2026-04-04T10:59:52.103Z</time></trkpt><trkpt lat="43.9852487" lon="10.7986486"><ele>962.2</ele><time>2026-04-04T10:59:53.103Z</time></trkpt><trkpt lat="43.9852105" lon="10.7985398"><ele>963.8000000000001</ele><time>2026-04-04T10:59:54.102Z</time></trkpt><trkpt lat="43.985093" lon="10.7985761"><ele>965.4000000000001</ele><time>2026-04-04T10:59:55.102Z</time></trkpt><trkpt lat="43.9850113" lon="10.7985562"><ele>967.0</ele><time>2026-04-04T10:59:56.103Z</time></trkpt><trkpt lat="43.9849227" lon="10.7985251"><ele>969.4000000000001</ele><time>2026-04-04T10:59:57.103Z</time></trkpt><trkpt lat="43.9848324" lon="10.7984882"><ele>971.8000000000001</ele><time>2026-04-04T10:59:58.103Z</time></trkpt><trkpt lat="43.9847576" lon="10.7984362"><ele>974.2</ele><time>2026-04-04T10:59:59.103Z</time></trkpt><trkpt lat="43.9847176" lon="10.7983008"><ele>976.6</ele><time>2026-04-04T11:00:01.103Z</time></trkpt><trkpt lat="43.9847472" lon="10.7981587"><ele>979.0</ele><time>2026-04-04T11:00:03.103Z</time></trkpt><trkpt lat="43.9848493" lon="10.7981249"><ele>979.0</ele><time>2026-04-04T11:00:04.102Z</time></trkpt><trkpt lat="43.9849254" lon="10.7980719"><ele>979.0000000000001</ele><time>2026-04-04T11:00:05.102Z</time></trkpt><trkpt lat="43.9850148" lon="10.7980002"><ele>979.0000000000001</ele><time>2026-04-04T11:00:06.102Z</time></trkpt><trkpt lat="43.9851046" lon="10.7979286"><ele>979.0</ele><time>2026-04-04T11:00:07.102Z</time></trkpt><trkpt lat="43.985184" lon="10.7978568"><ele>979.0</ele><time>2026-04-04T11:00:08.102Z</time></trkpt><trkpt lat="43.985252" lon="10.7978024"><ele>978.4999999999999</ele><time>2026-04-04T11:00:09.102Z</time></trkpt><trkpt lat="43.985313" lon="10.797741"><ele>978.0</ele><time>2026-04-04T11:00:10.102Z</time></trkpt><trkpt lat="43.9853708" lon="10.7976761"><ele>977.5</ele><time>2026-04-04T11:00:11.103Z</time></trkpt><trkpt lat="43.9854141" lon="10.7975728"><ele>977.0</ele><time>2026-04-04T11:00:12.102Z</time></trkpt><trkpt lat="43.9854372" lon="10.7974352"><ele>976.4999999999999</ele><time>2026-04-04T11:00:13.103Z</time></trkpt><trkpt lat="43.9854748" lon="10.7973014"><ele>976.0</ele><time>2026-04-04T11:00:14.103Z</time></trkpt><trkpt lat="43.9854788" lon="10.7971445"><ele>977.25</ele><time>2026-04-04T11:00:15.103Z</time></trkpt><trkpt lat="43.9855079" lon="10.7969909"><ele>978.5</ele><time>2026-04-04T11:00:16.103Z</time></trkpt><trkpt lat="43.9855317" lon="10.7968296"><ele>979.75</ele><time>2026-04-04T11:00:17.103Z</time></trkpt><trkpt lat="43.9855838" lon="10.7966699"><ele>981.0</ele><time>2026-04-04T11:00:18.102Z</time></trkpt><trkpt lat="43.9856211" lon="10.7965204"><ele>981.0</ele><time>2026-04-04T11:00:19.103Z</time></trkpt><trkpt lat="43.9856404" lon="10.7963904"><ele>980.9999999999999</ele><time>2026-04-04T11:00:20.103Z</time></trkpt><trkpt lat="43.985632" lon="10.7962664"><ele>980.9999999999999</ele><time>2026-04-04T11:00:21.103Z</time></trkpt><trkpt lat="43.9855995" lon="10.7961618"><ele>981.0</ele><time>2026-04-04T11:00:22.102Z</time></trkpt><trkpt lat="43.9855395" lon="10.7960607"><ele>981.0</ele><time>2026-04-04T11:00:23.103Z</time></trkpt><trkpt lat="43.985456" lon="10.7959604"><ele>980.0</ele><time>2026-04-04T11:00:24.102Z</time></trkpt><trkpt lat="43.9853646" lon="10.7958509"><ele>979.0</ele><time>2026-04-04T11:00:25.103Z</time></trkpt><trkpt lat="43.9852685" lon="10.795747"><ele>978.0</ele><time>2026-04-04T11:00:26.103Z</time></trkpt><trkpt lat="43.9851645" lon="10.7956594"><ele>977.0</ele><time>2026-04-04T11:00:27.102Z</time></trkpt><trkpt lat="43.9850493" lon="10.7956122"><ele>980.2</ele><time>2026-04-04T11:00:28.103Z</time></trkpt><trkpt lat="43.9849432" lon="10.7955775"><ele>983.4000000000001</ele><time>2026-04-04T11:00:29.102Z</time></trkpt><trkpt lat="43.9848443" lon="10.7955711"><ele>986.5999999999999</ele><time>2026-04-04T11:00:30.101Z</time></trkpt><trkpt lat="43.9847286" lon="10.795553"><ele>989.8</ele><time>2026-04-04T11:00:31.101Z</time></trkpt><trkpt lat="43.9846302" lon="10.7955084"><ele>993.0</ele><time>2026-04-04T11:00:32.102Z</time></trkpt><trkpt lat="43.9845413" lon="10.7954385"><ele>993.0</ele><time>2026-04-04T11:00:33.101Z</time></trkpt><trkpt lat="43.984476" lon="10.7953478"><ele>993.0</ele><time>2026-04-04T11:00:34.102Z</time></trkpt><trkpt lat="43.984437" lon="10.7951932"><ele>993.0</ele><time>2026-04-04T11:00:35.103Z</time></trkpt><trkpt lat="43.9844035" lon="10.7950562"><ele>993.0</ele><time>2026-04-04T11:00:36.102Z</time></trkpt><trkpt lat="43.9844136" lon="10.7948871"><ele>993.0</ele><time>2026-04-04T11:00:37.102Z</time></trkpt><trkpt lat="43.9844385" lon="10.7947433"><ele>992.2</ele><time>2026-04-04T11:00:38.101Z</time></trkpt><trkpt lat="43.9844852" lon="10.7945972"><ele>991.4</ele><time>2026-04-04T11:00:39.102Z</time></trkpt><trkpt lat="43.9845417" lon="10.7944898"><ele>990.6000000000001</ele><time>2026-04-04T11:00:40.102Z</time></trkpt><trkpt lat="43.9846403" lon="10.7943802"><ele>989.8000000000001</ele><time>2026-04-04T11:00:41.103Z</time></trkpt><trkpt lat="43.9847395" lon="10.7943068"><ele>989.0</ele><time>2026-04-04T11:00:42.101Z</time></trkpt><trkpt lat="43.9848732" lon="10.7942476"><ele>988.25</ele><time>2026-04-04T11:00:43.101Z</time></trkpt><trkpt lat="43.9849794" lon="10.7941434"><ele>987.5</ele><time>2026-04-04T11:00:44.102Z</time></trkpt><trkpt lat="43.9850723" lon="10.7940026"><ele>986.75</ele><time>2026-04-04T11:00:45.101Z</time></trkpt><trkpt lat="43.9851662" lon="10.7938765"><ele>986.0</ele><time>2026-04-04T11:00:46.101Z</time></trkpt><trkpt lat="43.9852461" lon="10.7937631"><ele>986.0</ele><time>2026-04-04T11:00:47.102Z</time></trkpt><trkpt lat="43.9853315" lon="10.7936457"><ele>985.9999999999999</ele><time>2026-04-04T11:00:48.101Z</time></trkpt><trkpt lat="43.9854064" lon="10.7935348"><ele>985.9999999999999</ele><time>2026-04-04T11:00:49.102Z</time></trkpt><trkpt lat="43.9854856" lon="10.7934494"><ele>986.0</ele><time>2026-04-04T11:00:50.102Z</time></trkpt><trkpt lat="43.9855619" lon="10.793358"><ele>986.0</ele><time>2026-04-04T11:00:51.102Z</time></trkpt><trkpt lat="43.9856438" lon="10.7932729"><ele>987.0</ele><time>2026-04-04T11:00:52.102Z</time></trkpt><trkpt lat="43.9857229" lon="10.7931852"><ele>987.9999999999999</ele><time>2026-04-04T11:00:53.102Z</time></trkpt><trkpt lat="43.985797" lon="10.7930829"><ele>988.9999999999999</ele><time>2026-04-04T11:00:54.101Z</time></trkpt><trkpt lat="43.9858409" lon="10.7929254"><ele>990.0</ele><time>2026-04-04T11:00:55.102Z</time></trkpt><trkpt lat="43.9858991" lon="10.7927922"><ele>991.0</ele><time>2026-04-04T11:00:56.102Z</time></trkpt><trkpt lat="43.9859566" lon="10.7926557"><ele>991.0</ele><time>2026-04-04T11:00:57.102Z</time></trkpt><trkpt lat="43.9860125" lon="10.7925247"><ele>990.9999999999999</ele><time>2026-04-04T11:00:58.101Z</time></trkpt><trkpt lat="43.9860494" lon="10.7923891"><ele>990.9999999999999</ele><time>2026-04-04T11:00:59.101Z</time></trkpt><trkpt lat="43.9860541" lon="10.7922661"><ele>991.0</ele><time>2026-04-04T11:01:00.102Z</time></trkpt><trkpt lat="43.9860647" lon="10.7921404"><ele>991.0</ele><time>2026-04-04T11:01:01.102Z</time></trkpt><trkpt lat="43.986038" lon="10.7920146"><ele>991.0</ele><time>2026-04-04T11:01:02.102Z</time></trkpt><trkpt lat="43.9860072" lon="10.791888"><ele>990.9999999999999</ele><time>2026-04-04T11:01:03.102Z</time></trkpt><trkpt lat="43.9858918" lon="10.7918394"><ele>990.9999999999999</ele><time>2026-04-04T11:01:04.101Z</time></trkpt><trkpt lat="43.9858312" lon="10.7917476"><ele>991.0</ele><time>2026-04-04T11:01:05.101Z</time></trkpt><trkpt lat="43.9857903" lon="10.7916265"><ele>991.0</ele><time>2026-04-04T11:01:06.102Z</time></trkpt><trkpt lat="43.9857539" lon="10.7915062"><ele>991.1999999999999</ele><time>2026-04-04T11:01:07.102Z</time></trkpt><trkpt lat="43.9857235" lon="10.7913816"><ele>991.3999999999999</ele><time>2026-04-04T11:01:08.102Z</time></trkpt><trkpt lat="43.98571" lon="10.7912361"><ele>991.6</ele><time>2026-04-04T11:01:09.102Z</time></trkpt><trkpt lat="43.9857" lon="10.7910848"><ele>991.8</ele><time>2026-04-04T11:01:10.103Z</time></trkpt><trkpt lat="43.9856673" lon="10.7909392"><ele>992.0</ele><time>2026-04-04T11:01:11.101Z</time></trkpt><trkpt lat="43.9856745" lon="10.7908145"><ele>992.0</ele><time>2026-04-04T11:01:12.102Z</time></trkpt><trkpt lat="43.9856898" lon="10.7906356"><ele>992.0</ele><time>2026-04-04T11:01:13.102Z</time></trkpt><trkpt lat="43.9857036" lon="10.7905099"><ele>992.0</ele><time>2026-04-04T11:01:14.102Z</time></trkpt><trkpt lat="43.98572" lon="10.7903611"><ele>992.0</ele><time>2026-04-04T11:01:15.102Z</time></trkpt><trkpt lat="43.9857733" lon="10.7902285"><ele>992.0</ele><time>2026-04-04T11:01:16.102Z</time></trkpt><trkpt lat="43.9858161" lon="10.7900963"><ele>989.6</ele><time>2026-04-04T11:01:17.102Z</time></trkpt><trkpt lat="43.9858768" lon="10.7899519"><ele>987.2</ele><time>2026-04-04T11:01:18.102Z</time></trkpt><trkpt lat="43.9859067" lon="10.7898122"><ele>984.8</ele><time>2026-04-04T11:01:19.102Z</time></trkpt><trkpt lat="43.9859636" lon="10.7896823"><ele>982.4</ele><time>2026-04-04T11:01:20.102Z</time></trkpt><trkpt lat="43.9860369" lon="10.7895638"><ele>980.0</ele><time>2026-04-04T11:01:21.101Z</time></trkpt><trkpt lat="43.9861393" lon="10.7894937"><ele>980.0</ele><time>2026-04-04T11:01:22.101Z</time></trkpt><trkpt lat="43.9862266" lon="10.7894126"><ele>980.0</ele><time>2026-04-04T11:01:23.101Z</time></trkpt><trkpt lat="43.9863218" lon="10.7893382"><ele>980.0</ele><time>2026-04-04T11:01:24.101Z</time></trkpt><trkpt lat="43.9864078" lon="10.7892624"><ele>980.0</ele><time>2026-04-04T11:01:25.102Z</time></trkpt><trkpt lat="43.9864966" lon="10.7891988"><ele>980.0</ele><time>2026-04-04T11:01:26.102Z</time></trkpt><trkpt lat="43.9865945" lon="10.7891189"><ele>981.0</ele><time>2026-04-04T11:01:27.101Z</time></trkpt><trkpt lat="43.9866876" lon="10.7890471"><ele>982.0</ele><time>2026-04-04T11:01:28.102Z</time></trkpt><trkpt lat="43.9867748" lon="10.7890183"><ele>983.0</ele><time>2026-04-04T11:01:29.102Z</time></trkpt><trkpt lat="43.9868657" lon="10.7890109"><ele>984.0</ele><time>2026-04-04T11:01:30.102Z</time></trkpt><trkpt lat="43.9869622" lon="10.7890267"><ele>985.0</ele><time>2026-04-04T11:01:31.101Z</time></trkpt><trkpt lat="43.9870571" lon="10.7890363"><ele>985.0</ele><time>2026-04-04T11:01:32.102Z</time></trkpt><trkpt lat="43.9871337" lon="10.7891561"><ele>985.0</ele><time>2026-04-04T11:01:33.102Z</time></trkpt><trkpt lat="43.9872062" lon="10.7892332"><ele>985.0</ele><time>2026-04-04T11:01:34.102Z</time></trkpt><trkpt lat="43.9872834" lon="10.7893064"><ele>985.0</ele><time>2026-04-04T11:01:35.101Z</time></trkpt><trkpt lat="43.9873612" lon="10.7893731"><ele>985.0</ele><time>2026-04-04T11:01:36.103Z</time></trkpt><trkpt lat="43.9874421" lon="10.7894311"><ele>984.4</ele><time>2026-04-04T11:01:37.101Z</time></trkpt><trkpt lat="43.9875299" lon="10.789434"><ele>983.8</ele><time>2026-04-04T11:01:38.102Z</time></trkpt><trkpt lat="43.987624" lon="10.7894063"><ele>983.2</ele><time>2026-04-04T11:01:39.102Z</time></trkpt><trkpt lat="43.9877562" lon="10.7893363"><ele>982.6</ele><time>2026-04-04T11:01:40.103Z</time></trkpt><trkpt lat="43.9878656" lon="10.7893359"><ele>982.0</ele><time>2026-04-04T11:01:41.102Z</time></trkpt><trkpt lat="43.9879729" lon="10.7893704"><ele>982.2</ele><time>2026-04-04T11:01:42.103Z</time></trkpt><trkpt lat="43.9880865" lon="10.7893834"><ele>982.4000000000001</ele><time>2026-04-04T11:01:43.102Z</time></trkpt><trkpt lat="43.9881825" lon="10.7893804"><ele>982.5999999999999</ele><time>2026-04-04T11:01:44.101Z</time></trkpt><trkpt lat="43.9882939" lon="10.7893519"><ele>982.8</ele><time>2026-04-04T11:01:45.102Z</time></trkpt><trkpt lat="43.9884096" lon="10.7892917"><ele>983.0</ele><time>2026-04-04T11:01:46.102Z</time></trkpt><trkpt lat="43.9883853" lon="10.7891282"><ele>983.0</ele><time>2026-04-04T11:01:47.102Z</time></trkpt><trkpt lat="43.9884398" lon="10.7890079"><ele>983.0</ele><time>2026-04-04T11:01:48.102Z</time></trkpt><trkpt lat="43.9884895" lon="10.7888868"><ele>983.0</ele><time>2026-04-04T11:01:49.102Z</time></trkpt><trkpt lat="43.9884924" lon="10.7887662"><ele>983.0</ele><time>2026-04-04T11:01:50.101Z</time></trkpt><trkpt lat="43.9884971" lon="10.7886398"><ele>983.0</ele><time>2026-04-04T11:01:51.102Z</time></trkpt><trkpt lat="43.9885076" lon="10.7885136"><ele>981.6666666666667</ele><time>2026-04-04T11:01:52.101Z</time></trkpt><trkpt lat="43.9884857" lon="10.7883798"><ele>980.3333333333334</ele><time>2026-04-04T11:01:53.102Z</time></trkpt><trkpt lat="43.9884681" lon="10.7882572"><ele>979.0</ele><time>2026-04-04T11:01:54.101Z</time></trkpt><trkpt lat="43.9884298" lon="10.7881833"><ele>977.6666666666667</ele><time>2026-04-04T11:01:55.102Z</time></trkpt><trkpt lat="43.9883959" lon="10.7880845"><ele>976.3333333333334</ele><time>2026-04-04T11:01:56.102Z</time></trkpt><trkpt lat="43.9883722" lon="10.7879713"><ele>975.0</ele><time>2026-04-04T11:01:57.102Z</time></trkpt><trkpt lat="43.9883585" lon="10.7878514"><ele>975.0</ele><time>2026-04-04T11:01:58.101Z</time></trkpt><trkpt lat="43.9883838" lon="10.7877355"><ele>975.0</ele><time>2026-04-04T11:01:59.101Z</time></trkpt><trkpt lat="43.9884125" lon="10.7876192"><ele>975.0</ele><time>2026-04-04T11:02:00.101Z</time></trkpt><trkpt lat="43.9884512" lon="10.7875037"><ele>975.0</ele><time>2026-04-04T11:02:01.102Z</time></trkpt><trkpt lat="43.988505" lon="10.7873878"><ele>975.0</ele><time>2026-04-04T11:02:02.101Z</time></trkpt><trkpt lat="43.9885539" lon="10.7872714"><ele>974.0</ele><time>2026-04-04T11:02:03.102Z</time></trkpt><trkpt lat="43.9885634" lon="10.787145"><ele>973.0</ele><time>2026-04-04T11:02:04.102Z</time></trkpt><trkpt lat="43.9885701" lon="10.7870189"><ele>972.0</ele><time>2026-04-04T11:02:05.102Z</time></trkpt><trkpt lat="43.9885988" lon="10.7868975"><ele>971.0</ele><time>2026-04-04T11:02:06.102Z</time></trkpt><trkpt lat="43.988623" lon="10.7867777"><ele>970.0</ele><time>2026-04-04T11:02:07.102Z</time></trkpt><trkpt lat="43.9886946" lon="10.7866913"><ele>969.9999999999999</ele><time>2026-04-04T11:02:08.102Z</time></trkpt><trkpt lat="43.9887532" lon="10.7866235"><ele>970.0</ele><time>2026-04-04T11:02:09.101Z</time></trkpt><trkpt lat="43.9888287" lon="10.7865571"><ele>970.0</ele><time>2026-04-04T11:02:10.101Z</time></trkpt><trkpt lat="43.9888999" lon="10.7864923"><ele>970.0</ele><time>2026-04-04T11:02:11.102Z</time></trkpt><trkpt lat="43.9889745" lon="10.7864256"><ele>969.9999999999999</ele><time>2026-04-04T11:02:12.102Z</time></trkpt><trkpt lat="43.9890395" lon="10.7863638"><ele>970.0</ele><time>2026-04-04T11:02:13.102Z</time></trkpt><trkpt lat="43.9890996" lon="10.7863166"><ele>970.0000000000001</ele><time>2026-04-04T11:02:14.102Z</time></trkpt><trkpt lat="43.9891556" lon="10.7862699"><ele>970.0</ele><time>2026-04-04T11:02:15.101Z</time></trkpt><trkpt lat="43.9892369" lon="10.7861774"><ele>970.0000000000001</ele><time>2026-04-04T11:02:17.102Z</time></trkpt><trkpt lat="43.9892913" lon="10.7861072"><ele>970.0000000000001</ele><time>2026-04-04T11:02:20.102Z</time></trkpt><trkpt lat="43.9893456" lon="10.786062"><ele>970.0</ele><time>2026-04-04T11:02:24.102Z</time></trkpt><trkpt lat="43.9894059" lon="10.7860167"><ele>970.0000000000001</ele><time>2026-04-04T11:02:37.102Z</time></trkpt><trkpt lat="43.989363" lon="10.7860878"><ele>970.0000000000001</ele><time>2026-04-04T11:03:49.103Z</time></trkpt><trkpt lat="43.989306" lon="10.7860474"><ele>972.0</ele><time>2026-04-04T11:04:06.103Z</time></trkpt><trkpt lat="43.9893048" lon="10.7858882"><ele>973.0</ele><time>2026-04-04T11:05:15.101Z</time></trkpt></trkseg><trkseg><trkpt lat="43.9894505" lon="10.7860141"><ele>972.0</ele><time>2026-04-04T12:16:42.105Z</time></trkpt><trkpt lat="43.9893994" lon="10.786069"><ele>972.0</ele><time>2026-04-04T12:17:04.105Z</time></trkpt><trkpt lat="43.9893335" lon="10.7860794"><ele>972.0</ele><time>2026-04-04T12:17:13.105Z</time></trkpt><trkpt lat="43.9892762" lon="10.786131"><ele>972.0</ele><time>2026-04-04T12:17:16.105Z</time></trkpt><trkpt lat="43.9892172" lon="10.7861945"><ele>972.0</ele><time>2026-04-04T12:19:53.105Z</time></trkpt><trkpt lat="43.9891611" lon="10.7862447"><ele>972.0</ele><time>2026-04-04T12:19:56.105Z</time></trkpt><trkpt lat="43.9890961" lon="10.7862767"><ele>972.0</ele><time>2026-04-04T12:19:59.105Z</time></trkpt><trkpt lat="43.9890324" lon="10.7863076"><ele>971.6666666666666</ele><time>2026-04-04T12:20:01.105Z</time></trkpt><trkpt lat="43.9889693" lon="10.7864006"><ele>971.3333333333333</ele><time>2026-04-04T12:20:03.104Z</time></trkpt><trkpt lat="43.9889194" lon="10.7864575"><ele>971.0</ele><time>2026-04-04T12:20:04.104Z</time></trkpt><trkpt lat="43.9888602" lon="10.7865021"><ele>970.6666666666666</ele><time>2026-04-04T12:20:05.105Z</time></trkpt><trkpt lat="43.9887982" lon="10.7865593"><ele>970.3333333333333</ele><time>2026-04-04T12:20:06.106Z</time></trkpt><trkpt lat="43.9887352" lon="10.7866239"><ele>970.0</ele><time>2026-04-04T12:20:07.105Z</time></trkpt><trkpt lat="43.9886706" lon="10.7866935"><ele>969.9999999999999</ele><time>2026-04-04T12:20:08.104Z</time></trkpt><trkpt lat="43.9886186" lon="10.7867572"><ele>970.0</ele><time>2026-04-04T12:20:09.105Z</time></trkpt><trkpt lat="43.9885897" lon="10.7868574"><ele>970.0</ele><time>2026-04-04T12:20:10.104Z</time></trkpt><trkpt lat="43.9885633" lon="10.7869642"><ele>970.0</ele><time>2026-04-04T12:20:11.106Z</time></trkpt><trkpt lat="43.9885421" lon="10.7870835"><ele>969.9999999999999</ele><time>2026-04-04T12:20:12.104Z</time></trkpt><trkpt lat="43.9885163" lon="10.7872012"><ele>970.0</ele><time>2026-04-04T12:20:13.105Z</time></trkpt><trkpt lat="43.9884935" lon="10.7873137"><ele>969.5</ele><time>2026-04-04T12:20:14.105Z</time></trkpt><trkpt lat="43.9884584" lon="10.7874521"><ele>969.0</ele><time>2026-04-04T12:20:15.104Z</time></trkpt><trkpt lat="43.9884208" lon="10.7875758"><ele>968.5</ele><time>2026-04-04T12:20:16.104Z</time></trkpt><trkpt lat="43.9883592" lon="10.787715"><ele>968.0</ele><time>2026-04-04T12:20:17.105Z</time></trkpt><trkpt lat="43.9883526" lon="10.7879008"><ele>969.4</ele><time>2026-04-04T12:20:18.105Z</time></trkpt><trkpt lat="43.9883408" lon="10.7880444"><ele>970.8</ele><time>2026-04-04T12:20:19.105Z</time></trkpt><trkpt lat="43.9883923" lon="10.7881887"><ele>972.2</ele><time>2026-04-04T12:20:20.105Z</time></trkpt><trkpt lat="43.9884054" lon="10.7883279"><ele>973.6</ele><time>2026-04-04T12:20:21.105Z</time></trkpt><trkpt lat="43.9884427" lon="10.7884817"><ele>975.0</ele><time>2026-04-04T12:20:22.106Z</time></trkpt><trkpt lat="43.9884517" lon="10.7886309"><ele>977.0</ele><time>2026-04-04T12:20:23.105Z</time></trkpt><trkpt lat="43.9884846" lon="10.7887783"><ele>979.0</ele><time>2026-04-04T12:20:24.104Z</time></trkpt><trkpt lat="43.9884121" lon="10.788924"><ele>981.0</ele><time>2026-04-04T12:20:25.105Z</time></trkpt><trkpt lat="43.9883851" lon="10.7890769"><ele>983.0</ele><time>2026-04-04T12:20:26.105Z</time></trkpt><trkpt lat="43.9883519" lon="10.7892134"><ele>982.8</ele><time>2026-04-04T12:20:27.105Z</time></trkpt><trkpt lat="43.9882906" lon="10.7893015"><ele>982.5999999999999</ele><time>2026-04-04T12:20:28.106Z</time></trkpt><trkpt lat="43.9882331" lon="10.7894141"><ele>982.4000000000001</ele><time>2026-04-04T12:20:29.105Z</time></trkpt><trkpt lat="43.9881412" lon="10.7894895"><ele>982.2</ele><time>2026-04-04T12:20:30.105Z</time></trkpt><trkpt lat="43.9880321" lon="10.7894651"><ele>982.0</ele><time>2026-04-04T12:20:31.105Z</time></trkpt><trkpt lat="43.987941" lon="10.7894237"><ele>982.6</ele><time>2026-04-04T12:20:32.105Z</time></trkpt><trkpt lat="43.9878477" lon="10.7893783"><ele>983.2</ele><time>2026-04-04T12:20:33.105Z</time></trkpt><trkpt lat="43.9877415" lon="10.7893629"><ele>983.8</ele><time>2026-04-04T12:20:34.105Z</time></trkpt><trkpt lat="43.9876239" lon="10.7893811"><ele>984.4</ele><time>2026-04-04T12:20:35.104Z</time></trkpt><trkpt lat="43.987514" lon="10.7893844"><ele>985.0</ele><time>2026-04-04T12:20:36.105Z</time></trkpt><trkpt lat="43.9873963" lon="10.7893104"><ele>985.0</ele><time>2026-04-04T12:20:37.104Z</time></trkpt><trkpt lat="43.9872838" lon="10.7892664"><ele>985.0</ele><time>2026-04-04T12:20:38.105Z</time></trkpt><trkpt lat="43.987154" lon="10.7891972"><ele>985.0</ele><time>2026-04-04T12:20:39.104Z</time></trkpt><trkpt lat="43.9870773" lon="10.7891002"><ele>985.0</ele><time>2026-04-04T12:20:40.106Z</time></trkpt><trkpt lat="43.9869682" lon="10.7890502"><ele>985.0</ele><time>2026-04-04T12:20:41.105Z</time></trkpt><trkpt lat="43.9868502" lon="10.7889791"><ele>985.0</ele><time>2026-04-04T12:20:42.104Z</time></trkpt><trkpt lat="43.9867518" lon="10.788993"><ele>985.0</ele><time>2026-04-04T12:20:43.105Z</time></trkpt><trkpt lat="43.9866578" lon="10.7889746"><ele>985.0</ele><time>2026-04-04T12:20:44.104Z</time></trkpt><trkpt lat="43.9865739" lon="10.7890532"><ele>985.0</ele><time>2026-04-04T12:20:45.105Z</time></trkpt><trkpt lat="43.9864847" lon="10.7891402"><ele>985.6</ele><time>2026-04-04T12:20:46.105Z</time></trkpt><trkpt lat="43.9863907" lon="10.7891975"><ele>986.2</ele><time>2026-04-04T12:20:47.104Z</time></trkpt><trkpt lat="43.9863048" lon="10.7892785"><ele>986.8</ele><time>2026-04-04T12:20:48.105Z</time></trkpt><trkpt lat="43.9862201" lon="10.789346"><ele>987.4</ele><time>2026-04-04T12:20:49.104Z</time></trkpt><trkpt lat="43.9861199" lon="10.7894372"><ele>988.0</ele><time>2026-04-04T12:20:50.105Z</time></trkpt><trkpt lat="43.9860446" lon="10.7895586"><ele>986.0</ele><time>2026-04-04T12:20:51.104Z</time></trkpt><trkpt lat="43.985981" lon="10.7896834"><ele>984.0</ele><time>2026-04-04T12:20:52.104Z</time></trkpt><trkpt lat="43.9859137" lon="10.7898247"><ele>982.0</ele><time>2026-04-04T12:20:53.105Z</time></trkpt><trkpt lat="43.985867" lon="10.7899562"><ele>980.0</ele><time>2026-04-04T12:20:54.104Z</time></trkpt><trkpt lat="43.9858043" lon="10.790096"><ele>983.0</ele><time>2026-04-04T12:20:55.104Z</time></trkpt><trkpt lat="43.9857712" lon="10.7902559"><ele>986.0</ele><time>2026-04-04T12:20:56.105Z</time></trkpt><trkpt lat="43.9857287" lon="10.7904356"><ele>989.0</ele><time>2026-04-04T12:20:57.104Z</time></trkpt><trkpt lat="43.9857069" lon="10.7905828"><ele>992.0</ele><time>2026-04-04T12:20:58.105Z</time></trkpt><trkpt lat="43.9856937" lon="10.7907592"><ele>992.0</ele><time>2026-04-04T12:20:59.105Z</time></trkpt><trkpt lat="43.985702" lon="10.790899"><ele>992.0</ele><time>2026-04-04T12:21:00.105Z</time></trkpt><trkpt lat="43.9856973" lon="10.7910487"><ele>992.0</ele><time>2026-04-04T12:21:01.104Z</time></trkpt><trkpt lat="43.9856879" lon="10.7912005"><ele>992.0</ele><time>2026-04-04T12:21:02.105Z</time></trkpt><trkpt lat="43.985694" lon="10.7913824"><ele>992.0</ele><time>2026-04-04T12:21:03.105Z</time></trkpt><trkpt lat="43.9857328" lon="10.7915347"><ele>991.75</ele><time>2026-04-04T12:21:04.105Z</time></trkpt><trkpt lat="43.985816" lon="10.7916643"><ele>991.5</ele><time>2026-04-04T12:21:05.105Z</time></trkpt><trkpt lat="43.9858816" lon="10.7918025"><ele>991.25</ele><time>2026-04-04T12:21:06.104Z</time></trkpt><trkpt lat="43.9859573" lon="10.7919239"><ele>991.0</ele><time>2026-04-04T12:21:07.104Z</time></trkpt><trkpt lat="43.9860249" lon="10.7920688"><ele>991.0</ele><time>2026-04-04T12:21:08.105Z</time></trkpt><trkpt lat="43.9860487" lon="10.7922004"><ele>990.9999999999999</ele><time>2026-04-04T12:21:09.105Z</time></trkpt><trkpt lat="43.9860586" lon="10.7923314"><ele>990.9999999999999</ele><time>2026-04-04T12:21:10.105Z</time></trkpt><trkpt lat="43.9860569" lon="10.7924528"><ele>991.0</ele><time>2026-04-04T12:21:11.105Z</time></trkpt><trkpt lat="43.9860189" lon="10.7925936"><ele>991.0</ele><time>2026-04-04T12:21:12.105Z</time></trkpt><trkpt lat="43.985919" lon="10.792757"><ele>991.25</ele><time>2026-04-04T12:21:13.105Z</time></trkpt><trkpt lat="43.9858599" lon="10.7929059"><ele>991.5</ele><time>2026-04-04T12:21:14.105Z</time></trkpt><trkpt lat="43.9857857" lon="10.793045"><ele>991.75</ele><time>2026-04-04T12:21:15.104Z</time></trkpt><trkpt lat="43.985718" lon="10.7931973"><ele>992.0</ele><time>2026-04-04T12:21:16.105Z</time></trkpt><trkpt lat="43.9856172" lon="10.7933456"><ele>993.6666666666667</ele><time>2026-04-04T12:21:17.105Z</time></trkpt><trkpt lat="43.9854674" lon="10.7934603"><ele>995.3333333333333</ele><time>2026-04-04T12:21:18.104Z</time></trkpt><trkpt lat="43.985353" lon="10.7936076"><ele>997.0</ele><time>2026-04-04T12:21:19.104Z</time></trkpt><trkpt lat="43.9852516" lon="10.7937556"><ele>997.5</ele><time>2026-04-04T12:21:20.105Z</time></trkpt><trkpt lat="43.9851456" lon="10.7939163"><ele>998.0</ele><time>2026-04-04T12:21:21.105Z</time></trkpt><trkpt lat="43.9850551" lon="10.7940653"><ele>998.5</ele><time>2026-04-04T12:21:22.105Z</time></trkpt><trkpt lat="43.9849469" lon="10.7942087"><ele>999.0</ele><time>2026-04-04T12:21:23.105Z</time></trkpt><trkpt lat="43.9848313" lon="10.7943198"><ele>996.5</ele><time>2026-04-04T12:21:24.105Z</time></trkpt><trkpt lat="43.9847056" lon="10.7943688"><ele>994.0</ele><time>2026-04-04T12:21:25.105Z</time></trkpt><trkpt lat="43.9845976" lon="10.7944652"><ele>991.5</ele><time>2026-04-04T12:21:26.104Z</time></trkpt><trkpt lat="43.9844998" lon="10.7945497"><ele>989.0</ele><time>2026-04-04T12:21:27.105Z</time></trkpt><trkpt lat="43.9844403" lon="10.7946595"><ele>989.0</ele><time>2026-04-04T12:21:28.105Z</time></trkpt><trkpt lat="43.9844009" lon="10.7947629"><ele>989.0</ele><time>2026-04-04T12:21:29.105Z</time></trkpt><trkpt lat="43.9843644" lon="10.7949111"><ele>989.0</ele><time>2026-04-04T12:21:30.105Z</time></trkpt><trkpt lat="43.984379" lon="10.795104"><ele>989.0</ele><time>2026-04-04T12:21:31.105Z</time></trkpt><trkpt lat="43.9844044" lon="10.7952732"><ele>990.0</ele><time>2026-04-04T12:21:32.104Z</time></trkpt><trkpt lat="43.9845193" lon="10.7953888"><ele>991.0</ele><time>2026-04-04T12:21:33.104Z</time></trkpt><trkpt lat="43.9845884" lon="10.7955116"><ele>992.0</ele><time>2026-04-04T12:21:34.104Z</time></trkpt><trkpt lat="43.9847289" lon="10.7955449"><ele>993.0</ele><time>2026-04-04T12:21:35.104Z</time></trkpt><trkpt lat="43.9848643" lon="10.7955654"><ele>993.0</ele><time>2026-04-04T12:21:36.104Z</time></trkpt><trkpt lat="43.9849947" lon="10.7955994"><ele>993.0</ele><time>2026-04-04T12:21:37.105Z</time></trkpt><trkpt lat="43.9851172" lon="10.7956682"><ele>993.0</ele><time>2026-04-04T12:21:38.104Z</time></trkpt><trkpt lat="43.9852531" lon="10.7957538"><ele>993.0</ele><time>2026-04-04T12:21:39.105Z</time></trkpt><trkpt lat="43.9853713" lon="10.7958837"><ele>990.0</ele><time>2026-04-04T12:21:40.105Z</time></trkpt><trkpt lat="43.9854971" lon="10.7959974"><ele>987.0</ele><time>2026-04-04T12:21:41.106Z</time></trkpt><trkpt lat="43.9855635" lon="10.7961284"><ele>984.0</ele><time>2026-04-04T12:21:42.104Z</time></trkpt><trkpt lat="43.9856155" lon="10.7962529"><ele>981.0</ele><time>2026-04-04T12:21:43.104Z</time></trkpt><trkpt lat="43.9856254" lon="10.7963892"><ele>981.0</ele><time>2026-04-04T12:21:44.105Z</time></trkpt><trkpt lat="43.9856046" lon="10.796537"><ele>981.0</ele><time>2026-04-04T12:21:45.105Z</time></trkpt><trkpt lat="43.9855635" lon="10.7967122"><ele>981.0</ele><time>2026-04-04T12:21:46.104Z</time></trkpt><trkpt lat="43.9855209" lon="10.7968874"><ele>981.0</ele><time>2026-04-04T12:21:47.105Z</time></trkpt><trkpt lat="43.9854895" lon="10.7970659"><ele>981.25</ele><time>2026-04-04T12:21:48.105Z</time></trkpt><trkpt lat="43.9854694" lon="10.7972168"><ele>981.5</ele><time>2026-04-04T12:21:49.104Z</time></trkpt><trkpt lat="43.985436" lon="10.7973859"><ele>981.75</ele><time>2026-04-04T12:21:50.106Z</time></trkpt><trkpt lat="43.9853963" lon="10.7975072"><ele>982.0</ele><time>2026-04-04T12:21:51.104Z</time></trkpt><trkpt lat="43.9853316" lon="10.7976452"><ele>981.25</ele><time>2026-04-04T12:21:52.105Z</time></trkpt><trkpt lat="43.9852574" lon="10.7977836"><ele>980.5</ele><time>2026-04-04T12:21:53.104Z</time></trkpt><trkpt lat="43.9851172" lon="10.7978707"><ele>979.75</ele><time>2026-04-04T12:21:54.105Z</time></trkpt><trkpt lat="43.9850122" lon="10.7979702"><ele>979.0</ele><time>2026-04-04T12:21:55.105Z</time></trkpt><trkpt lat="43.9849128" lon="10.7980274"><ele>979.0</ele><time>2026-04-04T12:21:56.105Z</time></trkpt><trkpt lat="43.9848177" lon="10.7981099"><ele>979.0000000000001</ele><time>2026-04-04T12:21:57.105Z</time></trkpt><trkpt lat="43.9847322" lon="10.798185"><ele>979.0000000000001</ele><time>2026-04-04T12:21:58.106Z</time></trkpt><trkpt lat="43.9847013" lon="10.7982769"><ele>979.0</ele><time>2026-04-04T12:21:59.105Z</time></trkpt><trkpt lat="43.9847303" lon="10.7984207"><ele>979.0</ele><time>2026-04-04T12:22:01.104Z</time></trkpt><trkpt lat="43.9848338" lon="10.7985216"><ele>977.5</ele><time>2026-04-04T12:22:03.104Z</time></trkpt><trkpt lat="43.984967" lon="10.7985359"><ele>976.0</ele><time>2026-04-04T12:22:04.105Z</time></trkpt><trkpt lat="43.9850902" lon="10.7985984"><ele>974.5</ele><time>2026-04-04T12:22:05.104Z</time></trkpt><trkpt lat="43.9851906" lon="10.7986627"><ele>973.0</ele><time>2026-04-04T12:22:06.105Z</time></trkpt><trkpt lat="43.985278" lon="10.7987633"><ele>971.5</ele><time>2026-04-04T12:22:07.104Z</time></trkpt><trkpt lat="43.9852634" lon="10.7989522"><ele>970.0</ele><time>2026-04-04T12:22:08.105Z</time></trkpt><trkpt lat="43.9852751" lon="10.7990993"><ele>968.5</ele><time>2026-04-04T12:22:09.105Z</time></trkpt><trkpt lat="43.9852858" lon="10.7992541"><ele>967.0</ele><time>2026-04-04T12:22:10.104Z</time></trkpt><trkpt lat="43.9853008" lon="10.7994165"><ele>965.0</ele><time>2026-04-04T12:22:11.105Z</time></trkpt><trkpt lat="43.9853612" lon="10.7995663"><ele>963.0</ele><time>2026-04-04T12:22:12.105Z</time></trkpt><trkpt lat="43.9854867" lon="10.7996777"><ele>961.0</ele><time>2026-04-04T12:22:13.104Z</time></trkpt><trkpt lat="43.9855532" lon="10.7997744"><ele>959.0</ele><time>2026-04-04T12:22:14.105Z</time></trkpt><trkpt lat="43.9856187" lon="10.7998599"><ele>959.0000000000001</ele><time>2026-04-04T12:22:15.104Z</time></trkpt><trkpt lat="43.9856737" lon="10.7999367"><ele>959.0</ele><time>2026-04-04T12:22:16.105Z</time></trkpt><trkpt lat="43.9857246" lon="10.8000055"><ele>959.0</ele><time>2026-04-04T12:22:17.104Z</time></trkpt><trkpt lat="43.9857771" lon="10.800062"><ele>959.0</ele><time>2026-04-04T12:22:18.105Z</time></trkpt><trkpt lat="43.9858445" lon="10.8001531"><ele>959.0000000000001</ele><time>2026-04-04T12:22:20.105Z</time></trkpt><trkpt lat="43.9858835" lon="10.8002565"><ele>959.0</ele><time>2026-04-04T12:22:23.104Z</time></trkpt><trkpt lat="43.9858402" lon="10.8003365"><ele>958.8000000000001</ele><time>2026-04-04T12:22:26.105Z</time></trkpt><trkpt lat="43.9858281" lon="10.800423"><ele>958.6000000000001</ele><time>2026-04-04T12:22:29.104Z</time></trkpt><trkpt lat="43.9858693" lon="10.8005363"><ele>958.4</ele><time>2026-04-04T12:24:33.105Z</time></trkpt><trkpt lat="43.9858963" lon="10.80068"><ele>958.2</ele><time>2026-04-04T12:24:35.105Z</time></trkpt><trkpt lat="43.9859038" lon="10.8008509"><ele>958.0</ele><time>2026-04-04T12:24:37.105Z</time></trkpt><trkpt lat="43.9858685" lon="10.8010182"><ele>957.9999999999999</ele><time>2026-04-04T12:24:39.104Z</time></trkpt><trkpt lat="43.9858488" lon="10.8011103"><ele>958.0</ele><time>2026-04-04T12:24:40.104Z</time></trkpt><trkpt lat="43.985837" lon="10.8011967"><ele>958.0</ele><time>2026-04-04T12:24:41.103Z</time></trkpt><trkpt lat="43.985841" lon="10.8013294"><ele>958.0</ele><time>2026-04-04T12:24:43.103Z</time></trkpt><trkpt lat="43.9859307" lon="10.8013858"><ele>957.9999999999999</ele><time>2026-04-04T12:24:44.104Z</time></trkpt><trkpt lat="43.9859818" lon="10.8014383"><ele>958.0</ele><time>2026-04-04T12:24:45.103Z</time></trkpt><trkpt lat="43.9860515" lon="10.8013945"><ele>961.8</ele><time>2026-04-04T12:24:46.104Z</time></trkpt><trkpt lat="43.986195" lon="10.8014512"><ele>965.5999999999999</ele><time>2026-04-04T12:24:48.104Z</time></trkpt><trkpt lat="43.9862695" lon="10.8014724"><ele>969.4000000000001</ele><time>2026-04-04T12:24:49.103Z</time></trkpt><trkpt lat="43.9863839" lon="10.8015225"><ele>973.2</ele><time>2026-04-04T12:24:51.103Z</time></trkpt><trkpt lat="43.9864576" lon="10.8015476"><ele>977.0</ele><time>2026-04-04T12:24:52.104Z</time></trkpt><trkpt lat="43.9865211" lon="10.8015921"><ele>977.0000000000001</ele><time>2026-04-04T12:24:53.104Z</time></trkpt><trkpt lat="43.9865878" lon="10.8016299"><ele>977.0</ele><time>2026-04-04T12:24:54.103Z</time></trkpt><trkpt lat="43.9866586" lon="10.801663"><ele>977.0</ele><time>2026-04-04T12:24:55.104Z</time></trkpt><trkpt lat="43.9867122" lon="10.8017091"><ele>977.0</ele><time>2026-04-04T12:24:56.103Z</time></trkpt><trkpt lat="43.9867796" lon="10.8017535"><ele>977.0000000000001</ele><time>2026-04-04T12:24:57.104Z</time></trkpt><trkpt lat="43.986847" lon="10.8017757"><ele>977.0</ele><time>2026-04-04T12:24:58.103Z</time></trkpt><trkpt lat="43.986953" lon="10.8018813"><ele>978.8333333333334</ele><time>2026-04-04T12:25:00.104Z</time></trkpt><trkpt lat="43.9870073" lon="10.8019368"><ele>980.6666666666667</ele><time>2026-04-04T12:25:01.103Z</time></trkpt><trkpt lat="43.9870592" lon="10.8019994"><ele>982.5</ele><time>2026-04-04T12:25:02.104Z</time></trkpt><trkpt lat="43.9871335" lon="10.8020897"><ele>984.3333333333333</ele><time>2026-04-04T12:25:03.103Z</time></trkpt><trkpt lat="43.9872023" lon="10.8021492"><ele>986.1666666666666</ele><time>2026-04-04T12:25:04.103Z</time></trkpt><trkpt lat="43.9872446" lon="10.8022177"><ele>988.0</ele><time>2026-04-04T12:25:05.104Z</time></trkpt><trkpt lat="43.9873113" lon="10.802292"><ele>988.0</ele><time>2026-04-04T12:25:06.104Z</time></trkpt><trkpt lat="43.9873437" lon="10.8024167"><ele>988.0</ele><time>2026-04-04T12:25:07.104Z</time></trkpt><trkpt lat="43.9874004" lon="10.8025304"><ele>988.0</ele><time>2026-04-04T12:25:08.104Z</time></trkpt><trkpt lat="43.987448" lon="10.8026449"><ele>988.0</ele><time>2026-04-04T12:25:09.105Z</time></trkpt><trkpt lat="43.9875125" lon="10.8027504"><ele>988.0</ele><time>2026-04-04T12:25:10.104Z</time></trkpt><trkpt lat="43.9875716" lon="10.8028617"><ele>987.8333333333333</ele><time>2026-04-04T12:25:11.104Z</time></trkpt><trkpt lat="43.9876279" lon="10.8029527"><ele>987.6666666666666</ele><time>2026-04-04T12:25:12.104Z</time></trkpt><trkpt lat="43.9876602" lon="10.8030483"><ele>987.5</ele><time>2026-04-04T12:25:13.103Z</time></trkpt><trkpt lat="43.9876978" lon="10.8031565"><ele>987.3333333333333</ele><time>2026-04-04T12:25:14.103Z</time></trkpt><trkpt lat="43.9877306" lon="10.8032727"><ele>987.1666666666666</ele><time>2026-04-04T12:25:15.104Z</time></trkpt><trkpt lat="43.9877656" lon="10.8033872"><ele>987.0</ele><time>2026-04-04T12:25:16.103Z</time></trkpt><trkpt lat="43.987777" lon="10.803509"><ele>990.5</ele><time>2026-04-04T12:25:17.104Z</time></trkpt><trkpt lat="43.9877748" lon="10.8036304"><ele>994.0</ele><time>2026-04-04T12:25:18.103Z</time></trkpt><trkpt lat="43.9877405" lon="10.8037458"><ele>997.5</ele><time>2026-04-04T12:25:19.104Z</time></trkpt><trkpt lat="43.9877389" lon="10.8038414"><ele>1001.0</ele><time>2026-04-04T12:25:20.104Z</time></trkpt><trkpt lat="43.9877562" lon="10.8039386"><ele>1004.5</ele><time>2026-04-04T12:25:21.104Z</time></trkpt><trkpt lat="43.9878691" lon="10.8040053"><ele>1008.0</ele><time>2026-04-04T12:25:23.104Z</time></trkpt><trkpt lat="43.9879863" lon="10.8039727"><ele>1008.0</ele><time>2026-04-04T12:25:24.104Z</time></trkpt><trkpt lat="43.9880664" lon="10.803962"><ele>1008.0</ele><time>2026-04-04T12:25:25.105Z</time></trkpt><trkpt lat="43.9881318" lon="10.8039568"><ele>1008.0</ele><time>2026-04-04T12:25:26.103Z</time></trkpt><trkpt lat="43.9882064" lon="10.8039556"><ele>1008.0</ele><time>2026-04-04T12:25:27.104Z</time></trkpt><trkpt lat="43.9882647" lon="10.804007"><ele>1008.0</ele><time>2026-04-04T12:25:28.104Z</time></trkpt><trkpt lat="43.9883269" lon="10.8040711"><ele>1008.0</ele><time>2026-04-04T12:25:29.103Z</time></trkpt><trkpt lat="43.9883832" lon="10.8041484"><ele>1008.0</ele><time>2026-04-04T12:25:30.104Z</time></trkpt><trkpt lat="43.9884253" lon="10.8042528"><ele>1012.0</ele><time>2026-04-04T12:25:31.105Z</time></trkpt><trkpt lat="43.9884785" lon="10.8043627"><ele>1016.0</ele><time>2026-04-04T12:25:32.103Z</time></trkpt><trkpt lat="43.9885223" lon="10.8044918"><ele>1020.0</ele><time>2026-04-04T12:25:33.103Z</time></trkpt><trkpt lat="43.9885683" lon="10.8046097"><ele>1024.0</ele><time>2026-04-04T12:25:34.104Z</time></trkpt><trkpt lat="43.9886287" lon="10.8047024"><ele>1028.0</ele><time>2026-04-04T12:25:35.104Z</time></trkpt><trkpt lat="43.9886888" lon="10.8047862"><ele>1028.0</ele><time>2026-04-04T12:25:36.104Z</time></trkpt><trkpt lat="43.988751" lon="10.8048611"><ele>1028.0</ele><time>2026-04-04T12:25:37.104Z</time></trkpt><trkpt lat="43.9888428" lon="10.8048934"><ele>1028.0</ele><time>2026-04-04T12:25:38.103Z</time></trkpt><trkpt lat="43.9889247" lon="10.8049461"><ele>1028.0</ele><time>2026-04-04T12:25:39.104Z</time></trkpt><trkpt lat="43.9890277" lon="10.8049866"><ele>1028.0</ele><time>2026-04-04T12:25:40.104Z</time></trkpt><trkpt lat="43.9891131" lon="10.8049836"><ele>1028.4</ele><time>2026-04-04T12:25:41.103Z</time></trkpt><trkpt lat="43.9891994" lon="10.8050018"><ele>1028.8</ele><time>2026-04-04T12:25:42.104Z</time></trkpt><trkpt lat="43.989276" lon="10.8050148"><ele>1029.2</ele><time>2026-04-04T12:25:43.104Z</time></trkpt><trkpt lat="43.9893634" lon="10.8050503"><ele>1029.6</ele><time>2026-04-04T12:25:44.104Z</time></trkpt><trkpt lat="43.9894577" lon="10.8051298"><ele>1030.0</ele><time>2026-04-04T12:25:45.103Z</time></trkpt><trkpt lat="43.9895485" lon="10.8051785"><ele>1030.8</ele><time>2026-04-04T12:25:46.104Z</time></trkpt><trkpt lat="43.9896357" lon="10.8052428"><ele>1031.6</ele><time>2026-04-04T12:25:47.104Z</time></trkpt><trkpt lat="43.9897251" lon="10.805315"><ele>1032.4</ele><time>2026-04-04T12:25:48.104Z</time></trkpt><trkpt lat="43.9898039" lon="10.8053915"><ele>1033.2</ele><time>2026-04-04T12:25:49.104Z</time></trkpt><trkpt lat="43.9898643" lon="10.805487"><ele>1034.0</ele><time>2026-04-04T12:25:50.104Z</time></trkpt><trkpt lat="43.9899373" lon="10.8056003"><ele>1034.0</ele><time>2026-04-04T12:25:51.104Z</time></trkpt><trkpt lat="43.9900036" lon="10.8057175"><ele>1034.0</ele><time>2026-04-04T12:25:52.104Z</time></trkpt><trkpt lat="43.9900604" lon="10.8058186"><ele>1034.0</ele><time>2026-04-04T12:25:53.104Z</time></trkpt><trkpt lat="43.9901292" lon="10.805914"><ele>1034.0</ele><time>2026-04-04T12:25:54.104Z</time></trkpt><trkpt lat="43.9902062" lon="10.8060134"><ele>1034.0</ele><time>2026-04-04T12:25:55.103Z</time></trkpt><trkpt lat="43.9902991" lon="10.806103"><ele>1032.8</ele><time>2026-04-04T12:25:56.104Z</time></trkpt><trkpt lat="43.9903911" lon="10.8061899"><ele>1031.6000000000001</ele><time>2026-04-04T12:25:57.104Z</time></trkpt><trkpt lat="43.9905045" lon="10.8062821"><ele>1030.4</ele><time>2026-04-04T12:25:58.104Z</time></trkpt><trkpt lat="43.9905934" lon="10.8063144"><ele>1029.2</ele><time>2026-04-04T12:25:59.105Z</time></trkpt><trkpt lat="43.990658" lon="10.8063687"><ele>1028.0</ele><time>2026-04-04T12:26:00.104Z</time></trkpt><trkpt lat="43.990741" lon="10.806422"><ele>1030.0</ele><time>2026-04-04T12:26:01.103Z</time></trkpt><trkpt lat="43.9908551" lon="10.8064975"><ele>1032.0</ele><time>2026-04-04T12:26:03.103Z</time></trkpt><trkpt lat="43.9909413" lon="10.8065667"><ele>1034.0</ele><time>2026-04-04T12:26:04.104Z</time></trkpt><trkpt lat="43.9910334" lon="10.8065752"><ele>1036.0</ele><time>2026-04-04T12:26:05.103Z</time></trkpt><trkpt lat="43.9911629" lon="10.8066263"><ele>1036.0</ele><time>2026-04-04T12:26:07.104Z</time></trkpt><trkpt lat="43.9912536" lon="10.8066827"><ele>1036.0</ele><time>2026-04-04T12:26:08.104Z</time></trkpt><trkpt lat="43.9913434" lon="10.8067473"><ele>1036.0</ele><time>2026-04-04T12:26:09.103Z</time></trkpt><trkpt lat="43.9914098" lon="10.8068658"><ele>1036.0</ele><time>2026-04-04T12:26:10.104Z</time></trkpt><trkpt lat="43.99144" lon="10.806976"><ele>1036.0</ele><time>2026-04-04T12:26:11.103Z</time></trkpt><trkpt lat="43.9914372" lon="10.8071129"><ele>1034.0</ele><time>2026-04-04T12:26:12.104Z</time></trkpt><trkpt lat="43.9914567" lon="10.8072419"><ele>1032.0</ele><time>2026-04-04T12:26:13.104Z</time></trkpt><trkpt lat="43.9914627" lon="10.8073634"><ele>1030.0</ele><time>2026-04-04T12:26:14.103Z</time></trkpt><trkpt lat="43.9914843" lon="10.8074969"><ele>1028.0</ele><time>2026-04-04T12:26:15.104Z</time></trkpt><trkpt lat="43.9915417" lon="10.8076198"><ele>1026.0</ele><time>2026-04-04T12:26:16.103Z</time></trkpt><trkpt lat="43.9916112" lon="10.8077232"><ele>1026.5</ele><time>2026-04-04T12:26:17.104Z</time></trkpt><trkpt lat="43.9916902" lon="10.8078093"><ele>1027.0</ele><time>2026-04-04T12:26:18.103Z</time></trkpt><trkpt lat="43.9917674" lon="10.8078554"><ele>1027.5</ele><time>2026-04-04T12:26:19.104Z</time></trkpt><trkpt lat="43.9918536" lon="10.8078664"><ele>1028.0</ele><time>2026-04-04T12:26:20.104Z</time></trkpt><trkpt lat="43.9919347" lon="10.8078684"><ele>1028.5</ele><time>2026-04-04T12:26:21.103Z</time></trkpt><trkpt lat="43.9920027" lon="10.8078663"><ele>1029.0</ele><time>2026-04-04T12:26:22.105Z</time></trkpt><trkpt lat="43.992082" lon="10.8078521"><ele>1029.0</ele><time>2026-04-04T12:26:23.104Z</time></trkpt><trkpt lat="43.9921615" lon="10.8078394"><ele>1029.0</ele><time>2026-04-04T12:26:24.103Z</time></trkpt><trkpt lat="43.9922578" lon="10.80785"><ele>1029.0</ele><time>2026-04-04T12:26:25.104Z</time></trkpt><trkpt lat="43.9923472" lon="10.8078744"><ele>1029.0</ele><time>2026-04-04T12:26:26.104Z</time></trkpt><trkpt lat="43.9924336" lon="10.8079162"><ele>1029.0</ele><time>2026-04-04T12:26:27.105Z</time></trkpt><trkpt lat="43.9925176" lon="10.8079658"><ele>1029.5</ele><time>2026-04-04T12:26:28.103Z</time></trkpt><trkpt lat="43.9925674" lon="10.8080638"><ele>1030.0</ele><time>2026-04-04T12:26:29.104Z</time></trkpt><trkpt lat="43.9926078" lon="10.8081353"><ele>1030.5</ele><time>2026-04-04T12:26:30.103Z</time></trkpt><trkpt lat="43.9926576" lon="10.8082042"><ele>1031.0</ele><time>2026-04-04T12:26:31.104Z</time></trkpt><trkpt lat="43.9927224" lon="10.8082705"><ele>1031.5</ele><time>2026-04-04T12:26:32.104Z</time></trkpt><trkpt lat="43.9928364" lon="10.8083539"><ele>1032.0</ele><time>2026-04-04T12:26:34.104Z</time></trkpt><trkpt lat="43.9929073" lon="10.8083933"><ele>1032.0</ele><time>2026-04-04T12:26:35.104Z</time></trkpt><trkpt lat="43.9930458" lon="10.8084485"><ele>1032.0</ele><time>2026-04-04T12:26:37.103Z</time></trkpt><trkpt lat="43.9931643" lon="10.8084709"><ele>1032.0</ele><time>2026-04-04T12:26:38.104Z</time></trkpt><trkpt lat="43.9932742" lon="10.8084848"><ele>1032.0</ele><time>2026-04-04T12:26:39.103Z</time></trkpt><trkpt lat="43.9933689" lon="10.8085009"><ele>1032.8</ele><time>2026-04-04T12:26:40.104Z</time></trkpt><trkpt lat="43.9934493" lon="10.8085169"><ele>1033.6</ele><time>2026-04-04T12:26:41.104Z</time></trkpt><trkpt lat="43.9935389" lon="10.8084978"><ele>1034.3999999999999</ele><time>2026-04-04T12:26:42.104Z</time></trkpt><trkpt lat="43.9936533" lon="10.8084419"><ele>1035.2</ele><time>2026-04-04T12:26:43.103Z</time></trkpt><trkpt lat="43.9937406" lon="10.8084343"><ele>1036.0</ele><time>2026-04-04T12:26:44.103Z</time></trkpt><trkpt lat="43.9938241" lon="10.8083962"><ele>1036.0</ele><time>2026-04-04T12:26:45.104Z</time></trkpt><trkpt lat="43.9939084" lon="10.8083535"><ele>1036.0</ele><time>2026-04-04T12:26:46.104Z</time></trkpt><trkpt lat="43.9939689" lon="10.8082605"><ele>1036.0</ele><time>2026-04-04T12:26:47.104Z</time></trkpt><trkpt lat="43.9940543" lon="10.8081899"><ele>1036.0</ele><time>2026-04-04T12:26:48.104Z</time></trkpt><trkpt lat="43.9941458" lon="10.8081545"><ele>1036.0</ele><time>2026-04-04T12:26:49.103Z</time></trkpt><trkpt lat="43.9942171" lon="10.8081356"><ele>1036.0</ele><time>2026-04-04T12:26:50.104Z</time></trkpt><trkpt lat="43.9942929" lon="10.808124"><ele>1037.1666666666665</ele><time>2026-04-04T12:26:51.104Z</time></trkpt><trkpt lat="43.9943637" lon="10.8080644"><ele>1038.3333333333333</ele><time>2026-04-04T12:26:52.105Z</time></trkpt><trkpt lat="43.9944478" lon="10.8080406"><ele>1039.5</ele><time>2026-04-04T12:26:53.104Z</time></trkpt><trkpt lat="43.9945291" lon="10.8080141"><ele>1040.6666666666667</ele><time>2026-04-04T12:26:54.104Z</time></trkpt><trkpt lat="43.9946056" lon="10.8080226"><ele>1041.8333333333335</ele><time>2026-04-04T12:26:55.104Z</time></trkpt><trkpt lat="43.994684" lon="10.8080122"><ele>1043.0</ele><time>2026-04-04T12:26:56.104Z</time></trkpt><trkpt lat="43.9947723" lon="10.808005"><ele>1043.0</ele><time>2026-04-04T12:26:57.104Z</time></trkpt><trkpt lat="43.9948727" lon="10.8080023"><ele>1043.0</ele><time>2026-04-04T12:26:58.104Z</time></trkpt><trkpt lat="43.9949716" lon="10.8080049"><ele>1043.0</ele><time>2026-04-04T12:26:59.104Z</time></trkpt><trkpt lat="43.9950678" lon="10.8080153"><ele>1043.0</ele><time>2026-04-04T12:27:00.104Z</time></trkpt><trkpt lat="43.9951604" lon="10.8080281"><ele>1043.0</ele><time>2026-04-04T12:27:01.105Z</time></trkpt><trkpt lat="43.9952531" lon="10.8080691"><ele>1042.5</ele><time>2026-04-04T12:27:02.104Z</time></trkpt><trkpt lat="43.9953946" lon="10.8081617"><ele>1042.0</ele><time>2026-04-04T12:27:03.104Z</time></trkpt><trkpt lat="43.9955178" lon="10.8081841"><ele>1041.5</ele><time>2026-04-04T12:27:04.104Z</time></trkpt><trkpt lat="43.9956331" lon="10.8082178"><ele>1041.0</ele><time>2026-04-04T12:27:05.104Z</time></trkpt><trkpt lat="43.9957613" lon="10.8082353"><ele>1038.5</ele><time>2026-04-04T12:27:06.104Z</time></trkpt><trkpt lat="43.9958857" lon="10.8082744"><ele>1036.0</ele><time>2026-04-04T12:27:07.104Z</time></trkpt><trkpt lat="43.9959947" lon="10.8082775"><ele>1033.5</ele><time>2026-04-04T12:27:08.104Z</time></trkpt><trkpt lat="43.9961055" lon="10.8082954"><ele>1031.0</ele><time>2026-04-04T12:27:09.103Z</time></trkpt><trkpt lat="43.9962068" lon="10.8083029"><ele>1031.0</ele><time>2026-04-04T12:27:10.104Z</time></trkpt><trkpt lat="43.9963007" lon="10.8082756"><ele>1031.0</ele><time>2026-04-04T12:27:11.104Z</time></trkpt><trkpt lat="43.9963633" lon="10.8081652"><ele>1031.0</ele><time>2026-04-04T12:27:13.104Z</time></trkpt><trkpt lat="43.9964017" lon="10.8080821"><ele>1031.0</ele><time>2026-04-04T12:27:15.104Z</time></trkpt><trkpt lat="43.996391" lon="10.8079818"><ele>1031.0</ele><time>2026-04-04T12:27:19.104Z</time></trkpt><trkpt lat="43.9964087" lon="10.8077801"><ele>1031.0</ele><time>2026-04-04T12:27:22.104Z</time></trkpt><trkpt lat="43.9964254" lon="10.8076924"><ele>1031.0</ele><time>2026-04-04T12:27:23.104Z</time></trkpt><trkpt lat="43.996435" lon="10.8075807"><ele>1031.0</ele><time>2026-04-04T12:27:24.104Z</time></trkpt><trkpt lat="43.9964487" lon="10.807489"><ele>1031.0</ele><time>2026-04-04T12:27:25.104Z</time></trkpt><trkpt lat="43.9964593" lon="10.8073968"><ele>1031.0</ele><time>2026-04-04T12:27:26.103Z</time></trkpt><trkpt lat="43.9964951" lon="10.8073045"><ele>1031.0</ele><time>2026-04-04T12:27:27.103Z</time></trkpt><trkpt lat="43.9965197" lon="10.8072062"><ele>1031.0</ele><time>2026-04-04T12:27:28.104Z</time></trkpt><trkpt lat="43.9965474" lon="10.8071175"><ele>1031.2</ele><time>2026-04-04T12:27:29.103Z</time></trkpt><trkpt lat="43.9965756" lon="10.8069959"><ele>1031.3999999999999</ele><time>2026-04-04T12:27:30.103Z</time></trkpt><trkpt lat="43.9965781" lon="10.8068586"><ele>1031.6</ele><time>2026-04-04T12:27:31.104Z</time></trkpt><trkpt lat="43.9966098" lon="10.8067666"><ele>1031.8</ele><time>2026-04-04T12:27:32.104Z</time></trkpt><trkpt lat="43.9966578" lon="10.806676"><ele>1032.0</ele><time>2026-04-04T12:27:33.103Z</time></trkpt><trkpt lat="43.9967191" lon="10.8065505"><ele>1028.8</ele><time>2026-04-04T12:27:35.104Z</time></trkpt><trkpt lat="43.9968686" lon="10.8064769"><ele>1025.6</ele><time>2026-04-04T12:27:37.105Z</time></trkpt><trkpt lat="43.9969654" lon="10.8064501"><ele>1022.3999999999999</ele><time>2026-04-04T12:27:38.103Z</time></trkpt><trkpt lat="43.9970414" lon="10.806428"><ele>1019.1999999999999</ele><time>2026-04-04T12:27:39.104Z</time></trkpt><trkpt lat="43.9971242" lon="10.8063947"><ele>1016.0</ele><time>2026-04-04T12:27:40.104Z</time></trkpt><trkpt lat="43.997186" lon="10.806327"><ele>1016.0</ele><time>2026-04-04T12:27:41.105Z</time></trkpt><trkpt lat="43.9972663" lon="10.8062709"><ele>1015.9999999999999</ele><time>2026-04-04T12:27:42.104Z</time></trkpt><trkpt lat="43.9973412" lon="10.8062118"><ele>1015.9999999999999</ele><time>2026-04-04T12:27:43.104Z</time></trkpt><trkpt lat="43.997411" lon="10.8061553"><ele>1016.0</ele><time>2026-04-04T12:27:44.104Z</time></trkpt><trkpt lat="43.9974788" lon="10.8060941"><ele>1016.0</ele><time>2026-04-04T12:27:45.103Z</time></trkpt><trkpt lat="43.9975965" lon="10.8059865"><ele>1014.4</ele><time>2026-04-04T12:27:47.104Z</time></trkpt><trkpt lat="43.9976624" lon="10.8059323"><ele>1012.8</ele><time>2026-04-04T12:27:48.104Z</time></trkpt><trkpt lat="43.9977282" lon="10.8058594"><ele>1011.1999999999999</ele><time>2026-04-04T12:27:49.103Z</time></trkpt><trkpt lat="43.9978223" lon="10.8057513"><ele>1009.5999999999999</ele><time>2026-04-04T12:27:51.104Z</time></trkpt><trkpt lat="43.9979076" lon="10.8056614"><ele>1008.0</ele><time>2026-04-04T12:27:53.104Z</time></trkpt><trkpt lat="43.9979925" lon="10.8055652"><ele>1008.0</ele><time>2026-04-04T12:27:55.104Z</time></trkpt><trkpt lat="43.9980639" lon="10.8054809"><ele>1008.0</ele><time>2026-04-04T12:27:57.104Z</time></trkpt><trkpt lat="43.9981442" lon="10.8054084"><ele>1008.0</ele><time>2026-04-04T12:27:59.105Z</time></trkpt><trkpt lat="43.9982178" lon="10.805341"><ele>1008.0</ele><time>2026-04-04T12:28:01.104Z</time></trkpt><trkpt lat="43.9982773" lon="10.8052905"><ele>1008.0</ele><time>2026-04-04T12:28:03.105Z</time></trkpt><trkpt lat="43.9983433" lon="10.805239"><ele>1008.0</ele><time>2026-04-04T12:28:06.104Z</time></trkpt><trkpt lat="43.9984089" lon="10.805172"><ele>1004.5714285714286</ele><time>2026-04-04T12:28:09.103Z</time></trkpt><trkpt lat="43.9984805" lon="10.8051068"><ele>1001.1428571428571</ele><time>2026-04-04T12:28:12.103Z</time></trkpt><trkpt lat="43.9985301" lon="10.8050372"><ele>997.7142857142858</ele><time>2026-04-04T12:28:15.104Z</time></trkpt><trkpt lat="43.9985722" lon="10.8049704"><ele>994.2857142857143</ele><time>2026-04-04T12:28:19.104Z</time></trkpt><trkpt lat="43.9986264" lon="10.8049147"><ele>990.8571428571429</ele><time>2026-04-04T12:28:23.104Z</time></trkpt><trkpt lat="43.9986623" lon="10.8048346"><ele>987.4285714285716</ele><time>2026-04-04T12:28:26.103Z</time></trkpt><trkpt lat="43.998721" lon="10.8047582"><ele>984.0000000000001</ele><time>2026-04-04T12:28:28.104Z</time></trkpt><trkpt lat="43.9987857" lon="10.8047131"><ele>984.0</ele><time>2026-04-04T12:28:29.103Z</time></trkpt><trkpt lat="43.9988457" lon="10.8046406"><ele>984.0</ele><time>2026-04-04T12:28:31.104Z</time></trkpt><trkpt lat="43.9989158" lon="10.804544"><ele>984.0</ele><time>2026-04-04T12:28:33.104Z</time></trkpt><trkpt lat="43.9989584" lon="10.8044344"><ele>984.0</ele><time>2026-04-04T12:28:35.104Z</time></trkpt><trkpt lat="43.9990098" lon="10.8043718"><ele>984.0</ele><time>2026-04-04T12:28:37.104Z</time></trkpt><trkpt lat="43.9990719" lon="10.8042888"><ele>984.0</ele><time>2026-04-04T12:28:39.104Z</time></trkpt><trkpt lat="43.9991113" lon="10.8041872"><ele>982.8333333333334</ele><time>2026-04-04T12:28:41.104Z</time></trkpt><trkpt lat="43.9991431" lon="10.8040706"><ele>981.6666666666667</ele><time>2026-04-04T12:28:43.103Z</time></trkpt><trkpt lat="43.9991713" lon="10.8039375"><ele>980.5</ele><time>2026-04-04T12:28:45.104Z</time></trkpt><trkpt lat="43.9991887" lon="10.8038249"><ele>979.3333333333334</ele><time>2026-04-04T12:28:47.104Z</time></trkpt><trkpt lat="43.9992125" lon="10.8037234"><ele>978.1666666666667</ele><time>2026-04-04T12:28:49.104Z</time></trkpt><trkpt lat="43.9992394" lon="10.8036273"><ele>977.0</ele><time>2026-04-04T12:28:51.104Z</time></trkpt><trkpt lat="43.9992824" lon="10.8035335"><ele>974.1666666666667</ele><time>2026-04-04T12:28:54.104Z</time></trkpt><trkpt lat="43.9993447" lon="10.8034842"><ele>971.3333333333334</ele><time>2026-04-04T12:28:56.103Z</time></trkpt><trkpt lat="43.9993966" lon="10.8033767"><ele>968.5</ele><time>2026-04-04T12:28:58.104Z</time></trkpt><trkpt lat="43.9994222" lon="10.8032731"><ele>965.6666666666667</ele><time>2026-04-04T12:29:00.103Z</time></trkpt><trkpt lat="43.9994614" lon="10.8031787"><ele>962.8333333333334</ele><time>2026-04-04T12:29:02.104Z</time></trkpt><trkpt lat="43.9995217" lon="10.803068"><ele>960.0</ele><time>2026-04-04T12:29:04.104Z</time></trkpt><trkpt lat="43.9995684" lon="10.8029819"><ele>960.0</ele><time>2026-04-04T12:29:06.104Z</time></trkpt><trkpt lat="43.9996414" lon="10.8028912"><ele>960.0</ele><time>2026-04-04T12:29:08.103Z</time></trkpt><trkpt lat="43.9997001" lon="10.8028057"><ele>960.0</ele><time>2026-04-04T12:29:10.103Z</time></trkpt><trkpt lat="43.9997749" lon="10.8027788"><ele>960.0</ele><time>2026-04-04T12:29:27.103Z</time></trkpt><trkpt lat="43.9998571" lon="10.8028398"><ele>960.0</ele><time>2026-04-04T12:29:30.103Z</time></trkpt><trkpt lat="43.999912" lon="10.802895"><ele>960.0</ele><time>2026-04-04T12:29:31.103Z</time></trkpt><trkpt lat="43.9999921" lon="10.8029069"><ele>960.0</ele><time>2026-04-04T12:29:33.104Z</time></trkpt><trkpt lat="44.000083" lon="10.8029389"><ele>960.0</ele><time>2026-04-04T12:29:35.104Z</time></trkpt><trkpt lat="44.0001712" lon="10.802962"><ele>960.0</ele><time>2026-04-04T12:29:37.104Z</time></trkpt><trkpt lat="44.0002548" lon="10.8029992"><ele>960.0</ele><time>2026-04-04T12:29:39.103Z</time></trkpt><trkpt lat="44.0003368" lon="10.8030176"><ele>960.0</ele><time>2026-04-04T12:29:42.104Z</time></trkpt><trkpt lat="44.0003945" lon="10.8029509"><ele>960.0</ele><time>2026-04-04T12:29:45.103Z</time></trkpt><trkpt lat="44.0003779" lon="10.8027894"><ele>959.8</ele><time>2026-04-04T12:29:47.104Z</time></trkpt><trkpt lat="44.0003788" lon="10.802644"><ele>959.6</ele><time>2026-04-04T12:29:48.104Z</time></trkpt><trkpt lat="44.0003958" lon="10.8025139"><ele>959.4000000000001</ele><time>2026-04-04T12:29:49.104Z</time></trkpt><trkpt lat="44.0003963" lon="10.8023939"><ele>959.2</ele><time>2026-04-04T12:29:50.104Z</time></trkpt><trkpt lat="44.0004007" lon="10.8022782"><ele>959.0</ele><time>2026-04-04T12:29:51.105Z</time></trkpt><trkpt lat="44.000363" lon="10.8020955"><ele>959.0</ele><time>2026-04-04T12:29:52.104Z</time></trkpt><trkpt lat="44.0003467" lon="10.8019734"><ele>959.0000000000001</ele><time>2026-04-04T12:29:53.104Z</time></trkpt><trkpt lat="44.0003408" lon="10.8018277"><ele>959.0000000000001</ele><time>2026-04-04T12:29:54.103Z</time></trkpt><trkpt lat="44.0002753" lon="10.8016393"><ele>959.0</ele><time>2026-04-04T12:29:55.103Z</time></trkpt><trkpt lat="44.0002476" lon="10.8015195"><ele>959.0</ele><time>2026-04-04T12:29:56.103Z</time></trkpt><trkpt lat="44.0002053" lon="10.8013976"><ele>958.25</ele><time>2026-04-04T12:29:57.103Z</time></trkpt><trkpt lat="44.0001664" lon="10.8012429"><ele>957.5</ele><time>2026-04-04T12:29:58.105Z</time></trkpt><trkpt lat="44.0001212" lon="10.80109"><ele>956.75</ele><time>2026-04-04T12:29:59.103Z</time></trkpt><trkpt lat="44.0000745" lon="10.8009223"><ele>956.0</ele><time>2026-04-04T12:30:00.103Z</time></trkpt><trkpt lat="44.0000355" lon="10.8007577"><ele>954.4</ele><time>2026-04-04T12:30:01.103Z</time></trkpt><trkpt lat="43.9999878" lon="10.8005961"><ele>952.8</ele><time>2026-04-04T12:30:02.105Z</time></trkpt><trkpt lat="43.9999397" lon="10.800461"><ele>951.1999999999999</ele><time>2026-04-04T12:30:03.104Z</time></trkpt><trkpt lat="43.9999009" lon="10.8003177"><ele>949.5999999999999</ele><time>2026-04-04T12:30:04.104Z</time></trkpt><trkpt lat="43.9998656" lon="10.8002043"><ele>948.0</ele><time>2026-04-04T12:30:05.104Z</time></trkpt><trkpt lat="43.999837" lon="10.8001065"><ele>945.5999999999999</ele><time>2026-04-04T12:30:06.104Z</time></trkpt><trkpt lat="43.9997946" lon="10.8000015"><ele>943.1999999999999</ele><time>2026-04-04T12:30:08.103Z</time></trkpt><trkpt lat="43.9997779" lon="10.799872"><ele>940.8</ele><time>2026-04-04T12:30:10.103Z</time></trkpt><trkpt lat="43.9997537" lon="10.7997466"><ele>938.4</ele><time>2026-04-04T12:30:12.104Z</time></trkpt><trkpt lat="43.9998045" lon="10.7996129"><ele>936.0</ele><time>2026-04-04T12:30:14.103Z</time></trkpt><trkpt lat="43.9998816" lon="10.7995092"><ele>936.0</ele><time>2026-04-04T12:30:16.104Z</time></trkpt><trkpt lat="43.9999237" lon="10.7993887"><ele>935.9999999999999</ele><time>2026-04-04T12:30:18.103Z</time></trkpt><trkpt lat="43.999936" lon="10.7992109"><ele>935.9999999999999</ele><time>2026-04-04T12:30:20.103Z</time></trkpt><trkpt lat="43.9999612" lon="10.7990812"><ele>936.0</ele><time>2026-04-04T12:30:22.105Z</time></trkpt><trkpt lat="44.0000217" lon="10.7990198"><ele>936.0</ele><time>2026-04-04T12:30:23.103Z</time></trkpt><trkpt lat="44.0000538" lon="10.798941"><ele>934.0</ele><time>2026-04-04T12:30:24.103Z</time></trkpt><trkpt lat="44.000071" lon="10.7988448"><ele>932.0</ele><time>2026-04-04T12:30:25.103Z</time></trkpt><trkpt lat="44.0000958" lon="10.7987343"><ele>930.0</ele><time>2026-04-04T12:30:26.104Z</time></trkpt><trkpt lat="44.0001175" lon="10.7986368"><ele>928.0</ele><time>2026-04-04T12:30:27.104Z</time></trkpt><trkpt lat="44.0001476" lon="10.7985288"><ele>926.0</ele><time>2026-04-04T12:30:28.104Z</time></trkpt><trkpt lat="44.0001609" lon="10.7984251"><ele>924.0</ele><time>2026-04-04T12:30:29.104Z</time></trkpt><trkpt lat="44.0001686" lon="10.7983077"><ele>921.8000000000001</ele><time>2026-04-04T12:30:30.104Z</time></trkpt><trkpt lat="44.0001294" lon="10.7981724"><ele>919.6000000000001</ele><time>2026-04-04T12:30:31.104Z</time></trkpt><trkpt lat="44.0001206" lon="10.7980582"><ele>917.4</ele><time>2026-04-04T12:30:32.105Z</time></trkpt><trkpt lat="44.0001096" lon="10.7979643"><ele>915.2</ele><time>2026-04-04T12:30:33.104Z</time></trkpt><trkpt lat="44.0000964" lon="10.7977898"><ele>913.0</ele><time>2026-04-04T12:30:35.105Z</time></trkpt><trkpt lat="44.0000704" lon="10.797703"><ele>911.2</ele><time>2026-04-04T12:30:36.103Z</time></trkpt><trkpt lat="44.0000452" lon="10.7975443"><ele>909.4</ele><time>2026-04-04T12:30:38.104Z</time></trkpt><trkpt lat="44.0000554" lon="10.7974469"><ele>907.6000000000001</ele><time>2026-04-04T12:30:39.104Z</time></trkpt><trkpt lat="44.000072" lon="10.7972659"><ele>905.8000000000001</ele><time>2026-04-04T12:30:41.104Z</time></trkpt><trkpt lat="44.0000974" lon="10.7971638"><ele>904.0</ele><time>2026-04-04T12:30:42.104Z</time></trkpt><trkpt lat="44.000147" lon="10.7970122"><ele>904.0</ele><time>2026-04-04T12:30:44.104Z</time></trkpt><trkpt lat="44.0001523" lon="10.7969116"><ele>904.0</ele><time>2026-04-04T12:30:45.103Z</time></trkpt><trkpt lat="44.0001693" lon="10.7968216"><ele>904.0</ele><time>2026-04-04T12:30:46.104Z</time></trkpt><trkpt lat="44.0001521" lon="10.7967349"><ele>904.0</ele><time>2026-04-04T12:30:47.105Z</time></trkpt><trkpt lat="44.0001865" lon="10.7966405"><ele>904.0</ele><time>2026-04-04T12:30:49.104Z</time></trkpt><trkpt lat="44.0002527" lon="10.7965926"><ele>904.0</ele><time>2026-04-04T12:30:51.104Z</time></trkpt><trkpt lat="44.0003299" lon="10.7966105"><ele>904.0</ele><time>2026-04-04T12:30:52.103Z</time></trkpt><trkpt lat="44.0004307" lon="10.7965612"><ele>901.4999999999999</ele><time>2026-04-04T12:30:54.104Z</time></trkpt><trkpt lat="44.0005419" lon="10.7965087"><ele>899.0</ele><time>2026-04-04T12:30:56.104Z</time></trkpt><trkpt lat="44.000628" lon="10.7963894"><ele>896.5</ele><time>2026-04-04T12:30:58.104Z</time></trkpt><trkpt lat="44.0006577" lon="10.7963019"><ele>894.0</ele><time>2026-04-04T12:30:59.105Z</time></trkpt><trkpt lat="44.0006855" lon="10.7962187"><ele>891.4999999999999</ele><time>2026-04-04T12:31:00.104Z</time></trkpt><trkpt lat="44.0007291" lon="10.7961354"><ele>889.0</ele><time>2026-04-04T12:31:01.104Z</time></trkpt><trkpt lat="44.0007765" lon="10.7960513"><ele>888.6666666666666</ele><time>2026-04-04T12:31:02.104Z</time></trkpt><trkpt lat="44.0008795" lon="10.7959843"><ele>888.3333333333333</ele><time>2026-04-04T12:31:04.104Z</time></trkpt><trkpt lat="44.0009598" lon="10.7960748"><ele>888.0</ele><time>2026-04-04T12:31:06.104Z</time></trkpt><trkpt lat="44.0010188" lon="10.7961371"><ele>887.6666666666667</ele><time>2026-04-04T12:31:08.104Z</time></trkpt><trkpt lat="44.0010722" lon="10.796204"><ele>887.3333333333334</ele><time>2026-04-04T12:31:10.104Z</time></trkpt><trkpt lat="44.0011313" lon="10.7962569"><ele>887.0</ele><time>2026-04-04T12:31:12.104Z</time></trkpt><trkpt lat="44.0011828" lon="10.7963451"><ele>887.0</ele><time>2026-04-04T12:31:14.103Z</time></trkpt><trkpt lat="44.001216" lon="10.7964379"><ele>887.0</ele><time>2026-04-04T12:31:16.104Z</time></trkpt><trkpt lat="44.0013105" lon="10.7964923"><ele>887.0</ele><time>2026-04-04T12:31:18.103Z</time></trkpt><trkpt lat="44.0014068" lon="10.7964939"><ele>887.0</ele><time>2026-04-04T12:31:20.103Z</time></trkpt><trkpt lat="44.001466" lon="10.7965359"><ele>887.0</ele><time>2026-04-04T12:31:22.104Z</time></trkpt><trkpt lat="44.0015376" lon="10.7964135"><ele>887.0</ele><time>2026-04-04T12:31:25.104Z</time></trkpt><trkpt lat="44.0015723" lon="10.7963035"><ele>887.0</ele><time>2026-04-04T12:31:27.104Z</time></trkpt><trkpt lat="44.0015285" lon="10.7961288"><ele>887.0</ele><time>2026-04-04T12:31:29.104Z</time></trkpt><trkpt lat="44.0015025" lon="10.7960443"><ele>887.0</ele><time>2026-04-04T12:31:30.103Z</time></trkpt><trkpt lat="44.0014634" lon="10.7959741"><ele>887.0</ele><time>2026-04-04T12:31:31.104Z</time></trkpt><trkpt lat="44.0014335" lon="10.7958139"><ele>885.1666666666667</ele><time>2026-04-04T12:31:33.103Z</time></trkpt><trkpt lat="44.0014161" lon="10.795724"><ele>883.3333333333334</ele><time>2026-04-04T12:31:34.104Z</time></trkpt><trkpt lat="44.0014059" lon="10.7956338"><ele>881.5</ele><time>2026-04-04T12:31:35.104Z</time></trkpt><trkpt lat="44.0013816" lon="10.7954635"><ele>879.6666666666667</ele><time>2026-04-04T12:31:37.104Z</time></trkpt><trkpt lat="44.0013863" lon="10.795364"><ele>877.8333333333334</ele><time>2026-04-04T12:31:39.103Z</time></trkpt><trkpt lat="44.0013873" lon="10.7952444"><ele>876.0</ele><time>2026-04-04T12:31:41.104Z</time></trkpt><trkpt lat="44.0014872" lon="10.7952302"><ele>876.0</ele><time>2026-04-04T12:31:43.104Z</time></trkpt><trkpt lat="44.0015567" lon="10.7952887"><ele>876.0</ele><time>2026-04-04T12:31:44.104Z</time></trkpt><trkpt lat="44.0015807" lon="10.795204"><ele>876.0</ele><time>2026-04-04T12:31:46.103Z</time></trkpt><trkpt lat="44.001566" lon="10.7950491"><ele>876.0</ele><time>2026-04-04T12:31:48.103Z</time></trkpt><trkpt lat="44.0015594" lon="10.7949492"><ele>876.0</ele><time>2026-04-04T12:31:49.104Z</time></trkpt><trkpt lat="44.0015299" lon="10.7948642"><ele>876.0</ele><time>2026-04-04T12:31:50.103Z</time></trkpt><trkpt lat="44.0015179" lon="10.7947769"><ele>873.0</ele><time>2026-04-04T12:31:51.105Z</time></trkpt><trkpt lat="44.001497" lon="10.794694"><ele>870.0</ele><time>2026-04-04T12:31:52.104Z</time></trkpt><trkpt lat="44.0014609" lon="10.7945299"><ele>867.0</ele><time>2026-04-04T12:31:54.103Z</time></trkpt><trkpt lat="44.0014349" lon="10.7944451"><ele>864.0</ele><time>2026-04-04T12:31:55.103Z</time></trkpt><trkpt lat="44.0014089" lon="10.7943645"><ele>861.0</ele><time>2026-04-04T12:31:56.104Z</time></trkpt><trkpt lat="44.0013723" lon="10.7942747"><ele>858.0</ele><time>2026-04-04T12:31:57.104Z</time></trkpt><trkpt lat="44.0013309" lon="10.7941096"><ele>854.0</ele><time>2026-04-04T12:31:59.104Z</time></trkpt><trkpt lat="44.001328" lon="10.793944"><ele>850.0</ele><time>2026-04-04T12:32:01.103Z</time></trkpt><trkpt lat="44.0013328" lon="10.7938558"><ele>846.0</ele><time>2026-04-04T12:32:02.104Z</time></trkpt><trkpt lat="44.0013505" lon="10.7937673"><ele>842.0</ele><time>2026-04-04T12:32:03.103Z</time></trkpt><trkpt lat="44.0013698" lon="10.7936836"><ele>838.0</ele><time>2026-04-04T12:32:04.103Z</time></trkpt><trkpt lat="44.0013474" lon="10.7935484"><ele>834.0</ele><time>2026-04-04T12:32:06.103Z</time></trkpt><trkpt lat="44.0012594" lon="10.7935054"><ele>831.0</ele><time>2026-04-04T12:32:08.103Z</time></trkpt><trkpt lat="44.0011659" lon="10.7933903"><ele>828.0</ele><time>2026-04-04T12:32:10.104Z</time></trkpt><trkpt lat="44.0011325" lon="10.7932163"><ele>825.0</ele><time>2026-04-04T12:32:12.105Z</time></trkpt><trkpt lat="44.0010904" lon="10.7930538"><ele>822.0</ele><time>2026-04-04T12:32:14.104Z</time></trkpt><trkpt lat="44.0010793" lon="10.7929291"><ele>822.0</ele><time>2026-04-04T12:32:16.104Z</time></trkpt><trkpt lat="44.0010899" lon="10.7928175"><ele>822.0</ele><time>2026-04-04T12:32:19.104Z</time></trkpt><trkpt lat="44.0011138" lon="10.7927184"><ele>822.0</ele><time>2026-04-04T12:32:22.104Z</time></trkpt><trkpt lat="44.0011896" lon="10.7926725"><ele>822.0</ele><time>2026-04-04T12:32:24.103Z</time></trkpt><trkpt lat="44.0012067" lon="10.7925362"><ele>822.0</ele><time>2026-04-04T12:32:27.104Z</time></trkpt><trkpt lat="44.0012187" lon="10.7923824"><ele>823.2</ele><time>2026-04-04T12:32:29.104Z</time></trkpt><trkpt lat="44.0012586" lon="10.7922066"><ele>824.4000000000001</ele><time>2026-04-04T12:32:31.104Z</time></trkpt><trkpt lat="44.0012762" lon="10.7921013"><ele>825.5999999999999</ele><time>2026-04-04T12:32:32.104Z</time></trkpt><trkpt lat="44.0012941" lon="10.7919944"><ele>826.8</ele><time>2026-04-04T12:32:33.104Z</time></trkpt><trkpt lat="44.0013074" lon="10.7918814"><ele>828.0</ele><time>2026-04-04T12:32:34.104Z</time></trkpt><trkpt lat="44.0013171" lon="10.7916825"><ele>829.6666666666666</ele><time>2026-04-04T12:32:36.103Z</time></trkpt><trkpt lat="44.0013158" lon="10.7915707"><ele>831.3333333333333</ele><time>2026-04-04T12:32:37.103Z</time></trkpt><trkpt lat="44.0013048" lon="10.7914727"><ele>833.0</ele><time>2026-04-04T12:32:38.103Z</time></trkpt><trkpt lat="44.0013305" lon="10.7913693"><ele>834.6666666666666</ele><time>2026-04-04T12:32:39.102Z</time></trkpt><trkpt lat="44.0013421" lon="10.7912752"><ele>836.3333333333333</ele><time>2026-04-04T12:32:40.103Z</time></trkpt><trkpt lat="44.001369" lon="10.7911796"><ele>838.0</ele><time>2026-04-04T12:32:41.102Z</time></trkpt><trkpt lat="44.0014653" lon="10.7911182"><ele>822.0</ele><time>2026-04-04T12:32:42.102Z</time></trkpt><trkpt lat="44.0011325" lon="10.7932163"><ele>822.0</ele><time>2026-04-04T12:32:12.105Z</time></trkpt><trkpt lat="44.0010904" lon="10.7930538"><ele>822.0</ele><time>2026-04-04T12:32:14.104Z</time></trkpt><trkpt lat="44.0010793" lon="10.7929291"><ele>822.0</ele><time>2026-04-04T12:32:16.104Z</time></trkpt><trkpt lat="44.0010899" lon="10.7928175"><ele>822.0</ele><time>2026-04-04T12:32:19.104Z</time></trkpt><trkpt lat="44.0011138" lon="10.7927184"><ele>822.0</ele><time>2026-04-04T12:32:22.104Z</time></trkpt><trkpt lat="44.0011896" lon="10.7926725"><ele>823.2</ele><time>2026-04-04T12:32:24.103Z</time></trkpt><trkpt lat="44.0012067" lon="10.7925362"><ele>824.4000000000001</ele><time>2026-04-04T12:32:27.104Z</time></trkpt><trkpt lat="44.0012187" lon="10.7923824"><ele>825.5999999999999</ele><time>2026-04-04T12:32:29.104Z</time></trkpt><trkpt lat="44.0012586" lon="10.7922066"><ele>826.8</ele><time>2026-04-04T12:32:31.104Z</time></trkpt><trkpt lat="44.0012762" lon="10.7921013"><ele>828.0</ele><time>2026-04-04T12:32:32.104Z</time></trkpt><trkpt lat="44.0012941" lon="10.7919944"><ele>828.0</ele><time>2026-04-04T12:32:33.104Z</time></trkpt><trkpt lat="44.0013074" lon="10.7918814"><ele>828.0</ele><time>2026-04-04T12:32:34.104Z</time></trkpt><trkpt lat="44.0013171" lon="10.7916825"><ele>828.0</ele><time>2026-04-04T12:32:36.103Z</time></trkpt><trkpt lat="44.0013158" lon="10.7915707"><ele>828.0</ele><time>2026-04-04T12:32:37.103Z</time></trkpt><trkpt lat="44.0013048" lon="10.7914727"><ele>828.0</ele><time>2026-04-04T12:32:38.103Z</time></trkpt><trkpt lat="44.0013305" lon="10.7913693"><ele>829.6666666666666</ele><time>2026-04-04T12:32:39.102Z</time></trkpt><trkpt lat="44.0013421" lon="10.7912752"><ele>831.3333333333333</ele><time>2026-04-04T12:32:40.103Z</time></trkpt><trkpt lat="44.001369" lon="10.7911796"><ele>833.0</ele><time>2026-04-04T12:32:41.102Z</time></trkpt><trkpt lat="44.0014653" lon="10.7911182"><ele>834.6666666666666</ele><time>2026-04-04T12:32:42.102Z</time></trkpt><trkpt lat="44.0014991" lon="10.79104"><ele>836.3333333333333</ele><time>2026-04-04T12:32:43.103Z</time></trkpt><trkpt lat="44.0015596" lon="10.7908988"><ele>838.0</ele><time>2026-04-04T12:32:45.103Z</time></trkpt><trkpt lat="44.0015909" lon="10.7908111"><ele>839.2</ele><time>2026-04-04T12:32:46.102Z</time></trkpt><trkpt lat="44.0016359" lon="10.7906463"><ele>840.4</ele><time>2026-04-04T12:32:48.103Z</time></trkpt><trkpt lat="44.0016511" lon="10.7905612"><ele>841.6</ele><time>2026-04-04T12:32:49.104Z</time></trkpt><trkpt lat="44.0016833" lon="10.7903939"><ele>842.8000000000001</ele><time>2026-04-04T12:32:51.103Z</time></trkpt><trkpt lat="44.0017296" lon="10.7902483"><ele>844.0</ele><time>2026-04-04T12:32:53.104Z</time></trkpt><trkpt lat="44.0017459" lon="10.790159"><ele>838.6</ele><time>2026-04-04T12:32:54.102Z</time></trkpt><trkpt lat="44.0017736" lon="10.7900114"><ele>833.2</ele><time>2026-04-04T12:32:56.102Z</time></trkpt><trkpt lat="44.001783" lon="10.7898513"><ele>827.8000000000001</ele><time>2026-04-04T12:32:58.103Z</time></trkpt><trkpt lat="44.0017744" lon="10.7896817"><ele>822.4000000000001</ele><time>2026-04-04T12:33:00.102Z</time></trkpt><trkpt lat="44.0017646" lon="10.7895904"><ele>817.0</ele><time>2026-04-04T12:33:01.104Z</time></trkpt><trkpt lat="44.0017532" lon="10.7894477"><ele>815.3333333333333</ele><time>2026-04-04T12:33:03.102Z</time></trkpt><trkpt lat="44.0017037" lon="10.7893261"><ele>813.6666666666666</ele><time>2026-04-04T12:33:05.102Z</time></trkpt><trkpt lat="44.0016617" lon="10.7892181"><ele>812.0</ele><time>2026-04-04T12:33:07.103Z</time></trkpt><trkpt lat="44.0016885" lon="10.7891164"><ele>810.3333333333333</ele><time>2026-04-04T12:33:09.103Z</time></trkpt><trkpt lat="44.0016973" lon="10.7890051"><ele>808.6666666666666</ele><time>2026-04-04T12:33:11.104Z</time></trkpt><trkpt lat="44.0016318" lon="10.7889856"><ele>807.0</ele><time>2026-04-04T12:33:14.103Z</time></trkpt><trkpt lat="44.0015701" lon="10.7889404"><ele>810.8333333333334</ele><time>2026-04-04T12:34:48.104Z</time></trkpt><trkpt lat="44.001525" lon="10.7888616"><ele>814.6666666666667</ele><time>2026-04-04T12:34:50.104Z</time></trkpt><trkpt lat="44.0015276" lon="10.7887602"><ele>818.5</ele><time>2026-04-04T12:34:52.103Z</time></trkpt><trkpt lat="44.0015655" lon="10.7886426"><ele>822.3333333333334</ele><time>2026-04-04T12:34:54.103Z</time></trkpt><trkpt lat="44.0015964" lon="10.7885418"><ele>826.1666666666667</ele><time>2026-04-04T12:34:56.103Z</time></trkpt><trkpt lat="44.0015736" lon="10.7884436"><ele>830.0</ele><time>2026-04-04T12:34:58.102Z</time></trkpt><trkpt lat="44.0015003" lon="10.7883813"><ele>830.0000000000001</ele><time>2026-04-04T12:35:00.104Z</time></trkpt><trkpt lat="44.0014414" lon="10.7882918"><ele>830.0</ele><time>2026-04-04T12:35:02.103Z</time></trkpt><trkpt lat="44.0014119" lon="10.7881647"><ele>830.0</ele><time>2026-04-04T12:35:03.102Z</time></trkpt><trkpt lat="44.0013584" lon="10.7880403"><ele>830.0</ele><time>2026-04-04T12:35:04.103Z</time></trkpt><trkpt lat="44.0013442" lon="10.7879429"><ele>830.0000000000001</ele><time>2026-04-04T12:35:05.102Z</time></trkpt><trkpt lat="44.0013315" lon="10.7878456"><ele>830.0</ele><time>2026-04-04T12:35:06.104Z</time></trkpt><trkpt lat="44.0013409" lon="10.7877463"><ele>828.5000000000001</ele><time>2026-04-04T12:35:07.103Z</time></trkpt><trkpt lat="44.00135" lon="10.7876556"><ele>827.0</ele><time>2026-04-04T12:35:08.104Z</time></trkpt><trkpt lat="44.001372" lon="10.7875536"><ele>825.5</ele><time>2026-04-04T12:35:09.103Z</time></trkpt><trkpt lat="44.0013688" lon="10.7874359"><ele>824.0</ele><time>2026-04-04T12:35:11.103Z</time></trkpt><trkpt lat="44.0013373" lon="10.7873306"><ele>822.5000000000001</ele><time>2026-04-04T12:35:12.103Z</time></trkpt><trkpt lat="44.0012862" lon="10.7871911"><ele>821.0</ele><time>2026-04-04T12:35:13.103Z</time></trkpt><trkpt lat="44.0012452" lon="10.7870357"><ele>821.0</ele><time>2026-04-04T12:35:14.103Z</time></trkpt><trkpt lat="44.0011972" lon="10.7868864"><ele>821.0</ele><time>2026-04-04T12:35:15.103Z</time></trkpt><trkpt lat="44.0011555" lon="10.7867631"><ele>821.0</ele><time>2026-04-04T12:35:16.103Z</time></trkpt><trkpt lat="44.0011145" lon="10.7866457"><ele>821.0</ele><time>2026-04-04T12:35:17.104Z</time></trkpt><trkpt lat="44.0011153" lon="10.7864854"><ele>821.0</ele><time>2026-04-04T12:35:19.104Z</time></trkpt><trkpt lat="44.0011489" lon="10.7863599"><ele>820.6666666666667</ele><time>2026-04-04T12:35:20.103Z</time></trkpt><trkpt lat="44.001163" lon="10.7862529"><ele>820.3333333333334</ele><time>2026-04-04T12:35:21.103Z</time></trkpt><trkpt lat="44.0011807" lon="10.7861375"><ele>820.0</ele><time>2026-04-04T12:35:22.103Z</time></trkpt><trkpt lat="44.0011768" lon="10.786027"><ele>819.6666666666667</ele><time>2026-04-04T12:35:23.103Z</time></trkpt><trkpt lat="44.0012042" lon="10.7859374"><ele>819.3333333333334</ele><time>2026-04-04T12:35:24.102Z</time></trkpt><trkpt lat="44.0012168" lon="10.7858119"><ele>819.0</ele><time>2026-04-04T12:35:25.102Z</time></trkpt><trkpt lat="44.001228" lon="10.7857242"><ele>818.6666666666666</ele><time>2026-04-04T12:35:26.102Z</time></trkpt><trkpt lat="44.0012337" lon="10.7856139"><ele>818.3333333333333</ele><time>2026-04-04T12:35:27.102Z</time></trkpt><trkpt lat="44.0012275" lon="10.7854885"><ele>818.0</ele><time>2026-04-04T12:35:28.103Z</time></trkpt><trkpt lat="44.0012124" lon="10.7853766"><ele>817.6666666666666</ele><time>2026-04-04T12:35:29.103Z</time></trkpt><trkpt lat="44.0011233" lon="10.7852738"><ele>817.3333333333333</ele><time>2026-04-04T12:35:30.103Z</time></trkpt><trkpt lat="44.0010895" lon="10.7851811"><ele>817.0</ele><time>2026-04-04T12:35:31.103Z</time></trkpt><trkpt lat="44.0010491" lon="10.7850363"><ele>815.3333333333333</ele><time>2026-04-04T12:35:33.103Z</time></trkpt><trkpt lat="44.0010414" lon="10.7849481"><ele>813.6666666666666</ele><time>2026-04-04T12:35:34.103Z</time></trkpt><trkpt lat="44.0010744" lon="10.7848241"><ele>812.0</ele><time>2026-04-04T12:35:35.103Z</time></trkpt><trkpt lat="44.0011029" lon="10.7847248"><ele>810.3333333333333</ele><time>2026-04-04T12:35:36.103Z</time></trkpt><trkpt lat="44.0011277" lon="10.7846014"><ele>808.6666666666666</ele><time>2026-04-04T12:35:38.103Z</time></trkpt><trkpt lat="44.0011233" lon="10.7845049"><ele>807.0</ele><time>2026-04-04T12:35:39.102Z</time></trkpt><trkpt lat="44.0010682" lon="10.7844604"><ele>805.4000000000001</ele><time>2026-04-04T12:35:40.102Z</time></trkpt><trkpt lat="44.0009877" lon="10.7842649"><ele>803.8000000000001</ele><time>2026-04-04T12:35:42.103Z</time></trkpt><trkpt lat="44.0009539" lon="10.7841476"><ele>802.2</ele><time>2026-04-04T12:35:43.102Z</time></trkpt><trkpt lat="44.0009224" lon="10.7840393"><ele>800.6</ele><time>2026-04-04T12:35:44.102Z</time></trkpt><trkpt lat="44.000866" lon="10.7839539"><ele>799.0</ele><time>2026-04-04T12:35:45.102Z</time></trkpt><trkpt lat="44.0007944" lon="10.7838728"><ele>802.1666666666666</ele><time>2026-04-04T12:35:46.103Z</time></trkpt><trkpt lat="44.0007353" lon="10.7838042"><ele>805.3333333333333</ele><time>2026-04-04T12:35:47.102Z</time></trkpt><trkpt lat="44.0006682" lon="10.7837238"><ele>808.5</ele><time>2026-04-04T12:35:48.102Z</time></trkpt><trkpt lat="44.0005976" lon="10.7836439"><ele>811.6666666666667</ele><time>2026-04-04T12:35:49.103Z</time></trkpt><trkpt lat="44.0005413" lon="10.7835925"><ele>814.8333333333334</ele><time>2026-04-04T12:35:50.103Z</time></trkpt><trkpt lat="44.0004475" lon="10.7835034"><ele>818.0</ele><time>2026-04-04T12:35:52.103Z</time></trkpt><trkpt lat="44.0003731" lon="10.7833649"><ele>818.0000000000001</ele><time>2026-04-04T12:35:54.102Z</time></trkpt><trkpt lat="44.0003407" lon="10.7832672"><ele>818.0</ele><time>2026-04-04T12:35:55.102Z</time></trkpt><trkpt lat="44.000332" lon="10.7831636"><ele>818.0</ele><time>2026-04-04T12:35:56.103Z</time></trkpt><trkpt lat="44.0002978" lon="10.783039"><ele>818.0</ele><time>2026-04-04T12:35:57.103Z</time></trkpt><trkpt lat="44.0002638" lon="10.7829178"><ele>818.0000000000001</ele><time>2026-04-04T12:35:58.103Z</time></trkpt><trkpt lat="44.0002202" lon="10.7828216"><ele>818.0</ele><time>2026-04-04T12:35:59.103Z</time></trkpt><trkpt lat="44.0001866" lon="10.7827276"><ele>815.6666666666667</ele><time>2026-04-04T12:36:00.103Z</time></trkpt><trkpt lat="44.0001488" lon="10.7826307"><ele>813.3333333333334</ele><time>2026-04-04T12:36:01.103Z</time></trkpt><trkpt lat="44.0001129" lon="10.782538"><ele>811.0</ele><time>2026-04-04T12:36:02.102Z</time></trkpt><trkpt lat="44.0000523" lon="10.7824639"><ele>808.6666666666667</ele><time>2026-04-04T12:36:04.104Z</time></trkpt><trkpt lat="44.0000119" lon="10.7823454"><ele>806.3333333333334</ele><time>2026-04-04T12:36:06.103Z</time></trkpt><trkpt lat="44.0000911" lon="10.7822347"><ele>804.0</ele><time>2026-04-04T12:36:08.102Z</time></trkpt><trkpt lat="44.0002061" lon="10.7821976"><ele>804.0</ele><time>2026-04-04T12:36:10.102Z</time></trkpt><trkpt lat="44.0002803" lon="10.7821256"><ele>804.0</ele><time>2026-04-04T12:36:12.104Z</time></trkpt><trkpt lat="44.0003286" lon="10.781966"><ele>804.0</ele><time>2026-04-04T12:36:14.103Z</time></trkpt><trkpt lat="44.0003674" lon="10.7818699"><ele>804.0</ele><time>2026-04-04T12:36:15.103Z</time></trkpt><trkpt lat="44.0004348" lon="10.7817469"><ele>804.0</ele><time>2026-04-04T12:36:16.104Z</time></trkpt><trkpt lat="44.000508" lon="10.7816799"><ele>805.2</ele><time>2026-04-04T12:36:17.102Z</time></trkpt><trkpt lat="44.0005845" lon="10.7816148"><ele>806.4000000000001</ele><time>2026-04-04T12:36:18.103Z</time></trkpt><trkpt lat="44.000653" lon="10.7815576"><ele>807.6</ele><time>2026-04-04T12:36:19.102Z</time></trkpt><trkpt lat="44.0007399" lon="10.7815069"><ele>808.8</ele><time>2026-04-04T12:36:20.103Z</time></trkpt><trkpt lat="44.000822" lon="10.7813938"><ele>810.0</ele><time>2026-04-04T12:36:22.104Z</time></trkpt><trkpt lat="44.0008802" lon="10.7812786"><ele>808.2</ele><time>2026-04-04T12:36:23.102Z</time></trkpt><trkpt lat="44.0009366" lon="10.7811784"><ele>806.4</ele><time>2026-04-04T12:36:24.103Z</time></trkpt><trkpt lat="44.0009685" lon="10.7810853"><ele>804.5999999999999</ele><time>2026-04-04T12:36:25.103Z</time></trkpt><trkpt lat="44.0009542" lon="10.7808981"><ele>802.8</ele><time>2026-04-04T12:36:26.103Z</time></trkpt><trkpt lat="44.0009721" lon="10.7807633"><ele>801.0</ele><time>2026-04-04T12:36:27.102Z</time></trkpt><trkpt lat="44.0009918" lon="10.7806644"><ele>801.0</ele><time>2026-04-04T12:36:28.103Z</time></trkpt><trkpt lat="44.0010052" lon="10.7805554"><ele>801.0</ele><time>2026-04-04T12:36:29.102Z</time></trkpt><trkpt lat="44.0009813" lon="10.7803949"><ele>801.0</ele><time>2026-04-04T12:36:30.102Z</time></trkpt><trkpt lat="44.0009826" lon="10.7802596"><ele>801.0</ele><time>2026-04-04T12:36:31.102Z</time></trkpt><trkpt lat="44.0009632" lon="10.780136"><ele>801.0</ele><time>2026-04-04T12:36:32.102Z</time></trkpt><trkpt lat="44.0009504" lon="10.779974"><ele>801.4</ele><time>2026-04-04T12:36:33.103Z</time></trkpt><trkpt lat="44.0009241" lon="10.7798148"><ele>801.8</ele><time>2026-04-04T12:36:34.103Z</time></trkpt><trkpt lat="44.0009024" lon="10.7796493"><ele>802.1999999999999</ele><time>2026-04-04T12:36:35.103Z</time></trkpt><trkpt lat="44.0008944" lon="10.7795347"><ele>802.5999999999999</ele><time>2026-04-04T12:36:36.103Z</time></trkpt><trkpt lat="44.0008844" lon="10.7793858"><ele>803.0</ele><time>2026-04-04T12:36:37.103Z</time></trkpt><trkpt lat="44.0008726" lon="10.7792346"><ele>803.4</ele><time>2026-04-04T12:36:38.103Z</time></trkpt><trkpt lat="44.0008599" lon="10.7790869"><ele>803.8</ele><time>2026-04-04T12:36:39.103Z</time></trkpt><trkpt lat="44.0008498" lon="10.7789498"><ele>804.2</ele><time>2026-04-04T12:36:40.103Z</time></trkpt><trkpt lat="44.0008385" lon="10.7788383"><ele>804.6</ele><time>2026-04-04T12:36:41.103Z</time></trkpt><trkpt lat="44.0008206" lon="10.7787359"><ele>805.0</ele><time>2026-04-04T12:36:42.104Z</time></trkpt><trkpt lat="44.0007839" lon="10.7786049"><ele>812.1666666666666</ele><time>2026-04-04T12:36:43.102Z</time></trkpt><trkpt lat="44.0007661" lon="10.7784889"><ele>819.3333333333333</ele><time>2026-04-04T12:36:44.103Z</time></trkpt><trkpt lat="44.0007449" lon="10.7783703"><ele>826.5</ele><time>2026-04-04T12:36:45.103Z</time></trkpt><trkpt lat="44.0007445" lon="10.7782376"><ele>833.6666666666667</ele><time>2026-04-04T12:36:46.103Z</time></trkpt><trkpt lat="44.0007793" lon="10.7781247"><ele>840.8333333333334</ele><time>2026-04-04T12:36:47.103Z</time></trkpt><trkpt lat="44.0007425" lon="10.778048"><ele>848.0</ele><time>2026-04-04T12:36:48.102Z</time></trkpt><trkpt lat="44.0007306" lon="10.7779427"><ele>848.0</ele><time>2026-04-04T12:36:49.103Z</time></trkpt><trkpt lat="44.0007196" lon="10.7778459"><ele>848.0</ele><time>2026-04-04T12:36:50.103Z</time></trkpt><trkpt lat="44.000636" lon="10.777773"><ele>848.0</ele><time>2026-04-04T12:36:51.103Z</time></trkpt><trkpt lat="44.0005962" lon="10.7776629"><ele>848.0</ele><time>2026-04-04T12:36:52.102Z</time></trkpt><trkpt lat="44.0005512" lon="10.7775453"><ele>848.0</ele><time>2026-04-04T12:36:53.102Z</time></trkpt><trkpt lat="44.0005287" lon="10.7774061"><ele>846.8</ele><time>2026-04-04T12:36:54.103Z</time></trkpt><trkpt lat="44.0004864" lon="10.7772702"><ele>845.5999999999999</ele><time>2026-04-04T12:36:55.103Z</time></trkpt><trkpt lat="44.0005002" lon="10.777126"><ele>844.4000000000001</ele><time>2026-04-04T12:36:56.103Z</time></trkpt><trkpt lat="44.0005112" lon="10.7769799"><ele>843.2</ele><time>2026-04-04T12:36:57.102Z</time></trkpt><trkpt lat="44.0005227" lon="10.7768408"><ele>842.0</ele><time>2026-04-04T12:36:58.103Z</time></trkpt><trkpt lat="44.0005552" lon="10.7767315"><ele>840.1666666666667</ele><time>2026-04-04T12:36:59.103Z</time></trkpt><trkpt lat="44.0005824" lon="10.7766131"><ele>838.3333333333334</ele><time>2026-04-04T12:37:00.102Z</time></trkpt><trkpt lat="44.0005582" lon="10.7765288"><ele>836.5</ele><time>2026-04-04T12:37:01.103Z</time></trkpt><trkpt lat="44.0005222" lon="10.776455"><ele>834.6666666666667</ele><time>2026-04-04T12:37:02.102Z</time></trkpt><trkpt lat="44.0004619" lon="10.7764144"><ele>832.8333333333334</ele><time>2026-04-04T12:37:03.102Z</time></trkpt><trkpt lat="44.0003276" lon="10.7763377"><ele>831.0</ele><time>2026-04-04T12:37:05.103Z</time></trkpt><trkpt lat="44.0002134" lon="10.7762687"><ele>831.0</ele><time>2026-04-04T12:37:06.102Z</time></trkpt><trkpt lat="44.0001362" lon="10.7761972"><ele>831.0</ele><time>2026-04-04T12:37:07.103Z</time></trkpt><trkpt lat="44.0000477" lon="10.7761443"><ele>831.0</ele><time>2026-04-04T12:37:08.102Z</time></trkpt><trkpt lat="43.9999639" lon="10.7761126"><ele>831.0</ele><time>2026-04-04T12:37:09.103Z</time></trkpt><trkpt lat="43.9998693" lon="10.7760987"><ele>831.0</ele><time>2026-04-04T12:37:10.102Z</time></trkpt><trkpt lat="43.99978" lon="10.7760753"><ele>831.0</ele><time>2026-04-04T12:37:11.103Z</time></trkpt><trkpt lat="43.9996965" lon="10.7760496"><ele>831.0</ele><time>2026-04-04T12:37:12.103Z</time></trkpt><trkpt lat="43.9996098" lon="10.7759902"><ele>831.0</ele><time>2026-04-04T12:37:13.102Z</time></trkpt><trkpt lat="43.9995559" lon="10.775906"><ele>831.0</ele><time>2026-04-04T12:37:14.103Z</time></trkpt><trkpt lat="43.9995076" lon="10.7758358"><ele>831.0</ele><time>2026-04-04T12:37:15.102Z</time></trkpt><trkpt lat="43.9994568" lon="10.7757475"><ele>831.0</ele><time>2026-04-04T12:37:16.103Z</time></trkpt><trkpt lat="43.9993803" lon="10.7757004"><ele>829.4</ele><time>2026-04-04T12:37:17.103Z</time></trkpt><trkpt lat="43.999301" lon="10.7756321"><ele>827.8</ele><time>2026-04-04T12:37:18.103Z</time></trkpt><trkpt lat="43.9992232" lon="10.7755853"><ele>826.1999999999999</ele><time>2026-04-04T12:37:19.103Z</time></trkpt><trkpt lat="43.9991398" lon="10.7755332"><ele>824.5999999999999</ele><time>2026-04-04T12:37:20.103Z</time></trkpt><trkpt lat="43.9990585" lon="10.7754463"><ele>823.0</ele><time>2026-04-04T12:37:22.102Z</time></trkpt><trkpt lat="43.9989972" lon="10.7753286"><ele>823.0</ele><time>2026-04-04T12:37:24.103Z</time></trkpt><trkpt lat="43.9989564" lon="10.7752287"><ele>823.0</ele><time>2026-04-04T12:37:25.102Z</time></trkpt><trkpt lat="43.9989193" lon="10.7751163"><ele>823.0</ele><time>2026-04-04T12:37:26.104Z</time></trkpt><trkpt lat="43.998879" lon="10.7749933"><ele>823.0</ele><time>2026-04-04T12:37:27.102Z</time></trkpt><trkpt lat="43.9988312" lon="10.7748678"><ele>823.0</ele><time>2026-04-04T12:37:28.104Z</time></trkpt><trkpt lat="43.9987586" lon="10.7747614"><ele>818.8</ele><time>2026-04-04T12:37:29.104Z</time></trkpt><trkpt lat="43.9986936" lon="10.7746443"><ele>814.5999999999999</ele><time>2026-04-04T12:37:30.103Z</time></trkpt><trkpt lat="43.9986555" lon="10.7745446"><ele>810.4000000000001</ele><time>2026-04-04T12:37:31.104Z</time></trkpt><trkpt lat="43.9986143" lon="10.7744467"><ele>806.2</ele><time>2026-04-04T12:37:32.102Z</time></trkpt><trkpt lat="43.9985888" lon="10.7743087"><ele>802.0</ele><time>2026-04-04T12:37:33.103Z</time></trkpt><trkpt lat="43.9985585" lon="10.7742064"><ele>798.8</ele><time>2026-04-04T12:37:34.102Z</time></trkpt><trkpt lat="43.9985273" lon="10.7741091"><ele>795.6</ele><time>2026-04-04T12:37:35.104Z</time></trkpt><trkpt lat="43.9984328" lon="10.7739708"><ele>792.4</ele><time>2026-04-04T12:37:37.103Z</time></trkpt><trkpt lat="43.9983817" lon="10.7739018"><ele>789.1999999999999</ele><time>2026-04-04T12:37:38.103Z</time></trkpt><trkpt lat="43.9982756" lon="10.7738588"><ele>786.0</ele><time>2026-04-04T12:37:39.102Z</time></trkpt><trkpt lat="43.9981937" lon="10.7737999"><ele>792.5</ele><time>2026-04-04T12:37:40.103Z</time></trkpt><trkpt lat="43.9980996" lon="10.7738164"><ele>799.0</ele><time>2026-04-04T12:37:41.103Z</time></trkpt><trkpt lat="43.9980027" lon="10.7738012"><ele>805.5</ele><time>2026-04-04T12:37:42.103Z</time></trkpt><trkpt lat="43.9979125" lon="10.7738026"><ele>812.0</ele><time>2026-04-04T12:37:43.103Z</time></trkpt><trkpt lat="43.9978398" lon="10.7737935"><ele>818.5</ele><time>2026-04-04T12:37:44.102Z</time></trkpt><trkpt lat="43.9977542" lon="10.7737852"><ele>825.0</ele><time>2026-04-04T12:37:45.102Z</time></trkpt><trkpt lat="43.9976741" lon="10.7737721"><ele>825.0</ele><time>2026-04-04T12:37:46.103Z</time></trkpt><trkpt lat="43.997591" lon="10.7737713"><ele>825.0</ele><time>2026-04-04T12:37:47.104Z</time></trkpt><trkpt lat="43.9974906" lon="10.773837"><ele>825.0</ele><time>2026-04-04T12:37:49.103Z</time></trkpt><trkpt lat="43.9974213" lon="10.7738737"><ele>825.0</ele><time>2026-04-04T12:37:50.103Z</time></trkpt><trkpt lat="43.997344" lon="10.7739186"><ele>825.0</ele><time>2026-04-04T12:37:51.102Z</time></trkpt><trkpt lat="43.997243" lon="10.7739174"><ele>826.4</ele><time>2026-04-04T12:37:52.103Z</time></trkpt><trkpt lat="43.9971491" lon="10.7739444"><ele>827.8</ele><time>2026-04-04T12:37:53.103Z</time></trkpt><trkpt lat="43.9970615" lon="10.7739795"><ele>829.2</ele><time>2026-04-04T12:37:54.103Z</time></trkpt><trkpt lat="43.9969779" lon="10.7740073"><ele>830.6</ele><time>2026-04-04T12:37:55.103Z</time></trkpt><trkpt lat="43.9969031" lon="10.7740007"><ele>832.0</ele><time>2026-04-04T12:37:56.103Z</time></trkpt><trkpt lat="43.9967887" lon="10.7739858"><ele>832.0</ele><time>2026-04-04T12:37:57.102Z</time></trkpt><trkpt lat="43.99669" lon="10.7739604"><ele>832.0</ele><time>2026-04-04T12:37:58.103Z</time></trkpt><trkpt lat="43.9965893" lon="10.773988"><ele>832.0</ele><time>2026-04-04T12:37:59.103Z</time></trkpt><trkpt lat="43.9964876" lon="10.7741197"><ele>832.0</ele><time>2026-04-04T12:38:01.103Z</time></trkpt><trkpt lat="43.9964199" lon="10.774252"><ele>830.4999999999999</ele><time>2026-04-04T12:38:03.103Z</time></trkpt><trkpt lat="43.9963447" lon="10.7741549"><ele>829.0</ele><time>2026-04-04T12:38:05.103Z</time></trkpt><trkpt lat="43.9963018" lon="10.7740638"><ele>827.5</ele><time>2026-04-04T12:38:06.102Z</time></trkpt><trkpt lat="43.9962425" lon="10.7739684"><ele>826.0</ele><time>2026-04-04T12:38:07.102Z</time></trkpt><trkpt lat="43.996206" lon="10.7738939"><ele>824.4999999999999</ele><time>2026-04-04T12:38:08.102Z</time></trkpt><trkpt lat="43.9961611" lon="10.7738228"><ele>823.0</ele><time>2026-04-04T12:38:09.103Z</time></trkpt><trkpt lat="43.9961435" lon="10.7737335"><ele>822.9999999999999</ele><time>2026-04-04T12:38:10.103Z</time></trkpt><trkpt lat="43.996112" lon="10.773634"><ele>823.0</ele><time>2026-04-04T12:38:11.102Z</time></trkpt><trkpt lat="43.996118" lon="10.7735404"><ele>823.0</ele><time>2026-04-04T12:38:12.102Z</time></trkpt><trkpt lat="43.9960689" lon="10.7734478"><ele>823.0</ele><time>2026-04-04T12:38:14.103Z</time></trkpt><trkpt lat="43.9960198" lon="10.7732983"><ele>822.9999999999999</ele><time>2026-04-04T12:38:16.103Z</time></trkpt><trkpt lat="43.9960024" lon="10.7732061"><ele>823.0</ele><time>2026-04-04T12:38:17.103Z</time></trkpt><trkpt lat="43.9959942" lon="10.7731085"><ele>821.2</ele><time>2026-04-04T12:38:18.103Z</time></trkpt><trkpt lat="43.9959017" lon="10.7730046"><ele>819.4</ele><time>2026-04-04T12:38:20.103Z</time></trkpt><trkpt lat="43.995781" lon="10.772902"><ele>817.6</ele><time>2026-04-04T12:38:22.104Z</time></trkpt><trkpt lat="43.9956846" lon="10.7728515"><ele>815.8000000000001</ele><time>2026-04-04T12:38:23.102Z</time></trkpt><trkpt lat="43.9956195" lon="10.7727897"><ele>814.0</ele><time>2026-04-04T12:38:24.102Z</time></trkpt><trkpt lat="43.9955494" lon="10.7727375"><ele>816.9999999999999</ele><time>2026-04-04T12:38:25.103Z</time></trkpt><trkpt lat="43.9954921" lon="10.7726782"><ele>820.0</ele><time>2026-04-04T12:38:26.103Z</time></trkpt><trkpt lat="43.995437" lon="10.7726283"><ele>823.0</ele><time>2026-04-04T12:38:27.103Z</time></trkpt><trkpt lat="43.995354" lon="10.7725315"><ele>826.0</ele><time>2026-04-04T12:38:29.103Z</time></trkpt><trkpt lat="43.9952852" lon="10.7724707"><ele>828.9999999999999</ele><time>2026-04-04T12:38:31.103Z</time></trkpt><trkpt lat="43.995273" lon="10.7725886"><ele>832.0</ele><time>2026-04-04T12:38:48.102Z</time></trkpt><trkpt lat="43.9952786" lon="10.7726885"><ele>831.9999999999999</ele><time>2026-04-04T12:38:50.102Z</time></trkpt><trkpt lat="43.9952658" lon="10.7727964"><ele>832.0</ele><time>2026-04-04T12:38:52.104Z</time></trkpt><trkpt lat="43.9952442" lon="10.7729257"><ele>832.0</ele><time>2026-04-04T12:38:54.103Z</time></trkpt><trkpt lat="43.9952352" lon="10.7730153"><ele>832.0</ele><time>2026-04-04T12:38:55.102Z</time></trkpt><trkpt lat="43.995232" lon="10.773134"><ele>831.9999999999999</ele><time>2026-04-04T12:38:56.103Z</time></trkpt><trkpt lat="43.9952371" lon="10.7732764"><ele>832.0</ele><time>2026-04-04T12:38:57.102Z</time></trkpt><trkpt lat="43.9952436" lon="10.7734079"><ele>832.8333333333333</ele><time>2026-04-04T12:38:58.103Z</time></trkpt><trkpt lat="43.9952444" lon="10.7735266"><ele>833.6666666666666</ele><time>2026-04-04T12:38:59.103Z</time></trkpt><trkpt lat="43.9952396" lon="10.7736324"><ele>834.5</ele><time>2026-04-04T12:39:00.103Z</time></trkpt><trkpt lat="43.9952296" lon="10.7737218"><ele>835.3333333333333</ele><time>2026-04-04T12:39:01.103Z</time></trkpt><trkpt lat="43.9952081" lon="10.7738247"><ele>836.1666666666666</ele><time>2026-04-04T12:39:03.102Z</time></trkpt><trkpt lat="43.9951665" lon="10.7739074"><ele>837.0</ele><time>2026-04-04T12:39:07.103Z</time></trkpt><trkpt lat="43.9951769" lon="10.7740099"><ele>837.0</ele><time>2026-04-04T12:39:17.103Z</time></trkpt><trkpt lat="43.9952351" lon="10.7741569"><ele>837.0</ele><time>2026-04-04T12:39:19.103Z</time></trkpt><trkpt lat="43.9952561" lon="10.7742497"><ele>837.0</ele><time>2026-04-04T12:39:20.102Z</time></trkpt><trkpt lat="43.9952631" lon="10.7743554"><ele>837.0</ele><time>2026-04-04T12:39:21.103Z</time></trkpt><trkpt lat="43.9952584" lon="10.7744741"><ele>837.0</ele><time>2026-04-04T12:39:22.103Z</time></trkpt><trkpt lat="43.9952469" lon="10.7745963"><ele>837.0</ele><time>2026-04-04T12:39:23.103Z</time></trkpt><trkpt lat="43.9952328" lon="10.7747243"><ele>841.2</ele><time>2026-04-04T12:39:24.103Z</time></trkpt><trkpt lat="43.9952209" lon="10.7748506"><ele>845.4000000000001</ele><time>2026-04-04T12:39:25.103Z</time></trkpt><trkpt lat="43.9952145" lon="10.7749817"><ele>849.5999999999999</ele><time>2026-04-04T12:39:26.102Z</time></trkpt><trkpt lat="43.9952085" lon="10.7751101"><ele>853.8</ele><time>2026-04-04T12:39:27.102Z</time></trkpt><trkpt lat="43.9952101" lon="10.7752426"><ele>858.0</ele><time>2026-04-04T12:39:28.102Z</time></trkpt><trkpt lat="43.9952121" lon="10.7753825"><ele>862.4</ele><time>2026-04-04T12:39:29.102Z</time></trkpt><trkpt lat="43.9952388" lon="10.7754859"><ele>866.8</ele><time>2026-04-04T12:39:30.102Z</time></trkpt><trkpt lat="43.9952434" lon="10.775606"><ele>871.2</ele><time>2026-04-04T12:39:31.102Z</time></trkpt><trkpt lat="43.9952381" lon="10.7757361"><ele>875.6</ele><time>2026-04-04T12:39:32.103Z</time></trkpt><trkpt lat="43.9951952" lon="10.775871"><ele>880.0</ele><time>2026-04-04T12:39:33.103Z</time></trkpt><trkpt lat="43.9951399" lon="10.775993"><ele>879.8</ele><time>2026-04-04T12:39:34.102Z</time></trkpt><trkpt lat="43.9950777" lon="10.7760982"><ele>879.6</ele><time>2026-04-04T12:39:35.102Z</time></trkpt><trkpt lat="43.9950059" lon="10.7761957"><ele>879.4000000000001</ele><time>2026-04-04T12:39:36.103Z</time></trkpt><trkpt lat="43.9949207" lon="10.7762534"><ele>879.2</ele><time>2026-04-04T12:39:37.103Z</time></trkpt><trkpt lat="43.9948288" lon="10.7762645"><ele>879.0</ele><time>2026-04-04T12:39:38.103Z</time></trkpt><trkpt lat="43.9947221" lon="10.7762391"><ele>879.0</ele><time>2026-04-04T12:39:39.103Z</time></trkpt><trkpt lat="43.9945991" lon="10.7761934"><ele>879.0</ele><time>2026-04-04T12:39:40.103Z</time></trkpt><trkpt lat="43.9944496" lon="10.776145"><ele>879.0</ele><time>2026-04-04T12:39:41.103Z</time></trkpt><trkpt lat="43.9943175" lon="10.7761332"><ele>879.0</ele><time>2026-04-04T12:39:42.103Z</time></trkpt><trkpt lat="43.9941849" lon="10.776128"><ele>878.75</ele><time>2026-04-04T12:39:43.103Z</time></trkpt><trkpt lat="43.9940532" lon="10.7761375"><ele>878.5</ele><time>2026-04-04T12:39:44.103Z</time></trkpt><trkpt lat="43.9939361" lon="10.7762597"><ele>878.25</ele><time>2026-04-04T12:39:45.103Z</time></trkpt><trkpt lat="43.9938081" lon="10.7763222"><ele>878.0</ele><time>2026-04-04T12:39:46.104Z</time></trkpt><trkpt lat="43.9936857" lon="10.7763816"><ele>878.0</ele><time>2026-04-04T12:39:47.103Z</time></trkpt><trkpt lat="43.9935778" lon="10.7764187"><ele>878.0</ele><time>2026-04-04T12:39:48.103Z</time></trkpt><trkpt lat="43.9934682" lon="10.7764462"><ele>878.0</ele><time>2026-04-04T12:39:49.104Z</time></trkpt><trkpt lat="43.993375" lon="10.7764737"><ele>878.0</ele><time>2026-04-04T12:39:50.103Z</time></trkpt><trkpt lat="43.9933015" lon="10.7765066"><ele>878.0</ele><time>2026-04-04T12:39:51.103Z</time></trkpt><trkpt lat="43.9932388" lon="10.7766474"><ele>878.25</ele><time>2026-04-04T12:39:53.103Z</time></trkpt><trkpt lat="43.993236" lon="10.7767752"><ele>878.5</ele><time>2026-04-04T12:39:54.102Z</time></trkpt><trkpt lat="43.9932571" lon="10.7769316"><ele>878.75</ele><time>2026-04-04T12:39:55.102Z</time></trkpt><trkpt lat="43.9932998" lon="10.7771177"><ele>879.0</ele><time>2026-04-04T12:39:56.102Z</time></trkpt><trkpt lat="43.9933492" lon="10.7773017"><ele>882.4000000000001</ele><time>2026-04-04T12:39:57.102Z</time></trkpt><trkpt lat="43.9933888" lon="10.777461"><ele>885.8000000000001</ele><time>2026-04-04T12:39:58.102Z</time></trkpt><trkpt lat="43.9934282" lon="10.777599"><ele>889.1999999999999</ele><time>2026-04-04T12:39:59.102Z</time></trkpt><trkpt lat="43.9934682" lon="10.7777168"><ele>892.5999999999999</ele><time>2026-04-04T12:40:00.103Z</time></trkpt><trkpt lat="43.9935025" lon="10.7778139"><ele>896.0</ele><time>2026-04-04T12:40:01.103Z</time></trkpt><trkpt lat="43.9935375" lon="10.777964"><ele>896.0000000000001</ele><time>2026-04-04T12:40:03.103Z</time></trkpt><trkpt lat="43.9934682" lon="10.7780923"><ele>896.0</ele><time>2026-04-04T12:40:05.102Z</time></trkpt><trkpt lat="43.9933984" lon="10.7781393"><ele>896.0</ele><time>2026-04-04T12:40:06.102Z</time></trkpt><trkpt lat="43.9933227" lon="10.778165"><ele>896.0</ele><time>2026-04-04T12:40:07.102Z</time></trkpt><trkpt lat="43.9932504" lon="10.7781752"><ele>896.0000000000001</ele><time>2026-04-04T12:40:08.102Z</time></trkpt><trkpt lat="43.9931803" lon="10.7781735"><ele>896.0</ele><time>2026-04-04T12:40:09.102Z</time></trkpt><trkpt lat="43.9931127" lon="10.7781561"><ele>896.0000000000001</ele><time>2026-04-04T12:40:10.102Z</time></trkpt><trkpt lat="43.9930385" lon="10.7781289"><ele>896.0</ele><time>2026-04-04T12:40:11.102Z</time></trkpt><trkpt lat="43.9929596" lon="10.7781055"><ele>896.0</ele><time>2026-04-04T12:40:12.102Z</time></trkpt><trkpt lat="43.9928727" lon="10.7780928"><ele>896.0</ele><time>2026-04-04T12:40:13.103Z</time></trkpt><trkpt lat="43.9927761" lon="10.7780875"><ele>896.0000000000001</ele><time>2026-04-04T12:40:14.103Z</time></trkpt><trkpt lat="43.9926785" lon="10.7780877"><ele>896.0</ele><time>2026-04-04T12:40:15.103Z</time></trkpt><trkpt lat="43.9925889" lon="10.7780968"><ele>896.0</ele><time>2026-04-04T12:40:16.102Z</time></trkpt><trkpt lat="43.9925073" lon="10.7781156"><ele>895.9999999999999</ele><time>2026-04-04T12:40:17.103Z</time></trkpt><trkpt lat="43.9924326" lon="10.7781387"><ele>895.9999999999999</ele><time>2026-04-04T12:40:18.102Z</time></trkpt><trkpt lat="43.9923603" lon="10.7781759"><ele>896.0</ele><time>2026-04-04T12:40:19.102Z</time></trkpt><trkpt lat="43.9922499" lon="10.7782243"><ele>896.0</ele><time>2026-04-04T12:40:21.103Z</time></trkpt><trkpt lat="43.9921444" lon="10.7783589"><ele>896.1999999999999</ele><time>2026-04-04T12:40:23.102Z</time></trkpt><trkpt lat="43.9920795" lon="10.778444"><ele>896.3999999999999</ele><time>2026-04-04T12:40:24.104Z</time></trkpt><trkpt lat="43.992009" lon="10.7785389"><ele>896.6</ele><time>2026-04-04T12:40:25.103Z</time></trkpt><trkpt lat="43.9919454" lon="10.7786429"><ele>896.8</ele><time>2026-04-04T12:40:26.104Z</time></trkpt><trkpt lat="43.9919144" lon="10.7787578"><ele>897.0</ele><time>2026-04-04T12:40:27.103Z</time></trkpt><trkpt lat="43.99192" lon="10.7788692"><ele>900.2</ele><time>2026-04-04T12:40:28.103Z</time></trkpt><trkpt lat="43.9919483" lon="10.7789903"><ele>903.4000000000001</ele><time>2026-04-04T12:40:29.103Z</time></trkpt><trkpt lat="43.992001" lon="10.7791021"><ele>906.5999999999999</ele><time>2026-04-04T12:40:30.103Z</time></trkpt><trkpt lat="43.9920674" lon="10.7792118"><ele>909.8</ele><time>2026-04-04T12:40:31.102Z</time></trkpt><trkpt lat="43.9921404" lon="10.7793164"><ele>913.0</ele><time>2026-04-04T12:40:32.103Z</time></trkpt><trkpt lat="43.9922293" lon="10.7794264"><ele>913.2</ele><time>2026-04-04T12:40:33.103Z</time></trkpt><trkpt lat="43.9923213" lon="10.7795277"><ele>913.4</ele><time>2026-04-04T12:40:34.104Z</time></trkpt><trkpt lat="43.9924191" lon="10.7796215"><ele>913.6000000000001</ele><time>2026-04-04T12:40:35.103Z</time></trkpt><trkpt lat="43.9925017" lon="10.779689"><ele>913.8000000000001</ele><time>2026-04-04T12:40:36.103Z</time></trkpt><trkpt lat="43.9925766" lon="10.7797302"><ele>914.0</ele><time>2026-04-04T12:40:37.104Z</time></trkpt><trkpt lat="43.992685" lon="10.7796946"><ele>916.2</ele><time>2026-04-04T12:40:39.103Z</time></trkpt><trkpt lat="43.9927709" lon="10.7795841"><ele>918.4000000000001</ele><time>2026-04-04T12:40:41.102Z</time></trkpt><trkpt lat="43.9928775" lon="10.7795398"><ele>920.6</ele><time>2026-04-04T12:40:43.103Z</time></trkpt><trkpt lat="43.9929665" lon="10.7795829"><ele>922.8</ele><time>2026-04-04T12:40:45.102Z</time></trkpt><trkpt lat="43.9930427" lon="10.7796674"><ele>925.0</ele><time>2026-04-04T12:40:47.102Z</time></trkpt><trkpt lat="43.9930846" lon="10.7798034"><ele>925.0</ele><time>2026-04-04T12:40:49.104Z</time></trkpt><trkpt lat="43.9931092" lon="10.7799746"><ele>925.0</ele><time>2026-04-04T12:40:51.103Z</time></trkpt><trkpt lat="43.993124" lon="10.7801379"><ele>925.0</ele><time>2026-04-04T12:40:53.102Z</time></trkpt><trkpt lat="43.9931328" lon="10.7802514"><ele>925.0</ele><time>2026-04-04T12:40:55.102Z</time></trkpt><trkpt lat="43.9931477" lon="10.7803495"><ele>925.0</ele><time>2026-04-04T12:40:58.102Z</time></trkpt><trkpt lat="43.993162" lon="10.7804662"><ele>925.0</ele><time>2026-04-04T12:41:01.103Z</time></trkpt><trkpt lat="43.9931606" lon="10.7805801"><ele>925.0</ele><time>2026-04-04T12:41:03.103Z</time></trkpt><trkpt lat="43.9931382" lon="10.7806907"><ele>925.0</ele><time>2026-04-04T12:41:05.102Z</time></trkpt><trkpt lat="43.9931114" lon="10.7808049"><ele>925.0</ele><time>2026-04-04T12:41:07.103Z</time></trkpt><trkpt lat="43.9930655" lon="10.7809273"><ele>925.0</ele><time>2026-04-04T12:41:09.103Z</time></trkpt><trkpt lat="43.9930145" lon="10.7810518"><ele>925.8333333333333</ele><time>2026-04-04T12:41:11.102Z</time></trkpt><trkpt lat="43.9929832" lon="10.7811406"><ele>926.6666666666666</ele><time>2026-04-04T12:41:12.102Z</time></trkpt><trkpt lat="43.9929221" lon="10.7812984"><ele>927.5</ele><time>2026-04-04T12:41:14.103Z</time></trkpt><trkpt lat="43.9928809" lon="10.7813722"><ele>928.3333333333333</ele><time>2026-04-04T12:41:15.103Z</time></trkpt><trkpt lat="43.9928681" lon="10.7814826"><ele>929.1666666666666</ele><time>2026-04-04T12:41:16.103Z</time></trkpt><trkpt lat="43.992878" lon="10.7815866"><ele>930.0</ele><time>2026-04-04T12:41:17.102Z</time></trkpt><trkpt lat="43.9929113" lon="10.7816844"><ele>930.0</ele><time>2026-04-04T12:41:18.102Z</time></trkpt><trkpt lat="43.9929507" lon="10.7817856"><ele>930.0</ele><time>2026-04-04T12:41:19.102Z</time></trkpt><trkpt lat="43.9929911" lon="10.7818997"><ele>930.0</ele><time>2026-04-04T12:41:20.103Z</time></trkpt><trkpt lat="43.9930149" lon="10.7820204"><ele>930.0</ele><time>2026-04-04T12:41:21.103Z</time></trkpt><trkpt lat="43.9930284" lon="10.7821419"><ele>930.0</ele><time>2026-04-04T12:41:22.102Z</time></trkpt><trkpt lat="43.9930243" lon="10.7822586"><ele>930.0</ele><time>2026-04-04T12:41:23.102Z</time></trkpt><trkpt lat="43.9930054" lon="10.7823692"><ele>930.8333333333334</ele><time>2026-04-04T12:41:24.103Z</time></trkpt><trkpt lat="43.9929754" lon="10.7824737"><ele>931.6666666666667</ele><time>2026-04-04T12:41:25.103Z</time></trkpt><trkpt lat="43.9929354" lon="10.7825735"><ele>932.5</ele><time>2026-04-04T12:41:26.102Z</time></trkpt><trkpt lat="43.9928858" lon="10.7826579"><ele>933.3333333333334</ele><time>2026-04-04T12:41:27.104Z</time></trkpt><trkpt lat="43.9928262" lon="10.7827401"><ele>934.1666666666667</ele><time>2026-04-04T12:41:28.102Z</time></trkpt><trkpt lat="43.9927661" lon="10.7828331"><ele>935.0</ele><time>2026-04-04T12:41:29.103Z</time></trkpt><trkpt lat="43.9927021" lon="10.7829222"><ele>936.0000000000001</ele><time>2026-04-04T12:41:30.103Z</time></trkpt><trkpt lat="43.9926399" lon="10.7830188"><ele>937.0</ele><time>2026-04-04T12:41:31.103Z</time></trkpt><trkpt lat="43.9925872" lon="10.7831186"><ele>938.0</ele><time>2026-04-04T12:41:32.103Z</time></trkpt><trkpt lat="43.9925448" lon="10.7832271"><ele>939.0</ele><time>2026-04-04T12:41:33.103Z</time></trkpt><trkpt lat="43.9925222" lon="10.7833387"><ele>940.0000000000001</ele><time>2026-04-04T12:41:34.104Z</time></trkpt><trkpt lat="43.9925167" lon="10.7834543"><ele>941.0</ele><time>2026-04-04T12:41:35.103Z</time></trkpt><trkpt lat="43.9925314" lon="10.7835577"><ele>944.1999999999999</ele><time>2026-04-04T12:41:36.104Z</time></trkpt><trkpt lat="43.9925411" lon="10.7836716"><ele>947.3999999999999</ele><time>2026-04-04T12:41:37.103Z</time></trkpt><trkpt lat="43.9925647" lon="10.7837782"><ele>950.6</ele><time>2026-04-04T12:41:38.102Z</time></trkpt><trkpt lat="43.992662" lon="10.7838685"><ele>953.8</ele><time>2026-04-04T12:41:39.103Z</time></trkpt><trkpt lat="43.9927258" lon="10.7839723"><ele>957.0</ele><time>2026-04-04T12:41:40.104Z</time></trkpt><trkpt lat="43.9927783" lon="10.7840872"><ele>957.0</ele><time>2026-04-04T12:41:41.103Z</time></trkpt><trkpt lat="43.992828" lon="10.7841763"><ele>957.0</ele><time>2026-04-04T12:41:42.103Z</time></trkpt><trkpt lat="43.992878" lon="10.7842561"><ele>957.0</ele><time>2026-04-04T12:41:43.103Z</time></trkpt><trkpt lat="43.9929406" lon="10.7843952"><ele>957.0</ele><time>2026-04-04T12:41:45.103Z</time></trkpt><trkpt lat="43.9929454" lon="10.7844954"><ele>957.0</ele><time>2026-04-04T12:41:46.102Z</time></trkpt><trkpt lat="43.9928815" lon="10.7845334"><ele>957.0</ele><time>2026-04-04T12:41:47.102Z</time></trkpt><trkpt lat="43.9927992" lon="10.7845665"><ele>957.0</ele><time>2026-04-04T12:41:48.103Z</time></trkpt><trkpt lat="43.992741" lon="10.7845126"><ele>957.0</ele><time>2026-04-04T12:41:49.102Z</time></trkpt><trkpt lat="43.9926664" lon="10.7844008"><ele>957.0</ele><time>2026-04-04T12:41:50.102Z</time></trkpt><trkpt lat="43.992649" lon="10.7842528"><ele>957.0</ele><time>2026-04-04T12:41:51.103Z</time></trkpt><trkpt lat="43.9926012" lon="10.7841692"><ele>957.0</ele><time>2026-04-04T12:41:52.102Z</time></trkpt><trkpt lat="43.9925291" lon="10.7841103"><ele>957.0</ele><time>2026-04-04T12:41:53.103Z</time></trkpt><trkpt lat="43.992436" lon="10.7840708"><ele>957.0</ele><time>2026-04-04T12:41:54.102Z</time></trkpt><trkpt lat="43.9923355" lon="10.7840447"><ele>957.0</ele><time>2026-04-04T12:41:55.104Z</time></trkpt><trkpt lat="43.9922276" lon="10.7840332"><ele>957.0</ele><time>2026-04-04T12:41:56.103Z</time></trkpt><trkpt lat="43.9921234" lon="10.7840425"><ele>957.0</ele><time>2026-04-04T12:41:57.102Z</time></trkpt><trkpt lat="43.9920305" lon="10.7840672"><ele>957.0</ele><time>2026-04-04T12:41:58.102Z</time></trkpt><trkpt lat="43.9919382" lon="10.7841156"><ele>957.0</ele><time>2026-04-04T12:41:59.104Z</time></trkpt><trkpt lat="43.9918563" lon="10.7841793"><ele>957.0</ele><time>2026-04-04T12:42:00.102Z</time></trkpt><trkpt lat="43.9917858" lon="10.784273"><ele>957.0</ele><time>2026-04-04T12:42:01.103Z</time></trkpt><trkpt lat="43.9917173" lon="10.7843878"><ele>957.0</ele><time>2026-04-04T12:42:02.102Z</time></trkpt><trkpt lat="43.991651" lon="10.7845247"><ele>957.0</ele><time>2026-04-04T12:42:03.103Z</time></trkpt><trkpt lat="43.9915871" lon="10.7846632"><ele>958.2</ele><time>2026-04-04T12:42:04.103Z</time></trkpt><trkpt lat="43.9915286" lon="10.7847965"><ele>959.4000000000001</ele><time>2026-04-04T12:42:05.103Z</time></trkpt><trkpt lat="43.991469" lon="10.7849206"><ele>960.5999999999999</ele><time>2026-04-04T12:42:06.103Z</time></trkpt><trkpt lat="43.9914009" lon="10.785043"><ele>961.8</ele><time>2026-04-04T12:42:07.103Z</time></trkpt><trkpt lat="43.9913247" lon="10.7851582"><ele>963.0</ele><time>2026-04-04T12:42:08.103Z</time></trkpt><trkpt lat="43.9912437" lon="10.7852754"><ele>963.5999999999999</ele><time>2026-04-04T12:42:09.103Z</time></trkpt><trkpt lat="43.9911627" lon="10.7853816"><ele>964.1999999999999</ele><time>2026-04-04T12:42:10.104Z</time></trkpt><trkpt lat="43.9910769" lon="10.7854856"><ele>964.8</ele><time>2026-04-04T12:42:11.103Z</time></trkpt><trkpt lat="43.990999" lon="10.7855817"><ele>965.4</ele><time>2026-04-04T12:42:12.102Z</time></trkpt><trkpt lat="43.9909297" lon="10.7856667"><ele>966.0</ele><time>2026-04-04T12:42:13.102Z</time></trkpt><trkpt lat="43.9908668" lon="10.7857461"><ele>966.4</ele><time>2026-04-04T12:42:14.103Z</time></trkpt><trkpt lat="43.9908055" lon="10.7858187"><ele>966.8</ele><time>2026-04-04T12:42:15.104Z</time></trkpt><trkpt lat="43.990735" lon="10.7858862"><ele>967.1999999999999</ele><time>2026-04-04T12:42:16.103Z</time></trkpt><trkpt lat="43.990665" lon="10.7859644"><ele>967.5999999999999</ele><time>2026-04-04T12:42:17.104Z</time></trkpt><trkpt lat="43.9905883" lon="10.786031"><ele>968.0</ele><time>2026-04-04T12:42:18.102Z</time></trkpt><trkpt lat="43.9904782" lon="10.7860802"><ele>968.0</ele><time>2026-04-04T12:42:19.103Z</time></trkpt><trkpt lat="43.9903867" lon="10.786052"><ele>968.0</ele><time>2026-04-04T12:42:20.103Z</time></trkpt><trkpt lat="43.9902836" lon="10.7860467"><ele>968.0</ele><time>2026-04-04T12:42:21.102Z</time></trkpt><trkpt lat="43.9901625" lon="10.7860142"><ele>968.0</ele><time>2026-04-04T12:42:22.103Z</time></trkpt><trkpt lat="43.990051" lon="10.7860057"><ele>968.0</ele><time>2026-04-04T12:42:23.102Z</time></trkpt><trkpt lat="43.9899362" lon="10.7860337"><ele>969.0</ele><time>2026-04-04T12:42:24.103Z</time></trkpt><trkpt lat="43.9898186" lon="10.786049"><ele>970.0</ele><time>2026-04-04T12:42:25.102Z</time></trkpt><trkpt lat="43.9897014" lon="10.7860715"><ele>971.0</ele><time>2026-04-04T12:42:26.103Z</time></trkpt><trkpt lat="43.9895814" lon="10.7861026"><ele>972.0</ele><time>2026-04-04T12:42:27.103Z</time></trkpt><trkpt lat="43.9894738" lon="10.7861337"><ele>972.0</ele><time>2026-04-04T12:42:28.102Z</time></trkpt><trkpt lat="43.9893727" lon="10.7861574"><ele>972.0</ele><time>2026-04-04T12:42:29.103Z</time></trkpt><trkpt lat="43.9892758" lon="10.7862033"><ele>972.0</ele><time>2026-04-04T12:42:30.103Z</time></trkpt><trkpt lat="43.9891774" lon="10.7862575"><ele>972.0</ele><time>2026-04-04T12:42:31.103Z</time></trkpt><trkpt lat="43.9890847" lon="10.7863317"><ele>972.0</ele><time>2026-04-04T12:42:32.102Z</time></trkpt><trkpt lat="43.9889931" lon="10.7864008"><ele>971.6</ele><time>2026-04-04T12:42:33.103Z</time></trkpt><trkpt lat="43.9889018" lon="10.7864736"><ele>971.2</ele><time>2026-04-04T12:42:34.103Z</time></trkpt><trkpt lat="43.9888181" lon="10.7865528"><ele>970.8</ele><time>2026-04-04T12:42:35.104Z</time></trkpt><trkpt lat="43.9887359" lon="10.78663"><ele>970.4</ele><time>2026-04-04T12:42:36.103Z</time></trkpt><trkpt lat="43.9886556" lon="10.7867075"><ele>970.0</ele><time>2026-04-04T12:42:37.102Z</time></trkpt><trkpt lat="43.9885949" lon="10.7867669"><ele>969.9999999999999</ele><time>2026-04-04T12:42:38.103Z</time></trkpt><trkpt lat="43.9885429" lon="10.7868369"><ele>970.0</ele><time>2026-04-04T12:42:39.103Z</time></trkpt><trkpt lat="43.9884953" lon="10.7868961"><ele>970.0</ele><time>2026-04-04T12:42:40.102Z</time></trkpt><trkpt lat="43.9884038" lon="10.7869773"><ele>970.0</ele><time>2026-04-04T12:42:42.102Z</time></trkpt><trkpt lat="43.9883079" lon="10.7870713"><ele>969.9999999999999</ele><time>2026-04-04T12:42:44.103Z</time></trkpt><trkpt lat="43.9882451" lon="10.7871227"><ele>970.0</ele><time>2026-04-04T12:42:45.102Z</time></trkpt><trkpt lat="43.9881464" lon="10.7872002"><ele>972.0</ele><time>2026-04-04T12:42:47.102Z</time></trkpt><trkpt lat="43.9880558" lon="10.7872665"><ele>974.0</ele><time>2026-04-04T12:42:49.101Z</time></trkpt><trkpt lat="43.9879725" lon="10.7873174"><ele>976.0</ele><time>2026-04-04T12:42:51.103Z</time></trkpt><trkpt lat="43.9878739" lon="10.7873701"><ele>978.0</ele><time>2026-04-04T12:42:53.101Z</time></trkpt><trkpt lat="43.9877592" lon="10.7874105"><ele>980.0</ele><time>2026-04-04T12:42:55.101Z</time></trkpt><trkpt lat="43.987684" lon="10.7874468"><ele>980.0</ele><time>2026-04-04T12:42:56.101Z</time></trkpt><trkpt lat="43.9876392" lon="10.787531"><ele>980.0</ele><time>2026-04-04T12:42:57.103Z</time></trkpt><trkpt lat="43.9875798" lon="10.7875721"><ele>980.0</ele><time>2026-04-04T12:42:58.101Z</time></trkpt><trkpt lat="43.9875188" lon="10.7876184"><ele>980.0</ele><time>2026-04-04T12:42:59.102Z</time></trkpt><trkpt lat="43.9874563" lon="10.7876668"><ele>980.0</ele><time>2026-04-04T12:43:00.102Z</time></trkpt><trkpt lat="43.9874035" lon="10.7877269"><ele>980.0</ele><time>2026-04-04T12:43:01.101Z</time></trkpt><trkpt lat="43.9873576" lon="10.787805"><ele>980.0</ele><time>2026-04-04T12:43:02.102Z</time></trkpt><trkpt lat="43.9872893" lon="10.7879091"><ele>982.6</ele><time>2026-04-04T12:43:03.102Z</time></trkpt><trkpt lat="43.9872248" lon="10.7879909"><ele>985.2</ele><time>2026-04-04T12:43:04.102Z</time></trkpt><trkpt lat="43.987166" lon="10.7880565"><ele>987.8</ele><time>2026-04-04T12:43:05.102Z</time></trkpt><trkpt lat="43.987078" lon="10.7881559"><ele>990.4</ele><time>2026-04-04T12:43:06.102Z</time></trkpt><trkpt lat="43.986971" lon="10.7882686"><ele>993.0</ele><time>2026-04-04T12:43:08.102Z</time></trkpt><trkpt lat="43.9869417" lon="10.7883498"><ele>993.0</ele><time>2026-04-04T12:43:09.102Z</time></trkpt><trkpt lat="43.9869007" lon="10.7884365"><ele>993.0</ele><time>2026-04-04T12:43:10.102Z</time></trkpt><trkpt lat="43.9868515" lon="10.788501"><ele>993.0</ele><time>2026-04-04T12:43:11.102Z</time></trkpt><trkpt lat="43.9867917" lon="10.78859"><ele>993.0</ele><time>2026-04-04T12:43:12.102Z</time></trkpt><trkpt lat="43.9867219" lon="10.7886991"><ele>993.0</ele><time>2026-04-04T12:43:13.102Z</time></trkpt><trkpt lat="43.9866422" lon="10.7887975"><ele>993.0</ele><time>2026-04-04T12:43:14.102Z</time></trkpt><trkpt lat="43.9865671" lon="10.7889039"><ele>992.0</ele><time>2026-04-04T12:43:15.102Z</time></trkpt><trkpt lat="43.9865003" lon="10.7889794"><ele>991.0</ele><time>2026-04-04T12:43:16.102Z</time></trkpt><trkpt lat="43.9864248" lon="10.78907"><ele>990.0</ele><time>2026-04-04T12:43:17.101Z</time></trkpt><trkpt lat="43.9863504" lon="10.7891593"><ele>989.0</ele><time>2026-04-04T12:43:18.103Z</time></trkpt><trkpt lat="43.9862837" lon="10.7892463"><ele>988.0</ele><time>2026-04-04T12:43:19.102Z</time></trkpt><trkpt lat="43.9862161" lon="10.7893271"><ele>986.6666666666666</ele><time>2026-04-04T12:43:20.101Z</time></trkpt><trkpt lat="43.9861513" lon="10.7893787"><ele>985.3333333333333</ele><time>2026-04-04T12:43:21.101Z</time></trkpt><trkpt lat="43.9860861" lon="10.7894351"><ele>984.0</ele><time>2026-04-04T12:43:22.102Z</time></trkpt><trkpt lat="43.986022" lon="10.78951"><ele>982.6666666666667</ele><time>2026-04-04T12:43:23.102Z</time></trkpt><trkpt lat="43.9859648" lon="10.7895595"><ele>981.3333333333334</ele><time>2026-04-04T12:43:24.101Z</time></trkpt><trkpt lat="43.9858781" lon="10.7896042"><ele>980.0</ele><time>2026-04-04T12:43:25.103Z</time></trkpt><trkpt lat="43.9858172" lon="10.7896587"><ele>982.4</ele><time>2026-04-04T12:43:26.102Z</time></trkpt><trkpt lat="43.9857789" lon="10.7897932"><ele>984.8</ele><time>2026-04-04T12:43:28.102Z</time></trkpt><trkpt lat="43.9857254" lon="10.789948"><ele>987.2</ele><time>2026-04-04T12:43:30.102Z</time></trkpt><trkpt lat="43.9857047" lon="10.7900468"><ele>989.6</ele><time>2026-04-04T12:43:32.103Z</time></trkpt><trkpt lat="43.9856438" lon="10.7901334"><ele>992.0</ele><time>2026-04-04T12:43:34.101Z</time></trkpt><trkpt lat="43.985592" lon="10.7901972"><ele>992.0000000000001</ele><time>2026-04-04T12:43:36.102Z</time></trkpt><trkpt lat="43.9855678" lon="10.7903238"><ele>992.0</ele><time>2026-04-04T12:43:39.102Z</time></trkpt><trkpt lat="43.9855458" lon="10.7904243"><ele>992.0</ele><time>2026-04-04T12:43:40.101Z</time></trkpt><trkpt lat="43.9855197" lon="10.7905304"><ele>992.0</ele><time>2026-04-04T12:43:41.102Z</time></trkpt><trkpt lat="43.9855114" lon="10.79064"><ele>992.0000000000001</ele><time>2026-04-04T12:43:42.102Z</time></trkpt><trkpt lat="43.9854819" lon="10.7907437"><ele>992.0</ele><time>2026-04-04T12:43:43.102Z</time></trkpt><trkpt lat="43.9854243" lon="10.7909109"><ele>993.75</ele><time>2026-04-04T12:43:44.101Z</time></trkpt><trkpt lat="43.9853768" lon="10.7910517"><ele>995.5</ele><time>2026-04-04T12:43:45.101Z</time></trkpt><trkpt lat="43.9852756" lon="10.7911767"><ele>997.25</ele><time>2026-04-04T12:43:46.103Z</time></trkpt><trkpt lat="43.9851671" lon="10.7913104"><ele>999.0</ele><time>2026-04-04T12:43:47.102Z</time></trkpt><trkpt lat="43.9850671" lon="10.7914194"><ele>999.0</ele><time>2026-04-04T12:43:48.102Z</time></trkpt><trkpt lat="43.9849639" lon="10.7914438"><ele>999.0000000000001</ele><time>2026-04-04T12:43:49.102Z</time></trkpt><trkpt lat="43.9848919" lon="10.7914513"><ele>999.0000000000001</ele><time>2026-04-04T12:43:50.101Z</time></trkpt><trkpt lat="43.9848031" lon="10.7915045"><ele>999.0</ele><time>2026-04-04T12:43:51.102Z</time></trkpt><trkpt lat="43.9847175" lon="10.7915374"><ele>999.0</ele><time>2026-04-04T12:43:52.101Z</time></trkpt><trkpt lat="43.9846191" lon="10.7915861"><ele>999.0</ele><time>2026-04-04T12:43:53.102Z</time></trkpt><trkpt lat="43.984535" lon="10.7916506"><ele>999.0</ele><time>2026-04-04T12:43:54.102Z</time></trkpt><trkpt lat="43.9844505" lon="10.7916954"><ele>999.0</ele><time>2026-04-04T12:43:55.102Z</time></trkpt><trkpt lat="43.9843696" lon="10.7917309"><ele>999.0</ele><time>2026-04-04T12:43:56.101Z</time></trkpt><trkpt lat="43.9843043" lon="10.7917879"><ele>999.0</ele><time>2026-04-04T12:43:57.101Z</time></trkpt><trkpt lat="43.9842479" lon="10.7918703"><ele>999.0</ele><time>2026-04-04T12:43:58.102Z</time></trkpt><trkpt lat="43.9841905" lon="10.7919646"><ele>999.0</ele><time>2026-04-04T12:43:59.102Z</time></trkpt><trkpt lat="43.9841676" lon="10.7920769"><ele>999.0000000000001</ele><time>2026-04-04T12:44:00.102Z</time></trkpt><trkpt lat="43.9841557" lon="10.7921689"><ele>999.0</ele><time>2026-04-04T12:44:01.101Z</time></trkpt><trkpt lat="43.9841302" lon="10.7922714"><ele>999.0</ele><time>2026-04-04T12:44:02.102Z</time></trkpt><trkpt lat="43.9841327" lon="10.7923634"><ele>999.0000000000001</ele><time>2026-04-04T12:44:03.102Z</time></trkpt><trkpt lat="43.9841085" lon="10.7924576"><ele>999.0</ele><time>2026-04-04T12:44:04.102Z</time></trkpt><trkpt lat="43.9840869" lon="10.7925629"><ele>999.0</ele><time>2026-04-04T12:44:05.102Z</time></trkpt><trkpt lat="43.9840354" lon="10.7926629"><ele>999.0</ele><time>2026-04-04T12:44:06.102Z</time></trkpt><trkpt lat="43.9840015" lon="10.7927986"><ele>999.0000000000001</ele><time>2026-04-04T12:44:07.101Z</time></trkpt><trkpt lat="43.983936" lon="10.7929686"><ele>999.0000000000001</ele><time>2026-04-04T12:44:09.101Z</time></trkpt><trkpt lat="43.983904" lon="10.7930469"><ele>999.0</ele><time>2026-04-04T12:44:10.101Z</time></trkpt><trkpt lat="43.9838591" lon="10.7931284"><ele>999.0</ele><time>2026-04-04T12:44:11.102Z</time></trkpt><trkpt lat="43.9838254" lon="10.7932158"><ele>999.0</ele><time>2026-04-04T12:44:12.102Z</time></trkpt><trkpt lat="43.9838238" lon="10.7933959"><ele>999.0000000000001</ele><time>2026-04-04T12:44:14.102Z</time></trkpt><trkpt lat="43.9838085" lon="10.7935199"><ele>999.0000000000001</ele><time>2026-04-04T12:44:15.101Z</time></trkpt><trkpt lat="43.9837665" lon="10.7936356"><ele>999.0</ele><time>2026-04-04T12:44:16.101Z</time></trkpt><trkpt lat="43.9837091" lon="10.7937632"><ele>999.0</ele><time>2026-04-04T12:44:17.102Z</time></trkpt><trkpt lat="43.9836589" lon="10.7938658"><ele>999.4000000000001</ele><time>2026-04-04T12:44:18.101Z</time></trkpt><trkpt lat="43.9835606" lon="10.7939491"><ele>999.8000000000001</ele><time>2026-04-04T12:44:19.102Z</time></trkpt><trkpt lat="43.9834656" lon="10.7940148"><ele>1000.1999999999999</ele><time>2026-04-04T12:44:20.102Z</time></trkpt><trkpt lat="43.9833546" lon="10.7940232"><ele>1000.5999999999999</ele><time>2026-04-04T12:44:21.101Z</time></trkpt><trkpt lat="43.9832433" lon="10.7940407"><ele>1001.0</ele><time>2026-04-04T12:44:22.102Z</time></trkpt><trkpt lat="43.983138" lon="10.7940741"><ele>999.8333333333334</ele><time>2026-04-04T12:44:23.101Z</time></trkpt><trkpt lat="43.9830385" lon="10.7940911"><ele>998.6666666666667</ele><time>2026-04-04T12:44:24.102Z</time></trkpt><trkpt lat="43.9829431" lon="10.7941148"><ele>997.5</ele><time>2026-04-04T12:44:25.101Z</time></trkpt><trkpt lat="43.982841" lon="10.7941396"><ele>996.3333333333333</ele><time>2026-04-04T12:44:26.102Z</time></trkpt><trkpt lat="43.9827819" lon="10.7941933"><ele>995.1666666666666</ele><time>2026-04-04T12:44:27.102Z</time></trkpt><trkpt lat="43.9827132" lon="10.7942219"><ele>994.0</ele><time>2026-04-04T12:44:28.102Z</time></trkpt><trkpt lat="43.9826335" lon="10.794253"><ele>994.0</ele><time>2026-04-04T12:44:29.101Z</time></trkpt><trkpt lat="43.9825309" lon="10.7942807"><ele>994.0000000000001</ele><time>2026-04-04T12:44:30.101Z</time></trkpt><trkpt lat="43.9824528" lon="10.7942482"><ele>994.0000000000001</ele><time>2026-04-04T12:44:31.102Z</time></trkpt><trkpt lat="43.9823694" lon="10.7942288"><ele>994.0</ele><time>2026-04-04T12:44:32.102Z</time></trkpt><trkpt lat="43.9822751" lon="10.7942207"><ele>994.0</ele><time>2026-04-04T12:44:33.102Z</time></trkpt><trkpt lat="43.9821907" lon="10.7941985"><ele>994.4000000000001</ele><time>2026-04-04T12:44:34.101Z</time></trkpt><trkpt lat="43.9820977" lon="10.7942338"><ele>994.8000000000001</ele><time>2026-04-04T12:44:36.102Z</time></trkpt><trkpt lat="43.9820452" lon="10.7942963"><ele>995.1999999999999</ele><time>2026-04-04T12:44:38.102Z</time></trkpt><trkpt lat="43.9821217" lon="10.7943923"><ele>995.5999999999999</ele><time>2026-04-04T12:44:41.102Z</time></trkpt><trkpt lat="43.982201" lon="10.7945035"><ele>996.0</ele><time>2026-04-04T12:44:43.101Z</time></trkpt><trkpt lat="43.982257" lon="10.7946331"><ele>997.4</ele><time>2026-04-04T12:44:45.101Z</time></trkpt><trkpt lat="43.9823048" lon="10.7947508"><ele>998.8</ele><time>2026-04-04T12:44:47.102Z</time></trkpt><trkpt lat="43.9823107" lon="10.7948686"><ele>1000.1999999999999</ele><time>2026-04-04T12:44:49.102Z</time></trkpt><trkpt lat="43.9823536" lon="10.7949954"><ele>1001.5999999999999</ele><time>2026-04-04T12:44:51.103Z</time></trkpt><trkpt lat="43.9824129" lon="10.7951619"><ele>1003.0</ele><time>2026-04-04T12:44:53.101Z</time></trkpt><trkpt lat="43.982444" lon="10.7952473"><ele>1002.9999999999999</ele><time>2026-04-04T12:44:54.102Z</time></trkpt><trkpt lat="43.982485" lon="10.7953428"><ele>1003.0</ele><time>2026-04-04T12:44:55.102Z</time></trkpt><trkpt lat="43.9825283" lon="10.7954453"><ele>1003.0</ele><time>2026-04-04T12:44:56.102Z</time></trkpt><trkpt lat="43.9825683" lon="10.7955383"><ele>1003.0</ele><time>2026-04-04T12:44:57.102Z</time></trkpt><trkpt lat="43.9825913" lon="10.7956476"><ele>1002.9999999999999</ele><time>2026-04-04T12:44:58.101Z</time></trkpt><trkpt lat="43.9826226" lon="10.7957624"><ele>1003.0</ele><time>2026-04-04T12:44:59.101Z</time></trkpt><trkpt lat="43.9826747" lon="10.795899"><ele>1003.0</ele><time>2026-04-04T12:45:00.102Z</time></trkpt><trkpt lat="43.9827284" lon="10.7960313"><ele>1003.0</ele><time>2026-04-04T12:45:01.102Z</time></trkpt><trkpt lat="43.9827757" lon="10.7961591"><ele>1003.0</ele><time>2026-04-04T12:45:02.102Z</time></trkpt><trkpt lat="43.9828458" lon="10.7962704"><ele>1003.0</ele><time>2026-04-04T12:45:03.102Z</time></trkpt><trkpt lat="43.9828835" lon="10.7963892"><ele>1003.0</ele><time>2026-04-04T12:45:04.101Z</time></trkpt><trkpt lat="43.9829158" lon="10.796511"><ele>1003.0</ele><time>2026-04-04T12:45:05.102Z</time></trkpt><trkpt lat="43.9829394" lon="10.7966152"><ele>1003.0</ele><time>2026-04-04T12:45:06.101Z</time></trkpt><trkpt lat="43.9829651" lon="10.7967055"><ele>1003.0</ele><time>2026-04-04T12:45:07.103Z</time></trkpt><trkpt lat="43.9829963" lon="10.7967875"><ele>1003.0</ele><time>2026-04-04T12:45:08.102Z</time></trkpt><trkpt lat="43.9830841" lon="10.7969042"><ele>1003.0</ele><time>2026-04-04T12:45:10.102Z</time></trkpt><trkpt lat="43.9831955" lon="10.7969581"><ele>1001.5999999999999</ele><time>2026-04-04T12:45:12.102Z</time></trkpt><trkpt lat="43.9833162" lon="10.796987"><ele>1000.1999999999999</ele><time>2026-04-04T12:45:14.101Z</time></trkpt><trkpt lat="43.9834266" lon="10.7969934"><ele>998.8</ele><time>2026-04-04T12:45:15.102Z</time></trkpt><trkpt lat="43.9835155" lon="10.7970296"><ele>997.4</ele><time>2026-04-04T12:45:16.101Z</time></trkpt><trkpt lat="43.9835975" lon="10.7970398"><ele>996.0</ele><time>2026-04-04T12:45:17.102Z</time></trkpt><trkpt lat="43.9836748" lon="10.7970846"><ele>995.4</ele><time>2026-04-04T12:45:18.101Z</time></trkpt><trkpt lat="43.9837589" lon="10.797119"><ele>994.8</ele><time>2026-04-04T12:45:19.102Z</time></trkpt><trkpt lat="43.9838392" lon="10.7971876"><ele>994.1999999999999</ele><time>2026-04-04T12:45:20.102Z</time></trkpt><trkpt lat="43.9839185" lon="10.7972889"><ele>993.5999999999999</ele><time>2026-04-04T12:45:21.101Z</time></trkpt><trkpt lat="43.984003" lon="10.7973748"><ele>993.0</ele><time>2026-04-04T12:45:22.102Z</time></trkpt><trkpt lat="43.984081" lon="10.7974416"><ele>993.0</ele><time>2026-04-04T12:45:23.102Z</time></trkpt><trkpt lat="43.9841531" lon="10.7975301"><ele>993.0</ele><time>2026-04-04T12:45:24.101Z</time></trkpt><trkpt lat="43.9842416" lon="10.7976068"><ele>993.0</ele><time>2026-04-04T12:45:25.102Z</time></trkpt><trkpt lat="43.9843385" lon="10.7976933"><ele>993.0</ele><time>2026-04-04T12:45:26.102Z</time></trkpt><trkpt lat="43.9843644" lon="10.7977996"><ele>993.0</ele><time>2026-04-04T12:45:27.103Z</time></trkpt><trkpt lat="43.9844277" lon="10.7979119"><ele>990.2</ele><time>2026-04-04T12:45:28.101Z</time></trkpt><trkpt lat="43.9844881" lon="10.7979785"><ele>987.4</ele><time>2026-04-04T12:45:29.102Z</time></trkpt><trkpt lat="43.984536" lon="10.7980612"><ele>984.6000000000001</ele><time>2026-04-04T12:45:30.102Z</time></trkpt><trkpt lat="43.9846066" lon="10.7981994"><ele>981.8000000000001</ele><time>2026-04-04T12:45:32.101Z</time></trkpt><trkpt lat="43.9846658" lon="10.7983161"><ele>979.0</ele><time>2026-04-04T12:45:34.102Z</time></trkpt><trkpt lat="43.9847292" lon="10.7984226"><ele>979.0</ele><time>2026-04-04T12:45:36.101Z</time></trkpt><trkpt lat="43.9848289" lon="10.798489"><ele>979.0000000000001</ele><time>2026-04-04T12:45:38.101Z</time></trkpt><trkpt lat="43.9849002" lon="10.7985107"><ele>979.0000000000001</ele><time>2026-04-04T12:45:39.102Z</time></trkpt><trkpt lat="43.9849889" lon="10.7985477"><ele>979.0</ele><time>2026-04-04T12:45:40.102Z</time></trkpt><trkpt lat="43.9850765" lon="10.7985845"><ele>979.0</ele><time>2026-04-04T12:45:41.101Z</time></trkpt><trkpt lat="43.9851664" lon="10.798617"><ele>976.6</ele><time>2026-04-04T12:45:42.102Z</time></trkpt><trkpt lat="43.9852223" lon="10.7987087"><ele>974.2</ele><time>2026-04-04T12:45:43.102Z</time></trkpt><trkpt lat="43.9852657" lon="10.7988128"><ele>971.8000000000001</ele><time>2026-04-04T12:45:44.102Z</time></trkpt><trkpt lat="43.9852893" lon="10.7989441"><ele>969.4000000000001</ele><time>2026-04-04T12:45:45.102Z</time></trkpt><trkpt lat="43.9853114" lon="10.7990864"><ele>967.0</ele><time>2026-04-04T12:45:46.102Z</time></trkpt><trkpt lat="43.9853145" lon="10.799236"><ele>965.0</ele><time>2026-04-04T12:45:47.102Z</time></trkpt><trkpt lat="43.9853542" lon="10.7994037"><ele>963.0</ele><time>2026-04-04T12:45:48.101Z</time></trkpt><trkpt lat="43.9853774" lon="10.7995495"><ele>961.0</ele><time>2026-04-04T12:45:49.102Z</time></trkpt><trkpt lat="43.985474" lon="10.7996629"><ele>959.0</ele><time>2026-04-04T12:45:50.102Z</time></trkpt><trkpt lat="43.9855469" lon="10.7997598"><ele>959.0</ele><time>2026-04-04T12:45:51.102Z</time></trkpt><trkpt lat="43.9856203" lon="10.7998604"><ele>959.0000000000001</ele><time>2026-04-04T12:45:52.101Z</time></trkpt><trkpt lat="43.985693" lon="10.7999559"><ele>959.0000000000001</ele><time>2026-04-04T12:45:53.102Z</time></trkpt><trkpt lat="43.9857547" lon="10.800032"><ele>959.0</ele><time>2026-04-04T12:45:54.102Z</time></trkpt><trkpt lat="43.985803" lon="10.8000985"><ele>959.0</ele><time>2026-04-04T12:45:55.101Z</time></trkpt><trkpt lat="43.9858626" lon="10.800207"><ele>958.8333333333334</ele><time>2026-04-04T12:45:57.102Z</time></trkpt><trkpt lat="43.9858801" lon="10.8002939"><ele>958.6666666666667</ele><time>2026-04-04T12:45:59.102Z</time></trkpt><trkpt lat="43.9858439" lon="10.8004017"><ele>958.5</ele><time>2026-04-04T12:46:01.103Z</time></trkpt><trkpt lat="43.9858646" lon="10.8005574"><ele>958.3333333333333</ele><time>2026-04-04T12:46:03.103Z</time></trkpt><trkpt lat="43.9858899" lon="10.8006386"><ele>958.1666666666666</ele><time>2026-04-04T12:46:04.102Z</time></trkpt><trkpt lat="43.9859016" lon="10.8007362"><ele>958.0</ele><time>2026-04-04T12:46:05.102Z</time></trkpt><trkpt lat="43.9858975" lon="10.8008353"><ele>957.9999999999999</ele><time>2026-04-04T12:46:06.102Z</time></trkpt><trkpt lat="43.9858829" lon="10.8009431"><ele>958.0</ele><time>2026-04-04T12:46:07.102Z</time></trkpt><trkpt lat="43.9858659" lon="10.801042"><ele>958.0</ele><time>2026-04-04T12:46:08.102Z</time></trkpt><trkpt lat="43.9858561" lon="10.8011434"><ele>958.0</ele><time>2026-04-04T12:46:09.101Z</time></trkpt><trkpt lat="43.9858443" lon="10.801241"><ele>957.9999999999999</ele><time>2026-04-04T12:46:10.102Z</time></trkpt><trkpt lat="43.9859417" lon="10.8013408"><ele>958.0</ele><time>2026-04-04T12:46:12.101Z</time></trkpt><trkpt lat="43.9860527" lon="10.8013831"><ele>961.1666666666666</ele><time>2026-04-04T12:46:14.102Z</time></trkpt><trkpt lat="43.9861143" lon="10.8014095"><ele>964.3333333333333</ele><time>2026-04-04T12:46:15.102Z</time></trkpt><trkpt lat="43.9861817" lon="10.8014318"><ele>967.5</ele><time>2026-04-04T12:46:16.101Z</time></trkpt><trkpt lat="43.9862497" lon="10.8014478"><ele>970.6666666666667</ele><time>2026-04-04T12:46:17.102Z</time></trkpt><trkpt lat="43.9863278" lon="10.8014759"><ele>973.8333333333334</ele><time>2026-04-04T12:46:18.102Z</time></trkpt><trkpt lat="43.9864026" lon="10.8014967"><ele>977.0</ele><time>2026-04-04T12:46:19.102Z</time></trkpt><trkpt lat="43.9865244" lon="10.8015716"><ele>977.0000000000001</ele><time>2026-04-04T12:46:21.101Z</time></trkpt><trkpt lat="43.9866153" lon="10.8016333"><ele>977.0</ele><time>2026-04-04T12:46:22.101Z</time></trkpt><trkpt lat="43.9866808" lon="10.8016841"><ele>977.0</ele><time>2026-04-04T12:46:23.102Z</time></trkpt><trkpt lat="43.9867534" lon="10.8017435"><ele>977.0</ele><time>2026-04-04T12:46:24.102Z</time></trkpt><trkpt lat="43.9868375" lon="10.8017959"><ele>977.0000000000001</ele><time>2026-04-04T12:46:25.102Z</time></trkpt><trkpt lat="43.9869252" lon="10.8018454"><ele>977.0</ele><time>2026-04-04T12:46:26.102Z</time></trkpt><trkpt lat="43.9870059" lon="10.8018855"><ele>979.2</ele><time>2026-04-04T12:46:27.101Z</time></trkpt><trkpt lat="43.98707" lon="10.8019825"><ele>981.4000000000001</ele><time>2026-04-04T12:46:28.102Z</time></trkpt><trkpt lat="43.9871467" lon="10.8020887"><ele>983.5999999999999</ele><time>2026-04-04T12:46:29.102Z</time></trkpt><trkpt lat="43.9872334" lon="10.802191"><ele>985.8</ele><time>2026-04-04T12:46:30.102Z</time></trkpt><trkpt lat="43.9873086" lon="10.8022779"><ele>988.0</ele><time>2026-04-04T12:46:31.102Z</time></trkpt><trkpt lat="43.9873496" lon="10.802385"><ele>988.0</ele><time>2026-04-04T12:46:32.101Z</time></trkpt><trkpt lat="43.9873888" lon="10.8025141"><ele>988.0</ele><time>2026-04-04T12:46:33.101Z</time></trkpt><trkpt lat="43.9874366" lon="10.8026258"><ele>988.0</ele><time>2026-04-04T12:46:34.102Z</time></trkpt><trkpt lat="43.9875013" lon="10.802768"><ele>988.0</ele><time>2026-04-04T12:46:35.102Z</time></trkpt><trkpt lat="43.9875592" lon="10.8029015"><ele>988.0</ele><time>2026-04-04T12:46:36.102Z</time></trkpt><trkpt lat="43.98762" lon="10.8030127"><ele>987.8</ele><time>2026-04-04T12:46:37.102Z</time></trkpt><trkpt lat="43.9876603" lon="10.8031278"><ele>987.5999999999999</ele><time>2026-04-04T12:46:38.103Z</time></trkpt><trkpt lat="43.9877013" lon="10.8032611"><ele>987.4000000000001</ele><time>2026-04-04T12:46:39.102Z</time></trkpt><trkpt lat="43.9877395" lon="10.8033937"><ele>987.2</ele><time>2026-04-04T12:46:40.101Z</time></trkpt><trkpt lat="43.9877592" lon="10.803506"><ele>987.0</ele><time>2026-04-04T12:46:41.102Z</time></trkpt><trkpt lat="43.9877482" lon="10.8036506"><ele>991.2</ele><time>2026-04-04T12:46:42.102Z</time></trkpt><trkpt lat="43.9877481" lon="10.8037695"><ele>995.4000000000001</ele><time>2026-04-04T12:46:43.102Z</time></trkpt><trkpt lat="43.9877523" lon="10.8038724"><ele>999.5999999999999</ele><time>2026-04-04T12:46:44.102Z</time></trkpt><trkpt lat="43.9878045" lon="10.8040026"><ele>1003.8</ele><time>2026-04-04T12:46:46.102Z</time></trkpt><trkpt lat="43.9879345" lon="10.8040318"><ele>1008.0</ele><time>2026-04-04T12:46:47.102Z</time></trkpt><trkpt lat="43.9880304" lon="10.8040318"><ele>1008.0</ele><time>2026-04-04T12:46:48.102Z</time></trkpt><trkpt lat="43.9881009" lon="10.804027"><ele>1008.0</ele><time>2026-04-04T12:46:49.102Z</time></trkpt><trkpt lat="43.9881852" lon="10.8040254"><ele>1008.0</ele><time>2026-04-04T12:46:50.102Z</time></trkpt><trkpt lat="43.9883009" lon="10.8040828"><ele>1008.0</ele><time>2026-04-04T12:46:52.103Z</time></trkpt><trkpt lat="43.9883507" lon="10.8041565"><ele>1008.0</ele><time>2026-04-04T12:46:53.101Z</time></trkpt><trkpt lat="43.9884066" lon="10.8042568"><ele>1008.0</ele><time>2026-04-04T12:46:54.101Z</time></trkpt><trkpt lat="43.9884629" lon="10.8043746"><ele>1012.0</ele><time>2026-04-04T12:46:55.103Z</time></trkpt><trkpt lat="43.9885131" lon="10.8045108"><ele>1016.0</ele><time>2026-04-04T12:46:56.102Z</time></trkpt><trkpt lat="43.9885662" lon="10.8046407"><ele>1020.0</ele><time>2026-04-04T12:46:57.102Z</time></trkpt><trkpt lat="43.9886271" lon="10.8047297"><ele>1024.0</ele><time>2026-04-04T12:46:58.102Z</time></trkpt><trkpt lat="43.9886949" lon="10.8048085"><ele>1028.0</ele><time>2026-04-04T12:46:59.102Z</time></trkpt><trkpt lat="43.9887667" lon="10.8048603"><ele>1028.0</ele><time>2026-04-04T12:47:00.101Z</time></trkpt><trkpt lat="43.9888614" lon="10.8049097"><ele>1028.0</ele><time>2026-04-04T12:47:01.102Z</time></trkpt><trkpt lat="43.9889709" lon="10.8049832"><ele>1028.0</ele><time>2026-04-04T12:47:02.102Z</time></trkpt><trkpt lat="43.9890669" lon="10.8050301"><ele>1028.0</ele><time>2026-04-04T12:47:03.102Z</time></trkpt><trkpt lat="43.9891667" lon="10.8050655"><ele>1028.0</ele><time>2026-04-04T12:47:04.103Z</time></trkpt><trkpt lat="43.9892979" lon="10.805066"><ele>1028.4</ele><time>2026-04-04T12:47:06.102Z</time></trkpt><trkpt lat="43.989371" lon="10.8050875"><ele>1028.8</ele><time>2026-04-04T12:47:07.102Z</time></trkpt><trkpt lat="43.98947" lon="10.8051554"><ele>1029.2</ele><time>2026-04-04T12:47:08.102Z</time></trkpt><trkpt lat="43.9895624" lon="10.8052037"><ele>1029.6</ele><time>2026-04-04T12:47:09.102Z</time></trkpt><trkpt lat="43.9896629" lon="10.8052413"><ele>1030.0</ele><time>2026-04-04T12:47:10.101Z</time></trkpt><trkpt lat="43.9897241" lon="10.8053173"><ele>1030.6666666666665</ele><time>2026-04-04T12:47:11.102Z</time></trkpt><trkpt lat="43.989805" lon="10.8053978"><ele>1031.3333333333333</ele><time>2026-04-04T12:47:12.102Z</time></trkpt><trkpt lat="43.9898716" lon="10.8054984"><ele>1032.0</ele><time>2026-04-04T12:47:13.103Z</time></trkpt><trkpt lat="43.989935" lon="10.8055972"><ele>1032.6666666666667</ele><time>2026-04-04T12:47:14.102Z</time></trkpt><trkpt lat="43.9899812" lon="10.8056776"><ele>1033.3333333333335</ele><time>2026-04-04T12:47:15.102Z</time></trkpt><trkpt lat="43.9900333" lon="10.8057571"><ele>1034.0</ele><time>2026-04-04T12:47:16.102Z</time></trkpt><trkpt lat="43.9901005" lon="10.8058568"><ele>1034.5</ele><time>2026-04-04T12:47:18.101Z</time></trkpt><trkpt lat="43.990193" lon="10.80599"><ele>1035.0</ele><time>2026-04-04T12:47:20.102Z</time></trkpt><trkpt lat="43.9903285" lon="10.8061063"><ele>1035.5</ele><time>2026-04-04T12:47:21.102Z</time></trkpt><trkpt lat="43.9904217" lon="10.8061841"><ele>1036.0</ele><time>2026-04-04T12:47:22.101Z</time></trkpt><trkpt lat="43.9905168" lon="10.8062578"><ele>1036.0</ele><time>2026-04-04T12:47:23.101Z</time></trkpt><trkpt lat="43.9906032" lon="10.806301"><ele>1036.0</ele><time>2026-04-04T12:47:24.101Z</time></trkpt><trkpt lat="43.9907019" lon="10.8063637"><ele>1036.0</ele><time>2026-04-04T12:47:25.102Z</time></trkpt><trkpt lat="43.9907902" lon="10.8064267"><ele>1036.0</ele><time>2026-04-04T12:47:26.102Z</time></trkpt><trkpt lat="43.9908732" lon="10.8064788"><ele>1036.0</ele><time>2026-04-04T12:47:27.101Z</time></trkpt><trkpt lat="43.9909595" lon="10.8065091"><ele>1036.0</ele><time>2026-04-04T12:47:28.102Z</time></trkpt><trkpt lat="43.9910351" lon="10.8065407"><ele>1036.0</ele><time>2026-04-04T12:47:29.102Z</time></trkpt><trkpt lat="43.9911047" lon="10.8065798"><ele>1036.0</ele><time>2026-04-04T12:47:30.101Z</time></trkpt><trkpt lat="43.9912016" lon="10.8066249"><ele>1036.0</ele><time>2026-04-04T12:47:31.101Z</time></trkpt><trkpt lat="43.9912822" lon="10.8066751"><ele>1036.0</ele><time>2026-04-04T12:47:32.101Z</time></trkpt><trkpt lat="43.9913614" lon="10.8067496"><ele>1036.0</ele><time>2026-04-04T12:47:33.101Z</time></trkpt><trkpt lat="43.9914224" lon="10.8068962"><ele>1034.0</ele><time>2026-04-04T12:47:34.101Z</time></trkpt><trkpt lat="43.9914574" lon="10.8070078"><ele>1032.0</ele><time>2026-04-04T12:47:35.102Z</time></trkpt><trkpt lat="43.9914407" lon="10.8071707"><ele>1030.0</ele><time>2026-04-04T12:47:36.102Z</time></trkpt><trkpt lat="43.9914677" lon="10.8073137"><ele>1028.0</ele><time>2026-04-04T12:47:37.102Z</time></trkpt><trkpt lat="43.9914865" lon="10.8074555"><ele>1026.0</ele><time>2026-04-04T12:47:38.101Z</time></trkpt><trkpt lat="43.9915618" lon="10.8075983"><ele>1026.6</ele><time>2026-04-04T12:47:39.102Z</time></trkpt><trkpt lat="43.9916348" lon="10.8077173"><ele>1027.1999999999998</ele><time>2026-04-04T12:47:40.102Z</time></trkpt><trkpt lat="43.9916927" lon="10.8078304"><ele>1027.8000000000002</ele><time>2026-04-04T12:47:41.102Z</time></trkpt><trkpt lat="43.9917637" lon="10.8079218"><ele>1028.4</ele><time>2026-04-04T12:47:42.102Z</time></trkpt><trkpt lat="43.991887" lon="10.8079123"><ele>1029.0</ele><time>2026-04-04T12:47:43.103Z</time></trkpt><trkpt lat="43.99196" lon="10.807896"><ele>1029.0</ele><time>2026-04-04T12:47:44.102Z</time></trkpt><trkpt lat="43.9920437" lon="10.8078838"><ele>1029.0</ele><time>2026-04-04T12:47:45.102Z</time></trkpt><trkpt lat="43.9921314" lon="10.807884"><ele>1029.0</ele><time>2026-04-04T12:47:46.101Z</time></trkpt><trkpt lat="43.9922257" lon="10.8078751"><ele>1029.0</ele><time>2026-04-04T12:47:47.101Z</time></trkpt><trkpt lat="43.9923193" lon="10.8078701"><ele>1029.0</ele><time>2026-04-04T12:47:48.102Z</time></trkpt><trkpt lat="43.9924061" lon="10.8078979"><ele>1029.0</ele><time>2026-04-04T12:47:49.101Z</time></trkpt><trkpt lat="43.9924756" lon="10.807945"><ele>1029.5</ele><time>2026-04-04T12:47:50.102Z</time></trkpt><trkpt lat="43.9925415" lon="10.8080262"><ele>1030.0</ele><time>2026-04-04T12:47:51.102Z</time></trkpt><trkpt lat="43.9926055" lon="10.8081179"><ele>1030.5</ele><time>2026-04-04T12:47:52.102Z</time></trkpt><trkpt lat="43.9926461" lon="10.8082037"><ele>1031.0</ele><time>2026-04-04T12:47:53.102Z</time></trkpt><trkpt lat="43.9927003" lon="10.8083035"><ele>1031.5</ele><time>2026-04-04T12:47:54.102Z</time></trkpt><trkpt lat="43.9926724" lon="10.8083918"><ele>1032.0</ele><time>2026-04-04T12:47:55.103Z</time></trkpt><trkpt lat="43.9926962" lon="10.8084799"><ele>1034.0</ele><time>2026-04-04T12:47:56.101Z</time></trkpt><trkpt lat="43.9926788" lon="10.8086393"><ele>1036.0</ele><time>2026-04-04T12:47:57.102Z</time></trkpt><trkpt lat="43.9926781" lon="10.8087488"><ele>1038.0</ele><time>2026-04-04T12:47:58.101Z</time></trkpt><trkpt lat="43.9926696" lon="10.8088752"><ele>1040.0</ele><time>2026-04-04T12:47:59.102Z</time></trkpt><trkpt lat="43.9926569" lon="10.8089952"><ele>1042.0</ele><time>2026-04-04T12:48:00.103Z</time></trkpt><trkpt lat="43.9925765" lon="10.8090917"><ele>1042.0</ele><time>2026-04-04T12:48:01.101Z</time></trkpt><trkpt lat="43.9925316" lon="10.8091986"><ele>1042.0</ele><time>2026-04-04T12:48:02.103Z</time></trkpt><trkpt lat="43.992478" lon="10.8093067"><ele>1042.0</ele><time>2026-04-04T12:48:03.101Z</time></trkpt><trkpt lat="43.9924431" lon="10.8094231"><ele>1042.0</ele><time>2026-04-04T12:48:04.102Z</time></trkpt><trkpt lat="43.9923943" lon="10.8095425"><ele>1042.0</ele><time>2026-04-04T12:48:05.103Z</time></trkpt><trkpt lat="43.9923615" lon="10.8096879"><ele>1043.6</ele><time>2026-04-04T12:48:06.101Z</time></trkpt><trkpt lat="43.9923251" lon="10.8098139"><ele>1045.2</ele><time>2026-04-04T12:48:07.101Z</time></trkpt><trkpt lat="43.9922764" lon="10.8099584"><ele>1046.8</ele><time>2026-04-04T12:48:08.101Z</time></trkpt><trkpt lat="43.9922365" lon="10.8100803"><ele>1048.4</ele><time>2026-04-04T12:48:09.101Z</time></trkpt><trkpt lat="43.9922134" lon="10.8102071"><ele>1050.0</ele><time>2026-04-04T12:48:10.103Z</time></trkpt><trkpt lat="43.9922002" lon="10.8103506"><ele>1051.2</ele><time>2026-04-04T12:48:11.102Z</time></trkpt><trkpt lat="43.9922112" lon="10.8104586"><ele>1052.4</ele><time>2026-04-04T12:48:12.102Z</time></trkpt><trkpt lat="43.9922372" lon="10.810567"><ele>1053.6</ele><time>2026-04-04T12:48:13.103Z</time></trkpt><trkpt lat="43.9922983" lon="10.8107032"><ele>1054.8</ele><time>2026-04-04T12:48:14.102Z</time></trkpt><trkpt lat="43.9923375" lon="10.8108296"><ele>1056.0</ele><time>2026-04-04T12:48:15.102Z</time></trkpt><trkpt lat="43.9924363" lon="10.8109414"><ele>1056.0</ele><time>2026-04-04T12:48:16.102Z</time></trkpt><trkpt lat="43.9925014" lon="10.8110529"><ele>1056.0</ele><time>2026-04-04T12:48:17.102Z</time></trkpt><trkpt lat="43.9925803" lon="10.8111741"><ele>1056.0</ele><time>2026-04-04T12:48:18.102Z</time></trkpt><trkpt lat="43.9926589" lon="10.8112778"><ele>1056.0</ele><time>2026-04-04T12:48:19.102Z</time></trkpt><trkpt lat="43.9927509" lon="10.8113431"><ele>1056.0</ele><time>2026-04-04T12:48:20.102Z</time></trkpt><trkpt lat="43.9928282" lon="10.8113908"><ele>1056.0</ele><time>2026-04-04T12:48:21.102Z</time></trkpt><trkpt lat="43.9928962" lon="10.8114562"><ele>1056.0</ele><time>2026-04-04T12:48:22.102Z</time></trkpt><trkpt lat="43.9929405" lon="10.8115726"><ele>1056.0</ele><time>2026-04-04T12:48:24.102Z</time></trkpt><trkpt lat="43.9929186" lon="10.8116561"><ele>1056.0</ele><time>2026-04-04T12:48:25.101Z</time></trkpt><trkpt lat="43.9928696" lon="10.8117646"><ele>1056.0</ele><time>2026-04-04T12:48:26.102Z</time></trkpt><trkpt lat="43.9928044" lon="10.8118849"><ele>1056.0</ele><time>2026-04-04T12:48:27.102Z</time></trkpt><trkpt lat="43.9927554" lon="10.811997"><ele>1055.3333333333333</ele><time>2026-04-04T12:48:28.102Z</time></trkpt><trkpt lat="43.992719" lon="10.8121093"><ele>1054.6666666666667</ele><time>2026-04-04T12:48:29.102Z</time></trkpt><trkpt lat="43.9926828" lon="10.812228"><ele>1054.0</ele><time>2026-04-04T12:48:30.101Z</time></trkpt><trkpt lat="43.9926475" lon="10.8123404"><ele>1053.3333333333335</ele><time>2026-04-04T12:48:31.102Z</time></trkpt><trkpt lat="43.9926187" lon="10.8124329"><ele>1052.6666666666667</ele><time>2026-04-04T12:48:32.102Z</time></trkpt><trkpt lat="43.9925938" lon="10.8125275"><ele>1052.0</ele><time>2026-04-04T12:48:33.102Z</time></trkpt><trkpt lat="43.9925899" lon="10.8126754"><ele>1048.2</ele><time>2026-04-04T12:48:35.102Z</time></trkpt><trkpt lat="43.9925767" lon="10.8128178"><ele>1044.4</ele><time>2026-04-04T12:48:37.102Z</time></trkpt><trkpt lat="43.9925646" lon="10.812979"><ele>1040.6</ele><time>2026-04-04T12:48:39.102Z</time></trkpt><trkpt lat="43.9925533" lon="10.8131026"><ele>1036.8</ele><time>2026-04-04T12:48:41.102Z</time></trkpt><trkpt lat="43.9925549" lon="10.8132455"><ele>1033.0</ele><time>2026-04-04T12:48:43.101Z</time></trkpt><trkpt lat="43.9925561" lon="10.813379"><ele>1033.0</ele><time>2026-04-04T12:48:45.101Z</time></trkpt><trkpt lat="43.9925188" lon="10.8135367"><ele>1033.0</ele><time>2026-04-04T12:48:47.102Z</time></trkpt><trkpt lat="43.9924827" lon="10.813628"><ele>1033.0</ele><time>2026-04-04T12:48:48.103Z</time></trkpt><trkpt lat="43.9924473" lon="10.8137429"><ele>1033.0</ele><time>2026-04-04T12:48:49.103Z</time></trkpt><trkpt lat="43.9924197" lon="10.8138555"><ele>1033.0</ele><time>2026-04-04T12:48:50.103Z</time></trkpt><trkpt lat="43.9923905" lon="10.8139683"><ele>1033.0</ele><time>2026-04-04T12:48:51.103Z</time></trkpt><trkpt lat="43.9923689" lon="10.8140894"><ele>1033.0</ele><time>2026-04-04T12:48:52.102Z</time></trkpt><trkpt lat="43.9923509" lon="10.8141858"><ele>1033.0</ele><time>2026-04-04T12:48:53.102Z</time></trkpt><trkpt lat="43.9923341" lon="10.814271"><ele>1033.0</ele><time>2026-04-04T12:48:54.101Z</time></trkpt><trkpt lat="43.9923155" lon="10.8144387"><ele>1033.0</ele><time>2026-04-04T12:48:56.102Z</time></trkpt><trkpt lat="43.9923061" lon="10.8145401"><ele>1033.0</ele><time>2026-04-04T12:48:57.102Z</time></trkpt><trkpt lat="43.9922904" lon="10.814646"><ele>1031.6666666666665</ele><time>2026-04-04T12:48:58.101Z</time></trkpt><trkpt lat="43.9922681" lon="10.8147369"><ele>1030.3333333333333</ele><time>2026-04-04T12:48:59.103Z</time></trkpt><trkpt lat="43.9922363" lon="10.8148813"><ele>1029.0</ele><time>2026-04-04T12:49:00.101Z</time></trkpt><trkpt lat="43.9922148" lon="10.8149933"><ele>1027.6666666666667</ele><time>2026-04-04T12:49:01.102Z</time></trkpt><trkpt lat="43.9922157" lon="10.8150944"><ele>1026.3333333333335</ele><time>2026-04-04T12:49:02.102Z</time></trkpt><trkpt lat="43.9922413" lon="10.8151907"><ele>1025.0</ele><time>2026-04-04T12:49:03.102Z</time></trkpt><trkpt lat="43.9922597" lon="10.8152785"><ele>1021.3333333333334</ele><time>2026-04-04T12:49:04.102Z</time></trkpt><trkpt lat="43.9922606" lon="10.8154316"><ele>1017.6666666666667</ele><time>2026-04-04T12:49:06.102Z</time></trkpt><trkpt lat="43.9922653" lon="10.815542"><ele>1014.0</ele><time>2026-04-04T12:49:08.102Z</time></trkpt><trkpt lat="43.9922731" lon="10.8156644"><ele>1010.3333333333333</ele><time>2026-04-04T12:49:11.102Z</time></trkpt><trkpt lat="43.9922484" lon="10.8157524"><ele>1006.6666666666666</ele><time>2026-04-04T12:49:13.102Z</time></trkpt><trkpt lat="43.9921951" lon="10.8158608"><ele>1003.0</ele><time>2026-04-04T12:49:15.103Z</time></trkpt><trkpt lat="43.9921178" lon="10.8159896"><ele>999.9999999999999</ele><time>2026-04-04T12:49:17.102Z</time></trkpt><trkpt lat="43.9920671" lon="10.8160521"><ele>997.0</ele><time>2026-04-04T12:49:18.102Z</time></trkpt><trkpt lat="43.9920186" lon="10.8161095"><ele>994.0</ele><time>2026-04-04T12:49:19.101Z</time></trkpt><trkpt lat="43.9919653" lon="10.8162223"><ele>991.0</ele><time>2026-04-04T12:49:21.102Z</time></trkpt><trkpt lat="43.9919243" lon="10.8163446"><ele>987.9999999999999</ele><time>2026-04-04T12:49:23.102Z</time></trkpt><trkpt lat="43.9918626" lon="10.8164707"><ele>985.0</ele><time>2026-04-04T12:49:25.102Z</time></trkpt><trkpt lat="43.9917966" lon="10.8165833"><ele>984.9999999999999</ele><time>2026-04-04T12:49:27.102Z</time></trkpt><trkpt lat="43.9917341" lon="10.8167164"><ele>985.0</ele><time>2026-04-04T12:49:29.102Z</time></trkpt><trkpt lat="43.9917018" lon="10.816815"><ele>985.0</ele><time>2026-04-04T12:49:30.101Z</time></trkpt><trkpt lat="43.9916511" lon="10.8168949"><ele>985.0</ele><time>2026-04-04T12:49:31.103Z</time></trkpt><trkpt lat="43.9916042" lon="10.8169763"><ele>984.9999999999999</ele><time>2026-04-04T12:49:32.102Z</time></trkpt><trkpt lat="43.9915999" lon="10.8171008"><ele>985.0</ele><time>2026-04-04T12:49:34.103Z</time></trkpt><trkpt lat="43.9915835" lon="10.8171993"><ele>984.8</ele><time>2026-04-04T12:49:38.102Z</time></trkpt><trkpt lat="43.991525" lon="10.8173357"><ele>984.6</ele><time>2026-04-04T12:49:45.101Z</time></trkpt><trkpt lat="43.9914386" lon="10.8174558"><ele>984.4000000000001</ele><time>2026-04-04T12:49:47.102Z</time></trkpt><trkpt lat="43.9913518" lon="10.8175641"><ele>984.2</ele><time>2026-04-04T12:49:49.101Z</time></trkpt><trkpt lat="43.9912801" lon="10.8176333"><ele>984.0</ele><time>2026-04-04T12:49:51.102Z</time></trkpt><trkpt lat="43.9912421" lon="10.8177039"><ele>983.8000000000001</ele><time>2026-04-04T12:49:53.102Z</time></trkpt><trkpt lat="43.9910924" lon="10.8177562"><ele>983.6000000000001</ele><time>2026-04-04T12:50:03.102Z</time></trkpt><trkpt lat="43.9910096" lon="10.8177861"><ele>983.4</ele><time>2026-04-04T12:50:04.102Z</time></trkpt><trkpt lat="43.9909324" lon="10.8178359"><ele>983.2</ele><time>2026-04-04T12:50:05.102Z</time></trkpt><trkpt lat="43.9908548" lon="10.8178794"><ele>983.0</ele><time>2026-04-04T12:50:06.102Z</time></trkpt><trkpt lat="43.9907803" lon="10.8179029"><ele>983.0</ele><time>2026-04-04T12:50:07.102Z</time></trkpt><trkpt lat="43.9907117" lon="10.817923"><ele>983.0</ele><time>2026-04-04T12:50:08.101Z</time></trkpt><trkpt lat="43.9906203" lon="10.8179269"><ele>983.0</ele><time>2026-04-04T12:50:09.102Z</time></trkpt><trkpt lat="43.9905576" lon="10.8179428"><ele>983.0</ele><time>2026-04-04T12:50:10.102Z</time></trkpt><trkpt lat="43.9904664" lon="10.8180042"><ele>983.0</ele><time>2026-04-04T12:50:19.102Z</time></trkpt><trkpt lat="43.9903258" lon="10.8180169"><ele>983.0000000000001</ele><time>2026-04-04T12:50:21.102Z</time></trkpt><trkpt lat="43.9902421" lon="10.8180226"><ele>983.0</ele><time>2026-04-04T12:50:22.101Z</time></trkpt><trkpt lat="43.9901617" lon="10.8180276"><ele>983.0</ele><time>2026-04-04T12:50:23.103Z</time></trkpt><trkpt lat="43.9900746" lon="10.8180354"><ele>983.0</ele><time>2026-04-04T12:50:24.102Z</time></trkpt><trkpt lat="43.989988" lon="10.8180406"><ele>983.0000000000001</ele><time>2026-04-04T12:50:25.102Z</time></trkpt><trkpt lat="43.9898978" lon="10.8180434"><ele>983.0</ele><time>2026-04-04T12:50:26.103Z</time></trkpt><trkpt lat="43.9897975" lon="10.8180537"><ele>979.8</ele><time>2026-04-04T12:50:27.101Z</time></trkpt><trkpt lat="43.9896908" lon="10.818069"><ele>976.5999999999999</ele><time>2026-04-04T12:50:28.102Z</time></trkpt><trkpt lat="43.9895821" lon="10.8180871"><ele>973.4000000000001</ele><time>2026-04-04T12:50:29.101Z</time></trkpt><trkpt lat="43.9894841" lon="10.8181127"><ele>970.2</ele><time>2026-04-04T12:50:30.101Z</time></trkpt><trkpt lat="43.9893982" lon="10.8181576"><ele>967.0</ele><time>2026-04-04T12:50:31.102Z</time></trkpt><trkpt lat="43.9893119" lon="10.8182083"><ele>967.0</ele><time>2026-04-04T12:50:32.102Z</time></trkpt><trkpt lat="43.9892219" lon="10.8182716"><ele>967.0</ele><time>2026-04-04T12:50:33.102Z</time></trkpt><trkpt lat="43.9891308" lon="10.8183374"><ele>967.0</ele><time>2026-04-04T12:50:34.102Z</time></trkpt><trkpt lat="43.9890168" lon="10.8183891"><ele>967.0</ele><time>2026-04-04T12:50:35.102Z</time></trkpt><trkpt lat="43.9889031" lon="10.8184048"><ele>967.0</ele><time>2026-04-04T12:50:36.102Z</time></trkpt><trkpt lat="43.9887917" lon="10.8184506"><ele>962.6</ele><time>2026-04-04T12:50:37.102Z</time></trkpt><trkpt lat="43.9886808" lon="10.8185249"><ele>958.2</ele><time>2026-04-04T12:50:38.102Z</time></trkpt><trkpt lat="43.9885836" lon="10.8185896"><ele>953.8</ele><time>2026-04-04T12:50:39.102Z</time></trkpt><trkpt lat="43.9885119" lon="10.8186717"><ele>949.4</ele><time>2026-04-04T12:50:40.101Z</time></trkpt><trkpt lat="43.9884353" lon="10.8187567"><ele>945.0</ele><time>2026-04-04T12:50:41.101Z</time></trkpt><trkpt lat="43.9883968" lon="10.8188514"><ele>945.0</ele><time>2026-04-04T12:50:42.101Z</time></trkpt><trkpt lat="43.9884329" lon="10.8190509"><ele>945.0</ele><time>2026-04-04T12:50:43.101Z</time></trkpt><trkpt lat="43.9884196" lon="10.8191892"><ele>945.0</ele><time>2026-04-04T12:50:44.101Z</time></trkpt><trkpt lat="43.9884251" lon="10.8193343"><ele>945.0</ele><time>2026-04-04T12:50:45.102Z</time></trkpt><trkpt lat="43.9884204" lon="10.8194747"><ele>942.0</ele><time>2026-04-04T12:50:46.101Z</time></trkpt><trkpt lat="43.9884301" lon="10.8195973"><ele>939.0</ele><time>2026-04-04T12:50:47.101Z</time></trkpt><trkpt lat="43.9884359" lon="10.8197193"><ele>936.0</ele><time>2026-04-04T12:50:48.102Z</time></trkpt><trkpt lat="43.9883941" lon="10.8198159"><ele>933.0</ele><time>2026-04-04T12:50:49.102Z</time></trkpt><trkpt lat="43.9883738" lon="10.8199413"><ele>930.0</ele><time>2026-04-04T12:50:50.102Z</time></trkpt><trkpt lat="43.9883724" lon="10.8200402"><ele>927.0</ele><time>2026-04-04T12:50:51.101Z</time></trkpt><trkpt lat="43.9883929" lon="10.8201744"><ele>924.3333333333334</ele><time>2026-04-04T12:50:52.102Z</time></trkpt><trkpt lat="43.9884557" lon="10.8202786"><ele>921.6666666666667</ele><time>2026-04-04T12:50:53.101Z</time></trkpt><trkpt lat="43.9884712" lon="10.820381"><ele>919.0</ele><time>2026-04-04T12:50:54.101Z</time></trkpt><trkpt lat="43.9885008" lon="10.8204883"><ele>916.3333333333334</ele><time>2026-04-04T12:50:55.102Z</time></trkpt><trkpt lat="43.9885162" lon="10.8205945"><ele>913.6666666666667</ele><time>2026-04-04T12:50:56.101Z</time></trkpt><trkpt lat="43.9885224" lon="10.8207064"><ele>911.0</ele><time>2026-04-04T12:50:57.101Z</time></trkpt><trkpt lat="43.9885236" lon="10.8208115"><ele>907.5999999999999</ele><time>2026-04-04T12:50:58.102Z</time></trkpt><trkpt lat="43.9885049" lon="10.8210147"><ele>904.1999999999999</ele><time>2026-04-04T12:51:00.102Z</time></trkpt><trkpt lat="43.9885045" lon="10.8211363"><ele>900.8000000000001</ele><time>2026-04-04T12:51:01.103Z</time></trkpt><trkpt lat="43.9884441" lon="10.8212874"><ele>897.4000000000001</ele><time>2026-04-04T12:51:03.102Z</time></trkpt><trkpt lat="43.9884033" lon="10.8213614"><ele>894.0</ele><time>2026-04-04T12:51:04.101Z</time></trkpt><trkpt lat="43.9883169" lon="10.8214193"><ele>900.8000000000001</ele><time>2026-04-04T12:51:05.102Z</time></trkpt><trkpt lat="43.9882335" lon="10.8214818"><ele>907.6000000000001</ele><time>2026-04-04T12:51:06.102Z</time></trkpt><trkpt lat="43.9881546" lon="10.8215466"><ele>914.4</ele><time>2026-04-04T12:51:07.101Z</time></trkpt><trkpt lat="43.9880748" lon="10.8216073"><ele>921.2</ele><time>2026-04-04T12:51:08.101Z</time></trkpt><trkpt lat="43.9879549" lon="10.8215543"><ele>928.0</ele><time>2026-04-04T12:51:10.102Z</time></trkpt><trkpt lat="43.9878937" lon="10.821521"><ele>928.0</ele><time>2026-04-04T12:51:11.101Z</time></trkpt><trkpt lat="43.9878362" lon="10.8214453"><ele>928.0</ele><time>2026-04-04T12:51:12.102Z</time></trkpt><trkpt lat="43.9877727" lon="10.8213423"><ele>928.0</ele><time>2026-04-04T12:51:13.101Z</time></trkpt><trkpt lat="43.9876923" lon="10.8212385"><ele>928.0</ele><time>2026-04-04T12:51:14.101Z</time></trkpt><trkpt lat="43.9876106" lon="10.8211216"><ele>928.0</ele><time>2026-04-04T12:51:15.102Z</time></trkpt><trkpt lat="43.9875317" lon="10.8210201"><ele>927.6666666666666</ele><time>2026-04-04T12:51:16.102Z</time></trkpt><trkpt lat="43.9874621" lon="10.8208875"><ele>927.3333333333333</ele><time>2026-04-04T12:51:17.102Z</time></trkpt><trkpt lat="43.9874081" lon="10.8208108"><ele>927.0</ele><time>2026-04-04T12:51:18.102Z</time></trkpt><trkpt lat="43.9873476" lon="10.8207075"><ele>926.6666666666667</ele><time>2026-04-04T12:51:19.102Z</time></trkpt><trkpt lat="43.9872848" lon="10.8206508"><ele>926.3333333333334</ele><time>2026-04-04T12:51:20.102Z</time></trkpt><trkpt lat="43.9872102" lon="10.8206559"><ele>926.0</ele><time>2026-04-04T12:51:22.102Z</time></trkpt><trkpt lat="43.9872081" lon="10.820773"><ele>926.0</ele><time>2026-04-04T12:51:23.102Z</time></trkpt><trkpt lat="43.9872981" lon="10.8209493"><ele>925.9999999999999</ele><time>2026-04-04T12:51:24.102Z</time></trkpt><trkpt lat="43.9873396" lon="10.8210637"><ele>925.9999999999999</ele><time>2026-04-04T12:51:25.101Z</time></trkpt><trkpt lat="43.9873711" lon="10.8211771"><ele>926.0</ele><time>2026-04-04T12:51:26.103Z</time></trkpt><trkpt lat="43.9873791" lon="10.8213004"><ele>926.0</ele><time>2026-04-04T12:51:27.102Z</time></trkpt><trkpt lat="43.9873961" lon="10.8214058"><ele>924.7142857142857</ele><time>2026-04-04T12:51:28.101Z</time></trkpt><trkpt lat="43.9874167" lon="10.8215071"><ele>923.4285714285713</ele><time>2026-04-04T12:51:29.102Z</time></trkpt><trkpt lat="43.9874352" lon="10.8216176"><ele>922.1428571428571</ele><time>2026-04-04T12:51:30.101Z</time></trkpt><trkpt lat="43.9874567" lon="10.821704"><ele>920.8571428571429</ele><time>2026-04-04T12:51:31.102Z</time></trkpt><trkpt lat="43.9874581" lon="10.8217981"><ele>919.5714285714286</ele><time>2026-04-04T12:51:32.102Z</time></trkpt><trkpt lat="43.9874493" lon="10.8218946"><ele>918.2857142857142</ele><time>2026-04-04T12:51:33.102Z</time></trkpt><trkpt lat="43.9874428" lon="10.8219842"><ele>917.0</ele><time>2026-04-04T12:51:34.102Z</time></trkpt><trkpt lat="43.9873738" lon="10.8220761"><ele>917.0</ele><time>2026-04-04T12:51:35.101Z</time></trkpt><trkpt lat="43.9872405" lon="10.8220905"><ele>917.0</ele><time>2026-04-04T12:51:36.103Z</time></trkpt><trkpt lat="43.9871558" lon="10.8221106"><ele>917.0</ele><time>2026-04-04T12:51:37.102Z</time></trkpt><trkpt lat="43.9870513" lon="10.8221194"><ele>917.0</ele><time>2026-04-04T12:51:38.102Z</time></trkpt><trkpt lat="43.9869691" lon="10.8221033"><ele>917.0</ele><time>2026-04-04T12:51:39.101Z</time></trkpt><trkpt lat="43.9869035" lon="10.8220992"><ele>917.0000000000001</ele><time>2026-04-04T12:51:40.101Z</time></trkpt><trkpt lat="43.9868381" lon="10.8220178"><ele>917.0</ele><time>2026-04-04T12:51:42.101Z</time></trkpt><trkpt lat="43.9868367" lon="10.8219234"><ele>917.0</ele><time>2026-04-04T12:51:44.102Z</time></trkpt><trkpt lat="43.9869078" lon="10.8218942"><ele>917.0</ele><time>2026-04-04T12:51:45.102Z</time></trkpt><trkpt lat="43.9870052" lon="10.8218781"><ele>917.0000000000001</ele><time>2026-04-04T12:51:47.102Z</time></trkpt><trkpt lat="43.9870768" lon="10.8218552"><ele>917.0</ele><time>2026-04-04T12:51:49.102Z</time></trkpt><trkpt lat="43.9871035" lon="10.8216992"><ele>916.8</ele><time>2026-04-04T12:51:51.101Z</time></trkpt><trkpt lat="43.9870875" lon="10.8214857"><ele>916.6</ele><time>2026-04-04T12:51:53.102Z</time></trkpt><trkpt lat="43.9870652" lon="10.8213927"><ele>916.3999999999999</ele><time>2026-04-04T12:51:54.101Z</time></trkpt><trkpt lat="43.9870041" lon="10.8213276"><ele>916.1999999999999</ele><time>2026-04-04T12:51:55.102Z</time></trkpt><trkpt lat="43.9868807" lon="10.8212819"><ele>916.0</ele><time>2026-04-04T12:51:57.101Z</time></trkpt><trkpt lat="43.9867595" lon="10.8211988"><ele>916.0</ele><time>2026-04-04T12:51:59.102Z</time></trkpt><trkpt lat="43.9867061" lon="10.8211019"><ele>915.9999999999999</ele><time>2026-04-04T12:52:00.101Z</time></trkpt><trkpt lat="43.9866912" lon="10.8209663"><ele>915.9999999999999</ele><time>2026-04-04T12:52:01.102Z</time></trkpt><trkpt lat="43.9866548" lon="10.8208463"><ele>916.0</ele><time>2026-04-04T12:52:02.101Z</time></trkpt><trkpt lat="43.9866442" lon="10.8207247"><ele>916.0</ele><time>2026-04-04T12:52:03.102Z</time></trkpt><trkpt lat="43.9865975" lon="10.8206084"><ele>912.0</ele><time>2026-04-04T12:52:04.102Z</time></trkpt><trkpt lat="43.9865708" lon="10.8204843"><ele>907.9999999999999</ele><time>2026-04-04T12:52:05.102Z</time></trkpt><trkpt lat="43.9865385" lon="10.8203571"><ele>903.9999999999999</ele><time>2026-04-04T12:52:06.102Z</time></trkpt><trkpt lat="43.9864737" lon="10.8202606"><ele>900.0</ele><time>2026-04-04T12:52:07.102Z</time></trkpt><trkpt lat="43.9863965" lon="10.8201788"><ele>896.0</ele><time>2026-04-04T12:52:08.101Z</time></trkpt><trkpt lat="43.9863235" lon="10.8200914"><ele>895.8333333333334</ele><time>2026-04-04T12:52:09.102Z</time></trkpt><trkpt lat="43.986273" lon="10.8199793"><ele>895.6666666666667</ele><time>2026-04-04T12:52:10.102Z</time></trkpt><trkpt lat="43.9862174" lon="10.8198449"><ele>895.5</ele><time>2026-04-04T12:52:11.101Z</time></trkpt><trkpt lat="43.9862706" lon="10.8197624"><ele>895.3333333333333</ele><time>2026-04-04T12:52:12.102Z</time></trkpt><trkpt lat="43.9862913" lon="10.8196674"><ele>895.1666666666666</ele><time>2026-04-04T12:52:13.102Z</time></trkpt><trkpt lat="43.9863622" lon="10.8196051"><ele>895.0</ele><time>2026-04-04T12:52:14.101Z</time></trkpt><trkpt lat="43.9863938" lon="10.8195122"><ele>895.0</ele><time>2026-04-04T12:52:15.103Z</time></trkpt><trkpt lat="43.986431" lon="10.8194177"><ele>895.0</ele><time>2026-04-04T12:52:16.101Z</time></trkpt><trkpt lat="43.9864166" lon="10.8192487"><ele>895.0</ele><time>2026-04-04T12:52:18.101Z</time></trkpt><trkpt lat="43.9863273" lon="10.8192411"><ele>895.0</ele><time>2026-04-04T12:52:19.102Z</time></trkpt><trkpt lat="43.9862351" lon="10.8192747"><ele>895.0</ele><time>2026-04-04T12:52:21.102Z</time></trkpt><trkpt lat="43.9861732" lon="10.8193438"><ele>894.9999999999999</ele><time>2026-04-04T12:52:22.101Z</time></trkpt><trkpt lat="43.986106" lon="10.8194105"><ele>895.0</ele><time>2026-04-04T12:52:23.101Z</time></trkpt><trkpt lat="43.9860344" lon="10.8194704"><ele>895.0</ele><time>2026-04-04T12:52:24.101Z</time></trkpt><trkpt lat="43.9859862" lon="10.8195308"><ele>895.0</ele><time>2026-04-04T12:52:25.102Z</time></trkpt><trkpt lat="43.9859254" lon="10.819602"><ele>894.9999999999999</ele><time>2026-04-04T12:52:26.102Z</time></trkpt><trkpt lat="43.9858767" lon="10.8196988"><ele>895.0</ele><time>2026-04-04T12:52:27.102Z</time></trkpt><trkpt lat="43.9858888" lon="10.8198229"><ele>894.9999999999999</ele><time>2026-04-04T12:52:28.101Z</time></trkpt><trkpt lat="43.9858695" lon="10.8199183"><ele>895.0</ele><time>2026-04-04T12:52:29.103Z</time></trkpt><trkpt lat="43.9858801" lon="10.8200099"><ele>895.0</ele><time>2026-04-04T12:52:30.102Z</time></trkpt><trkpt lat="43.9858745" lon="10.8201083"><ele>895.0</ele><time>2026-04-04T12:52:31.101Z</time></trkpt><trkpt lat="43.9858427" lon="10.8201864"><ele>894.9999999999999</ele><time>2026-04-04T12:52:32.101Z</time></trkpt><trkpt lat="43.9857558" lon="10.8202672"><ele>895.0</ele><time>2026-04-04T12:52:33.101Z</time></trkpt><trkpt lat="43.9856722" lon="10.8203293"><ele>890.4</ele><time>2026-04-04T12:52:34.103Z</time></trkpt><trkpt lat="43.9855873" lon="10.8204241"><ele>885.8</ele><time>2026-04-04T12:52:35.101Z</time></trkpt><trkpt lat="43.9855286" lon="10.8205327"><ele>881.2</ele><time>2026-04-04T12:52:36.102Z</time></trkpt><trkpt lat="43.9854735" lon="10.8206535"><ele>876.6</ele><time>2026-04-04T12:52:37.102Z</time></trkpt><trkpt lat="43.9854607" lon="10.8207655"><ele>872.0</ele><time>2026-04-04T12:52:38.103Z</time></trkpt><trkpt lat="43.9854787" lon="10.8208868"><ele>872.0000000000001</ele><time>2026-04-04T12:52:39.102Z</time></trkpt><trkpt lat="43.9854534" lon="10.8209765"><ele>872.0</ele><time>2026-04-04T12:52:40.101Z</time></trkpt><trkpt lat="43.985385" lon="10.8210076"><ele>872.0</ele><time>2026-04-04T12:52:41.101Z</time></trkpt><trkpt lat="43.9853106" lon="10.8210429"><ele>872.0</ele><time>2026-04-04T12:52:42.102Z</time></trkpt><trkpt lat="43.9852278" lon="10.8210491"><ele>872.0000000000001</ele><time>2026-04-04T12:52:43.101Z</time></trkpt><trkpt lat="43.9851427" lon="10.8210099"><ele>872.0</ele><time>2026-04-04T12:52:44.102Z</time></trkpt><trkpt lat="43.9850705" lon="10.820975"><ele>871.0</ele><time>2026-04-04T12:52:45.102Z</time></trkpt><trkpt lat="43.9849874" lon="10.8209559"><ele>870.0</ele><time>2026-04-04T12:52:46.1Z</time></trkpt><trkpt lat="43.9849014" lon="10.8209503"><ele>869.0</ele><time>2026-04-04T12:52:47.102Z</time></trkpt><trkpt lat="43.9848378" lon="10.8209831"><ele>868.0</ele><time>2026-04-04T12:52:48.101Z</time></trkpt><trkpt lat="43.984707" lon="10.8210466"><ele>867.0</ele><time>2026-04-04T12:52:50.101Z</time></trkpt><trkpt lat="43.9846379" lon="10.8211294"><ele>867.0</ele><time>2026-04-04T12:52:51.101Z</time></trkpt><trkpt lat="43.9845758" lon="10.8211831"><ele>867.0</ele><time>2026-04-04T12:52:52.101Z</time></trkpt><trkpt lat="43.9844599" lon="10.8212795"><ele>867.0</ele><time>2026-04-04T12:52:54.101Z</time></trkpt><trkpt lat="43.9844107" lon="10.821371"><ele>867.0</ele><time>2026-04-04T12:52:55.101Z</time></trkpt><trkpt lat="43.9843527" lon="10.8214561"><ele>867.0</ele><time>2026-04-04T12:52:56.101Z</time></trkpt><trkpt lat="43.9843021" lon="10.8215333"><ele>867.0</ele><time>2026-04-04T12:52:57.101Z</time></trkpt><trkpt lat="43.984223" lon="10.8216331"><ele>867.0</ele><time>2026-04-04T12:52:58.101Z</time></trkpt><trkpt lat="43.9841693" lon="10.8217548"><ele>867.0</ele><time>2026-04-04T12:52:59.1Z</time></trkpt><trkpt lat="43.984082" lon="10.8218457"><ele>867.0</ele><time>2026-04-04T12:53:00.1Z</time></trkpt><trkpt lat="43.9840031" lon="10.821947"><ele>867.0</ele><time>2026-04-04T12:53:01.101Z</time></trkpt><trkpt lat="43.9839213" lon="10.8220439"><ele>863.8</ele><time>2026-04-04T12:53:02.101Z</time></trkpt><trkpt lat="43.9838462" lon="10.8221346"><ele>860.6</ele><time>2026-04-04T12:53:03.101Z</time></trkpt><trkpt lat="43.9838072" lon="10.8222108"><ele>857.4</ele><time>2026-04-04T12:53:04.101Z</time></trkpt><trkpt lat="43.9837426" lon="10.8223392"><ele>854.1999999999999</ele><time>2026-04-04T12:53:06.101Z</time></trkpt><trkpt lat="43.9836568" lon="10.8224699"><ele>851.0</ele><time>2026-04-04T12:53:08.101Z</time></trkpt><trkpt lat="43.983606" lon="10.8225335"><ele>851.0</ele><time>2026-04-04T12:53:09.101Z</time></trkpt><trkpt lat="43.9835599" lon="10.8226117"><ele>851.0</ele><time>2026-04-04T12:53:10.1Z</time></trkpt><trkpt lat="43.9835253" lon="10.822686"><ele>851.0</ele><time>2026-04-04T12:53:11.1Z</time></trkpt><trkpt lat="43.9834682" lon="10.8227404"><ele>851.0</ele><time>2026-04-04T12:53:12.1Z</time></trkpt><trkpt lat="43.9834154" lon="10.8228285"><ele>851.0</ele><time>2026-04-04T12:53:13.1Z</time></trkpt><trkpt lat="43.9833676" lon="10.8228978"><ele>851.0</ele><time>2026-04-04T12:53:14.101Z</time></trkpt><trkpt lat="43.9833301" lon="10.8229905"><ele>851.0</ele><time>2026-04-04T12:53:15.101Z</time></trkpt><trkpt lat="43.9832933" lon="10.8230937"><ele>847.0000000000001</ele><time>2026-04-04T12:53:16.101Z</time></trkpt><trkpt lat="43.9832452" lon="10.8232033"><ele>843.0</ele><time>2026-04-04T12:53:17.1Z</time></trkpt><trkpt lat="43.9832121" lon="10.8232908"><ele>839.0</ele><time>2026-04-04T12:53:18.101Z</time></trkpt><trkpt lat="43.9831626" lon="10.8233834"><ele>835.0</ele><time>2026-04-04T12:53:19.101Z</time></trkpt><trkpt lat="43.9831078" lon="10.8235004"><ele>831.0000000000001</ele><time>2026-04-04T12:53:20.101Z</time></trkpt><trkpt lat="43.9830799" lon="10.8236215"><ele>827.0</ele><time>2026-04-04T12:53:21.1Z</time></trkpt><trkpt lat="43.9830446" lon="10.8237155"><ele>826.6</ele><time>2026-04-04T12:53:22.1Z</time></trkpt><trkpt lat="43.9830076" lon="10.8238321"><ele>826.2</ele><time>2026-04-04T12:53:23.101Z</time></trkpt><trkpt lat="43.9829415" lon="10.8239264"><ele>825.8</ele><time>2026-04-04T12:53:24.101Z</time></trkpt><trkpt lat="43.9828792" lon="10.8240228"><ele>825.4</ele><time>2026-04-04T12:53:25.1Z</time></trkpt><trkpt lat="43.9828163" lon="10.8241236"><ele>825.0</ele><time>2026-04-04T12:53:26.1Z</time></trkpt><trkpt lat="43.9827607" lon="10.8242049"><ele>825.0</ele><time>2026-04-04T12:53:27.101Z</time></trkpt><trkpt lat="43.9826966" lon="10.8242927"><ele>825.0</ele><time>2026-04-04T12:53:28.1Z</time></trkpt><trkpt lat="43.9826297" lon="10.8243658"><ele>825.0</ele><time>2026-04-04T12:53:29.1Z</time></trkpt><trkpt lat="43.9825654" lon="10.8244396"><ele>825.0</ele><time>2026-04-04T12:53:30.1Z</time></trkpt><trkpt lat="43.9824861" lon="10.8245195"><ele>825.0</ele><time>2026-04-04T12:53:31.101Z</time></trkpt><trkpt lat="43.9823757" lon="10.8245738"><ele>822.2</ele><time>2026-04-04T12:53:32.101Z</time></trkpt><trkpt lat="43.9822844" lon="10.8246344"><ele>819.4</ele><time>2026-04-04T12:53:33.101Z</time></trkpt><trkpt lat="43.9821937" lon="10.8247077"><ele>816.5999999999999</ele><time>2026-04-04T12:53:34.101Z</time></trkpt><trkpt lat="43.9821182" lon="10.824768"><ele>813.8</ele><time>2026-04-04T12:53:35.101Z</time></trkpt><trkpt lat="43.9820317" lon="10.8248491"><ele>811.0</ele><time>2026-04-04T12:53:36.1Z</time></trkpt><trkpt lat="43.9819309" lon="10.8249348"><ele>811.0</ele><time>2026-04-04T12:53:37.1Z</time></trkpt><trkpt lat="43.9818267" lon="10.825022"><ele>811.0</ele><time>2026-04-04T12:53:38.1Z</time></trkpt><trkpt lat="43.9817249" lon="10.8251179"><ele>811.0</ele><time>2026-04-04T12:53:39.101Z</time></trkpt><trkpt lat="43.9816267" lon="10.8252078"><ele>811.0</ele><time>2026-04-04T12:53:40.101Z</time></trkpt><trkpt lat="43.9815144" lon="10.8252972"><ele>808.1999999999999</ele><time>2026-04-04T12:53:41.102Z</time></trkpt><trkpt lat="43.9814162" lon="10.825367"><ele>805.4</ele><time>2026-04-04T12:53:42.101Z</time></trkpt><trkpt lat="43.9813296" lon="10.8254572"><ele>802.6</ele><time>2026-04-04T12:53:43.101Z</time></trkpt><trkpt lat="43.9812459" lon="10.8255651"><ele>799.8</ele><time>2026-04-04T12:53:44.101Z</time></trkpt><trkpt lat="43.9811721" lon="10.8256673"><ele>797.0</ele><time>2026-04-04T12:53:45.101Z</time></trkpt><trkpt lat="43.981102" lon="10.8257646"><ele>797.0</ele><time>2026-04-04T12:53:46.101Z</time></trkpt><trkpt lat="43.9810223" lon="10.8258389"><ele>797.0</ele><time>2026-04-04T12:53:47.102Z</time></trkpt><trkpt lat="43.9809616" lon="10.8258852"><ele>797.0</ele><time>2026-04-04T12:53:48.101Z</time></trkpt><trkpt lat="43.9808494" lon="10.8259233"><ele>797.0</ele><time>2026-04-04T12:53:49.101Z</time></trkpt><trkpt lat="43.9807647" lon="10.8260154"><ele>797.0</ele><time>2026-04-04T12:53:50.101Z</time></trkpt><trkpt lat="43.9806788" lon="10.8261102"><ele>794.5000000000001</ele><time>2026-04-04T12:53:51.101Z</time></trkpt><trkpt lat="43.9806035" lon="10.8261768"><ele>792.0</ele><time>2026-04-04T12:53:52.102Z</time></trkpt><trkpt lat="43.9805286" lon="10.8262377"><ele>789.5</ele><time>2026-04-04T12:53:53.101Z</time></trkpt><trkpt lat="43.9804657" lon="10.8262902"><ele>787.0</ele><time>2026-04-04T12:53:54.101Z</time></trkpt><trkpt lat="43.9803841" lon="10.8263299"><ele>784.5000000000001</ele><time>2026-04-04T12:53:55.101Z</time></trkpt><trkpt lat="43.9802998" lon="10.8263866"><ele>782.0</ele><time>2026-04-04T12:53:56.101Z</time></trkpt><trkpt lat="43.9802228" lon="10.8264778"><ele>782.0</ele><time>2026-04-04T12:53:57.101Z</time></trkpt><trkpt lat="43.9801409" lon="10.8265504"><ele>782.0</ele><time>2026-04-04T12:53:58.101Z</time></trkpt><trkpt lat="43.9800564" lon="10.8266539"><ele>782.0</ele><time>2026-04-04T12:53:59.1Z</time></trkpt><trkpt lat="43.9799623" lon="10.8267174"><ele>782.0</ele><time>2026-04-04T12:54:00.1Z</time></trkpt><trkpt lat="43.979871" lon="10.8267882"><ele>782.0</ele><time>2026-04-04T12:54:01.1Z</time></trkpt><trkpt lat="43.9797777" lon="10.8268634"><ele>779.1666666666667</ele><time>2026-04-04T12:54:02.101Z</time></trkpt><trkpt lat="43.9797076" lon="10.8269392"><ele>776.3333333333334</ele><time>2026-04-04T12:54:03.1Z</time></trkpt><trkpt lat="43.9795983" lon="10.8269573"><ele>773.5</ele><time>2026-04-04T12:54:05.101Z</time></trkpt><trkpt lat="43.979535" lon="10.8269548"><ele>770.6666666666667</ele><time>2026-04-04T12:54:06.101Z</time></trkpt><trkpt lat="43.9794254" lon="10.8270096"><ele>767.8333333333334</ele><time>2026-04-04T12:54:08.101Z</time></trkpt><trkpt lat="43.9793714" lon="10.8270599"><ele>765.0</ele><time>2026-04-04T12:54:09.101Z</time></trkpt><trkpt lat="43.9793101" lon="10.8271228"><ele>765.0</ele><time>2026-04-04T12:54:10.101Z</time></trkpt><trkpt lat="43.9792464" lon="10.8271949"><ele>765.0</ele><time>2026-04-04T12:54:11.1Z</time></trkpt><trkpt lat="43.9791772" lon="10.8272633"><ele>765.0</ele><time>2026-04-04T12:54:12.101Z</time></trkpt><trkpt lat="43.9791004" lon="10.8273383"><ele>765.0</ele><time>2026-04-04T12:54:13.101Z</time></trkpt><trkpt lat="43.9790235" lon="10.8274191"><ele>765.0</ele><time>2026-04-04T12:54:14.101Z</time></trkpt><trkpt lat="43.9789429" lon="10.8275098"><ele>765.0</ele><time>2026-04-04T12:54:15.1Z</time></trkpt><trkpt lat="43.9788678" lon="10.8276038"><ele>765.0</ele><time>2026-04-04T12:54:16.101Z</time></trkpt><trkpt lat="43.9788012" lon="10.8276953"><ele>765.0</ele><time>2026-04-04T12:54:17.101Z</time></trkpt><trkpt lat="43.9787361" lon="10.8277747"><ele>765.0</ele><time>2026-04-04T12:54:18.101Z</time></trkpt><trkpt lat="43.9786765" lon="10.8278423"><ele>765.0</ele><time>2026-04-04T12:54:19.1Z</time></trkpt><trkpt lat="43.9786183" lon="10.8279036"><ele>765.0</ele><time>2026-04-04T12:54:20.101Z</time></trkpt><trkpt lat="43.9785571" lon="10.8279724"><ele>764.7142857142858</ele><time>2026-04-04T12:54:21.1Z</time></trkpt><trkpt lat="43.9784989" lon="10.8280377"><ele>764.4285714285714</ele><time>2026-04-04T12:54:22.1Z</time></trkpt><trkpt lat="43.9784406" lon="10.8281038"><ele>764.1428571428571</ele><time>2026-04-04T12:54:23.101Z</time></trkpt><trkpt lat="43.9783799" lon="10.8281655"><ele>763.8571428571429</ele><time>2026-04-04T12:54:24.102Z</time></trkpt><trkpt lat="43.9783189" lon="10.8282351"><ele>763.5714285714286</ele><time>2026-04-04T12:54:25.1Z</time></trkpt><trkpt lat="43.9782641" lon="10.8282948"><ele>763.2857142857143</ele><time>2026-04-04T12:54:26.101Z</time></trkpt><trkpt lat="43.9782115" lon="10.8283432"><ele>763.0</ele><time>2026-04-04T12:54:27.101Z</time></trkpt><trkpt lat="43.9781201" lon="10.8284409"><ele>761.8</ele><time>2026-04-04T12:54:29.1Z</time></trkpt><trkpt lat="43.9780759" lon="10.8285066"><ele>760.5999999999999</ele><time>2026-04-04T12:54:30.101Z</time></trkpt><trkpt lat="43.9780304" lon="10.8285867"><ele>759.4000000000001</ele><time>2026-04-04T12:54:31.101Z</time></trkpt><trkpt lat="43.9779708" lon="10.8286822"><ele>758.2</ele><time>2026-04-04T12:54:32.101Z</time></trkpt><trkpt lat="43.9778897" lon="10.8287869"><ele>757.0</ele><time>2026-04-04T12:54:33.101Z</time></trkpt><trkpt lat="43.9778023" lon="10.828887"><ele>757.0</ele><time>2026-04-04T12:54:34.101Z</time></trkpt><trkpt lat="43.9777139" lon="10.8289938"><ele>757.0</ele><time>2026-04-04T12:54:35.101Z</time></trkpt><trkpt lat="43.9776156" lon="10.8291023"><ele>757.0</ele><time>2026-04-04T12:54:36.101Z</time></trkpt><trkpt lat="43.9775168" lon="10.8292195"><ele>757.0</ele><time>2026-04-04T12:54:37.101Z</time></trkpt><trkpt lat="43.9774198" lon="10.829333"><ele>759.0</ele><time>2026-04-04T12:54:38.1Z</time></trkpt><trkpt lat="43.9773212" lon="10.8294456"><ele>761.0</ele><time>2026-04-04T12:54:39.101Z</time></trkpt><trkpt lat="43.9772265" lon="10.8295602"><ele>763.0</ele><time>2026-04-04T12:54:40.101Z</time></trkpt><trkpt lat="43.9771291" lon="10.8296748"><ele>765.0</ele><time>2026-04-04T12:54:41.1Z</time></trkpt><trkpt lat="43.9770364" lon="10.8297914"><ele>765.0</ele><time>2026-04-04T12:54:42.101Z</time></trkpt><trkpt lat="43.9769443" lon="10.8299099"><ele>765.0</ele><time>2026-04-04T12:54:43.102Z</time></trkpt><trkpt lat="43.9768502" lon="10.8300259"><ele>765.0</ele><time>2026-04-04T12:54:44.101Z</time></trkpt><trkpt lat="43.9767518" lon="10.8301448"><ele>765.0</ele><time>2026-04-04T12:54:45.101Z</time></trkpt><trkpt lat="43.9766521" lon="10.8302704"><ele>768.0</ele><time>2026-04-04T12:54:46.101Z</time></trkpt><trkpt lat="43.97655" lon="10.830397"><ele>771.0</ele><time>2026-04-04T12:54:47.101Z</time></trkpt><trkpt lat="43.9764491" lon="10.8305282"><ele>774.0</ele><time>2026-04-04T12:54:48.101Z</time></trkpt><trkpt lat="43.9763571" lon="10.8306652"><ele>777.0</ele><time>2026-04-04T12:54:49.101Z</time></trkpt><trkpt lat="43.9762812" lon="10.8308009"><ele>777.0</ele><time>2026-04-04T12:54:50.1Z</time></trkpt><trkpt lat="43.9762203" lon="10.8309314"><ele>777.0</ele><time>2026-04-04T12:54:51.101Z</time></trkpt><trkpt lat="43.9761513" lon="10.8310646"><ele>777.0</ele><time>2026-04-04T12:54:52.101Z</time></trkpt><trkpt lat="43.9760681" lon="10.8311917"><ele>777.0</ele><time>2026-04-04T12:54:53.102Z</time></trkpt><trkpt lat="43.9759775" lon="10.8313274"><ele>775.75</ele><time>2026-04-04T12:54:54.102Z</time></trkpt><trkpt lat="43.9758759" lon="10.8314619"><ele>774.5</ele><time>2026-04-04T12:54:55.101Z</time></trkpt><trkpt lat="43.9757747" lon="10.8315894"><ele>773.25</ele><time>2026-04-04T12:54:56.1Z</time></trkpt><trkpt lat="43.9756677" lon="10.8317168"><ele>772.0</ele><time>2026-04-04T12:54:57.102Z</time></trkpt><trkpt lat="43.9755607" lon="10.8318479"><ele>770.0</ele><time>2026-04-04T12:54:58.101Z</time></trkpt><trkpt lat="43.9754507" lon="10.8319743"><ele>768.0</ele><time>2026-04-04T12:54:59.1Z</time></trkpt><trkpt lat="43.9753321" lon="10.8321001"><ele>766.0</ele><time>2026-04-04T12:55:00.101Z</time></trkpt><trkpt lat="43.9752101" lon="10.8322247"><ele>764.0</ele><time>2026-04-04T12:55:01.101Z</time></trkpt><trkpt lat="43.9750845" lon="10.8323525"><ele>765.6666666666666</ele><time>2026-04-04T12:55:02.101Z</time></trkpt><trkpt lat="43.9749584" lon="10.8324819"><ele>767.3333333333333</ele><time>2026-04-04T12:55:03.1Z</time></trkpt><trkpt lat="43.9748358" lon="10.8326111"><ele>769.0</ele><time>2026-04-04T12:55:04.102Z</time></trkpt><trkpt lat="43.9747179" lon="10.8327351"><ele>765.25</ele><time>2026-04-04T12:55:05.1Z</time></trkpt><trkpt lat="43.9746042" lon="10.8328434"><ele>761.5</ele><time>2026-04-04T12:55:06.101Z</time></trkpt><trkpt lat="43.974493" lon="10.8329435"><ele>757.75</ele><time>2026-04-04T12:55:07.1Z</time></trkpt><trkpt lat="43.974391" lon="10.8330398"><ele>754.0</ele><time>2026-04-04T12:55:08.101Z</time></trkpt><trkpt lat="43.9742836" lon="10.8331351"><ele>752.5</ele><time>2026-04-04T12:55:09.1Z</time></trkpt><trkpt lat="43.9741753" lon="10.8332343"><ele>751.0</ele><time>2026-04-04T12:55:10.1Z</time></trkpt><trkpt lat="43.9740616" lon="10.8333301"><ele>749.5</ele><time>2026-04-04T12:55:11.101Z</time></trkpt><trkpt lat="43.9739421" lon="10.8334255"><ele>748.0</ele><time>2026-04-04T12:55:12.101Z</time></trkpt><trkpt lat="43.9738184" lon="10.8335153"><ele>748.0</ele><time>2026-04-04T12:55:13.1Z</time></trkpt><trkpt lat="43.9736954" lon="10.8336141"><ele>748.0</ele><time>2026-04-04T12:55:14.101Z</time></trkpt><trkpt lat="43.9735703" lon="10.8337118"><ele>748.0</ele><time>2026-04-04T12:55:15.101Z</time></trkpt><trkpt lat="43.9734553" lon="10.8338031"><ele>748.0</ele><time>2026-04-04T12:55:16.1Z</time></trkpt><trkpt lat="43.9733459" lon="10.8338952"><ele>748.75</ele><time>2026-04-04T12:55:17.101Z</time></trkpt><trkpt lat="43.9732482" lon="10.833997"><ele>749.5</ele><time>2026-04-04T12:55:18.101Z</time></trkpt><trkpt lat="43.9731656" lon="10.834117"><ele>750.25</ele><time>2026-04-04T12:55:19.101Z</time></trkpt><trkpt lat="43.9730908" lon="10.8342604"><ele>751.0</ele><time>2026-04-04T12:55:20.101Z</time></trkpt><trkpt lat="43.9730286" lon="10.8344111"><ele>749.8</ele><time>2026-04-04T12:55:21.1Z</time></trkpt><trkpt lat="43.9729703" lon="10.8345708"><ele>748.5999999999999</ele><time>2026-04-04T12:55:22.101Z</time></trkpt><trkpt lat="43.9729173" lon="10.8347141"><ele>747.4</ele><time>2026-04-04T12:55:23.1Z</time></trkpt><trkpt lat="43.9728705" lon="10.8348414"><ele>746.2</ele><time>2026-04-04T12:55:24.101Z</time></trkpt><trkpt lat="43.9728277" lon="10.8349598"><ele>745.0</ele><time>2026-04-04T12:55:25.101Z</time></trkpt><trkpt lat="43.9727894" lon="10.8350759"><ele>743.8333333333334</ele><time>2026-04-04T12:55:26.101Z</time></trkpt><trkpt lat="43.9727634" lon="10.8351917"><ele>742.6666666666667</ele><time>2026-04-04T12:55:27.102Z</time></trkpt><trkpt lat="43.9727498" lon="10.8353079"><ele>741.5</ele><time>2026-04-04T12:55:28.101Z</time></trkpt><trkpt lat="43.9727467" lon="10.8354079"><ele>740.3333333333334</ele><time>2026-04-04T12:55:29.102Z</time></trkpt><trkpt lat="43.9727304" lon="10.8355051"><ele>739.1666666666666</ele><time>2026-04-04T12:55:31.102Z</time></trkpt><trkpt lat="43.9727112" lon="10.8355998"><ele>738.0</ele><time>2026-04-04T12:55:34.101Z</time></trkpt><trkpt lat="43.9726528" lon="10.8357319"><ele>738.0</ele><time>2026-04-04T12:55:36.1Z</time></trkpt><trkpt lat="43.9725529" lon="10.8358352"><ele>738.0</ele><time>2026-04-04T12:55:38.101Z</time></trkpt><trkpt lat="43.9724481" lon="10.8358325"><ele>738.0</ele><time>2026-04-04T12:55:40.101Z</time></trkpt><trkpt lat="43.9723417" lon="10.8358322"><ele>738.0</ele><time>2026-04-04T12:55:42.1Z</time></trkpt><trkpt lat="43.9722777" lon="10.8358128"><ele>738.0</ele><time>2026-04-04T12:55:43.101Z</time></trkpt><trkpt lat="43.9721848" lon="10.8357842"><ele>737.6666666666666</ele><time>2026-04-04T12:55:45.101Z</time></trkpt><trkpt lat="43.9721042" lon="10.8357877"><ele>737.3333333333334</ele><time>2026-04-04T12:55:47.101Z</time></trkpt><trkpt lat="43.9720433" lon="10.8358557"><ele>737.0</ele><time>2026-04-04T12:55:48.101Z</time></trkpt><trkpt lat="43.9719677" lon="10.8358906"><ele>736.6666666666667</ele><time>2026-04-04T12:55:49.101Z</time></trkpt><trkpt lat="43.9718864" lon="10.8359468"><ele>736.3333333333334</ele><time>2026-04-04T12:55:50.101Z</time></trkpt><trkpt lat="43.9718097" lon="10.8359894"><ele>736.0</ele><time>2026-04-04T12:55:51.101Z</time></trkpt><trkpt lat="43.9717345" lon="10.836036"><ele>739.8</ele><time>2026-04-04T12:55:52.101Z</time></trkpt><trkpt lat="43.9716417" lon="10.8361663"><ele>743.5999999999999</ele><time>2026-04-04T12:55:54.101Z</time></trkpt><trkpt lat="43.9715807" lon="10.836215"><ele>747.4</ele><time>2026-04-04T12:55:55.102Z</time></trkpt><trkpt lat="43.9714601" lon="10.8362939"><ele>751.2</ele><time>2026-04-04T12:55:57.101Z</time></trkpt><trkpt lat="43.971403" lon="10.8363407"><ele>755.0</ele><time>2026-04-04T12:55:58.101Z</time></trkpt><trkpt lat="43.9713453" lon="10.8363924"><ele>755.0</ele><time>2026-04-04T12:55:59.1Z</time></trkpt><trkpt lat="43.9712876" lon="10.8364561"><ele>755.0</ele><time>2026-04-04T12:56:00.101Z</time></trkpt><trkpt lat="43.9712265" lon="10.8365067"><ele>755.0</ele><time>2026-04-04T12:56:01.101Z</time></trkpt><trkpt lat="43.9711433" lon="10.8365499"><ele>755.0</ele><time>2026-04-04T12:56:02.101Z</time></trkpt><trkpt lat="43.971067" lon="10.8366089"><ele>755.0</ele><time>2026-04-04T12:56:03.101Z</time></trkpt><trkpt lat="43.9709935" lon="10.8366536"><ele>755.0</ele><time>2026-04-04T12:56:04.101Z</time></trkpt><trkpt lat="43.9709148" lon="10.8366822"><ele>757.8333333333333</ele><time>2026-04-04T12:56:05.101Z</time></trkpt><trkpt lat="43.9708247" lon="10.836691"><ele>760.6666666666666</ele><time>2026-04-04T12:56:06.1Z</time></trkpt><trkpt lat="43.970736" lon="10.8366901"><ele>763.5</ele><time>2026-04-04T12:56:07.101Z</time></trkpt><trkpt lat="43.9706551" lon="10.8366903"><ele>766.3333333333333</ele><time>2026-04-04T12:56:08.101Z</time></trkpt><trkpt lat="43.9705798" lon="10.8367025"><ele>769.1666666666666</ele><time>2026-04-04T12:56:09.101Z</time></trkpt><trkpt lat="43.9705162" lon="10.8367028"><ele>772.0</ele><time>2026-04-04T12:56:10.101Z</time></trkpt><trkpt lat="43.9704387" lon="10.8367036"><ele>771.9999999999999</ele><time>2026-04-04T12:56:11.101Z</time></trkpt><trkpt lat="43.9703272" lon="10.8366426"><ele>772.0</ele><time>2026-04-04T12:56:13.101Z</time></trkpt><trkpt lat="43.9702699" lon="10.8366061"><ele>772.0</ele><time>2026-04-04T12:56:14.102Z</time></trkpt><trkpt lat="43.9702006" lon="10.8365657"><ele>772.0</ele><time>2026-04-04T12:56:15.1Z</time></trkpt><trkpt lat="43.970131" lon="10.8365271"><ele>771.9999999999999</ele><time>2026-04-04T12:56:16.1Z</time></trkpt><trkpt lat="43.9700637" lon="10.8364936"><ele>772.0</ele><time>2026-04-04T12:56:17.101Z</time></trkpt><trkpt lat="43.9699915" lon="10.836453"><ele>771.6</ele><time>2026-04-04T12:56:18.101Z</time></trkpt><trkpt lat="43.9699237" lon="10.8364123"><ele>771.2</ele><time>2026-04-04T12:56:19.1Z</time></trkpt><trkpt lat="43.9698541" lon="10.8363744"><ele>770.8</ele><time>2026-04-04T12:56:20.102Z</time></trkpt><trkpt lat="43.9697832" lon="10.8363527"><ele>770.4</ele><time>2026-04-04T12:56:21.102Z</time></trkpt><trkpt lat="43.9697106" lon="10.836339"><ele>770.0</ele><time>2026-04-04T12:56:22.101Z</time></trkpt><trkpt lat="43.9696041" lon="10.8365019"><ele>770.0000000000001</ele><time>2026-04-04T12:56:24.101Z</time></trkpt><trkpt lat="43.9695329" lon="10.8365678"><ele>770.0</ele><time>2026-04-04T12:56:25.102Z</time></trkpt><trkpt lat="43.9694671" lon="10.8366331"><ele>770.0</ele><time>2026-04-04T12:56:26.101Z</time></trkpt><trkpt lat="43.9693957" lon="10.8367167"><ele>770.0</ele><time>2026-04-04T12:56:27.102Z</time></trkpt><trkpt lat="43.9693389" lon="10.8367962"><ele>770.0000000000001</ele><time>2026-04-04T12:56:28.101Z</time></trkpt><trkpt lat="43.9692755" lon="10.8368844"><ele>770.0</ele><time>2026-04-04T12:56:29.1Z</time></trkpt><trkpt lat="43.9692177" lon="10.8369639"><ele>766.5000000000001</ele><time>2026-04-04T12:56:30.101Z</time></trkpt><trkpt lat="43.9691674" lon="10.8370231"><ele>763.0</ele><time>2026-04-04T12:56:31.1Z</time></trkpt><trkpt lat="43.9691049" lon="10.83707"><ele>759.5</ele><time>2026-04-04T12:56:32.101Z</time></trkpt><trkpt lat="43.9690275" lon="10.8371183"><ele>756.0</ele><time>2026-04-04T12:56:33.101Z</time></trkpt><trkpt lat="43.9689478" lon="10.8371713"><ele>752.5</ele><time>2026-04-04T12:56:34.101Z</time></trkpt><trkpt lat="43.9688625" lon="10.837232"><ele>749.0</ele><time>2026-04-04T12:56:35.101Z</time></trkpt><trkpt lat="43.9687936" lon="10.8373719"><ele>749.0</ele><time>2026-04-04T12:56:36.1Z</time></trkpt><trkpt lat="43.9687205" lon="10.8374602"><ele>749.0</ele><time>2026-04-04T12:56:37.1Z</time></trkpt><trkpt lat="43.9686545" lon="10.8375665"><ele>749.0</ele><time>2026-04-04T12:56:38.101Z</time></trkpt><trkpt lat="43.9685987" lon="10.8377084"><ele>749.0</ele><time>2026-04-04T12:56:39.101Z</time></trkpt><trkpt lat="43.968554" lon="10.8378237"><ele>749.0</ele><time>2026-04-04T12:56:40.101Z</time></trkpt><trkpt lat="43.9685085" lon="10.8379142"><ele>748.8000000000001</ele><time>2026-04-04T12:56:41.101Z</time></trkpt><trkpt lat="43.9684502" lon="10.8380126"><ele>748.6</ele><time>2026-04-04T12:56:42.101Z</time></trkpt><trkpt lat="43.9683622" lon="10.8380932"><ele>748.4</ele><time>2026-04-04T12:56:43.101Z</time></trkpt><trkpt lat="43.9682971" lon="10.8381737"><ele>748.2</ele><time>2026-04-04T12:56:44.101Z</time></trkpt><trkpt lat="43.9682336" lon="10.8382673"><ele>748.0</ele><time>2026-04-04T12:56:45.102Z</time></trkpt><trkpt lat="43.9681897" lon="10.838348"><ele>748.0</ele><time>2026-04-04T12:56:46.101Z</time></trkpt><trkpt lat="43.9681021" lon="10.8384709"><ele>748.0</ele><time>2026-04-04T12:56:48.101Z</time></trkpt><trkpt lat="43.9680481" lon="10.8385236"><ele>748.0</ele><time>2026-04-04T12:56:49.101Z</time></trkpt><trkpt lat="43.9679745" lon="10.8385032"><ele>748.0</ele><time>2026-04-04T12:56:50.102Z</time></trkpt><trkpt lat="43.9679013" lon="10.8384959"><ele>748.0</ele><time>2026-04-04T12:56:51.1Z</time></trkpt><trkpt lat="43.9678283" lon="10.8384675"><ele>748.0</ele><time>2026-04-04T12:56:52.101Z</time></trkpt><trkpt lat="43.9677327" lon="10.8384499"><ele>748.0</ele><time>2026-04-04T12:56:53.101Z</time></trkpt><trkpt lat="43.967661" lon="10.8384224"><ele>748.0</ele><time>2026-04-04T12:56:54.101Z</time></trkpt><trkpt lat="43.9675984" lon="10.8383277"><ele>748.0</ele><time>2026-04-04T12:56:55.101Z</time></trkpt><trkpt lat="43.9675195" lon="10.8382327"><ele>748.0</ele><time>2026-04-04T12:56:56.1Z</time></trkpt><trkpt lat="43.9674489" lon="10.8381588"><ele>748.0</ele><time>2026-04-04T12:56:57.1Z</time></trkpt><trkpt lat="43.9673913" lon="10.8380695"><ele>748.0</ele><time>2026-04-04T12:56:58.101Z</time></trkpt><trkpt lat="43.9673246" lon="10.8379977"><ele>747.0</ele><time>2026-04-04T12:56:59.101Z</time></trkpt><trkpt lat="43.9672539" lon="10.837995"><ele>746.0</ele><time>2026-04-04T12:57:00.101Z</time></trkpt><trkpt lat="43.9671868" lon="10.8379642"><ele>745.0</ele><time>2026-04-04T12:57:01.101Z</time></trkpt><trkpt lat="43.9670762" lon="10.8380161"><ele>744.0</ele><time>2026-04-04T12:57:03.1Z</time></trkpt><trkpt lat="43.9670146" lon="10.8380435"><ele>743.0</ele><time>2026-04-04T12:57:04.101Z</time></trkpt><trkpt lat="43.9669555" lon="10.8380742"><ele>742.0</ele><time>2026-04-04T12:57:05.1Z</time></trkpt><trkpt lat="43.9668955" lon="10.8381036"><ele>742.0</ele><time>2026-04-04T12:57:06.101Z</time></trkpt><trkpt lat="43.9668325" lon="10.8381515"><ele>742.0</ele><time>2026-04-04T12:57:07.101Z</time></trkpt><trkpt lat="43.9667322" lon="10.83826"><ele>742.0</ele><time>2026-04-04T12:57:09.1Z</time></trkpt><trkpt lat="43.9666748" lon="10.8383017"><ele>742.0</ele><time>2026-04-04T12:57:10.1Z</time></trkpt><trkpt lat="43.9666231" lon="10.8383683"><ele>742.0</ele><time>2026-04-04T12:57:11.1Z</time></trkpt><trkpt lat="43.9665659" lon="10.8384287"><ele>742.0</ele><time>2026-04-04T12:57:12.101Z</time></trkpt><trkpt lat="43.9664927" lon="10.8384472"><ele>737.2</ele><time>2026-04-04T12:57:13.101Z</time></trkpt><trkpt lat="43.9664065" lon="10.8384286"><ele>732.4000000000001</ele><time>2026-04-04T12:57:14.101Z</time></trkpt><trkpt lat="43.9663381" lon="10.8383932"><ele>727.5999999999999</ele><time>2026-04-04T12:57:15.1Z</time></trkpt><trkpt lat="43.9662288" lon="10.8383511"><ele>722.8</ele><time>2026-04-04T12:57:17.101Z</time></trkpt><trkpt lat="43.9660892" lon="10.8384128"><ele>718.0</ele><time>2026-04-04T12:57:19.101Z</time></trkpt><trkpt lat="43.9660115" lon="10.8384659"><ele>715.5</ele><time>2026-04-04T12:57:20.1Z</time></trkpt><trkpt lat="43.9659555" lon="10.8385252"><ele>713.0</ele><time>2026-04-04T12:57:21.101Z</time></trkpt><trkpt lat="43.9658989" lon="10.8385649"><ele>710.5</ele><time>2026-04-04T12:57:22.101Z</time></trkpt><trkpt lat="43.965836" lon="10.8385785"><ele>708.0</ele><time>2026-04-04T12:57:23.101Z</time></trkpt><trkpt lat="43.9657541" lon="10.8385367"><ele>705.5</ele><time>2026-04-04T12:57:24.1Z</time></trkpt><trkpt lat="43.9656745" lon="10.8385068"><ele>703.0</ele><time>2026-04-04T12:57:25.1Z</time></trkpt><trkpt lat="43.9655933" lon="10.8384855"><ele>702.7142857142857</ele><time>2026-04-04T12:57:26.1Z</time></trkpt><trkpt lat="43.9655118" lon="10.8384875"><ele>702.4285714285714</ele><time>2026-04-04T12:57:27.1Z</time></trkpt><trkpt lat="43.9654345" lon="10.838519"><ele>702.1428571428571</ele><time>2026-04-04T12:57:28.1Z</time></trkpt><trkpt lat="43.9653693" lon="10.8385712"><ele>701.8571428571429</ele><time>2026-04-04T12:57:29.1Z</time></trkpt><trkpt lat="43.9652992" lon="10.8385911"><ele>701.5714285714286</ele><time>2026-04-04T12:57:30.101Z</time></trkpt><trkpt lat="43.9652325" lon="10.8386051"><ele>701.2857142857143</ele><time>2026-04-04T12:57:31.1Z</time></trkpt><trkpt lat="43.9651616" lon="10.838626"><ele>701.0</ele><time>2026-04-04T12:57:32.1Z</time></trkpt><trkpt lat="43.9650534" lon="10.8385743"><ele>699.5</ele><time>2026-04-04T12:57:34.101Z</time></trkpt><trkpt lat="43.9649759" lon="10.8385375"><ele>698.0</ele><time>2026-04-04T12:57:35.102Z</time></trkpt><trkpt lat="43.9648978" lon="10.8385015"><ele>696.5</ele><time>2026-04-04T12:57:36.1Z</time></trkpt><trkpt lat="43.964829" lon="10.8384611"><ele>695.0</ele><time>2026-04-04T12:57:37.101Z</time></trkpt><trkpt lat="43.9647496" lon="10.8384119"><ele>693.5</ele><time>2026-04-04T12:57:38.1Z</time></trkpt><trkpt lat="43.9646739" lon="10.8383824"><ele>692.0</ele><time>2026-04-04T12:57:39.101Z</time></trkpt><trkpt lat="43.9646086" lon="10.8383295"><ele>692.0</ele><time>2026-04-04T12:57:40.101Z</time></trkpt><trkpt lat="43.964553" lon="10.8382751"><ele>692.0</ele><time>2026-04-04T12:57:41.101Z</time></trkpt><trkpt lat="43.9644762" lon="10.8382266"><ele>692.0</ele><time>2026-04-04T12:57:42.101Z</time></trkpt><trkpt lat="43.9644105" lon="10.8381729"><ele>692.0</ele><time>2026-04-04T12:57:43.101Z</time></trkpt><trkpt lat="43.9643261" lon="10.8381453"><ele>692.0</ele><time>2026-04-04T12:57:44.1Z</time></trkpt><trkpt lat="43.9642488" lon="10.838174"><ele>692.0</ele><time>2026-04-04T12:57:45.1Z</time></trkpt><trkpt lat="43.9641762" lon="10.8381653"><ele>688.2</ele><time>2026-04-04T12:57:46.101Z</time></trkpt><trkpt lat="43.9641065" lon="10.8382676"><ele>684.4000000000001</ele><time>2026-04-04T12:57:47.1Z</time></trkpt><trkpt lat="43.9640905" lon="10.8383798"><ele>680.5999999999999</ele><time>2026-04-04T12:57:48.1Z</time></trkpt><trkpt lat="43.9640548" lon="10.8384978"><ele>676.8</ele><time>2026-04-04T12:57:50.102Z</time></trkpt><trkpt lat="43.9639916" lon="10.8385398"><ele>673.0</ele><time>2026-04-04T12:57:52.101Z</time></trkpt><trkpt lat="43.9639142" lon="10.8384169"><ele>673.0</ele><time>2026-04-04T12:57:53.101Z</time></trkpt><trkpt lat="43.963834" lon="10.8383565"><ele>673.0</ele><time>2026-04-04T12:57:54.101Z</time></trkpt><trkpt lat="43.9637404" lon="10.8383024"><ele>673.0</ele><time>2026-04-04T12:57:55.101Z</time></trkpt><trkpt lat="43.963666" lon="10.8382431"><ele>673.0</ele><time>2026-04-04T12:57:56.1Z</time></trkpt><trkpt lat="43.9635968" lon="10.8381671"><ele>673.0</ele><time>2026-04-04T12:57:57.1Z</time></trkpt><trkpt lat="43.9635238" lon="10.8381044"><ele>673.0</ele><time>2026-04-04T12:57:58.1Z</time></trkpt><trkpt lat="43.9634562" lon="10.838048"><ele>673.0</ele><time>2026-04-04T12:57:59.101Z</time></trkpt><trkpt lat="43.9633913" lon="10.8379948"><ele>673.0</ele><time>2026-04-04T12:58:00.1Z</time></trkpt><trkpt lat="43.9633311" lon="10.837944"><ele>673.0</ele><time>2026-04-04T12:58:01.101Z</time></trkpt><trkpt lat="43.9632231" lon="10.8378969"><ele>673.0</ele><time>2026-04-04T12:58:03.101Z</time></trkpt><trkpt lat="43.9631708" lon="10.8378453"><ele>673.0</ele><time>2026-04-04T12:58:04.102Z</time></trkpt><trkpt lat="43.9631038" lon="10.8377774"><ele>670.3333333333334</ele><time>2026-04-04T12:58:05.101Z</time></trkpt><trkpt lat="43.9630352" lon="10.8377169"><ele>667.6666666666667</ele><time>2026-04-04T12:58:06.101Z</time></trkpt><trkpt lat="43.9629797" lon="10.8376461"><ele>665.0</ele><time>2026-04-04T12:58:07.101Z</time></trkpt><trkpt lat="43.9629336" lon="10.8375581"><ele>662.3333333333334</ele><time>2026-04-04T12:58:08.1Z</time></trkpt><trkpt lat="43.9629009" lon="10.8374517"><ele>659.6666666666666</ele><time>2026-04-04T12:58:09.1Z</time></trkpt><trkpt lat="43.962858" lon="10.8373551"><ele>657.0</ele><time>2026-04-04T12:58:10.101Z</time></trkpt><trkpt lat="43.9628137" lon="10.8372606"><ele>657.0</ele><time>2026-04-04T12:58:11.101Z</time></trkpt><trkpt lat="43.9627606" lon="10.8372042"><ele>657.0</ele><time>2026-04-04T12:58:12.102Z</time></trkpt><trkpt lat="43.9626917" lon="10.8371751"><ele>657.0</ele><time>2026-04-04T12:58:13.101Z</time></trkpt><trkpt lat="43.962596" lon="10.8371457"><ele>657.0</ele><time>2026-04-04T12:58:14.101Z</time></trkpt><trkpt lat="43.9625184" lon="10.8371079"><ele>657.0</ele><time>2026-04-04T12:58:15.101Z</time></trkpt><trkpt lat="43.9624169" lon="10.8370565"><ele>657.0</ele><time>2026-04-04T12:58:16.1Z</time></trkpt><trkpt lat="43.9623009" lon="10.8370064"><ele>655.6</ele><time>2026-04-04T12:58:17.1Z</time></trkpt><trkpt lat="43.9621997" lon="10.8369659"><ele>654.2</ele><time>2026-04-04T12:58:18.101Z</time></trkpt><trkpt lat="43.9621037" lon="10.8369319"><ele>652.8</ele><time>2026-04-04T12:58:19.101Z</time></trkpt><trkpt lat="43.9620097" lon="10.8369047"><ele>651.4</ele><time>2026-04-04T12:58:20.101Z</time></trkpt><trkpt lat="43.9619273" lon="10.8368796"><ele>650.0</ele><time>2026-04-04T12:58:21.102Z</time></trkpt><trkpt lat="43.9618549" lon="10.8368565"><ele>650.0</ele><time>2026-04-04T12:58:22.101Z</time></trkpt><trkpt lat="43.9617823" lon="10.8368959"><ele>650.0</ele><time>2026-04-04T12:58:23.101Z</time></trkpt><trkpt lat="43.9617138" lon="10.836943"><ele>650.0</ele><time>2026-04-04T12:58:24.101Z</time></trkpt><trkpt lat="43.9616405" lon="10.8370039"><ele>650.0</ele><time>2026-04-04T12:58:25.101Z</time></trkpt><trkpt lat="43.9615627" lon="10.8370623"><ele>650.0</ele><time>2026-04-04T12:58:26.1Z</time></trkpt><trkpt lat="43.9614806" lon="10.837118"><ele>650.0</ele><time>2026-04-04T12:58:27.102Z</time></trkpt><trkpt lat="43.9614064" lon="10.8371648"><ele>648.8333333333333</ele><time>2026-04-04T12:58:28.102Z</time></trkpt><trkpt lat="43.9613289" lon="10.8372109"><ele>647.6666666666666</ele><time>2026-04-04T12:58:29.101Z</time></trkpt><trkpt lat="43.9612387" lon="10.8372502"><ele>646.5</ele><time>2026-04-04T12:58:30.101Z</time></trkpt><trkpt lat="43.9611529" lon="10.8372707"><ele>645.3333333333334</ele><time>2026-04-04T12:58:31.101Z</time></trkpt><trkpt lat="43.96107" lon="10.8372938"><ele>644.1666666666667</ele><time>2026-04-04T12:58:32.101Z</time></trkpt><trkpt lat="43.960987" lon="10.8373067"><ele>643.0</ele><time>2026-04-04T12:58:33.1Z</time></trkpt><trkpt lat="43.9609055" lon="10.837312"><ele>642.0</ele><time>2026-04-04T12:58:34.101Z</time></trkpt><trkpt lat="43.9608524" lon="10.8372446"><ele>641.0</ele><time>2026-04-04T12:58:35.1Z</time></trkpt><trkpt lat="43.9607945" lon="10.8371908"><ele>640.0</ele><time>2026-04-04T12:58:36.102Z</time></trkpt><trkpt lat="43.9607435" lon="10.8371211"><ele>639.0</ele><time>2026-04-04T12:58:37.1Z</time></trkpt><trkpt lat="43.9606919" lon="10.8370595"><ele>638.0</ele><time>2026-04-04T12:58:38.101Z</time></trkpt><trkpt lat="43.9606273" lon="10.8370346"><ele>637.0</ele><time>2026-04-04T12:58:39.1Z</time></trkpt><trkpt lat="43.9605647" lon="10.8370049"><ele>636.0</ele><time>2026-04-04T12:58:40.1Z</time></trkpt><trkpt lat="43.9605124" lon="10.8370625"><ele>636.0</ele><time>2026-04-04T12:58:41.101Z</time></trkpt><trkpt lat="43.9604252" lon="10.8371689"><ele>636.0</ele><time>2026-04-04T12:58:43.101Z</time></trkpt><trkpt lat="43.9604505" lon="10.8373112"><ele>636.0</ele><time>2026-04-04T12:58:45.101Z</time></trkpt><trkpt lat="43.9604454" lon="10.8374935"><ele>636.0</ele><time>2026-04-04T12:58:47.101Z</time></trkpt><trkpt lat="43.9604312" lon="10.8375901"><ele>636.0</ele><time>2026-04-04T12:58:48.101Z</time></trkpt><trkpt lat="43.9604053" lon="10.8376786"><ele>632.5</ele><time>2026-04-04T12:58:49.1Z</time></trkpt><trkpt lat="43.9603599" lon="10.8377662"><ele>629.0</ele><time>2026-04-04T12:58:50.101Z</time></trkpt><trkpt lat="43.960297" lon="10.837838"><ele>625.5</ele><time>2026-04-04T12:58:51.101Z</time></trkpt><trkpt lat="43.960234" lon="10.8379046"><ele>622.0</ele><time>2026-04-04T12:58:52.1Z</time></trkpt><trkpt lat="43.9601686" lon="10.8379621"><ele>618.5</ele><time>2026-04-04T12:58:53.101Z</time></trkpt><trkpt lat="43.960091" lon="10.8380214"><ele>615.0</ele><time>2026-04-04T12:58:54.1Z</time></trkpt><trkpt lat="43.9600296" lon="10.8380801"><ele>614.5</ele><time>2026-04-04T12:58:55.102Z</time></trkpt><trkpt lat="43.9599646" lon="10.8381393"><ele>614.0</ele><time>2026-04-04T12:58:56.101Z</time></trkpt><trkpt lat="43.9599075" lon="10.8382005"><ele>613.5</ele><time>2026-04-04T12:58:57.101Z</time></trkpt><trkpt lat="43.9598199" lon="10.8382771"><ele>613.0</ele><time>2026-04-04T12:58:58.101Z</time></trkpt><trkpt lat="43.9597279" lon="10.8382755"><ele>612.5</ele><time>2026-04-04T12:58:59.102Z</time></trkpt><trkpt lat="43.9596433" lon="10.8383053"><ele>612.0</ele><time>2026-04-04T12:59:00.101Z</time></trkpt><trkpt lat="43.9595445" lon="10.8383282"><ele>612.0</ele><time>2026-04-04T12:59:01.1Z</time></trkpt><trkpt lat="43.9594537" lon="10.8383625"><ele>612.0</ele><time>2026-04-04T12:59:02.101Z</time></trkpt><trkpt lat="43.9593699" lon="10.8383361"><ele>612.0</ele><time>2026-04-04T12:59:03.1Z</time></trkpt><trkpt lat="43.9592775" lon="10.8383494"><ele>612.0</ele><time>2026-04-04T12:59:04.101Z</time></trkpt><trkpt lat="43.9591797" lon="10.8383752"><ele>612.0</ele><time>2026-04-04T12:59:05.101Z</time></trkpt><trkpt lat="43.9590752" lon="10.8384344"><ele>608.8333333333334</ele><time>2026-04-04T12:59:06.101Z</time></trkpt><trkpt lat="43.9589754" lon="10.8384776"><ele>605.6666666666666</ele><time>2026-04-04T12:59:07.102Z</time></trkpt><trkpt lat="43.9588832" lon="10.8385153"><ele>602.5</ele><time>2026-04-04T12:59:08.1Z</time></trkpt><trkpt lat="43.9588165" lon="10.8385467"><ele>599.3333333333333</ele><time>2026-04-04T12:59:09.1Z</time></trkpt><trkpt lat="43.9587457" lon="10.8385951"><ele>596.1666666666666</ele><time>2026-04-04T12:59:10.1Z</time></trkpt><trkpt lat="43.9586803" lon="10.8386521"><ele>593.0</ele><time>2026-04-04T12:59:11.102Z</time></trkpt><trkpt lat="43.9586118" lon="10.8387097"><ele>593.0</ele><time>2026-04-04T12:59:12.1Z</time></trkpt><trkpt lat="43.9585584" lon="10.838815"><ele>593.0</ele><time>2026-04-04T12:59:13.101Z</time></trkpt><trkpt lat="43.9584927" lon="10.8388793"><ele>593.0</ele><time>2026-04-04T12:59:14.1Z</time></trkpt><trkpt lat="43.9584185" lon="10.8389548"><ele>593.0</ele><time>2026-04-04T12:59:15.101Z</time></trkpt><trkpt lat="43.9583622" lon="10.8390193"><ele>593.0</ele><time>2026-04-04T12:59:16.1Z</time></trkpt><trkpt lat="43.9582911" lon="10.839091"><ele>593.0</ele><time>2026-04-04T12:59:17.1Z</time></trkpt><trkpt lat="43.9582282" lon="10.8391674"><ele>590.6666666666666</ele><time>2026-04-04T12:59:18.1Z</time></trkpt><trkpt lat="43.9581589" lon="10.8392201"><ele>588.3333333333333</ele><time>2026-04-04T12:59:19.101Z</time></trkpt><trkpt lat="43.9581092" lon="10.8393119"><ele>586.0</ele><time>2026-04-04T12:59:20.1Z</time></trkpt><trkpt lat="43.9580474" lon="10.8393758"><ele>583.6666666666666</ele><time>2026-04-04T12:59:21.101Z</time></trkpt><trkpt lat="43.9579862" lon="10.8394493"><ele>581.3333333333334</ele><time>2026-04-04T12:59:22.101Z</time></trkpt><trkpt lat="43.9579287" lon="10.8395867"><ele>579.0</ele><time>2026-04-04T12:59:23.102Z</time></trkpt><trkpt lat="43.9578567" lon="10.8397061"><ele>576.2</ele><time>2026-04-04T12:59:24.1Z</time></trkpt><trkpt lat="43.9577808" lon="10.8398552"><ele>573.4</ele><time>2026-04-04T12:59:25.1Z</time></trkpt><trkpt lat="43.9577183" lon="10.8399801"><ele>570.6</ele><time>2026-04-04T12:59:26.1Z</time></trkpt><trkpt lat="43.9576495" lon="10.8400869"><ele>567.8</ele><time>2026-04-04T12:59:27.102Z</time></trkpt><trkpt lat="43.9575856" lon="10.8401994"><ele>565.0</ele><time>2026-04-04T12:59:28.101Z</time></trkpt><trkpt lat="43.9575101" lon="10.8402611"><ele>563.2</ele><time>2026-04-04T12:59:29.102Z</time></trkpt><trkpt lat="43.9574453" lon="10.8403554"><ele>561.4</ele><time>2026-04-04T12:59:30.101Z</time></trkpt><trkpt lat="43.9573855" lon="10.8404625"><ele>559.6</ele><time>2026-04-04T12:59:31.102Z</time></trkpt><trkpt lat="43.957308" lon="10.840557"><ele>557.8</ele><time>2026-04-04T12:59:32.101Z</time></trkpt><trkpt lat="43.9572457" lon="10.8406563"><ele>556.0</ele><time>2026-04-04T12:59:33.1Z</time></trkpt><trkpt lat="43.9571401" lon="10.8407284"><ele>556.0</ele><time>2026-04-04T12:59:34.1Z</time></trkpt><trkpt lat="43.9570394" lon="10.8408407"><ele>556.0</ele><time>2026-04-04T12:59:35.1Z</time></trkpt><trkpt lat="43.9569404" lon="10.8409222"><ele>556.0</ele><time>2026-04-04T12:59:36.101Z</time></trkpt><trkpt lat="43.9568592" lon="10.8409752"><ele>556.0</ele><time>2026-04-04T12:59:37.101Z</time></trkpt><trkpt lat="43.9568058" lon="10.841027"><ele>556.0</ele><time>2026-04-04T12:59:38.101Z</time></trkpt><trkpt lat="43.9567432" lon="10.8410622"><ele>553.4</ele><time>2026-04-04T12:59:39.1Z</time></trkpt><trkpt lat="43.9566434" lon="10.8411506"><ele>550.8</ele><time>2026-04-04T12:59:41.101Z</time></trkpt><trkpt lat="43.9565542" lon="10.8411946"><ele>548.1999999999999</ele><time>2026-04-04T12:59:43.102Z</time></trkpt><trkpt lat="43.9564953" lon="10.8412376"><ele>545.6</ele><time>2026-04-04T12:59:44.101Z</time></trkpt><trkpt lat="43.9563952" lon="10.8412477"><ele>543.0</ele><time>2026-04-04T12:59:46.101Z</time></trkpt><trkpt lat="43.9562641" lon="10.8412749"><ele>543.0</ele><time>2026-04-04T12:59:48.101Z</time></trkpt><trkpt lat="43.956187" lon="10.8412901"><ele>543.0</ele><time>2026-04-04T12:59:49.101Z</time></trkpt><trkpt lat="43.9560903" lon="10.8413005"><ele>543.0</ele><time>2026-04-04T12:59:50.101Z</time></trkpt><trkpt lat="43.9559875" lon="10.8412898"><ele>543.0</ele><time>2026-04-04T12:59:51.101Z</time></trkpt><trkpt lat="43.9559077" lon="10.8412974"><ele>543.0</ele><time>2026-04-04T12:59:52.1Z</time></trkpt><trkpt lat="43.95584" lon="10.8412973"><ele>543.0</ele><time>2026-04-04T12:59:53.101Z</time></trkpt><trkpt lat="43.955733" lon="10.8412421"><ele>542.6666666666666</ele><time>2026-04-04T12:59:55.101Z</time></trkpt><trkpt lat="43.9556746" lon="10.8411965"><ele>542.3333333333334</ele><time>2026-04-04T12:59:56.101Z</time></trkpt><trkpt lat="43.9555757" lon="10.8411079"><ele>542.0</ele><time>2026-04-04T12:59:58.1Z</time></trkpt><trkpt lat="43.9555078" lon="10.8410756"><ele>541.6666666666667</ele><time>2026-04-04T12:59:59.1Z</time></trkpt><trkpt lat="43.955444" lon="10.8410843"><ele>541.3333333333334</ele><time>2026-04-04T13:00:00.101Z</time></trkpt><trkpt lat="43.955382" lon="10.8411211"><ele>541.0</ele><time>2026-04-04T13:00:01.101Z</time></trkpt><trkpt lat="43.9552522" lon="10.8411843"><ele>541.0</ele><time>2026-04-04T13:00:03.1Z</time></trkpt><trkpt lat="43.9551922" lon="10.841212"><ele>541.0</ele><time>2026-04-04T13:00:04.101Z</time></trkpt><trkpt lat="43.9551178" lon="10.8412972"><ele>541.0</ele><time>2026-04-04T13:00:06.1Z</time></trkpt><trkpt lat="43.9550945" lon="10.8413867"><ele>541.0</ele><time>2026-04-04T13:00:08.101Z</time></trkpt><trkpt lat="43.9550792" lon="10.8415257"><ele>541.0</ele><time>2026-04-04T13:00:10.1Z</time></trkpt><trkpt lat="43.9550505" lon="10.8416579"><ele>541.0</ele><time>2026-04-04T13:00:11.101Z</time></trkpt><trkpt lat="43.9550194" lon="10.8417445"><ele>538.0</ele><time>2026-04-04T13:00:12.1Z</time></trkpt><trkpt lat="43.9549891" lon="10.8418397"><ele>535.0</ele><time>2026-04-04T13:00:13.101Z</time></trkpt><trkpt lat="43.9550064" lon="10.8419784"><ele>532.0</ele><time>2026-04-04T13:00:15.101Z</time></trkpt><trkpt lat="43.9550189" lon="10.8420728"><ele>529.0</ele><time>2026-04-04T13:00:19.101Z</time></trkpt><trkpt lat="43.9550762" lon="10.8421212"><ele>526.0</ele><time>2026-04-04T13:00:26.101Z</time></trkpt><trkpt lat="43.9551457" lon="10.8421596"><ele>523.0</ele><time>2026-04-04T13:00:28.101Z</time></trkpt><trkpt lat="43.95525" lon="10.8421918"><ele>523.0</ele><time>2026-04-04T13:00:30.101Z</time></trkpt><trkpt lat="43.955366" lon="10.8421958"><ele>523.0</ele><time>2026-04-04T13:00:32.1Z</time></trkpt><trkpt lat="43.9554491" lon="10.842214"><ele>523.0</ele><time>2026-04-04T13:00:33.1Z</time></trkpt><trkpt lat="43.9555223" lon="10.8422624"><ele>523.0</ele><time>2026-04-04T13:00:34.101Z</time></trkpt><trkpt lat="43.9555931" lon="10.8422842"><ele>523.0</ele><time>2026-04-04T13:00:35.101Z</time></trkpt><trkpt lat="43.9556597" lon="10.8422971"><ele>523.0</ele><time>2026-04-04T13:00:36.1Z</time></trkpt><trkpt lat="43.9557507" lon="10.8423089"><ele>523.0</ele><time>2026-04-04T13:00:37.101Z</time></trkpt><trkpt lat="43.9558119" lon="10.8423473"><ele>523.0</ele><time>2026-04-04T13:00:38.101Z</time></trkpt><trkpt lat="43.9558874" lon="10.8423979"><ele>523.0</ele><time>2026-04-04T13:00:39.1Z</time></trkpt><trkpt lat="43.955956" lon="10.8424688"><ele>523.0</ele><time>2026-04-04T13:00:40.1Z</time></trkpt><trkpt lat="43.9560295" lon="10.8425657"><ele>523.0</ele><time>2026-04-04T13:00:41.1Z</time></trkpt><trkpt lat="43.9560979" lon="10.842651"><ele>523.0</ele><time>2026-04-04T13:00:42.101Z</time></trkpt><trkpt lat="43.9561591" lon="10.8427148"><ele>521.0</ele><time>2026-04-04T13:00:43.101Z</time></trkpt><trkpt lat="43.9561999" lon="10.8427899"><ele>519.0</ele><time>2026-04-04T13:00:44.1Z</time></trkpt><trkpt lat="43.95624" lon="10.8428741"><ele>517.0</ele><time>2026-04-04T13:00:45.1Z</time></trkpt><trkpt lat="43.9561564" lon="10.8428965"><ele>515.0</ele><time>2026-04-04T13:00:47.1Z</time></trkpt><trkpt lat="43.9560617" lon="10.8428771"><ele>513.0</ele><time>2026-04-04T13:00:49.101Z</time></trkpt><trkpt lat="43.9559493" lon="10.842842"><ele>511.0</ele><time>2026-04-04T13:00:51.101Z</time></trkpt><trkpt lat="43.9558475" lon="10.8428178"><ele>509.8</ele><time>2026-04-04T13:00:58.101Z</time></trkpt><trkpt lat="43.9557842" lon="10.8428044"><ele>508.6</ele><time>2026-04-04T13:01:00.1Z</time></trkpt><trkpt lat="43.9557009" lon="10.8428"><ele>507.4</ele><time>2026-04-04T13:01:02.101Z</time></trkpt><trkpt lat="43.9555618" lon="10.8428231"><ele>506.2</ele><time>2026-04-04T13:01:04.101Z</time></trkpt><trkpt lat="43.9554776" lon="10.8428473"><ele>505.0</ele><time>2026-04-04T13:01:05.101Z</time></trkpt><trkpt lat="43.9553883" lon="10.8428604"><ele>505.0</ele><time>2026-04-04T13:01:06.1Z</time></trkpt><trkpt lat="43.9552888" lon="10.8428586"><ele>505.0</ele><time>2026-04-04T13:01:07.1Z</time></trkpt><trkpt lat="43.9551888" lon="10.842862"><ele>505.0</ele><time>2026-04-04T13:01:08.101Z</time></trkpt><trkpt lat="43.9550956" lon="10.8428513"><ele>505.0</ele><time>2026-04-04T13:01:09.1Z</time></trkpt><trkpt lat="43.9550002" lon="10.8428492"><ele>505.0</ele><time>2026-04-04T13:01:10.1Z</time></trkpt><trkpt lat="43.9549048" lon="10.8428493"><ele>504.2</ele><time>2026-04-04T13:01:11.101Z</time></trkpt><trkpt lat="43.9548092" lon="10.8428367"><ele>503.4</ele><time>2026-04-04T13:01:12.1Z</time></trkpt><trkpt lat="43.954713" lon="10.8428205"><ele>502.6</ele><time>2026-04-04T13:01:13.1Z</time></trkpt><trkpt lat="43.9546164" lon="10.8428073"><ele>501.8</ele><time>2026-04-04T13:01:14.1Z</time></trkpt><trkpt lat="43.9545152" lon="10.8427943"><ele>501.0</ele><time>2026-04-04T13:01:15.1Z</time></trkpt><trkpt lat="43.9544017" lon="10.8427823"><ele>501.0</ele><time>2026-04-04T13:01:16.101Z</time></trkpt><trkpt lat="43.9543276" lon="10.8427817"><ele>501.0</ele><time>2026-04-04T13:01:17.1Z</time></trkpt><trkpt lat="43.9542422" lon="10.8427805"><ele>501.0</ele><time>2026-04-04T13:01:18.101Z</time></trkpt><trkpt lat="43.9541362" lon="10.8426839"><ele>501.0</ele><time>2026-04-04T13:01:20.1Z</time></trkpt><trkpt lat="43.9540644" lon="10.8426079"><ele>501.0</ele><time>2026-04-04T13:01:21.1Z</time></trkpt><trkpt lat="43.9539939" lon="10.842496"><ele>500.8</ele><time>2026-04-04T13:01:22.101Z</time></trkpt><trkpt lat="43.9539159" lon="10.8423852"><ele>500.6</ele><time>2026-04-04T13:01:23.101Z</time></trkpt><trkpt lat="43.9538551" lon="10.842282"><ele>500.4</ele><time>2026-04-04T13:01:24.101Z</time></trkpt><trkpt lat="43.9538079" lon="10.8421991"><ele>500.2</ele><time>2026-04-04T13:01:25.101Z</time></trkpt><trkpt lat="43.9537709" lon="10.8421175"><ele>500.0</ele><time>2026-04-04T13:01:26.101Z</time></trkpt><trkpt lat="43.9536989" lon="10.8420251"><ele>500.0</ele><time>2026-04-04T13:01:28.101Z</time></trkpt><trkpt lat="43.9536679" lon="10.8419021"><ele>500.0</ele><time>2026-04-04T13:01:31.1Z</time></trkpt><trkpt lat="43.9536977" lon="10.8417686"><ele>500.0</ele><time>2026-04-04T13:01:33.101Z</time></trkpt><trkpt lat="43.9537018" lon="10.8416291"><ele>500.0</ele><time>2026-04-04T13:01:35.1Z</time></trkpt><trkpt lat="43.9536714" lon="10.8414745"><ele>500.0</ele><time>2026-04-04T13:01:37.101Z</time></trkpt><trkpt lat="43.9536407" lon="10.8413424"><ele>500.16666666666663</ele><time>2026-04-04T13:01:39.101Z</time></trkpt><trkpt lat="43.9536575" lon="10.8412498"><ele>500.3333333333333</ele><time>2026-04-04T13:01:40.1Z</time></trkpt><trkpt lat="43.9536771" lon="10.8411517"><ele>500.5</ele><time>2026-04-04T13:01:42.1Z</time></trkpt><trkpt lat="43.9537195" lon="10.8410828"><ele>500.66666666666663</ele><time>2026-04-04T13:01:44.101Z</time></trkpt><trkpt lat="43.953812" lon="10.8409749"><ele>500.8333333333333</ele><time>2026-04-04T13:01:46.102Z</time></trkpt><trkpt lat="43.9538655" lon="10.8408743"><ele>501.0</ele><time>2026-04-04T13:01:48.1Z</time></trkpt><trkpt lat="43.9538971" lon="10.8407528"><ele>501.0</ele><time>2026-04-04T13:01:50.101Z</time></trkpt><trkpt lat="43.9539569" lon="10.8406127"><ele>501.0</ele><time>2026-04-04T13:01:52.1Z</time></trkpt><trkpt lat="43.9539124" lon="10.8404743"><ele>501.0</ele><time>2026-04-04T13:01:54.101Z</time></trkpt><trkpt lat="43.9538661" lon="10.8403802"><ele>501.0</ele><time>2026-04-04T13:01:56.1Z</time></trkpt><trkpt lat="43.9538302" lon="10.8403051"><ele>501.0</ele><time>2026-04-04T13:01:57.1Z</time></trkpt><trkpt lat="43.953809" lon="10.8402037"><ele>501.0</ele><time>2026-04-04T13:01:58.101Z</time></trkpt><trkpt lat="43.9537584" lon="10.8401253"><ele>499.8333333333333</ele><time>2026-04-04T13:01:59.101Z</time></trkpt><trkpt lat="43.9537391" lon="10.8400406"><ele>498.66666666666663</ele><time>2026-04-04T13:02:00.101Z</time></trkpt><trkpt lat="43.9537087" lon="10.8399531"><ele>497.5</ele><time>2026-04-04T13:02:01.101Z</time></trkpt><trkpt lat="43.9536796" lon="10.8398645"><ele>496.3333333333333</ele><time>2026-04-04T13:02:02.102Z</time></trkpt><trkpt lat="43.9536289" lon="10.8397829"><ele>495.16666666666663</ele><time>2026-04-04T13:02:03.101Z</time></trkpt><trkpt lat="43.9535762" lon="10.8396473"><ele>494.0</ele><time>2026-04-04T13:02:05.1Z</time></trkpt><trkpt lat="43.9535552" lon="10.8395568"><ele>494.0</ele><time>2026-04-04T13:02:06.101Z</time></trkpt><trkpt lat="43.9535777" lon="10.8394004"><ele>494.0</ele><time>2026-04-04T13:02:08.102Z</time></trkpt><trkpt lat="43.9535814" lon="10.8392381"><ele>494.0</ele><time>2026-04-04T13:02:10.1Z</time></trkpt><trkpt lat="43.9535778" lon="10.8391484"><ele>494.0</ele><time>2026-04-04T13:02:11.1Z</time></trkpt><trkpt lat="43.9535725" lon="10.8390502"><ele>494.0</ele><time>2026-04-04T13:02:12.102Z</time></trkpt><trkpt lat="43.9535866" lon="10.8389334"><ele>492.16666666666663</ele><time>2026-04-04T13:02:14.102Z</time></trkpt><trkpt lat="43.9535989" lon="10.8388424"><ele>490.3333333333333</ele><time>2026-04-04T13:02:15.101Z</time></trkpt><trkpt lat="43.9536488" lon="10.8386831"><ele>488.5</ele><time>2026-04-04T13:02:17.101Z</time></trkpt><trkpt lat="43.9536745" lon="10.8385917"><ele>486.66666666666663</ele><time>2026-04-04T13:02:18.102Z</time></trkpt><trkpt lat="43.9536532" lon="10.8384862"><ele>484.8333333333333</ele><time>2026-04-04T13:02:20.1Z</time></trkpt><trkpt lat="43.9535839" lon="10.8385285"><ele>483.0</ele><time>2026-04-04T13:02:21.1Z</time></trkpt><trkpt lat="43.9535098" lon="10.8385261"><ele>483.0</ele><time>2026-04-04T13:02:24.101Z</time></trkpt><trkpt lat="43.953428" lon="10.8385505"><ele>483.0</ele><time>2026-04-04T13:02:27.099Z</time></trkpt><trkpt lat="43.9533425" lon="10.8384996"><ele>483.0</ele><time>2026-04-04T13:02:30.1Z</time></trkpt><trkpt lat="43.9533313" lon="10.8384116"><ele>483.0</ele><time>2026-04-04T13:02:31.1Z</time></trkpt><trkpt lat="43.9533284" lon="10.8383008"><ele>483.0</ele><time>2026-04-04T13:02:33.099Z</time></trkpt><trkpt lat="43.9534004" lon="10.8381961"><ele>483.0</ele><time>2026-04-04T13:02:35.099Z</time></trkpt><trkpt lat="43.9534102" lon="10.8381082"><ele>478.2</ele><time>2026-04-04T13:02:36.099Z</time></trkpt><trkpt lat="43.9534675" lon="10.8379861"><ele>473.4</ele><time>2026-04-04T13:02:38.099Z</time></trkpt><trkpt lat="43.9535443" lon="10.8379268"><ele>468.59999999999997</ele><time>2026-04-04T13:02:40.1Z</time></trkpt><trkpt lat="43.9536246" lon="10.8378814"><ele>463.79999999999995</ele><time>2026-04-04T13:02:42.1Z</time></trkpt><trkpt lat="43.9537163" lon="10.8378147"><ele>459.0</ele><time>2026-04-04T13:02:44.1Z</time></trkpt><trkpt lat="43.9538047" lon="10.8377898"><ele>459.0</ele><time>2026-04-04T13:02:46.099Z</time></trkpt><trkpt lat="43.9538939" lon="10.8378024"><ele>459.0</ele><time>2026-04-04T13:02:48.1Z</time></trkpt><trkpt lat="43.9539815" lon="10.8377135"><ele>459.0</ele><time>2026-04-04T13:02:50.099Z</time></trkpt><trkpt lat="43.9540074" lon="10.8376324"><ele>459.0</ele><time>2026-04-04T13:02:51.1Z</time></trkpt><trkpt lat="43.9540948" lon="10.8375294"><ele>459.0</ele><time>2026-04-04T13:02:53.1Z</time></trkpt><trkpt lat="43.9541581" lon="10.8375337"><ele>459.0</ele><time>2026-04-04T13:02:54.1Z</time></trkpt><trkpt lat="43.9542318" lon="10.8375032"><ele>453.2</ele><time>2026-04-04T13:02:55.1Z</time></trkpt><trkpt lat="43.9543064" lon="10.8374921"><ele>447.4</ele><time>2026-04-04T13:02:56.1Z</time></trkpt><trkpt lat="43.9544251" lon="10.8375059"><ele>441.6</ele><time>2026-04-04T13:02:58.1Z</time></trkpt><trkpt lat="43.9544987" lon="10.8375304"><ele>435.8</ele><time>2026-04-04T13:03:00.099Z</time></trkpt><trkpt lat="43.9544022" lon="10.8374909"><ele>430.0</ele><time>2026-04-04T13:03:03.1Z</time></trkpt><trkpt lat="43.9543259" lon="10.8373997"><ele>430.0</ele><time>2026-04-04T13:03:05.1Z</time></trkpt><trkpt lat="43.9542285" lon="10.8373149"><ele>430.0</ele><time>2026-04-04T13:03:07.1Z</time></trkpt><trkpt lat="43.9541337" lon="10.8372306"><ele>430.0</ele><time>2026-04-04T13:03:09.1Z</time></trkpt><trkpt lat="43.9540221" lon="10.8371974"><ele>430.0</ele><time>2026-04-04T13:03:11.099Z</time></trkpt><trkpt lat="43.9539559" lon="10.8371682"><ele>430.0</ele><time>2026-04-04T13:03:12.1Z</time></trkpt><trkpt lat="43.9538841" lon="10.8371812"><ele>428.1666666666667</ele><time>2026-04-04T13:03:13.1Z</time></trkpt><trkpt lat="43.9538176" lon="10.8371756"><ele>426.33333333333337</ele><time>2026-04-04T13:03:14.099Z</time></trkpt><trkpt lat="43.9536924" lon="10.8370962"><ele>424.5</ele><time>2026-04-04T13:03:16.1Z</time></trkpt><trkpt lat="43.9536305" lon="10.8370549"><ele>422.66666666666663</ele><time>2026-04-04T13:03:17.1Z</time></trkpt><trkpt lat="43.9535662" lon="10.8370137"><ele>420.8333333333333</ele><time>2026-04-04T13:03:18.1Z</time></trkpt><trkpt lat="43.9534855" lon="10.8369689"><ele>419.0</ele><time>2026-04-04T13:03:20.1Z</time></trkpt><trkpt lat="43.953417" lon="10.8369787"><ele>419.4</ele><time>2026-04-04T13:03:22.1Z</time></trkpt><trkpt lat="43.9533376" lon="10.8370395"><ele>419.79999999999995</ele><time>2026-04-04T13:03:24.1Z</time></trkpt><trkpt lat="43.9532273" lon="10.8370475"><ele>420.20000000000005</ele><time>2026-04-04T13:03:26.1Z</time></trkpt><trkpt lat="43.9531632" lon="10.8369832"><ele>420.6</ele><time>2026-04-04T13:03:28.099Z</time></trkpt><trkpt lat="43.9530859" lon="10.8369157"><ele>421.0</ele><time>2026-04-04T13:03:30.099Z</time></trkpt><trkpt lat="43.9530482" lon="10.8368049"><ele>421.00000000000006</ele><time>2026-04-04T13:03:32.099Z</time></trkpt><trkpt lat="43.9531331" lon="10.8368134"><ele>421.0</ele><time>2026-04-04T13:03:34.099Z</time></trkpt><trkpt lat="43.9532008" lon="10.836847"><ele>421.0</ele><time>2026-04-04T13:03:36.1Z</time></trkpt><trkpt lat="43.9532838" lon="10.8368385"><ele>421.0</ele><time>2026-04-04T13:03:38.1Z</time></trkpt><trkpt lat="43.9533306" lon="10.8367418"><ele>421.00000000000006</ele><time>2026-04-04T13:03:41.1Z</time></trkpt><trkpt lat="43.9532355" lon="10.8367388"><ele>421.0</ele><time>2026-04-04T13:03:44.099Z</time></trkpt><trkpt lat="43.9531654" lon="10.8367421"><ele>413.4</ele><time>2026-04-04T13:03:46.1Z</time></trkpt><trkpt lat="43.9530863" lon="10.8367167"><ele>405.8</ele><time>2026-04-04T13:03:48.099Z</time></trkpt><trkpt lat="43.9529772" lon="10.836684"><ele>398.2</ele><time>2026-04-04T13:03:50.1Z</time></trkpt><trkpt lat="43.9528695" lon="10.8366283"><ele>390.59999999999997</ele><time>2026-04-04T13:03:52.1Z</time></trkpt><trkpt lat="43.9527736" lon="10.836578"><ele>383.0</ele><time>2026-04-04T13:03:54.099Z</time></trkpt><trkpt lat="43.952701" lon="10.8365739"><ele>383.0</ele><time>2026-04-04T13:03:56.1Z</time></trkpt><trkpt lat="43.9525875" lon="10.8365892"><ele>383.0</ele><time>2026-04-04T13:03:58.1Z</time></trkpt><trkpt lat="43.9525095" lon="10.8365945"><ele>383.0</ele><time>2026-04-04T13:03:59.1Z</time></trkpt><trkpt lat="43.9524199" lon="10.8366162"><ele>383.0</ele><time>2026-04-04T13:04:00.1Z</time></trkpt><trkpt lat="43.9523434" lon="10.8366582"><ele>383.0</ele><time>2026-04-04T13:04:01.1Z</time></trkpt><trkpt lat="43.9522613" lon="10.8367323"><ele>380.5</ele><time>2026-04-04T13:04:02.1Z</time></trkpt><trkpt lat="43.952185" lon="10.8367968"><ele>378.0</ele><time>2026-04-04T13:04:03.099Z</time></trkpt><trkpt lat="43.9521163" lon="10.8368172"><ele>375.5</ele><time>2026-04-04T13:04:04.1Z</time></trkpt><trkpt lat="43.9520449" lon="10.8367923"><ele>373.0</ele><time>2026-04-04T13:04:05.099Z</time></trkpt><trkpt lat="43.9519629" lon="10.8367438"><ele>370.5</ele><time>2026-04-04T13:04:06.099Z</time></trkpt><trkpt lat="43.9518886" lon="10.8366887"><ele>368.0</ele><time>2026-04-04T13:04:07.1Z</time></trkpt><trkpt lat="43.9518098" lon="10.836644"><ele>368.0</ele><time>2026-04-04T13:04:08.1Z</time></trkpt><trkpt lat="43.9517456" lon="10.8366293"><ele>368.0</ele><time>2026-04-04T13:04:09.1Z</time></trkpt><trkpt lat="43.9516798" lon="10.8366391"><ele>368.0</ele><time>2026-04-04T13:04:10.1Z</time></trkpt><trkpt lat="43.9515741" lon="10.8367222"><ele>368.0</ele><time>2026-04-04T13:04:12.101Z</time></trkpt><trkpt lat="43.9515118" lon="10.8367883"><ele>368.0</ele><time>2026-04-04T13:04:13.099Z</time></trkpt><trkpt lat="43.9514439" lon="10.8368609"><ele>368.0</ele><time>2026-04-04T13:04:14.1Z</time></trkpt><trkpt lat="43.9513723" lon="10.8369385"><ele>368.33333333333337</ele><time>2026-04-04T13:04:15.1Z</time></trkpt><trkpt lat="43.9512992" lon="10.8370059"><ele>368.6666666666667</ele><time>2026-04-04T13:04:16.101Z</time></trkpt><trkpt lat="43.9512229" lon="10.837057"><ele>369.0</ele><time>2026-04-04T13:04:17.1Z</time></trkpt><trkpt lat="43.9511433" lon="10.8370856"><ele>369.3333333333333</ele><time>2026-04-04T13:04:18.1Z</time></trkpt><trkpt lat="43.9510554" lon="10.8370912"><ele>369.66666666666663</ele><time>2026-04-04T13:04:19.099Z</time></trkpt><trkpt lat="43.950953" lon="10.8370913"><ele>370.0</ele><time>2026-04-04T13:04:20.099Z</time></trkpt><trkpt lat="43.9508472" lon="10.8370891"><ele>363.4</ele><time>2026-04-04T13:04:21.1Z</time></trkpt><trkpt lat="43.9507418" lon="10.8370876"><ele>356.8</ele><time>2026-04-04T13:04:22.1Z</time></trkpt><trkpt lat="43.9506343" lon="10.8370867"><ele>350.20000000000005</ele><time>2026-04-04T13:04:23.1Z</time></trkpt><trkpt lat="43.9505264" lon="10.8370951"><ele>343.6</ele><time>2026-04-04T13:04:24.099Z</time></trkpt><trkpt lat="43.9504065" lon="10.8371083"><ele>337.0</ele><time>2026-04-04T13:04:25.1Z</time></trkpt><trkpt lat="43.950294" lon="10.8371099"><ele>337.0</ele><time>2026-04-04T13:04:26.099Z</time></trkpt><trkpt lat="43.950194" lon="10.8370963"><ele>337.0</ele><time>2026-04-04T13:04:27.1Z</time></trkpt><trkpt lat="43.9501114" lon="10.8370544"><ele>337.0</ele><time>2026-04-04T13:04:28.1Z</time></trkpt><trkpt lat="43.9500471" lon="10.8369972"><ele>337.0</ele><time>2026-04-04T13:04:29.099Z</time></trkpt><trkpt lat="43.9499937" lon="10.8369105"><ele>337.0</ele><time>2026-04-04T13:04:30.099Z</time></trkpt><trkpt lat="43.9499602" lon="10.8368066"><ele>337.0</ele><time>2026-04-04T13:04:31.1Z</time></trkpt><trkpt lat="43.949949" lon="10.8366853"><ele>336.0</ele><time>2026-04-04T13:04:32.1Z</time></trkpt><trkpt lat="43.9499527" lon="10.8365466"><ele>335.0</ele><time>2026-04-04T13:04:33.099Z</time></trkpt><trkpt lat="43.9499684" lon="10.8364063"><ele>334.0</ele><time>2026-04-04T13:04:34.1Z</time></trkpt><trkpt lat="43.9499893" lon="10.8362723"><ele>333.0</ele><time>2026-04-04T13:04:35.1Z</time></trkpt><trkpt lat="43.9500102" lon="10.8361469"><ele>332.0</ele><time>2026-04-04T13:04:36.1Z</time></trkpt><trkpt lat="43.9500275" lon="10.8360291"><ele>330.0</ele><time>2026-04-04T13:04:37.099Z</time></trkpt><trkpt lat="43.9500478" lon="10.8359268"><ele>328.0</ele><time>2026-04-04T13:04:38.099Z</time></trkpt><trkpt lat="43.950109" lon="10.8357933"><ele>326.0</ele><time>2026-04-04T13:04:40.101Z</time></trkpt><trkpt lat="43.9502326" lon="10.8357285"><ele>324.0</ele><time>2026-04-04T13:04:42.1Z</time></trkpt><trkpt lat="43.9503248" lon="10.8357358"><ele>322.0</ele><time>2026-04-04T13:04:43.099Z</time></trkpt><trkpt lat="43.9504365" lon="10.8357667"><ele>322.0</ele><time>2026-04-04T13:04:44.1Z</time></trkpt><trkpt lat="43.950566" lon="10.8358188"><ele>322.0</ele><time>2026-04-04T13:04:45.099Z</time></trkpt><trkpt lat="43.9506781" lon="10.8358656"><ele>322.0</ele><time>2026-04-04T13:04:46.1Z</time></trkpt><trkpt lat="43.9507844" lon="10.8359035"><ele>322.0</ele><time>2026-04-04T13:04:47.099Z</time></trkpt><trkpt lat="43.950878" lon="10.8359088"><ele>322.16666666666663</ele><time>2026-04-04T13:04:48.099Z</time></trkpt><trkpt lat="43.9509613" lon="10.8358771"><ele>322.3333333333333</ele><time>2026-04-04T13:04:49.1Z</time></trkpt><trkpt lat="43.9510254" lon="10.8358138"><ele>322.5</ele><time>2026-04-04T13:04:50.1Z</time></trkpt><trkpt lat="43.9510836" lon="10.8357498"><ele>322.6666666666667</ele><time>2026-04-04T13:04:51.1Z</time></trkpt><trkpt lat="43.9511454" lon="10.8356886"><ele>322.83333333333337</ele><time>2026-04-04T13:04:52.101Z</time></trkpt><trkpt lat="43.9512153" lon="10.8356384"><ele>323.0</ele><time>2026-04-04T13:04:53.1Z</time></trkpt><trkpt lat="43.9512887" lon="10.8356211"><ele>323.0</ele><time>2026-04-04T13:04:54.1Z</time></trkpt><trkpt lat="43.95138" lon="10.8356346"><ele>323.0</ele><time>2026-04-04T13:04:55.1Z</time></trkpt><trkpt lat="43.9514942" lon="10.8356656"><ele>323.0</ele><time>2026-04-04T13:04:56.1Z</time></trkpt><trkpt lat="43.9516207" lon="10.8357129"><ele>323.0</ele><time>2026-04-04T13:04:57.1Z</time></trkpt><trkpt lat="43.9517224" lon="10.8357494"><ele>323.0</ele><time>2026-04-04T13:04:58.1Z</time></trkpt><trkpt lat="43.9518086" lon="10.8357864"><ele>326.33333333333337</ele><time>2026-04-04T13:04:59.1Z</time></trkpt><trkpt lat="43.9518848" lon="10.8357963"><ele>329.6666666666667</ele><time>2026-04-04T13:05:00.1Z</time></trkpt><trkpt lat="43.9519451" lon="10.8357621"><ele>333.0</ele><time>2026-04-04T13:05:01.1Z</time></trkpt><trkpt lat="43.9519895" lon="10.835635"><ele>336.3333333333333</ele><time>2026-04-04T13:05:03.1Z</time></trkpt><trkpt lat="43.9519715" lon="10.835549"><ele>339.66666666666663</ele><time>2026-04-04T13:05:04.1Z</time></trkpt><trkpt lat="43.9519172" lon="10.8354598"><ele>343.0</ele><time>2026-04-04T13:05:05.1Z</time></trkpt><trkpt lat="43.9518704" lon="10.8353509"><ele>343.0</ele><time>2026-04-04T13:05:06.1Z</time></trkpt><trkpt lat="43.951818" lon="10.8352251"><ele>343.0</ele><time>2026-04-04T13:05:07.1Z</time></trkpt><trkpt lat="43.9517495" lon="10.835098"><ele>343.0</ele><time>2026-04-04T13:05:08.099Z</time></trkpt><trkpt lat="43.9516749" lon="10.834995"><ele>343.0</ele><time>2026-04-04T13:05:09.1Z</time></trkpt><trkpt lat="43.9516175" lon="10.8349145"><ele>343.0</ele><time>2026-04-04T13:05:10.101Z</time></trkpt><trkpt lat="43.9515731" lon="10.8348433"><ele>338.66666666666663</ele><time>2026-04-04T13:05:11.101Z</time></trkpt><trkpt lat="43.9515394" lon="10.8347688"><ele>334.3333333333333</ele><time>2026-04-04T13:05:12.1Z</time></trkpt><trkpt lat="43.9515157" lon="10.8346705"><ele>330.0</ele><time>2026-04-04T13:05:13.101Z</time></trkpt><trkpt lat="43.9514994" lon="10.834561"><ele>325.6666666666667</ele><time>2026-04-04T13:05:14.1Z</time></trkpt><trkpt lat="43.9514838" lon="10.8344403"><ele>321.33333333333337</ele><time>2026-04-04T13:05:15.099Z</time></trkpt><trkpt lat="43.9514705" lon="10.8343308"><ele>317.0</ele><time>2026-04-04T13:05:16.101Z</time></trkpt><trkpt lat="43.951463" lon="10.8342307"><ele>317.0</ele><time>2026-04-04T13:05:17.1Z</time></trkpt><trkpt lat="43.9514475" lon="10.8341416"><ele>317.0</ele><time>2026-04-04T13:05:18.099Z</time></trkpt><trkpt lat="43.9514502" lon="10.8340438"><ele>317.0</ele><time>2026-04-04T13:05:19.101Z</time></trkpt><trkpt lat="43.9514584" lon="10.8339519"><ele>317.0</ele><time>2026-04-04T13:05:20.099Z</time></trkpt><trkpt lat="43.9514867" lon="10.8338607"><ele>317.0</ele><time>2026-04-04T13:05:21.1Z</time></trkpt><trkpt lat="43.9515308" lon="10.8337595"><ele>317.0</ele><time>2026-04-04T13:05:22.1Z</time></trkpt><trkpt lat="43.9515694" lon="10.8336562"><ele>317.0</ele><time>2026-04-04T13:05:23.099Z</time></trkpt><trkpt lat="43.9515884" lon="10.8335499"><ele>314.7142857142857</ele><time>2026-04-04T13:05:24.1Z</time></trkpt><trkpt lat="43.9515936" lon="10.8334472"><ele>312.42857142857144</ele><time>2026-04-04T13:05:25.099Z</time></trkpt><trkpt lat="43.9515823" lon="10.8333401"><ele>310.1428571428571</ele><time>2026-04-04T13:05:26.1Z</time></trkpt><trkpt lat="43.951573" lon="10.8332435"><ele>307.8571428571429</ele><time>2026-04-04T13:05:27.1Z</time></trkpt><trkpt lat="43.9515783" lon="10.8331538"><ele>305.57142857142856</ele><time>2026-04-04T13:05:28.1Z</time></trkpt><trkpt lat="43.9515957" lon="10.8330669"><ele>303.2857142857143</ele><time>2026-04-04T13:05:29.1Z</time></trkpt><trkpt lat="43.9516293" lon="10.8329819"><ele>301.0</ele><time>2026-04-04T13:05:30.099Z</time></trkpt><trkpt lat="43.9516795" lon="10.8329065"><ele>306.66666666666663</ele><time>2026-04-04T13:05:31.1Z</time></trkpt><trkpt lat="43.9517463" lon="10.8328502"><ele>312.3333333333333</ele><time>2026-04-04T13:05:32.1Z</time></trkpt><trkpt lat="43.9518267" lon="10.8328132"><ele>318.0</ele><time>2026-04-04T13:05:33.099Z</time></trkpt><trkpt lat="43.9519125" lon="10.8327918"><ele>323.6666666666667</ele><time>2026-04-04T13:05:34.099Z</time></trkpt><trkpt lat="43.9520036" lon="10.8327686"><ele>329.33333333333337</ele><time>2026-04-04T13:05:35.099Z</time></trkpt><trkpt lat="43.952078" lon="10.8327316"><ele>335.0</ele><time>2026-04-04T13:05:36.099Z</time></trkpt><trkpt lat="43.9521317" lon="10.8326699"><ele>331.4</ele><time>2026-04-04T13:05:37.099Z</time></trkpt><trkpt lat="43.9521532" lon="10.832524"><ele>327.8</ele><time>2026-04-04T13:05:39.1Z</time></trkpt><trkpt lat="43.9520545" lon="10.8324231"><ele>324.2</ele><time>2026-04-04T13:05:41.099Z</time></trkpt><trkpt lat="43.9519799" lon="10.8323747"><ele>320.6</ele><time>2026-04-04T13:05:42.1Z</time></trkpt><trkpt lat="43.9519126" lon="10.8323239"><ele>317.0</ele><time>2026-04-04T13:05:43.101Z</time></trkpt><trkpt lat="43.9518524" lon="10.832262"><ele>317.0</ele><time>2026-04-04T13:05:44.1Z</time></trkpt><trkpt lat="43.9518176" lon="10.8321837"><ele>317.0</ele><time>2026-04-04T13:05:45.1Z</time></trkpt><trkpt lat="43.9518077" lon="10.8320203"><ele>317.0</ele><time>2026-04-04T13:05:47.099Z</time></trkpt><trkpt lat="43.9518821" lon="10.8318759"><ele>317.0</ele><time>2026-04-04T13:05:49.1Z</time></trkpt><trkpt lat="43.9519374" lon="10.8317952"><ele>317.0</ele><time>2026-04-04T13:05:50.099Z</time></trkpt><trkpt lat="43.9520057" lon="10.8316897"><ele>313.2</ele><time>2026-04-04T13:05:51.1Z</time></trkpt><trkpt lat="43.9520802" lon="10.8315756"><ele>309.4</ele><time>2026-04-04T13:05:52.099Z</time></trkpt><trkpt lat="43.9521603" lon="10.8314579"><ele>305.6</ele><time>2026-04-04T13:05:53.101Z</time></trkpt><trkpt lat="43.9522323" lon="10.8313515"><ele>301.8</ele><time>2026-04-04T13:05:54.1Z</time></trkpt><trkpt lat="43.9522983" lon="10.8312546"><ele>298.0</ele><time>2026-04-04T13:05:55.099Z</time></trkpt><trkpt lat="43.9523627" lon="10.8311624"><ele>298.0</ele><time>2026-04-04T13:05:56.1Z</time></trkpt><trkpt lat="43.9524267" lon="10.8310804"><ele>298.0</ele><time>2026-04-04T13:05:57.1Z</time></trkpt><trkpt lat="43.9524992" lon="10.8310049"><ele>298.0</ele><time>2026-04-04T13:05:58.1Z</time></trkpt><trkpt lat="43.9525823" lon="10.8309349"><ele>298.0</ele><time>2026-04-04T13:05:59.1Z</time></trkpt><trkpt lat="43.9526606" lon="10.8308607"><ele>298.0</ele><time>2026-04-04T13:06:00.101Z</time></trkpt><trkpt lat="43.9527284" lon="10.8307579"><ele>296.8</ele><time>2026-04-04T13:06:01.099Z</time></trkpt><trkpt lat="43.9527798" lon="10.8306372"><ele>295.6</ele><time>2026-04-04T13:06:02.099Z</time></trkpt><trkpt lat="43.9528279" lon="10.8305201"><ele>294.4</ele><time>2026-04-04T13:06:03.1Z</time></trkpt><trkpt lat="43.9528739" lon="10.8304004"><ele>293.2</ele><time>2026-04-04T13:06:04.1Z</time></trkpt><trkpt lat="43.9529203" lon="10.830287"><ele>292.0</ele><time>2026-04-04T13:06:05.1Z</time></trkpt><trkpt lat="43.9529774" lon="10.8301969"><ele>292.4</ele><time>2026-04-04T13:06:06.099Z</time></trkpt><trkpt lat="43.9530411" lon="10.8301308"><ele>292.79999999999995</ele><time>2026-04-04T13:06:07.101Z</time></trkpt><trkpt lat="43.9531196" lon="10.8300775"><ele>293.2</ele><time>2026-04-04T13:06:08.1Z</time></trkpt><trkpt lat="43.9532056" lon="10.8300296"><ele>293.59999999999997</ele><time>2026-04-04T13:06:09.1Z</time></trkpt><trkpt lat="43.9532946" lon="10.8299706"><ele>294.0</ele><time>2026-04-04T13:06:10.099Z</time></trkpt><trkpt lat="43.9533824" lon="10.8298969"><ele>294.0</ele><time>2026-04-04T13:06:11.1Z</time></trkpt><trkpt lat="43.953461" lon="10.8297998"><ele>294.0</ele><time>2026-04-04T13:06:12.099Z</time></trkpt><trkpt lat="43.9535296" lon="10.8296846"><ele>294.0</ele><time>2026-04-04T13:06:13.101Z</time></trkpt><trkpt lat="43.9535868" lon="10.8295597"><ele>294.0</ele><time>2026-04-04T13:06:14.1Z</time></trkpt><trkpt lat="43.9536315" lon="10.8294398"><ele>294.0</ele><time>2026-04-04T13:06:15.1Z</time></trkpt><trkpt lat="43.9536596" lon="10.8293432"><ele>291.8</ele><time>2026-04-04T13:06:16.1Z</time></trkpt><trkpt lat="43.953673" lon="10.8292514"><ele>289.59999999999997</ele><time>2026-04-04T13:06:17.099Z</time></trkpt><trkpt lat="43.9536709" lon="10.8290764"><ele>287.4</ele><time>2026-04-04T13:06:19.1Z</time></trkpt><trkpt lat="43.9536729" lon="10.8289612"><ele>285.2</ele><time>2026-04-04T13:06:20.1Z</time></trkpt><trkpt lat="43.9536765" lon="10.8288338"><ele>283.0</ele><time>2026-04-04T13:06:21.101Z</time></trkpt><trkpt lat="43.9536782" lon="10.8286952"><ele>283.0</ele><time>2026-04-04T13:06:22.1Z</time></trkpt><trkpt lat="43.9536722" lon="10.8285565"><ele>283.0</ele><time>2026-04-04T13:06:23.099Z</time></trkpt><trkpt lat="43.9536599" lon="10.8284312"><ele>283.0</ele><time>2026-04-04T13:06:24.1Z</time></trkpt><trkpt lat="43.9536421" lon="10.8283134"><ele>283.0</ele><time>2026-04-04T13:06:25.101Z</time></trkpt><trkpt lat="43.9536309" lon="10.8282109"><ele>283.0</ele><time>2026-04-04T13:06:26.099Z</time></trkpt><trkpt lat="43.9536204" lon="10.8281222"><ele>283.0</ele><time>2026-04-04T13:06:27.1Z</time></trkpt><trkpt lat="43.9535387" lon="10.8279793"><ele>282.2</ele><time>2026-04-04T13:06:29.1Z</time></trkpt><trkpt lat="43.953461" lon="10.827934"><ele>281.4</ele><time>2026-04-04T13:06:30.099Z</time></trkpt><trkpt lat="43.9533663" lon="10.8279027"><ele>280.59999999999997</ele><time>2026-04-04T13:06:31.1Z</time></trkpt><trkpt lat="43.9532647" lon="10.8278809"><ele>279.8</ele><time>2026-04-04T13:06:32.099Z</time></trkpt><trkpt lat="43.9531682" lon="10.8278791"><ele>279.0</ele><time>2026-04-04T13:06:33.1Z</time></trkpt><trkpt lat="43.9530721" lon="10.8279026"><ele>278.2</ele><time>2026-04-04T13:06:34.101Z</time></trkpt><trkpt lat="43.9529788" lon="10.8279483"><ele>277.4</ele><time>2026-04-04T13:06:35.1Z</time></trkpt><trkpt lat="43.9528884" lon="10.8280145"><ele>276.6</ele><time>2026-04-04T13:06:36.099Z</time></trkpt><trkpt lat="43.952805" lon="10.8280826"><ele>275.8</ele><time>2026-04-04T13:06:37.101Z</time></trkpt><trkpt lat="43.9527313" lon="10.828145"><ele>275.0</ele><time>2026-04-04T13:06:38.1Z</time></trkpt><trkpt lat="43.9526634" lon="10.8281942"><ele>275.0</ele><time>2026-04-04T13:06:39.099Z</time></trkpt><trkpt lat="43.9525991" lon="10.8282366"><ele>275.0</ele><time>2026-04-04T13:06:40.101Z</time></trkpt><trkpt lat="43.9525301" lon="10.8282709"><ele>275.0</ele><time>2026-04-04T13:06:41.1Z</time></trkpt><trkpt lat="43.9524539" lon="10.828297"><ele>275.0</ele><time>2026-04-04T13:06:42.099Z</time></trkpt><trkpt lat="43.952372" lon="10.8283117"><ele>275.0</ele><time>2026-04-04T13:06:43.099Z</time></trkpt><trkpt lat="43.9522835" lon="10.828316"><ele>275.0</ele><time>2026-04-04T13:06:44.1Z</time></trkpt><trkpt lat="43.9521837" lon="10.828318"><ele>274.6</ele><time>2026-04-04T13:06:45.1Z</time></trkpt><trkpt lat="43.9520784" lon="10.8283328"><ele>274.2</ele><time>2026-04-04T13:06:46.099Z</time></trkpt><trkpt lat="43.9519742" lon="10.8283501"><ele>273.8</ele><time>2026-04-04T13:06:47.1Z</time></trkpt><trkpt lat="43.9518741" lon="10.8283642"><ele>273.4</ele><time>2026-04-04T13:06:48.1Z</time></trkpt><trkpt lat="43.9517863" lon="10.8283839"><ele>273.0</ele><time>2026-04-04T13:06:49.099Z</time></trkpt><trkpt lat="43.9517132" lon="10.828424"><ele>271.6666666666667</ele><time>2026-04-04T13:06:50.1Z</time></trkpt><trkpt lat="43.9516498" lon="10.8284927"><ele>270.3333333333333</ele><time>2026-04-04T13:06:51.101Z</time></trkpt><trkpt lat="43.9515971" lon="10.8285634"><ele>269.0</ele><time>2026-04-04T13:06:52.099Z</time></trkpt><trkpt lat="43.9515554" lon="10.8286309"><ele>267.66666666666663</ele><time>2026-04-04T13:06:53.099Z</time></trkpt><trkpt lat="43.9514801" lon="10.8286998"><ele>266.3333333333333</ele><time>2026-04-04T13:06:55.1Z</time></trkpt><trkpt lat="43.9514087" lon="10.8287491"><ele>265.0</ele><time>2026-04-04T13:07:24.1Z</time></trkpt><trkpt lat="43.9513705" lon="10.8288748"><ele>264.99999999999994</ele><time>2026-04-04T13:07:26.1Z</time></trkpt><trkpt lat="43.9513402" lon="10.828988"><ele>265.0</ele><time>2026-04-04T13:07:28.1Z</time></trkpt><trkpt lat="43.9513177" lon="10.8290699"><ele>265.0</ele><time>2026-04-04T13:07:31.1Z</time></trkpt><trkpt lat="43.9512871" lon="10.8291541"><ele>265.0</ele><time>2026-04-04T13:07:36.1Z</time></trkpt><trkpt lat="43.9513436" lon="10.8291103"><ele>265.0</ele><time>2026-04-04T13:15:42.099Z</time></trkpt><trkpt lat="43.9513681" lon="10.8289858"><ele>264.99999999999994</ele><time>2026-04-04T13:15:44.099Z</time></trkpt><trkpt lat="43.9513761" lon="10.8288918"><ele>265.0</ele><time>2026-04-04T13:15:45.099Z</time></trkpt><trkpt lat="43.9513829" lon="10.8288034"><ele>265.0</ele><time>2026-04-04T13:15:47.098Z</time></trkpt><trkpt lat="43.9514033" lon="10.8286746"><ele>265.0</ele><time>2026-04-04T13:15:50.099Z</time></trkpt><trkpt lat="43.9514429" lon="10.8285992"><ele>265.0</ele><time>2026-04-04T13:15:51.099Z</time></trkpt><trkpt lat="43.9514879" lon="10.8285231"><ele>265.0</ele><time>2026-04-04T13:15:52.099Z</time></trkpt><trkpt lat="43.9515531" lon="10.8284167"><ele>265.0</ele><time>2026-04-04T13:15:53.098Z</time></trkpt><trkpt lat="43.9516031" lon="10.8283406"><ele>265.0</ele><time>2026-04-04T13:15:54.098Z</time></trkpt><trkpt lat="43.9516457" lon="10.8282185"><ele>267.16666666666663</ele><time>2026-04-04T13:15:56.098Z</time></trkpt><trkpt lat="43.9516101" lon="10.8281194"><ele>269.3333333333333</ele><time>2026-04-04T13:15:58.099Z</time></trkpt><trkpt lat="43.9515076" lon="10.828102"><ele>271.5</ele><time>2026-04-04T13:16:00.099Z</time></trkpt><trkpt lat="43.9514346" lon="10.8281386"><ele>273.6666666666667</ele><time>2026-04-04T13:16:01.099Z</time></trkpt><trkpt lat="43.9513595" lon="10.828211"><ele>275.83333333333337</ele><time>2026-04-04T13:16:02.099Z</time></trkpt><trkpt lat="43.9513034" lon="10.8283112"><ele>278.0</ele><time>2026-04-04T13:16:03.099Z</time></trkpt><trkpt lat="43.9512423" lon="10.828446"><ele>279.0</ele><time>2026-04-04T13:16:04.099Z</time></trkpt><trkpt lat="43.9511728" lon="10.828569"><ele>280.0</ele><time>2026-04-04T13:16:05.099Z</time></trkpt><trkpt lat="43.9511009" lon="10.8286663"><ele>281.0</ele><time>2026-04-04T13:16:06.099Z</time></trkpt><trkpt lat="43.951017" lon="10.8287576"><ele>282.0</ele><time>2026-04-04T13:16:07.098Z</time></trkpt><trkpt lat="43.9509283" lon="10.8288321"><ele>283.0</ele><time>2026-04-04T13:16:08.099Z</time></trkpt><trkpt lat="43.950836" lon="10.82889"><ele>283.0</ele><time>2026-04-04T13:16:09.099Z</time></trkpt><trkpt lat="43.9507486" lon="10.8289415"><ele>283.0</ele><time>2026-04-04T13:16:10.099Z</time></trkpt><trkpt lat="43.9506622" lon="10.8289853"><ele>283.0</ele><time>2026-04-04T13:16:11.098Z</time></trkpt><trkpt lat="43.9505777" lon="10.8290054"><ele>283.0</ele><time>2026-04-04T13:16:12.098Z</time></trkpt><trkpt lat="43.9504944" lon="10.8289921"><ele>283.0</ele><time>2026-04-04T13:16:13.099Z</time></trkpt><trkpt lat="43.9504226" lon="10.8289457"><ele>283.0</ele><time>2026-04-04T13:16:14.098Z</time></trkpt><trkpt lat="43.9503577" lon="10.8288691"><ele>283.0</ele><time>2026-04-04T13:16:15.099Z</time></trkpt><trkpt lat="43.9503033" lon="10.828775"><ele>283.0</ele><time>2026-04-04T13:16:16.098Z</time></trkpt><trkpt lat="43.9502555" lon="10.8286641"><ele>283.0</ele><time>2026-04-04T13:16:17.098Z</time></trkpt><trkpt lat="43.9502131" lon="10.828563"><ele>283.0</ele><time>2026-04-04T13:16:18.098Z</time></trkpt><trkpt lat="43.9501707" lon="10.8284973"><ele>283.0</ele><time>2026-04-04T13:16:19.099Z</time></trkpt><trkpt lat="43.9500781" lon="10.8284712"><ele>283.0</ele><time>2026-04-04T13:16:21.099Z</time></trkpt><trkpt lat="43.9500216" lon="10.8285653"><ele>285.0</ele><time>2026-04-04T13:16:23.099Z</time></trkpt><trkpt lat="43.9500261" lon="10.828705"><ele>287.0</ele><time>2026-04-04T13:16:25.099Z</time></trkpt><trkpt lat="43.9500033" lon="10.8288605"><ele>289.0</ele><time>2026-04-04T13:16:27.099Z</time></trkpt><trkpt lat="43.9498954" lon="10.8289642"><ele>291.0</ele><time>2026-04-04T13:16:29.099Z</time></trkpt><trkpt lat="43.9498176" lon="10.8290029"><ele>293.0</ele><time>2026-04-04T13:16:30.1Z</time></trkpt><trkpt lat="43.9497389" lon="10.8290353"><ele>293.0</ele><time>2026-04-04T13:16:31.099Z</time></trkpt><trkpt lat="43.9496691" lon="10.8290453"><ele>293.0</ele><time>2026-04-04T13:16:32.098Z</time></trkpt><trkpt lat="43.949568" lon="10.8289911"><ele>293.0</ele><time>2026-04-04T13:16:34.099Z</time></trkpt><trkpt lat="43.9494905" lon="10.8288588"><ele>293.0</ele><time>2026-04-04T13:16:36.098Z</time></trkpt><trkpt lat="43.9494108" lon="10.8287249"><ele>293.0</ele><time>2026-04-04T13:16:38.099Z</time></trkpt><trkpt lat="43.9493723" lon="10.8286393"><ele>293.0</ele><time>2026-04-04T13:16:39.098Z</time></trkpt><trkpt lat="43.9493132" lon="10.8285615"><ele>293.0</ele><time>2026-04-04T13:16:40.098Z</time></trkpt><trkpt lat="43.9492396" lon="10.8284945"><ele>293.0</ele><time>2026-04-04T13:16:41.099Z</time></trkpt><trkpt lat="43.949147" lon="10.8284441"><ele>293.0</ele><time>2026-04-04T13:16:42.099Z</time></trkpt><trkpt lat="43.9490374" lon="10.8284077"><ele>293.0</ele><time>2026-04-04T13:16:43.098Z</time></trkpt><trkpt lat="43.9488991" lon="10.8283747"><ele>298.0</ele><time>2026-04-04T13:16:44.099Z</time></trkpt><trkpt lat="43.9487399" lon="10.8283554"><ele>303.0</ele><time>2026-04-04T13:16:45.099Z</time></trkpt><trkpt lat="43.9485777" lon="10.8283236"><ele>308.0</ele><time>2026-04-04T13:16:46.098Z</time></trkpt><trkpt lat="43.9484415" lon="10.8282833"><ele>310.0</ele><time>2026-04-04T13:16:47.1Z</time></trkpt><trkpt lat="43.9483086" lon="10.8282297"><ele>312.0</ele><time>2026-04-04T13:16:48.099Z</time></trkpt><trkpt lat="43.9481993" lon="10.8281601"><ele>314.0</ele><time>2026-04-04T13:16:49.098Z</time></trkpt><trkpt lat="43.9480978" lon="10.8280656"><ele>316.0</ele><time>2026-04-04T13:16:50.099Z</time></trkpt><trkpt lat="43.9479833" lon="10.8279396"><ele>316.0</ele><time>2026-04-04T13:16:51.098Z</time></trkpt><trkpt lat="43.9478754" lon="10.8278118"><ele>316.0</ele><time>2026-04-04T13:16:52.099Z</time></trkpt><trkpt lat="43.9477871" lon="10.8277132"><ele>316.0</ele><time>2026-04-04T13:16:53.099Z</time></trkpt><trkpt lat="43.9477058" lon="10.8276511"><ele>316.0</ele><time>2026-04-04T13:16:54.099Z</time></trkpt><trkpt lat="43.9476307" lon="10.827633"><ele>316.0</ele><time>2026-04-04T13:16:55.1Z</time></trkpt><trkpt lat="43.9475636" lon="10.8276398"><ele>317.3333333333333</ele><time>2026-04-04T13:16:56.099Z</time></trkpt><trkpt lat="43.9475275" lon="10.8277232"><ele>318.66666666666663</ele><time>2026-04-04T13:16:57.098Z</time></trkpt><trkpt lat="43.9475085" lon="10.827816"><ele>320.0</ele><time>2026-04-04T13:16:58.099Z</time></trkpt><trkpt lat="43.9475014" lon="10.8279258"><ele>321.3333333333333</ele><time>2026-04-04T13:16:59.099Z</time></trkpt><trkpt lat="43.9475022" lon="10.8280635"><ele>322.6666666666667</ele><time>2026-04-04T13:17:00.099Z</time></trkpt><trkpt lat="43.947501" lon="10.8282233"><ele>324.0</ele><time>2026-04-04T13:17:01.098Z</time></trkpt><trkpt lat="43.9475085" lon="10.8283949"><ele>324.0</ele><time>2026-04-04T13:17:02.099Z</time></trkpt><trkpt lat="43.9475064" lon="10.8285661"><ele>324.0</ele><time>2026-04-04T13:17:03.099Z</time></trkpt><trkpt lat="43.947511" lon="10.8287239"><ele>324.0</ele><time>2026-04-04T13:17:04.098Z</time></trkpt><trkpt lat="43.947517" lon="10.8288653"><ele>324.0</ele><time>2026-04-04T13:17:05.099Z</time></trkpt><trkpt lat="43.9475261" lon="10.8289926"><ele>324.0</ele><time>2026-04-04T13:17:06.099Z</time></trkpt><trkpt lat="43.947551" lon="10.8291033"><ele>324.0</ele><time>2026-04-04T13:17:07.098Z</time></trkpt><trkpt lat="43.9475918" lon="10.8291943"><ele>324.0</ele><time>2026-04-04T13:17:08.099Z</time></trkpt><trkpt lat="43.9476267" lon="10.8292788"><ele>324.0</ele><time>2026-04-04T13:17:09.099Z</time></trkpt><trkpt lat="43.947604" lon="10.8293686"><ele>324.0</ele><time>2026-04-04T13:17:11.099Z</time></trkpt><trkpt lat="43.947514" lon="10.8293524"><ele>324.0</ele><time>2026-04-04T13:17:13.099Z</time></trkpt><trkpt lat="43.9474413" lon="10.8293051"><ele>324.0</ele><time>2026-04-04T13:17:14.098Z</time></trkpt><trkpt lat="43.9473513" lon="10.8292421"><ele>324.0</ele><time>2026-04-04T13:17:15.099Z</time></trkpt><trkpt lat="43.9472623" lon="10.8291791"><ele>324.0</ele><time>2026-04-04T13:17:16.1Z</time></trkpt><trkpt lat="43.9471681" lon="10.8291437"><ele>324.0</ele><time>2026-04-04T13:17:17.099Z</time></trkpt><trkpt lat="43.9470694" lon="10.8291305"><ele>324.0</ele><time>2026-04-04T13:17:18.099Z</time></trkpt><trkpt lat="43.9469667" lon="10.8291131"><ele>324.0</ele><time>2026-04-04T13:17:19.099Z</time></trkpt><trkpt lat="43.9468617" lon="10.8290882"><ele>324.0</ele><time>2026-04-04T13:17:20.098Z</time></trkpt><trkpt lat="43.9467533" lon="10.8290584"><ele>324.0</ele><time>2026-04-04T13:17:21.098Z</time></trkpt><trkpt lat="43.9466446" lon="10.8290144"><ele>324.0</ele><time>2026-04-04T13:17:22.099Z</time></trkpt><trkpt lat="43.9465406" lon="10.8289564"><ele>324.0</ele><time>2026-04-04T13:17:23.099Z</time></trkpt><trkpt lat="43.9464389" lon="10.8288907"><ele>324.0</ele><time>2026-04-04T13:17:24.1Z</time></trkpt><trkpt lat="43.9463367" lon="10.8288362"><ele>324.4</ele><time>2026-04-04T13:17:25.099Z</time></trkpt><trkpt lat="43.9462348" lon="10.8287961"><ele>324.79999999999995</ele><time>2026-04-04T13:17:26.099Z</time></trkpt><trkpt lat="43.9461321" lon="10.8287601"><ele>325.20000000000005</ele><time>2026-04-04T13:17:27.098Z</time></trkpt><trkpt lat="43.9460313" lon="10.8287237"><ele>325.6</ele><time>2026-04-04T13:17:28.098Z</time></trkpt><trkpt lat="43.9459474" lon="10.828677"><ele>326.0</ele><time>2026-04-04T13:17:29.099Z</time></trkpt><trkpt lat="43.9458831" lon="10.8286129"><ele>328.0</ele><time>2026-04-04T13:17:30.099Z</time></trkpt><trkpt lat="43.9458231" lon="10.8285303"><ele>330.0</ele><time>2026-04-04T13:17:31.099Z</time></trkpt><trkpt lat="43.945762" lon="10.8284441"><ele>332.0</ele><time>2026-04-04T13:17:32.099Z</time></trkpt><trkpt lat="43.9456934" lon="10.828376"><ele>334.0</ele><time>2026-04-04T13:17:33.099Z</time></trkpt><trkpt lat="43.9456089" lon="10.8283353"><ele>336.0</ele><time>2026-04-04T13:17:34.099Z</time></trkpt><trkpt lat="43.9455215" lon="10.8282918"><ele>338.0</ele><time>2026-04-04T13:17:35.099Z</time></trkpt><trkpt lat="43.9454443" lon="10.8282465"><ele>338.0</ele><time>2026-04-04T13:17:36.1Z</time></trkpt><trkpt lat="43.945377" lon="10.8282169"><ele>338.0</ele><time>2026-04-04T13:17:37.099Z</time></trkpt><trkpt lat="43.945253" lon="10.8282159"><ele>338.0</ele><time>2026-04-04T13:17:39.099Z</time></trkpt><trkpt lat="43.9452579" lon="10.8283092"><ele>338.0</ele><time>2026-04-04T13:17:40.099Z</time></trkpt><trkpt lat="43.9452956" lon="10.8284734"><ele>338.0</ele><time>2026-04-04T13:17:42.1Z</time></trkpt><trkpt lat="43.9453383" lon="10.8285728"><ele>338.0</ele><time>2026-04-04T13:17:43.098Z</time></trkpt><trkpt lat="43.9453738" lon="10.8286897"><ele>338.0</ele><time>2026-04-04T13:17:44.098Z</time></trkpt><trkpt lat="43.9453849" lon="10.8287927"><ele>338.0</ele><time>2026-04-04T13:17:45.099Z</time></trkpt><trkpt lat="43.945339" lon="10.828939"><ele>338.0</ele><time>2026-04-04T13:17:47.099Z</time></trkpt><trkpt lat="43.9452867" lon="10.8290019"><ele>338.0</ele><time>2026-04-04T13:17:48.098Z</time></trkpt><trkpt lat="43.9452368" lon="10.8290837"><ele>338.0</ele><time>2026-04-04T13:17:49.098Z</time></trkpt><trkpt lat="43.9452003" lon="10.8291801"><ele>338.0</ele><time>2026-04-04T13:17:50.099Z</time></trkpt><trkpt lat="43.9451666" lon="10.8293193"><ele>338.0</ele><time>2026-04-04T13:17:52.099Z</time></trkpt><trkpt lat="43.9450941" lon="10.8293369"><ele>338.0</ele><time>2026-04-04T13:17:55.099Z</time></trkpt><trkpt lat="43.9450838" lon="10.8292082"><ele>338.0</ele><time>2026-04-04T13:17:57.098Z</time></trkpt><trkpt lat="43.9450861" lon="10.829112"><ele>338.0</ele><time>2026-04-04T13:17:58.099Z</time></trkpt><trkpt lat="43.9450847" lon="10.8290009"><ele>338.0</ele><time>2026-04-04T13:17:59.099Z</time></trkpt><trkpt lat="43.9450786" lon="10.8288536"><ele>338.0</ele><time>2026-04-04T13:18:00.099Z</time></trkpt><trkpt lat="43.9450749" lon="10.8286905"><ele>338.0</ele><time>2026-04-04T13:18:01.099Z</time></trkpt><trkpt lat="43.9450681" lon="10.8285026"><ele>338.0</ele><time>2026-04-04T13:18:02.099Z</time></trkpt><trkpt lat="43.945053" lon="10.8283695"><ele>338.0</ele><time>2026-04-04T13:18:03.099Z</time></trkpt><trkpt lat="43.94505" lon="10.8282404"><ele>338.0</ele><time>2026-04-04T13:18:04.099Z</time></trkpt><trkpt lat="43.9450507" lon="10.8280973"><ele>340.0</ele><time>2026-04-04T13:18:05.099Z</time></trkpt><trkpt lat="43.9450521" lon="10.8279523"><ele>342.0</ele><time>2026-04-04T13:18:06.098Z</time></trkpt><trkpt lat="43.9450574" lon="10.8278063"><ele>344.0</ele><time>2026-04-04T13:18:07.098Z</time></trkpt><trkpt lat="43.9450818" lon="10.8276619"><ele>346.0</ele><time>2026-04-04T13:18:08.099Z</time></trkpt><trkpt lat="43.9450989" lon="10.8275261"><ele>348.0</ele><time>2026-04-04T13:18:09.098Z</time></trkpt><trkpt lat="43.9451311" lon="10.8273996"><ele>350.1666666666667</ele><time>2026-04-04T13:18:10.098Z</time></trkpt><trkpt lat="43.9451765" lon="10.8273068"><ele>352.3333333333333</ele><time>2026-04-04T13:18:11.098Z</time></trkpt><trkpt lat="43.9452341" lon="10.8272421"><ele>354.5</ele><time>2026-04-04T13:18:12.098Z</time></trkpt><trkpt lat="43.9453013" lon="10.8272021"><ele>356.66666666666663</ele><time>2026-04-04T13:18:13.098Z</time></trkpt><trkpt lat="43.9453854" lon="10.8271822"><ele>358.8333333333333</ele><time>2026-04-04T13:18:14.098Z</time></trkpt><trkpt lat="43.9454796" lon="10.8271669"><ele>361.0</ele><time>2026-04-04T13:18:15.098Z</time></trkpt><trkpt lat="43.9455774" lon="10.8271392"><ele>361.0</ele><time>2026-04-04T13:18:16.098Z</time></trkpt><trkpt lat="43.9456639" lon="10.8270861"><ele>361.0</ele><time>2026-04-04T13:18:17.098Z</time></trkpt><trkpt lat="43.9457355" lon="10.827025"><ele>361.0</ele><time>2026-04-04T13:18:18.097Z</time></trkpt><trkpt lat="43.9457999" lon="10.8269516"><ele>361.0</ele><time>2026-04-04T13:18:19.098Z</time></trkpt><trkpt lat="43.9457699" lon="10.8267885"><ele>361.0</ele><time>2026-04-04T13:18:20.097Z</time></trkpt><trkpt lat="43.9457772" lon="10.8266412"><ele>362.0</ele><time>2026-04-04T13:18:21.098Z</time></trkpt><trkpt lat="43.9457881" lon="10.8264819"><ele>363.0</ele><time>2026-04-04T13:18:22.097Z</time></trkpt><trkpt lat="43.9457938" lon="10.8263345"><ele>364.0</ele><time>2026-04-04T13:18:23.097Z</time></trkpt><trkpt lat="43.9458481" lon="10.8261987"><ele>365.0</ele><time>2026-04-04T13:18:24.097Z</time></trkpt><trkpt lat="43.945907" lon="10.8260646"><ele>366.0</ele><time>2026-04-04T13:18:25.097Z</time></trkpt><trkpt lat="43.945982" lon="10.8259319"><ele>366.0</ele><time>2026-04-04T13:18:26.097Z</time></trkpt><trkpt lat="43.9460571" lon="10.825804"><ele>366.0</ele><time>2026-04-04T13:18:27.097Z</time></trkpt><trkpt lat="43.9461249" lon="10.8256822"><ele>366.0</ele><time>2026-04-04T13:18:28.097Z</time></trkpt><trkpt lat="43.9461855" lon="10.825558"><ele>366.0</ele><time>2026-04-04T13:18:29.097Z</time></trkpt><trkpt lat="43.9462385" lon="10.8254478"><ele>366.0</ele><time>2026-04-04T13:18:30.097Z</time></trkpt><trkpt lat="43.9462832" lon="10.8253528"><ele>366.0</ele><time>2026-04-04T13:18:31.098Z</time></trkpt><trkpt lat="43.9463221" lon="10.8252077"><ele>366.0</ele><time>2026-04-04T13:18:33.097Z</time></trkpt><trkpt lat="43.9462959" lon="10.8251182"><ele>366.0</ele><time>2026-04-04T13:18:35.098Z</time></trkpt><trkpt lat="43.9462026" lon="10.8250913"><ele>366.0</ele><time>2026-04-04T13:18:37.098Z</time></trkpt><trkpt lat="43.9461366" lon="10.8251008"><ele>366.0</ele><time>2026-04-04T13:18:38.097Z</time></trkpt><trkpt lat="43.9460727" lon="10.8251074"><ele>366.0</ele><time>2026-04-04T13:18:39.098Z</time></trkpt><trkpt lat="43.9459964" lon="10.8251568"><ele>366.0</ele><time>2026-04-04T13:18:40.097Z</time></trkpt><trkpt lat="43.9459257" lon="10.8251965"><ele>366.0</ele><time>2026-04-04T13:18:41.098Z</time></trkpt><trkpt lat="43.9458528" lon="10.8252595"><ele>366.0</ele><time>2026-04-04T13:18:42.099Z</time></trkpt><trkpt lat="43.9457954" lon="10.8253475"><ele>366.0</ele><time>2026-04-04T13:18:43.097Z</time></trkpt><trkpt lat="43.9457483" lon="10.8254406"><ele>366.0</ele><time>2026-04-04T13:18:44.097Z</time></trkpt><trkpt lat="43.945696" lon="10.8255198"><ele>366.0</ele><time>2026-04-04T13:18:45.097Z</time></trkpt><trkpt lat="43.9455926" lon="10.825593"><ele>368.20000000000005</ele><time>2026-04-04T13:18:47.099Z</time></trkpt><trkpt lat="43.9455462" lon="10.8255163"><ele>370.40000000000003</ele><time>2026-04-04T13:18:48.097Z</time></trkpt><trkpt lat="43.9454886" lon="10.8253467"><ele>372.6</ele><time>2026-04-04T13:18:50.098Z</time></trkpt><trkpt lat="43.9454605" lon="10.8252311"><ele>374.8</ele><time>2026-04-04T13:18:51.098Z</time></trkpt><trkpt lat="43.9454116" lon="10.8251196"><ele>377.0</ele><time>2026-04-04T13:18:52.098Z</time></trkpt><trkpt lat="43.9453597" lon="10.8250179"><ele>378.5</ele><time>2026-04-04T13:18:53.097Z</time></trkpt><trkpt lat="43.9453151" lon="10.8249159"><ele>380.0</ele><time>2026-04-04T13:18:54.097Z</time></trkpt><trkpt lat="43.9452699" lon="10.8248341"><ele>381.5</ele><time>2026-04-04T13:18:55.097Z</time></trkpt><trkpt lat="43.9452113" lon="10.8247682"><ele>383.0</ele><time>2026-04-04T13:18:56.097Z</time></trkpt><trkpt lat="43.9451344" lon="10.8247116"><ele>384.49999999999994</ele><time>2026-04-04T13:18:57.098Z</time></trkpt><trkpt lat="43.9450537" lon="10.8246542"><ele>386.0</ele><time>2026-04-04T13:18:58.098Z</time></trkpt><trkpt lat="43.9449671" lon="10.824594"><ele>387.16666666666663</ele><time>2026-04-04T13:18:59.098Z</time></trkpt><trkpt lat="43.9448847" lon="10.8245273"><ele>388.3333333333333</ele><time>2026-04-04T13:19:00.098Z</time></trkpt><trkpt lat="43.9447999" lon="10.8244692"><ele>389.5</ele><time>2026-04-04T13:19:01.097Z</time></trkpt><trkpt lat="43.9447088" lon="10.824457"><ele>390.66666666666663</ele><time>2026-04-04T13:19:02.097Z</time></trkpt><trkpt lat="43.9446247" lon="10.8244442"><ele>391.8333333333333</ele><time>2026-04-04T13:19:03.097Z</time></trkpt><trkpt lat="43.9445417" lon="10.8244331"><ele>393.0</ele><time>2026-04-04T13:19:04.098Z</time></trkpt><trkpt lat="43.944471" lon="10.8244135"><ele>393.0</ele><time>2026-04-04T13:19:05.098Z</time></trkpt><trkpt lat="43.9444083" lon="10.8243256"><ele>393.0</ele><time>2026-04-04T13:19:07.097Z</time></trkpt><trkpt lat="43.9443823" lon="10.8241946"><ele>393.0</ele><time>2026-04-04T13:19:09.098Z</time></trkpt><trkpt lat="43.9443236" lon="10.8241237"><ele>393.0</ele><time>2026-04-04T13:19:11.098Z</time></trkpt><trkpt lat="43.9442192" lon="10.8240825"><ele>393.0</ele><time>2026-04-04T13:19:13.098Z</time></trkpt><trkpt lat="43.9441481" lon="10.824076"><ele>393.0</ele><time>2026-04-04T13:19:14.098Z</time></trkpt><trkpt lat="43.9440729" lon="10.8241045"><ele>396.0</ele><time>2026-04-04T13:19:15.097Z</time></trkpt><trkpt lat="43.9439943" lon="10.8241244"><ele>399.0</ele><time>2026-04-04T13:19:16.097Z</time></trkpt><trkpt lat="43.9439277" lon="10.8242005"><ele>402.0</ele><time>2026-04-04T13:19:17.097Z</time></trkpt><trkpt lat="43.9438824" lon="10.8242715"><ele>405.0</ele><time>2026-04-04T13:19:18.097Z</time></trkpt><trkpt lat="43.9438383" lon="10.8243494"><ele>408.0</ele><time>2026-04-04T13:19:19.097Z</time></trkpt><trkpt lat="43.943793" lon="10.8244842"><ele>411.0</ele><time>2026-04-04T13:19:21.098Z</time></trkpt><trkpt lat="43.943698" lon="10.8245251"><ele>411.0</ele><time>2026-04-04T13:19:23.098Z</time></trkpt><trkpt lat="43.9435874" lon="10.8244958"><ele>411.0</ele><time>2026-04-04T13:19:25.098Z</time></trkpt><trkpt lat="43.9435196" lon="10.8243764"><ele>411.0</ele><time>2026-04-04T13:19:27.098Z</time></trkpt><trkpt lat="43.9435227" lon="10.824289"><ele>411.0</ele><time>2026-04-04T13:19:29.098Z</time></trkpt><trkpt lat="43.9435541" lon="10.8242043"><ele>411.0</ele><time>2026-04-04T13:19:31.098Z</time></trkpt><trkpt lat="43.9435901" lon="10.8240833"><ele>411.0</ele><time>2026-04-04T13:19:33.098Z</time></trkpt><trkpt lat="43.9436084" lon="10.8239293"><ele>412.5</ele><time>2026-04-04T13:19:35.097Z</time></trkpt><trkpt lat="43.9436435" lon="10.8237639"><ele>414.0</ele><time>2026-04-04T13:19:37.098Z</time></trkpt><trkpt lat="43.9436832" lon="10.8236836"><ele>415.5</ele><time>2026-04-04T13:19:38.097Z</time></trkpt><trkpt lat="43.9437155" lon="10.8236084"><ele>417.0</ele><time>2026-04-04T13:19:39.097Z</time></trkpt><trkpt lat="43.9437743" lon="10.8235707"><ele>418.5</ele><time>2026-04-04T13:19:40.098Z</time></trkpt><trkpt lat="43.9438403" lon="10.8235156"><ele>420.0</ele><time>2026-04-04T13:19:41.098Z</time></trkpt><trkpt lat="43.9439211" lon="10.8234407"><ele>423.1666666666667</ele><time>2026-04-04T13:19:42.098Z</time></trkpt><trkpt lat="43.944009" lon="10.8233658"><ele>426.33333333333337</ele><time>2026-04-04T13:19:43.098Z</time></trkpt><trkpt lat="43.9440766" lon="10.8232987"><ele>429.5</ele><time>2026-04-04T13:19:44.097Z</time></trkpt><trkpt lat="43.9441558" lon="10.8232457"><ele>432.6666666666667</ele><time>2026-04-04T13:19:45.098Z</time></trkpt><trkpt lat="43.9442193" lon="10.8231825"><ele>435.83333333333337</ele><time>2026-04-04T13:19:46.099Z</time></trkpt><trkpt lat="43.9442875" lon="10.8231278"><ele>439.0</ele><time>2026-04-04T13:19:47.097Z</time></trkpt><trkpt lat="43.9443707" lon="10.8231026"><ele>439.0</ele><time>2026-04-04T13:19:48.097Z</time></trkpt><trkpt lat="43.9444617" lon="10.8230764"><ele>439.0</ele><time>2026-04-04T13:19:49.098Z</time></trkpt><trkpt lat="43.944556" lon="10.8230749"><ele>439.0</ele><time>2026-04-04T13:19:50.097Z</time></trkpt><trkpt lat="43.9446783" lon="10.8230631"><ele>439.0</ele><time>2026-04-04T13:19:51.098Z</time></trkpt><trkpt lat="43.9447473" lon="10.8230409"><ele>439.0</ele><time>2026-04-04T13:19:53.097Z</time></trkpt><trkpt lat="43.944847" lon="10.8230276"><ele>439.00000000000006</ele><time>2026-04-04T13:19:55.098Z</time></trkpt><trkpt lat="43.9448651" lon="10.8229436"><ele>439.0</ele><time>2026-04-04T13:19:57.098Z</time></trkpt><trkpt lat="43.9447671" lon="10.8229449"><ele>439.0</ele><time>2026-04-04T13:19:59.097Z</time></trkpt><trkpt lat="43.9447045" lon="10.8229045"><ele>439.0</ele><time>2026-04-04T13:20:00.098Z</time></trkpt><trkpt lat="43.9446379" lon="10.8228297"><ele>439.00000000000006</ele><time>2026-04-04T13:20:02.098Z</time></trkpt><trkpt lat="43.9445499" lon="10.8227375"><ele>439.0</ele><time>2026-04-04T13:20:04.099Z</time></trkpt><trkpt lat="43.9444505" lon="10.8226465"><ele>442.33333333333337</ele><time>2026-04-04T13:20:06.098Z</time></trkpt><trkpt lat="43.944387" lon="10.8226037"><ele>445.6666666666667</ele><time>2026-04-04T13:20:07.098Z</time></trkpt><trkpt lat="43.9443248" lon="10.8225697"><ele>449.0</ele><time>2026-04-04T13:20:08.098Z</time></trkpt><trkpt lat="43.9442156" lon="10.8224994"><ele>452.33333333333337</ele><time>2026-04-04T13:20:10.097Z</time></trkpt><trkpt lat="43.9441559" lon="10.8224707"><ele>455.6666666666667</ele><time>2026-04-04T13:20:11.098Z</time></trkpt><trkpt lat="43.9440925" lon="10.8224274"><ele>459.0</ele><time>2026-04-04T13:20:12.098Z</time></trkpt><trkpt lat="43.9440339" lon="10.8223887"><ele>461.5</ele><time>2026-04-04T13:20:13.098Z</time></trkpt><trkpt lat="43.9439384" lon="10.8223365"><ele>464.0</ele><time>2026-04-04T13:20:15.098Z</time></trkpt><trkpt lat="43.9438712" lon="10.8223001"><ele>466.5</ele><time>2026-04-04T13:20:16.098Z</time></trkpt><trkpt lat="43.9437567" lon="10.8222206"><ele>469.0</ele><time>2026-04-04T13:20:18.098Z</time></trkpt><trkpt lat="43.9436915" lon="10.8221714"><ele>471.5</ele><time>2026-04-04T13:20:19.097Z</time></trkpt><trkpt lat="43.9436276" lon="10.8221254"><ele>474.0</ele><time>2026-04-04T13:20:20.098Z</time></trkpt><trkpt lat="43.9435466" lon="10.8220688"><ele>474.0</ele><time>2026-04-04T13:20:22.097Z</time></trkpt><trkpt lat="43.9435222" lon="10.8219618"><ele>474.0</ele><time>2026-04-04T13:20:26.098Z</time></trkpt><trkpt lat="43.9435333" lon="10.8218177"><ele>474.0</ele><time>2026-04-04T13:20:29.097Z</time></trkpt><trkpt lat="43.94349" lon="10.8217429"><ele>474.0</ele><time>2026-04-04T13:21:15.097Z</time></trkpt><trkpt lat="43.9434635" lon="10.8216521"><ele>474.0</ele><time>2026-04-04T13:22:06.098Z</time></trkpt><trkpt lat="43.943391" lon="10.8216566"><ele>474.0</ele><time>2026-04-04T13:22:37.097Z</time></trkpt><trkpt lat="43.943331" lon="10.8215638"><ele>479.0</ele><time>2026-04-04T13:22:44.097Z</time></trkpt><trkpt lat="43.9432699" lon="10.8215372"><ele>484.0</ele><time>2026-04-04T13:22:46.098Z</time></trkpt><trkpt lat="43.9431985" lon="10.8215473"><ele>489.0</ele><time>2026-04-04T13:22:48.098Z</time></trkpt><trkpt lat="43.9430819" lon="10.8215336"><ele>494.0</ele><time>2026-04-04T13:22:50.098Z</time></trkpt><trkpt lat="43.9429423" lon="10.8215397"><ele>499.0</ele><time>2026-04-04T13:22:52.098Z</time></trkpt><trkpt lat="43.9428764" lon="10.8215352"><ele>499.00000000000006</ele><time>2026-04-04T13:22:53.097Z</time></trkpt><trkpt lat="43.942806" lon="10.8215275"><ele>499.0</ele><time>2026-04-04T13:22:54.097Z</time></trkpt><trkpt lat="43.9427351" lon="10.8215116"><ele>499.0</ele><time>2026-04-04T13:22:55.098Z</time></trkpt><trkpt lat="43.9426697" lon="10.8215017"><ele>499.0</ele><time>2026-04-04T13:22:56.099Z</time></trkpt><trkpt lat="43.9426075" lon="10.8214751"><ele>499.00000000000006</ele><time>2026-04-04T13:22:57.099Z</time></trkpt><trkpt lat="43.9425251" lon="10.821367"><ele>499.0</ele><time>2026-04-04T13:22:59.098Z</time></trkpt><trkpt lat="43.9424728" lon="10.8213086"><ele>498.6666666666667</ele><time>2026-04-04T13:23:00.098Z</time></trkpt><trkpt lat="43.9424273" lon="10.8212377"><ele>498.33333333333337</ele><time>2026-04-04T13:23:01.098Z</time></trkpt><trkpt lat="43.9423802" lon="10.821166"><ele>498.0</ele><time>2026-04-04T13:23:02.098Z</time></trkpt><trkpt lat="43.9423148" lon="10.8210889"><ele>497.66666666666663</ele><time>2026-04-04T13:23:03.098Z</time></trkpt><trkpt lat="43.942255" lon="10.8210143"><ele>497.3333333333333</ele><time>2026-04-04T13:23:04.098Z</time></trkpt><trkpt lat="43.9421986" lon="10.8209401"><ele>497.0</ele><time>2026-04-04T13:23:05.098Z</time></trkpt><trkpt lat="43.942152" lon="10.8208511"><ele>501.16666666666663</ele><time>2026-04-04T13:23:06.098Z</time></trkpt><trkpt lat="43.9420669" lon="10.8207497"><ele>505.3333333333333</ele><time>2026-04-04T13:23:08.097Z</time></trkpt><trkpt lat="43.9420167" lon="10.8206782"><ele>509.5</ele><time>2026-04-04T13:23:10.098Z</time></trkpt><trkpt lat="43.9419611" lon="10.8206244"><ele>513.6666666666666</ele><time>2026-04-04T13:23:13.097Z</time></trkpt><trkpt lat="43.9419027" lon="10.8205642"><ele>517.8333333333334</ele><time>2026-04-04T13:23:17.098Z</time></trkpt><trkpt lat="43.9418378" lon="10.8204658"><ele>522.0</ele><time>2026-04-04T13:23:19.098Z</time></trkpt><trkpt lat="43.9417317" lon="10.82038"><ele>521.8000000000001</ele><time>2026-04-04T13:23:21.097Z</time></trkpt><trkpt lat="43.9416644" lon="10.8203462"><ele>521.6</ele><time>2026-04-04T13:23:22.098Z</time></trkpt><trkpt lat="43.9415711" lon="10.8203032"><ele>521.4000000000001</ele><time>2026-04-04T13:23:24.097Z</time></trkpt><trkpt lat="43.9415254" lon="10.8203777"><ele>521.2</ele><time>2026-04-04T13:23:26.098Z</time></trkpt><trkpt lat="43.9414772" lon="10.8205124"><ele>521.0</ele><time>2026-04-04T13:23:28.097Z</time></trkpt><trkpt lat="43.9414643" lon="10.8206515"><ele>521.0</ele><time>2026-04-04T13:23:29.098Z</time></trkpt><trkpt lat="43.941481" lon="10.8207777"><ele>521.0</ele><time>2026-04-04T13:23:31.098Z</time></trkpt><trkpt lat="43.9414824" lon="10.8209132"><ele>521.0</ele><time>2026-04-04T13:23:33.098Z</time></trkpt><trkpt lat="43.941408" lon="10.8210434"><ele>521.0</ele><time>2026-04-04T13:23:35.099Z</time></trkpt><trkpt lat="43.9413575" lon="10.8211162"><ele>521.0</ele><time>2026-04-04T13:23:36.097Z</time></trkpt><trkpt lat="43.9413287" lon="10.8212014"><ele>518.3333333333333</ele><time>2026-04-04T13:23:37.098Z</time></trkpt><trkpt lat="43.9412193" lon="10.8212846"><ele>515.6666666666666</ele><time>2026-04-04T13:23:39.098Z</time></trkpt><trkpt lat="43.9411467" lon="10.821286"><ele>513.0</ele><time>2026-04-04T13:23:40.099Z</time></trkpt><trkpt lat="43.9410771" lon="10.8213183"><ele>510.33333333333337</ele><time>2026-04-04T13:23:41.097Z</time></trkpt><trkpt lat="43.9410109" lon="10.821333"><ele>507.6666666666667</ele><time>2026-04-04T13:23:42.098Z</time></trkpt><trkpt lat="43.9409448" lon="10.8213152"><ele>505.0</ele><time>2026-04-04T13:23:43.098Z</time></trkpt><trkpt lat="43.9409076" lon="10.8212407"><ele>507.50000000000006</ele><time>2026-04-04T13:23:44.097Z</time></trkpt><trkpt lat="43.9408482" lon="10.8211977"><ele>510.0</ele><time>2026-04-04T13:23:45.098Z</time></trkpt><trkpt lat="43.9407858" lon="10.8211379"><ele>512.5</ele><time>2026-04-04T13:23:46.097Z</time></trkpt><trkpt lat="43.9407027" lon="10.8210248"><ele>515.0</ele><time>2026-04-04T13:23:48.098Z</time></trkpt><trkpt lat="43.9405977" lon="10.821084"><ele>517.5</ele><time>2026-04-04T13:23:50.098Z</time></trkpt><trkpt lat="43.940528" lon="10.8210851"><ele>520.0</ele><time>2026-04-04T13:23:51.098Z</time></trkpt><trkpt lat="43.9404637" lon="10.8210929"><ele>520.0</ele><time>2026-04-04T13:23:52.097Z</time></trkpt><trkpt lat="43.9403452" lon="10.8210853"><ele>520.0</ele><time>2026-04-04T13:23:54.098Z</time></trkpt><trkpt lat="43.9402505" lon="10.820995"><ele>520.0</ele><time>2026-04-04T13:23:56.097Z</time></trkpt><trkpt lat="43.9401799" lon="10.8209457"><ele>520.0</ele><time>2026-04-04T13:23:57.098Z</time></trkpt><trkpt lat="43.9401076" lon="10.8209099"><ele>520.0</ele><time>2026-04-04T13:23:58.098Z</time></trkpt><trkpt lat="43.9400432" lon="10.8208654"><ele>524.1666666666667</ele><time>2026-04-04T13:23:59.098Z</time></trkpt><trkpt lat="43.9399748" lon="10.820805"><ele>528.3333333333334</ele><time>2026-04-04T13:24:00.097Z</time></trkpt><trkpt lat="43.9399079" lon="10.8207579"><ele>532.5</ele><time>2026-04-04T13:24:01.098Z</time></trkpt><trkpt lat="43.9398335" lon="10.820707"><ele>536.6666666666666</ele><time>2026-04-04T13:24:02.098Z</time></trkpt><trkpt lat="43.9397548" lon="10.8206487"><ele>540.8333333333333</ele><time>2026-04-04T13:24:03.097Z</time></trkpt><trkpt lat="43.939682" lon="10.8205852"><ele>545.0</ele><time>2026-04-04T13:24:04.098Z</time></trkpt><trkpt lat="43.9395923" lon="10.8205325"><ele>545.0</ele><time>2026-04-04T13:24:05.098Z</time></trkpt><trkpt lat="43.9395108" lon="10.8204745"><ele>545.0</ele><time>2026-04-04T13:24:06.097Z</time></trkpt><trkpt lat="43.9394143" lon="10.8203992"><ele>545.0</ele><time>2026-04-04T13:24:08.097Z</time></trkpt><trkpt lat="43.9393497" lon="10.8203102"><ele>545.0</ele><time>2026-04-04T13:24:10.098Z</time></trkpt><trkpt lat="43.9392863" lon="10.8202348"><ele>545.0</ele><time>2026-04-04T13:24:11.097Z</time></trkpt><trkpt lat="43.939233" lon="10.8201816"><ele>545.0</ele><time>2026-04-04T13:24:12.098Z</time></trkpt><trkpt lat="43.9391447" lon="10.82016"><ele>547.2</ele><time>2026-04-04T13:24:14.097Z</time></trkpt><trkpt lat="43.9391305" lon="10.8203851"><ele>549.4</ele><time>2026-04-04T13:24:17.097Z</time></trkpt><trkpt lat="43.939105" lon="10.8204832"><ele>551.6</ele><time>2026-04-04T13:24:19.098Z</time></trkpt><trkpt lat="43.9390497" lon="10.8205352"><ele>553.8</ele><time>2026-04-04T13:24:21.098Z</time></trkpt><trkpt lat="43.9390006" lon="10.8204243"><ele>556.0</ele><time>2026-04-04T13:24:22.097Z</time></trkpt><trkpt lat="43.9389633" lon="10.8203253"><ele>556.0</ele><time>2026-04-04T13:24:23.098Z</time></trkpt><trkpt lat="43.9389241" lon="10.8202279"><ele>556.0</ele><time>2026-04-04T13:24:24.097Z</time></trkpt><trkpt lat="43.9388895" lon="10.8201192"><ele>556.0</ele><time>2026-04-04T13:24:25.097Z</time></trkpt><trkpt lat="43.9388675" lon="10.8200053"><ele>556.0</ele><time>2026-04-04T13:24:26.098Z</time></trkpt><trkpt lat="43.9388514" lon="10.8198765"><ele>556.0</ele><time>2026-04-04T13:24:27.098Z</time></trkpt><trkpt lat="43.9388377" lon="10.8197356"><ele>556.0</ele><time>2026-04-04T13:24:28.098Z</time></trkpt><trkpt lat="43.9388302" lon="10.819591"><ele>556.2</ele><time>2026-04-04T13:24:29.097Z</time></trkpt><trkpt lat="43.9388249" lon="10.8194454"><ele>556.4000000000001</ele><time>2026-04-04T13:24:30.097Z</time></trkpt><trkpt lat="43.9388233" lon="10.8193031"><ele>556.6</ele><time>2026-04-04T13:24:31.098Z</time></trkpt><trkpt lat="43.9388196" lon="10.8191594"><ele>556.8000000000001</ele><time>2026-04-04T13:24:32.098Z</time></trkpt><trkpt lat="43.9388161" lon="10.8190216"><ele>557.0</ele><time>2026-04-04T13:24:33.097Z</time></trkpt><trkpt lat="43.9388177" lon="10.8188955"><ele>557.6666666666666</ele><time>2026-04-04T13:24:34.098Z</time></trkpt><trkpt lat="43.9388199" lon="10.8187889"><ele>558.3333333333333</ele><time>2026-04-04T13:24:35.097Z</time></trkpt><trkpt lat="43.9388227" lon="10.8186237"><ele>559.0</ele><time>2026-04-04T13:24:37.097Z</time></trkpt><trkpt lat="43.9387574" lon="10.8185036"><ele>559.6666666666666</ele><time>2026-04-04T13:24:39.097Z</time></trkpt><trkpt lat="43.9387056" lon="10.8184521"><ele>560.3333333333334</ele><time>2026-04-04T13:24:40.098Z</time></trkpt><trkpt lat="43.9386449" lon="10.818423"><ele>561.0</ele><time>2026-04-04T13:24:41.098Z</time></trkpt><trkpt lat="43.9385369" lon="10.8184692"><ele>561.0</ele><time>2026-04-04T13:24:43.097Z</time></trkpt><trkpt lat="43.9384783" lon="10.8185314"><ele>561.0</ele><time>2026-04-04T13:24:44.097Z</time></trkpt><trkpt lat="43.9384152" lon="10.8186027"><ele>561.0</ele><time>2026-04-04T13:24:45.098Z</time></trkpt><trkpt lat="43.9383479" lon="10.8186675"><ele>561.0</ele><time>2026-04-04T13:24:46.098Z</time></trkpt><trkpt lat="43.9382747" lon="10.8187351"><ele>561.0</ele><time>2026-04-04T13:24:47.098Z</time></trkpt><trkpt lat="43.9381984" lon="10.8187986"><ele>561.0</ele><time>2026-04-04T13:24:48.097Z</time></trkpt><trkpt lat="43.9381177" lon="10.818862"><ele>560.8</ele><time>2026-04-04T13:24:49.098Z</time></trkpt><trkpt lat="43.9380364" lon="10.8189235"><ele>560.6</ele><time>2026-04-04T13:24:50.097Z</time></trkpt><trkpt lat="43.9379544" lon="10.8190005"><ele>560.4</ele><time>2026-04-04T13:24:51.097Z</time></trkpt><trkpt lat="43.9378743" lon="10.8190827"><ele>560.2</ele><time>2026-04-04T13:24:52.098Z</time></trkpt><trkpt lat="43.9377942" lon="10.8191715"><ele>560.0</ele><time>2026-04-04T13:24:53.098Z</time></trkpt><trkpt lat="43.9377039" lon="10.8192683"><ele>561.0</ele><time>2026-04-04T13:24:54.098Z</time></trkpt><trkpt lat="43.937613" lon="10.8193729"><ele>562.0</ele><time>2026-04-04T13:24:55.097Z</time></trkpt><trkpt lat="43.9375203" lon="10.8194753"><ele>563.0</ele><time>2026-04-04T13:24:56.098Z</time></trkpt><trkpt lat="43.9374245" lon="10.8195578"><ele>564.0</ele><time>2026-04-04T13:24:57.097Z</time></trkpt><trkpt lat="43.9373294" lon="10.8196464"><ele>564.25</ele><time>2026-04-04T13:24:58.098Z</time></trkpt><trkpt lat="43.937217" lon="10.8197233"><ele>564.5</ele><time>2026-04-04T13:24:59.098Z</time></trkpt><trkpt lat="43.9371079" lon="10.8198055"><ele>564.75</ele><time>2026-04-04T13:25:00.098Z</time></trkpt><trkpt lat="43.936997" lon="10.8198879"><ele>565.0</ele><time>2026-04-04T13:25:01.097Z</time></trkpt><trkpt lat="43.9368814" lon="10.8199752"><ele>565.0</ele><time>2026-04-04T13:25:02.097Z</time></trkpt><trkpt lat="43.9367715" lon="10.8200577"><ele>565.0</ele><time>2026-04-04T13:25:03.098Z</time></trkpt><trkpt lat="43.936666" lon="10.8201307"><ele>565.0</ele><time>2026-04-04T13:25:04.098Z</time></trkpt><trkpt lat="43.9365698" lon="10.820203"><ele>565.0</ele><time>2026-04-04T13:25:05.097Z</time></trkpt><trkpt lat="43.9364862" lon="10.820281"><ele>564.8</ele><time>2026-04-04T13:25:06.099Z</time></trkpt><trkpt lat="43.9364065" lon="10.8203741"><ele>564.6</ele><time>2026-04-04T13:25:07.098Z</time></trkpt><trkpt lat="43.9363348" lon="10.8204729"><ele>564.4</ele><time>2026-04-04T13:25:08.098Z</time></trkpt><trkpt lat="43.9362725" lon="10.8205842"><ele>564.2</ele><time>2026-04-04T13:25:09.099Z</time></trkpt><trkpt lat="43.9362143" lon="10.820706"><ele>564.0</ele><time>2026-04-04T13:25:10.097Z</time></trkpt><trkpt lat="43.9361508" lon="10.8208292"><ele>564.0</ele><time>2026-04-04T13:25:11.097Z</time></trkpt><trkpt lat="43.9360788" lon="10.8209531"><ele>564.0</ele><time>2026-04-04T13:25:12.098Z</time></trkpt><trkpt lat="43.9360081" lon="10.8210813"><ele>564.0</ele><time>2026-04-04T13:25:13.098Z</time></trkpt><trkpt lat="43.9359401" lon="10.8212107"><ele>564.0</ele><time>2026-04-04T13:25:14.098Z</time></trkpt><trkpt lat="43.9358717" lon="10.821333"><ele>562.0</ele><time>2026-04-04T13:25:15.098Z</time></trkpt><trkpt lat="43.9358069" lon="10.8214559"><ele>560.0</ele><time>2026-04-04T13:25:16.098Z</time></trkpt><trkpt lat="43.9357588" lon="10.8215848"><ele>558.0</ele><time>2026-04-04T13:25:17.097Z</time></trkpt><trkpt lat="43.9357284" lon="10.8217294"><ele>556.0</ele><time>2026-04-04T13:25:18.098Z</time></trkpt><trkpt lat="43.9357072" lon="10.8218805"><ele>554.0</ele><time>2026-04-04T13:25:19.098Z</time></trkpt><trkpt lat="43.9356931" lon="10.822046"><ele>553.0</ele><time>2026-04-04T13:25:20.097Z</time></trkpt><trkpt lat="43.9356821" lon="10.8222151"><ele>552.0</ele><time>2026-04-04T13:25:21.098Z</time></trkpt><trkpt lat="43.9356709" lon="10.8223942"><ele>551.0</ele><time>2026-04-04T13:25:22.097Z</time></trkpt><trkpt lat="43.9356616" lon="10.8225703"><ele>550.0</ele><time>2026-04-04T13:25:23.097Z</time></trkpt><trkpt lat="43.9356484" lon="10.8227425"><ele>550.0</ele><time>2026-04-04T13:25:24.098Z</time></trkpt><trkpt lat="43.9356247" lon="10.8229127"><ele>550.0</ele><time>2026-04-04T13:25:25.098Z</time></trkpt><trkpt lat="43.9355824" lon="10.823074"><ele>550.0</ele><time>2026-04-04T13:25:26.098Z</time></trkpt><trkpt lat="43.9355276" lon="10.823228"><ele>550.0</ele><time>2026-04-04T13:25:27.098Z</time></trkpt><trkpt lat="43.9354735" lon="10.8233576"><ele>550.0</ele><time>2026-04-04T13:25:28.098Z</time></trkpt><trkpt lat="43.9354278" lon="10.8234647"><ele>550.0</ele><time>2026-04-04T13:25:29.098Z</time></trkpt><trkpt lat="43.9353771" lon="10.8235457"><ele>550.0</ele><time>2026-04-04T13:25:30.098Z</time></trkpt><trkpt lat="43.9353358" lon="10.823618"><ele>550.0</ele><time>2026-04-04T13:25:31.097Z</time></trkpt><trkpt lat="43.9352658" lon="10.8236376"><ele>550.0</ele><time>2026-04-04T13:25:32.098Z</time></trkpt><trkpt lat="43.9351882" lon="10.8236526"><ele>550.0</ele><time>2026-04-04T13:25:33.098Z</time></trkpt><trkpt lat="43.9351042" lon="10.8236536"><ele>550.0</ele><time>2026-04-04T13:25:34.098Z</time></trkpt><trkpt lat="43.9350269" lon="10.823644"><ele>550.0</ele><time>2026-04-04T13:25:35.098Z</time></trkpt><trkpt lat="43.9349446" lon="10.8236252"><ele>550.0</ele><time>2026-04-04T13:25:36.097Z</time></trkpt><trkpt lat="43.9348494" lon="10.8235972"><ele>550.0</ele><time>2026-04-04T13:25:37.097Z</time></trkpt><trkpt lat="43.9347503" lon="10.8235661"><ele>550.0</ele><time>2026-04-04T13:25:38.098Z</time></trkpt><trkpt lat="43.9346512" lon="10.823531"><ele>550.0</ele><time>2026-04-04T13:25:39.099Z</time></trkpt><trkpt lat="43.9345538" lon="10.8234988"><ele>550.0</ele><time>2026-04-04T13:25:40.097Z</time></trkpt><trkpt lat="43.9344566" lon="10.8234527"><ele>550.0</ele><time>2026-04-04T13:25:41.097Z</time></trkpt><trkpt lat="43.9343703" lon="10.8234194"><ele>550.0</ele><time>2026-04-04T13:25:42.096Z</time></trkpt><trkpt lat="43.9342871" lon="10.8233933"><ele>550.0</ele><time>2026-04-04T13:25:43.096Z</time></trkpt><trkpt lat="43.934207" lon="10.8233911"><ele>549.3333333333334</ele><time>2026-04-04T13:25:44.097Z</time></trkpt><trkpt lat="43.9341214" lon="10.8234061"><ele>548.6666666666667</ele><time>2026-04-04T13:25:45.096Z</time></trkpt><trkpt lat="43.9340332" lon="10.8234218"><ele>548.0</ele><time>2026-04-04T13:25:46.096Z</time></trkpt><trkpt lat="43.9339488" lon="10.8234444"><ele>547.3333333333334</ele><time>2026-04-04T13:25:47.096Z</time></trkpt><trkpt lat="43.9338573" lon="10.8234247"><ele>546.6666666666666</ele><time>2026-04-04T13:25:48.098Z</time></trkpt><trkpt lat="43.9337716" lon="10.8234018"><ele>546.0</ele><time>2026-04-04T13:25:49.096Z</time></trkpt><trkpt lat="43.9336829" lon="10.8233811"><ele>546.0</ele><time>2026-04-04T13:25:50.096Z</time></trkpt><trkpt lat="43.9335937" lon="10.8233595"><ele>546.0</ele><time>2026-04-04T13:25:51.097Z</time></trkpt><trkpt lat="43.9335138" lon="10.8233159"><ele>546.0</ele><time>2026-04-04T13:25:52.096Z</time></trkpt><trkpt lat="43.9334194" lon="10.823281"><ele>546.0</ele><time>2026-04-04T13:25:53.097Z</time></trkpt><trkpt lat="43.933322" lon="10.8232434"><ele>546.0</ele><time>2026-04-04T13:25:54.098Z</time></trkpt><trkpt lat="43.9332248" lon="10.8232489"><ele>546.6</ele><time>2026-04-04T13:25:55.097Z</time></trkpt><trkpt lat="43.9331264" lon="10.8232787"><ele>547.2</ele><time>2026-04-04T13:25:56.096Z</time></trkpt><trkpt lat="43.9330279" lon="10.8232816"><ele>547.8</ele><time>2026-04-04T13:25:57.096Z</time></trkpt><trkpt lat="43.9329176" lon="10.8233017"><ele>548.4</ele><time>2026-04-04T13:25:58.096Z</time></trkpt><trkpt lat="43.9328114" lon="10.8233146"><ele>549.0</ele><time>2026-04-04T13:25:59.096Z</time></trkpt><trkpt lat="43.9327042" lon="10.8232934"><ele>549.0</ele><time>2026-04-04T13:26:00.097Z</time></trkpt><trkpt lat="43.9326028" lon="10.8232972"><ele>549.0</ele><time>2026-04-04T13:26:01.097Z</time></trkpt><trkpt lat="43.9324957" lon="10.8232762"><ele>549.0</ele><time>2026-04-04T13:26:02.097Z</time></trkpt><trkpt lat="43.932386" lon="10.823191"><ele>549.0</ele><time>2026-04-04T13:26:03.097Z</time></trkpt><trkpt lat="43.9322856" lon="10.8231775"><ele>549.0</ele><time>2026-04-04T13:26:04.097Z</time></trkpt><trkpt lat="43.9321852" lon="10.8231537"><ele>549.4</ele><time>2026-04-04T13:26:05.096Z</time></trkpt><trkpt lat="43.9320854" lon="10.8231497"><ele>549.8</ele><time>2026-04-04T13:26:06.096Z</time></trkpt><trkpt lat="43.9319846" lon="10.8231942"><ele>550.2</ele><time>2026-04-04T13:26:07.097Z</time></trkpt><trkpt lat="43.931884" lon="10.8232338"><ele>550.6</ele><time>2026-04-04T13:26:08.096Z</time></trkpt><trkpt lat="43.9317928" lon="10.823268"><ele>551.0</ele><time>2026-04-04T13:26:09.097Z</time></trkpt><trkpt lat="43.9317146" lon="10.8232647"><ele>550.0</ele><time>2026-04-04T13:26:10.097Z</time></trkpt><trkpt lat="43.9316428" lon="10.8232788"><ele>549.0</ele><time>2026-04-04T13:26:11.097Z</time></trkpt><trkpt lat="43.9315824" lon="10.8233161"><ele>548.0</ele><time>2026-04-04T13:26:12.097Z</time></trkpt><trkpt lat="43.9315312" lon="10.8233934"><ele>547.0</ele><time>2026-04-04T13:26:13.097Z</time></trkpt><trkpt lat="43.9314824" lon="10.8235123"><ele>546.0</ele><time>2026-04-04T13:26:14.096Z</time></trkpt><trkpt lat="43.931438" lon="10.8236352"><ele>545.0</ele><time>2026-04-04T13:26:15.096Z</time></trkpt><trkpt lat="43.9313898" lon="10.823736"><ele>548.0</ele><time>2026-04-04T13:26:16.096Z</time></trkpt><trkpt lat="43.9313319" lon="10.8238061"><ele>551.0</ele><time>2026-04-04T13:26:17.096Z</time></trkpt><trkpt lat="43.9312121" lon="10.8238665"><ele>554.0</ele><time>2026-04-04T13:26:19.097Z</time></trkpt><trkpt lat="43.9311543" lon="10.8237893"><ele>557.0</ele><time>2026-04-04T13:26:20.097Z</time></trkpt><trkpt lat="43.9310861" lon="10.8237753"><ele>560.0</ele><time>2026-04-04T13:26:21.097Z</time></trkpt><trkpt lat="43.930945" lon="10.8237584"><ele>558.5</ele><time>2026-04-04T13:26:23.097Z</time></trkpt><trkpt lat="43.9308782" lon="10.8236777"><ele>557.0</ele><time>2026-04-04T13:26:24.097Z</time></trkpt><trkpt lat="43.9308084" lon="10.8235658"><ele>555.5</ele><time>2026-04-04T13:26:25.096Z</time></trkpt><trkpt lat="43.9307454" lon="10.8234522"><ele>554.0</ele><time>2026-04-04T13:26:26.096Z</time></trkpt><trkpt lat="43.9306941" lon="10.8233745"><ele>552.5</ele><time>2026-04-04T13:26:27.097Z</time></trkpt><trkpt lat="43.9306415" lon="10.8233117"><ele>551.0</ele><time>2026-04-04T13:26:28.097Z</time></trkpt><trkpt lat="43.9305597" lon="10.8232891"><ele>551.0</ele><time>2026-04-04T13:26:29.097Z</time></trkpt><trkpt lat="43.9304686" lon="10.8233351"><ele>551.0</ele><time>2026-04-04T13:26:30.096Z</time></trkpt><trkpt lat="43.9304004" lon="10.8233417"><ele>551.0</ele><time>2026-04-04T13:26:31.098Z</time></trkpt><trkpt lat="43.9303341" lon="10.8233811"><ele>551.0</ele><time>2026-04-04T13:26:32.097Z</time></trkpt><trkpt lat="43.9302218" lon="10.8234269"><ele>551.0</ele><time>2026-04-04T13:26:34.096Z</time></trkpt><trkpt lat="43.9301179" lon="10.8235025"><ele>551.0</ele><time>2026-04-04T13:26:36.097Z</time></trkpt><trkpt lat="43.9300594" lon="10.8235614"><ele>551.0</ele><time>2026-04-04T13:26:37.096Z</time></trkpt><trkpt lat="43.9299984" lon="10.8236092"><ele>551.0</ele><time>2026-04-04T13:26:38.097Z</time></trkpt><trkpt lat="43.9299349" lon="10.8236512"><ele>551.0</ele><time>2026-04-04T13:26:39.097Z</time></trkpt><trkpt lat="43.9298638" lon="10.8237057"><ele>551.0</ele><time>2026-04-04T13:26:40.097Z</time></trkpt><trkpt lat="43.9297702" lon="10.8238236"><ele>551.0</ele><time>2026-04-04T13:26:42.096Z</time></trkpt><trkpt lat="43.9297199" lon="10.8239028"><ele>545.0</ele><time>2026-04-04T13:26:43.097Z</time></trkpt><trkpt lat="43.9315312" lon="10.8233934"><ele>548.0</ele><time>2026-04-04T13:26:13.097Z</time></trkpt><trkpt lat="43.9314824" lon="10.8235123"><ele>551.0</ele><time>2026-04-04T13:26:14.096Z</time></trkpt><trkpt lat="43.931438" lon="10.8236352"><ele>554.0</ele><time>2026-04-04T13:26:15.096Z</time></trkpt><trkpt lat="43.9313898" lon="10.823736"><ele>557.0</ele><time>2026-04-04T13:26:16.096Z</time></trkpt><trkpt lat="43.9313319" lon="10.8238061"><ele>560.0</ele><time>2026-04-04T13:26:17.096Z</time></trkpt><trkpt lat="43.9312121" lon="10.8238665"><ele>560.0</ele><time>2026-04-04T13:26:19.097Z</time></trkpt><trkpt lat="43.9311543" lon="10.8237893"><ele>560.0</ele><time>2026-04-04T13:26:20.097Z</time></trkpt><trkpt lat="43.9310861" lon="10.8237753"><ele>560.0</ele><time>2026-04-04T13:26:21.097Z</time></trkpt><trkpt lat="43.930945" lon="10.8237584"><ele>560.0</ele><time>2026-04-04T13:26:23.097Z</time></trkpt><trkpt lat="43.9308782" lon="10.8236777"><ele>560.0</ele><time>2026-04-04T13:26:24.097Z</time></trkpt><trkpt lat="43.9308084" lon="10.8235658"><ele>557.0</ele><time>2026-04-04T13:26:25.096Z</time></trkpt><trkpt lat="43.9307454" lon="10.8234522"><ele>554.0</ele><time>2026-04-04T13:26:26.096Z</time></trkpt><trkpt lat="43.9306941" lon="10.8233745"><ele>551.0</ele><time>2026-04-04T13:26:27.097Z</time></trkpt><trkpt lat="43.9306415" lon="10.8233117"><ele>548.0</ele><time>2026-04-04T13:26:28.097Z</time></trkpt><trkpt lat="43.9305597" lon="10.8232891"><ele>545.0</ele><time>2026-04-04T13:26:29.097Z</time></trkpt><trkpt lat="43.9304686" lon="10.8233351"><ele>542.0</ele><time>2026-04-04T13:26:30.096Z</time></trkpt><trkpt lat="43.9304004" lon="10.8233417"><ele>542.0</ele><time>2026-04-04T13:26:31.098Z</time></trkpt><trkpt lat="43.9303341" lon="10.8233811"><ele>542.0</ele><time>2026-04-04T13:26:32.097Z</time></trkpt><trkpt lat="43.9302218" lon="10.8234269"><ele>542.0</ele><time>2026-04-04T13:26:34.096Z</time></trkpt><trkpt lat="43.9301179" lon="10.8235025"><ele>542.0</ele><time>2026-04-04T13:26:36.097Z</time></trkpt><trkpt lat="43.9300594" lon="10.8235614"><ele>542.0</ele><time>2026-04-04T13:26:37.096Z</time></trkpt><trkpt lat="43.9299984" lon="10.8236092"><ele>542.0</ele><time>2026-04-04T13:26:38.097Z</time></trkpt><trkpt lat="43.9299349" lon="10.8236512"><ele>541.8333333333333</ele><time>2026-04-04T13:26:39.097Z</time></trkpt><trkpt lat="43.9298638" lon="10.8237057"><ele>541.6666666666666</ele><time>2026-04-04T13:26:40.097Z</time></trkpt><trkpt lat="43.9297702" lon="10.8238236"><ele>541.5</ele><time>2026-04-04T13:26:42.096Z</time></trkpt><trkpt lat="43.9297199" lon="10.8239028"><ele>541.3333333333334</ele><time>2026-04-04T13:26:43.097Z</time></trkpt><trkpt lat="43.9296872" lon="10.8239839"><ele>541.1666666666667</ele><time>2026-04-04T13:26:44.097Z</time></trkpt><trkpt lat="43.9296604" lon="10.8240877"><ele>541.0</ele><time>2026-04-04T13:26:45.097Z</time></trkpt><trkpt lat="43.9296746" lon="10.8242033"><ele>541.0</ele><time>2026-04-04T13:26:46.096Z</time></trkpt><trkpt lat="43.9296525" lon="10.8242955"><ele>541.0</ele><time>2026-04-04T13:26:47.097Z</time></trkpt><trkpt lat="43.9296188" lon="10.8243845"><ele>541.0</ele><time>2026-04-04T13:26:48.097Z</time></trkpt><trkpt lat="43.9295515" lon="10.8244446"><ele>541.0</ele><time>2026-04-04T13:26:49.097Z</time></trkpt><trkpt lat="43.929477" lon="10.8245018"><ele>541.0</ele><time>2026-04-04T13:26:50.097Z</time></trkpt><trkpt lat="43.9293918" lon="10.8245253"><ele>541.0</ele><time>2026-04-04T13:26:51.096Z</time></trkpt><trkpt lat="43.9293016" lon="10.8244861"><ele>540.0</ele><time>2026-04-04T13:26:52.097Z</time></trkpt><trkpt lat="43.9292142" lon="10.8244916"><ele>539.0</ele><time>2026-04-04T13:26:53.097Z</time></trkpt><trkpt lat="43.9291435" lon="10.8245005"><ele>538.0</ele><time>2026-04-04T13:26:54.097Z</time></trkpt><trkpt lat="43.9290774" lon="10.8245473"><ele>537.0</ele><time>2026-04-04T13:26:55.097Z</time></trkpt><trkpt lat="43.928988" lon="10.8246805"><ele>536.0</ele><time>2026-04-04T13:26:57.097Z</time></trkpt><trkpt lat="43.9289322" lon="10.8247287"><ele>535.0</ele><time>2026-04-04T13:26:58.096Z</time></trkpt><trkpt lat="43.9288308" lon="10.8247875"><ele>535.0</ele><time>2026-04-04T13:26:59.096Z</time></trkpt><trkpt lat="43.9287397" lon="10.8248368"><ele>535.0</ele><time>2026-04-04T13:27:00.096Z</time></trkpt><trkpt lat="43.9286295" lon="10.8248599"><ele>535.0</ele><time>2026-04-04T13:27:01.097Z</time></trkpt><trkpt lat="43.9285178" lon="10.8249191"><ele>535.0</ele><time>2026-04-04T13:27:02.096Z</time></trkpt><trkpt lat="43.9284258" lon="10.8249713"><ele>535.0</ele><time>2026-04-04T13:27:03.097Z</time></trkpt><trkpt lat="43.9283442" lon="10.8249929"><ele>533.4</ele><time>2026-04-04T13:27:04.097Z</time></trkpt><trkpt lat="43.9282752" lon="10.8249234"><ele>531.8</ele><time>2026-04-04T13:27:07.096Z</time></trkpt><trkpt lat="43.9282347" lon="10.8248445"><ele>530.2</ele><time>2026-04-04T13:27:08.097Z</time></trkpt><trkpt lat="43.9281314" lon="10.8248461"><ele>528.6</ele><time>2026-04-04T13:27:10.098Z</time></trkpt><trkpt lat="43.9280903" lon="10.8250006"><ele>527.0</ele><time>2026-04-04T13:27:12.097Z</time></trkpt><trkpt lat="43.9280301" lon="10.8251257"><ele>527.4</ele><time>2026-04-04T13:27:14.097Z</time></trkpt><trkpt lat="43.9279199" lon="10.8252077"><ele>527.8000000000001</ele><time>2026-04-04T13:27:16.096Z</time></trkpt><trkpt lat="43.9278646" lon="10.8252527"><ele>528.2</ele><time>2026-04-04T13:27:17.097Z</time></trkpt><trkpt lat="43.9278151" lon="10.8253705"><ele>528.6</ele><time>2026-04-04T13:27:19.097Z</time></trkpt><trkpt lat="43.9277923" lon="10.8255541"><ele>529.0</ele><time>2026-04-04T13:27:21.097Z</time></trkpt><trkpt lat="43.9278201" lon="10.8256722"><ele>529.0</ele><time>2026-04-04T13:27:22.096Z</time></trkpt><trkpt lat="43.9278306" lon="10.8257768"><ele>529.0</ele><time>2026-04-04T13:27:23.097Z</time></trkpt><trkpt lat="43.9278464" lon="10.8258854"><ele>529.0</ele><time>2026-04-04T13:27:24.097Z</time></trkpt><trkpt lat="43.9278726" lon="10.8259767"><ele>529.0</ele><time>2026-04-04T13:27:25.098Z</time></trkpt><trkpt lat="43.9279204" lon="10.8260443"><ele>529.0</ele><time>2026-04-04T13:27:26.097Z</time></trkpt><trkpt lat="43.9279333" lon="10.8261333"><ele>529.0</ele><time>2026-04-04T13:27:27.096Z</time></trkpt><trkpt lat="43.9278765" lon="10.8262849"><ele>530.8</ele><time>2026-04-04T13:27:29.097Z</time></trkpt><trkpt lat="43.9278175" lon="10.8263489"><ele>532.5999999999999</ele><time>2026-04-04T13:27:30.097Z</time></trkpt><trkpt lat="43.9277667" lon="10.8264174"><ele>534.4</ele><time>2026-04-04T13:27:31.097Z</time></trkpt><trkpt lat="43.9277076" lon="10.8265057"><ele>536.1999999999999</ele><time>2026-04-04T13:27:32.096Z</time></trkpt><trkpt lat="43.9276343" lon="10.826625"><ele>538.0</ele><time>2026-04-04T13:27:33.096Z</time></trkpt><trkpt lat="43.9275469" lon="10.8267349"><ele>534.75</ele><time>2026-04-04T13:27:34.097Z</time></trkpt><trkpt lat="43.9275473" lon="10.82689"><ele>531.5</ele><time>2026-04-04T13:27:35.097Z</time></trkpt><trkpt lat="43.9275032" lon="10.82701"><ele>528.25</ele><time>2026-04-04T13:27:36.096Z</time></trkpt><trkpt lat="43.9274771" lon="10.8272032"><ele>525.0</ele><time>2026-04-04T13:27:37.097Z</time></trkpt><trkpt lat="43.927436" lon="10.8273592"><ele>525.0</ele><time>2026-04-04T13:27:38.097Z</time></trkpt><trkpt lat="43.9273782" lon="10.8274929"><ele>525.0</ele><time>2026-04-04T13:27:39.097Z</time></trkpt><trkpt lat="43.9273238" lon="10.8276171"><ele>525.0</ele><time>2026-04-04T13:27:40.097Z</time></trkpt><trkpt lat="43.9272379" lon="10.8277013"><ele>525.0</ele><time>2026-04-04T13:27:41.096Z</time></trkpt><trkpt lat="43.927178" lon="10.8278107"><ele>525.0</ele><time>2026-04-04T13:27:42.097Z</time></trkpt><trkpt lat="43.9270803" lon="10.8279041"><ele>526.8</ele><time>2026-04-04T13:27:43.096Z</time></trkpt><trkpt lat="43.9269987" lon="10.8279869"><ele>528.6</ele><time>2026-04-04T13:27:44.097Z</time></trkpt><trkpt lat="43.9269301" lon="10.8280662"><ele>530.4</ele><time>2026-04-04T13:27:45.096Z</time></trkpt><trkpt lat="43.9268583" lon="10.8281958"><ele>532.2</ele><time>2026-04-04T13:27:46.097Z</time></trkpt><trkpt lat="43.9268134" lon="10.828341"><ele>534.0</ele><time>2026-04-04T13:27:47.097Z</time></trkpt><trkpt lat="43.9267427" lon="10.8284624"><ele>533.2</ele><time>2026-04-04T13:27:48.097Z</time></trkpt><trkpt lat="43.9266752" lon="10.8285877"><ele>532.4</ele><time>2026-04-04T13:27:49.097Z</time></trkpt><trkpt lat="43.926632" lon="10.8287103"><ele>531.6</ele><time>2026-04-04T13:27:50.096Z</time></trkpt><trkpt lat="43.9265767" lon="10.8288152"><ele>530.8</ele><time>2026-04-04T13:27:51.096Z</time></trkpt><trkpt lat="43.9265154" lon="10.828946"><ele>530.0</ele><time>2026-04-04T13:27:52.096Z</time></trkpt><trkpt lat="43.9264598" lon="10.8291103"><ele>530.0</ele><time>2026-04-04T13:27:53.098Z</time></trkpt><trkpt lat="43.9264161" lon="10.8292904"><ele>530.0</ele><time>2026-04-04T13:27:54.097Z</time></trkpt><trkpt lat="43.9263551" lon="10.829437"><ele>530.0</ele><time>2026-04-04T13:27:55.097Z</time></trkpt><trkpt lat="43.9262897" lon="10.8295743"><ele>530.0</ele><time>2026-04-04T13:27:56.097Z</time></trkpt><trkpt lat="43.9262253" lon="10.8297155"><ele>531.0</ele><time>2026-04-04T13:27:57.096Z</time></trkpt><trkpt lat="43.9261698" lon="10.8298297"><ele>532.0</ele><time>2026-04-04T13:27:58.096Z</time></trkpt><trkpt lat="43.9261226" lon="10.8299456"><ele>533.0</ele><time>2026-04-04T13:27:59.097Z</time></trkpt><trkpt lat="43.9261074" lon="10.8300354"><ele>534.0</ele><time>2026-04-04T13:28:00.097Z</time></trkpt><trkpt lat="43.9260893" lon="10.8301321"><ele>535.0</ele><time>2026-04-04T13:28:01.097Z</time></trkpt><trkpt lat="43.9260853" lon="10.8302203"><ele>536.0</ele><time>2026-04-04T13:28:02.097Z</time></trkpt><trkpt lat="43.9261063" lon="10.8303397"><ele>536.0</ele><time>2026-04-04T13:28:04.098Z</time></trkpt><trkpt lat="43.9261331" lon="10.830455"><ele>536.0</ele><time>2026-04-04T13:28:06.096Z</time></trkpt><trkpt lat="43.9261776" lon="10.8305794"><ele>536.0</ele><time>2026-04-04T13:28:08.096Z</time></trkpt><trkpt lat="43.9261874" lon="10.830679"><ele>536.0</ele><time>2026-04-04T13:28:09.097Z</time></trkpt><trkpt lat="43.9262176" lon="10.8307912"><ele>536.0</ele><time>2026-04-04T13:28:10.096Z</time></trkpt><trkpt lat="43.9262515" lon="10.8309053"><ele>536.0</ele><time>2026-04-04T13:28:11.097Z</time></trkpt><trkpt lat="43.9262905" lon="10.8310189"><ele>534.8</ele><time>2026-04-04T13:28:12.097Z</time></trkpt><trkpt lat="43.9263303" lon="10.8311524"><ele>533.6</ele><time>2026-04-04T13:28:13.096Z</time></trkpt><trkpt lat="43.9263709" lon="10.8312881"><ele>532.4</ele><time>2026-04-04T13:28:14.096Z</time></trkpt><trkpt lat="43.9264263" lon="10.8314312"><ele>531.2</ele><time>2026-04-04T13:28:15.097Z</time></trkpt><trkpt lat="43.9264726" lon="10.8315658"><ele>530.0</ele><time>2026-04-04T13:28:16.097Z</time></trkpt><trkpt lat="43.926522" lon="10.8317099"><ele>529.2</ele><time>2026-04-04T13:28:17.096Z</time></trkpt><trkpt lat="43.9265801" lon="10.8318435"><ele>528.4</ele><time>2026-04-04T13:28:18.097Z</time></trkpt><trkpt lat="43.9266436" lon="10.8319747"><ele>527.6</ele><time>2026-04-04T13:28:19.096Z</time></trkpt><trkpt lat="43.9267063" lon="10.8320987"><ele>526.8</ele><time>2026-04-04T13:28:20.097Z</time></trkpt><trkpt lat="43.9267618" lon="10.8322122"><ele>526.0</ele><time>2026-04-04T13:28:21.097Z</time></trkpt><trkpt lat="43.9268042" lon="10.8323127"><ele>526.0</ele><time>2026-04-04T13:28:22.097Z</time></trkpt><trkpt lat="43.9268531" lon="10.8324285"><ele>526.0</ele><time>2026-04-04T13:28:23.096Z</time></trkpt><trkpt lat="43.9269039" lon="10.8325222"><ele>526.0</ele><time>2026-04-04T13:28:24.097Z</time></trkpt><trkpt lat="43.9269679" lon="10.8325956"><ele>526.0</ele><time>2026-04-04T13:28:25.096Z</time></trkpt><trkpt lat="43.9270349" lon="10.8326611"><ele>526.0</ele><time>2026-04-04T13:28:26.097Z</time></trkpt><trkpt lat="43.9271034" lon="10.8327274"><ele>526.0</ele><time>2026-04-04T13:28:27.097Z</time></trkpt><trkpt lat="43.9271698" lon="10.8328018"><ele>524.1666666666667</ele><time>2026-04-04T13:28:28.097Z</time></trkpt><trkpt lat="43.9271974" lon="10.8328896"><ele>522.3333333333334</ele><time>2026-04-04T13:28:29.096Z</time></trkpt><trkpt lat="43.9272219" lon="10.8330066"><ele>520.5</ele><time>2026-04-04T13:28:30.097Z</time></trkpt><trkpt lat="43.9272404" lon="10.8331355"><ele>518.6666666666666</ele><time>2026-04-04T13:28:31.097Z</time></trkpt><trkpt lat="43.9272243" lon="10.8332503"><ele>516.8333333333333</ele><time>2026-04-04T13:28:32.097Z</time></trkpt><trkpt lat="43.9272058" lon="10.8333495"><ele>515.0</ele><time>2026-04-04T13:28:33.096Z</time></trkpt><trkpt lat="43.9271308" lon="10.8334268"><ele>513.6</ele><time>2026-04-04T13:28:34.097Z</time></trkpt><trkpt lat="43.9270718" lon="10.8334959"><ele>512.2</ele><time>2026-04-04T13:28:35.096Z</time></trkpt><trkpt lat="43.9269934" lon="10.8335396"><ele>510.79999999999995</ele><time>2026-04-04T13:28:36.096Z</time></trkpt><trkpt lat="43.9268558" lon="10.833584"><ele>509.4</ele><time>2026-04-04T13:28:37.096Z</time></trkpt><trkpt lat="43.926776" lon="10.8336361"><ele>508.0</ele><time>2026-04-04T13:28:38.097Z</time></trkpt><trkpt lat="43.9266959" lon="10.8336873"><ele>508.00000000000006</ele><time>2026-04-04T13:28:39.096Z</time></trkpt><trkpt lat="43.9266422" lon="10.8337598"><ele>508.0</ele><time>2026-04-04T13:28:40.097Z</time></trkpt><trkpt lat="43.9265663" lon="10.8338191"><ele>508.0</ele><time>2026-04-04T13:28:41.097Z</time></trkpt><trkpt lat="43.9265827" lon="10.8339486"><ele>508.0</ele><time>2026-04-04T13:28:42.097Z</time></trkpt><trkpt lat="43.9265638" lon="10.8340481"><ele>508.00000000000006</ele><time>2026-04-04T13:28:43.097Z</time></trkpt><trkpt lat="43.9265333" lon="10.834137"><ele>508.0</ele><time>2026-04-04T13:28:44.096Z</time></trkpt><trkpt lat="43.9265027" lon="10.8342446"><ele>506.33333333333337</ele><time>2026-04-04T13:28:45.097Z</time></trkpt><trkpt lat="43.9264699" lon="10.8343524"><ele>504.6666666666667</ele><time>2026-04-04T13:28:46.097Z</time></trkpt><trkpt lat="43.9264736" lon="10.8344665"><ele>503.0</ele><time>2026-04-04T13:28:47.096Z</time></trkpt><trkpt lat="43.9264592" lon="10.8345766"><ele>501.33333333333337</ele><time>2026-04-04T13:28:48.097Z</time></trkpt><trkpt lat="43.9264451" lon="10.8346868"><ele>499.6666666666667</ele><time>2026-04-04T13:28:49.096Z</time></trkpt><trkpt lat="43.9264321" lon="10.8347915"><ele>498.0</ele><time>2026-04-04T13:28:50.097Z</time></trkpt><trkpt lat="43.9264179" lon="10.8348958"><ele>498.0</ele><time>2026-04-04T13:28:51.097Z</time></trkpt><trkpt lat="43.9264117" lon="10.8349902"><ele>498.0</ele><time>2026-04-04T13:28:52.097Z</time></trkpt><trkpt lat="43.9264048" lon="10.8351011"><ele>498.0</ele><time>2026-04-04T13:28:53.096Z</time></trkpt><trkpt lat="43.9264058" lon="10.835213"><ele>498.0</ele><time>2026-04-04T13:28:54.096Z</time></trkpt><trkpt lat="43.9264057" lon="10.835342"><ele>498.0</ele><time>2026-04-04T13:28:55.097Z</time></trkpt><trkpt lat="43.9264586" lon="10.8354489"><ele>498.0</ele><time>2026-04-04T13:28:57.097Z</time></trkpt><trkpt lat="43.9264819" lon="10.8355304"><ele>496.3333333333333</ele><time>2026-04-04T13:29:00.097Z</time></trkpt><trkpt lat="43.9265016" lon="10.8356233"><ele>494.66666666666663</ele><time>2026-04-04T13:29:35.098Z</time></trkpt><trkpt lat="43.926532" lon="10.8357015"><ele>493.0</ele><time>2026-04-04T13:31:12.098Z</time></trkpt><trkpt lat="43.9265229" lon="10.8357907"><ele>491.3333333333333</ele><time>2026-04-04T13:31:20.096Z</time></trkpt><trkpt lat="43.9265342" lon="10.835916"><ele>489.66666666666663</ele><time>2026-04-04T13:32:08.095Z</time></trkpt><trkpt lat="43.9265382" lon="10.8360228"><ele>488.0</ele><time>2026-04-04T13:32:10.095Z</time></trkpt><trkpt lat="43.9265621" lon="10.8361651"><ele>486.2</ele><time>2026-04-04T13:32:12.095Z</time></trkpt><trkpt lat="43.9265694" lon="10.8363059"><ele>484.4</ele><time>2026-04-04T13:32:14.095Z</time></trkpt><trkpt lat="43.9266097" lon="10.8364391"><ele>482.59999999999997</ele><time>2026-04-04T13:32:16.096Z</time></trkpt><trkpt lat="43.9266638" lon="10.8365761"><ele>480.79999999999995</ele><time>2026-04-04T13:32:18.096Z</time></trkpt><trkpt lat="43.9266839" lon="10.8366883"><ele>479.0</ele><time>2026-04-04T13:32:20.096Z</time></trkpt><trkpt lat="43.9266412" lon="10.8367847"><ele>477.3333333333333</ele><time>2026-04-04T13:32:25.096Z</time></trkpt><trkpt lat="43.9265441" lon="10.8368354"><ele>475.66666666666663</ele><time>2026-04-04T13:32:27.096Z</time></trkpt><trkpt lat="43.9264831" lon="10.836859"><ele>474.0</ele><time>2026-04-04T13:32:28.096Z</time></trkpt><trkpt lat="43.9264152" lon="10.8368721"><ele>472.33333333333337</ele><time>2026-04-04T13:32:29.097Z</time></trkpt><trkpt lat="43.9263468" lon="10.8368857"><ele>470.6666666666667</ele><time>2026-04-04T13:32:30.097Z</time></trkpt><trkpt lat="43.9262395" lon="10.8369372"><ele>469.0</ele><time>2026-04-04T13:32:32.096Z</time></trkpt><trkpt lat="43.9261545" lon="10.8370145"><ele>469.0</ele><time>2026-04-04T13:32:34.096Z</time></trkpt><trkpt lat="43.9260556" lon="10.8370912"><ele>469.0</ele><time>2026-04-04T13:32:36.096Z</time></trkpt><trkpt lat="43.9259372" lon="10.8371137"><ele>469.0</ele><time>2026-04-04T13:32:38.095Z</time></trkpt><trkpt lat="43.9258139" lon="10.837127"><ele>469.0</ele><time>2026-04-04T13:32:40.096Z</time></trkpt><trkpt lat="43.925749" lon="10.8371426"><ele>469.0</ele><time>2026-04-04T13:32:41.096Z</time></trkpt><trkpt lat="43.9256837" lon="10.837172"><ele>468.50000000000006</ele><time>2026-04-04T13:32:42.097Z</time></trkpt><trkpt lat="43.9256101" lon="10.8372042"><ele>468.0</ele><time>2026-04-04T13:32:43.096Z</time></trkpt><trkpt lat="43.925532" lon="10.8372436"><ele>467.5</ele><time>2026-04-04T13:32:44.096Z</time></trkpt><trkpt lat="43.9254598" lon="10.8372734"><ele>467.0</ele><time>2026-04-04T13:32:45.095Z</time></trkpt><trkpt lat="43.9253946" lon="10.8372799"><ele>466.50000000000006</ele><time>2026-04-04T13:32:46.096Z</time></trkpt><trkpt lat="43.9253262" lon="10.8372711"><ele>466.0</ele><time>2026-04-04T13:32:47.095Z</time></trkpt><trkpt lat="43.9252384" lon="10.8372579"><ele>466.00000000000006</ele><time>2026-04-04T13:32:48.095Z</time></trkpt><trkpt lat="43.9251574" lon="10.8372472"><ele>466.0</ele><time>2026-04-04T13:32:49.095Z</time></trkpt><trkpt lat="43.9250759" lon="10.8372232"><ele>466.0</ele><time>2026-04-04T13:32:50.096Z</time></trkpt><trkpt lat="43.9249977" lon="10.8371843"><ele>466.0</ele><time>2026-04-04T13:32:51.096Z</time></trkpt><trkpt lat="43.9249272" lon="10.8371482"><ele>466.00000000000006</ele><time>2026-04-04T13:32:52.096Z</time></trkpt><trkpt lat="43.9248466" lon="10.8371044"><ele>466.0</ele><time>2026-04-04T13:32:53.095Z</time></trkpt><trkpt lat="43.9247752" lon="10.8370654"><ele>466.1666666666667</ele><time>2026-04-04T13:32:54.096Z</time></trkpt><trkpt lat="43.924709" lon="10.8370241"><ele>466.33333333333337</ele><time>2026-04-04T13:32:55.096Z</time></trkpt><trkpt lat="43.9246482" lon="10.8369876"><ele>466.5</ele><time>2026-04-04T13:32:56.096Z</time></trkpt><trkpt lat="43.9245393" lon="10.8369094"><ele>466.66666666666663</ele><time>2026-04-04T13:32:58.095Z</time></trkpt><trkpt lat="43.9244752" lon="10.836873"><ele>466.8333333333333</ele><time>2026-04-04T13:32:59.095Z</time></trkpt><trkpt lat="43.9243664" lon="10.8368143"><ele>467.0</ele><time>2026-04-04T13:33:01.095Z</time></trkpt><trkpt lat="43.924279" lon="10.836754"><ele>467.0</ele><time>2026-04-04T13:33:03.096Z</time></trkpt><trkpt lat="43.9241897" lon="10.8367105"><ele>448.0</ele><time>2026-04-04T13:33:05.096Z</time></trkpt><trkpt lat="43.9241081" lon="10.8366614"><ele>448.0</ele><time>2026-04-04T13:33:07.096Z</time></trkpt></trkseg><trkseg><trkpt lat="43.9164754" lon="10.8348811"><ele>274.0</ele><time>2026-04-04T13:36:23.181Z</time></trkpt><trkpt lat="43.9163677" lon="10.8349451"><ele>274.0</ele><time>2026-04-04T13:36:24.181Z</time></trkpt><trkpt lat="43.9162352" lon="10.8350078"><ele>274.0</ele><time>2026-04-04T13:36:25.182Z</time></trkpt><trkpt lat="43.9158244" lon="10.835222"><ele>253.0</ele><time>2026-04-04T13:36:28.464Z</time></trkpt></trkseg></trk></gpx>